<?xml version="1.0" encoding="UTF-8" standalone="no" ?>
<gpx xmlns="http://www.topografix.com/GPX/1/1" xmlns:xsi="http://www.w3.org/2001/XMLSchema-instance" xsi:schemaLocation="http://www.topografix.com/GPX/1/1 http://www.topografix.com/GPX/1/1/gpx.xsd" version="1.1" creator="VisuGPX - https://www.visugpx.com">
  <metadata>
    <name>150918_FNI_Céret</name>
    <desc><![CDATA[Petite journée thermique à Céret. Il fallait s\'accrocher!]]></desc>
  </metadata>
  <trk>
    <name><![CDATA[15091801]]></name>
    <trkseg>
      <trkpt lat="42.45916" lon="2.76791">
        <ele>819.5</ele>
        <time>2015-09-18T10:58:53Z</time>
      </trkpt>
      <trkpt lat="42.45916" lon="2.76791">
        <ele>818.4</ele>
        <time>2015-09-18T10:58:53Z</time>
      </trkpt>
      <trkpt lat="42.45929" lon="2.76801">
        <ele>817.5</ele>
        <time>2015-09-18T10:58:55Z</time>
      </trkpt>
      <trkpt lat="42.45936" lon="2.76806">
        <ele>816.9</ele>
        <time>2015-09-18T10:58:56Z</time>
      </trkpt>
      <trkpt lat="42.45942" lon="2.7681">
        <ele>815.9</ele>
        <time>2015-09-18T10:58:57Z</time>
      </trkpt>
      <trkpt lat="42.45948" lon="2.76811">
        <ele>814.7</ele>
        <time>2015-09-18T10:58:58Z</time>
      </trkpt>
      <trkpt lat="42.45955" lon="2.76811">
        <ele>812.7</ele>
        <time>2015-09-18T10:58:59Z</time>
      </trkpt>
      <trkpt lat="42.45962" lon="2.76814">
        <ele>810.1</ele>
        <time>2015-09-18T10:59:00Z</time>
      </trkpt>
      <trkpt lat="42.45969" lon="2.76821">
        <ele>807.6</ele>
        <time>2015-09-18T10:59:01Z</time>
      </trkpt>
      <trkpt lat="42.45974" lon="2.76831">
        <ele>805.9</ele>
        <time>2015-09-18T10:59:02Z</time>
      </trkpt>
      <trkpt lat="42.45977" lon="2.76843">
        <ele>806.1</ele>
        <time>2015-09-18T10:59:03Z</time>
      </trkpt>
      <trkpt lat="42.45978" lon="2.76854">
        <ele>804.2</ele>
        <time>2015-09-18T10:59:04Z</time>
      </trkpt>
      <trkpt lat="42.45979" lon="2.76866">
        <ele>802.9</ele>
        <time>2015-09-18T10:59:05Z</time>
      </trkpt>
      <trkpt lat="42.4598" lon="2.76877">
        <ele>802</ele>
        <time>2015-09-18T10:59:06Z</time>
      </trkpt>
      <trkpt lat="42.45981" lon="2.76889">
        <ele>801.6</ele>
        <time>2015-09-18T10:59:07Z</time>
      </trkpt>
      <trkpt lat="42.45981" lon="2.769">
        <ele>801.8</ele>
        <time>2015-09-18T10:59:08Z</time>
      </trkpt>
      <trkpt lat="42.45981" lon="2.7691">
        <ele>801.3</ele>
        <time>2015-09-18T10:59:09Z</time>
      </trkpt>
      <trkpt lat="42.45981" lon="2.76921">
        <ele>801.2</ele>
        <time>2015-09-18T10:59:10Z</time>
      </trkpt>
      <trkpt lat="42.45982" lon="2.76931">
        <ele>800.1</ele>
        <time>2015-09-18T10:59:11Z</time>
      </trkpt>
      <trkpt lat="42.45986" lon="2.76941">
        <ele>799.4</ele>
        <time>2015-09-18T10:59:12Z</time>
      </trkpt>
      <trkpt lat="42.4599" lon="2.7695">
        <ele>798.8</ele>
        <time>2015-09-18T10:59:13Z</time>
      </trkpt>
      <trkpt lat="42.45994" lon="2.7696">
        <ele>797.6</ele>
        <time>2015-09-18T10:59:14Z</time>
      </trkpt>
      <trkpt lat="42.45994" lon="2.7696">
        <ele>796.7</ele>
        <time>2015-09-18T10:59:14Z</time>
      </trkpt>
      <trkpt lat="42.46002" lon="2.76977">
        <ele>795.7</ele>
        <time>2015-09-18T10:59:16Z</time>
      </trkpt>
      <trkpt lat="42.46011" lon="2.76995">
        <ele>795</ele>
        <time>2015-09-18T10:59:18Z</time>
      </trkpt>
      <trkpt lat="42.46015" lon="2.77005">
        <ele>794.5</ele>
        <time>2015-09-18T10:59:19Z</time>
      </trkpt>
      <trkpt lat="42.46017" lon="2.77015">
        <ele>794</ele>
        <time>2015-09-18T10:59:20Z</time>
      </trkpt>
      <trkpt lat="42.46017" lon="2.77015">
        <ele>792.5</ele>
        <time>2015-09-18T10:59:20Z</time>
      </trkpt>
      <trkpt lat="42.46023" lon="2.77033">
        <ele>790.2</ele>
        <time>2015-09-18T10:59:22Z</time>
      </trkpt>
      <trkpt lat="42.46028" lon="2.77042">
        <ele>787.3</ele>
        <time>2015-09-18T10:59:23Z</time>
      </trkpt>
      <trkpt lat="42.46034" lon="2.7705">
        <ele>784.8</ele>
        <time>2015-09-18T10:59:24Z</time>
      </trkpt>
      <trkpt lat="42.46042" lon="2.77056">
        <ele>783.4</ele>
        <time>2015-09-18T10:59:25Z</time>
      </trkpt>
      <trkpt lat="42.4605" lon="2.77059">
        <ele>783.1</ele>
        <time>2015-09-18T10:59:26Z</time>
      </trkpt>
      <trkpt lat="42.46057" lon="2.77059">
        <ele>782.5</ele>
        <time>2015-09-18T10:59:27Z</time>
      </trkpt>
      <trkpt lat="42.46063" lon="2.77059">
        <ele>781.1</ele>
        <time>2015-09-18T10:59:28Z</time>
      </trkpt>
      <trkpt lat="42.46069" lon="2.77059">
        <ele>779.3</ele>
        <time>2015-09-18T10:59:29Z</time>
      </trkpt>
      <trkpt lat="42.46075" lon="2.77058">
        <ele>777.3</ele>
        <time>2015-09-18T10:59:30Z</time>
      </trkpt>
      <trkpt lat="42.46083" lon="2.77058">
        <ele>775.2</ele>
        <time>2015-09-18T10:59:31Z</time>
      </trkpt>
      <trkpt lat="42.4609" lon="2.77059">
        <ele>773.9</ele>
        <time>2015-09-18T10:59:32Z</time>
      </trkpt>
      <trkpt lat="42.46097" lon="2.77061">
        <ele>773</ele>
        <time>2015-09-18T10:59:33Z</time>
      </trkpt>
      <trkpt lat="42.46103" lon="2.77064">
        <ele>773</ele>
        <time>2015-09-18T10:59:34Z</time>
      </trkpt>
      <trkpt lat="42.46109" lon="2.77069">
        <ele>771.4</ele>
        <time>2015-09-18T10:59:35Z</time>
      </trkpt>
      <trkpt lat="42.46115" lon="2.77074">
        <ele>770.7</ele>
        <time>2015-09-18T10:59:36Z</time>
      </trkpt>
      <trkpt lat="42.4612" lon="2.7708">
        <ele>769.9</ele>
        <time>2015-09-18T10:59:37Z</time>
      </trkpt>
      <trkpt lat="42.46125" lon="2.77087">
        <ele>769.1</ele>
        <time>2015-09-18T10:59:38Z</time>
      </trkpt>
      <trkpt lat="42.4613" lon="2.77094">
        <ele>768</ele>
        <time>2015-09-18T10:59:39Z</time>
      </trkpt>
      <trkpt lat="42.46134" lon="2.77102">
        <ele>767.4</ele>
        <time>2015-09-18T10:59:40Z</time>
      </trkpt>
      <trkpt lat="42.46138" lon="2.7711">
        <ele>767.2</ele>
        <time>2015-09-18T10:59:41Z</time>
      </trkpt>
      <trkpt lat="42.46142" lon="2.77119">
        <ele>767.4</ele>
        <time>2015-09-18T10:59:42Z</time>
      </trkpt>
      <trkpt lat="42.46146" lon="2.77127">
        <ele>767.4</ele>
        <time>2015-09-18T10:59:43Z</time>
      </trkpt>
      <trkpt lat="42.4615" lon="2.77133">
        <ele>767.3</ele>
        <time>2015-09-18T10:59:44Z</time>
      </trkpt>
      <trkpt lat="42.46155" lon="2.77138">
        <ele>766.4</ele>
        <time>2015-09-18T10:59:45Z</time>
      </trkpt>
      <trkpt lat="42.46166" lon="2.77146">
        <ele>765.7</ele>
        <time>2015-09-18T10:59:47Z</time>
      </trkpt>
      <trkpt lat="42.46172" lon="2.77152">
        <ele>765.1</ele>
        <time>2015-09-18T10:59:48Z</time>
      </trkpt>
      <trkpt lat="42.46177" lon="2.77158">
        <ele>765.1</ele>
        <time>2015-09-18T10:59:49Z</time>
      </trkpt>
      <trkpt lat="42.46181" lon="2.77163">
        <ele>764.6</ele>
        <time>2015-09-18T10:59:50Z</time>
      </trkpt>
      <trkpt lat="42.46181" lon="2.77163">
        <ele>763.5</ele>
        <time>2015-09-18T10:59:50Z</time>
      </trkpt>
      <trkpt lat="42.4619" lon="2.77172">
        <ele>761.7</ele>
        <time>2015-09-18T10:59:52Z</time>
      </trkpt>
      <trkpt lat="42.46195" lon="2.77176">
        <ele>759.5</ele>
        <time>2015-09-18T10:59:53Z</time>
      </trkpt>
      <trkpt lat="42.462" lon="2.7718">
        <ele>757.6</ele>
        <time>2015-09-18T10:59:54Z</time>
      </trkpt>
      <trkpt lat="42.46206" lon="2.77184">
        <ele>756.8</ele>
        <time>2015-09-18T10:59:55Z</time>
      </trkpt>
      <trkpt lat="42.46206" lon="2.77184">
        <ele>757</ele>
        <time>2015-09-18T10:59:55Z</time>
      </trkpt>
      <trkpt lat="42.46218" lon="2.77188">
        <ele>757.1</ele>
        <time>2015-09-18T10:59:57Z</time>
      </trkpt>
      <trkpt lat="42.46224" lon="2.7719">
        <ele>757.1</ele>
        <time>2015-09-18T10:59:58Z</time>
      </trkpt>
      <trkpt lat="42.4623" lon="2.77193">
        <ele>756.8</ele>
        <time>2015-09-18T10:59:59Z</time>
      </trkpt>
      <trkpt lat="42.46235" lon="2.77195">
        <ele>756.2</ele>
        <time>2015-09-18T11:00:00Z</time>
      </trkpt>
      <trkpt lat="42.46241" lon="2.77198">
        <ele>755.5</ele>
        <time>2015-09-18T11:00:01Z</time>
      </trkpt>
      <trkpt lat="42.46246" lon="2.772">
        <ele>754.5</ele>
        <time>2015-09-18T11:00:02Z</time>
      </trkpt>
      <trkpt lat="42.46252" lon="2.77203">
        <ele>752.9</ele>
        <time>2015-09-18T11:00:03Z</time>
      </trkpt>
      <trkpt lat="42.46257" lon="2.77207">
        <ele>751</ele>
        <time>2015-09-18T11:00:04Z</time>
      </trkpt>
      <trkpt lat="42.46262" lon="2.77212">
        <ele>749.1</ele>
        <time>2015-09-18T11:00:05Z</time>
      </trkpt>
      <trkpt lat="42.46267" lon="2.77216">
        <ele>747.4</ele>
        <time>2015-09-18T11:00:06Z</time>
      </trkpt>
      <trkpt lat="42.46273" lon="2.77221">
        <ele>745.7</ele>
        <time>2015-09-18T11:00:07Z</time>
      </trkpt>
      <trkpt lat="42.46277" lon="2.77225">
        <ele>744.2</ele>
        <time>2015-09-18T11:00:08Z</time>
      </trkpt>
      <trkpt lat="42.46281" lon="2.7723">
        <ele>742.5</ele>
        <time>2015-09-18T11:00:09Z</time>
      </trkpt>
      <trkpt lat="42.46285" lon="2.77236">
        <ele>740.2</ele>
        <time>2015-09-18T11:00:10Z</time>
      </trkpt>
      <trkpt lat="42.4629" lon="2.77243">
        <ele>737</ele>
        <time>2015-09-18T11:00:11Z</time>
      </trkpt>
      <trkpt lat="42.46295" lon="2.77251">
        <ele>733.6</ele>
        <time>2015-09-18T11:00:12Z</time>
      </trkpt>
      <trkpt lat="42.46301" lon="2.77259">
        <ele>731.1</ele>
        <time>2015-09-18T11:00:13Z</time>
      </trkpt>
      <trkpt lat="42.46306" lon="2.77267">
        <ele>728.2</ele>
        <time>2015-09-18T11:00:14Z</time>
      </trkpt>
      <trkpt lat="42.46312" lon="2.77275">
        <ele>726.3</ele>
        <time>2015-09-18T11:00:15Z</time>
      </trkpt>
      <trkpt lat="42.46317" lon="2.77282">
        <ele>724</ele>
        <time>2015-09-18T11:00:16Z</time>
      </trkpt>
      <trkpt lat="42.46327" lon="2.77295">
        <ele>721.7</ele>
        <time>2015-09-18T11:00:18Z</time>
      </trkpt>
      <trkpt lat="42.46333" lon="2.77302">
        <ele>720</ele>
        <time>2015-09-18T11:00:19Z</time>
      </trkpt>
      <trkpt lat="42.4634" lon="2.77309">
        <ele>719.3</ele>
        <time>2015-09-18T11:00:20Z</time>
      </trkpt>
      <trkpt lat="42.4634" lon="2.77309">
        <ele>719.8</ele>
        <time>2015-09-18T11:00:20Z</time>
      </trkpt>
      <trkpt lat="42.46351" lon="2.77325">
        <ele>720.6</ele>
        <time>2015-09-18T11:00:22Z</time>
      </trkpt>
      <trkpt lat="42.46356" lon="2.77333">
        <ele>721.5</ele>
        <time>2015-09-18T11:00:23Z</time>
      </trkpt>
      <trkpt lat="42.4636" lon="2.77341">
        <ele>722.5</ele>
        <time>2015-09-18T11:00:24Z</time>
      </trkpt>
      <trkpt lat="42.46363" lon="2.77348">
        <ele>723.2</ele>
        <time>2015-09-18T11:00:25Z</time>
      </trkpt>
      <trkpt lat="42.46366" lon="2.77353">
        <ele>723.5</ele>
        <time>2015-09-18T11:00:26Z</time>
      </trkpt>
      <trkpt lat="42.46369" lon="2.7736">
        <ele>723</ele>
        <time>2015-09-18T11:00:27Z</time>
      </trkpt>
      <trkpt lat="42.4637" lon="2.77369">
        <ele>722.3</ele>
        <time>2015-09-18T11:00:28Z</time>
      </trkpt>
      <trkpt lat="42.46371" lon="2.7738">
        <ele>721.5</ele>
        <time>2015-09-18T11:00:29Z</time>
      </trkpt>
      <trkpt lat="42.4637" lon="2.77391">
        <ele>721.3</ele>
        <time>2015-09-18T11:00:30Z</time>
      </trkpt>
      <trkpt lat="42.46369" lon="2.77402">
        <ele>721.2</ele>
        <time>2015-09-18T11:00:31Z</time>
      </trkpt>
      <trkpt lat="42.46368" lon="2.77413">
        <ele>721.5</ele>
        <time>2015-09-18T11:00:32Z</time>
      </trkpt>
      <trkpt lat="42.46366" lon="2.77423">
        <ele>721.8</ele>
        <time>2015-09-18T11:00:33Z</time>
      </trkpt>
      <trkpt lat="42.46363" lon="2.77434">
        <ele>721.3</ele>
        <time>2015-09-18T11:00:34Z</time>
      </trkpt>
      <trkpt lat="42.46358" lon="2.77444">
        <ele>720.9</ele>
        <time>2015-09-18T11:00:35Z</time>
      </trkpt>
      <trkpt lat="42.46351" lon="2.77455">
        <ele>720.6</ele>
        <time>2015-09-18T11:00:36Z</time>
      </trkpt>
      <trkpt lat="42.46344" lon="2.77465">
        <ele>720.4</ele>
        <time>2015-09-18T11:00:37Z</time>
      </trkpt>
      <trkpt lat="42.46335" lon="2.77473">
        <ele>719.9</ele>
        <time>2015-09-18T11:00:38Z</time>
      </trkpt>
      <trkpt lat="42.46325" lon="2.77478">
        <ele>719.3</ele>
        <time>2015-09-18T11:00:39Z</time>
      </trkpt>
      <trkpt lat="42.46315" lon="2.7748">
        <ele>719.1</ele>
        <time>2015-09-18T11:00:40Z</time>
      </trkpt>
      <trkpt lat="42.46305" lon="2.77478">
        <ele>719.6</ele>
        <time>2015-09-18T11:00:41Z</time>
      </trkpt>
      <trkpt lat="42.46297" lon="2.77474">
        <ele>720.2</ele>
        <time>2015-09-18T11:00:42Z</time>
      </trkpt>
      <trkpt lat="42.46291" lon="2.77467">
        <ele>720.5</ele>
        <time>2015-09-18T11:00:43Z</time>
      </trkpt>
      <trkpt lat="42.46287" lon="2.77459">
        <ele>719.9</ele>
        <time>2015-09-18T11:00:44Z</time>
      </trkpt>
      <trkpt lat="42.46285" lon="2.77449">
        <ele>719.7</ele>
        <time>2015-09-18T11:00:45Z</time>
      </trkpt>
      <trkpt lat="42.46285" lon="2.77439">
        <ele>720.4</ele>
        <time>2015-09-18T11:00:46Z</time>
      </trkpt>
      <trkpt lat="42.46286" lon="2.7743">
        <ele>721.2</ele>
        <time>2015-09-18T11:00:47Z</time>
      </trkpt>
      <trkpt lat="42.46289" lon="2.77415">
        <ele>721.7</ele>
        <time>2015-09-18T11:00:49Z</time>
      </trkpt>
      <trkpt lat="42.4629" lon="2.77408">
        <ele>720.4</ele>
        <time>2015-09-18T11:00:50Z</time>
      </trkpt>
      <trkpt lat="42.4629" lon="2.77408">
        <ele>719</ele>
        <time>2015-09-18T11:00:50Z</time>
      </trkpt>
      <trkpt lat="42.46296" lon="2.77396">
        <ele>717.3</ele>
        <time>2015-09-18T11:00:52Z</time>
      </trkpt>
      <trkpt lat="42.46301" lon="2.77394">
        <ele>716.9</ele>
        <time>2015-09-18T11:00:53Z</time>
      </trkpt>
      <trkpt lat="42.46307" lon="2.77395">
        <ele>717.3</ele>
        <time>2015-09-18T11:00:54Z</time>
      </trkpt>
      <trkpt lat="42.46312" lon="2.77398">
        <ele>717.5</ele>
        <time>2015-09-18T11:00:55Z</time>
      </trkpt>
      <trkpt lat="42.46312" lon="2.77398">
        <ele>717.3</ele>
        <time>2015-09-18T11:00:55Z</time>
      </trkpt>
      <trkpt lat="42.4632" lon="2.77396">
        <ele>716.9</ele>
        <time>2015-09-18T11:00:57Z</time>
      </trkpt>
      <trkpt lat="42.46325" lon="2.77393">
        <ele>716.9</ele>
        <time>2015-09-18T11:00:58Z</time>
      </trkpt>
      <trkpt lat="42.4633" lon="2.7739">
        <ele>717.4</ele>
        <time>2015-09-18T11:00:59Z</time>
      </trkpt>
      <trkpt lat="42.46336" lon="2.77388">
        <ele>718</ele>
        <time>2015-09-18T11:01:00Z</time>
      </trkpt>
      <trkpt lat="42.46341" lon="2.77385">
        <ele>718.5</ele>
        <time>2015-09-18T11:01:01Z</time>
      </trkpt>
      <trkpt lat="42.46345" lon="2.7738">
        <ele>718.4</ele>
        <time>2015-09-18T11:01:02Z</time>
      </trkpt>
      <trkpt lat="42.46345" lon="2.7738">
        <ele>718.2</ele>
        <time>2015-09-18T11:01:02Z</time>
      </trkpt>
      <trkpt lat="42.46354" lon="2.77374">
        <ele>717.8</ele>
        <time>2015-09-18T11:01:04Z</time>
      </trkpt>
      <trkpt lat="42.46359" lon="2.77375">
        <ele>717.5</ele>
        <time>2015-09-18T11:01:05Z</time>
      </trkpt>
      <trkpt lat="42.46365" lon="2.77378">
        <ele>717.8</ele>
        <time>2015-09-18T11:01:06Z</time>
      </trkpt>
      <trkpt lat="42.46369" lon="2.77382">
        <ele>718.3</ele>
        <time>2015-09-18T11:01:07Z</time>
      </trkpt>
      <trkpt lat="42.46373" lon="2.77386">
        <ele>718.4</ele>
        <time>2015-09-18T11:01:08Z</time>
      </trkpt>
      <trkpt lat="42.46376" lon="2.7739">
        <ele>718.2</ele>
        <time>2015-09-18T11:01:09Z</time>
      </trkpt>
      <trkpt lat="42.46379" lon="2.77395">
        <ele>718.2</ele>
        <time>2015-09-18T11:01:10Z</time>
      </trkpt>
      <trkpt lat="42.46382" lon="2.77401">
        <ele>717.5</ele>
        <time>2015-09-18T11:01:11Z</time>
      </trkpt>
      <trkpt lat="42.46386" lon="2.77408">
        <ele>718.3</ele>
        <time>2015-09-18T11:01:12Z</time>
      </trkpt>
      <trkpt lat="42.46388" lon="2.77415">
        <ele>719.1</ele>
        <time>2015-09-18T11:01:13Z</time>
      </trkpt>
      <trkpt lat="42.46388" lon="2.77415">
        <ele>719.6</ele>
        <time>2015-09-18T11:01:13Z</time>
      </trkpt>
      <trkpt lat="42.46392" lon="2.77429">
        <ele>719.3</ele>
        <time>2015-09-18T11:01:15Z</time>
      </trkpt>
      <trkpt lat="42.46394" lon="2.77436">
        <ele>718.5</ele>
        <time>2015-09-18T11:01:16Z</time>
      </trkpt>
      <trkpt lat="42.46399" lon="2.77451">
        <ele>717.7</ele>
        <time>2015-09-18T11:01:18Z</time>
      </trkpt>
      <trkpt lat="42.46402" lon="2.7746">
        <ele>717.1</ele>
        <time>2015-09-18T11:01:19Z</time>
      </trkpt>
      <trkpt lat="42.46405" lon="2.77469">
        <ele>717.1</ele>
        <time>2015-09-18T11:01:20Z</time>
      </trkpt>
      <trkpt lat="42.46405" lon="2.77469">
        <ele>718.4</ele>
        <time>2015-09-18T11:01:20Z</time>
      </trkpt>
      <trkpt lat="42.46409" lon="2.77488">
        <ele>720</ele>
        <time>2015-09-18T11:01:22Z</time>
      </trkpt>
      <trkpt lat="42.46412" lon="2.77495">
        <ele>721.8</ele>
        <time>2015-09-18T11:01:23Z</time>
      </trkpt>
      <trkpt lat="42.46415" lon="2.77501">
        <ele>723.6</ele>
        <time>2015-09-18T11:01:24Z</time>
      </trkpt>
      <trkpt lat="42.46417" lon="2.77506">
        <ele>724</ele>
        <time>2015-09-18T11:01:25Z</time>
      </trkpt>
      <trkpt lat="42.46419" lon="2.77513">
        <ele>723.5</ele>
        <time>2015-09-18T11:01:26Z</time>
      </trkpt>
      <trkpt lat="42.46419" lon="2.77521">
        <ele>723.4</ele>
        <time>2015-09-18T11:01:27Z</time>
      </trkpt>
      <trkpt lat="42.46418" lon="2.77532">
        <ele>723.3</ele>
        <time>2015-09-18T11:01:28Z</time>
      </trkpt>
      <trkpt lat="42.46415" lon="2.77542">
        <ele>723.6</ele>
        <time>2015-09-18T11:01:29Z</time>
      </trkpt>
      <trkpt lat="42.4641" lon="2.77552">
        <ele>724.9</ele>
        <time>2015-09-18T11:01:30Z</time>
      </trkpt>
      <trkpt lat="42.46404" lon="2.7756">
        <ele>726.3</ele>
        <time>2015-09-18T11:01:31Z</time>
      </trkpt>
      <trkpt lat="42.46398" lon="2.77569">
        <ele>728.1</ele>
        <time>2015-09-18T11:01:32Z</time>
      </trkpt>
      <trkpt lat="42.46392" lon="2.77576">
        <ele>729.6</ele>
        <time>2015-09-18T11:01:33Z</time>
      </trkpt>
      <trkpt lat="42.46387" lon="2.77581">
        <ele>730.5</ele>
        <time>2015-09-18T11:01:34Z</time>
      </trkpt>
      <trkpt lat="42.46379" lon="2.77586">
        <ele>730.2</ele>
        <time>2015-09-18T11:01:35Z</time>
      </trkpt>
      <trkpt lat="42.46368" lon="2.77588">
        <ele>729.6</ele>
        <time>2015-09-18T11:01:36Z</time>
      </trkpt>
      <trkpt lat="42.46357" lon="2.77588">
        <ele>730.1</ele>
        <time>2015-09-18T11:01:37Z</time>
      </trkpt>
      <trkpt lat="42.46345" lon="2.77585">
        <ele>730.9</ele>
        <time>2015-09-18T11:01:38Z</time>
      </trkpt>
      <trkpt lat="42.46336" lon="2.77579">
        <ele>731.1</ele>
        <time>2015-09-18T11:01:39Z</time>
      </trkpt>
      <trkpt lat="42.46328" lon="2.7757">
        <ele>730.9</ele>
        <time>2015-09-18T11:01:40Z</time>
      </trkpt>
      <trkpt lat="42.46323" lon="2.77559">
        <ele>730.3</ele>
        <time>2015-09-18T11:01:41Z</time>
      </trkpt>
      <trkpt lat="42.4632" lon="2.77547">
        <ele>728.8</ele>
        <time>2015-09-18T11:01:42Z</time>
      </trkpt>
      <trkpt lat="42.4632" lon="2.77536">
        <ele>727.7</ele>
        <time>2015-09-18T11:01:43Z</time>
      </trkpt>
      <trkpt lat="42.46327" lon="2.77517">
        <ele>726.9</ele>
        <time>2015-09-18T11:01:45Z</time>
      </trkpt>
      <trkpt lat="42.46331" lon="2.7751">
        <ele>726.8</ele>
        <time>2015-09-18T11:01:46Z</time>
      </trkpt>
      <trkpt lat="42.46336" lon="2.77505">
        <ele>727.1</ele>
        <time>2015-09-18T11:01:47Z</time>
      </trkpt>
      <trkpt lat="42.4634" lon="2.77498">
        <ele>727</ele>
        <time>2015-09-18T11:01:48Z</time>
      </trkpt>
      <trkpt lat="42.46344" lon="2.77491">
        <ele>726.7</ele>
        <time>2015-09-18T11:01:49Z</time>
      </trkpt>
      <trkpt lat="42.46349" lon="2.77486">
        <ele>727.2</ele>
        <time>2015-09-18T11:01:50Z</time>
      </trkpt>
      <trkpt lat="42.46354" lon="2.77484">
        <ele>728.1</ele>
        <time>2015-09-18T11:01:51Z</time>
      </trkpt>
      <trkpt lat="42.46359" lon="2.77484">
        <ele>729.1</ele>
        <time>2015-09-18T11:01:52Z</time>
      </trkpt>
      <trkpt lat="42.46365" lon="2.77484">
        <ele>730.2</ele>
        <time>2015-09-18T11:01:53Z</time>
      </trkpt>
      <trkpt lat="42.4637" lon="2.77485">
        <ele>731.4</ele>
        <time>2015-09-18T11:01:54Z</time>
      </trkpt>
      <trkpt lat="42.46375" lon="2.77485">
        <ele>732.2</ele>
        <time>2015-09-18T11:01:55Z</time>
      </trkpt>
      <trkpt lat="42.46379" lon="2.77488">
        <ele>732.7</ele>
        <time>2015-09-18T11:01:56Z</time>
      </trkpt>
      <trkpt lat="42.46385" lon="2.77504">
        <ele>733.6</ele>
        <time>2015-09-18T11:01:58Z</time>
      </trkpt>
      <trkpt lat="42.46387" lon="2.77514">
        <ele>734.4</ele>
        <time>2015-09-18T11:01:59Z</time>
      </trkpt>
      <trkpt lat="42.46387" lon="2.77525">
        <ele>735.4</ele>
        <time>2015-09-18T11:02:00Z</time>
      </trkpt>
      <trkpt lat="42.46384" lon="2.77535">
        <ele>736.3</ele>
        <time>2015-09-18T11:02:01Z</time>
      </trkpt>
      <trkpt lat="42.46379" lon="2.77544">
        <ele>735.1</ele>
        <time>2015-09-18T11:02:02Z</time>
      </trkpt>
      <trkpt lat="42.46372" lon="2.77553">
        <ele>734</ele>
        <time>2015-09-18T11:02:03Z</time>
      </trkpt>
      <trkpt lat="42.46364" lon="2.77561">
        <ele>733.3</ele>
        <time>2015-09-18T11:02:04Z</time>
      </trkpt>
      <trkpt lat="42.46353" lon="2.77567">
        <ele>733.2</ele>
        <time>2015-09-18T11:02:05Z</time>
      </trkpt>
      <trkpt lat="42.46342" lon="2.77569">
        <ele>733.2</ele>
        <time>2015-09-18T11:02:06Z</time>
      </trkpt>
      <trkpt lat="42.4633" lon="2.77568">
        <ele>733.9</ele>
        <time>2015-09-18T11:02:07Z</time>
      </trkpt>
      <trkpt lat="42.46318" lon="2.77565">
        <ele>735.5</ele>
        <time>2015-09-18T11:02:08Z</time>
      </trkpt>
      <trkpt lat="42.46307" lon="2.77561">
        <ele>737.2</ele>
        <time>2015-09-18T11:02:09Z</time>
      </trkpt>
      <trkpt lat="42.46298" lon="2.77555">
        <ele>738.1</ele>
        <time>2015-09-18T11:02:10Z</time>
      </trkpt>
      <trkpt lat="42.46291" lon="2.77547">
        <ele>737.6</ele>
        <time>2015-09-18T11:02:11Z</time>
      </trkpt>
      <trkpt lat="42.46287" lon="2.77537">
        <ele>736.8</ele>
        <time>2015-09-18T11:02:12Z</time>
      </trkpt>
      <trkpt lat="42.46285" lon="2.77526">
        <ele>736.7</ele>
        <time>2015-09-18T11:02:13Z</time>
      </trkpt>
      <trkpt lat="42.46284" lon="2.77514">
        <ele>736.4</ele>
        <time>2015-09-18T11:02:14Z</time>
      </trkpt>
      <trkpt lat="42.46284" lon="2.77501">
        <ele>737.5</ele>
        <time>2015-09-18T11:02:15Z</time>
      </trkpt>
      <trkpt lat="42.46286" lon="2.77489">
        <ele>741.9</ele>
        <time>2015-09-18T11:02:16Z</time>
      </trkpt>
      <trkpt lat="42.4629" lon="2.77471">
        <ele>745</ele>
        <time>2015-09-18T11:02:18Z</time>
      </trkpt>
      <trkpt lat="42.46293" lon="2.77463">
        <ele>748.5</ele>
        <time>2015-09-18T11:02:19Z</time>
      </trkpt>
      <trkpt lat="42.46296" lon="2.77458">
        <ele>751.2</ele>
        <time>2015-09-18T11:02:20Z</time>
      </trkpt>
      <trkpt lat="42.46299" lon="2.77458">
        <ele>753</ele>
        <time>2015-09-18T11:02:21Z</time>
      </trkpt>
      <trkpt lat="42.46299" lon="2.77458">
        <ele>754.7</ele>
        <time>2015-09-18T11:02:21Z</time>
      </trkpt>
      <trkpt lat="42.46306" lon="2.7747">
        <ele>756.2</ele>
        <time>2015-09-18T11:02:23Z</time>
      </trkpt>
      <trkpt lat="42.46308" lon="2.77479">
        <ele>757.9</ele>
        <time>2015-09-18T11:02:24Z</time>
      </trkpt>
      <trkpt lat="42.46307" lon="2.77488">
        <ele>758.8</ele>
        <time>2015-09-18T11:02:25Z</time>
      </trkpt>
      <trkpt lat="42.46304" lon="2.77498">
        <ele>759.5</ele>
        <time>2015-09-18T11:02:26Z</time>
      </trkpt>
      <trkpt lat="42.463" lon="2.77508">
        <ele>759.5</ele>
        <time>2015-09-18T11:02:27Z</time>
      </trkpt>
      <trkpt lat="42.46295" lon="2.77517">
        <ele>759.4</ele>
        <time>2015-09-18T11:02:28Z</time>
      </trkpt>
      <trkpt lat="42.4628" lon="2.77533">
        <ele>759.8</ele>
        <time>2015-09-18T11:02:30Z</time>
      </trkpt>
      <trkpt lat="42.4628" lon="2.77533">
        <ele>760.8</ele>
        <time>2015-09-18T11:02:30Z</time>
      </trkpt>
      <trkpt lat="42.46259" lon="2.77533">
        <ele>761.6</ele>
        <time>2015-09-18T11:02:32Z</time>
      </trkpt>
      <trkpt lat="42.46253" lon="2.77525">
        <ele>762.7</ele>
        <time>2015-09-18T11:02:33Z</time>
      </trkpt>
      <trkpt lat="42.46249" lon="2.77516">
        <ele>763.7</ele>
        <time>2015-09-18T11:02:34Z</time>
      </trkpt>
      <trkpt lat="42.46247" lon="2.77506">
        <ele>764.5</ele>
        <time>2015-09-18T11:02:35Z</time>
      </trkpt>
      <trkpt lat="42.46244" lon="2.77498">
        <ele>765.2</ele>
        <time>2015-09-18T11:02:36Z</time>
      </trkpt>
      <trkpt lat="42.46239" lon="2.77489">
        <ele>766.2</ele>
        <time>2015-09-18T11:02:37Z</time>
      </trkpt>
      <trkpt lat="42.46235" lon="2.77479">
        <ele>767.1</ele>
        <time>2015-09-18T11:02:38Z</time>
      </trkpt>
      <trkpt lat="42.46232" lon="2.77469">
        <ele>768</ele>
        <time>2015-09-18T11:02:39Z</time>
      </trkpt>
      <trkpt lat="42.46233" lon="2.77461">
        <ele>768.2</ele>
        <time>2015-09-18T11:02:40Z</time>
      </trkpt>
      <trkpt lat="42.46237" lon="2.77456">
        <ele>768.7</ele>
        <time>2015-09-18T11:02:41Z</time>
      </trkpt>
      <trkpt lat="42.46241" lon="2.77455">
        <ele>770.5</ele>
        <time>2015-09-18T11:02:42Z</time>
      </trkpt>
      <trkpt lat="42.46245" lon="2.77455">
        <ele>773</ele>
        <time>2015-09-18T11:02:43Z</time>
      </trkpt>
      <trkpt lat="42.46248" lon="2.77453">
        <ele>775.3</ele>
        <time>2015-09-18T11:02:44Z</time>
      </trkpt>
      <trkpt lat="42.46251" lon="2.7745">
        <ele>776.5</ele>
        <time>2015-09-18T11:02:45Z</time>
      </trkpt>
      <trkpt lat="42.46255" lon="2.77448">
        <ele>777.4</ele>
        <time>2015-09-18T11:02:46Z</time>
      </trkpt>
      <trkpt lat="42.46259" lon="2.77448">
        <ele>777.2</ele>
        <time>2015-09-18T11:02:47Z</time>
      </trkpt>
      <trkpt lat="42.46263" lon="2.77453">
        <ele>778.1</ele>
        <time>2015-09-18T11:02:48Z</time>
      </trkpt>
      <trkpt lat="42.46269" lon="2.77468">
        <ele>779.1</ele>
        <time>2015-09-18T11:02:50Z</time>
      </trkpt>
      <trkpt lat="42.46269" lon="2.77468">
        <ele>779.7</ele>
        <time>2015-09-18T11:02:50Z</time>
      </trkpt>
      <trkpt lat="42.46266" lon="2.77489">
        <ele>780</ele>
        <time>2015-09-18T11:02:52Z</time>
      </trkpt>
      <trkpt lat="42.46259" lon="2.77499">
        <ele>779.5</ele>
        <time>2015-09-18T11:02:53Z</time>
      </trkpt>
      <trkpt lat="42.4625" lon="2.77506">
        <ele>779.2</ele>
        <time>2015-09-18T11:02:54Z</time>
      </trkpt>
      <trkpt lat="42.46238" lon="2.77509">
        <ele>779.3</ele>
        <time>2015-09-18T11:02:55Z</time>
      </trkpt>
      <trkpt lat="42.46227" lon="2.77505">
        <ele>779.3</ele>
        <time>2015-09-18T11:02:56Z</time>
      </trkpt>
      <trkpt lat="42.46219" lon="2.77496">
        <ele>779.6</ele>
        <time>2015-09-18T11:02:57Z</time>
      </trkpt>
      <trkpt lat="42.46214" lon="2.77485">
        <ele>780.8</ele>
        <time>2015-09-18T11:02:58Z</time>
      </trkpt>
      <trkpt lat="42.46211" lon="2.77475">
        <ele>782.9</ele>
        <time>2015-09-18T11:02:59Z</time>
      </trkpt>
      <trkpt lat="42.46208" lon="2.77464">
        <ele>784.8</ele>
        <time>2015-09-18T11:03:00Z</time>
      </trkpt>
      <trkpt lat="42.46208" lon="2.77464">
        <ele>787</ele>
        <time>2015-09-18T11:03:00Z</time>
      </trkpt>
      <trkpt lat="42.46205" lon="2.77451">
        <ele>786.8</ele>
        <time>2015-09-18T11:03:02Z</time>
      </trkpt>
      <trkpt lat="42.46204" lon="2.77444">
        <ele>787.6</ele>
        <time>2015-09-18T11:03:03Z</time>
      </trkpt>
      <trkpt lat="42.46205" lon="2.77438">
        <ele>787.8</ele>
        <time>2015-09-18T11:03:04Z</time>
      </trkpt>
      <trkpt lat="42.46207" lon="2.77432">
        <ele>789</ele>
        <time>2015-09-18T11:03:05Z</time>
      </trkpt>
      <trkpt lat="42.4621" lon="2.77427">
        <ele>789.5</ele>
        <time>2015-09-18T11:03:06Z</time>
      </trkpt>
      <trkpt lat="42.46214" lon="2.77426">
        <ele>789.6</ele>
        <time>2015-09-18T11:03:07Z</time>
      </trkpt>
      <trkpt lat="42.46217" lon="2.77427">
        <ele>789.6</ele>
        <time>2015-09-18T11:03:08Z</time>
      </trkpt>
      <trkpt lat="42.46225" lon="2.77437">
        <ele>789.8</ele>
        <time>2015-09-18T11:03:10Z</time>
      </trkpt>
      <trkpt lat="42.46225" lon="2.77437">
        <ele>790.3</ele>
        <time>2015-09-18T11:03:10Z</time>
      </trkpt>
      <trkpt lat="42.46228" lon="2.77453">
        <ele>790.9</ele>
        <time>2015-09-18T11:03:12Z</time>
      </trkpt>
      <trkpt lat="42.46228" lon="2.77463">
        <ele>791.4</ele>
        <time>2015-09-18T11:03:13Z</time>
      </trkpt>
      <trkpt lat="42.46226" lon="2.77475">
        <ele>791.8</ele>
        <time>2015-09-18T11:03:14Z</time>
      </trkpt>
      <trkpt lat="42.46221" lon="2.77486">
        <ele>792</ele>
        <time>2015-09-18T11:03:15Z</time>
      </trkpt>
      <trkpt lat="42.46214" lon="2.77496">
        <ele>791.8</ele>
        <time>2015-09-18T11:03:16Z</time>
      </trkpt>
      <trkpt lat="42.46204" lon="2.77504">
        <ele>791.5</ele>
        <time>2015-09-18T11:03:17Z</time>
      </trkpt>
      <trkpt lat="42.46192" lon="2.77507">
        <ele>791.1</ele>
        <time>2015-09-18T11:03:18Z</time>
      </trkpt>
      <trkpt lat="42.4618" lon="2.77504">
        <ele>790.6</ele>
        <time>2015-09-18T11:03:19Z</time>
      </trkpt>
      <trkpt lat="42.4617" lon="2.77498">
        <ele>790.7</ele>
        <time>2015-09-18T11:03:20Z</time>
      </trkpt>
      <trkpt lat="42.46162" lon="2.7749">
        <ele>791.5</ele>
        <time>2015-09-18T11:03:21Z</time>
      </trkpt>
      <trkpt lat="42.46152" lon="2.77473">
        <ele>794</ele>
        <time>2015-09-18T11:03:23Z</time>
      </trkpt>
      <trkpt lat="42.46149" lon="2.77464">
        <ele>794.7</ele>
        <time>2015-09-18T11:03:24Z</time>
      </trkpt>
      <trkpt lat="42.46146" lon="2.77456">
        <ele>794.7</ele>
        <time>2015-09-18T11:03:25Z</time>
      </trkpt>
      <trkpt lat="42.46146" lon="2.77456">
        <ele>795.9</ele>
        <time>2015-09-18T11:03:25Z</time>
      </trkpt>
      <trkpt lat="42.46142" lon="2.77437">
        <ele>797.4</ele>
        <time>2015-09-18T11:03:27Z</time>
      </trkpt>
      <trkpt lat="42.46141" lon="2.77429">
        <ele>798.8</ele>
        <time>2015-09-18T11:03:28Z</time>
      </trkpt>
      <trkpt lat="42.46141" lon="2.77422">
        <ele>799.8</ele>
        <time>2015-09-18T11:03:29Z</time>
      </trkpt>
      <trkpt lat="42.46142" lon="2.77416">
        <ele>800.4</ele>
        <time>2015-09-18T11:03:30Z</time>
      </trkpt>
      <trkpt lat="42.46143" lon="2.7741">
        <ele>801</ele>
        <time>2015-09-18T11:03:31Z</time>
      </trkpt>
      <trkpt lat="42.46144" lon="2.77404">
        <ele>801.7</ele>
        <time>2015-09-18T11:03:32Z</time>
      </trkpt>
      <trkpt lat="42.46146" lon="2.77398">
        <ele>802.7</ele>
        <time>2015-09-18T11:03:33Z</time>
      </trkpt>
      <trkpt lat="42.46149" lon="2.77392">
        <ele>804.3</ele>
        <time>2015-09-18T11:03:34Z</time>
      </trkpt>
      <trkpt lat="42.46151" lon="2.77389">
        <ele>806.3</ele>
        <time>2015-09-18T11:03:35Z</time>
      </trkpt>
      <trkpt lat="42.46154" lon="2.77389">
        <ele>808.1</ele>
        <time>2015-09-18T11:03:36Z</time>
      </trkpt>
      <trkpt lat="42.46157" lon="2.77391">
        <ele>809</ele>
        <time>2015-09-18T11:03:37Z</time>
      </trkpt>
      <trkpt lat="42.46158" lon="2.77395">
        <ele>809.9</ele>
        <time>2015-09-18T11:03:38Z</time>
      </trkpt>
      <trkpt lat="42.46157" lon="2.77401">
        <ele>810.1</ele>
        <time>2015-09-18T11:03:39Z</time>
      </trkpt>
      <trkpt lat="42.46157" lon="2.77401">
        <ele>808.6</ele>
        <time>2015-09-18T11:03:39Z</time>
      </trkpt>
      <trkpt lat="42.46142" lon="2.77427">
        <ele>807.2</ele>
        <time>2015-09-18T11:03:42Z</time>
      </trkpt>
      <trkpt lat="42.4613" lon="2.77434">
        <ele>806.7</ele>
        <time>2015-09-18T11:03:43Z</time>
      </trkpt>
      <trkpt lat="42.46117" lon="2.77434">
        <ele>806.4</ele>
        <time>2015-09-18T11:03:44Z</time>
      </trkpt>
      <trkpt lat="42.46106" lon="2.77427">
        <ele>807.1</ele>
        <time>2015-09-18T11:03:45Z</time>
      </trkpt>
      <trkpt lat="42.46099" lon="2.77418">
        <ele>808.6</ele>
        <time>2015-09-18T11:03:46Z</time>
      </trkpt>
      <trkpt lat="42.46096" lon="2.77409">
        <ele>810.3</ele>
        <time>2015-09-18T11:03:47Z</time>
      </trkpt>
      <trkpt lat="42.46096" lon="2.77401">
        <ele>811.8</ele>
        <time>2015-09-18T11:03:48Z</time>
      </trkpt>
      <trkpt lat="42.46096" lon="2.77396">
        <ele>812.9</ele>
        <time>2015-09-18T11:03:49Z</time>
      </trkpt>
      <trkpt lat="42.46097" lon="2.77391">
        <ele>814.1</ele>
        <time>2015-09-18T11:03:50Z</time>
      </trkpt>
      <trkpt lat="42.46098" lon="2.77388">
        <ele>813.8</ele>
        <time>2015-09-18T11:03:51Z</time>
      </trkpt>
      <trkpt lat="42.46099" lon="2.77386">
        <ele>814</ele>
        <time>2015-09-18T11:03:52Z</time>
      </trkpt>
      <trkpt lat="42.461" lon="2.77385">
        <ele>813.5</ele>
        <time>2015-09-18T11:03:53Z</time>
      </trkpt>
      <trkpt lat="42.46103" lon="2.77386">
        <ele>812.9</ele>
        <time>2015-09-18T11:03:54Z</time>
      </trkpt>
      <trkpt lat="42.46106" lon="2.7739">
        <ele>812.6</ele>
        <time>2015-09-18T11:03:55Z</time>
      </trkpt>
      <trkpt lat="42.46108" lon="2.77394">
        <ele>812.6</ele>
        <time>2015-09-18T11:03:56Z</time>
      </trkpt>
      <trkpt lat="42.46109" lon="2.77399">
        <ele>812.1</ele>
        <time>2015-09-18T11:03:57Z</time>
      </trkpt>
      <trkpt lat="42.46111" lon="2.77404">
        <ele>811.3</ele>
        <time>2015-09-18T11:03:58Z</time>
      </trkpt>
      <trkpt lat="42.46113" lon="2.77407">
        <ele>809.6</ele>
        <time>2015-09-18T11:03:59Z</time>
      </trkpt>
      <trkpt lat="42.46116" lon="2.77409">
        <ele>808.5</ele>
        <time>2015-09-18T11:04:00Z</time>
      </trkpt>
      <trkpt lat="42.46123" lon="2.77413">
        <ele>807.6</ele>
        <time>2015-09-18T11:04:02Z</time>
      </trkpt>
      <trkpt lat="42.46126" lon="2.77414">
        <ele>806.7</ele>
        <time>2015-09-18T11:04:03Z</time>
      </trkpt>
      <trkpt lat="42.46129" lon="2.77416">
        <ele>805.7</ele>
        <time>2015-09-18T11:04:04Z</time>
      </trkpt>
      <trkpt lat="42.46131" lon="2.77422">
        <ele>804.4</ele>
        <time>2015-09-18T11:04:05Z</time>
      </trkpt>
      <trkpt lat="42.46132" lon="2.7743">
        <ele>803.4</ele>
        <time>2015-09-18T11:04:06Z</time>
      </trkpt>
      <trkpt lat="42.46132" lon="2.77439">
        <ele>803.4</ele>
        <time>2015-09-18T11:04:07Z</time>
      </trkpt>
      <trkpt lat="42.46133" lon="2.77447">
        <ele>802</ele>
        <time>2015-09-18T11:04:08Z</time>
      </trkpt>
      <trkpt lat="42.46134" lon="2.77453">
        <ele>799.5</ele>
        <time>2015-09-18T11:04:09Z</time>
      </trkpt>
      <trkpt lat="42.46135" lon="2.77457">
        <ele>798.6</ele>
        <time>2015-09-18T11:04:10Z</time>
      </trkpt>
      <trkpt lat="42.46141" lon="2.77458">
        <ele>798.3</ele>
        <time>2015-09-18T11:04:12Z</time>
      </trkpt>
      <trkpt lat="42.46143" lon="2.77455">
        <ele>797.9</ele>
        <time>2015-09-18T11:04:13Z</time>
      </trkpt>
      <trkpt lat="42.46144" lon="2.77448">
        <ele>796.9</ele>
        <time>2015-09-18T11:04:14Z</time>
      </trkpt>
      <trkpt lat="42.46144" lon="2.7744">
        <ele>796.6</ele>
        <time>2015-09-18T11:04:15Z</time>
      </trkpt>
      <trkpt lat="42.46144" lon="2.7744">
        <ele>796.7</ele>
        <time>2015-09-18T11:04:15Z</time>
      </trkpt>
      <trkpt lat="42.46141" lon="2.77425">
        <ele>795.3</ele>
        <time>2015-09-18T11:04:17Z</time>
      </trkpt>
      <trkpt lat="42.46141" lon="2.77418">
        <ele>793.6</ele>
        <time>2015-09-18T11:04:18Z</time>
      </trkpt>
      <trkpt lat="42.46143" lon="2.77411">
        <ele>791.7</ele>
        <time>2015-09-18T11:04:19Z</time>
      </trkpt>
      <trkpt lat="42.46146" lon="2.77404">
        <ele>790.5</ele>
        <time>2015-09-18T11:04:20Z</time>
      </trkpt>
      <trkpt lat="42.46147" lon="2.77398">
        <ele>789.3</ele>
        <time>2015-09-18T11:04:21Z</time>
      </trkpt>
      <trkpt lat="42.46148" lon="2.77392">
        <ele>788.1</ele>
        <time>2015-09-18T11:04:22Z</time>
      </trkpt>
      <trkpt lat="42.4615" lon="2.77386">
        <ele>786.8</ele>
        <time>2015-09-18T11:04:23Z</time>
      </trkpt>
      <trkpt lat="42.46152" lon="2.77381">
        <ele>785.4</ele>
        <time>2015-09-18T11:04:24Z</time>
      </trkpt>
      <trkpt lat="42.46155" lon="2.77376">
        <ele>783.8</ele>
        <time>2015-09-18T11:04:25Z</time>
      </trkpt>
      <trkpt lat="42.4616" lon="2.77375">
        <ele>782.4</ele>
        <time>2015-09-18T11:04:26Z</time>
      </trkpt>
      <trkpt lat="42.46164" lon="2.77376">
        <ele>781.3</ele>
        <time>2015-09-18T11:04:27Z</time>
      </trkpt>
      <trkpt lat="42.46168" lon="2.7738">
        <ele>778.3</ele>
        <time>2015-09-18T11:04:28Z</time>
      </trkpt>
      <trkpt lat="42.46175" lon="2.77394">
        <ele>777.6</ele>
        <time>2015-09-18T11:04:30Z</time>
      </trkpt>
      <trkpt lat="42.46175" lon="2.77394">
        <ele>777.6</ele>
        <time>2015-09-18T11:04:30Z</time>
      </trkpt>
      <trkpt lat="42.4618" lon="2.77414">
        <ele>778</ele>
        <time>2015-09-18T11:04:32Z</time>
      </trkpt>
      <trkpt lat="42.46182" lon="2.77424">
        <ele>779.8</ele>
        <time>2015-09-18T11:04:33Z</time>
      </trkpt>
      <trkpt lat="42.46184" lon="2.77433">
        <ele>781.7</ele>
        <time>2015-09-18T11:04:34Z</time>
      </trkpt>
      <trkpt lat="42.46187" lon="2.7744">
        <ele>782.8</ele>
        <time>2015-09-18T11:04:35Z</time>
      </trkpt>
      <trkpt lat="42.4619" lon="2.77446">
        <ele>783.2</ele>
        <time>2015-09-18T11:04:36Z</time>
      </trkpt>
      <trkpt lat="42.46194" lon="2.77452">
        <ele>783.2</ele>
        <time>2015-09-18T11:04:37Z</time>
      </trkpt>
      <trkpt lat="42.46198" lon="2.77458">
        <ele>783.7</ele>
        <time>2015-09-18T11:04:38Z</time>
      </trkpt>
      <trkpt lat="42.46202" lon="2.77464">
        <ele>784.1</ele>
        <time>2015-09-18T11:04:39Z</time>
      </trkpt>
      <trkpt lat="42.46205" lon="2.7747">
        <ele>783.9</ele>
        <time>2015-09-18T11:04:40Z</time>
      </trkpt>
      <trkpt lat="42.46208" lon="2.77477">
        <ele>783.4</ele>
        <time>2015-09-18T11:04:41Z</time>
      </trkpt>
      <trkpt lat="42.46211" lon="2.77484">
        <ele>783.1</ele>
        <time>2015-09-18T11:04:42Z</time>
      </trkpt>
      <trkpt lat="42.46214" lon="2.77493">
        <ele>782.8</ele>
        <time>2015-09-18T11:04:43Z</time>
      </trkpt>
      <trkpt lat="42.46216" lon="2.77502">
        <ele>782.2</ele>
        <time>2015-09-18T11:04:44Z</time>
      </trkpt>
      <trkpt lat="42.46216" lon="2.7751">
        <ele>781.4</ele>
        <time>2015-09-18T11:04:45Z</time>
      </trkpt>
      <trkpt lat="42.46215" lon="2.77519">
        <ele>779.4</ele>
        <time>2015-09-18T11:04:46Z</time>
      </trkpt>
      <trkpt lat="42.46213" lon="2.77529">
        <ele>776.8</ele>
        <time>2015-09-18T11:04:47Z</time>
      </trkpt>
      <trkpt lat="42.4621" lon="2.7754">
        <ele>774.6</ele>
        <time>2015-09-18T11:04:48Z</time>
      </trkpt>
      <trkpt lat="42.46204" lon="2.77551">
        <ele>771.2</ele>
        <time>2015-09-18T11:04:49Z</time>
      </trkpt>
      <trkpt lat="42.46197" lon="2.77561">
        <ele>769.6</ele>
        <time>2015-09-18T11:04:50Z</time>
      </trkpt>
      <trkpt lat="42.46187" lon="2.77567">
        <ele>766.9</ele>
        <time>2015-09-18T11:04:51Z</time>
      </trkpt>
      <trkpt lat="42.46166" lon="2.77565">
        <ele>764.9</ele>
        <time>2015-09-18T11:04:53Z</time>
      </trkpt>
      <trkpt lat="42.46158" lon="2.77556">
        <ele>763.8</ele>
        <time>2015-09-18T11:04:54Z</time>
      </trkpt>
      <trkpt lat="42.46154" lon="2.77545">
        <ele>762.5</ele>
        <time>2015-09-18T11:04:55Z</time>
      </trkpt>
      <trkpt lat="42.46154" lon="2.77536">
        <ele>761.8</ele>
        <time>2015-09-18T11:04:56Z</time>
      </trkpt>
      <trkpt lat="42.46154" lon="2.77528">
        <ele>761.4</ele>
        <time>2015-09-18T11:04:57Z</time>
      </trkpt>
      <trkpt lat="42.46155" lon="2.77521">
        <ele>760.9</ele>
        <time>2015-09-18T11:04:58Z</time>
      </trkpt>
      <trkpt lat="42.46155" lon="2.77516">
        <ele>759.4</ele>
        <time>2015-09-18T11:04:59Z</time>
      </trkpt>
      <trkpt lat="42.46155" lon="2.7751">
        <ele>758.1</ele>
        <time>2015-09-18T11:05:00Z</time>
      </trkpt>
      <trkpt lat="42.46155" lon="2.77502">
        <ele>756.4</ele>
        <time>2015-09-18T11:05:01Z</time>
      </trkpt>
      <trkpt lat="42.46156" lon="2.77494">
        <ele>755.6</ele>
        <time>2015-09-18T11:05:02Z</time>
      </trkpt>
      <trkpt lat="42.46158" lon="2.77486">
        <ele>757.5</ele>
        <time>2015-09-18T11:05:03Z</time>
      </trkpt>
      <trkpt lat="42.46161" lon="2.77475">
        <ele>758.1</ele>
        <time>2015-09-18T11:05:05Z</time>
      </trkpt>
      <trkpt lat="42.46161" lon="2.77475">
        <ele>758.2</ele>
        <time>2015-09-18T11:05:05Z</time>
      </trkpt>
      <trkpt lat="42.46164" lon="2.77464">
        <ele>757.7</ele>
        <time>2015-09-18T11:05:07Z</time>
      </trkpt>
      <trkpt lat="42.46166" lon="2.77458">
        <ele>756.9</ele>
        <time>2015-09-18T11:05:08Z</time>
      </trkpt>
      <trkpt lat="42.46168" lon="2.77452">
        <ele>756.2</ele>
        <time>2015-09-18T11:05:09Z</time>
      </trkpt>
      <trkpt lat="42.46171" lon="2.77447">
        <ele>755.6</ele>
        <time>2015-09-18T11:05:10Z</time>
      </trkpt>
      <trkpt lat="42.46171" lon="2.77447">
        <ele>754.9</ele>
        <time>2015-09-18T11:05:10Z</time>
      </trkpt>
      <trkpt lat="42.4618" lon="2.77443">
        <ele>753.6</ele>
        <time>2015-09-18T11:05:12Z</time>
      </trkpt>
      <trkpt lat="42.46184" lon="2.77444">
        <ele>751.8</ele>
        <time>2015-09-18T11:05:13Z</time>
      </trkpt>
      <trkpt lat="42.46189" lon="2.77447">
        <ele>749.8</ele>
        <time>2015-09-18T11:05:14Z</time>
      </trkpt>
      <trkpt lat="42.46193" lon="2.77454">
        <ele>748.2</ele>
        <time>2015-09-18T11:05:15Z</time>
      </trkpt>
      <trkpt lat="42.46196" lon="2.77461">
        <ele>747.1</ele>
        <time>2015-09-18T11:05:16Z</time>
      </trkpt>
      <trkpt lat="42.46199" lon="2.7747">
        <ele>746.2</ele>
        <time>2015-09-18T11:05:17Z</time>
      </trkpt>
      <trkpt lat="42.46202" lon="2.77478">
        <ele>745.5</ele>
        <time>2015-09-18T11:05:18Z</time>
      </trkpt>
      <trkpt lat="42.46205" lon="2.77486">
        <ele>744.5</ele>
        <time>2015-09-18T11:05:19Z</time>
      </trkpt>
      <trkpt lat="42.46209" lon="2.77494">
        <ele>743.6</ele>
        <time>2015-09-18T11:05:20Z</time>
      </trkpt>
      <trkpt lat="42.46212" lon="2.77502">
        <ele>742.6</ele>
        <time>2015-09-18T11:05:21Z</time>
      </trkpt>
      <trkpt lat="42.46215" lon="2.77511">
        <ele>741.6</ele>
        <time>2015-09-18T11:05:22Z</time>
      </trkpt>
      <trkpt lat="42.46222" lon="2.7753">
        <ele>740.4</ele>
        <time>2015-09-18T11:05:24Z</time>
      </trkpt>
      <trkpt lat="42.46226" lon="2.77538">
        <ele>739.2</ele>
        <time>2015-09-18T11:05:25Z</time>
      </trkpt>
      <trkpt lat="42.4623" lon="2.77547">
        <ele>739.2</ele>
        <time>2015-09-18T11:05:26Z</time>
      </trkpt>
      <trkpt lat="42.46234" lon="2.77554">
        <ele>737.5</ele>
        <time>2015-09-18T11:05:27Z</time>
      </trkpt>
      <trkpt lat="42.46238" lon="2.77562">
        <ele>736.4</ele>
        <time>2015-09-18T11:05:28Z</time>
      </trkpt>
      <trkpt lat="42.46243" lon="2.77571">
        <ele>735.5</ele>
        <time>2015-09-18T11:05:29Z</time>
      </trkpt>
      <trkpt lat="42.46248" lon="2.77579">
        <ele>734.7</ele>
        <time>2015-09-18T11:05:30Z</time>
      </trkpt>
      <trkpt lat="42.46252" lon="2.77588">
        <ele>734.1</ele>
        <time>2015-09-18T11:05:31Z</time>
      </trkpt>
      <trkpt lat="42.46256" lon="2.77598">
        <ele>733.8</ele>
        <time>2015-09-18T11:05:32Z</time>
      </trkpt>
      <trkpt lat="42.4626" lon="2.77607">
        <ele>733.1</ele>
        <time>2015-09-18T11:05:33Z</time>
      </trkpt>
      <trkpt lat="42.46264" lon="2.77616">
        <ele>732.3</ele>
        <time>2015-09-18T11:05:34Z</time>
      </trkpt>
      <trkpt lat="42.46268" lon="2.77625">
        <ele>731.5</ele>
        <time>2015-09-18T11:05:35Z</time>
      </trkpt>
      <trkpt lat="42.46273" lon="2.77633">
        <ele>730.7</ele>
        <time>2015-09-18T11:05:36Z</time>
      </trkpt>
      <trkpt lat="42.46278" lon="2.77641">
        <ele>730.4</ele>
        <time>2015-09-18T11:05:37Z</time>
      </trkpt>
      <trkpt lat="42.46283" lon="2.7765">
        <ele>730.3</ele>
        <time>2015-09-18T11:05:38Z</time>
      </trkpt>
      <trkpt lat="42.46287" lon="2.77658">
        <ele>730.6</ele>
        <time>2015-09-18T11:05:39Z</time>
      </trkpt>
      <trkpt lat="42.46291" lon="2.77665">
        <ele>731</ele>
        <time>2015-09-18T11:05:40Z</time>
      </trkpt>
      <trkpt lat="42.46295" lon="2.77672">
        <ele>731.6</ele>
        <time>2015-09-18T11:05:41Z</time>
      </trkpt>
      <trkpt lat="42.463" lon="2.77678">
        <ele>735.4</ele>
        <time>2015-09-18T11:05:42Z</time>
      </trkpt>
      <trkpt lat="42.46305" lon="2.77683">
        <ele>737.2</ele>
        <time>2015-09-18T11:05:43Z</time>
      </trkpt>
      <trkpt lat="42.46314" lon="2.77689">
        <ele>738.6</ele>
        <time>2015-09-18T11:05:45Z</time>
      </trkpt>
      <trkpt lat="42.46314" lon="2.77689">
        <ele>739.5</ele>
        <time>2015-09-18T11:05:45Z</time>
      </trkpt>
      <trkpt lat="42.46322" lon="2.77693">
        <ele>739.2</ele>
        <time>2015-09-18T11:05:47Z</time>
      </trkpt>
      <trkpt lat="42.46325" lon="2.77698">
        <ele>737.5</ele>
        <time>2015-09-18T11:05:48Z</time>
      </trkpt>
      <trkpt lat="42.46325" lon="2.77706">
        <ele>737.5</ele>
        <time>2015-09-18T11:05:49Z</time>
      </trkpt>
      <trkpt lat="42.46322" lon="2.77715">
        <ele>734.1</ele>
        <time>2015-09-18T11:05:50Z</time>
      </trkpt>
      <trkpt lat="42.46318" lon="2.77724">
        <ele>733.2</ele>
        <time>2015-09-18T11:05:51Z</time>
      </trkpt>
      <trkpt lat="42.46311" lon="2.77731">
        <ele>732.2</ele>
        <time>2015-09-18T11:05:52Z</time>
      </trkpt>
      <trkpt lat="42.46303" lon="2.77737">
        <ele>730.8</ele>
        <time>2015-09-18T11:05:53Z</time>
      </trkpt>
      <trkpt lat="42.46294" lon="2.77741">
        <ele>729.1</ele>
        <time>2015-09-18T11:05:54Z</time>
      </trkpt>
      <trkpt lat="42.46283" lon="2.77744">
        <ele>727.8</ele>
        <time>2015-09-18T11:05:55Z</time>
      </trkpt>
      <trkpt lat="42.46272" lon="2.77745">
        <ele>726.9</ele>
        <time>2015-09-18T11:05:56Z</time>
      </trkpt>
      <trkpt lat="42.46252" lon="2.77736">
        <ele>727.4</ele>
        <time>2015-09-18T11:05:58Z</time>
      </trkpt>
      <trkpt lat="42.46244" lon="2.77727">
        <ele>728.2</ele>
        <time>2015-09-18T11:05:59Z</time>
      </trkpt>
      <trkpt lat="42.46237" lon="2.77719">
        <ele>729.3</ele>
        <time>2015-09-18T11:06:00Z</time>
      </trkpt>
      <trkpt lat="42.46237" lon="2.77719">
        <ele>730.5</ele>
        <time>2015-09-18T11:06:00Z</time>
      </trkpt>
      <trkpt lat="42.46227" lon="2.77703">
        <ele>731.2</ele>
        <time>2015-09-18T11:06:02Z</time>
      </trkpt>
      <trkpt lat="42.46223" lon="2.77694">
        <ele>731.2</ele>
        <time>2015-09-18T11:06:03Z</time>
      </trkpt>
      <trkpt lat="42.4622" lon="2.77686">
        <ele>732.5</ele>
        <time>2015-09-18T11:06:04Z</time>
      </trkpt>
      <trkpt lat="42.46218" lon="2.77676">
        <ele>732.9</ele>
        <time>2015-09-18T11:06:05Z</time>
      </trkpt>
      <trkpt lat="42.46217" lon="2.77667">
        <ele>732.9</ele>
        <time>2015-09-18T11:06:06Z</time>
      </trkpt>
      <trkpt lat="42.46218" lon="2.77659">
        <ele>732.9</ele>
        <time>2015-09-18T11:06:07Z</time>
      </trkpt>
      <trkpt lat="42.46221" lon="2.77652">
        <ele>731.9</ele>
        <time>2015-09-18T11:06:08Z</time>
      </trkpt>
      <trkpt lat="42.46226" lon="2.77646">
        <ele>731.9</ele>
        <time>2015-09-18T11:06:09Z</time>
      </trkpt>
      <trkpt lat="42.46232" lon="2.77643">
        <ele>732.5</ele>
        <time>2015-09-18T11:06:10Z</time>
      </trkpt>
      <trkpt lat="42.46237" lon="2.77642">
        <ele>735.4</ele>
        <time>2015-09-18T11:06:11Z</time>
      </trkpt>
      <trkpt lat="42.46243" lon="2.77642">
        <ele>736.6</ele>
        <time>2015-09-18T11:06:12Z</time>
      </trkpt>
      <trkpt lat="42.46247" lon="2.77641">
        <ele>737.7</ele>
        <time>2015-09-18T11:06:13Z</time>
      </trkpt>
      <trkpt lat="42.46258" lon="2.77639">
        <ele>738.6</ele>
        <time>2015-09-18T11:06:15Z</time>
      </trkpt>
      <trkpt lat="42.46258" lon="2.77639">
        <ele>739.3</ele>
        <time>2015-09-18T11:06:15Z</time>
      </trkpt>
      <trkpt lat="42.46268" lon="2.77644">
        <ele>740.2</ele>
        <time>2015-09-18T11:06:17Z</time>
      </trkpt>
      <trkpt lat="42.46272" lon="2.7765">
        <ele>741</ele>
        <time>2015-09-18T11:06:18Z</time>
      </trkpt>
      <trkpt lat="42.46274" lon="2.77658">
        <ele>741.4</ele>
        <time>2015-09-18T11:06:19Z</time>
      </trkpt>
      <trkpt lat="42.46273" lon="2.77667">
        <ele>740.7</ele>
        <time>2015-09-18T11:06:20Z</time>
      </trkpt>
      <trkpt lat="42.46269" lon="2.77676">
        <ele>739.1</ele>
        <time>2015-09-18T11:06:21Z</time>
      </trkpt>
      <trkpt lat="42.46262" lon="2.77685">
        <ele>736.3</ele>
        <time>2015-09-18T11:06:22Z</time>
      </trkpt>
      <trkpt lat="42.46253" lon="2.77693">
        <ele>734.5</ele>
        <time>2015-09-18T11:06:23Z</time>
      </trkpt>
      <trkpt lat="42.46241" lon="2.77697">
        <ele>733.5</ele>
        <time>2015-09-18T11:06:24Z</time>
      </trkpt>
      <trkpt lat="42.46229" lon="2.77694">
        <ele>732.2</ele>
        <time>2015-09-18T11:06:25Z</time>
      </trkpt>
      <trkpt lat="42.46219" lon="2.77686">
        <ele>731.4</ele>
        <time>2015-09-18T11:06:26Z</time>
      </trkpt>
      <trkpt lat="42.46212" lon="2.77675">
        <ele>731.2</ele>
        <time>2015-09-18T11:06:27Z</time>
      </trkpt>
      <trkpt lat="42.46207" lon="2.77664">
        <ele>731</ele>
        <time>2015-09-18T11:06:28Z</time>
      </trkpt>
      <trkpt lat="42.46204" lon="2.77653">
        <ele>730.9</ele>
        <time>2015-09-18T11:06:29Z</time>
      </trkpt>
      <trkpt lat="42.46205" lon="2.77643">
        <ele>729.8</ele>
        <time>2015-09-18T11:06:30Z</time>
      </trkpt>
      <trkpt lat="42.46206" lon="2.77633">
        <ele>729.6</ele>
        <time>2015-09-18T11:06:31Z</time>
      </trkpt>
      <trkpt lat="42.4621" lon="2.77624">
        <ele>729.7</ele>
        <time>2015-09-18T11:06:32Z</time>
      </trkpt>
      <trkpt lat="42.46214" lon="2.77617">
        <ele>730.6</ele>
        <time>2015-09-18T11:06:33Z</time>
      </trkpt>
      <trkpt lat="42.46223" lon="2.77608">
        <ele>733.3</ele>
        <time>2015-09-18T11:06:35Z</time>
      </trkpt>
      <trkpt lat="42.46223" lon="2.77608">
        <ele>734.4</ele>
        <time>2015-09-18T11:06:35Z</time>
      </trkpt>
      <trkpt lat="42.46229" lon="2.77597">
        <ele>735.3</ele>
        <time>2015-09-18T11:06:37Z</time>
      </trkpt>
      <trkpt lat="42.46232" lon="2.7759">
        <ele>736.3</ele>
        <time>2015-09-18T11:06:38Z</time>
      </trkpt>
      <trkpt lat="42.46236" lon="2.77583">
        <ele>737.4</ele>
        <time>2015-09-18T11:06:39Z</time>
      </trkpt>
      <trkpt lat="42.4624" lon="2.77577">
        <ele>738.8</ele>
        <time>2015-09-18T11:06:40Z</time>
      </trkpt>
      <trkpt lat="42.46245" lon="2.77572">
        <ele>739.9</ele>
        <time>2015-09-18T11:06:41Z</time>
      </trkpt>
      <trkpt lat="42.4625" lon="2.77567">
        <ele>741.8</ele>
        <time>2015-09-18T11:06:42Z</time>
      </trkpt>
      <trkpt lat="42.46255" lon="2.7756">
        <ele>743.4</ele>
        <time>2015-09-18T11:06:43Z</time>
      </trkpt>
      <trkpt lat="42.46259" lon="2.77555">
        <ele>745</ele>
        <time>2015-09-18T11:06:44Z</time>
      </trkpt>
      <trkpt lat="42.46264" lon="2.77552">
        <ele>745.8</ele>
        <time>2015-09-18T11:06:45Z</time>
      </trkpt>
      <trkpt lat="42.4627" lon="2.77551">
        <ele>746.3</ele>
        <time>2015-09-18T11:06:46Z</time>
      </trkpt>
      <trkpt lat="42.46275" lon="2.77553">
        <ele>747.5</ele>
        <time>2015-09-18T11:06:47Z</time>
      </trkpt>
      <trkpt lat="42.4628" lon="2.77557">
        <ele>747.8</ele>
        <time>2015-09-18T11:06:48Z</time>
      </trkpt>
      <trkpt lat="42.46284" lon="2.77562">
        <ele>747.8</ele>
        <time>2015-09-18T11:06:49Z</time>
      </trkpt>
      <trkpt lat="42.46288" lon="2.77567">
        <ele>747.2</ele>
        <time>2015-09-18T11:06:50Z</time>
      </trkpt>
      <trkpt lat="42.46288" lon="2.77584">
        <ele>747</ele>
        <time>2015-09-18T11:06:52Z</time>
      </trkpt>
      <trkpt lat="42.46285" lon="2.77592">
        <ele>746.9</ele>
        <time>2015-09-18T11:06:53Z</time>
      </trkpt>
      <trkpt lat="42.4628" lon="2.77601">
        <ele>746.9</ele>
        <time>2015-09-18T11:06:54Z</time>
      </trkpt>
      <trkpt lat="42.46273" lon="2.77607">
        <ele>746.8</ele>
        <time>2015-09-18T11:06:55Z</time>
      </trkpt>
      <trkpt lat="42.46273" lon="2.77607">
        <ele>746.1</ele>
        <time>2015-09-18T11:06:55Z</time>
      </trkpt>
      <trkpt lat="42.46254" lon="2.7761">
        <ele>745</ele>
        <time>2015-09-18T11:06:57Z</time>
      </trkpt>
      <trkpt lat="42.46242" lon="2.77606">
        <ele>744.2</ele>
        <time>2015-09-18T11:06:58Z</time>
      </trkpt>
      <trkpt lat="42.46232" lon="2.77597">
        <ele>742.5</ele>
        <time>2015-09-18T11:06:59Z</time>
      </trkpt>
      <trkpt lat="42.46224" lon="2.77587">
        <ele>741.7</ele>
        <time>2015-09-18T11:07:00Z</time>
      </trkpt>
      <trkpt lat="42.46218" lon="2.77574">
        <ele>741.1</ele>
        <time>2015-09-18T11:07:01Z</time>
      </trkpt>
      <trkpt lat="42.46215" lon="2.77561">
        <ele>740.6</ele>
        <time>2015-09-18T11:07:02Z</time>
      </trkpt>
      <trkpt lat="42.46214" lon="2.77548">
        <ele>740.9</ele>
        <time>2015-09-18T11:07:03Z</time>
      </trkpt>
      <trkpt lat="42.46215" lon="2.77536">
        <ele>741.5</ele>
        <time>2015-09-18T11:07:04Z</time>
      </trkpt>
      <trkpt lat="42.46216" lon="2.77525">
        <ele>744.9</ele>
        <time>2015-09-18T11:07:05Z</time>
      </trkpt>
      <trkpt lat="42.46221" lon="2.77506">
        <ele>746.1</ele>
        <time>2015-09-18T11:07:07Z</time>
      </trkpt>
      <trkpt lat="42.46224" lon="2.77499">
        <ele>746.6</ele>
        <time>2015-09-18T11:07:08Z</time>
      </trkpt>
      <trkpt lat="42.4623" lon="2.77493">
        <ele>746.7</ele>
        <time>2015-09-18T11:07:09Z</time>
      </trkpt>
      <trkpt lat="42.46237" lon="2.7749">
        <ele>746.9</ele>
        <time>2015-09-18T11:07:10Z</time>
      </trkpt>
      <trkpt lat="42.46243" lon="2.77489">
        <ele>748.1</ele>
        <time>2015-09-18T11:07:11Z</time>
      </trkpt>
      <trkpt lat="42.46249" lon="2.77492">
        <ele>749.1</ele>
        <time>2015-09-18T11:07:12Z</time>
      </trkpt>
      <trkpt lat="42.46252" lon="2.77497">
        <ele>749.3</ele>
        <time>2015-09-18T11:07:13Z</time>
      </trkpt>
      <trkpt lat="42.46253" lon="2.77505">
        <ele>749.5</ele>
        <time>2015-09-18T11:07:14Z</time>
      </trkpt>
      <trkpt lat="42.46253" lon="2.77514">
        <ele>750.4</ele>
        <time>2015-09-18T11:07:15Z</time>
      </trkpt>
      <trkpt lat="42.4625" lon="2.77523">
        <ele>751.7</ele>
        <time>2015-09-18T11:07:16Z</time>
      </trkpt>
      <trkpt lat="42.46245" lon="2.7753">
        <ele>752.8</ele>
        <time>2015-09-18T11:07:17Z</time>
      </trkpt>
      <trkpt lat="42.46238" lon="2.77535">
        <ele>753.2</ele>
        <time>2015-09-18T11:07:18Z</time>
      </trkpt>
      <trkpt lat="42.46238" lon="2.77535">
        <ele>753.3</ele>
        <time>2015-09-18T11:07:18Z</time>
      </trkpt>
      <trkpt lat="42.46219" lon="2.77537">
        <ele>752</ele>
        <time>2015-09-18T11:07:20Z</time>
      </trkpt>
      <trkpt lat="42.46209" lon="2.7753">
        <ele>751.6</ele>
        <time>2015-09-18T11:07:21Z</time>
      </trkpt>
      <trkpt lat="42.46203" lon="2.77517">
        <ele>751.3</ele>
        <time>2015-09-18T11:07:22Z</time>
      </trkpt>
      <trkpt lat="42.46201" lon="2.77503">
        <ele>751</ele>
        <time>2015-09-18T11:07:23Z</time>
      </trkpt>
      <trkpt lat="42.46204" lon="2.77491">
        <ele>751.8</ele>
        <time>2015-09-18T11:07:24Z</time>
      </trkpt>
      <trkpt lat="42.46208" lon="2.77484">
        <ele>751.8</ele>
        <time>2015-09-18T11:07:25Z</time>
      </trkpt>
      <trkpt lat="42.46216" lon="2.77471">
        <ele>752.5</ele>
        <time>2015-09-18T11:07:27Z</time>
      </trkpt>
      <trkpt lat="42.46221" lon="2.77465">
        <ele>752.4</ele>
        <time>2015-09-18T11:07:28Z</time>
      </trkpt>
      <trkpt lat="42.46227" lon="2.77459">
        <ele>752.8</ele>
        <time>2015-09-18T11:07:29Z</time>
      </trkpt>
      <trkpt lat="42.46234" lon="2.77456">
        <ele>754.3</ele>
        <time>2015-09-18T11:07:30Z</time>
      </trkpt>
      <trkpt lat="42.46241" lon="2.77454">
        <ele>755.7</ele>
        <time>2015-09-18T11:07:31Z</time>
      </trkpt>
      <trkpt lat="42.46248" lon="2.77454">
        <ele>757.1</ele>
        <time>2015-09-18T11:07:32Z</time>
      </trkpt>
      <trkpt lat="42.46254" lon="2.77454">
        <ele>758.7</ele>
        <time>2015-09-18T11:07:33Z</time>
      </trkpt>
      <trkpt lat="42.4626" lon="2.77453">
        <ele>760</ele>
        <time>2015-09-18T11:07:34Z</time>
      </trkpt>
      <trkpt lat="42.46266" lon="2.77453">
        <ele>761.2</ele>
        <time>2015-09-18T11:07:35Z</time>
      </trkpt>
      <trkpt lat="42.46273" lon="2.77454">
        <ele>762.2</ele>
        <time>2015-09-18T11:07:36Z</time>
      </trkpt>
      <trkpt lat="42.46279" lon="2.77454">
        <ele>762.9</ele>
        <time>2015-09-18T11:07:37Z</time>
      </trkpt>
      <trkpt lat="42.46285" lon="2.77454">
        <ele>765.1</ele>
        <time>2015-09-18T11:07:38Z</time>
      </trkpt>
      <trkpt lat="42.46291" lon="2.77455">
        <ele>766.5</ele>
        <time>2015-09-18T11:07:39Z</time>
      </trkpt>
      <trkpt lat="42.46298" lon="2.77457">
        <ele>768</ele>
        <time>2015-09-18T11:07:40Z</time>
      </trkpt>
      <trkpt lat="42.46309" lon="2.77464">
        <ele>769.2</ele>
        <time>2015-09-18T11:07:42Z</time>
      </trkpt>
      <trkpt lat="42.46314" lon="2.7747">
        <ele>770</ele>
        <time>2015-09-18T11:07:43Z</time>
      </trkpt>
      <trkpt lat="42.46316" lon="2.77477">
        <ele>770.1</ele>
        <time>2015-09-18T11:07:44Z</time>
      </trkpt>
      <trkpt lat="42.46317" lon="2.77485">
        <ele>769.2</ele>
        <time>2015-09-18T11:07:45Z</time>
      </trkpt>
      <trkpt lat="42.46317" lon="2.77485">
        <ele>768.2</ele>
        <time>2015-09-18T11:07:45Z</time>
      </trkpt>
      <trkpt lat="42.46307" lon="2.77502">
        <ele>766.8</ele>
        <time>2015-09-18T11:07:47Z</time>
      </trkpt>
      <trkpt lat="42.46298" lon="2.77506">
        <ele>765.3</ele>
        <time>2015-09-18T11:07:48Z</time>
      </trkpt>
      <trkpt lat="42.46288" lon="2.77505">
        <ele>764.4</ele>
        <time>2015-09-18T11:07:49Z</time>
      </trkpt>
      <trkpt lat="42.46279" lon="2.77499">
        <ele>763.2</ele>
        <time>2015-09-18T11:07:50Z</time>
      </trkpt>
      <trkpt lat="42.46271" lon="2.7749">
        <ele>762</ele>
        <time>2015-09-18T11:07:51Z</time>
      </trkpt>
      <trkpt lat="42.46265" lon="2.77479">
        <ele>762.6</ele>
        <time>2015-09-18T11:07:52Z</time>
      </trkpt>
      <trkpt lat="42.46261" lon="2.77467">
        <ele>763.4</ele>
        <time>2015-09-18T11:07:53Z</time>
      </trkpt>
      <trkpt lat="42.46259" lon="2.77455">
        <ele>764.3</ele>
        <time>2015-09-18T11:07:54Z</time>
      </trkpt>
      <trkpt lat="42.46258" lon="2.77444">
        <ele>764.3</ele>
        <time>2015-09-18T11:07:55Z</time>
      </trkpt>
      <trkpt lat="42.46259" lon="2.77433">
        <ele>767.4</ele>
        <time>2015-09-18T11:07:56Z</time>
      </trkpt>
      <trkpt lat="42.4626" lon="2.77421">
        <ele>769.1</ele>
        <time>2015-09-18T11:07:57Z</time>
      </trkpt>
      <trkpt lat="42.46262" lon="2.7741">
        <ele>773.1</ele>
        <time>2015-09-18T11:07:58Z</time>
      </trkpt>
      <trkpt lat="42.46267" lon="2.77391">
        <ele>774.3</ele>
        <time>2015-09-18T11:08:00Z</time>
      </trkpt>
      <trkpt lat="42.46267" lon="2.77391">
        <ele>775.5</ele>
        <time>2015-09-18T11:08:00Z</time>
      </trkpt>
      <trkpt lat="42.46276" lon="2.77376">
        <ele>776.9</ele>
        <time>2015-09-18T11:08:02Z</time>
      </trkpt>
      <trkpt lat="42.46281" lon="2.7737">
        <ele>778.3</ele>
        <time>2015-09-18T11:08:03Z</time>
      </trkpt>
      <trkpt lat="42.46288" lon="2.77367">
        <ele>780</ele>
        <time>2015-09-18T11:08:04Z</time>
      </trkpt>
      <trkpt lat="42.46294" lon="2.77366">
        <ele>780</ele>
        <time>2015-09-18T11:08:05Z</time>
      </trkpt>
      <trkpt lat="42.463" lon="2.77368">
        <ele>783.3</ele>
        <time>2015-09-18T11:08:06Z</time>
      </trkpt>
      <trkpt lat="42.46305" lon="2.7737">
        <ele>785.3</ele>
        <time>2015-09-18T11:08:07Z</time>
      </trkpt>
      <trkpt lat="42.46311" lon="2.77372">
        <ele>785.3</ele>
        <time>2015-09-18T11:08:08Z</time>
      </trkpt>
      <trkpt lat="42.46316" lon="2.77376">
        <ele>789.1</ele>
        <time>2015-09-18T11:08:09Z</time>
      </trkpt>
      <trkpt lat="42.4632" lon="2.77382">
        <ele>790.8</ele>
        <time>2015-09-18T11:08:10Z</time>
      </trkpt>
      <trkpt lat="42.4632" lon="2.7739">
        <ele>791.5</ele>
        <time>2015-09-18T11:08:11Z</time>
      </trkpt>
      <trkpt lat="42.46316" lon="2.774">
        <ele>791.5</ele>
        <time>2015-09-18T11:08:12Z</time>
      </trkpt>
      <trkpt lat="42.4631" lon="2.77408">
        <ele>791.8</ele>
        <time>2015-09-18T11:08:13Z</time>
      </trkpt>
      <trkpt lat="42.46301" lon="2.77413">
        <ele>792.7</ele>
        <time>2015-09-18T11:08:14Z</time>
      </trkpt>
      <trkpt lat="42.46291" lon="2.77411">
        <ele>793.5</ele>
        <time>2015-09-18T11:08:15Z</time>
      </trkpt>
      <trkpt lat="42.46282" lon="2.77404">
        <ele>794.7</ele>
        <time>2015-09-18T11:08:16Z</time>
      </trkpt>
      <trkpt lat="42.46276" lon="2.77394">
        <ele>796.2</ele>
        <time>2015-09-18T11:08:17Z</time>
      </trkpt>
      <trkpt lat="42.46273" lon="2.77382">
        <ele>797.8</ele>
        <time>2015-09-18T11:08:18Z</time>
      </trkpt>
      <trkpt lat="42.46272" lon="2.77356">
        <ele>802.2</ele>
        <time>2015-09-18T11:08:20Z</time>
      </trkpt>
      <trkpt lat="42.46272" lon="2.77356">
        <ele>805.2</ele>
        <time>2015-09-18T11:08:20Z</time>
      </trkpt>
      <trkpt lat="42.46278" lon="2.77337">
        <ele>807.9</ele>
        <time>2015-09-18T11:08:22Z</time>
      </trkpt>
      <trkpt lat="42.46283" lon="2.77332">
        <ele>809.3</ele>
        <time>2015-09-18T11:08:23Z</time>
      </trkpt>
      <trkpt lat="42.46289" lon="2.77328">
        <ele>810.6</ele>
        <time>2015-09-18T11:08:24Z</time>
      </trkpt>
      <trkpt lat="42.46295" lon="2.77328">
        <ele>809.6</ele>
        <time>2015-09-18T11:08:25Z</time>
      </trkpt>
      <trkpt lat="42.46301" lon="2.77327">
        <ele>810.6</ele>
        <time>2015-09-18T11:08:26Z</time>
      </trkpt>
      <trkpt lat="42.46308" lon="2.77328">
        <ele>812.3</ele>
        <time>2015-09-18T11:08:27Z</time>
      </trkpt>
      <trkpt lat="42.46313" lon="2.77331">
        <ele>813.8</ele>
        <time>2015-09-18T11:08:28Z</time>
      </trkpt>
      <trkpt lat="42.46317" lon="2.77336">
        <ele>815.5</ele>
        <time>2015-09-18T11:08:29Z</time>
      </trkpt>
      <trkpt lat="42.46319" lon="2.77342">
        <ele>816.2</ele>
        <time>2015-09-18T11:08:30Z</time>
      </trkpt>
      <trkpt lat="42.4632" lon="2.77349">
        <ele>817.6</ele>
        <time>2015-09-18T11:08:31Z</time>
      </trkpt>
      <trkpt lat="42.46321" lon="2.77357">
        <ele>817.8</ele>
        <time>2015-09-18T11:08:32Z</time>
      </trkpt>
      <trkpt lat="42.46321" lon="2.77365">
        <ele>818</ele>
        <time>2015-09-18T11:08:33Z</time>
      </trkpt>
      <trkpt lat="42.4632" lon="2.77374">
        <ele>818</ele>
        <time>2015-09-18T11:08:34Z</time>
      </trkpt>
      <trkpt lat="42.46317" lon="2.77384">
        <ele>817.4</ele>
        <time>2015-09-18T11:08:35Z</time>
      </trkpt>
      <trkpt lat="42.46304" lon="2.77398">
        <ele>816.4</ele>
        <time>2015-09-18T11:08:37Z</time>
      </trkpt>
      <trkpt lat="42.46295" lon="2.774">
        <ele>815.4</ele>
        <time>2015-09-18T11:08:38Z</time>
      </trkpt>
      <trkpt lat="42.46285" lon="2.77398">
        <ele>813.1</ele>
        <time>2015-09-18T11:08:39Z</time>
      </trkpt>
      <trkpt lat="42.46276" lon="2.77392">
        <ele>810.9</ele>
        <time>2015-09-18T11:08:40Z</time>
      </trkpt>
      <trkpt lat="42.46276" lon="2.77392">
        <ele>810.2</ele>
        <time>2015-09-18T11:08:40Z</time>
      </trkpt>
      <trkpt lat="42.46263" lon="2.7737">
        <ele>815.8</ele>
        <time>2015-09-18T11:08:42Z</time>
      </trkpt>
      <trkpt lat="42.46258" lon="2.77359">
        <ele>817.9</ele>
        <time>2015-09-18T11:08:43Z</time>
      </trkpt>
      <trkpt lat="42.46253" lon="2.77349">
        <ele>817.9</ele>
        <time>2015-09-18T11:08:44Z</time>
      </trkpt>
      <trkpt lat="42.46248" lon="2.77338">
        <ele>820.5</ele>
        <time>2015-09-18T11:08:45Z</time>
      </trkpt>
      <trkpt lat="42.46245" lon="2.77325">
        <ele>821.5</ele>
        <time>2015-09-18T11:08:46Z</time>
      </trkpt>
      <trkpt lat="42.46243" lon="2.77312">
        <ele>822.6</ele>
        <time>2015-09-18T11:08:47Z</time>
      </trkpt>
      <trkpt lat="42.46243" lon="2.77299">
        <ele>823.4</ele>
        <time>2015-09-18T11:08:48Z</time>
      </trkpt>
      <trkpt lat="42.46247" lon="2.77288">
        <ele>824.9</ele>
        <time>2015-09-18T11:08:49Z</time>
      </trkpt>
      <trkpt lat="42.46251" lon="2.77281">
        <ele>824.9</ele>
        <time>2015-09-18T11:08:50Z</time>
      </trkpt>
      <trkpt lat="42.4626" lon="2.77268">
        <ele>826.1</ele>
        <time>2015-09-18T11:08:52Z</time>
      </trkpt>
      <trkpt lat="42.46265" lon="2.77263">
        <ele>826.2</ele>
        <time>2015-09-18T11:08:53Z</time>
      </trkpt>
      <trkpt lat="42.4627" lon="2.77259">
        <ele>825.8</ele>
        <time>2015-09-18T11:08:54Z</time>
      </trkpt>
      <trkpt lat="42.46276" lon="2.77257">
        <ele>825.5</ele>
        <time>2015-09-18T11:08:55Z</time>
      </trkpt>
      <trkpt lat="42.46283" lon="2.77258">
        <ele>825.4</ele>
        <time>2015-09-18T11:08:56Z</time>
      </trkpt>
      <trkpt lat="42.46288" lon="2.77262">
        <ele>825.7</ele>
        <time>2015-09-18T11:08:57Z</time>
      </trkpt>
      <trkpt lat="42.46292" lon="2.77267">
        <ele>826.4</ele>
        <time>2015-09-18T11:08:58Z</time>
      </trkpt>
      <trkpt lat="42.46294" lon="2.77273">
        <ele>826.9</ele>
        <time>2015-09-18T11:08:59Z</time>
      </trkpt>
      <trkpt lat="42.46296" lon="2.77279">
        <ele>826.8</ele>
        <time>2015-09-18T11:09:00Z</time>
      </trkpt>
      <trkpt lat="42.46297" lon="2.77286">
        <ele>826.9</ele>
        <time>2015-09-18T11:09:01Z</time>
      </trkpt>
      <trkpt lat="42.46296" lon="2.77294">
        <ele>826.4</ele>
        <time>2015-09-18T11:09:02Z</time>
      </trkpt>
      <trkpt lat="42.46294" lon="2.77303">
        <ele>826.1</ele>
        <time>2015-09-18T11:09:03Z</time>
      </trkpt>
      <trkpt lat="42.4629" lon="2.77312">
        <ele>826.3</ele>
        <time>2015-09-18T11:09:04Z</time>
      </trkpt>
      <trkpt lat="42.46285" lon="2.7732">
        <ele>827</ele>
        <time>2015-09-18T11:09:05Z</time>
      </trkpt>
      <trkpt lat="42.46279" lon="2.77328">
        <ele>828.1</ele>
        <time>2015-09-18T11:09:06Z</time>
      </trkpt>
      <trkpt lat="42.46273" lon="2.77335">
        <ele>829.1</ele>
        <time>2015-09-18T11:09:07Z</time>
      </trkpt>
      <trkpt lat="42.46268" lon="2.77342">
        <ele>830.1</ele>
        <time>2015-09-18T11:09:08Z</time>
      </trkpt>
      <trkpt lat="42.46262" lon="2.77348">
        <ele>830.7</ele>
        <time>2015-09-18T11:09:09Z</time>
      </trkpt>
      <trkpt lat="42.46262" lon="2.77348">
        <ele>830.1</ele>
        <time>2015-09-18T11:09:09Z</time>
      </trkpt>
      <trkpt lat="42.46244" lon="2.77361">
        <ele>830.1</ele>
        <time>2015-09-18T11:09:12Z</time>
      </trkpt>
      <trkpt lat="42.46235" lon="2.77362">
        <ele>827.5</ele>
        <time>2015-09-18T11:09:13Z</time>
      </trkpt>
      <trkpt lat="42.46225" lon="2.7736">
        <ele>826.8</ele>
        <time>2015-09-18T11:09:14Z</time>
      </trkpt>
      <trkpt lat="42.46215" lon="2.77356">
        <ele>826.7</ele>
        <time>2015-09-18T11:09:15Z</time>
      </trkpt>
      <trkpt lat="42.46205" lon="2.77349">
        <ele>826.9</ele>
        <time>2015-09-18T11:09:16Z</time>
      </trkpt>
      <trkpt lat="42.46197" lon="2.7734">
        <ele>827.2</ele>
        <time>2015-09-18T11:09:17Z</time>
      </trkpt>
      <trkpt lat="42.46189" lon="2.77329">
        <ele>828.2</ele>
        <time>2015-09-18T11:09:18Z</time>
      </trkpt>
      <trkpt lat="42.46182" lon="2.77317">
        <ele>829.7</ele>
        <time>2015-09-18T11:09:19Z</time>
      </trkpt>
      <trkpt lat="42.46177" lon="2.77306">
        <ele>831.6</ele>
        <time>2015-09-18T11:09:20Z</time>
      </trkpt>
      <trkpt lat="42.46173" lon="2.77294">
        <ele>833.5</ele>
        <time>2015-09-18T11:09:21Z</time>
      </trkpt>
      <trkpt lat="42.46169" lon="2.77284">
        <ele>835.8</ele>
        <time>2015-09-18T11:09:22Z</time>
      </trkpt>
      <trkpt lat="42.46166" lon="2.77274">
        <ele>837.7</ele>
        <time>2015-09-18T11:09:23Z</time>
      </trkpt>
      <trkpt lat="42.46164" lon="2.77264">
        <ele>839.3</ele>
        <time>2015-09-18T11:09:24Z</time>
      </trkpt>
      <trkpt lat="42.46165" lon="2.77255">
        <ele>840.8</ele>
        <time>2015-09-18T11:09:25Z</time>
      </trkpt>
      <trkpt lat="42.46169" lon="2.77248">
        <ele>843</ele>
        <time>2015-09-18T11:09:26Z</time>
      </trkpt>
      <trkpt lat="42.46174" lon="2.77243">
        <ele>844</ele>
        <time>2015-09-18T11:09:27Z</time>
      </trkpt>
      <trkpt lat="42.4618" lon="2.77242">
        <ele>845</ele>
        <time>2015-09-18T11:09:28Z</time>
      </trkpt>
      <trkpt lat="42.46185" lon="2.77243">
        <ele>845.3</ele>
        <time>2015-09-18T11:09:29Z</time>
      </trkpt>
      <trkpt lat="42.46191" lon="2.77247">
        <ele>846.2</ele>
        <time>2015-09-18T11:09:30Z</time>
      </trkpt>
      <trkpt lat="42.46201" lon="2.7726">
        <ele>847.9</ele>
        <time>2015-09-18T11:09:32Z</time>
      </trkpt>
      <trkpt lat="42.46204" lon="2.77269">
        <ele>850.5</ele>
        <time>2015-09-18T11:09:33Z</time>
      </trkpt>
      <trkpt lat="42.46205" lon="2.77277">
        <ele>853.1</ele>
        <time>2015-09-18T11:09:34Z</time>
      </trkpt>
      <trkpt lat="42.46205" lon="2.77284">
        <ele>855.3</ele>
        <time>2015-09-18T11:09:35Z</time>
      </trkpt>
      <trkpt lat="42.46205" lon="2.77284">
        <ele>855.9</ele>
        <time>2015-09-18T11:09:35Z</time>
      </trkpt>
      <trkpt lat="42.46204" lon="2.77296">
        <ele>855.2</ele>
        <time>2015-09-18T11:09:37Z</time>
      </trkpt>
      <trkpt lat="42.46202" lon="2.77303">
        <ele>854.3</ele>
        <time>2015-09-18T11:09:38Z</time>
      </trkpt>
      <trkpt lat="42.46199" lon="2.77312">
        <ele>853.7</ele>
        <time>2015-09-18T11:09:39Z</time>
      </trkpt>
      <trkpt lat="42.46194" lon="2.7732">
        <ele>853.4</ele>
        <time>2015-09-18T11:09:40Z</time>
      </trkpt>
      <trkpt lat="42.46188" lon="2.77325">
        <ele>853</ele>
        <time>2015-09-18T11:09:41Z</time>
      </trkpt>
      <trkpt lat="42.4618" lon="2.77329">
        <ele>852.4</ele>
        <time>2015-09-18T11:09:42Z</time>
      </trkpt>
      <trkpt lat="42.46171" lon="2.7733">
        <ele>852</ele>
        <time>2015-09-18T11:09:43Z</time>
      </trkpt>
      <trkpt lat="42.46162" lon="2.77329">
        <ele>851.7</ele>
        <time>2015-09-18T11:09:44Z</time>
      </trkpt>
      <trkpt lat="42.46152" lon="2.77327">
        <ele>850.9</ele>
        <time>2015-09-18T11:09:45Z</time>
      </trkpt>
      <trkpt lat="42.46142" lon="2.77322">
        <ele>850.2</ele>
        <time>2015-09-18T11:09:46Z</time>
      </trkpt>
      <trkpt lat="42.46126" lon="2.77303">
        <ele>850.1</ele>
        <time>2015-09-18T11:09:48Z</time>
      </trkpt>
      <trkpt lat="42.4612" lon="2.7729">
        <ele>850.8</ele>
        <time>2015-09-18T11:09:49Z</time>
      </trkpt>
      <trkpt lat="42.46115" lon="2.77278">
        <ele>850.8</ele>
        <time>2015-09-18T11:09:50Z</time>
      </trkpt>
      <trkpt lat="42.46115" lon="2.77278">
        <ele>854</ele>
        <time>2015-09-18T11:09:50Z</time>
      </trkpt>
      <trkpt lat="42.46109" lon="2.77256">
        <ele>856</ele>
        <time>2015-09-18T11:09:52Z</time>
      </trkpt>
      <trkpt lat="42.46106" lon="2.77246">
        <ele>859</ele>
        <time>2015-09-18T11:09:53Z</time>
      </trkpt>
      <trkpt lat="42.46102" lon="2.77237">
        <ele>860</ele>
        <time>2015-09-18T11:09:54Z</time>
      </trkpt>
      <trkpt lat="42.46098" lon="2.77227">
        <ele>860.5</ele>
        <time>2015-09-18T11:09:55Z</time>
      </trkpt>
      <trkpt lat="42.46095" lon="2.77217">
        <ele>860.9</ele>
        <time>2015-09-18T11:09:56Z</time>
      </trkpt>
      <trkpt lat="42.46093" lon="2.77204">
        <ele>861.4</ele>
        <time>2015-09-18T11:09:57Z</time>
      </trkpt>
      <trkpt lat="42.46093" lon="2.77192">
        <ele>862.4</ele>
        <time>2015-09-18T11:09:58Z</time>
      </trkpt>
      <trkpt lat="42.46094" lon="2.7718">
        <ele>863.9</ele>
        <time>2015-09-18T11:09:59Z</time>
      </trkpt>
      <trkpt lat="42.46096" lon="2.77171">
        <ele>865.9</ele>
        <time>2015-09-18T11:10:00Z</time>
      </trkpt>
      <trkpt lat="42.46099" lon="2.77165">
        <ele>867.2</ele>
        <time>2015-09-18T11:10:01Z</time>
      </trkpt>
      <trkpt lat="42.46103" lon="2.77161">
        <ele>867.9</ele>
        <time>2015-09-18T11:10:02Z</time>
      </trkpt>
      <trkpt lat="42.46107" lon="2.77158">
        <ele>868</ele>
        <time>2015-09-18T11:10:03Z</time>
      </trkpt>
      <trkpt lat="42.46118" lon="2.77157">
        <ele>868.4</ele>
        <time>2015-09-18T11:10:05Z</time>
      </trkpt>
      <trkpt lat="42.46118" lon="2.77157">
        <ele>868.9</ele>
        <time>2015-09-18T11:10:05Z</time>
      </trkpt>
      <trkpt lat="42.46127" lon="2.77166">
        <ele>869.4</ele>
        <time>2015-09-18T11:10:07Z</time>
      </trkpt>
      <trkpt lat="42.4613" lon="2.77174">
        <ele>870</ele>
        <time>2015-09-18T11:10:08Z</time>
      </trkpt>
      <trkpt lat="42.4613" lon="2.77183">
        <ele>870.6</ele>
        <time>2015-09-18T11:10:09Z</time>
      </trkpt>
      <trkpt lat="42.46129" lon="2.77193">
        <ele>871.2</ele>
        <time>2015-09-18T11:10:10Z</time>
      </trkpt>
      <trkpt lat="42.46125" lon="2.77203">
        <ele>871.9</ele>
        <time>2015-09-18T11:10:11Z</time>
      </trkpt>
      <trkpt lat="42.46118" lon="2.77211">
        <ele>872.9</ele>
        <time>2015-09-18T11:10:12Z</time>
      </trkpt>
      <trkpt lat="42.46109" lon="2.77214">
        <ele>873.9</ele>
        <time>2015-09-18T11:10:13Z</time>
      </trkpt>
      <trkpt lat="42.461" lon="2.77213">
        <ele>875.3</ele>
        <time>2015-09-18T11:10:14Z</time>
      </trkpt>
      <trkpt lat="42.4609" lon="2.7721">
        <ele>877.2</ele>
        <time>2015-09-18T11:10:15Z</time>
      </trkpt>
      <trkpt lat="42.46082" lon="2.77206">
        <ele>878.7</ele>
        <time>2015-09-18T11:10:16Z</time>
      </trkpt>
      <trkpt lat="42.46074" lon="2.772">
        <ele>878.7</ele>
        <time>2015-09-18T11:10:17Z</time>
      </trkpt>
      <trkpt lat="42.46066" lon="2.77194">
        <ele>880.8</ele>
        <time>2015-09-18T11:10:18Z</time>
      </trkpt>
      <trkpt lat="42.46059" lon="2.77186">
        <ele>880.8</ele>
        <time>2015-09-18T11:10:19Z</time>
      </trkpt>
      <trkpt lat="42.46053" lon="2.77178">
        <ele>880.8</ele>
        <time>2015-09-18T11:10:20Z</time>
      </trkpt>
      <trkpt lat="42.46047" lon="2.77169">
        <ele>884.1</ele>
        <time>2015-09-18T11:10:21Z</time>
      </trkpt>
      <trkpt lat="42.46043" lon="2.77159">
        <ele>885.5</ele>
        <time>2015-09-18T11:10:22Z</time>
      </trkpt>
      <trkpt lat="42.46036" lon="2.7714">
        <ele>887</ele>
        <time>2015-09-18T11:10:24Z</time>
      </trkpt>
      <trkpt lat="42.46034" lon="2.7713">
        <ele>887.5</ele>
        <time>2015-09-18T11:10:25Z</time>
      </trkpt>
      <trkpt lat="42.46033" lon="2.77121">
        <ele>888</ele>
        <time>2015-09-18T11:10:26Z</time>
      </trkpt>
      <trkpt lat="42.46033" lon="2.77112">
        <ele>888.4</ele>
        <time>2015-09-18T11:10:27Z</time>
      </trkpt>
      <trkpt lat="42.46036" lon="2.77104">
        <ele>888.4</ele>
        <time>2015-09-18T11:10:28Z</time>
      </trkpt>
      <trkpt lat="42.4604" lon="2.77097">
        <ele>888.6</ele>
        <time>2015-09-18T11:10:29Z</time>
      </trkpt>
      <trkpt lat="42.46045" lon="2.77093">
        <ele>889</ele>
        <time>2015-09-18T11:10:30Z</time>
      </trkpt>
      <trkpt lat="42.4605" lon="2.77093">
        <ele>889</ele>
        <time>2015-09-18T11:10:31Z</time>
      </trkpt>
      <trkpt lat="42.46055" lon="2.77096">
        <ele>888.6</ele>
        <time>2015-09-18T11:10:32Z</time>
      </trkpt>
      <trkpt lat="42.46059" lon="2.77102">
        <ele>887.7</ele>
        <time>2015-09-18T11:10:33Z</time>
      </trkpt>
      <trkpt lat="42.46062" lon="2.77111">
        <ele>887.6</ele>
        <time>2015-09-18T11:10:34Z</time>
      </trkpt>
      <trkpt lat="42.46063" lon="2.77122">
        <ele>888.2</ele>
        <time>2015-09-18T11:10:35Z</time>
      </trkpt>
      <trkpt lat="42.46057" lon="2.77144">
        <ele>888.2</ele>
        <time>2015-09-18T11:10:37Z</time>
      </trkpt>
      <trkpt lat="42.46051" lon="2.77154">
        <ele>888.6</ele>
        <time>2015-09-18T11:10:38Z</time>
      </trkpt>
      <trkpt lat="42.46043" lon="2.7716">
        <ele>889.2</ele>
        <time>2015-09-18T11:10:39Z</time>
      </trkpt>
      <trkpt lat="42.46033" lon="2.77163">
        <ele>889.5</ele>
        <time>2015-09-18T11:10:40Z</time>
      </trkpt>
      <trkpt lat="42.46022" lon="2.77162">
        <ele>889.3</ele>
        <time>2015-09-18T11:10:41Z</time>
      </trkpt>
      <trkpt lat="42.46013" lon="2.77159">
        <ele>889</ele>
        <time>2015-09-18T11:10:42Z</time>
      </trkpt>
      <trkpt lat="42.46005" lon="2.77152">
        <ele>889</ele>
        <time>2015-09-18T11:10:43Z</time>
      </trkpt>
      <trkpt lat="42.45997" lon="2.77145">
        <ele>890.5</ele>
        <time>2015-09-18T11:10:44Z</time>
      </trkpt>
      <trkpt lat="42.45991" lon="2.77136">
        <ele>891.5</ele>
        <time>2015-09-18T11:10:45Z</time>
      </trkpt>
      <trkpt lat="42.45985" lon="2.77127">
        <ele>892</ele>
        <time>2015-09-18T11:10:46Z</time>
      </trkpt>
      <trkpt lat="42.4598" lon="2.77118">
        <ele>892.5</ele>
        <time>2015-09-18T11:10:47Z</time>
      </trkpt>
      <trkpt lat="42.45975" lon="2.77109">
        <ele>892</ele>
        <time>2015-09-18T11:10:48Z</time>
      </trkpt>
      <trkpt lat="42.4597" lon="2.771">
        <ele>891.5</ele>
        <time>2015-09-18T11:10:49Z</time>
      </trkpt>
      <trkpt lat="42.45967" lon="2.77091">
        <ele>891.1</ele>
        <time>2015-09-18T11:10:50Z</time>
      </trkpt>
      <trkpt lat="42.45965" lon="2.77082">
        <ele>890.7</ele>
        <time>2015-09-18T11:10:51Z</time>
      </trkpt>
      <trkpt lat="42.45966" lon="2.77074">
        <ele>889.8</ele>
        <time>2015-09-18T11:10:52Z</time>
      </trkpt>
      <trkpt lat="42.45968" lon="2.77067">
        <ele>888.5</ele>
        <time>2015-09-18T11:10:53Z</time>
      </trkpt>
      <trkpt lat="42.45972" lon="2.77061">
        <ele>886.6</ele>
        <time>2015-09-18T11:10:54Z</time>
      </trkpt>
      <trkpt lat="42.45977" lon="2.77057">
        <ele>886.3</ele>
        <time>2015-09-18T11:10:55Z</time>
      </trkpt>
      <trkpt lat="42.45988" lon="2.77051">
        <ele>886.1</ele>
        <time>2015-09-18T11:10:57Z</time>
      </trkpt>
      <trkpt lat="42.45992" lon="2.77048">
        <ele>885.4</ele>
        <time>2015-09-18T11:10:58Z</time>
      </trkpt>
      <trkpt lat="42.45996" lon="2.77044">
        <ele>884</ele>
        <time>2015-09-18T11:10:59Z</time>
      </trkpt>
      <trkpt lat="42.46" lon="2.77039">
        <ele>882.7</ele>
        <time>2015-09-18T11:11:00Z</time>
      </trkpt>
      <trkpt lat="42.46005" lon="2.77036">
        <ele>881</ele>
        <time>2015-09-18T11:11:01Z</time>
      </trkpt>
      <trkpt lat="42.46011" lon="2.77035">
        <ele>879</ele>
        <time>2015-09-18T11:11:02Z</time>
      </trkpt>
      <trkpt lat="42.46017" lon="2.77036">
        <ele>877.6</ele>
        <time>2015-09-18T11:11:03Z</time>
      </trkpt>
      <trkpt lat="42.46023" lon="2.77037">
        <ele>877.6</ele>
        <time>2015-09-18T11:11:04Z</time>
      </trkpt>
      <trkpt lat="42.46029" lon="2.77038">
        <ele>875.5</ele>
        <time>2015-09-18T11:11:05Z</time>
      </trkpt>
      <trkpt lat="42.46034" lon="2.77039">
        <ele>874.3</ele>
        <time>2015-09-18T11:11:06Z</time>
      </trkpt>
      <trkpt lat="42.4604" lon="2.77041">
        <ele>872.8</ele>
        <time>2015-09-18T11:11:07Z</time>
      </trkpt>
      <trkpt lat="42.46046" lon="2.77043">
        <ele>871.4</ele>
        <time>2015-09-18T11:11:08Z</time>
      </trkpt>
      <trkpt lat="42.46052" lon="2.77046">
        <ele>869.6</ele>
        <time>2015-09-18T11:11:09Z</time>
      </trkpt>
      <trkpt lat="42.46057" lon="2.7705">
        <ele>868.5</ele>
        <time>2015-09-18T11:11:10Z</time>
      </trkpt>
      <trkpt lat="42.46062" lon="2.77055">
        <ele>867.1</ele>
        <time>2015-09-18T11:11:11Z</time>
      </trkpt>
      <trkpt lat="42.46072" lon="2.77067">
        <ele>865.6</ele>
        <time>2015-09-18T11:11:13Z</time>
      </trkpt>
      <trkpt lat="42.46076" lon="2.77075">
        <ele>864.2</ele>
        <time>2015-09-18T11:11:14Z</time>
      </trkpt>
      <trkpt lat="42.46079" lon="2.77083">
        <ele>863.1</ele>
        <time>2015-09-18T11:11:15Z</time>
      </trkpt>
      <trkpt lat="42.46079" lon="2.77083">
        <ele>861.8</ele>
        <time>2015-09-18T11:11:15Z</time>
      </trkpt>
      <trkpt lat="42.46081" lon="2.77103">
        <ele>860.8</ele>
        <time>2015-09-18T11:11:17Z</time>
      </trkpt>
      <trkpt lat="42.46081" lon="2.77115">
        <ele>860.3</ele>
        <time>2015-09-18T11:11:18Z</time>
      </trkpt>
      <trkpt lat="42.46079" lon="2.77126">
        <ele>860.2</ele>
        <time>2015-09-18T11:11:19Z</time>
      </trkpt>
      <trkpt lat="42.46077" lon="2.77137">
        <ele>860.7</ele>
        <time>2015-09-18T11:11:20Z</time>
      </trkpt>
      <trkpt lat="42.46076" lon="2.77148">
        <ele>861.6</ele>
        <time>2015-09-18T11:11:21Z</time>
      </trkpt>
      <trkpt lat="42.46076" lon="2.77159">
        <ele>862.9</ele>
        <time>2015-09-18T11:11:22Z</time>
      </trkpt>
      <trkpt lat="42.46076" lon="2.77169">
        <ele>864.2</ele>
        <time>2015-09-18T11:11:23Z</time>
      </trkpt>
      <trkpt lat="42.46077" lon="2.77178">
        <ele>865.2</ele>
        <time>2015-09-18T11:11:24Z</time>
      </trkpt>
      <trkpt lat="42.4608" lon="2.77185">
        <ele>865.5</ele>
        <time>2015-09-18T11:11:25Z</time>
      </trkpt>
      <trkpt lat="42.46083" lon="2.77193">
        <ele>865.4</ele>
        <time>2015-09-18T11:11:26Z</time>
      </trkpt>
      <trkpt lat="42.46087" lon="2.77213">
        <ele>865.3</ele>
        <time>2015-09-18T11:11:28Z</time>
      </trkpt>
      <trkpt lat="42.46087" lon="2.77224">
        <ele>865.9</ele>
        <time>2015-09-18T11:11:29Z</time>
      </trkpt>
      <trkpt lat="42.46085" lon="2.77236">
        <ele>866.6</ele>
        <time>2015-09-18T11:11:30Z</time>
      </trkpt>
      <trkpt lat="42.46085" lon="2.77236">
        <ele>866.6</ele>
        <time>2015-09-18T11:11:30Z</time>
      </trkpt>
      <trkpt lat="42.46082" lon="2.77257">
        <ele>867.4</ele>
        <time>2015-09-18T11:11:32Z</time>
      </trkpt>
      <trkpt lat="42.4608" lon="2.77267">
        <ele>866.7</ele>
        <time>2015-09-18T11:11:33Z</time>
      </trkpt>
      <trkpt lat="42.46078" lon="2.77277">
        <ele>866</ele>
        <time>2015-09-18T11:11:34Z</time>
      </trkpt>
      <trkpt lat="42.46078" lon="2.77287">
        <ele>865</ele>
        <time>2015-09-18T11:11:35Z</time>
      </trkpt>
      <trkpt lat="42.46079" lon="2.77295">
        <ele>863.6</ele>
        <time>2015-09-18T11:11:36Z</time>
      </trkpt>
      <trkpt lat="42.46082" lon="2.77302">
        <ele>861.5</ele>
        <time>2015-09-18T11:11:37Z</time>
      </trkpt>
      <trkpt lat="42.46085" lon="2.77309">
        <ele>858.8</ele>
        <time>2015-09-18T11:11:38Z</time>
      </trkpt>
      <trkpt lat="42.46089" lon="2.77316">
        <ele>856.1</ele>
        <time>2015-09-18T11:11:39Z</time>
      </trkpt>
      <trkpt lat="42.46092" lon="2.77323">
        <ele>853.1</ele>
        <time>2015-09-18T11:11:40Z</time>
      </trkpt>
      <trkpt lat="42.46096" lon="2.7733">
        <ele>850</ele>
        <time>2015-09-18T11:11:41Z</time>
      </trkpt>
      <trkpt lat="42.46102" lon="2.77337">
        <ele>847.3</ele>
        <time>2015-09-18T11:11:42Z</time>
      </trkpt>
      <trkpt lat="42.46108" lon="2.77344">
        <ele>846.6</ele>
        <time>2015-09-18T11:11:43Z</time>
      </trkpt>
      <trkpt lat="42.46115" lon="2.77349">
        <ele>847.4</ele>
        <time>2015-09-18T11:11:44Z</time>
      </trkpt>
      <trkpt lat="42.4612" lon="2.77354">
        <ele>848.4</ele>
        <time>2015-09-18T11:11:45Z</time>
      </trkpt>
      <trkpt lat="42.46128" lon="2.77363">
        <ele>847.3</ele>
        <time>2015-09-18T11:11:47Z</time>
      </trkpt>
      <trkpt lat="42.46133" lon="2.77366">
        <ele>844.9</ele>
        <time>2015-09-18T11:11:48Z</time>
      </trkpt>
      <trkpt lat="42.46138" lon="2.77368">
        <ele>841.1</ele>
        <time>2015-09-18T11:11:49Z</time>
      </trkpt>
      <trkpt lat="42.46144" lon="2.77371">
        <ele>838.3</ele>
        <time>2015-09-18T11:11:50Z</time>
      </trkpt>
      <trkpt lat="42.46151" lon="2.77375">
        <ele>836.5</ele>
        <time>2015-09-18T11:11:51Z</time>
      </trkpt>
      <trkpt lat="42.46157" lon="2.77379">
        <ele>834.9</ele>
        <time>2015-09-18T11:11:52Z</time>
      </trkpt>
      <trkpt lat="42.46163" lon="2.77382">
        <ele>833.5</ele>
        <time>2015-09-18T11:11:53Z</time>
      </trkpt>
      <trkpt lat="42.46168" lon="2.77384">
        <ele>831.8</ele>
        <time>2015-09-18T11:11:54Z</time>
      </trkpt>
      <trkpt lat="42.46173" lon="2.77386">
        <ele>829.6</ele>
        <time>2015-09-18T11:11:55Z</time>
      </trkpt>
      <trkpt lat="42.46179" lon="2.77387">
        <ele>827.2</ele>
        <time>2015-09-18T11:11:56Z</time>
      </trkpt>
      <trkpt lat="42.46185" lon="2.77389">
        <ele>825.3</ele>
        <time>2015-09-18T11:11:57Z</time>
      </trkpt>
      <trkpt lat="42.46191" lon="2.77391">
        <ele>823.6</ele>
        <time>2015-09-18T11:11:58Z</time>
      </trkpt>
      <trkpt lat="42.46196" lon="2.77392">
        <ele>821.6</ele>
        <time>2015-09-18T11:11:59Z</time>
      </trkpt>
      <trkpt lat="42.46203" lon="2.77392">
        <ele>819.9</ele>
        <time>2015-09-18T11:12:00Z</time>
      </trkpt>
      <trkpt lat="42.46209" lon="2.77391">
        <ele>817.8</ele>
        <time>2015-09-18T11:12:01Z</time>
      </trkpt>
      <trkpt lat="42.46216" lon="2.7739">
        <ele>817.6</ele>
        <time>2015-09-18T11:12:02Z</time>
      </trkpt>
      <trkpt lat="42.46222" lon="2.7739">
        <ele>817.7</ele>
        <time>2015-09-18T11:12:03Z</time>
      </trkpt>
      <trkpt lat="42.46233" lon="2.77387">
        <ele>817.6</ele>
        <time>2015-09-18T11:12:05Z</time>
      </trkpt>
      <trkpt lat="42.46233" lon="2.77387">
        <ele>817.1</ele>
        <time>2015-09-18T11:12:05Z</time>
      </trkpt>
      <trkpt lat="42.46243" lon="2.7738">
        <ele>816.6</ele>
        <time>2015-09-18T11:12:07Z</time>
      </trkpt>
      <trkpt lat="42.46248" lon="2.77377">
        <ele>816.3</ele>
        <time>2015-09-18T11:12:08Z</time>
      </trkpt>
      <trkpt lat="42.46255" lon="2.77376">
        <ele>816.4</ele>
        <time>2015-09-18T11:12:09Z</time>
      </trkpt>
      <trkpt lat="42.46261" lon="2.77374">
        <ele>816.9</ele>
        <time>2015-09-18T11:12:10Z</time>
      </trkpt>
      <trkpt lat="42.46267" lon="2.77373">
        <ele>818</ele>
        <time>2015-09-18T11:12:11Z</time>
      </trkpt>
      <trkpt lat="42.46273" lon="2.77373">
        <ele>818.7</ele>
        <time>2015-09-18T11:12:12Z</time>
      </trkpt>
      <trkpt lat="42.46278" lon="2.77373">
        <ele>819.4</ele>
        <time>2015-09-18T11:12:13Z</time>
      </trkpt>
      <trkpt lat="42.46284" lon="2.77374">
        <ele>819.7</ele>
        <time>2015-09-18T11:12:14Z</time>
      </trkpt>
      <trkpt lat="42.46291" lon="2.77376">
        <ele>819.8</ele>
        <time>2015-09-18T11:12:15Z</time>
      </trkpt>
      <trkpt lat="42.46297" lon="2.77381">
        <ele>819.8</ele>
        <time>2015-09-18T11:12:16Z</time>
      </trkpt>
      <trkpt lat="42.46297" lon="2.77381">
        <ele>819.8</ele>
        <time>2015-09-18T11:12:16Z</time>
      </trkpt>
      <trkpt lat="42.46308" lon="2.77407">
        <ele>819.4</ele>
        <time>2015-09-18T11:12:19Z</time>
      </trkpt>
      <trkpt lat="42.46309" lon="2.77419">
        <ele>818.7</ele>
        <time>2015-09-18T11:12:20Z</time>
      </trkpt>
      <trkpt lat="42.46309" lon="2.77419">
        <ele>818.6</ele>
        <time>2015-09-18T11:12:20Z</time>
      </trkpt>
      <trkpt lat="42.46303" lon="2.77443">
        <ele>818.8</ele>
        <time>2015-09-18T11:12:22Z</time>
      </trkpt>
      <trkpt lat="42.46298" lon="2.77452">
        <ele>818.6</ele>
        <time>2015-09-18T11:12:23Z</time>
      </trkpt>
      <trkpt lat="42.46291" lon="2.77458">
        <ele>817.8</ele>
        <time>2015-09-18T11:12:24Z</time>
      </trkpt>
      <trkpt lat="42.46283" lon="2.77463">
        <ele>815.8</ele>
        <time>2015-09-18T11:12:25Z</time>
      </trkpt>
      <trkpt lat="42.46273" lon="2.77465">
        <ele>813.7</ele>
        <time>2015-09-18T11:12:26Z</time>
      </trkpt>
      <trkpt lat="42.46263" lon="2.77464">
        <ele>811.4</ele>
        <time>2015-09-18T11:12:27Z</time>
      </trkpt>
      <trkpt lat="42.46254" lon="2.77461">
        <ele>810</ele>
        <time>2015-09-18T11:12:28Z</time>
      </trkpt>
      <trkpt lat="42.46246" lon="2.77454">
        <ele>807.4</ele>
        <time>2015-09-18T11:12:29Z</time>
      </trkpt>
      <trkpt lat="42.46241" lon="2.77443">
        <ele>806.3</ele>
        <time>2015-09-18T11:12:30Z</time>
      </trkpt>
      <trkpt lat="42.46239" lon="2.77432">
        <ele>805.2</ele>
        <time>2015-09-18T11:12:31Z</time>
      </trkpt>
      <trkpt lat="42.46238" lon="2.77421">
        <ele>805.6</ele>
        <time>2015-09-18T11:12:32Z</time>
      </trkpt>
      <trkpt lat="42.46239" lon="2.77412">
        <ele>806.5</ele>
        <time>2015-09-18T11:12:33Z</time>
      </trkpt>
      <trkpt lat="42.46242" lon="2.77404">
        <ele>808.7</ele>
        <time>2015-09-18T11:12:34Z</time>
      </trkpt>
      <trkpt lat="42.46244" lon="2.77398">
        <ele>810.2</ele>
        <time>2015-09-18T11:12:35Z</time>
      </trkpt>
      <trkpt lat="42.46248" lon="2.77385">
        <ele>810.1</ele>
        <time>2015-09-18T11:12:37Z</time>
      </trkpt>
      <trkpt lat="42.46251" lon="2.77378">
        <ele>809.9</ele>
        <time>2015-09-18T11:12:38Z</time>
      </trkpt>
      <trkpt lat="42.46255" lon="2.77371">
        <ele>810</ele>
        <time>2015-09-18T11:12:39Z</time>
      </trkpt>
      <trkpt lat="42.46258" lon="2.77363">
        <ele>810.9</ele>
        <time>2015-09-18T11:12:40Z</time>
      </trkpt>
      <trkpt lat="42.4626" lon="2.77356">
        <ele>812.1</ele>
        <time>2015-09-18T11:12:41Z</time>
      </trkpt>
      <trkpt lat="42.46262" lon="2.77349">
        <ele>812.8</ele>
        <time>2015-09-18T11:12:42Z</time>
      </trkpt>
      <trkpt lat="42.46264" lon="2.77343">
        <ele>812.7</ele>
        <time>2015-09-18T11:12:43Z</time>
      </trkpt>
      <trkpt lat="42.46268" lon="2.77337">
        <ele>812.2</ele>
        <time>2015-09-18T11:12:44Z</time>
      </trkpt>
      <trkpt lat="42.46273" lon="2.77332">
        <ele>811.8</ele>
        <time>2015-09-18T11:12:45Z</time>
      </trkpt>
      <trkpt lat="42.46279" lon="2.77329">
        <ele>811.8</ele>
        <time>2015-09-18T11:12:46Z</time>
      </trkpt>
      <trkpt lat="42.46286" lon="2.77328">
        <ele>811.8</ele>
        <time>2015-09-18T11:12:47Z</time>
      </trkpt>
      <trkpt lat="42.46293" lon="2.77331">
        <ele>811.6</ele>
        <time>2015-09-18T11:12:48Z</time>
      </trkpt>
      <trkpt lat="42.46299" lon="2.77336">
        <ele>811.1</ele>
        <time>2015-09-18T11:12:49Z</time>
      </trkpt>
      <trkpt lat="42.46304" lon="2.77344">
        <ele>810.4</ele>
        <time>2015-09-18T11:12:50Z</time>
      </trkpt>
      <trkpt lat="42.46306" lon="2.77355">
        <ele>809.8</ele>
        <time>2015-09-18T11:12:51Z</time>
      </trkpt>
      <trkpt lat="42.46306" lon="2.77366">
        <ele>809.2</ele>
        <time>2015-09-18T11:12:52Z</time>
      </trkpt>
      <trkpt lat="42.46304" lon="2.77377">
        <ele>807.6</ele>
        <time>2015-09-18T11:12:53Z</time>
      </trkpt>
      <trkpt lat="42.46304" lon="2.77377">
        <ele>807</ele>
        <time>2015-09-18T11:12:53Z</time>
      </trkpt>
      <trkpt lat="42.46292" lon="2.77392">
        <ele>806.2</ele>
        <time>2015-09-18T11:12:55Z</time>
      </trkpt>
      <trkpt lat="42.46278" lon="2.77404">
        <ele>805.3</ele>
        <time>2015-09-18T11:12:57Z</time>
      </trkpt>
      <trkpt lat="42.4627" lon="2.77411">
        <ele>804.2</ele>
        <time>2015-09-18T11:12:58Z</time>
      </trkpt>
      <trkpt lat="42.46262" lon="2.77417">
        <ele>803.6</ele>
        <time>2015-09-18T11:12:59Z</time>
      </trkpt>
      <trkpt lat="42.46253" lon="2.77423">
        <ele>803.3</ele>
        <time>2015-09-18T11:13:00Z</time>
      </trkpt>
      <trkpt lat="42.46245" lon="2.77428">
        <ele>803.6</ele>
        <time>2015-09-18T11:13:01Z</time>
      </trkpt>
      <trkpt lat="42.46236" lon="2.77431">
        <ele>803.8</ele>
        <time>2015-09-18T11:13:02Z</time>
      </trkpt>
      <trkpt lat="42.46226" lon="2.77431">
        <ele>803.9</ele>
        <time>2015-09-18T11:13:03Z</time>
      </trkpt>
      <trkpt lat="42.46217" lon="2.77429">
        <ele>803.9</ele>
        <time>2015-09-18T11:13:04Z</time>
      </trkpt>
      <trkpt lat="42.46207" lon="2.77426">
        <ele>805</ele>
        <time>2015-09-18T11:13:05Z</time>
      </trkpt>
      <trkpt lat="42.46199" lon="2.77423">
        <ele>806.7</ele>
        <time>2015-09-18T11:13:06Z</time>
      </trkpt>
      <trkpt lat="42.46191" lon="2.77419">
        <ele>808.6</ele>
        <time>2015-09-18T11:13:07Z</time>
      </trkpt>
      <trkpt lat="42.46185" lon="2.77414">
        <ele>809.7</ele>
        <time>2015-09-18T11:13:08Z</time>
      </trkpt>
      <trkpt lat="42.46179" lon="2.77406">
        <ele>810.3</ele>
        <time>2015-09-18T11:13:09Z</time>
      </trkpt>
      <trkpt lat="42.46173" lon="2.77399">
        <ele>810.9</ele>
        <time>2015-09-18T11:13:10Z</time>
      </trkpt>
      <trkpt lat="42.46168" lon="2.77392">
        <ele>811.7</ele>
        <time>2015-09-18T11:13:11Z</time>
      </trkpt>
      <trkpt lat="42.46165" lon="2.77384">
        <ele>811.7</ele>
        <time>2015-09-18T11:13:12Z</time>
      </trkpt>
      <trkpt lat="42.46163" lon="2.77376">
        <ele>811.6</ele>
        <time>2015-09-18T11:13:13Z</time>
      </trkpt>
      <trkpt lat="42.46164" lon="2.77367">
        <ele>811.2</ele>
        <time>2015-09-18T11:13:14Z</time>
      </trkpt>
      <trkpt lat="42.46168" lon="2.77359">
        <ele>811.2</ele>
        <time>2015-09-18T11:13:15Z</time>
      </trkpt>
      <trkpt lat="42.46179" lon="2.77348">
        <ele>812.7</ele>
        <time>2015-09-18T11:13:17Z</time>
      </trkpt>
      <trkpt lat="42.46183" lon="2.77343">
        <ele>812.7</ele>
        <time>2015-09-18T11:13:18Z</time>
      </trkpt>
      <trkpt lat="42.46186" lon="2.77337">
        <ele>813.7</ele>
        <time>2015-09-18T11:13:19Z</time>
      </trkpt>
      <trkpt lat="42.46187" lon="2.7733">
        <ele>813.5</ele>
        <time>2015-09-18T11:13:20Z</time>
      </trkpt>
      <trkpt lat="42.46187" lon="2.7733">
        <ele>813.5</ele>
        <time>2015-09-18T11:13:20Z</time>
      </trkpt>
      <trkpt lat="42.46189" lon="2.77315">
        <ele>813.8</ele>
        <time>2015-09-18T11:13:22Z</time>
      </trkpt>
      <trkpt lat="42.46189" lon="2.77307">
        <ele>813.9</ele>
        <time>2015-09-18T11:13:23Z</time>
      </trkpt>
      <trkpt lat="42.46188" lon="2.773">
        <ele>814</ele>
        <time>2015-09-18T11:13:24Z</time>
      </trkpt>
      <trkpt lat="42.46188" lon="2.77292">
        <ele>813.9</ele>
        <time>2015-09-18T11:13:25Z</time>
      </trkpt>
      <trkpt lat="42.4619" lon="2.77284">
        <ele>814</ele>
        <time>2015-09-18T11:13:26Z</time>
      </trkpt>
      <trkpt lat="42.46193" lon="2.77277">
        <ele>814.3</ele>
        <time>2015-09-18T11:13:27Z</time>
      </trkpt>
      <trkpt lat="42.46197" lon="2.77272">
        <ele>814.9</ele>
        <time>2015-09-18T11:13:28Z</time>
      </trkpt>
      <trkpt lat="42.46201" lon="2.77268">
        <ele>815.3</ele>
        <time>2015-09-18T11:13:29Z</time>
      </trkpt>
      <trkpt lat="42.46205" lon="2.77265">
        <ele>815.2</ele>
        <time>2015-09-18T11:13:30Z</time>
      </trkpt>
      <trkpt lat="42.4621" lon="2.77264">
        <ele>812.9</ele>
        <time>2015-09-18T11:13:31Z</time>
      </trkpt>
      <trkpt lat="42.46221" lon="2.77264">
        <ele>812</ele>
        <time>2015-09-18T11:13:33Z</time>
      </trkpt>
      <trkpt lat="42.46226" lon="2.77267">
        <ele>811.5</ele>
        <time>2015-09-18T11:13:34Z</time>
      </trkpt>
      <trkpt lat="42.46231" lon="2.77271">
        <ele>810.7</ele>
        <time>2015-09-18T11:13:35Z</time>
      </trkpt>
      <trkpt lat="42.46235" lon="2.77278">
        <ele>810.2</ele>
        <time>2015-09-18T11:13:36Z</time>
      </trkpt>
      <trkpt lat="42.46237" lon="2.77286">
        <ele>809.4</ele>
        <time>2015-09-18T11:13:37Z</time>
      </trkpt>
      <trkpt lat="42.46237" lon="2.77296">
        <ele>808.3</ele>
        <time>2015-09-18T11:13:38Z</time>
      </trkpt>
      <trkpt lat="42.46236" lon="2.77307">
        <ele>807.3</ele>
        <time>2015-09-18T11:13:39Z</time>
      </trkpt>
      <trkpt lat="42.46232" lon="2.77318">
        <ele>806.2</ele>
        <time>2015-09-18T11:13:40Z</time>
      </trkpt>
      <trkpt lat="42.46226" lon="2.77328">
        <ele>805.1</ele>
        <time>2015-09-18T11:13:41Z</time>
      </trkpt>
      <trkpt lat="42.46219" lon="2.77337">
        <ele>804.2</ele>
        <time>2015-09-18T11:13:42Z</time>
      </trkpt>
      <trkpt lat="42.4621" lon="2.77344">
        <ele>803.3</ele>
        <time>2015-09-18T11:13:43Z</time>
      </trkpt>
      <trkpt lat="42.46201" lon="2.77349">
        <ele>802.5</ele>
        <time>2015-09-18T11:13:44Z</time>
      </trkpt>
      <trkpt lat="42.46192" lon="2.77354">
        <ele>801.5</ele>
        <time>2015-09-18T11:13:45Z</time>
      </trkpt>
      <trkpt lat="42.46182" lon="2.77357">
        <ele>800.3</ele>
        <time>2015-09-18T11:13:46Z</time>
      </trkpt>
      <trkpt lat="42.46172" lon="2.77358">
        <ele>799.1</ele>
        <time>2015-09-18T11:13:47Z</time>
      </trkpt>
      <trkpt lat="42.46162" lon="2.77358">
        <ele>798.5</ele>
        <time>2015-09-18T11:13:48Z</time>
      </trkpt>
      <trkpt lat="42.46153" lon="2.77355">
        <ele>798.8</ele>
        <time>2015-09-18T11:13:49Z</time>
      </trkpt>
      <trkpt lat="42.46143" lon="2.77352">
        <ele>799.5</ele>
        <time>2015-09-18T11:13:50Z</time>
      </trkpt>
      <trkpt lat="42.46135" lon="2.77348">
        <ele>801</ele>
        <time>2015-09-18T11:13:51Z</time>
      </trkpt>
      <trkpt lat="42.46121" lon="2.77341">
        <ele>801.1</ele>
        <time>2015-09-18T11:13:53Z</time>
      </trkpt>
      <trkpt lat="42.46115" lon="2.77337">
        <ele>800.9</ele>
        <time>2015-09-18T11:13:54Z</time>
      </trkpt>
      <trkpt lat="42.46109" lon="2.77332">
        <ele>799.8</ele>
        <time>2015-09-18T11:13:55Z</time>
      </trkpt>
      <trkpt lat="42.46103" lon="2.77326">
        <ele>799.8</ele>
        <time>2015-09-18T11:13:56Z</time>
      </trkpt>
      <trkpt lat="42.46099" lon="2.77318">
        <ele>796.9</ele>
        <time>2015-09-18T11:13:57Z</time>
      </trkpt>
      <trkpt lat="42.46097" lon="2.7731">
        <ele>796</ele>
        <time>2015-09-18T11:13:58Z</time>
      </trkpt>
      <trkpt lat="42.46097" lon="2.77301">
        <ele>795.3</ele>
        <time>2015-09-18T11:13:59Z</time>
      </trkpt>
      <trkpt lat="42.461" lon="2.77293">
        <ele>794.7</ele>
        <time>2015-09-18T11:14:00Z</time>
      </trkpt>
      <trkpt lat="42.46105" lon="2.77287">
        <ele>794.4</ele>
        <time>2015-09-18T11:14:01Z</time>
      </trkpt>
      <trkpt lat="42.4611" lon="2.77284">
        <ele>793.9</ele>
        <time>2015-09-18T11:14:02Z</time>
      </trkpt>
      <trkpt lat="42.46116" lon="2.77284">
        <ele>793.7</ele>
        <time>2015-09-18T11:14:03Z</time>
      </trkpt>
      <trkpt lat="42.46122" lon="2.77285">
        <ele>793.7</ele>
        <time>2015-09-18T11:14:04Z</time>
      </trkpt>
      <trkpt lat="42.46129" lon="2.77287">
        <ele>793.8</ele>
        <time>2015-09-18T11:14:05Z</time>
      </trkpt>
      <trkpt lat="42.46141" lon="2.77293">
        <ele>794.2</ele>
        <time>2015-09-18T11:14:07Z</time>
      </trkpt>
      <trkpt lat="42.46147" lon="2.77296">
        <ele>794.6</ele>
        <time>2015-09-18T11:14:08Z</time>
      </trkpt>
      <trkpt lat="42.46152" lon="2.77299">
        <ele>794.7</ele>
        <time>2015-09-18T11:14:09Z</time>
      </trkpt>
      <trkpt lat="42.46157" lon="2.77302">
        <ele>794.6</ele>
        <time>2015-09-18T11:14:10Z</time>
      </trkpt>
      <trkpt lat="42.46157" lon="2.77302">
        <ele>795</ele>
        <time>2015-09-18T11:14:10Z</time>
      </trkpt>
      <trkpt lat="42.46169" lon="2.77307">
        <ele>795.1</ele>
        <time>2015-09-18T11:14:12Z</time>
      </trkpt>
      <trkpt lat="42.46175" lon="2.77309">
        <ele>794.7</ele>
        <time>2015-09-18T11:14:13Z</time>
      </trkpt>
      <trkpt lat="42.46181" lon="2.77311">
        <ele>794.4</ele>
        <time>2015-09-18T11:14:14Z</time>
      </trkpt>
      <trkpt lat="42.46186" lon="2.77313">
        <ele>794</ele>
        <time>2015-09-18T11:14:15Z</time>
      </trkpt>
      <trkpt lat="42.46192" lon="2.77315">
        <ele>793.5</ele>
        <time>2015-09-18T11:14:16Z</time>
      </trkpt>
      <trkpt lat="42.46198" lon="2.77316">
        <ele>793.2</ele>
        <time>2015-09-18T11:14:17Z</time>
      </trkpt>
      <trkpt lat="42.46203" lon="2.77317">
        <ele>793.2</ele>
        <time>2015-09-18T11:14:18Z</time>
      </trkpt>
      <trkpt lat="42.46209" lon="2.77318">
        <ele>791.9</ele>
        <time>2015-09-18T11:14:19Z</time>
      </trkpt>
      <trkpt lat="42.46215" lon="2.77319">
        <ele>790.7</ele>
        <time>2015-09-18T11:14:20Z</time>
      </trkpt>
      <trkpt lat="42.46221" lon="2.7732">
        <ele>789.3</ele>
        <time>2015-09-18T11:14:21Z</time>
      </trkpt>
      <trkpt lat="42.46228" lon="2.7732">
        <ele>789.4</ele>
        <time>2015-09-18T11:14:22Z</time>
      </trkpt>
      <trkpt lat="42.46242" lon="2.7732">
        <ele>790.9</ele>
        <time>2015-09-18T11:14:24Z</time>
      </trkpt>
      <trkpt lat="42.46249" lon="2.7732">
        <ele>792.7</ele>
        <time>2015-09-18T11:14:25Z</time>
      </trkpt>
      <trkpt lat="42.46249" lon="2.7732">
        <ele>794.4</ele>
        <time>2015-09-18T11:14:25Z</time>
      </trkpt>
      <trkpt lat="42.46261" lon="2.77318">
        <ele>796.1</ele>
        <time>2015-09-18T11:14:27Z</time>
      </trkpt>
      <trkpt lat="42.46266" lon="2.77317">
        <ele>797.5</ele>
        <time>2015-09-18T11:14:28Z</time>
      </trkpt>
      <trkpt lat="42.46271" lon="2.77316">
        <ele>798.3</ele>
        <time>2015-09-18T11:14:29Z</time>
      </trkpt>
      <trkpt lat="42.46275" lon="2.77315">
        <ele>798.8</ele>
        <time>2015-09-18T11:14:30Z</time>
      </trkpt>
      <trkpt lat="42.4628" lon="2.77314">
        <ele>799.2</ele>
        <time>2015-09-18T11:14:31Z</time>
      </trkpt>
      <trkpt lat="42.46284" lon="2.77314">
        <ele>799.8</ele>
        <time>2015-09-18T11:14:32Z</time>
      </trkpt>
      <trkpt lat="42.46288" lon="2.77313">
        <ele>800.5</ele>
        <time>2015-09-18T11:14:33Z</time>
      </trkpt>
      <trkpt lat="42.46292" lon="2.77313">
        <ele>801.8</ele>
        <time>2015-09-18T11:14:34Z</time>
      </trkpt>
      <trkpt lat="42.46295" lon="2.77313">
        <ele>803.5</ele>
        <time>2015-09-18T11:14:35Z</time>
      </trkpt>
      <trkpt lat="42.46298" lon="2.77314">
        <ele>805.2</ele>
        <time>2015-09-18T11:14:36Z</time>
      </trkpt>
      <trkpt lat="42.46302" lon="2.77315">
        <ele>806.7</ele>
        <time>2015-09-18T11:14:37Z</time>
      </trkpt>
      <trkpt lat="42.46305" lon="2.77315">
        <ele>808.1</ele>
        <time>2015-09-18T11:14:38Z</time>
      </trkpt>
      <trkpt lat="42.46309" lon="2.77314">
        <ele>809.1</ele>
        <time>2015-09-18T11:14:39Z</time>
      </trkpt>
      <trkpt lat="42.46312" lon="2.77314">
        <ele>809</ele>
        <time>2015-09-18T11:14:40Z</time>
      </trkpt>
      <trkpt lat="42.46318" lon="2.77319">
        <ele>805</ele>
        <time>2015-09-18T11:14:42Z</time>
      </trkpt>
      <trkpt lat="42.46319" lon="2.77324">
        <ele>802.8</ele>
        <time>2015-09-18T11:14:43Z</time>
      </trkpt>
      <trkpt lat="42.4632" lon="2.7733">
        <ele>800.3</ele>
        <time>2015-09-18T11:14:44Z</time>
      </trkpt>
      <trkpt lat="42.46318" lon="2.77338">
        <ele>797.4</ele>
        <time>2015-09-18T11:14:45Z</time>
      </trkpt>
      <trkpt lat="42.46314" lon="2.77347">
        <ele>795</ele>
        <time>2015-09-18T11:14:46Z</time>
      </trkpt>
      <trkpt lat="42.4631" lon="2.77356">
        <ele>793</ele>
        <time>2015-09-18T11:14:47Z</time>
      </trkpt>
      <trkpt lat="42.46303" lon="2.77365">
        <ele>791.2</ele>
        <time>2015-09-18T11:14:48Z</time>
      </trkpt>
      <trkpt lat="42.46296" lon="2.77374">
        <ele>789.8</ele>
        <time>2015-09-18T11:14:49Z</time>
      </trkpt>
      <trkpt lat="42.46288" lon="2.77381">
        <ele>788.7</ele>
        <time>2015-09-18T11:14:50Z</time>
      </trkpt>
      <trkpt lat="42.4628" lon="2.77386">
        <ele>787.8</ele>
        <time>2015-09-18T11:14:51Z</time>
      </trkpt>
      <trkpt lat="42.46271" lon="2.7739">
        <ele>786.4</ele>
        <time>2015-09-18T11:14:52Z</time>
      </trkpt>
      <trkpt lat="42.46262" lon="2.77392">
        <ele>784.5</ele>
        <time>2015-09-18T11:14:53Z</time>
      </trkpt>
      <trkpt lat="42.46252" lon="2.77393">
        <ele>782.3</ele>
        <time>2015-09-18T11:14:54Z</time>
      </trkpt>
      <trkpt lat="42.46241" lon="2.77392">
        <ele>779.1</ele>
        <time>2015-09-18T11:14:55Z</time>
      </trkpt>
      <trkpt lat="42.4623" lon="2.77389">
        <ele>778.1</ele>
        <time>2015-09-18T11:14:56Z</time>
      </trkpt>
      <trkpt lat="42.4623" lon="2.77389">
        <ele>777.8</ele>
        <time>2015-09-18T11:14:56Z</time>
      </trkpt>
      <trkpt lat="42.462" lon="2.7737">
        <ele>776.2</ele>
        <time>2015-09-18T11:14:59Z</time>
      </trkpt>
      <trkpt lat="42.4619" lon="2.7736">
        <ele>774.9</ele>
        <time>2015-09-18T11:15:00Z</time>
      </trkpt>
      <trkpt lat="42.4619" lon="2.7736">
        <ele>773.8</ele>
        <time>2015-09-18T11:15:00Z</time>
      </trkpt>
      <trkpt lat="42.46173" lon="2.77336">
        <ele>773.2</ele>
        <time>2015-09-18T11:15:02Z</time>
      </trkpt>
      <trkpt lat="42.46168" lon="2.77323">
        <ele>772.7</ele>
        <time>2015-09-18T11:15:03Z</time>
      </trkpt>
      <trkpt lat="42.46166" lon="2.7731">
        <ele>771.9</ele>
        <time>2015-09-18T11:15:04Z</time>
      </trkpt>
      <trkpt lat="42.46168" lon="2.77297">
        <ele>771.6</ele>
        <time>2015-09-18T11:15:05Z</time>
      </trkpt>
      <trkpt lat="42.46171" lon="2.77286">
        <ele>771.8</ele>
        <time>2015-09-18T11:15:06Z</time>
      </trkpt>
      <trkpt lat="42.46176" lon="2.77276">
        <ele>773.4</ele>
        <time>2015-09-18T11:15:07Z</time>
      </trkpt>
      <trkpt lat="42.46181" lon="2.77266">
        <ele>773.4</ele>
        <time>2015-09-18T11:15:08Z</time>
      </trkpt>
      <trkpt lat="42.46185" lon="2.77257">
        <ele>775.7</ele>
        <time>2015-09-18T11:15:09Z</time>
      </trkpt>
      <trkpt lat="42.46189" lon="2.77248">
        <ele>776.8</ele>
        <time>2015-09-18T11:15:10Z</time>
      </trkpt>
      <trkpt lat="42.46195" lon="2.77239">
        <ele>777.6</ele>
        <time>2015-09-18T11:15:11Z</time>
      </trkpt>
      <trkpt lat="42.46201" lon="2.77233">
        <ele>778.4</ele>
        <time>2015-09-18T11:15:12Z</time>
      </trkpt>
      <trkpt lat="42.46208" lon="2.77229">
        <ele>779.3</ele>
        <time>2015-09-18T11:15:13Z</time>
      </trkpt>
      <trkpt lat="42.46213" lon="2.77226">
        <ele>781.1</ele>
        <time>2015-09-18T11:15:14Z</time>
      </trkpt>
      <trkpt lat="42.46217" lon="2.77224">
        <ele>781.1</ele>
        <time>2015-09-18T11:15:15Z</time>
      </trkpt>
      <trkpt lat="42.46223" lon="2.77225">
        <ele>779.7</ele>
        <time>2015-09-18T11:15:17Z</time>
      </trkpt>
      <trkpt lat="42.46225" lon="2.7723">
        <ele>777.7</ele>
        <time>2015-09-18T11:15:18Z</time>
      </trkpt>
      <trkpt lat="42.46226" lon="2.77238">
        <ele>775.7</ele>
        <time>2015-09-18T11:15:19Z</time>
      </trkpt>
      <trkpt lat="42.46226" lon="2.77246">
        <ele>775</ele>
        <time>2015-09-18T11:15:20Z</time>
      </trkpt>
      <trkpt lat="42.46226" lon="2.77246">
        <ele>774.4</ele>
        <time>2015-09-18T11:15:20Z</time>
      </trkpt>
      <trkpt lat="42.46221" lon="2.77261">
        <ele>773.4</ele>
        <time>2015-09-18T11:15:22Z</time>
      </trkpt>
      <trkpt lat="42.46216" lon="2.77269">
        <ele>772.7</ele>
        <time>2015-09-18T11:15:23Z</time>
      </trkpt>
      <trkpt lat="42.4621" lon="2.77277">
        <ele>772.7</ele>
        <time>2015-09-18T11:15:24Z</time>
      </trkpt>
      <trkpt lat="42.46203" lon="2.77284">
        <ele>771.9</ele>
        <time>2015-09-18T11:15:25Z</time>
      </trkpt>
      <trkpt lat="42.46194" lon="2.77289">
        <ele>771.6</ele>
        <time>2015-09-18T11:15:26Z</time>
      </trkpt>
      <trkpt lat="42.46184" lon="2.77293">
        <ele>771.2</ele>
        <time>2015-09-18T11:15:27Z</time>
      </trkpt>
      <trkpt lat="42.46173" lon="2.77294">
        <ele>770.7</ele>
        <time>2015-09-18T11:15:28Z</time>
      </trkpt>
      <trkpt lat="42.46162" lon="2.77292">
        <ele>770.6</ele>
        <time>2015-09-18T11:15:29Z</time>
      </trkpt>
      <trkpt lat="42.46151" lon="2.77287">
        <ele>769.9</ele>
        <time>2015-09-18T11:15:30Z</time>
      </trkpt>
      <trkpt lat="42.4614" lon="2.7728">
        <ele>769.5</ele>
        <time>2015-09-18T11:15:31Z</time>
      </trkpt>
      <trkpt lat="42.46131" lon="2.77271">
        <ele>768.4</ele>
        <time>2015-09-18T11:15:32Z</time>
      </trkpt>
      <trkpt lat="42.46124" lon="2.7726">
        <ele>767.2</ele>
        <time>2015-09-18T11:15:33Z</time>
      </trkpt>
      <trkpt lat="42.46118" lon="2.77247">
        <ele>767.1</ele>
        <time>2015-09-18T11:15:34Z</time>
      </trkpt>
      <trkpt lat="42.46114" lon="2.77233">
        <ele>767.4</ele>
        <time>2015-09-18T11:15:35Z</time>
      </trkpt>
      <trkpt lat="42.46114" lon="2.7721">
        <ele>767.7</ele>
        <time>2015-09-18T11:15:37Z</time>
      </trkpt>
      <trkpt lat="42.46116" lon="2.77201">
        <ele>767.7</ele>
        <time>2015-09-18T11:15:38Z</time>
      </trkpt>
      <trkpt lat="42.46119" lon="2.77192">
        <ele>767.5</ele>
        <time>2015-09-18T11:15:39Z</time>
      </trkpt>
      <trkpt lat="42.46121" lon="2.77183">
        <ele>767.5</ele>
        <time>2015-09-18T11:15:40Z</time>
      </trkpt>
      <trkpt lat="42.46125" lon="2.77175">
        <ele>767.5</ele>
        <time>2015-09-18T11:15:41Z</time>
      </trkpt>
      <trkpt lat="42.4613" lon="2.7717">
        <ele>767.5</ele>
        <time>2015-09-18T11:15:42Z</time>
      </trkpt>
      <trkpt lat="42.46136" lon="2.77166">
        <ele>767.6</ele>
        <time>2015-09-18T11:15:43Z</time>
      </trkpt>
      <trkpt lat="42.46142" lon="2.77164">
        <ele>768</ele>
        <time>2015-09-18T11:15:44Z</time>
      </trkpt>
      <trkpt lat="42.46148" lon="2.77162">
        <ele>768.4</ele>
        <time>2015-09-18T11:15:45Z</time>
      </trkpt>
      <trkpt lat="42.46153" lon="2.77158">
        <ele>768.2</ele>
        <time>2015-09-18T11:15:46Z</time>
      </trkpt>
      <trkpt lat="42.46158" lon="2.77155">
        <ele>767.7</ele>
        <time>2015-09-18T11:15:47Z</time>
      </trkpt>
      <trkpt lat="42.46164" lon="2.77152">
        <ele>766.4</ele>
        <time>2015-09-18T11:15:48Z</time>
      </trkpt>
      <trkpt lat="42.46171" lon="2.77149">
        <ele>764.4</ele>
        <time>2015-09-18T11:15:49Z</time>
      </trkpt>
      <trkpt lat="42.46178" lon="2.77148">
        <ele>762.7</ele>
        <time>2015-09-18T11:15:50Z</time>
      </trkpt>
      <trkpt lat="42.46185" lon="2.7715">
        <ele>761.2</ele>
        <time>2015-09-18T11:15:51Z</time>
      </trkpt>
      <trkpt lat="42.46193" lon="2.77153">
        <ele>761</ele>
        <time>2015-09-18T11:15:52Z</time>
      </trkpt>
      <trkpt lat="42.46199" lon="2.77155">
        <ele>761.5</ele>
        <time>2015-09-18T11:15:53Z</time>
      </trkpt>
      <trkpt lat="42.46204" lon="2.77158">
        <ele>762.6</ele>
        <time>2015-09-18T11:15:54Z</time>
      </trkpt>
      <trkpt lat="42.46209" lon="2.77159">
        <ele>762.6</ele>
        <time>2015-09-18T11:15:55Z</time>
      </trkpt>
      <trkpt lat="42.46214" lon="2.7716">
        <ele>760.5</ele>
        <time>2015-09-18T11:15:56Z</time>
      </trkpt>
      <trkpt lat="42.46225" lon="2.77166">
        <ele>759.9</ele>
        <time>2015-09-18T11:15:58Z</time>
      </trkpt>
      <trkpt lat="42.4623" lon="2.77171">
        <ele>759.8</ele>
        <time>2015-09-18T11:15:59Z</time>
      </trkpt>
      <trkpt lat="42.46235" lon="2.77177">
        <ele>759.7</ele>
        <time>2015-09-18T11:16:00Z</time>
      </trkpt>
      <trkpt lat="42.46235" lon="2.77177">
        <ele>760.1</ele>
        <time>2015-09-18T11:16:00Z</time>
      </trkpt>
      <trkpt lat="42.46243" lon="2.77188">
        <ele>759.4</ele>
        <time>2015-09-18T11:16:02Z</time>
      </trkpt>
      <trkpt lat="42.46248" lon="2.77194">
        <ele>759.2</ele>
        <time>2015-09-18T11:16:03Z</time>
      </trkpt>
      <trkpt lat="42.46253" lon="2.77201">
        <ele>759.2</ele>
        <time>2015-09-18T11:16:04Z</time>
      </trkpt>
      <trkpt lat="42.46257" lon="2.77209">
        <ele>761.9</ele>
        <time>2015-09-18T11:16:05Z</time>
      </trkpt>
      <trkpt lat="42.46261" lon="2.77216">
        <ele>763.7</ele>
        <time>2015-09-18T11:16:06Z</time>
      </trkpt>
      <trkpt lat="42.46265" lon="2.77222">
        <ele>765.2</ele>
        <time>2015-09-18T11:16:07Z</time>
      </trkpt>
      <trkpt lat="42.46269" lon="2.77227">
        <ele>766</ele>
        <time>2015-09-18T11:16:08Z</time>
      </trkpt>
      <trkpt lat="42.46274" lon="2.77232">
        <ele>767.1</ele>
        <time>2015-09-18T11:16:09Z</time>
      </trkpt>
      <trkpt lat="42.4628" lon="2.77235">
        <ele>767.1</ele>
        <time>2015-09-18T11:16:10Z</time>
      </trkpt>
      <trkpt lat="42.46289" lon="2.7724">
        <ele>776.1</ele>
        <time>2015-09-18T11:16:12Z</time>
      </trkpt>
      <trkpt lat="42.46291" lon="2.77243">
        <ele>778.9</ele>
        <time>2015-09-18T11:16:13Z</time>
      </trkpt>
      <trkpt lat="42.46294" lon="2.77248">
        <ele>780.3</ele>
        <time>2015-09-18T11:16:14Z</time>
      </trkpt>
      <trkpt lat="42.46295" lon="2.77255">
        <ele>781.6</ele>
        <time>2015-09-18T11:16:15Z</time>
      </trkpt>
      <trkpt lat="42.46296" lon="2.77264">
        <ele>781.5</ele>
        <time>2015-09-18T11:16:16Z</time>
      </trkpt>
      <trkpt lat="42.46295" lon="2.77276">
        <ele>782.5</ele>
        <time>2015-09-18T11:16:17Z</time>
      </trkpt>
      <trkpt lat="42.46292" lon="2.77287">
        <ele>784.3</ele>
        <time>2015-09-18T11:16:18Z</time>
      </trkpt>
      <trkpt lat="42.46287" lon="2.77297">
        <ele>786.2</ele>
        <time>2015-09-18T11:16:19Z</time>
      </trkpt>
      <trkpt lat="42.4628" lon="2.77305">
        <ele>788.1</ele>
        <time>2015-09-18T11:16:20Z</time>
      </trkpt>
      <trkpt lat="42.46274" lon="2.77312">
        <ele>789.1</ele>
        <time>2015-09-18T11:16:21Z</time>
      </trkpt>
      <trkpt lat="42.46267" lon="2.77319">
        <ele>789.5</ele>
        <time>2015-09-18T11:16:22Z</time>
      </trkpt>
      <trkpt lat="42.46261" lon="2.77323">
        <ele>789.5</ele>
        <time>2015-09-18T11:16:23Z</time>
      </trkpt>
      <trkpt lat="42.46255" lon="2.77322">
        <ele>789.9</ele>
        <time>2015-09-18T11:16:24Z</time>
      </trkpt>
      <trkpt lat="42.46247" lon="2.77311">
        <ele>790.5</ele>
        <time>2015-09-18T11:16:25Z</time>
      </trkpt>
      <trkpt lat="42.46242" lon="2.77302">
        <ele>792.1</ele>
        <time>2015-09-18T11:16:26Z</time>
      </trkpt>
      <trkpt lat="42.46238" lon="2.77292">
        <ele>795.8</ele>
        <time>2015-09-18T11:16:27Z</time>
      </trkpt>
      <trkpt lat="42.46232" lon="2.77272">
        <ele>797.8</ele>
        <time>2015-09-18T11:16:29Z</time>
      </trkpt>
      <trkpt lat="42.4623" lon="2.77262">
        <ele>799.5</ele>
        <time>2015-09-18T11:16:30Z</time>
      </trkpt>
      <trkpt lat="42.4623" lon="2.77262">
        <ele>799.5</ele>
        <time>2015-09-18T11:16:30Z</time>
      </trkpt>
      <trkpt lat="42.46232" lon="2.77245">
        <ele>800.4</ele>
        <time>2015-09-18T11:16:32Z</time>
      </trkpt>
      <trkpt lat="42.46237" lon="2.77243">
        <ele>800.9</ele>
        <time>2015-09-18T11:16:33Z</time>
      </trkpt>
      <trkpt lat="42.46243" lon="2.77247">
        <ele>801.7</ele>
        <time>2015-09-18T11:16:34Z</time>
      </trkpt>
      <trkpt lat="42.46245" lon="2.77251">
        <ele>805</ele>
        <time>2015-09-18T11:16:35Z</time>
      </trkpt>
      <trkpt lat="42.46246" lon="2.77254">
        <ele>807.2</ele>
        <time>2015-09-18T11:16:36Z</time>
      </trkpt>
      <trkpt lat="42.46247" lon="2.77256">
        <ele>808.7</ele>
        <time>2015-09-18T11:16:37Z</time>
      </trkpt>
      <trkpt lat="42.4625" lon="2.77257">
        <ele>808.1</ele>
        <time>2015-09-18T11:16:38Z</time>
      </trkpt>
      <trkpt lat="42.46253" lon="2.7726">
        <ele>807.6</ele>
        <time>2015-09-18T11:16:39Z</time>
      </trkpt>
      <trkpt lat="42.46256" lon="2.77262">
        <ele>808.1</ele>
        <time>2015-09-18T11:16:40Z</time>
      </trkpt>
      <trkpt lat="42.4626" lon="2.77265">
        <ele>809.1</ele>
        <time>2015-09-18T11:16:41Z</time>
      </trkpt>
      <trkpt lat="42.46263" lon="2.77269">
        <ele>810.4</ele>
        <time>2015-09-18T11:16:42Z</time>
      </trkpt>
      <trkpt lat="42.46264" lon="2.77274">
        <ele>811.6</ele>
        <time>2015-09-18T11:16:43Z</time>
      </trkpt>
      <trkpt lat="42.46265" lon="2.7728">
        <ele>812.4</ele>
        <time>2015-09-18T11:16:44Z</time>
      </trkpt>
      <trkpt lat="42.46264" lon="2.77288">
        <ele>812.8</ele>
        <time>2015-09-18T11:16:45Z</time>
      </trkpt>
      <trkpt lat="42.4626" lon="2.77297">
        <ele>813.1</ele>
        <time>2015-09-18T11:16:46Z</time>
      </trkpt>
      <trkpt lat="42.46255" lon="2.77306">
        <ele>813.1</ele>
        <time>2015-09-18T11:16:47Z</time>
      </trkpt>
      <trkpt lat="42.46238" lon="2.77321">
        <ele>814.1</ele>
        <time>2015-09-18T11:16:49Z</time>
      </trkpt>
      <trkpt lat="42.46228" lon="2.77324">
        <ele>814.5</ele>
        <time>2015-09-18T11:16:50Z</time>
      </trkpt>
      <trkpt lat="42.46216" lon="2.77324">
        <ele>814.6</ele>
        <time>2015-09-18T11:16:51Z</time>
      </trkpt>
      <trkpt lat="42.46206" lon="2.77322">
        <ele>815.8</ele>
        <time>2015-09-18T11:16:52Z</time>
      </trkpt>
      <trkpt lat="42.46196" lon="2.77317">
        <ele>817.3</ele>
        <time>2015-09-18T11:16:53Z</time>
      </trkpt>
      <trkpt lat="42.46187" lon="2.77309">
        <ele>819.1</ele>
        <time>2015-09-18T11:16:54Z</time>
      </trkpt>
      <trkpt lat="42.46178" lon="2.77302">
        <ele>821.3</ele>
        <time>2015-09-18T11:16:55Z</time>
      </trkpt>
      <trkpt lat="42.46171" lon="2.77294">
        <ele>823.2</ele>
        <time>2015-09-18T11:16:56Z</time>
      </trkpt>
      <trkpt lat="42.46165" lon="2.77286">
        <ele>824.9</ele>
        <time>2015-09-18T11:16:57Z</time>
      </trkpt>
      <trkpt lat="42.46162" lon="2.77278">
        <ele>825.7</ele>
        <time>2015-09-18T11:16:58Z</time>
      </trkpt>
      <trkpt lat="42.46161" lon="2.7727">
        <ele>830.4</ele>
        <time>2015-09-18T11:16:59Z</time>
      </trkpt>
      <trkpt lat="42.46161" lon="2.7727">
        <ele>832.6</ele>
        <time>2015-09-18T11:16:59Z</time>
      </trkpt>
      <trkpt lat="42.46159" lon="2.77248">
        <ele>833.7</ele>
        <time>2015-09-18T11:17:02Z</time>
      </trkpt>
      <trkpt lat="42.46158" lon="2.77239">
        <ele>835</ele>
        <time>2015-09-18T11:17:03Z</time>
      </trkpt>
      <trkpt lat="42.46158" lon="2.7723">
        <ele>835.8</ele>
        <time>2015-09-18T11:17:04Z</time>
      </trkpt>
      <trkpt lat="42.46161" lon="2.77222">
        <ele>836.6</ele>
        <time>2015-09-18T11:17:05Z</time>
      </trkpt>
      <trkpt lat="42.46165" lon="2.77217">
        <ele>837.7</ele>
        <time>2015-09-18T11:17:06Z</time>
      </trkpt>
      <trkpt lat="42.46169" lon="2.77213">
        <ele>839.4</ele>
        <time>2015-09-18T11:17:07Z</time>
      </trkpt>
      <trkpt lat="42.46173" lon="2.77212">
        <ele>841</ele>
        <time>2015-09-18T11:17:08Z</time>
      </trkpt>
      <trkpt lat="42.46176" lon="2.77212">
        <ele>842.1</ele>
        <time>2015-09-18T11:17:09Z</time>
      </trkpt>
      <trkpt lat="42.46178" lon="2.77215">
        <ele>842.6</ele>
        <time>2015-09-18T11:17:10Z</time>
      </trkpt>
      <trkpt lat="42.4618" lon="2.77221">
        <ele>843.1</ele>
        <time>2015-09-18T11:17:11Z</time>
      </trkpt>
      <trkpt lat="42.4618" lon="2.77229">
        <ele>843.9</ele>
        <time>2015-09-18T11:17:12Z</time>
      </trkpt>
      <trkpt lat="42.46179" lon="2.77238">
        <ele>845.1</ele>
        <time>2015-09-18T11:17:13Z</time>
      </trkpt>
      <trkpt lat="42.46174" lon="2.77247">
        <ele>846.1</ele>
        <time>2015-09-18T11:17:14Z</time>
      </trkpt>
      <trkpt lat="42.46167" lon="2.77254">
        <ele>846.8</ele>
        <time>2015-09-18T11:17:15Z</time>
      </trkpt>
      <trkpt lat="42.46157" lon="2.7726">
        <ele>847.4</ele>
        <time>2015-09-18T11:17:16Z</time>
      </trkpt>
      <trkpt lat="42.46146" lon="2.77263">
        <ele>848.5</ele>
        <time>2015-09-18T11:17:17Z</time>
      </trkpt>
      <trkpt lat="42.46133" lon="2.77261">
        <ele>849.4</ele>
        <time>2015-09-18T11:17:18Z</time>
      </trkpt>
      <trkpt lat="42.46122" lon="2.77254">
        <ele>851.3</ele>
        <time>2015-09-18T11:17:19Z</time>
      </trkpt>
      <trkpt lat="42.46114" lon="2.77244">
        <ele>852.4</ele>
        <time>2015-09-18T11:17:20Z</time>
      </trkpt>
      <trkpt lat="42.46105" lon="2.77222">
        <ele>853.4</ele>
        <time>2015-09-18T11:17:22Z</time>
      </trkpt>
      <trkpt lat="42.46103" lon="2.77211">
        <ele>853.4</ele>
        <time>2015-09-18T11:17:23Z</time>
      </trkpt>
      <trkpt lat="42.46103" lon="2.77202">
        <ele>854.9</ele>
        <time>2015-09-18T11:17:24Z</time>
      </trkpt>
      <trkpt lat="42.46104" lon="2.77193">
        <ele>855.8</ele>
        <time>2015-09-18T11:17:25Z</time>
      </trkpt>
      <trkpt lat="42.46107" lon="2.77186">
        <ele>856.8</ele>
        <time>2015-09-18T11:17:26Z</time>
      </trkpt>
      <trkpt lat="42.4611" lon="2.7718">
        <ele>858.4</ele>
        <time>2015-09-18T11:17:27Z</time>
      </trkpt>
      <trkpt lat="42.46114" lon="2.77177">
        <ele>860</ele>
        <time>2015-09-18T11:17:28Z</time>
      </trkpt>
      <trkpt lat="42.46118" lon="2.77175">
        <ele>861.1</ele>
        <time>2015-09-18T11:17:29Z</time>
      </trkpt>
      <trkpt lat="42.46121" lon="2.77174">
        <ele>862.1</ele>
        <time>2015-09-18T11:17:30Z</time>
      </trkpt>
      <trkpt lat="42.46124" lon="2.77175">
        <ele>862.6</ele>
        <time>2015-09-18T11:17:31Z</time>
      </trkpt>
      <trkpt lat="42.46127" lon="2.77179">
        <ele>862.8</ele>
        <time>2015-09-18T11:17:32Z</time>
      </trkpt>
      <trkpt lat="42.46129" lon="2.77185">
        <ele>862.9</ele>
        <time>2015-09-18T11:17:33Z</time>
      </trkpt>
      <trkpt lat="42.46129" lon="2.77193">
        <ele>863.3</ele>
        <time>2015-09-18T11:17:34Z</time>
      </trkpt>
      <trkpt lat="42.46127" lon="2.77203">
        <ele>864.1</ele>
        <time>2015-09-18T11:17:35Z</time>
      </trkpt>
      <trkpt lat="42.46121" lon="2.77212">
        <ele>864.6</ele>
        <time>2015-09-18T11:17:36Z</time>
      </trkpt>
      <trkpt lat="42.46112" lon="2.7722">
        <ele>864.6</ele>
        <time>2015-09-18T11:17:37Z</time>
      </trkpt>
      <trkpt lat="42.46101" lon="2.77226">
        <ele>864.7</ele>
        <time>2015-09-18T11:17:38Z</time>
      </trkpt>
      <trkpt lat="42.46088" lon="2.77227">
        <ele>863.1</ele>
        <time>2015-09-18T11:17:39Z</time>
      </trkpt>
      <trkpt lat="42.46075" lon="2.77224">
        <ele>863.1</ele>
        <time>2015-09-18T11:17:40Z</time>
      </trkpt>
      <trkpt lat="42.46054" lon="2.77207">
        <ele>864.3</ele>
        <time>2015-09-18T11:17:42Z</time>
      </trkpt>
      <trkpt lat="42.46047" lon="2.77196">
        <ele>865</ele>
        <time>2015-09-18T11:17:43Z</time>
      </trkpt>
      <trkpt lat="42.46042" lon="2.77186">
        <ele>865.7</ele>
        <time>2015-09-18T11:17:44Z</time>
      </trkpt>
      <trkpt lat="42.46038" lon="2.77174">
        <ele>866.7</ele>
        <time>2015-09-18T11:17:45Z</time>
      </trkpt>
      <trkpt lat="42.46036" lon="2.77163">
        <ele>867.3</ele>
        <time>2015-09-18T11:17:46Z</time>
      </trkpt>
      <trkpt lat="42.46037" lon="2.77153">
        <ele>867.9</ele>
        <time>2015-09-18T11:17:47Z</time>
      </trkpt>
      <trkpt lat="42.46039" lon="2.77143">
        <ele>868.3</ele>
        <time>2015-09-18T11:17:48Z</time>
      </trkpt>
      <trkpt lat="42.46042" lon="2.77136">
        <ele>869.3</ele>
        <time>2015-09-18T11:17:49Z</time>
      </trkpt>
      <trkpt lat="42.46046" lon="2.7713">
        <ele>870.2</ele>
        <time>2015-09-18T11:17:50Z</time>
      </trkpt>
      <trkpt lat="42.46049" lon="2.77127">
        <ele>871.6</ele>
        <time>2015-09-18T11:17:51Z</time>
      </trkpt>
      <trkpt lat="42.46053" lon="2.77125">
        <ele>871.4</ele>
        <time>2015-09-18T11:17:52Z</time>
      </trkpt>
      <trkpt lat="42.46053" lon="2.77125">
        <ele>870.9</ele>
        <time>2015-09-18T11:17:52Z</time>
      </trkpt>
      <trkpt lat="42.46059" lon="2.77129">
        <ele>870.5</ele>
        <time>2015-09-18T11:17:54Z</time>
      </trkpt>
      <trkpt lat="42.46061" lon="2.77137">
        <ele>870.9</ele>
        <time>2015-09-18T11:17:55Z</time>
      </trkpt>
      <trkpt lat="42.46057" lon="2.7716">
        <ele>872.5</ele>
        <time>2015-09-18T11:17:57Z</time>
      </trkpt>
      <trkpt lat="42.4605" lon="2.7717">
        <ele>874.2</ele>
        <time>2015-09-18T11:17:58Z</time>
      </trkpt>
      <trkpt lat="42.46042" lon="2.77178">
        <ele>875.4</ele>
        <time>2015-09-18T11:17:59Z</time>
      </trkpt>
      <trkpt lat="42.46033" lon="2.77184">
        <ele>876.1</ele>
        <time>2015-09-18T11:18:00Z</time>
      </trkpt>
      <trkpt lat="42.46023" lon="2.77188">
        <ele>875</ele>
        <time>2015-09-18T11:18:01Z</time>
      </trkpt>
      <trkpt lat="42.46012" lon="2.77186">
        <ele>874</ele>
        <time>2015-09-18T11:18:02Z</time>
      </trkpt>
      <trkpt lat="42.46002" lon="2.77182">
        <ele>873.6</ele>
        <time>2015-09-18T11:18:03Z</time>
      </trkpt>
      <trkpt lat="42.45992" lon="2.77175">
        <ele>874.3</ele>
        <time>2015-09-18T11:18:04Z</time>
      </trkpt>
      <trkpt lat="42.45985" lon="2.77165">
        <ele>874.8</ele>
        <time>2015-09-18T11:18:05Z</time>
      </trkpt>
      <trkpt lat="42.4598" lon="2.77156">
        <ele>875.1</ele>
        <time>2015-09-18T11:18:06Z</time>
      </trkpt>
      <trkpt lat="42.45976" lon="2.77147">
        <ele>874.7</ele>
        <time>2015-09-18T11:18:07Z</time>
      </trkpt>
      <trkpt lat="42.45972" lon="2.77137">
        <ele>874.2</ele>
        <time>2015-09-18T11:18:08Z</time>
      </trkpt>
      <trkpt lat="42.45968" lon="2.77125">
        <ele>874.6</ele>
        <time>2015-09-18T11:18:09Z</time>
      </trkpt>
      <trkpt lat="42.45965" lon="2.77112">
        <ele>874.6</ele>
        <time>2015-09-18T11:18:10Z</time>
      </trkpt>
      <trkpt lat="42.45961" lon="2.7709">
        <ele>875.6</ele>
        <time>2015-09-18T11:18:12Z</time>
      </trkpt>
      <trkpt lat="42.45961" lon="2.7708">
        <ele>875.8</ele>
        <time>2015-09-18T11:18:13Z</time>
      </trkpt>
      <trkpt lat="42.45962" lon="2.7707">
        <ele>876.3</ele>
        <time>2015-09-18T11:18:14Z</time>
      </trkpt>
      <trkpt lat="42.45964" lon="2.7706">
        <ele>877.2</ele>
        <time>2015-09-18T11:18:15Z</time>
      </trkpt>
      <trkpt lat="42.45966" lon="2.77051">
        <ele>878.1</ele>
        <time>2015-09-18T11:18:16Z</time>
      </trkpt>
      <trkpt lat="42.45967" lon="2.77044">
        <ele>878.3</ele>
        <time>2015-09-18T11:18:17Z</time>
      </trkpt>
      <trkpt lat="42.45969" lon="2.77037">
        <ele>878.1</ele>
        <time>2015-09-18T11:18:18Z</time>
      </trkpt>
      <trkpt lat="42.45971" lon="2.77031">
        <ele>878.1</ele>
        <time>2015-09-18T11:18:19Z</time>
      </trkpt>
      <trkpt lat="42.45975" lon="2.77025">
        <ele>876.9</ele>
        <time>2015-09-18T11:18:20Z</time>
      </trkpt>
      <trkpt lat="42.45979" lon="2.77022">
        <ele>876.8</ele>
        <time>2015-09-18T11:18:21Z</time>
      </trkpt>
      <trkpt lat="42.45984" lon="2.77021">
        <ele>876.8</ele>
        <time>2015-09-18T11:18:22Z</time>
      </trkpt>
      <trkpt lat="42.45989" lon="2.77021">
        <ele>877.2</ele>
        <time>2015-09-18T11:18:23Z</time>
      </trkpt>
      <trkpt lat="42.45993" lon="2.77021">
        <ele>877.5</ele>
        <time>2015-09-18T11:18:24Z</time>
      </trkpt>
      <trkpt lat="42.45997" lon="2.77022">
        <ele>877.7</ele>
        <time>2015-09-18T11:18:25Z</time>
      </trkpt>
      <trkpt lat="42.46002" lon="2.77022">
        <ele>877.9</ele>
        <time>2015-09-18T11:18:26Z</time>
      </trkpt>
      <trkpt lat="42.46007" lon="2.77022">
        <ele>878.7</ele>
        <time>2015-09-18T11:18:27Z</time>
      </trkpt>
      <trkpt lat="42.46011" lon="2.77023">
        <ele>878.7</ele>
        <time>2015-09-18T11:18:28Z</time>
      </trkpt>
      <trkpt lat="42.46019" lon="2.77025">
        <ele>879.2</ele>
        <time>2015-09-18T11:18:30Z</time>
      </trkpt>
      <trkpt lat="42.46019" lon="2.77025">
        <ele>878.8</ele>
        <time>2015-09-18T11:18:30Z</time>
      </trkpt>
      <trkpt lat="42.46027" lon="2.77029">
        <ele>878.2</ele>
        <time>2015-09-18T11:18:32Z</time>
      </trkpt>
      <trkpt lat="42.46032" lon="2.77031">
        <ele>877.8</ele>
        <time>2015-09-18T11:18:33Z</time>
      </trkpt>
      <trkpt lat="42.46036" lon="2.77033">
        <ele>877.8</ele>
        <time>2015-09-18T11:18:34Z</time>
      </trkpt>
      <trkpt lat="42.4604" lon="2.77036">
        <ele>878</ele>
        <time>2015-09-18T11:18:35Z</time>
      </trkpt>
      <trkpt lat="42.46044" lon="2.77038">
        <ele>878</ele>
        <time>2015-09-18T11:18:36Z</time>
      </trkpt>
      <trkpt lat="42.46048" lon="2.77039">
        <ele>877.8</ele>
        <time>2015-09-18T11:18:37Z</time>
      </trkpt>
      <trkpt lat="42.46051" lon="2.77041">
        <ele>876.8</ele>
        <time>2015-09-18T11:18:38Z</time>
      </trkpt>
      <trkpt lat="42.46055" lon="2.77043">
        <ele>876.8</ele>
        <time>2015-09-18T11:18:39Z</time>
      </trkpt>
      <trkpt lat="42.46058" lon="2.77048">
        <ele>874.2</ele>
        <time>2015-09-18T11:18:40Z</time>
      </trkpt>
      <trkpt lat="42.46061" lon="2.77054">
        <ele>873.2</ele>
        <time>2015-09-18T11:18:41Z</time>
      </trkpt>
      <trkpt lat="42.46064" lon="2.77062">
        <ele>872.6</ele>
        <time>2015-09-18T11:18:42Z</time>
      </trkpt>
      <trkpt lat="42.46065" lon="2.77068">
        <ele>870.9</ele>
        <time>2015-09-18T11:18:43Z</time>
      </trkpt>
      <trkpt lat="42.46068" lon="2.77074">
        <ele>869.8</ele>
        <time>2015-09-18T11:18:44Z</time>
      </trkpt>
      <trkpt lat="42.4607" lon="2.77079">
        <ele>868.8</ele>
        <time>2015-09-18T11:18:45Z</time>
      </trkpt>
      <trkpt lat="42.46077" lon="2.77091">
        <ele>868.1</ele>
        <time>2015-09-18T11:18:47Z</time>
      </trkpt>
      <trkpt lat="42.4608" lon="2.77098">
        <ele>867.9</ele>
        <time>2015-09-18T11:18:48Z</time>
      </trkpt>
      <trkpt lat="42.46083" lon="2.77105">
        <ele>867.9</ele>
        <time>2015-09-18T11:18:49Z</time>
      </trkpt>
      <trkpt lat="42.46085" lon="2.77113">
        <ele>867.7</ele>
        <time>2015-09-18T11:18:50Z</time>
      </trkpt>
      <trkpt lat="42.46085" lon="2.77113">
        <ele>867.3</ele>
        <time>2015-09-18T11:18:50Z</time>
      </trkpt>
      <trkpt lat="42.4609" lon="2.77127">
        <ele>867</ele>
        <time>2015-09-18T11:18:52Z</time>
      </trkpt>
      <trkpt lat="42.46092" lon="2.77135">
        <ele>866.6</ele>
        <time>2015-09-18T11:18:53Z</time>
      </trkpt>
      <trkpt lat="42.46094" lon="2.77142">
        <ele>866.3</ele>
        <time>2015-09-18T11:18:54Z</time>
      </trkpt>
      <trkpt lat="42.46095" lon="2.7715">
        <ele>865.6</ele>
        <time>2015-09-18T11:18:55Z</time>
      </trkpt>
      <trkpt lat="42.46095" lon="2.77158">
        <ele>864.7</ele>
        <time>2015-09-18T11:18:56Z</time>
      </trkpt>
      <trkpt lat="42.46095" lon="2.77168">
        <ele>864.1</ele>
        <time>2015-09-18T11:18:57Z</time>
      </trkpt>
      <trkpt lat="42.46096" lon="2.77178">
        <ele>864</ele>
        <time>2015-09-18T11:18:58Z</time>
      </trkpt>
      <trkpt lat="42.46097" lon="2.77187">
        <ele>864</ele>
        <time>2015-09-18T11:18:59Z</time>
      </trkpt>
      <trkpt lat="42.46098" lon="2.77195">
        <ele>863.5</ele>
        <time>2015-09-18T11:19:00Z</time>
      </trkpt>
      <trkpt lat="42.46099" lon="2.77203">
        <ele>862.5</ele>
        <time>2015-09-18T11:19:01Z</time>
      </trkpt>
      <trkpt lat="42.46101" lon="2.77212">
        <ele>860.9</ele>
        <time>2015-09-18T11:19:02Z</time>
      </trkpt>
      <trkpt lat="42.46102" lon="2.77221">
        <ele>859.8</ele>
        <time>2015-09-18T11:19:03Z</time>
      </trkpt>
      <trkpt lat="42.46105" lon="2.77229">
        <ele>858.5</ele>
        <time>2015-09-18T11:19:04Z</time>
      </trkpt>
      <trkpt lat="42.46108" lon="2.77236">
        <ele>858.3</ele>
        <time>2015-09-18T11:19:05Z</time>
      </trkpt>
      <trkpt lat="42.46115" lon="2.77244">
        <ele>857.8</ele>
        <time>2015-09-18T11:19:07Z</time>
      </trkpt>
      <trkpt lat="42.46119" lon="2.77246">
        <ele>856.7</ele>
        <time>2015-09-18T11:19:08Z</time>
      </trkpt>
      <trkpt lat="42.46122" lon="2.7725">
        <ele>855.2</ele>
        <time>2015-09-18T11:19:09Z</time>
      </trkpt>
      <trkpt lat="42.46126" lon="2.77254">
        <ele>853</ele>
        <time>2015-09-18T11:19:10Z</time>
      </trkpt>
      <trkpt lat="42.46131" lon="2.77259">
        <ele>850.5</ele>
        <time>2015-09-18T11:19:11Z</time>
      </trkpt>
      <trkpt lat="42.46137" lon="2.77264">
        <ele>847.9</ele>
        <time>2015-09-18T11:19:12Z</time>
      </trkpt>
      <trkpt lat="42.46143" lon="2.77268">
        <ele>845.8</ele>
        <time>2015-09-18T11:19:13Z</time>
      </trkpt>
      <trkpt lat="42.46149" lon="2.77271">
        <ele>844.7</ele>
        <time>2015-09-18T11:19:14Z</time>
      </trkpt>
      <trkpt lat="42.46155" lon="2.77275">
        <ele>842.8</ele>
        <time>2015-09-18T11:19:15Z</time>
      </trkpt>
      <trkpt lat="42.4616" lon="2.77279">
        <ele>840.8</ele>
        <time>2015-09-18T11:19:16Z</time>
      </trkpt>
      <trkpt lat="42.46166" lon="2.77283">
        <ele>838.7</ele>
        <time>2015-09-18T11:19:17Z</time>
      </trkpt>
      <trkpt lat="42.46171" lon="2.77288">
        <ele>836.7</ele>
        <time>2015-09-18T11:19:18Z</time>
      </trkpt>
      <trkpt lat="42.46177" lon="2.77293">
        <ele>835.3</ele>
        <time>2015-09-18T11:19:19Z</time>
      </trkpt>
      <trkpt lat="42.46183" lon="2.77296">
        <ele>834.1</ele>
        <time>2015-09-18T11:19:20Z</time>
      </trkpt>
      <trkpt lat="42.46189" lon="2.773">
        <ele>832.7</ele>
        <time>2015-09-18T11:19:21Z</time>
      </trkpt>
      <trkpt lat="42.46195" lon="2.77304">
        <ele>831.6</ele>
        <time>2015-09-18T11:19:22Z</time>
      </trkpt>
      <trkpt lat="42.46201" lon="2.77309">
        <ele>830.6</ele>
        <time>2015-09-18T11:19:23Z</time>
      </trkpt>
      <trkpt lat="42.46207" lon="2.77313">
        <ele>830</ele>
        <time>2015-09-18T11:19:24Z</time>
      </trkpt>
      <trkpt lat="42.46207" lon="2.77313">
        <ele>829.1</ele>
        <time>2015-09-18T11:19:24Z</time>
      </trkpt>
      <trkpt lat="42.46227" lon="2.77317">
        <ele>828.6</ele>
        <time>2015-09-18T11:19:27Z</time>
      </trkpt>
      <trkpt lat="42.46233" lon="2.77319">
        <ele>828.2</ele>
        <time>2015-09-18T11:19:28Z</time>
      </trkpt>
      <trkpt lat="42.46239" lon="2.77322">
        <ele>828</ele>
        <time>2015-09-18T11:19:29Z</time>
      </trkpt>
      <trkpt lat="42.46246" lon="2.77325">
        <ele>827.9</ele>
        <time>2015-09-18T11:19:30Z</time>
      </trkpt>
      <trkpt lat="42.46252" lon="2.77327">
        <ele>827.8</ele>
        <time>2015-09-18T11:19:31Z</time>
      </trkpt>
      <trkpt lat="42.46259" lon="2.77328">
        <ele>827.7</ele>
        <time>2015-09-18T11:19:32Z</time>
      </trkpt>
      <trkpt lat="42.46265" lon="2.77328">
        <ele>827.5</ele>
        <time>2015-09-18T11:19:33Z</time>
      </trkpt>
      <trkpt lat="42.46272" lon="2.77329">
        <ele>827.3</ele>
        <time>2015-09-18T11:19:34Z</time>
      </trkpt>
      <trkpt lat="42.46278" lon="2.77331">
        <ele>826.7</ele>
        <time>2015-09-18T11:19:35Z</time>
      </trkpt>
      <trkpt lat="42.46285" lon="2.77332">
        <ele>825.9</ele>
        <time>2015-09-18T11:19:36Z</time>
      </trkpt>
      <trkpt lat="42.46285" lon="2.77332">
        <ele>824.9</ele>
        <time>2015-09-18T11:19:36Z</time>
      </trkpt>
      <trkpt lat="42.46305" lon="2.77337">
        <ele>823</ele>
        <time>2015-09-18T11:19:39Z</time>
      </trkpt>
      <trkpt lat="42.46312" lon="2.7734">
        <ele>822.1</ele>
        <time>2015-09-18T11:19:40Z</time>
      </trkpt>
      <trkpt lat="42.46312" lon="2.7734">
        <ele>821.6</ele>
        <time>2015-09-18T11:19:40Z</time>
      </trkpt>
      <trkpt lat="42.46326" lon="2.77349">
        <ele>821.7</ele>
        <time>2015-09-18T11:19:42Z</time>
      </trkpt>
      <trkpt lat="42.46334" lon="2.77353">
        <ele>822.3</ele>
        <time>2015-09-18T11:19:43Z</time>
      </trkpt>
      <trkpt lat="42.4634" lon="2.77357">
        <ele>823.9</ele>
        <time>2015-09-18T11:19:44Z</time>
      </trkpt>
      <trkpt lat="42.46346" lon="2.77359">
        <ele>825.9</ele>
        <time>2015-09-18T11:19:45Z</time>
      </trkpt>
      <trkpt lat="42.46351" lon="2.77362">
        <ele>827.7</ele>
        <time>2015-09-18T11:19:46Z</time>
      </trkpt>
      <trkpt lat="42.46355" lon="2.77365">
        <ele>829.1</ele>
        <time>2015-09-18T11:19:47Z</time>
      </trkpt>
      <trkpt lat="42.4636" lon="2.77369">
        <ele>830</ele>
        <time>2015-09-18T11:19:48Z</time>
      </trkpt>
      <trkpt lat="42.46364" lon="2.77373">
        <ele>830.7</ele>
        <time>2015-09-18T11:19:49Z</time>
      </trkpt>
      <trkpt lat="42.46368" lon="2.77377">
        <ele>831.7</ele>
        <time>2015-09-18T11:19:50Z</time>
      </trkpt>
      <trkpt lat="42.46373" lon="2.77382">
        <ele>832.7</ele>
        <time>2015-09-18T11:19:51Z</time>
      </trkpt>
      <trkpt lat="42.46377" lon="2.77387">
        <ele>834.2</ele>
        <time>2015-09-18T11:19:52Z</time>
      </trkpt>
      <trkpt lat="42.46381" lon="2.77396">
        <ele>836.7</ele>
        <time>2015-09-18T11:19:54Z</time>
      </trkpt>
      <trkpt lat="42.46382" lon="2.77403">
        <ele>837.1</ele>
        <time>2015-09-18T11:19:55Z</time>
      </trkpt>
      <trkpt lat="42.46382" lon="2.77403">
        <ele>837.6</ele>
        <time>2015-09-18T11:19:55Z</time>
      </trkpt>
      <trkpt lat="42.46379" lon="2.7742">
        <ele>838.4</ele>
        <time>2015-09-18T11:19:57Z</time>
      </trkpt>
      <trkpt lat="42.46374" lon="2.77429">
        <ele>838.5</ele>
        <time>2015-09-18T11:19:58Z</time>
      </trkpt>
      <trkpt lat="42.46374" lon="2.77429">
        <ele>838.6</ele>
        <time>2015-09-18T11:19:58Z</time>
      </trkpt>
      <trkpt lat="42.46358" lon="2.77441">
        <ele>838.6</ele>
        <time>2015-09-18T11:20:00Z</time>
      </trkpt>
      <trkpt lat="42.46348" lon="2.77443">
        <ele>838.3</ele>
        <time>2015-09-18T11:20:01Z</time>
      </trkpt>
      <trkpt lat="42.46338" lon="2.77441">
        <ele>837.8</ele>
        <time>2015-09-18T11:20:02Z</time>
      </trkpt>
      <trkpt lat="42.46328" lon="2.77436">
        <ele>836.2</ele>
        <time>2015-09-18T11:20:03Z</time>
      </trkpt>
      <trkpt lat="42.46319" lon="2.77427">
        <ele>836.2</ele>
        <time>2015-09-18T11:20:04Z</time>
      </trkpt>
      <trkpt lat="42.46311" lon="2.77417">
        <ele>837.1</ele>
        <time>2015-09-18T11:20:05Z</time>
      </trkpt>
      <trkpt lat="42.46305" lon="2.77405">
        <ele>838.4</ele>
        <time>2015-09-18T11:20:06Z</time>
      </trkpt>
      <trkpt lat="42.46301" lon="2.77393">
        <ele>839.8</ele>
        <time>2015-09-18T11:20:07Z</time>
      </trkpt>
      <trkpt lat="42.46298" lon="2.77382">
        <ele>840.6</ele>
        <time>2015-09-18T11:20:08Z</time>
      </trkpt>
      <trkpt lat="42.46297" lon="2.7737">
        <ele>841.4</ele>
        <time>2015-09-18T11:20:09Z</time>
      </trkpt>
      <trkpt lat="42.46297" lon="2.77358">
        <ele>842.7</ele>
        <time>2015-09-18T11:20:10Z</time>
      </trkpt>
      <trkpt lat="42.46297" lon="2.77348">
        <ele>845.4</ele>
        <time>2015-09-18T11:20:11Z</time>
      </trkpt>
      <trkpt lat="42.46298" lon="2.77338">
        <ele>846.1</ele>
        <time>2015-09-18T11:20:12Z</time>
      </trkpt>
      <trkpt lat="42.46302" lon="2.77319">
        <ele>846.7</ele>
        <time>2015-09-18T11:20:14Z</time>
      </trkpt>
      <trkpt lat="42.46305" lon="2.77312">
        <ele>847.3</ele>
        <time>2015-09-18T11:20:15Z</time>
      </trkpt>
      <trkpt lat="42.46305" lon="2.77312">
        <ele>847.3</ele>
        <time>2015-09-18T11:20:15Z</time>
      </trkpt>
      <trkpt lat="42.46314" lon="2.77302">
        <ele>847.9</ele>
        <time>2015-09-18T11:20:17Z</time>
      </trkpt>
      <trkpt lat="42.46318" lon="2.77298">
        <ele>848.3</ele>
        <time>2015-09-18T11:20:18Z</time>
      </trkpt>
      <trkpt lat="42.46323" lon="2.77297">
        <ele>848.9</ele>
        <time>2015-09-18T11:20:19Z</time>
      </trkpt>
      <trkpt lat="42.46328" lon="2.77297">
        <ele>849.3</ele>
        <time>2015-09-18T11:20:20Z</time>
      </trkpt>
      <trkpt lat="42.46333" lon="2.77298">
        <ele>849.6</ele>
        <time>2015-09-18T11:20:21Z</time>
      </trkpt>
      <trkpt lat="42.46339" lon="2.773">
        <ele>850.3</ele>
        <time>2015-09-18T11:20:22Z</time>
      </trkpt>
      <trkpt lat="42.46344" lon="2.77303">
        <ele>851.3</ele>
        <time>2015-09-18T11:20:23Z</time>
      </trkpt>
      <trkpt lat="42.46349" lon="2.77307">
        <ele>852.2</ele>
        <time>2015-09-18T11:20:24Z</time>
      </trkpt>
      <trkpt lat="42.46353" lon="2.77311">
        <ele>853.7</ele>
        <time>2015-09-18T11:20:25Z</time>
      </trkpt>
      <trkpt lat="42.46358" lon="2.77324">
        <ele>854.6</ele>
        <time>2015-09-18T11:20:27Z</time>
      </trkpt>
      <trkpt lat="42.46359" lon="2.77332">
        <ele>855.8</ele>
        <time>2015-09-18T11:20:28Z</time>
      </trkpt>
      <trkpt lat="42.4636" lon="2.7734">
        <ele>857.3</ele>
        <time>2015-09-18T11:20:29Z</time>
      </trkpt>
      <trkpt lat="42.46361" lon="2.77347">
        <ele>858.7</ele>
        <time>2015-09-18T11:20:30Z</time>
      </trkpt>
      <trkpt lat="42.4636" lon="2.77354">
        <ele>859.6</ele>
        <time>2015-09-18T11:20:31Z</time>
      </trkpt>
      <trkpt lat="42.46358" lon="2.77362">
        <ele>859.7</ele>
        <time>2015-09-18T11:20:32Z</time>
      </trkpt>
      <trkpt lat="42.46355" lon="2.77371">
        <ele>859.6</ele>
        <time>2015-09-18T11:20:33Z</time>
      </trkpt>
      <trkpt lat="42.46349" lon="2.77381">
        <ele>859.7</ele>
        <time>2015-09-18T11:20:34Z</time>
      </trkpt>
      <trkpt lat="42.46341" lon="2.77388">
        <ele>860.1</ele>
        <time>2015-09-18T11:20:35Z</time>
      </trkpt>
      <trkpt lat="42.46331" lon="2.77394">
        <ele>860.3</ele>
        <time>2015-09-18T11:20:36Z</time>
      </trkpt>
      <trkpt lat="42.46322" lon="2.77397">
        <ele>860.8</ele>
        <time>2015-09-18T11:20:37Z</time>
      </trkpt>
      <trkpt lat="42.46312" lon="2.77398">
        <ele>861.3</ele>
        <time>2015-09-18T11:20:38Z</time>
      </trkpt>
      <trkpt lat="42.46301" lon="2.77396">
        <ele>860.5</ele>
        <time>2015-09-18T11:20:39Z</time>
      </trkpt>
      <trkpt lat="42.46291" lon="2.77392">
        <ele>860</ele>
        <time>2015-09-18T11:20:40Z</time>
      </trkpt>
      <trkpt lat="42.46282" lon="2.77386">
        <ele>859.2</ele>
        <time>2015-09-18T11:20:41Z</time>
      </trkpt>
      <trkpt lat="42.46274" lon="2.77376">
        <ele>860.9</ele>
        <time>2015-09-18T11:20:42Z</time>
      </trkpt>
      <trkpt lat="42.46263" lon="2.77355">
        <ele>862.8</ele>
        <time>2015-09-18T11:20:44Z</time>
      </trkpt>
      <trkpt lat="42.4626" lon="2.77345">
        <ele>863.9</ele>
        <time>2015-09-18T11:20:45Z</time>
      </trkpt>
      <trkpt lat="42.4626" lon="2.77345">
        <ele>864.9</ele>
        <time>2015-09-18T11:20:45Z</time>
      </trkpt>
      <trkpt lat="42.46254" lon="2.77326">
        <ele>865.5</ele>
        <time>2015-09-18T11:20:47Z</time>
      </trkpt>
      <trkpt lat="42.46251" lon="2.77316">
        <ele>865.6</ele>
        <time>2015-09-18T11:20:48Z</time>
      </trkpt>
      <trkpt lat="42.46249" lon="2.77306">
        <ele>865.6</ele>
        <time>2015-09-18T11:20:49Z</time>
      </trkpt>
      <trkpt lat="42.46248" lon="2.77295">
        <ele>865.9</ele>
        <time>2015-09-18T11:20:50Z</time>
      </trkpt>
      <trkpt lat="42.46249" lon="2.77284">
        <ele>865.9</ele>
        <time>2015-09-18T11:20:51Z</time>
      </trkpt>
      <trkpt lat="42.4625" lon="2.77275">
        <ele>867.7</ele>
        <time>2015-09-18T11:20:52Z</time>
      </trkpt>
      <trkpt lat="42.4625" lon="2.77265">
        <ele>869</ele>
        <time>2015-09-18T11:20:53Z</time>
      </trkpt>
      <trkpt lat="42.46251" lon="2.77256">
        <ele>869.9</ele>
        <time>2015-09-18T11:20:54Z</time>
      </trkpt>
      <trkpt lat="42.46252" lon="2.77248">
        <ele>870.4</ele>
        <time>2015-09-18T11:20:55Z</time>
      </trkpt>
      <trkpt lat="42.46255" lon="2.7724">
        <ele>870.6</ele>
        <time>2015-09-18T11:20:56Z</time>
      </trkpt>
      <trkpt lat="42.46258" lon="2.77235">
        <ele>870.7</ele>
        <time>2015-09-18T11:20:57Z</time>
      </trkpt>
      <trkpt lat="42.46263" lon="2.77231">
        <ele>870.7</ele>
        <time>2015-09-18T11:20:58Z</time>
      </trkpt>
      <trkpt lat="42.46269" lon="2.77229">
        <ele>871.3</ele>
        <time>2015-09-18T11:20:59Z</time>
      </trkpt>
      <trkpt lat="42.46274" lon="2.77228">
        <ele>873.2</ele>
        <time>2015-09-18T11:21:00Z</time>
      </trkpt>
      <trkpt lat="42.46285" lon="2.77229">
        <ele>873.9</ele>
        <time>2015-09-18T11:21:02Z</time>
      </trkpt>
      <trkpt lat="42.46289" lon="2.77231">
        <ele>873.9</ele>
        <time>2015-09-18T11:21:03Z</time>
      </trkpt>
      <trkpt lat="42.46294" lon="2.77236">
        <ele>874.4</ele>
        <time>2015-09-18T11:21:04Z</time>
      </trkpt>
      <trkpt lat="42.46297" lon="2.77241">
        <ele>874.3</ele>
        <time>2015-09-18T11:21:05Z</time>
      </trkpt>
      <trkpt lat="42.46299" lon="2.77248">
        <ele>874</ele>
        <time>2015-09-18T11:21:06Z</time>
      </trkpt>
      <trkpt lat="42.463" lon="2.77257">
        <ele>873.7</ele>
        <time>2015-09-18T11:21:07Z</time>
      </trkpt>
      <trkpt lat="42.463" lon="2.77267">
        <ele>873.9</ele>
        <time>2015-09-18T11:21:08Z</time>
      </trkpt>
      <trkpt lat="42.46299" lon="2.77277">
        <ele>875</ele>
        <time>2015-09-18T11:21:09Z</time>
      </trkpt>
      <trkpt lat="42.46298" lon="2.77286">
        <ele>876.2</ele>
        <time>2015-09-18T11:21:10Z</time>
      </trkpt>
      <trkpt lat="42.46297" lon="2.77294">
        <ele>876.2</ele>
        <time>2015-09-18T11:21:11Z</time>
      </trkpt>
      <trkpt lat="42.46297" lon="2.77303">
        <ele>878.6</ele>
        <time>2015-09-18T11:21:12Z</time>
      </trkpt>
      <trkpt lat="42.46296" lon="2.77311">
        <ele>880.6</ele>
        <time>2015-09-18T11:21:13Z</time>
      </trkpt>
      <trkpt lat="42.46293" lon="2.77327">
        <ele>880.3</ele>
        <time>2015-09-18T11:21:15Z</time>
      </trkpt>
      <trkpt lat="42.46293" lon="2.77327">
        <ele>880.3</ele>
        <time>2015-09-18T11:21:15Z</time>
      </trkpt>
      <trkpt lat="42.46283" lon="2.77342">
        <ele>879.7</ele>
        <time>2015-09-18T11:21:17Z</time>
      </trkpt>
      <trkpt lat="42.46274" lon="2.77349">
        <ele>879.7</ele>
        <time>2015-09-18T11:21:18Z</time>
      </trkpt>
      <trkpt lat="42.46264" lon="2.77352">
        <ele>879.7</ele>
        <time>2015-09-18T11:21:19Z</time>
      </trkpt>
      <trkpt lat="42.46252" lon="2.77351">
        <ele>879.7</ele>
        <time>2015-09-18T11:21:20Z</time>
      </trkpt>
      <trkpt lat="42.4624" lon="2.77346">
        <ele>879.7</ele>
        <time>2015-09-18T11:21:21Z</time>
      </trkpt>
      <trkpt lat="42.4623" lon="2.77337">
        <ele>880</ele>
        <time>2015-09-18T11:21:22Z</time>
      </trkpt>
      <trkpt lat="42.46223" lon="2.77325">
        <ele>880.6</ele>
        <time>2015-09-18T11:21:23Z</time>
      </trkpt>
      <trkpt lat="42.46219" lon="2.77312">
        <ele>881.4</ele>
        <time>2015-09-18T11:21:24Z</time>
      </trkpt>
      <trkpt lat="42.46217" lon="2.77301">
        <ele>882.3</ele>
        <time>2015-09-18T11:21:25Z</time>
      </trkpt>
      <trkpt lat="42.46215" lon="2.77291">
        <ele>882.8</ele>
        <time>2015-09-18T11:21:26Z</time>
      </trkpt>
      <trkpt lat="42.46216" lon="2.77282">
        <ele>883.1</ele>
        <time>2015-09-18T11:21:27Z</time>
      </trkpt>
      <trkpt lat="42.46217" lon="2.77273">
        <ele>883.5</ele>
        <time>2015-09-18T11:21:28Z</time>
      </trkpt>
      <trkpt lat="42.46219" lon="2.77264">
        <ele>884.4</ele>
        <time>2015-09-18T11:21:29Z</time>
      </trkpt>
      <trkpt lat="42.46222" lon="2.77256">
        <ele>885.6</ele>
        <time>2015-09-18T11:21:30Z</time>
      </trkpt>
      <trkpt lat="42.46224" lon="2.77249">
        <ele>886.4</ele>
        <time>2015-09-18T11:21:31Z</time>
      </trkpt>
      <trkpt lat="42.46225" lon="2.77242">
        <ele>885.4</ele>
        <time>2015-09-18T11:21:32Z</time>
      </trkpt>
      <trkpt lat="42.46229" lon="2.7723">
        <ele>883.8</ele>
        <time>2015-09-18T11:21:34Z</time>
      </trkpt>
      <trkpt lat="42.46233" lon="2.77225">
        <ele>882.9</ele>
        <time>2015-09-18T11:21:35Z</time>
      </trkpt>
      <trkpt lat="42.46233" lon="2.77225">
        <ele>882.6</ele>
        <time>2015-09-18T11:21:35Z</time>
      </trkpt>
      <trkpt lat="42.46244" lon="2.77217">
        <ele>882.6</ele>
        <time>2015-09-18T11:21:37Z</time>
      </trkpt>
      <trkpt lat="42.4625" lon="2.77215">
        <ele>882.4</ele>
        <time>2015-09-18T11:21:38Z</time>
      </trkpt>
      <trkpt lat="42.46256" lon="2.77214">
        <ele>882.5</ele>
        <time>2015-09-18T11:21:39Z</time>
      </trkpt>
      <trkpt lat="42.46261" lon="2.77213">
        <ele>883</ele>
        <time>2015-09-18T11:21:40Z</time>
      </trkpt>
      <trkpt lat="42.46267" lon="2.77214">
        <ele>883.9</ele>
        <time>2015-09-18T11:21:41Z</time>
      </trkpt>
      <trkpt lat="42.46271" lon="2.77215">
        <ele>884.5</ele>
        <time>2015-09-18T11:21:42Z</time>
      </trkpt>
      <trkpt lat="42.46276" lon="2.77216">
        <ele>884.7</ele>
        <time>2015-09-18T11:21:43Z</time>
      </trkpt>
      <trkpt lat="42.4628" lon="2.77218">
        <ele>884.7</ele>
        <time>2015-09-18T11:21:44Z</time>
      </trkpt>
      <trkpt lat="42.46285" lon="2.7722">
        <ele>884.8</ele>
        <time>2015-09-18T11:21:45Z</time>
      </trkpt>
      <trkpt lat="42.46289" lon="2.77222">
        <ele>885.3</ele>
        <time>2015-09-18T11:21:46Z</time>
      </trkpt>
      <trkpt lat="42.46297" lon="2.77227">
        <ele>885.9</ele>
        <time>2015-09-18T11:21:48Z</time>
      </trkpt>
      <trkpt lat="42.46301" lon="2.77231">
        <ele>886.2</ele>
        <time>2015-09-18T11:21:49Z</time>
      </trkpt>
      <trkpt lat="42.46304" lon="2.77235">
        <ele>886.4</ele>
        <time>2015-09-18T11:21:50Z</time>
      </trkpt>
      <trkpt lat="42.46307" lon="2.7724">
        <ele>886.3</ele>
        <time>2015-09-18T11:21:51Z</time>
      </trkpt>
      <trkpt lat="42.46309" lon="2.77245">
        <ele>886</ele>
        <time>2015-09-18T11:21:52Z</time>
      </trkpt>
      <trkpt lat="42.46311" lon="2.77251">
        <ele>885.6</ele>
        <time>2015-09-18T11:21:53Z</time>
      </trkpt>
      <trkpt lat="42.46313" lon="2.77258">
        <ele>885.3</ele>
        <time>2015-09-18T11:21:54Z</time>
      </trkpt>
      <trkpt lat="42.46315" lon="2.77265">
        <ele>885</ele>
        <time>2015-09-18T11:21:55Z</time>
      </trkpt>
      <trkpt lat="42.46315" lon="2.77273">
        <ele>884.4</ele>
        <time>2015-09-18T11:21:56Z</time>
      </trkpt>
      <trkpt lat="42.46313" lon="2.77282">
        <ele>883.8</ele>
        <time>2015-09-18T11:21:57Z</time>
      </trkpt>
      <trkpt lat="42.46309" lon="2.77292">
        <ele>883.7</ele>
        <time>2015-09-18T11:21:58Z</time>
      </trkpt>
      <trkpt lat="42.46304" lon="2.77301">
        <ele>884</ele>
        <time>2015-09-18T11:21:59Z</time>
      </trkpt>
      <trkpt lat="42.46297" lon="2.77309">
        <ele>884.7</ele>
        <time>2015-09-18T11:22:00Z</time>
      </trkpt>
      <trkpt lat="42.46291" lon="2.77317">
        <ele>884.6</ele>
        <time>2015-09-18T11:22:01Z</time>
      </trkpt>
      <trkpt lat="42.46278" lon="2.77332">
        <ele>882.9</ele>
        <time>2015-09-18T11:22:03Z</time>
      </trkpt>
      <trkpt lat="42.46271" lon="2.7734">
        <ele>882.1</ele>
        <time>2015-09-18T11:22:04Z</time>
      </trkpt>
      <trkpt lat="42.46263" lon="2.77347">
        <ele>881.5</ele>
        <time>2015-09-18T11:22:05Z</time>
      </trkpt>
      <trkpt lat="42.46263" lon="2.77347">
        <ele>881.4</ele>
        <time>2015-09-18T11:22:05Z</time>
      </trkpt>
      <trkpt lat="42.46242" lon="2.77357">
        <ele>881.5</ele>
        <time>2015-09-18T11:22:07Z</time>
      </trkpt>
      <trkpt lat="42.4623" lon="2.7736">
        <ele>881.5</ele>
        <time>2015-09-18T11:22:08Z</time>
      </trkpt>
      <trkpt lat="42.46219" lon="2.77361">
        <ele>881.2</ele>
        <time>2015-09-18T11:22:09Z</time>
      </trkpt>
      <trkpt lat="42.46207" lon="2.77361">
        <ele>880.8</ele>
        <time>2015-09-18T11:22:10Z</time>
      </trkpt>
      <trkpt lat="42.46196" lon="2.77359">
        <ele>880.3</ele>
        <time>2015-09-18T11:22:11Z</time>
      </trkpt>
      <trkpt lat="42.46183" lon="2.77356">
        <ele>880.3</ele>
        <time>2015-09-18T11:22:12Z</time>
      </trkpt>
      <trkpt lat="42.4617" lon="2.77351">
        <ele>881.9</ele>
        <time>2015-09-18T11:22:13Z</time>
      </trkpt>
      <trkpt lat="42.46158" lon="2.77346">
        <ele>883.2</ele>
        <time>2015-09-18T11:22:14Z</time>
      </trkpt>
      <trkpt lat="42.46147" lon="2.77341">
        <ele>884.3</ele>
        <time>2015-09-18T11:22:15Z</time>
      </trkpt>
      <trkpt lat="42.46137" lon="2.77337">
        <ele>885</ele>
        <time>2015-09-18T11:22:16Z</time>
      </trkpt>
      <trkpt lat="42.46127" lon="2.77332">
        <ele>885.2</ele>
        <time>2015-09-18T11:22:17Z</time>
      </trkpt>
      <trkpt lat="42.46117" lon="2.77327">
        <ele>885</ele>
        <time>2015-09-18T11:22:18Z</time>
      </trkpt>
      <trkpt lat="42.46107" lon="2.7732">
        <ele>884.6</ele>
        <time>2015-09-18T11:22:19Z</time>
      </trkpt>
      <trkpt lat="42.46098" lon="2.77311">
        <ele>883.2</ele>
        <time>2015-09-18T11:22:20Z</time>
      </trkpt>
      <trkpt lat="42.46091" lon="2.773">
        <ele>882.7</ele>
        <time>2015-09-18T11:22:21Z</time>
      </trkpt>
      <trkpt lat="42.46087" lon="2.77287">
        <ele>881.4</ele>
        <time>2015-09-18T11:22:22Z</time>
      </trkpt>
      <trkpt lat="42.46086" lon="2.77263">
        <ele>881.5</ele>
        <time>2015-09-18T11:22:24Z</time>
      </trkpt>
      <trkpt lat="42.46087" lon="2.77253">
        <ele>881.5</ele>
        <time>2015-09-18T11:22:25Z</time>
      </trkpt>
      <trkpt lat="42.46087" lon="2.77243">
        <ele>880.6</ele>
        <time>2015-09-18T11:22:26Z</time>
      </trkpt>
      <trkpt lat="42.46089" lon="2.77234">
        <ele>879.6</ele>
        <time>2015-09-18T11:22:27Z</time>
      </trkpt>
      <trkpt lat="42.46092" lon="2.77225">
        <ele>878.5</ele>
        <time>2015-09-18T11:22:28Z</time>
      </trkpt>
      <trkpt lat="42.46095" lon="2.77219">
        <ele>877.9</ele>
        <time>2015-09-18T11:22:29Z</time>
      </trkpt>
      <trkpt lat="42.461" lon="2.77214">
        <ele>877.6</ele>
        <time>2015-09-18T11:22:30Z</time>
      </trkpt>
      <trkpt lat="42.46104" lon="2.7721">
        <ele>877.4</ele>
        <time>2015-09-18T11:22:31Z</time>
      </trkpt>
      <trkpt lat="42.46108" lon="2.77207">
        <ele>877.2</ele>
        <time>2015-09-18T11:22:32Z</time>
      </trkpt>
      <trkpt lat="42.46112" lon="2.77205">
        <ele>876.5</ele>
        <time>2015-09-18T11:22:33Z</time>
      </trkpt>
      <trkpt lat="42.46117" lon="2.77204">
        <ele>874.5</ele>
        <time>2015-09-18T11:22:34Z</time>
      </trkpt>
      <trkpt lat="42.46121" lon="2.77205">
        <ele>873.9</ele>
        <time>2015-09-18T11:22:35Z</time>
      </trkpt>
      <trkpt lat="42.46129" lon="2.77211">
        <ele>874.2</ele>
        <time>2015-09-18T11:22:37Z</time>
      </trkpt>
      <trkpt lat="42.46132" lon="2.77214">
        <ele>874.7</ele>
        <time>2015-09-18T11:22:38Z</time>
      </trkpt>
      <trkpt lat="42.46135" lon="2.77217">
        <ele>874.9</ele>
        <time>2015-09-18T11:22:39Z</time>
      </trkpt>
      <trkpt lat="42.46137" lon="2.77219">
        <ele>875.1</ele>
        <time>2015-09-18T11:22:40Z</time>
      </trkpt>
      <trkpt lat="42.46139" lon="2.77223">
        <ele>875</ele>
        <time>2015-09-18T11:22:41Z</time>
      </trkpt>
      <trkpt lat="42.46141" lon="2.77227">
        <ele>875</ele>
        <time>2015-09-18T11:22:42Z</time>
      </trkpt>
      <trkpt lat="42.46143" lon="2.77232">
        <ele>875.3</ele>
        <time>2015-09-18T11:22:43Z</time>
      </trkpt>
      <trkpt lat="42.46145" lon="2.77236">
        <ele>875.5</ele>
        <time>2015-09-18T11:22:44Z</time>
      </trkpt>
      <trkpt lat="42.46148" lon="2.77238">
        <ele>875.4</ele>
        <time>2015-09-18T11:22:45Z</time>
      </trkpt>
      <trkpt lat="42.46152" lon="2.77238">
        <ele>875.3</ele>
        <time>2015-09-18T11:22:46Z</time>
      </trkpt>
      <trkpt lat="42.46155" lon="2.77238">
        <ele>875.2</ele>
        <time>2015-09-18T11:22:47Z</time>
      </trkpt>
      <trkpt lat="42.46158" lon="2.77239">
        <ele>874.7</ele>
        <time>2015-09-18T11:22:48Z</time>
      </trkpt>
      <trkpt lat="42.46161" lon="2.77241">
        <ele>873.7</ele>
        <time>2015-09-18T11:22:49Z</time>
      </trkpt>
      <trkpt lat="42.46164" lon="2.77244">
        <ele>872.4</ele>
        <time>2015-09-18T11:22:50Z</time>
      </trkpt>
      <trkpt lat="42.46167" lon="2.77247">
        <ele>871.2</ele>
        <time>2015-09-18T11:22:51Z</time>
      </trkpt>
      <trkpt lat="42.4617" lon="2.7725">
        <ele>869.9</ele>
        <time>2015-09-18T11:22:52Z</time>
      </trkpt>
      <trkpt lat="42.46172" lon="2.77253">
        <ele>867.9</ele>
        <time>2015-09-18T11:22:53Z</time>
      </trkpt>
      <trkpt lat="42.46174" lon="2.77263">
        <ele>867</ele>
        <time>2015-09-18T11:22:55Z</time>
      </trkpt>
      <trkpt lat="42.46174" lon="2.77263">
        <ele>866.3</ele>
        <time>2015-09-18T11:22:55Z</time>
      </trkpt>
      <trkpt lat="42.46177" lon="2.77275">
        <ele>865.9</ele>
        <time>2015-09-18T11:22:57Z</time>
      </trkpt>
      <trkpt lat="42.4618" lon="2.77279">
        <ele>866.3</ele>
        <time>2015-09-18T11:22:58Z</time>
      </trkpt>
      <trkpt lat="42.46183" lon="2.77281">
        <ele>866.9</ele>
        <time>2015-09-18T11:22:59Z</time>
      </trkpt>
      <trkpt lat="42.46186" lon="2.77283">
        <ele>867.7</ele>
        <time>2015-09-18T11:23:00Z</time>
      </trkpt>
      <trkpt lat="42.46188" lon="2.77284">
        <ele>867.7</ele>
        <time>2015-09-18T11:23:01Z</time>
      </trkpt>
      <trkpt lat="42.46191" lon="2.77284">
        <ele>867.4</ele>
        <time>2015-09-18T11:23:02Z</time>
      </trkpt>
      <trkpt lat="42.46194" lon="2.77284">
        <ele>866.9</ele>
        <time>2015-09-18T11:23:03Z</time>
      </trkpt>
      <trkpt lat="42.46197" lon="2.77285">
        <ele>866.2</ele>
        <time>2015-09-18T11:23:04Z</time>
      </trkpt>
      <trkpt lat="42.46201" lon="2.77285">
        <ele>865.9</ele>
        <time>2015-09-18T11:23:05Z</time>
      </trkpt>
      <trkpt lat="42.46206" lon="2.77287">
        <ele>866.2</ele>
        <time>2015-09-18T11:23:06Z</time>
      </trkpt>
      <trkpt lat="42.46211" lon="2.77288">
        <ele>867.1</ele>
        <time>2015-09-18T11:23:07Z</time>
      </trkpt>
      <trkpt lat="42.46215" lon="2.77289">
        <ele>869</ele>
        <time>2015-09-18T11:23:08Z</time>
      </trkpt>
      <trkpt lat="42.46219" lon="2.77288">
        <ele>870.7</ele>
        <time>2015-09-18T11:23:09Z</time>
      </trkpt>
      <trkpt lat="42.46223" lon="2.77287">
        <ele>872.2</ele>
        <time>2015-09-18T11:23:10Z</time>
      </trkpt>
      <trkpt lat="42.46226" lon="2.77287">
        <ele>872</ele>
        <time>2015-09-18T11:23:11Z</time>
      </trkpt>
      <trkpt lat="42.46232" lon="2.77291">
        <ele>871</ele>
        <time>2015-09-18T11:23:13Z</time>
      </trkpt>
      <trkpt lat="42.46235" lon="2.77294">
        <ele>869.7</ele>
        <time>2015-09-18T11:23:14Z</time>
      </trkpt>
      <trkpt lat="42.46236" lon="2.773">
        <ele>867.7</ele>
        <time>2015-09-18T11:23:15Z</time>
      </trkpt>
      <trkpt lat="42.46237" lon="2.77307">
        <ele>865.6</ele>
        <time>2015-09-18T11:23:16Z</time>
      </trkpt>
      <trkpt lat="42.46235" lon="2.77316">
        <ele>863.8</ele>
        <time>2015-09-18T11:23:17Z</time>
      </trkpt>
      <trkpt lat="42.46232" lon="2.77325">
        <ele>862.6</ele>
        <time>2015-09-18T11:23:18Z</time>
      </trkpt>
      <trkpt lat="42.46227" lon="2.77333">
        <ele>861.7</ele>
        <time>2015-09-18T11:23:19Z</time>
      </trkpt>
      <trkpt lat="42.46222" lon="2.7734">
        <ele>860.6</ele>
        <time>2015-09-18T11:23:20Z</time>
      </trkpt>
      <trkpt lat="42.46215" lon="2.77348">
        <ele>860.6</ele>
        <time>2015-09-18T11:23:21Z</time>
      </trkpt>
      <trkpt lat="42.46208" lon="2.77355">
        <ele>857</ele>
        <time>2015-09-18T11:23:22Z</time>
      </trkpt>
      <trkpt lat="42.46199" lon="2.77362">
        <ele>853.3</ele>
        <time>2015-09-18T11:23:23Z</time>
      </trkpt>
      <trkpt lat="42.46177" lon="2.77367">
        <ele>851.7</ele>
        <time>2015-09-18T11:23:25Z</time>
      </trkpt>
      <trkpt lat="42.46177" lon="2.77367">
        <ele>850.5</ele>
        <time>2015-09-18T11:23:25Z</time>
      </trkpt>
      <trkpt lat="42.46154" lon="2.77356">
        <ele>849.7</ele>
        <time>2015-09-18T11:23:27Z</time>
      </trkpt>
      <trkpt lat="42.46145" lon="2.77347">
        <ele>849.7</ele>
        <time>2015-09-18T11:23:28Z</time>
      </trkpt>
      <trkpt lat="42.46136" lon="2.77337">
        <ele>849.8</ele>
        <time>2015-09-18T11:23:29Z</time>
      </trkpt>
      <trkpt lat="42.46126" lon="2.77326">
        <ele>849.9</ele>
        <time>2015-09-18T11:23:30Z</time>
      </trkpt>
      <trkpt lat="42.46117" lon="2.77315">
        <ele>850.6</ele>
        <time>2015-09-18T11:23:31Z</time>
      </trkpt>
      <trkpt lat="42.46108" lon="2.77304">
        <ele>850.6</ele>
        <time>2015-09-18T11:23:32Z</time>
      </trkpt>
      <trkpt lat="42.46102" lon="2.77293">
        <ele>851</ele>
        <time>2015-09-18T11:23:33Z</time>
      </trkpt>
      <trkpt lat="42.46102" lon="2.77293">
        <ele>850.2</ele>
        <time>2015-09-18T11:23:33Z</time>
      </trkpt>
      <trkpt lat="42.46097" lon="2.77267">
        <ele>849.4</ele>
        <time>2015-09-18T11:23:35Z</time>
      </trkpt>
      <trkpt lat="42.46097" lon="2.77254">
        <ele>849.2</ele>
        <time>2015-09-18T11:23:36Z</time>
      </trkpt>
      <trkpt lat="42.46098" lon="2.77243">
        <ele>849.5</ele>
        <time>2015-09-18T11:23:37Z</time>
      </trkpt>
      <trkpt lat="42.461" lon="2.77232">
        <ele>849.5</ele>
        <time>2015-09-18T11:23:38Z</time>
      </trkpt>
      <trkpt lat="42.46104" lon="2.77224">
        <ele>849.7</ele>
        <time>2015-09-18T11:23:39Z</time>
      </trkpt>
      <trkpt lat="42.46108" lon="2.77217">
        <ele>850.5</ele>
        <time>2015-09-18T11:23:40Z</time>
      </trkpt>
      <trkpt lat="42.46112" lon="2.77211">
        <ele>850.9</ele>
        <time>2015-09-18T11:23:41Z</time>
      </trkpt>
      <trkpt lat="42.4612" lon="2.77204">
        <ele>850.7</ele>
        <time>2015-09-18T11:23:43Z</time>
      </trkpt>
      <trkpt lat="42.46125" lon="2.77204">
        <ele>850.2</ele>
        <time>2015-09-18T11:23:44Z</time>
      </trkpt>
      <trkpt lat="42.46129" lon="2.77207">
        <ele>850.2</ele>
        <time>2015-09-18T11:23:45Z</time>
      </trkpt>
      <trkpt lat="42.46133" lon="2.7721">
        <ele>850.3</ele>
        <time>2015-09-18T11:23:46Z</time>
      </trkpt>
      <trkpt lat="42.46135" lon="2.77214">
        <ele>851</ele>
        <time>2015-09-18T11:23:47Z</time>
      </trkpt>
      <trkpt lat="42.46136" lon="2.77218">
        <ele>850.8</ele>
        <time>2015-09-18T11:23:48Z</time>
      </trkpt>
      <trkpt lat="42.46135" lon="2.77223">
        <ele>849.1</ele>
        <time>2015-09-18T11:23:49Z</time>
      </trkpt>
      <trkpt lat="42.46133" lon="2.77229">
        <ele>846.6</ele>
        <time>2015-09-18T11:23:50Z</time>
      </trkpt>
      <trkpt lat="42.46128" lon="2.77237">
        <ele>844.2</ele>
        <time>2015-09-18T11:23:51Z</time>
      </trkpt>
      <trkpt lat="42.46122" lon="2.77245">
        <ele>842.4</ele>
        <time>2015-09-18T11:23:52Z</time>
      </trkpt>
      <trkpt lat="42.46113" lon="2.77251">
        <ele>840.7</ele>
        <time>2015-09-18T11:23:53Z</time>
      </trkpt>
      <trkpt lat="42.46103" lon="2.77255">
        <ele>838.5</ele>
        <time>2015-09-18T11:23:54Z</time>
      </trkpt>
      <trkpt lat="42.46091" lon="2.77254">
        <ele>835.7</ele>
        <time>2015-09-18T11:23:55Z</time>
      </trkpt>
      <trkpt lat="42.46079" lon="2.77251">
        <ele>831.2</ele>
        <time>2015-09-18T11:23:56Z</time>
      </trkpt>
      <trkpt lat="42.46067" lon="2.77245">
        <ele>831</ele>
        <time>2015-09-18T11:23:57Z</time>
      </trkpt>
      <trkpt lat="42.46055" lon="2.77238">
        <ele>831.6</ele>
        <time>2015-09-18T11:23:58Z</time>
      </trkpt>
      <trkpt lat="42.46034" lon="2.77219">
        <ele>833</ele>
        <time>2015-09-18T11:24:00Z</time>
      </trkpt>
      <trkpt lat="42.46034" lon="2.77219">
        <ele>834.8</ele>
        <time>2015-09-18T11:24:00Z</time>
      </trkpt>
      <trkpt lat="42.4602" lon="2.77202">
        <ele>835.2</ele>
        <time>2015-09-18T11:24:02Z</time>
      </trkpt>
      <trkpt lat="42.46013" lon="2.77195">
        <ele>834.8</ele>
        <time>2015-09-18T11:24:03Z</time>
      </trkpt>
      <trkpt lat="42.46005" lon="2.77187">
        <ele>834.3</ele>
        <time>2015-09-18T11:24:04Z</time>
      </trkpt>
      <trkpt lat="42.45998" lon="2.77178">
        <ele>833.3</ele>
        <time>2015-09-18T11:24:05Z</time>
      </trkpt>
      <trkpt lat="42.45992" lon="2.77167">
        <ele>832.7</ele>
        <time>2015-09-18T11:24:06Z</time>
      </trkpt>
      <trkpt lat="42.45989" lon="2.77154">
        <ele>832.7</ele>
        <time>2015-09-18T11:24:07Z</time>
      </trkpt>
      <trkpt lat="42.45988" lon="2.77142">
        <ele>832.8</ele>
        <time>2015-09-18T11:24:08Z</time>
      </trkpt>
      <trkpt lat="42.45988" lon="2.7713">
        <ele>833</ele>
        <time>2015-09-18T11:24:09Z</time>
      </trkpt>
      <trkpt lat="42.4599" lon="2.77118">
        <ele>832.9</ele>
        <time>2015-09-18T11:24:10Z</time>
      </trkpt>
      <trkpt lat="42.45993" lon="2.77108">
        <ele>832.8</ele>
        <time>2015-09-18T11:24:11Z</time>
      </trkpt>
      <trkpt lat="42.45997" lon="2.77101">
        <ele>832.5</ele>
        <time>2015-09-18T11:24:12Z</time>
      </trkpt>
      <trkpt lat="42.46009" lon="2.77095">
        <ele>832</ele>
        <time>2015-09-18T11:24:14Z</time>
      </trkpt>
      <trkpt lat="42.46014" lon="2.77096">
        <ele>832</ele>
        <time>2015-09-18T11:24:15Z</time>
      </trkpt>
      <trkpt lat="42.46014" lon="2.77096">
        <ele>832.2</ele>
        <time>2015-09-18T11:24:15Z</time>
      </trkpt>
      <trkpt lat="42.46026" lon="2.77095">
        <ele>830.9</ele>
        <time>2015-09-18T11:24:17Z</time>
      </trkpt>
      <trkpt lat="42.46031" lon="2.77094">
        <ele>829.9</ele>
        <time>2015-09-18T11:24:18Z</time>
      </trkpt>
      <trkpt lat="42.46035" lon="2.77094">
        <ele>828.2</ele>
        <time>2015-09-18T11:24:19Z</time>
      </trkpt>
      <trkpt lat="42.46038" lon="2.77098">
        <ele>826.4</ele>
        <time>2015-09-18T11:24:20Z</time>
      </trkpt>
      <trkpt lat="42.4604" lon="2.77104">
        <ele>825.4</ele>
        <time>2015-09-18T11:24:21Z</time>
      </trkpt>
      <trkpt lat="42.46041" lon="2.77112">
        <ele>825.5</ele>
        <time>2015-09-18T11:24:22Z</time>
      </trkpt>
      <trkpt lat="42.46042" lon="2.77121">
        <ele>825.6</ele>
        <time>2015-09-18T11:24:23Z</time>
      </trkpt>
      <trkpt lat="42.46041" lon="2.7713">
        <ele>825.7</ele>
        <time>2015-09-18T11:24:24Z</time>
      </trkpt>
      <trkpt lat="42.46039" lon="2.77138">
        <ele>825.4</ele>
        <time>2015-09-18T11:24:25Z</time>
      </trkpt>
      <trkpt lat="42.46035" lon="2.77146">
        <ele>824.6</ele>
        <time>2015-09-18T11:24:26Z</time>
      </trkpt>
      <trkpt lat="42.46028" lon="2.77154">
        <ele>823.1</ele>
        <time>2015-09-18T11:24:27Z</time>
      </trkpt>
      <trkpt lat="42.4602" lon="2.7716">
        <ele>821.3</ele>
        <time>2015-09-18T11:24:28Z</time>
      </trkpt>
      <trkpt lat="42.46009" lon="2.77163">
        <ele>819.4</ele>
        <time>2015-09-18T11:24:29Z</time>
      </trkpt>
      <trkpt lat="42.45998" lon="2.77162">
        <ele>817.2</ele>
        <time>2015-09-18T11:24:30Z</time>
      </trkpt>
      <trkpt lat="42.45988" lon="2.77158">
        <ele>815.2</ele>
        <time>2015-09-18T11:24:31Z</time>
      </trkpt>
      <trkpt lat="42.45978" lon="2.77152">
        <ele>812.9</ele>
        <time>2015-09-18T11:24:32Z</time>
      </trkpt>
      <trkpt lat="42.4597" lon="2.77143">
        <ele>812.9</ele>
        <time>2015-09-18T11:24:33Z</time>
      </trkpt>
      <trkpt lat="42.45955" lon="2.77123">
        <ele>810.9</ele>
        <time>2015-09-18T11:24:35Z</time>
      </trkpt>
      <trkpt lat="42.45955" lon="2.77123">
        <ele>810.4</ele>
        <time>2015-09-18T11:24:35Z</time>
      </trkpt>
      <trkpt lat="42.45943" lon="2.77105">
        <ele>810.5</ele>
        <time>2015-09-18T11:24:37Z</time>
      </trkpt>
      <trkpt lat="42.4594" lon="2.77096">
        <ele>809.6</ele>
        <time>2015-09-18T11:24:38Z</time>
      </trkpt>
      <trkpt lat="42.45938" lon="2.77086">
        <ele>809.6</ele>
        <time>2015-09-18T11:24:39Z</time>
      </trkpt>
      <trkpt lat="42.45938" lon="2.77076">
        <ele>806</ele>
        <time>2015-09-18T11:24:40Z</time>
      </trkpt>
      <trkpt lat="42.4594" lon="2.77067">
        <ele>805.2</ele>
        <time>2015-09-18T11:24:41Z</time>
      </trkpt>
      <trkpt lat="42.45944" lon="2.7706">
        <ele>804.9</ele>
        <time>2015-09-18T11:24:42Z</time>
      </trkpt>
      <trkpt lat="42.45947" lon="2.77054">
        <ele>804.8</ele>
        <time>2015-09-18T11:24:43Z</time>
      </trkpt>
      <trkpt lat="42.45951" lon="2.7705">
        <ele>804.1</ele>
        <time>2015-09-18T11:24:44Z</time>
      </trkpt>
      <trkpt lat="42.45955" lon="2.77047">
        <ele>803</ele>
        <time>2015-09-18T11:24:45Z</time>
      </trkpt>
      <trkpt lat="42.4596" lon="2.77045">
        <ele>801.6</ele>
        <time>2015-09-18T11:24:46Z</time>
      </trkpt>
      <trkpt lat="42.45967" lon="2.77046">
        <ele>800.5</ele>
        <time>2015-09-18T11:24:47Z</time>
      </trkpt>
      <trkpt lat="42.45973" lon="2.77048">
        <ele>802</ele>
        <time>2015-09-18T11:24:48Z</time>
      </trkpt>
      <trkpt lat="42.45982" lon="2.77058">
        <ele>802.9</ele>
        <time>2015-09-18T11:24:50Z</time>
      </trkpt>
      <trkpt lat="42.45982" lon="2.77058">
        <ele>803.3</ele>
        <time>2015-09-18T11:24:50Z</time>
      </trkpt>
      <trkpt lat="42.45988" lon="2.77065">
        <ele>803.3</ele>
        <time>2015-09-18T11:24:52Z</time>
      </trkpt>
      <trkpt lat="42.45992" lon="2.77067">
        <ele>803.2</ele>
        <time>2015-09-18T11:24:53Z</time>
      </trkpt>
      <trkpt lat="42.45996" lon="2.77068">
        <ele>803</ele>
        <time>2015-09-18T11:24:54Z</time>
      </trkpt>
      <trkpt lat="42.46" lon="2.7707">
        <ele>802.6</ele>
        <time>2015-09-18T11:24:55Z</time>
      </trkpt>
      <trkpt lat="42.46005" lon="2.77073">
        <ele>802.6</ele>
        <time>2015-09-18T11:24:56Z</time>
      </trkpt>
      <trkpt lat="42.46008" lon="2.77076">
        <ele>801.6</ele>
        <time>2015-09-18T11:24:57Z</time>
      </trkpt>
      <trkpt lat="42.46011" lon="2.77079">
        <ele>800.6</ele>
        <time>2015-09-18T11:24:58Z</time>
      </trkpt>
      <trkpt lat="42.46014" lon="2.77083">
        <ele>799.4</ele>
        <time>2015-09-18T11:24:59Z</time>
      </trkpt>
      <trkpt lat="42.46018" lon="2.77086">
        <ele>798.1</ele>
        <time>2015-09-18T11:25:00Z</time>
      </trkpt>
      <trkpt lat="42.46022" lon="2.7709">
        <ele>796.8</ele>
        <time>2015-09-18T11:25:01Z</time>
      </trkpt>
      <trkpt lat="42.46026" lon="2.77093">
        <ele>795.7</ele>
        <time>2015-09-18T11:25:02Z</time>
      </trkpt>
      <trkpt lat="42.4603" lon="2.77097">
        <ele>794</ele>
        <time>2015-09-18T11:25:03Z</time>
      </trkpt>
      <trkpt lat="42.46037" lon="2.77102">
        <ele>793.1</ele>
        <time>2015-09-18T11:25:05Z</time>
      </trkpt>
      <trkpt lat="42.46037" lon="2.77102">
        <ele>792</ele>
        <time>2015-09-18T11:25:05Z</time>
      </trkpt>
      <trkpt lat="42.46045" lon="2.7711">
        <ele>790.2</ele>
        <time>2015-09-18T11:25:07Z</time>
      </trkpt>
      <trkpt lat="42.4605" lon="2.77114">
        <ele>788.1</ele>
        <time>2015-09-18T11:25:08Z</time>
      </trkpt>
      <trkpt lat="42.46056" lon="2.77119">
        <ele>786.9</ele>
        <time>2015-09-18T11:25:09Z</time>
      </trkpt>
      <trkpt lat="42.46063" lon="2.77123">
        <ele>786.5</ele>
        <time>2015-09-18T11:25:10Z</time>
      </trkpt>
      <trkpt lat="42.46068" lon="2.77129">
        <ele>786.5</ele>
        <time>2015-09-18T11:25:11Z</time>
      </trkpt>
      <trkpt lat="42.46073" lon="2.77135">
        <ele>786</ele>
        <time>2015-09-18T11:25:12Z</time>
      </trkpt>
      <trkpt lat="42.46078" lon="2.77141">
        <ele>785.3</ele>
        <time>2015-09-18T11:25:13Z</time>
      </trkpt>
      <trkpt lat="42.46084" lon="2.77147">
        <ele>784.6</ele>
        <time>2015-09-18T11:25:14Z</time>
      </trkpt>
      <trkpt lat="42.46089" lon="2.77154">
        <ele>784.2</ele>
        <time>2015-09-18T11:25:15Z</time>
      </trkpt>
      <trkpt lat="42.46095" lon="2.77161">
        <ele>784.1</ele>
        <time>2015-09-18T11:25:16Z</time>
      </trkpt>
      <trkpt lat="42.461" lon="2.77167">
        <ele>784</ele>
        <time>2015-09-18T11:25:17Z</time>
      </trkpt>
      <trkpt lat="42.46104" lon="2.77173">
        <ele>783.4</ele>
        <time>2015-09-18T11:25:18Z</time>
      </trkpt>
      <trkpt lat="42.46109" lon="2.77179">
        <ele>782.8</ele>
        <time>2015-09-18T11:25:19Z</time>
      </trkpt>
      <trkpt lat="42.46114" lon="2.77185">
        <ele>781.9</ele>
        <time>2015-09-18T11:25:20Z</time>
      </trkpt>
      <trkpt lat="42.46119" lon="2.77192">
        <ele>780.6</ele>
        <time>2015-09-18T11:25:21Z</time>
      </trkpt>
      <trkpt lat="42.46127" lon="2.77205">
        <ele>779.6</ele>
        <time>2015-09-18T11:25:23Z</time>
      </trkpt>
      <trkpt lat="42.46131" lon="2.77211">
        <ele>777.7</ele>
        <time>2015-09-18T11:25:24Z</time>
      </trkpt>
      <trkpt lat="42.46135" lon="2.77216">
        <ele>775.3</ele>
        <time>2015-09-18T11:25:25Z</time>
      </trkpt>
      <trkpt lat="42.46135" lon="2.77216">
        <ele>773.2</ele>
        <time>2015-09-18T11:25:25Z</time>
      </trkpt>
      <trkpt lat="42.46145" lon="2.77228">
        <ele>771.6</ele>
        <time>2015-09-18T11:25:27Z</time>
      </trkpt>
      <trkpt lat="42.46151" lon="2.77234">
        <ele>770.3</ele>
        <time>2015-09-18T11:25:28Z</time>
      </trkpt>
      <trkpt lat="42.46156" lon="2.77241">
        <ele>768.9</ele>
        <time>2015-09-18T11:25:29Z</time>
      </trkpt>
      <trkpt lat="42.4616" lon="2.77247">
        <ele>767.1</ele>
        <time>2015-09-18T11:25:30Z</time>
      </trkpt>
      <trkpt lat="42.46165" lon="2.77253">
        <ele>765</ele>
        <time>2015-09-18T11:25:31Z</time>
      </trkpt>
      <trkpt lat="42.46171" lon="2.77258">
        <ele>763</ele>
        <time>2015-09-18T11:25:32Z</time>
      </trkpt>
      <trkpt lat="42.46177" lon="2.77263">
        <ele>761.7</ele>
        <time>2015-09-18T11:25:33Z</time>
      </trkpt>
      <trkpt lat="42.46183" lon="2.77268">
        <ele>761.5</ele>
        <time>2015-09-18T11:25:34Z</time>
      </trkpt>
      <trkpt lat="42.46187" lon="2.77274">
        <ele>761.5</ele>
        <time>2015-09-18T11:25:35Z</time>
      </trkpt>
      <trkpt lat="42.46189" lon="2.7728">
        <ele>760.2</ele>
        <time>2015-09-18T11:25:36Z</time>
      </trkpt>
      <trkpt lat="42.46192" lon="2.77286">
        <ele>758</ele>
        <time>2015-09-18T11:25:37Z</time>
      </trkpt>
      <trkpt lat="42.46199" lon="2.77297">
        <ele>755.5</ele>
        <time>2015-09-18T11:25:39Z</time>
      </trkpt>
      <trkpt lat="42.46204" lon="2.77303">
        <ele>753.8</ele>
        <time>2015-09-18T11:25:40Z</time>
      </trkpt>
      <trkpt lat="42.46204" lon="2.77303">
        <ele>752.4</ele>
        <time>2015-09-18T11:25:40Z</time>
      </trkpt>
      <trkpt lat="42.46214" lon="2.77316">
        <ele>751.1</ele>
        <time>2015-09-18T11:25:42Z</time>
      </trkpt>
      <trkpt lat="42.46218" lon="2.77323">
        <ele>749.2</ele>
        <time>2015-09-18T11:25:43Z</time>
      </trkpt>
      <trkpt lat="42.46224" lon="2.77328">
        <ele>746.9</ele>
        <time>2015-09-18T11:25:44Z</time>
      </trkpt>
      <trkpt lat="42.46231" lon="2.77334">
        <ele>745.5</ele>
        <time>2015-09-18T11:25:45Z</time>
      </trkpt>
      <trkpt lat="42.46239" lon="2.77339">
        <ele>744.9</ele>
        <time>2015-09-18T11:25:46Z</time>
      </trkpt>
      <trkpt lat="42.46246" lon="2.77344">
        <ele>744.9</ele>
        <time>2015-09-18T11:25:47Z</time>
      </trkpt>
      <trkpt lat="42.46253" lon="2.77348">
        <ele>744.8</ele>
        <time>2015-09-18T11:25:48Z</time>
      </trkpt>
      <trkpt lat="42.46259" lon="2.77353">
        <ele>744.8</ele>
        <time>2015-09-18T11:25:49Z</time>
      </trkpt>
      <trkpt lat="42.46265" lon="2.77358">
        <ele>745.1</ele>
        <time>2015-09-18T11:25:50Z</time>
      </trkpt>
      <trkpt lat="42.4627" lon="2.77364">
        <ele>745.5</ele>
        <time>2015-09-18T11:25:51Z</time>
      </trkpt>
      <trkpt lat="42.46273" lon="2.77368">
        <ele>751.1</ele>
        <time>2015-09-18T11:25:52Z</time>
      </trkpt>
      <trkpt lat="42.46276" lon="2.7737">
        <ele>751.1</ele>
        <time>2015-09-18T11:25:53Z</time>
      </trkpt>
      <trkpt lat="42.4628" lon="2.77371">
        <ele>753</ele>
        <time>2015-09-18T11:25:55Z</time>
      </trkpt>
      <trkpt lat="42.4628" lon="2.77371">
        <ele>753.6</ele>
        <time>2015-09-18T11:25:55Z</time>
      </trkpt>
      <trkpt lat="42.46285" lon="2.77378">
        <ele>755.5</ele>
        <time>2015-09-18T11:25:57Z</time>
      </trkpt>
      <trkpt lat="42.46287" lon="2.77382">
        <ele>758.4</ele>
        <time>2015-09-18T11:25:58Z</time>
      </trkpt>
      <trkpt lat="42.46288" lon="2.77384">
        <ele>760.6</ele>
        <time>2015-09-18T11:25:59Z</time>
      </trkpt>
      <trkpt lat="42.46287" lon="2.77384">
        <ele>760.6</ele>
        <time>2015-09-18T11:26:00Z</time>
      </trkpt>
      <trkpt lat="42.46288" lon="2.77385">
        <ele>759.3</ele>
        <time>2015-09-18T11:26:01Z</time>
      </trkpt>
      <trkpt lat="42.46288" lon="2.77387">
        <ele>759.6</ele>
        <time>2015-09-18T11:26:02Z</time>
      </trkpt>
      <trkpt lat="42.4629" lon="2.77391">
        <ele>760.4</ele>
        <time>2015-09-18T11:26:03Z</time>
      </trkpt>
      <trkpt lat="42.46292" lon="2.77395">
        <ele>761.4</ele>
        <time>2015-09-18T11:26:04Z</time>
      </trkpt>
      <trkpt lat="42.46294" lon="2.77397">
        <ele>763</ele>
        <time>2015-09-18T11:26:05Z</time>
      </trkpt>
      <trkpt lat="42.46296" lon="2.77398">
        <ele>764.8</ele>
        <time>2015-09-18T11:26:06Z</time>
      </trkpt>
      <trkpt lat="42.46298" lon="2.77398">
        <ele>765.9</ele>
        <time>2015-09-18T11:26:07Z</time>
      </trkpt>
      <trkpt lat="42.46299" lon="2.77398">
        <ele>765.8</ele>
        <time>2015-09-18T11:26:08Z</time>
      </trkpt>
      <trkpt lat="42.463" lon="2.77399">
        <ele>764.4</ele>
        <time>2015-09-18T11:26:09Z</time>
      </trkpt>
      <trkpt lat="42.46303" lon="2.774">
        <ele>764.4</ele>
        <time>2015-09-18T11:26:10Z</time>
      </trkpt>
      <trkpt lat="42.46307" lon="2.77402">
        <ele>765.1</ele>
        <time>2015-09-18T11:26:11Z</time>
      </trkpt>
      <trkpt lat="42.46314" lon="2.77407">
        <ele>766.8</ele>
        <time>2015-09-18T11:26:13Z</time>
      </trkpt>
      <trkpt lat="42.46317" lon="2.77408">
        <ele>769.7</ele>
        <time>2015-09-18T11:26:14Z</time>
      </trkpt>
      <trkpt lat="42.46321" lon="2.77408">
        <ele>772.1</ele>
        <time>2015-09-18T11:26:15Z</time>
      </trkpt>
      <trkpt lat="42.46325" lon="2.77406">
        <ele>773.8</ele>
        <time>2015-09-18T11:26:16Z</time>
      </trkpt>
      <trkpt lat="42.46328" lon="2.77403">
        <ele>775.5</ele>
        <time>2015-09-18T11:26:17Z</time>
      </trkpt>
      <trkpt lat="42.46331" lon="2.77402">
        <ele>776.8</ele>
        <time>2015-09-18T11:26:18Z</time>
      </trkpt>
      <trkpt lat="42.46334" lon="2.77402">
        <ele>777.4</ele>
        <time>2015-09-18T11:26:19Z</time>
      </trkpt>
      <trkpt lat="42.46336" lon="2.77405">
        <ele>777.4</ele>
        <time>2015-09-18T11:26:20Z</time>
      </trkpt>
      <trkpt lat="42.46337" lon="2.7741">
        <ele>777.2</ele>
        <time>2015-09-18T11:26:21Z</time>
      </trkpt>
      <trkpt lat="42.46336" lon="2.77415">
        <ele>777.3</ele>
        <time>2015-09-18T11:26:22Z</time>
      </trkpt>
      <trkpt lat="42.46335" lon="2.77422">
        <ele>777.3</ele>
        <time>2015-09-18T11:26:23Z</time>
      </trkpt>
      <trkpt lat="42.46332" lon="2.77435">
        <ele>778.3</ele>
        <time>2015-09-18T11:26:25Z</time>
      </trkpt>
      <trkpt lat="42.46332" lon="2.77435">
        <ele>778.3</ele>
        <time>2015-09-18T11:26:25Z</time>
      </trkpt>
      <trkpt lat="42.46326" lon="2.77446">
        <ele>779.8</ele>
        <time>2015-09-18T11:26:27Z</time>
      </trkpt>
      <trkpt lat="42.46322" lon="2.77452">
        <ele>780.2</ele>
        <time>2015-09-18T11:26:28Z</time>
      </trkpt>
      <trkpt lat="42.46318" lon="2.77458">
        <ele>780.3</ele>
        <time>2015-09-18T11:26:29Z</time>
      </trkpt>
      <trkpt lat="42.46313" lon="2.77464">
        <ele>780.1</ele>
        <time>2015-09-18T11:26:30Z</time>
      </trkpt>
      <trkpt lat="42.46307" lon="2.77469">
        <ele>780</ele>
        <time>2015-09-18T11:26:31Z</time>
      </trkpt>
      <trkpt lat="42.46298" lon="2.77473">
        <ele>779.7</ele>
        <time>2015-09-18T11:26:32Z</time>
      </trkpt>
      <trkpt lat="42.46288" lon="2.77476">
        <ele>779.2</ele>
        <time>2015-09-18T11:26:33Z</time>
      </trkpt>
      <trkpt lat="42.46275" lon="2.77475">
        <ele>778.7</ele>
        <time>2015-09-18T11:26:34Z</time>
      </trkpt>
      <trkpt lat="42.46262" lon="2.77471">
        <ele>778.6</ele>
        <time>2015-09-18T11:26:35Z</time>
      </trkpt>
      <trkpt lat="42.46249" lon="2.77464">
        <ele>777.6</ele>
        <time>2015-09-18T11:26:36Z</time>
      </trkpt>
      <trkpt lat="42.46239" lon="2.77452">
        <ele>777.1</ele>
        <time>2015-09-18T11:26:37Z</time>
      </trkpt>
      <trkpt lat="42.46232" lon="2.77437">
        <ele>776.5</ele>
        <time>2015-09-18T11:26:38Z</time>
      </trkpt>
      <trkpt lat="42.46228" lon="2.77421">
        <ele>776.7</ele>
        <time>2015-09-18T11:26:39Z</time>
      </trkpt>
      <trkpt lat="42.46226" lon="2.77407">
        <ele>777.5</ele>
        <time>2015-09-18T11:26:40Z</time>
      </trkpt>
      <trkpt lat="42.46225" lon="2.77394">
        <ele>778</ele>
        <time>2015-09-18T11:26:41Z</time>
      </trkpt>
      <trkpt lat="42.46226" lon="2.77383">
        <ele>778.1</ele>
        <time>2015-09-18T11:26:42Z</time>
      </trkpt>
      <trkpt lat="42.4623" lon="2.77365">
        <ele>778.1</ele>
        <time>2015-09-18T11:26:44Z</time>
      </trkpt>
      <trkpt lat="42.46233" lon="2.77358">
        <ele>778.1</ele>
        <time>2015-09-18T11:26:45Z</time>
      </trkpt>
      <trkpt lat="42.46233" lon="2.77358">
        <ele>778</ele>
        <time>2015-09-18T11:26:45Z</time>
      </trkpt>
      <trkpt lat="42.4624" lon="2.77347">
        <ele>777.9</ele>
        <time>2015-09-18T11:26:47Z</time>
      </trkpt>
      <trkpt lat="42.46243" lon="2.77343">
        <ele>777.9</ele>
        <time>2015-09-18T11:26:48Z</time>
      </trkpt>
      <trkpt lat="42.46247" lon="2.7734">
        <ele>778</ele>
        <time>2015-09-18T11:26:49Z</time>
      </trkpt>
      <trkpt lat="42.4625" lon="2.77338">
        <ele>778.1</ele>
        <time>2015-09-18T11:26:50Z</time>
      </trkpt>
      <trkpt lat="42.46254" lon="2.77337">
        <ele>778.3</ele>
        <time>2015-09-18T11:26:51Z</time>
      </trkpt>
      <trkpt lat="42.46258" lon="2.77336">
        <ele>778.9</ele>
        <time>2015-09-18T11:26:52Z</time>
      </trkpt>
      <trkpt lat="42.46263" lon="2.77336">
        <ele>780.6</ele>
        <time>2015-09-18T11:26:53Z</time>
      </trkpt>
      <trkpt lat="42.46267" lon="2.77335">
        <ele>782.4</ele>
        <time>2015-09-18T11:26:54Z</time>
      </trkpt>
      <trkpt lat="42.46271" lon="2.77334">
        <ele>783.8</ele>
        <time>2015-09-18T11:26:55Z</time>
      </trkpt>
      <trkpt lat="42.46275" lon="2.77333">
        <ele>783.8</ele>
        <time>2015-09-18T11:26:56Z</time>
      </trkpt>
      <trkpt lat="42.46279" lon="2.77331">
        <ele>785.4</ele>
        <time>2015-09-18T11:26:57Z</time>
      </trkpt>
      <trkpt lat="42.46282" lon="2.7733">
        <ele>785.9</ele>
        <time>2015-09-18T11:26:58Z</time>
      </trkpt>
      <trkpt lat="42.46285" lon="2.77329">
        <ele>786.2</ele>
        <time>2015-09-18T11:26:59Z</time>
      </trkpt>
      <trkpt lat="42.46289" lon="2.77327">
        <ele>786</ele>
        <time>2015-09-18T11:27:00Z</time>
      </trkpt>
      <trkpt lat="42.46292" lon="2.77328">
        <ele>785.7</ele>
        <time>2015-09-18T11:27:01Z</time>
      </trkpt>
      <trkpt lat="42.46294" lon="2.7733">
        <ele>785.2</ele>
        <time>2015-09-18T11:27:02Z</time>
      </trkpt>
      <trkpt lat="42.46297" lon="2.77334">
        <ele>785.3</ele>
        <time>2015-09-18T11:27:03Z</time>
      </trkpt>
      <trkpt lat="42.46298" lon="2.77342">
        <ele>785.3</ele>
        <time>2015-09-18T11:27:05Z</time>
      </trkpt>
      <trkpt lat="42.46298" lon="2.77342">
        <ele>785.1</ele>
        <time>2015-09-18T11:27:05Z</time>
      </trkpt>
      <trkpt lat="42.46297" lon="2.77353">
        <ele>784.9</ele>
        <time>2015-09-18T11:27:07Z</time>
      </trkpt>
      <trkpt lat="42.46295" lon="2.77359">
        <ele>784.8</ele>
        <time>2015-09-18T11:27:08Z</time>
      </trkpt>
      <trkpt lat="42.46293" lon="2.77365">
        <ele>784.4</ele>
        <time>2015-09-18T11:27:09Z</time>
      </trkpt>
      <trkpt lat="42.4629" lon="2.77371">
        <ele>783.8</ele>
        <time>2015-09-18T11:27:10Z</time>
      </trkpt>
      <trkpt lat="42.46286" lon="2.77377">
        <ele>783.1</ele>
        <time>2015-09-18T11:27:11Z</time>
      </trkpt>
      <trkpt lat="42.46282" lon="2.77383">
        <ele>782.6</ele>
        <time>2015-09-18T11:27:12Z</time>
      </trkpt>
      <trkpt lat="42.46276" lon="2.77389">
        <ele>782.4</ele>
        <time>2015-09-18T11:27:13Z</time>
      </trkpt>
      <trkpt lat="42.46268" lon="2.77394">
        <ele>781.9</ele>
        <time>2015-09-18T11:27:14Z</time>
      </trkpt>
      <trkpt lat="42.46258" lon="2.77396">
        <ele>781</ele>
        <time>2015-09-18T11:27:15Z</time>
      </trkpt>
      <trkpt lat="42.46246" lon="2.77395">
        <ele>780</ele>
        <time>2015-09-18T11:27:16Z</time>
      </trkpt>
      <trkpt lat="42.46234" lon="2.77391">
        <ele>780</ele>
        <time>2015-09-18T11:27:17Z</time>
      </trkpt>
      <trkpt lat="42.46213" lon="2.77373">
        <ele>780.6</ele>
        <time>2015-09-18T11:27:19Z</time>
      </trkpt>
      <trkpt lat="42.46204" lon="2.7736">
        <ele>781.3</ele>
        <time>2015-09-18T11:27:20Z</time>
      </trkpt>
      <trkpt lat="42.46204" lon="2.7736">
        <ele>782.4</ele>
        <time>2015-09-18T11:27:20Z</time>
      </trkpt>
      <trkpt lat="42.46192" lon="2.77331">
        <ele>783.5</ele>
        <time>2015-09-18T11:27:22Z</time>
      </trkpt>
      <trkpt lat="42.46187" lon="2.77317">
        <ele>784.5</ele>
        <time>2015-09-18T11:27:23Z</time>
      </trkpt>
      <trkpt lat="42.46184" lon="2.77302">
        <ele>785.6</ele>
        <time>2015-09-18T11:27:24Z</time>
      </trkpt>
      <trkpt lat="42.46182" lon="2.77287">
        <ele>786.3</ele>
        <time>2015-09-18T11:27:25Z</time>
      </trkpt>
      <trkpt lat="42.46181" lon="2.77273">
        <ele>786.6</ele>
        <time>2015-09-18T11:27:26Z</time>
      </trkpt>
      <trkpt lat="42.46182" lon="2.77262">
        <ele>786.4</ele>
        <time>2015-09-18T11:27:27Z</time>
      </trkpt>
      <trkpt lat="42.46185" lon="2.77252">
        <ele>786.1</ele>
        <time>2015-09-18T11:27:28Z</time>
      </trkpt>
      <trkpt lat="42.46189" lon="2.77245">
        <ele>786.1</ele>
        <time>2015-09-18T11:27:29Z</time>
      </trkpt>
      <trkpt lat="42.46194" lon="2.77239">
        <ele>786.1</ele>
        <time>2015-09-18T11:27:30Z</time>
      </trkpt>
      <trkpt lat="42.46199" lon="2.77235">
        <ele>786.3</ele>
        <time>2015-09-18T11:27:31Z</time>
      </trkpt>
      <trkpt lat="42.46204" lon="2.77231">
        <ele>786.4</ele>
        <time>2015-09-18T11:27:32Z</time>
      </trkpt>
      <trkpt lat="42.46208" lon="2.77229">
        <ele>786</ele>
        <time>2015-09-18T11:27:33Z</time>
      </trkpt>
      <trkpt lat="42.46212" lon="2.77228">
        <ele>784.9</ele>
        <time>2015-09-18T11:27:34Z</time>
      </trkpt>
      <trkpt lat="42.46215" lon="2.77229">
        <ele>784.6</ele>
        <time>2015-09-18T11:27:35Z</time>
      </trkpt>
      <trkpt lat="42.46222" lon="2.77232">
        <ele>784.5</ele>
        <time>2015-09-18T11:27:37Z</time>
      </trkpt>
      <trkpt lat="42.46225" lon="2.77234">
        <ele>784.3</ele>
        <time>2015-09-18T11:27:38Z</time>
      </trkpt>
      <trkpt lat="42.46227" lon="2.77236">
        <ele>783.7</ele>
        <time>2015-09-18T11:27:39Z</time>
      </trkpt>
      <trkpt lat="42.46229" lon="2.77239">
        <ele>783</ele>
        <time>2015-09-18T11:27:40Z</time>
      </trkpt>
      <trkpt lat="42.46232" lon="2.77242">
        <ele>782</ele>
        <time>2015-09-18T11:27:41Z</time>
      </trkpt>
      <trkpt lat="42.46235" lon="2.77246">
        <ele>781.2</ele>
        <time>2015-09-18T11:27:42Z</time>
      </trkpt>
      <trkpt lat="42.46237" lon="2.7725">
        <ele>780.5</ele>
        <time>2015-09-18T11:27:43Z</time>
      </trkpt>
      <trkpt lat="42.46239" lon="2.77253">
        <ele>779.8</ele>
        <time>2015-09-18T11:27:44Z</time>
      </trkpt>
      <trkpt lat="42.46241" lon="2.77256">
        <ele>778.8</ele>
        <time>2015-09-18T11:27:45Z</time>
      </trkpt>
      <trkpt lat="42.46242" lon="2.7726">
        <ele>776.9</ele>
        <time>2015-09-18T11:27:46Z</time>
      </trkpt>
      <trkpt lat="42.46245" lon="2.77265">
        <ele>774.7</ele>
        <time>2015-09-18T11:27:47Z</time>
      </trkpt>
      <trkpt lat="42.46248" lon="2.77271">
        <ele>773.3</ele>
        <time>2015-09-18T11:27:48Z</time>
      </trkpt>
      <trkpt lat="42.46253" lon="2.77275">
        <ele>772.9</ele>
        <time>2015-09-18T11:27:49Z</time>
      </trkpt>
      <trkpt lat="42.46257" lon="2.77279">
        <ele>773.2</ele>
        <time>2015-09-18T11:27:50Z</time>
      </trkpt>
      <trkpt lat="42.4626" lon="2.77281">
        <ele>773.1</ele>
        <time>2015-09-18T11:27:51Z</time>
      </trkpt>
      <trkpt lat="42.46263" lon="2.77283">
        <ele>771.3</ele>
        <time>2015-09-18T11:27:52Z</time>
      </trkpt>
      <trkpt lat="42.46267" lon="2.77286">
        <ele>771.3</ele>
        <time>2015-09-18T11:27:53Z</time>
      </trkpt>
      <trkpt lat="42.46274" lon="2.77291">
        <ele>769.3</ele>
        <time>2015-09-18T11:27:55Z</time>
      </trkpt>
      <trkpt lat="42.46274" lon="2.77291">
        <ele>768.9</ele>
        <time>2015-09-18T11:27:55Z</time>
      </trkpt>
      <trkpt lat="42.46282" lon="2.77297">
        <ele>768.6</ele>
        <time>2015-09-18T11:27:57Z</time>
      </trkpt>
      <trkpt lat="42.46284" lon="2.77301">
        <ele>768.3</ele>
        <time>2015-09-18T11:27:58Z</time>
      </trkpt>
      <trkpt lat="42.46287" lon="2.77305">
        <ele>768</ele>
        <time>2015-09-18T11:27:59Z</time>
      </trkpt>
      <trkpt lat="42.4629" lon="2.77308">
        <ele>767.5</ele>
        <time>2015-09-18T11:28:00Z</time>
      </trkpt>
      <trkpt lat="42.46293" lon="2.7731">
        <ele>767</ele>
        <time>2015-09-18T11:28:01Z</time>
      </trkpt>
      <trkpt lat="42.46297" lon="2.77312">
        <ele>766.8</ele>
        <time>2015-09-18T11:28:02Z</time>
      </trkpt>
      <trkpt lat="42.46301" lon="2.77315">
        <ele>766.9</ele>
        <time>2015-09-18T11:28:03Z</time>
      </trkpt>
      <trkpt lat="42.46305" lon="2.77316">
        <ele>766.9</ele>
        <time>2015-09-18T11:28:04Z</time>
      </trkpt>
      <trkpt lat="42.46308" lon="2.77318">
        <ele>766.9</ele>
        <time>2015-09-18T11:28:05Z</time>
      </trkpt>
      <trkpt lat="42.4631" lon="2.77319">
        <ele>771.4</ele>
        <time>2015-09-18T11:28:06Z</time>
      </trkpt>
      <trkpt lat="42.46311" lon="2.77319">
        <ele>772.6</ele>
        <time>2015-09-18T11:28:07Z</time>
      </trkpt>
      <trkpt lat="42.46313" lon="2.77323">
        <ele>772.7</ele>
        <time>2015-09-18T11:28:09Z</time>
      </trkpt>
      <trkpt lat="42.46314" lon="2.77326">
        <ele>772.3</ele>
        <time>2015-09-18T11:28:10Z</time>
      </trkpt>
      <trkpt lat="42.46314" lon="2.77326">
        <ele>772</ele>
        <time>2015-09-18T11:28:10Z</time>
      </trkpt>
      <trkpt lat="42.46317" lon="2.77332">
        <ele>771.9</ele>
        <time>2015-09-18T11:28:12Z</time>
      </trkpt>
      <trkpt lat="42.46317" lon="2.77335">
        <ele>771.6</ele>
        <time>2015-09-18T11:28:13Z</time>
      </trkpt>
      <trkpt lat="42.46317" lon="2.77339">
        <ele>771.2</ele>
        <time>2015-09-18T11:28:14Z</time>
      </trkpt>
      <trkpt lat="42.46316" lon="2.77343">
        <ele>771.3</ele>
        <time>2015-09-18T11:28:15Z</time>
      </trkpt>
      <trkpt lat="42.46315" lon="2.77348">
        <ele>771.3</ele>
        <time>2015-09-18T11:28:16Z</time>
      </trkpt>
      <trkpt lat="42.46314" lon="2.77354">
        <ele>771.2</ele>
        <time>2015-09-18T11:28:17Z</time>
      </trkpt>
      <trkpt lat="42.46313" lon="2.77359">
        <ele>771.2</ele>
        <time>2015-09-18T11:28:18Z</time>
      </trkpt>
      <trkpt lat="42.46312" lon="2.77364">
        <ele>771.3</ele>
        <time>2015-09-18T11:28:19Z</time>
      </trkpt>
      <trkpt lat="42.4631" lon="2.7737">
        <ele>771.7</ele>
        <time>2015-09-18T11:28:20Z</time>
      </trkpt>
      <trkpt lat="42.46308" lon="2.77377">
        <ele>772.1</ele>
        <time>2015-09-18T11:28:21Z</time>
      </trkpt>
      <trkpt lat="42.46306" lon="2.77384">
        <ele>772.4</ele>
        <time>2015-09-18T11:28:22Z</time>
      </trkpt>
      <trkpt lat="42.46303" lon="2.7739">
        <ele>772.9</ele>
        <time>2015-09-18T11:28:23Z</time>
      </trkpt>
      <trkpt lat="42.46298" lon="2.77396">
        <ele>772.5</ele>
        <time>2015-09-18T11:28:24Z</time>
      </trkpt>
      <trkpt lat="42.46293" lon="2.774">
        <ele>771.8</ele>
        <time>2015-09-18T11:28:25Z</time>
      </trkpt>
      <trkpt lat="42.46274" lon="2.77407">
        <ele>770.2</ele>
        <time>2015-09-18T11:28:27Z</time>
      </trkpt>
      <trkpt lat="42.46261" lon="2.77406">
        <ele>768.8</ele>
        <time>2015-09-18T11:28:28Z</time>
      </trkpt>
      <trkpt lat="42.46248" lon="2.77402">
        <ele>768.4</ele>
        <time>2015-09-18T11:28:29Z</time>
      </trkpt>
      <trkpt lat="42.46236" lon="2.77392">
        <ele>767.9</ele>
        <time>2015-09-18T11:28:30Z</time>
      </trkpt>
      <trkpt lat="42.46228" lon="2.77378">
        <ele>766.5</ele>
        <time>2015-09-18T11:28:31Z</time>
      </trkpt>
      <trkpt lat="42.46223" lon="2.77363">
        <ele>766.5</ele>
        <time>2015-09-18T11:28:32Z</time>
      </trkpt>
      <trkpt lat="42.46221" lon="2.77348">
        <ele>765.1</ele>
        <time>2015-09-18T11:28:33Z</time>
      </trkpt>
      <trkpt lat="42.4622" lon="2.77334">
        <ele>765.2</ele>
        <time>2015-09-18T11:28:34Z</time>
      </trkpt>
      <trkpt lat="42.46222" lon="2.77324">
        <ele>765.7</ele>
        <time>2015-09-18T11:28:35Z</time>
      </trkpt>
      <trkpt lat="42.46225" lon="2.77316">
        <ele>765.4</ele>
        <time>2015-09-18T11:28:36Z</time>
      </trkpt>
      <trkpt lat="42.46228" lon="2.7731">
        <ele>765.1</ele>
        <time>2015-09-18T11:28:37Z</time>
      </trkpt>
      <trkpt lat="42.46231" lon="2.77306">
        <ele>764.7</ele>
        <time>2015-09-18T11:28:38Z</time>
      </trkpt>
      <trkpt lat="42.46235" lon="2.77301">
        <ele>764.6</ele>
        <time>2015-09-18T11:28:39Z</time>
      </trkpt>
      <trkpt lat="42.46239" lon="2.77297">
        <ele>764.8</ele>
        <time>2015-09-18T11:28:40Z</time>
      </trkpt>
      <trkpt lat="42.46243" lon="2.77292">
        <ele>765.2</ele>
        <time>2015-09-18T11:28:41Z</time>
      </trkpt>
      <trkpt lat="42.46247" lon="2.77288">
        <ele>765.5</ele>
        <time>2015-09-18T11:28:42Z</time>
      </trkpt>
      <trkpt lat="42.46251" lon="2.77286">
        <ele>765.9</ele>
        <time>2015-09-18T11:28:43Z</time>
      </trkpt>
      <trkpt lat="42.4626" lon="2.77281">
        <ele>766.6</ele>
        <time>2015-09-18T11:28:45Z</time>
      </trkpt>
      <trkpt lat="42.4626" lon="2.77281">
        <ele>769.1</ele>
        <time>2015-09-18T11:28:45Z</time>
      </trkpt>
      <trkpt lat="42.46268" lon="2.77274">
        <ele>770.4</ele>
        <time>2015-09-18T11:28:47Z</time>
      </trkpt>
      <trkpt lat="42.46271" lon="2.77273">
        <ele>771.1</ele>
        <time>2015-09-18T11:28:48Z</time>
      </trkpt>
      <trkpt lat="42.46274" lon="2.77273">
        <ele>771.8</ele>
        <time>2015-09-18T11:28:49Z</time>
      </trkpt>
      <trkpt lat="42.46276" lon="2.77275">
        <ele>772.7</ele>
        <time>2015-09-18T11:28:50Z</time>
      </trkpt>
      <trkpt lat="42.46278" lon="2.77277">
        <ele>774</ele>
        <time>2015-09-18T11:28:51Z</time>
      </trkpt>
      <trkpt lat="42.46278" lon="2.77277">
        <ele>775</ele>
        <time>2015-09-18T11:28:51Z</time>
      </trkpt>
      <trkpt lat="42.46282" lon="2.77281">
        <ele>776</ele>
        <time>2015-09-18T11:28:53Z</time>
      </trkpt>
      <trkpt lat="42.46284" lon="2.77284">
        <ele>776.9</ele>
        <time>2015-09-18T11:28:54Z</time>
      </trkpt>
      <trkpt lat="42.46285" lon="2.77286">
        <ele>777.5</ele>
        <time>2015-09-18T11:28:55Z</time>
      </trkpt>
      <trkpt lat="42.46285" lon="2.7729">
        <ele>778</ele>
        <time>2015-09-18T11:28:56Z</time>
      </trkpt>
      <trkpt lat="42.46285" lon="2.7729">
        <ele>778.2</ele>
        <time>2015-09-18T11:28:56Z</time>
      </trkpt>
      <trkpt lat="42.46277" lon="2.77306">
        <ele>777.8</ele>
        <time>2015-09-18T11:28:59Z</time>
      </trkpt>
      <trkpt lat="42.46271" lon="2.77312">
        <ele>778.2</ele>
        <time>2015-09-18T11:29:00Z</time>
      </trkpt>
      <trkpt lat="42.46271" lon="2.77312">
        <ele>778.6</ele>
        <time>2015-09-18T11:29:00Z</time>
      </trkpt>
      <trkpt lat="42.46253" lon="2.77321">
        <ele>779.1</ele>
        <time>2015-09-18T11:29:02Z</time>
      </trkpt>
      <trkpt lat="42.46243" lon="2.77325">
        <ele>780</ele>
        <time>2015-09-18T11:29:03Z</time>
      </trkpt>
      <trkpt lat="42.46232" lon="2.77325">
        <ele>780.2</ele>
        <time>2015-09-18T11:29:04Z</time>
      </trkpt>
      <trkpt lat="42.4622" lon="2.77319">
        <ele>779.4</ele>
        <time>2015-09-18T11:29:05Z</time>
      </trkpt>
      <trkpt lat="42.46209" lon="2.77308">
        <ele>779.3</ele>
        <time>2015-09-18T11:29:06Z</time>
      </trkpt>
      <trkpt lat="42.46202" lon="2.77293">
        <ele>779.1</ele>
        <time>2015-09-18T11:29:07Z</time>
      </trkpt>
      <trkpt lat="42.46199" lon="2.77277">
        <ele>779.3</ele>
        <time>2015-09-18T11:29:08Z</time>
      </trkpt>
      <trkpt lat="42.462" lon="2.77262">
        <ele>780.3</ele>
        <time>2015-09-18T11:29:09Z</time>
      </trkpt>
      <trkpt lat="42.46202" lon="2.77251">
        <ele>781.6</ele>
        <time>2015-09-18T11:29:10Z</time>
      </trkpt>
      <trkpt lat="42.46203" lon="2.77242">
        <ele>782.7</ele>
        <time>2015-09-18T11:29:11Z</time>
      </trkpt>
      <trkpt lat="42.46203" lon="2.77233">
        <ele>782.7</ele>
        <time>2015-09-18T11:29:12Z</time>
      </trkpt>
      <trkpt lat="42.46204" lon="2.77225">
        <ele>782.4</ele>
        <time>2015-09-18T11:29:13Z</time>
      </trkpt>
      <trkpt lat="42.46207" lon="2.77217">
        <ele>782</ele>
        <time>2015-09-18T11:29:14Z</time>
      </trkpt>
      <trkpt lat="42.4621" lon="2.77212">
        <ele>781.6</ele>
        <time>2015-09-18T11:29:15Z</time>
      </trkpt>
      <trkpt lat="42.46218" lon="2.77206">
        <ele>781.1</ele>
        <time>2015-09-18T11:29:17Z</time>
      </trkpt>
      <trkpt lat="42.46222" lon="2.77205">
        <ele>780.8</ele>
        <time>2015-09-18T11:29:18Z</time>
      </trkpt>
      <trkpt lat="42.46226" lon="2.77205">
        <ele>781.1</ele>
        <time>2015-09-18T11:29:19Z</time>
      </trkpt>
      <trkpt lat="42.4623" lon="2.77208">
        <ele>781.6</ele>
        <time>2015-09-18T11:29:20Z</time>
      </trkpt>
      <trkpt lat="42.46233" lon="2.77211">
        <ele>782.5</ele>
        <time>2015-09-18T11:29:21Z</time>
      </trkpt>
      <trkpt lat="42.46234" lon="2.77216">
        <ele>783.2</ele>
        <time>2015-09-18T11:29:22Z</time>
      </trkpt>
      <trkpt lat="42.46236" lon="2.7722">
        <ele>784.1</ele>
        <time>2015-09-18T11:29:23Z</time>
      </trkpt>
      <trkpt lat="42.46237" lon="2.77223">
        <ele>784.5</ele>
        <time>2015-09-18T11:29:24Z</time>
      </trkpt>
      <trkpt lat="42.46239" lon="2.77225">
        <ele>784.8</ele>
        <time>2015-09-18T11:29:25Z</time>
      </trkpt>
      <trkpt lat="42.46242" lon="2.77226">
        <ele>784.6</ele>
        <time>2015-09-18T11:29:26Z</time>
      </trkpt>
      <trkpt lat="42.46244" lon="2.77227">
        <ele>784.6</ele>
        <time>2015-09-18T11:29:27Z</time>
      </trkpt>
      <trkpt lat="42.46247" lon="2.77229">
        <ele>784</ele>
        <time>2015-09-18T11:29:28Z</time>
      </trkpt>
      <trkpt lat="42.46249" lon="2.77233">
        <ele>783.1</ele>
        <time>2015-09-18T11:29:29Z</time>
      </trkpt>
      <trkpt lat="42.4625" lon="2.77238">
        <ele>782.3</ele>
        <time>2015-09-18T11:29:30Z</time>
      </trkpt>
      <trkpt lat="42.46252" lon="2.77243">
        <ele>782.3</ele>
        <time>2015-09-18T11:29:31Z</time>
      </trkpt>
      <trkpt lat="42.46254" lon="2.7725">
        <ele>780</ele>
        <time>2015-09-18T11:29:32Z</time>
      </trkpt>
      <trkpt lat="42.46259" lon="2.7726">
        <ele>777.7</ele>
        <time>2015-09-18T11:29:34Z</time>
      </trkpt>
      <trkpt lat="42.46262" lon="2.77264">
        <ele>776.6</ele>
        <time>2015-09-18T11:29:35Z</time>
      </trkpt>
      <trkpt lat="42.46262" lon="2.77264">
        <ele>775.7</ele>
        <time>2015-09-18T11:29:35Z</time>
      </trkpt>
      <trkpt lat="42.46268" lon="2.77275">
        <ele>774.7</ele>
        <time>2015-09-18T11:29:37Z</time>
      </trkpt>
      <trkpt lat="42.4627" lon="2.77282">
        <ele>773.6</ele>
        <time>2015-09-18T11:29:38Z</time>
      </trkpt>
      <trkpt lat="42.46273" lon="2.77288">
        <ele>772.3</ele>
        <time>2015-09-18T11:29:39Z</time>
      </trkpt>
      <trkpt lat="42.46276" lon="2.77294">
        <ele>771.3</ele>
        <time>2015-09-18T11:29:40Z</time>
      </trkpt>
      <trkpt lat="42.4628" lon="2.773">
        <ele>770.5</ele>
        <time>2015-09-18T11:29:41Z</time>
      </trkpt>
      <trkpt lat="42.46284" lon="2.77304">
        <ele>770.2</ele>
        <time>2015-09-18T11:29:42Z</time>
      </trkpt>
      <trkpt lat="42.46287" lon="2.77307">
        <ele>769.5</ele>
        <time>2015-09-18T11:29:43Z</time>
      </trkpt>
      <trkpt lat="42.46291" lon="2.7731">
        <ele>768.4</ele>
        <time>2015-09-18T11:29:44Z</time>
      </trkpt>
      <trkpt lat="42.46294" lon="2.77313">
        <ele>766.9</ele>
        <time>2015-09-18T11:29:45Z</time>
      </trkpt>
      <trkpt lat="42.46297" lon="2.77317">
        <ele>764.4</ele>
        <time>2015-09-18T11:29:46Z</time>
      </trkpt>
      <trkpt lat="42.463" lon="2.77322">
        <ele>761.8</ele>
        <time>2015-09-18T11:29:47Z</time>
      </trkpt>
      <trkpt lat="42.46305" lon="2.77328">
        <ele>757.1</ele>
        <time>2015-09-18T11:29:48Z</time>
      </trkpt>
      <trkpt lat="42.46305" lon="2.77328">
        <ele>757.1</ele>
        <time>2015-09-18T11:29:48Z</time>
      </trkpt>
      <trkpt lat="42.46305" lon="2.77328">
        <ele>755</ele>
        <time>2015-09-18T11:29:48Z</time>
      </trkpt>
      <trkpt lat="42.46325" lon="2.77345">
        <ele>753.5</ele>
        <time>2015-09-18T11:29:52Z</time>
      </trkpt>
      <trkpt lat="42.46327" lon="2.77349">
        <ele>751.2</ele>
        <time>2015-09-18T11:29:53Z</time>
      </trkpt>
      <trkpt lat="42.46331" lon="2.77353">
        <ele>748.7</ele>
        <time>2015-09-18T11:29:54Z</time>
      </trkpt>
      <trkpt lat="42.46335" lon="2.77358">
        <ele>746.4</ele>
        <time>2015-09-18T11:29:55Z</time>
      </trkpt>
      <trkpt lat="42.46335" lon="2.77358">
        <ele>745.3</ele>
        <time>2015-09-18T11:29:55Z</time>
      </trkpt>
      <trkpt lat="42.46344" lon="2.77364">
        <ele>744.9</ele>
        <time>2015-09-18T11:29:57Z</time>
      </trkpt>
      <trkpt lat="42.46349" lon="2.77367">
        <ele>744.7</ele>
        <time>2015-09-18T11:29:58Z</time>
      </trkpt>
      <trkpt lat="42.46352" lon="2.77369">
        <ele>743</ele>
        <time>2015-09-18T11:29:59Z</time>
      </trkpt>
      <trkpt lat="42.46356" lon="2.77373">
        <ele>740.8</ele>
        <time>2015-09-18T11:30:00Z</time>
      </trkpt>
      <trkpt lat="42.46361" lon="2.77377">
        <ele>739.1</ele>
        <time>2015-09-18T11:30:01Z</time>
      </trkpt>
      <trkpt lat="42.46366" lon="2.77382">
        <ele>736.7</ele>
        <time>2015-09-18T11:30:02Z</time>
      </trkpt>
      <trkpt lat="42.46373" lon="2.77386">
        <ele>736.1</ele>
        <time>2015-09-18T11:30:03Z</time>
      </trkpt>
      <trkpt lat="42.46379" lon="2.77387">
        <ele>736.6</ele>
        <time>2015-09-18T11:30:04Z</time>
      </trkpt>
      <trkpt lat="42.46385" lon="2.77388">
        <ele>737.5</ele>
        <time>2015-09-18T11:30:05Z</time>
      </trkpt>
      <trkpt lat="42.46389" lon="2.7739">
        <ele>738.3</ele>
        <time>2015-09-18T11:30:06Z</time>
      </trkpt>
      <trkpt lat="42.46391" lon="2.77393">
        <ele>740.9</ele>
        <time>2015-09-18T11:30:07Z</time>
      </trkpt>
      <trkpt lat="42.46391" lon="2.77393">
        <ele>740.9</ele>
        <time>2015-09-18T11:30:07Z</time>
      </trkpt>
      <trkpt lat="42.464" lon="2.77398">
        <ele>743.2</ele>
        <time>2015-09-18T11:30:10Z</time>
      </trkpt>
      <trkpt lat="42.464" lon="2.77398">
        <ele>744.2</ele>
        <time>2015-09-18T11:30:10Z</time>
      </trkpt>
      <trkpt lat="42.46405" lon="2.77395">
        <ele>744.2</ele>
        <time>2015-09-18T11:30:12Z</time>
      </trkpt>
      <trkpt lat="42.46407" lon="2.77396">
        <ele>743</ele>
        <time>2015-09-18T11:30:13Z</time>
      </trkpt>
      <trkpt lat="42.46407" lon="2.77399">
        <ele>741.9</ele>
        <time>2015-09-18T11:30:14Z</time>
      </trkpt>
      <trkpt lat="42.46408" lon="2.77402">
        <ele>740.7</ele>
        <time>2015-09-18T11:30:15Z</time>
      </trkpt>
      <trkpt lat="42.4641" lon="2.77405">
        <ele>739.6</ele>
        <time>2015-09-18T11:30:16Z</time>
      </trkpt>
      <trkpt lat="42.46412" lon="2.77408">
        <ele>738.4</ele>
        <time>2015-09-18T11:30:17Z</time>
      </trkpt>
      <trkpt lat="42.46414" lon="2.77411">
        <ele>737.3</ele>
        <time>2015-09-18T11:30:18Z</time>
      </trkpt>
      <trkpt lat="42.46416" lon="2.77415">
        <ele>737.3</ele>
        <time>2015-09-18T11:30:19Z</time>
      </trkpt>
      <trkpt lat="42.46416" lon="2.77418">
        <ele>734.8</ele>
        <time>2015-09-18T11:30:20Z</time>
      </trkpt>
      <trkpt lat="42.46418" lon="2.77422">
        <ele>733.8</ele>
        <time>2015-09-18T11:30:21Z</time>
      </trkpt>
      <trkpt lat="42.4642" lon="2.77425">
        <ele>732.4</ele>
        <time>2015-09-18T11:30:22Z</time>
      </trkpt>
      <trkpt lat="42.46424" lon="2.77428">
        <ele>731.8</ele>
        <time>2015-09-18T11:30:23Z</time>
      </trkpt>
      <trkpt lat="42.46428" lon="2.77431">
        <ele>732</ele>
        <time>2015-09-18T11:30:24Z</time>
      </trkpt>
      <trkpt lat="42.46432" lon="2.77432">
        <ele>733.9</ele>
        <time>2015-09-18T11:30:25Z</time>
      </trkpt>
      <trkpt lat="42.46435" lon="2.77433">
        <ele>735.5</ele>
        <time>2015-09-18T11:30:26Z</time>
      </trkpt>
      <trkpt lat="42.46438" lon="2.77434">
        <ele>735.5</ele>
        <time>2015-09-18T11:30:27Z</time>
      </trkpt>
      <trkpt lat="42.46444" lon="2.77437">
        <ele>735</ele>
        <time>2015-09-18T11:30:29Z</time>
      </trkpt>
      <trkpt lat="42.46448" lon="2.77438">
        <ele>735.5</ele>
        <time>2015-09-18T11:30:30Z</time>
      </trkpt>
      <trkpt lat="42.46448" lon="2.77438">
        <ele>736.6</ele>
        <time>2015-09-18T11:30:30Z</time>
      </trkpt>
      <trkpt lat="42.46456" lon="2.77441">
        <ele>737.7</ele>
        <time>2015-09-18T11:30:32Z</time>
      </trkpt>
      <trkpt lat="42.4646" lon="2.77443">
        <ele>738.7</ele>
        <time>2015-09-18T11:30:33Z</time>
      </trkpt>
      <trkpt lat="42.46464" lon="2.77444">
        <ele>739.7</ele>
        <time>2015-09-18T11:30:34Z</time>
      </trkpt>
      <trkpt lat="42.46468" lon="2.77446">
        <ele>740.4</ele>
        <time>2015-09-18T11:30:35Z</time>
      </trkpt>
      <trkpt lat="42.46472" lon="2.77446">
        <ele>740.6</ele>
        <time>2015-09-18T11:30:36Z</time>
      </trkpt>
      <trkpt lat="42.46475" lon="2.77446">
        <ele>740.6</ele>
        <time>2015-09-18T11:30:37Z</time>
      </trkpt>
      <trkpt lat="42.46478" lon="2.77449">
        <ele>739.7</ele>
        <time>2015-09-18T11:30:38Z</time>
      </trkpt>
      <trkpt lat="42.4648" lon="2.77455">
        <ele>738.7</ele>
        <time>2015-09-18T11:30:39Z</time>
      </trkpt>
      <trkpt lat="42.4648" lon="2.77455">
        <ele>737.4</ele>
        <time>2015-09-18T11:30:39Z</time>
      </trkpt>
      <trkpt lat="42.46482" lon="2.77478">
        <ele>738</ele>
        <time>2015-09-18T11:30:42Z</time>
      </trkpt>
      <trkpt lat="42.46482" lon="2.77483">
        <ele>736</ele>
        <time>2015-09-18T11:30:43Z</time>
      </trkpt>
      <trkpt lat="42.46481" lon="2.77488">
        <ele>734.1</ele>
        <time>2015-09-18T11:30:44Z</time>
      </trkpt>
      <trkpt lat="42.46481" lon="2.77493">
        <ele>732.5</ele>
        <time>2015-09-18T11:30:45Z</time>
      </trkpt>
      <trkpt lat="42.46481" lon="2.77493">
        <ele>731.7</ele>
        <time>2015-09-18T11:30:45Z</time>
      </trkpt>
      <trkpt lat="42.46482" lon="2.77505">
        <ele>731.5</ele>
        <time>2015-09-18T11:30:47Z</time>
      </trkpt>
      <trkpt lat="42.46482" lon="2.77511">
        <ele>731.1</ele>
        <time>2015-09-18T11:30:48Z</time>
      </trkpt>
      <trkpt lat="42.46481" lon="2.77516">
        <ele>730</ele>
        <time>2015-09-18T11:30:49Z</time>
      </trkpt>
      <trkpt lat="42.46479" lon="2.77523">
        <ele>728.8</ele>
        <time>2015-09-18T11:30:50Z</time>
      </trkpt>
      <trkpt lat="42.46476" lon="2.77531">
        <ele>727.9</ele>
        <time>2015-09-18T11:30:51Z</time>
      </trkpt>
      <trkpt lat="42.46473" lon="2.7754">
        <ele>728.6</ele>
        <time>2015-09-18T11:30:52Z</time>
      </trkpt>
      <trkpt lat="42.46468" lon="2.77548">
        <ele>729.8</ele>
        <time>2015-09-18T11:30:53Z</time>
      </trkpt>
      <trkpt lat="42.46463" lon="2.77555">
        <ele>732.1</ele>
        <time>2015-09-18T11:30:54Z</time>
      </trkpt>
      <trkpt lat="42.46457" lon="2.77559">
        <ele>733.4</ele>
        <time>2015-09-18T11:30:55Z</time>
      </trkpt>
      <trkpt lat="42.46451" lon="2.77562">
        <ele>733.8</ele>
        <time>2015-09-18T11:30:56Z</time>
      </trkpt>
      <trkpt lat="42.46444" lon="2.77565">
        <ele>733.7</ele>
        <time>2015-09-18T11:30:57Z</time>
      </trkpt>
      <trkpt lat="42.46436" lon="2.77567">
        <ele>731.6</ele>
        <time>2015-09-18T11:30:58Z</time>
      </trkpt>
      <trkpt lat="42.46436" lon="2.77567">
        <ele>730.6</ele>
        <time>2015-09-18T11:30:58Z</time>
      </trkpt>
      <trkpt lat="42.46418" lon="2.77567">
        <ele>729.5</ele>
        <time>2015-09-18T11:31:00Z</time>
      </trkpt>
      <trkpt lat="42.46397" lon="2.77552">
        <ele>728.3</ele>
        <time>2015-09-18T11:31:02Z</time>
      </trkpt>
      <trkpt lat="42.46389" lon="2.77538">
        <ele>728.3</ele>
        <time>2015-09-18T11:31:03Z</time>
      </trkpt>
      <trkpt lat="42.46385" lon="2.77522">
        <ele>727.1</ele>
        <time>2015-09-18T11:31:04Z</time>
      </trkpt>
      <trkpt lat="42.46386" lon="2.77507">
        <ele>726.7</ele>
        <time>2015-09-18T11:31:05Z</time>
      </trkpt>
      <trkpt lat="42.4639" lon="2.77496">
        <ele>726</ele>
        <time>2015-09-18T11:31:06Z</time>
      </trkpt>
      <trkpt lat="42.46396" lon="2.77489">
        <ele>726.5</ele>
        <time>2015-09-18T11:31:07Z</time>
      </trkpt>
      <trkpt lat="42.46403" lon="2.77485">
        <ele>726.4</ele>
        <time>2015-09-18T11:31:08Z</time>
      </trkpt>
      <trkpt lat="42.46409" lon="2.77482">
        <ele>727.3</ele>
        <time>2015-09-18T11:31:09Z</time>
      </trkpt>
      <trkpt lat="42.46414" lon="2.77482">
        <ele>728.2</ele>
        <time>2015-09-18T11:31:10Z</time>
      </trkpt>
      <trkpt lat="42.46417" lon="2.77482">
        <ele>728.3</ele>
        <time>2015-09-18T11:31:11Z</time>
      </trkpt>
      <trkpt lat="42.4642" lon="2.77481">
        <ele>728.3</ele>
        <time>2015-09-18T11:31:12Z</time>
      </trkpt>
      <trkpt lat="42.46422" lon="2.77478">
        <ele>727.1</ele>
        <time>2015-09-18T11:31:13Z</time>
      </trkpt>
      <trkpt lat="42.46426" lon="2.77476">
        <ele>725.1</ele>
        <time>2015-09-18T11:31:14Z</time>
      </trkpt>
      <trkpt lat="42.4643" lon="2.77477">
        <ele>723.1</ele>
        <time>2015-09-18T11:31:15Z</time>
      </trkpt>
      <trkpt lat="42.46434" lon="2.77478">
        <ele>721.9</ele>
        <time>2015-09-18T11:31:16Z</time>
      </trkpt>
      <trkpt lat="42.46437" lon="2.7748">
        <ele>720.1</ele>
        <time>2015-09-18T11:31:17Z</time>
      </trkpt>
      <trkpt lat="42.46443" lon="2.77484">
        <ele>718.6</ele>
        <time>2015-09-18T11:31:19Z</time>
      </trkpt>
      <trkpt lat="42.46446" lon="2.77486">
        <ele>716.8</ele>
        <time>2015-09-18T11:31:20Z</time>
      </trkpt>
      <trkpt lat="42.46446" lon="2.77486">
        <ele>714.5</ele>
        <time>2015-09-18T11:31:20Z</time>
      </trkpt>
      <trkpt lat="42.46454" lon="2.77491">
        <ele>712.2</ele>
        <time>2015-09-18T11:31:22Z</time>
      </trkpt>
      <trkpt lat="42.46457" lon="2.77495">
        <ele>710.2</ele>
        <time>2015-09-18T11:31:23Z</time>
      </trkpt>
      <trkpt lat="42.4646" lon="2.77499">
        <ele>709</ele>
        <time>2015-09-18T11:31:24Z</time>
      </trkpt>
      <trkpt lat="42.46463" lon="2.77503">
        <ele>708.3</ele>
        <time>2015-09-18T11:31:25Z</time>
      </trkpt>
      <trkpt lat="42.46465" lon="2.77507">
        <ele>707.8</ele>
        <time>2015-09-18T11:31:26Z</time>
      </trkpt>
      <trkpt lat="42.46467" lon="2.77511">
        <ele>706.8</ele>
        <time>2015-09-18T11:31:27Z</time>
      </trkpt>
      <trkpt lat="42.46469" lon="2.77515">
        <ele>705.2</ele>
        <time>2015-09-18T11:31:28Z</time>
      </trkpt>
      <trkpt lat="42.46471" lon="2.7752">
        <ele>702.4</ele>
        <time>2015-09-18T11:31:29Z</time>
      </trkpt>
      <trkpt lat="42.46475" lon="2.77525">
        <ele>700.6</ele>
        <time>2015-09-18T11:31:30Z</time>
      </trkpt>
      <trkpt lat="42.46479" lon="2.7753">
        <ele>699.5</ele>
        <time>2015-09-18T11:31:31Z</time>
      </trkpt>
      <trkpt lat="42.46482" lon="2.77535">
        <ele>699.2</ele>
        <time>2015-09-18T11:31:32Z</time>
      </trkpt>
      <trkpt lat="42.46485" lon="2.77539">
        <ele>699.2</ele>
        <time>2015-09-18T11:31:33Z</time>
      </trkpt>
      <trkpt lat="42.46491" lon="2.77545">
        <ele>694.8</ele>
        <time>2015-09-18T11:31:35Z</time>
      </trkpt>
      <trkpt lat="42.46491" lon="2.77545">
        <ele>692</ele>
        <time>2015-09-18T11:31:35Z</time>
      </trkpt>
      <trkpt lat="42.46499" lon="2.77553">
        <ele>690.2</ele>
        <time>2015-09-18T11:31:37Z</time>
      </trkpt>
      <trkpt lat="42.46503" lon="2.77558">
        <ele>688.7</ele>
        <time>2015-09-18T11:31:38Z</time>
      </trkpt>
      <trkpt lat="42.46506" lon="2.77563">
        <ele>687.5</ele>
        <time>2015-09-18T11:31:39Z</time>
      </trkpt>
      <trkpt lat="42.4651" lon="2.77567">
        <ele>687.5</ele>
        <time>2015-09-18T11:31:40Z</time>
      </trkpt>
      <trkpt lat="42.46514" lon="2.7757">
        <ele>685.5</ele>
        <time>2015-09-18T11:31:41Z</time>
      </trkpt>
      <trkpt lat="42.46518" lon="2.77573">
        <ele>684.2</ele>
        <time>2015-09-18T11:31:42Z</time>
      </trkpt>
      <trkpt lat="42.46522" lon="2.77577">
        <ele>682.6</ele>
        <time>2015-09-18T11:31:43Z</time>
      </trkpt>
      <trkpt lat="42.46526" lon="2.77582">
        <ele>681</ele>
        <time>2015-09-18T11:31:44Z</time>
      </trkpt>
      <trkpt lat="42.4653" lon="2.77587">
        <ele>679.5</ele>
        <time>2015-09-18T11:31:45Z</time>
      </trkpt>
      <trkpt lat="42.46534" lon="2.77593">
        <ele>678.1</ele>
        <time>2015-09-18T11:31:46Z</time>
      </trkpt>
      <trkpt lat="42.46538" lon="2.77598">
        <ele>676.9</ele>
        <time>2015-09-18T11:31:47Z</time>
      </trkpt>
      <trkpt lat="42.46542" lon="2.77603">
        <ele>676.9</ele>
        <time>2015-09-18T11:31:48Z</time>
      </trkpt>
      <trkpt lat="42.46546" lon="2.77607">
        <ele>673.4</ele>
        <time>2015-09-18T11:31:49Z</time>
      </trkpt>
      <trkpt lat="42.46549" lon="2.77612">
        <ele>672.2</ele>
        <time>2015-09-18T11:31:50Z</time>
      </trkpt>
      <trkpt lat="42.46556" lon="2.77622">
        <ele>670.9</ele>
        <time>2015-09-18T11:31:52Z</time>
      </trkpt>
      <trkpt lat="42.46559" lon="2.77628">
        <ele>669.4</ele>
        <time>2015-09-18T11:31:53Z</time>
      </trkpt>
      <trkpt lat="42.46561" lon="2.77634">
        <ele>667.8</ele>
        <time>2015-09-18T11:31:54Z</time>
      </trkpt>
      <trkpt lat="42.46564" lon="2.77641">
        <ele>666.1</ele>
        <time>2015-09-18T11:31:55Z</time>
      </trkpt>
      <trkpt lat="42.46567" lon="2.77648">
        <ele>664.6</ele>
        <time>2015-09-18T11:31:56Z</time>
      </trkpt>
      <trkpt lat="42.46571" lon="2.77655">
        <ele>663.5</ele>
        <time>2015-09-18T11:31:57Z</time>
      </trkpt>
      <trkpt lat="42.46575" lon="2.7766">
        <ele>663</ele>
        <time>2015-09-18T11:31:58Z</time>
      </trkpt>
      <trkpt lat="42.46579" lon="2.77666">
        <ele>662</ele>
        <time>2015-09-18T11:31:59Z</time>
      </trkpt>
      <trkpt lat="42.46581" lon="2.77672">
        <ele>660.7</ele>
        <time>2015-09-18T11:32:00Z</time>
      </trkpt>
      <trkpt lat="42.46583" lon="2.77679">
        <ele>659.3</ele>
        <time>2015-09-18T11:32:01Z</time>
      </trkpt>
      <trkpt lat="42.46585" lon="2.77686">
        <ele>657.9</ele>
        <time>2015-09-18T11:32:02Z</time>
      </trkpt>
      <trkpt lat="42.46588" lon="2.77692">
        <ele>656.6</ele>
        <time>2015-09-18T11:32:03Z</time>
      </trkpt>
      <trkpt lat="42.46591" lon="2.77698">
        <ele>655.1</ele>
        <time>2015-09-18T11:32:04Z</time>
      </trkpt>
      <trkpt lat="42.46594" lon="2.77704">
        <ele>653</ele>
        <time>2015-09-18T11:32:05Z</time>
      </trkpt>
      <trkpt lat="42.46597" lon="2.7771">
        <ele>649</ele>
        <time>2015-09-18T11:32:06Z</time>
      </trkpt>
      <trkpt lat="42.46601" lon="2.77716">
        <ele>649</ele>
        <time>2015-09-18T11:32:07Z</time>
      </trkpt>
      <trkpt lat="42.46601" lon="2.77716">
        <ele>647.1</ele>
        <time>2015-09-18T11:32:07Z</time>
      </trkpt>
      <trkpt lat="42.46613" lon="2.77736">
        <ele>645.6</ele>
        <time>2015-09-18T11:32:10Z</time>
      </trkpt>
      <trkpt lat="42.46613" lon="2.77736">
        <ele>643.5</ele>
        <time>2015-09-18T11:32:10Z</time>
      </trkpt>
      <trkpt lat="42.46621" lon="2.77748">
        <ele>642.1</ele>
        <time>2015-09-18T11:32:12Z</time>
      </trkpt>
      <trkpt lat="42.46624" lon="2.77753">
        <ele>640.3</ele>
        <time>2015-09-18T11:32:13Z</time>
      </trkpt>
      <trkpt lat="42.46628" lon="2.77759">
        <ele>638.2</ele>
        <time>2015-09-18T11:32:14Z</time>
      </trkpt>
      <trkpt lat="42.46632" lon="2.77765">
        <ele>636.3</ele>
        <time>2015-09-18T11:32:15Z</time>
      </trkpt>
      <trkpt lat="42.46637" lon="2.77771">
        <ele>635</ele>
        <time>2015-09-18T11:32:16Z</time>
      </trkpt>
      <trkpt lat="42.46642" lon="2.77776">
        <ele>634.2</ele>
        <time>2015-09-18T11:32:17Z</time>
      </trkpt>
      <trkpt lat="42.46646" lon="2.7778">
        <ele>633.3</ele>
        <time>2015-09-18T11:32:18Z</time>
      </trkpt>
      <trkpt lat="42.4665" lon="2.77785">
        <ele>632</ele>
        <time>2015-09-18T11:32:19Z</time>
      </trkpt>
      <trkpt lat="42.46655" lon="2.77789">
        <ele>630.6</ele>
        <time>2015-09-18T11:32:20Z</time>
      </trkpt>
      <trkpt lat="42.46659" lon="2.77794">
        <ele>627.9</ele>
        <time>2015-09-18T11:32:21Z</time>
      </trkpt>
      <trkpt lat="42.46668" lon="2.77801">
        <ele>626.9</ele>
        <time>2015-09-18T11:32:23Z</time>
      </trkpt>
      <trkpt lat="42.46672" lon="2.77805">
        <ele>626.1</ele>
        <time>2015-09-18T11:32:24Z</time>
      </trkpt>
      <trkpt lat="42.46676" lon="2.7781">
        <ele>625.5</ele>
        <time>2015-09-18T11:32:25Z</time>
      </trkpt>
      <trkpt lat="42.46676" lon="2.7781">
        <ele>624.3</ele>
        <time>2015-09-18T11:32:25Z</time>
      </trkpt>
      <trkpt lat="42.46688" lon="2.77816">
        <ele>623.9</ele>
        <time>2015-09-18T11:32:27Z</time>
      </trkpt>
      <trkpt lat="42.46694" lon="2.77817">
        <ele>622.5</ele>
        <time>2015-09-18T11:32:28Z</time>
      </trkpt>
      <trkpt lat="42.467" lon="2.77819">
        <ele>622.5</ele>
        <time>2015-09-18T11:32:29Z</time>
      </trkpt>
      <trkpt lat="42.46705" lon="2.77823">
        <ele>619.3</ele>
        <time>2015-09-18T11:32:30Z</time>
      </trkpt>
      <trkpt lat="42.4671" lon="2.77828">
        <ele>619.3</ele>
        <time>2015-09-18T11:32:31Z</time>
      </trkpt>
      <trkpt lat="42.46714" lon="2.77834">
        <ele>616.2</ele>
        <time>2015-09-18T11:32:32Z</time>
      </trkpt>
      <trkpt lat="42.46718" lon="2.77839">
        <ele>615.5</ele>
        <time>2015-09-18T11:32:33Z</time>
      </trkpt>
      <trkpt lat="42.46723" lon="2.77844">
        <ele>614.8</ele>
        <time>2015-09-18T11:32:34Z</time>
      </trkpt>
      <trkpt lat="42.46727" lon="2.77849">
        <ele>614.2</ele>
        <time>2015-09-18T11:32:35Z</time>
      </trkpt>
      <trkpt lat="42.46731" lon="2.77855">
        <ele>613.7</ele>
        <time>2015-09-18T11:32:36Z</time>
      </trkpt>
      <trkpt lat="42.46735" lon="2.77861">
        <ele>613.5</ele>
        <time>2015-09-18T11:32:37Z</time>
      </trkpt>
      <trkpt lat="42.46738" lon="2.77868">
        <ele>613.8</ele>
        <time>2015-09-18T11:32:38Z</time>
      </trkpt>
      <trkpt lat="42.4674" lon="2.77875">
        <ele>614.1</ele>
        <time>2015-09-18T11:32:39Z</time>
      </trkpt>
      <trkpt lat="42.46743" lon="2.77882">
        <ele>613.8</ele>
        <time>2015-09-18T11:32:40Z</time>
      </trkpt>
      <trkpt lat="42.46746" lon="2.77888">
        <ele>611.7</ele>
        <time>2015-09-18T11:32:41Z</time>
      </trkpt>
      <trkpt lat="42.4675" lon="2.77903">
        <ele>611</ele>
        <time>2015-09-18T11:32:43Z</time>
      </trkpt>
      <trkpt lat="42.46751" lon="2.77913">
        <ele>611.6</ele>
        <time>2015-09-18T11:32:44Z</time>
      </trkpt>
      <trkpt lat="42.46751" lon="2.77921">
        <ele>611.6</ele>
        <time>2015-09-18T11:32:45Z</time>
      </trkpt>
      <trkpt lat="42.46752" lon="2.77929">
        <ele>614.5</ele>
        <time>2015-09-18T11:32:46Z</time>
      </trkpt>
      <trkpt lat="42.46754" lon="2.77934">
        <ele>615</ele>
        <time>2015-09-18T11:32:47Z</time>
      </trkpt>
      <trkpt lat="42.46757" lon="2.77938">
        <ele>614.2</ele>
        <time>2015-09-18T11:32:48Z</time>
      </trkpt>
      <trkpt lat="42.4676" lon="2.77941">
        <ele>613</ele>
        <time>2015-09-18T11:32:49Z</time>
      </trkpt>
      <trkpt lat="42.46763" lon="2.77946">
        <ele>611.9</ele>
        <time>2015-09-18T11:32:50Z</time>
      </trkpt>
      <trkpt lat="42.46765" lon="2.77951">
        <ele>610.4</ele>
        <time>2015-09-18T11:32:51Z</time>
      </trkpt>
      <trkpt lat="42.46768" lon="2.77958">
        <ele>609.6</ele>
        <time>2015-09-18T11:32:52Z</time>
      </trkpt>
      <trkpt lat="42.4677" lon="2.77964">
        <ele>609.6</ele>
        <time>2015-09-18T11:32:53Z</time>
      </trkpt>
      <trkpt lat="42.46773" lon="2.7797">
        <ele>609.6</ele>
        <time>2015-09-18T11:32:54Z</time>
      </trkpt>
      <trkpt lat="42.46775" lon="2.77976">
        <ele>609.2</ele>
        <time>2015-09-18T11:32:55Z</time>
      </trkpt>
      <trkpt lat="42.46777" lon="2.77982">
        <ele>608.3</ele>
        <time>2015-09-18T11:32:56Z</time>
      </trkpt>
      <trkpt lat="42.46779" lon="2.77988">
        <ele>606.3</ele>
        <time>2015-09-18T11:32:57Z</time>
      </trkpt>
      <trkpt lat="42.46779" lon="2.77988">
        <ele>605.9</ele>
        <time>2015-09-18T11:32:57Z</time>
      </trkpt>
      <trkpt lat="42.46784" lon="2.78011">
        <ele>605.9</ele>
        <time>2015-09-18T11:33:00Z</time>
      </trkpt>
      <trkpt lat="42.46784" lon="2.78011">
        <ele>607.3</ele>
        <time>2015-09-18T11:33:00Z</time>
      </trkpt>
      <trkpt lat="42.46787" lon="2.78022">
        <ele>607.2</ele>
        <time>2015-09-18T11:33:02Z</time>
      </trkpt>
      <trkpt lat="42.46789" lon="2.78027">
        <ele>606</ele>
        <time>2015-09-18T11:33:03Z</time>
      </trkpt>
      <trkpt lat="42.4679" lon="2.78033">
        <ele>604.6</ele>
        <time>2015-09-18T11:33:04Z</time>
      </trkpt>
      <trkpt lat="42.46793" lon="2.7804">
        <ele>603.8</ele>
        <time>2015-09-18T11:33:05Z</time>
      </trkpt>
      <trkpt lat="42.46794" lon="2.78046">
        <ele>603.7</ele>
        <time>2015-09-18T11:33:06Z</time>
      </trkpt>
      <trkpt lat="42.46796" lon="2.78052">
        <ele>603.3</ele>
        <time>2015-09-18T11:33:07Z</time>
      </trkpt>
      <trkpt lat="42.46796" lon="2.78057">
        <ele>602.1</ele>
        <time>2015-09-18T11:33:08Z</time>
      </trkpt>
      <trkpt lat="42.46797" lon="2.78063">
        <ele>600.3</ele>
        <time>2015-09-18T11:33:09Z</time>
      </trkpt>
      <trkpt lat="42.46798" lon="2.78071">
        <ele>598.3</ele>
        <time>2015-09-18T11:33:10Z</time>
      </trkpt>
      <trkpt lat="42.468" lon="2.78078">
        <ele>595.8</ele>
        <time>2015-09-18T11:33:11Z</time>
      </trkpt>
      <trkpt lat="42.46803" lon="2.78092">
        <ele>594.9</ele>
        <time>2015-09-18T11:33:13Z</time>
      </trkpt>
      <trkpt lat="42.46803" lon="2.78099">
        <ele>592.6</ele>
        <time>2015-09-18T11:33:14Z</time>
      </trkpt>
      <trkpt lat="42.46804" lon="2.78107">
        <ele>590.5</ele>
        <time>2015-09-18T11:33:15Z</time>
      </trkpt>
      <trkpt lat="42.46804" lon="2.78107">
        <ele>589.3</ele>
        <time>2015-09-18T11:33:15Z</time>
      </trkpt>
      <trkpt lat="42.46807" lon="2.78123">
        <ele>589.5</ele>
        <time>2015-09-18T11:33:17Z</time>
      </trkpt>
      <trkpt lat="42.46808" lon="2.7813">
        <ele>590</ele>
        <time>2015-09-18T11:33:18Z</time>
      </trkpt>
      <trkpt lat="42.46809" lon="2.78135">
        <ele>590.7</ele>
        <time>2015-09-18T11:33:19Z</time>
      </trkpt>
      <trkpt lat="42.4681" lon="2.7814">
        <ele>590.7</ele>
        <time>2015-09-18T11:33:20Z</time>
      </trkpt>
      <trkpt lat="42.46811" lon="2.78145">
        <ele>592.4</ele>
        <time>2015-09-18T11:33:21Z</time>
      </trkpt>
      <trkpt lat="42.46813" lon="2.78149">
        <ele>592.8</ele>
        <time>2015-09-18T11:33:22Z</time>
      </trkpt>
      <trkpt lat="42.46814" lon="2.78154">
        <ele>593.4</ele>
        <time>2015-09-18T11:33:23Z</time>
      </trkpt>
      <trkpt lat="42.46815" lon="2.7816">
        <ele>594</ele>
        <time>2015-09-18T11:33:24Z</time>
      </trkpt>
      <trkpt lat="42.46816" lon="2.78166">
        <ele>594.8</ele>
        <time>2015-09-18T11:33:25Z</time>
      </trkpt>
      <trkpt lat="42.46816" lon="2.78166">
        <ele>595.8</ele>
        <time>2015-09-18T11:33:25Z</time>
      </trkpt>
      <trkpt lat="42.46819" lon="2.78175">
        <ele>597</ele>
        <time>2015-09-18T11:33:27Z</time>
      </trkpt>
      <trkpt lat="42.4682" lon="2.7818">
        <ele>598.4</ele>
        <time>2015-09-18T11:33:28Z</time>
      </trkpt>
      <trkpt lat="42.4682" lon="2.78185">
        <ele>600.6</ele>
        <time>2015-09-18T11:33:29Z</time>
      </trkpt>
      <trkpt lat="42.4682" lon="2.78191">
        <ele>602</ele>
        <time>2015-09-18T11:33:30Z</time>
      </trkpt>
      <trkpt lat="42.46819" lon="2.78202">
        <ele>603.6</ele>
        <time>2015-09-18T11:33:32Z</time>
      </trkpt>
      <trkpt lat="42.46817" lon="2.78208">
        <ele>605</ele>
        <time>2015-09-18T11:33:33Z</time>
      </trkpt>
      <trkpt lat="42.46813" lon="2.78215">
        <ele>605.9</ele>
        <time>2015-09-18T11:33:34Z</time>
      </trkpt>
      <trkpt lat="42.46807" lon="2.7822">
        <ele>607.2</ele>
        <time>2015-09-18T11:33:35Z</time>
      </trkpt>
      <trkpt lat="42.46799" lon="2.78227">
        <ele>609.6</ele>
        <time>2015-09-18T11:33:36Z</time>
      </trkpt>
      <trkpt lat="42.46791" lon="2.78233">
        <ele>612.2</ele>
        <time>2015-09-18T11:33:37Z</time>
      </trkpt>
      <trkpt lat="42.46783" lon="2.78238">
        <ele>615</ele>
        <time>2015-09-18T11:33:38Z</time>
      </trkpt>
      <trkpt lat="42.46783" lon="2.78238">
        <ele>617.4</ele>
        <time>2015-09-18T11:33:38Z</time>
      </trkpt>
      <trkpt lat="42.46765" lon="2.78244">
        <ele>619.3</ele>
        <time>2015-09-18T11:33:40Z</time>
      </trkpt>
      <trkpt lat="42.46754" lon="2.78242">
        <ele>620.8</ele>
        <time>2015-09-18T11:33:41Z</time>
      </trkpt>
      <trkpt lat="42.46744" lon="2.78236">
        <ele>622.2</ele>
        <time>2015-09-18T11:33:42Z</time>
      </trkpt>
      <trkpt lat="42.46735" lon="2.78227">
        <ele>624.5</ele>
        <time>2015-09-18T11:33:43Z</time>
      </trkpt>
      <trkpt lat="42.46727" lon="2.78216">
        <ele>625.8</ele>
        <time>2015-09-18T11:33:44Z</time>
      </trkpt>
      <trkpt lat="42.46723" lon="2.78203">
        <ele>626.6</ele>
        <time>2015-09-18T11:33:45Z</time>
      </trkpt>
      <trkpt lat="42.46721" lon="2.78174">
        <ele>627.8</ele>
        <time>2015-09-18T11:33:47Z</time>
      </trkpt>
      <trkpt lat="42.46724" lon="2.78162">
        <ele>628.8</ele>
        <time>2015-09-18T11:33:48Z</time>
      </trkpt>
      <trkpt lat="42.46729" lon="2.78152">
        <ele>629.8</ele>
        <time>2015-09-18T11:33:49Z</time>
      </trkpt>
      <trkpt lat="42.46734" lon="2.78146">
        <ele>630.6</ele>
        <time>2015-09-18T11:33:50Z</time>
      </trkpt>
      <trkpt lat="42.4674" lon="2.78143">
        <ele>631.2</ele>
        <time>2015-09-18T11:33:51Z</time>
      </trkpt>
      <trkpt lat="42.46745" lon="2.78142">
        <ele>632</ele>
        <time>2015-09-18T11:33:52Z</time>
      </trkpt>
      <trkpt lat="42.46749" lon="2.78144">
        <ele>633.5</ele>
        <time>2015-09-18T11:33:53Z</time>
      </trkpt>
      <trkpt lat="42.46752" lon="2.78147">
        <ele>635.7</ele>
        <time>2015-09-18T11:33:54Z</time>
      </trkpt>
      <trkpt lat="42.46755" lon="2.78151">
        <ele>635.7</ele>
        <time>2015-09-18T11:33:55Z</time>
      </trkpt>
      <trkpt lat="42.46756" lon="2.78154">
        <ele>640.6</ele>
        <time>2015-09-18T11:33:56Z</time>
      </trkpt>
      <trkpt lat="42.46756" lon="2.78158">
        <ele>642.6</ele>
        <time>2015-09-18T11:33:57Z</time>
      </trkpt>
      <trkpt lat="42.46757" lon="2.78162">
        <ele>643.9</ele>
        <time>2015-09-18T11:33:58Z</time>
      </trkpt>
      <trkpt lat="42.46757" lon="2.78165">
        <ele>645.4</ele>
        <time>2015-09-18T11:33:59Z</time>
      </trkpt>
      <trkpt lat="42.46757" lon="2.78165">
        <ele>645.9</ele>
        <time>2015-09-18T11:33:59Z</time>
      </trkpt>
      <trkpt lat="42.46755" lon="2.78181">
        <ele>646.6</ele>
        <time>2015-09-18T11:34:02Z</time>
      </trkpt>
      <trkpt lat="42.46752" lon="2.78188">
        <ele>646.6</ele>
        <time>2015-09-18T11:34:03Z</time>
      </trkpt>
      <trkpt lat="42.4675" lon="2.78194">
        <ele>648.4</ele>
        <time>2015-09-18T11:34:04Z</time>
      </trkpt>
      <trkpt lat="42.46748" lon="2.782">
        <ele>649.5</ele>
        <time>2015-09-18T11:34:05Z</time>
      </trkpt>
      <trkpt lat="42.46746" lon="2.78206">
        <ele>650.5</ele>
        <time>2015-09-18T11:34:06Z</time>
      </trkpt>
      <trkpt lat="42.46744" lon="2.78212">
        <ele>651.6</ele>
        <time>2015-09-18T11:34:07Z</time>
      </trkpt>
      <trkpt lat="42.46741" lon="2.78219">
        <ele>652.5</ele>
        <time>2015-09-18T11:34:08Z</time>
      </trkpt>
      <trkpt lat="42.46738" lon="2.78226">
        <ele>653.1</ele>
        <time>2015-09-18T11:34:09Z</time>
      </trkpt>
      <trkpt lat="42.46734" lon="2.78234">
        <ele>653.7</ele>
        <time>2015-09-18T11:34:10Z</time>
      </trkpt>
      <trkpt lat="42.46731" lon="2.78242">
        <ele>654</ele>
        <time>2015-09-18T11:34:11Z</time>
      </trkpt>
      <trkpt lat="42.46725" lon="2.78249">
        <ele>654.5</ele>
        <time>2015-09-18T11:34:12Z</time>
      </trkpt>
      <trkpt lat="42.46719" lon="2.78256">
        <ele>655</ele>
        <time>2015-09-18T11:34:13Z</time>
      </trkpt>
      <trkpt lat="42.46711" lon="2.78262">
        <ele>655.6</ele>
        <time>2015-09-18T11:34:14Z</time>
      </trkpt>
      <trkpt lat="42.46701" lon="2.78267">
        <ele>656</ele>
        <time>2015-09-18T11:34:15Z</time>
      </trkpt>
      <trkpt lat="42.4669" lon="2.78269">
        <ele>656.2</ele>
        <time>2015-09-18T11:34:16Z</time>
      </trkpt>
      <trkpt lat="42.46678" lon="2.78268">
        <ele>655.3</ele>
        <time>2015-09-18T11:34:17Z</time>
      </trkpt>
      <trkpt lat="42.46665" lon="2.7826">
        <ele>654.3</ele>
        <time>2015-09-18T11:34:18Z</time>
      </trkpt>
      <trkpt lat="42.4665" lon="2.7823">
        <ele>653.2</ele>
        <time>2015-09-18T11:34:20Z</time>
      </trkpt>
      <trkpt lat="42.4665" lon="2.7823">
        <ele>652.6</ele>
        <time>2015-09-18T11:34:20Z</time>
      </trkpt>
      <trkpt lat="42.46649" lon="2.78202">
        <ele>654.2</ele>
        <time>2015-09-18T11:34:22Z</time>
      </trkpt>
      <trkpt lat="42.46651" lon="2.78192">
        <ele>655.9</ele>
        <time>2015-09-18T11:34:23Z</time>
      </trkpt>
      <trkpt lat="42.46651" lon="2.78182">
        <ele>657.8</ele>
        <time>2015-09-18T11:34:24Z</time>
      </trkpt>
      <trkpt lat="42.4665" lon="2.78172">
        <ele>658.4</ele>
        <time>2015-09-18T11:34:25Z</time>
      </trkpt>
      <trkpt lat="42.46651" lon="2.78162">
        <ele>658.1</ele>
        <time>2015-09-18T11:34:26Z</time>
      </trkpt>
      <trkpt lat="42.46653" lon="2.78154">
        <ele>657.6</ele>
        <time>2015-09-18T11:34:27Z</time>
      </trkpt>
      <trkpt lat="42.46657" lon="2.78148">
        <ele>657.6</ele>
        <time>2015-09-18T11:34:28Z</time>
      </trkpt>
      <trkpt lat="42.46661" lon="2.78145">
        <ele>656.6</ele>
        <time>2015-09-18T11:34:29Z</time>
      </trkpt>
      <trkpt lat="42.46665" lon="2.78142">
        <ele>656.6</ele>
        <time>2015-09-18T11:34:30Z</time>
      </trkpt>
      <trkpt lat="42.46668" lon="2.7814">
        <ele>656.7</ele>
        <time>2015-09-18T11:34:31Z</time>
      </trkpt>
      <trkpt lat="42.46673" lon="2.78129">
        <ele>661.6</ele>
        <time>2015-09-18T11:34:33Z</time>
      </trkpt>
      <trkpt lat="42.46676" lon="2.78128">
        <ele>665.6</ele>
        <time>2015-09-18T11:34:34Z</time>
      </trkpt>
      <trkpt lat="42.46679" lon="2.78128">
        <ele>667.1</ele>
        <time>2015-09-18T11:34:35Z</time>
      </trkpt>
      <trkpt lat="42.46682" lon="2.78129">
        <ele>668.9</ele>
        <time>2015-09-18T11:34:36Z</time>
      </trkpt>
      <trkpt lat="42.46685" lon="2.78131">
        <ele>670.8</ele>
        <time>2015-09-18T11:34:37Z</time>
      </trkpt>
      <trkpt lat="42.46685" lon="2.78134">
        <ele>671.7</ele>
        <time>2015-09-18T11:34:38Z</time>
      </trkpt>
      <trkpt lat="42.46683" lon="2.78139">
        <ele>671.4</ele>
        <time>2015-09-18T11:34:39Z</time>
      </trkpt>
      <trkpt lat="42.46679" lon="2.78144">
        <ele>670.6</ele>
        <time>2015-09-18T11:34:40Z</time>
      </trkpt>
      <trkpt lat="42.46671" lon="2.78149">
        <ele>669.4</ele>
        <time>2015-09-18T11:34:41Z</time>
      </trkpt>
      <trkpt lat="42.4666" lon="2.78153">
        <ele>669.3</ele>
        <time>2015-09-18T11:34:42Z</time>
      </trkpt>
      <trkpt lat="42.46648" lon="2.78155">
        <ele>671.6</ele>
        <time>2015-09-18T11:34:43Z</time>
      </trkpt>
      <trkpt lat="42.46636" lon="2.78157">
        <ele>675.9</ele>
        <time>2015-09-18T11:34:44Z</time>
      </trkpt>
      <trkpt lat="42.46626" lon="2.78158">
        <ele>680.4</ele>
        <time>2015-09-18T11:34:45Z</time>
      </trkpt>
      <trkpt lat="42.46615" lon="2.78158">
        <ele>680.4</ele>
        <time>2015-09-18T11:34:46Z</time>
      </trkpt>
      <trkpt lat="42.46605" lon="2.78156">
        <ele>683.6</ele>
        <time>2015-09-18T11:34:47Z</time>
      </trkpt>
      <trkpt lat="42.46582" lon="2.78142">
        <ele>686.6</ele>
        <time>2015-09-18T11:34:49Z</time>
      </trkpt>
      <trkpt lat="42.46573" lon="2.78129">
        <ele>688.4</ele>
        <time>2015-09-18T11:34:50Z</time>
      </trkpt>
      <trkpt lat="42.46573" lon="2.78129">
        <ele>691.3</ele>
        <time>2015-09-18T11:34:50Z</time>
      </trkpt>
      <trkpt lat="42.46561" lon="2.78099">
        <ele>694.6</ele>
        <time>2015-09-18T11:34:52Z</time>
      </trkpt>
      <trkpt lat="42.46556" lon="2.78085">
        <ele>697.5</ele>
        <time>2015-09-18T11:34:53Z</time>
      </trkpt>
      <trkpt lat="42.46554" lon="2.78073">
        <ele>699</ele>
        <time>2015-09-18T11:34:54Z</time>
      </trkpt>
      <trkpt lat="42.46549" lon="2.7806">
        <ele>699</ele>
        <time>2015-09-18T11:34:55Z</time>
      </trkpt>
      <trkpt lat="42.46545" lon="2.78046">
        <ele>699.2</ele>
        <time>2015-09-18T11:34:56Z</time>
      </trkpt>
      <trkpt lat="42.46542" lon="2.7803">
        <ele>700.3</ele>
        <time>2015-09-18T11:34:57Z</time>
      </trkpt>
      <trkpt lat="42.4654" lon="2.78014">
        <ele>703</ele>
        <time>2015-09-18T11:34:58Z</time>
      </trkpt>
      <trkpt lat="42.46539" lon="2.77998">
        <ele>706.3</ele>
        <time>2015-09-18T11:34:59Z</time>
      </trkpt>
      <trkpt lat="42.46539" lon="2.77984">
        <ele>709.2</ele>
        <time>2015-09-18T11:35:00Z</time>
      </trkpt>
      <trkpt lat="42.46542" lon="2.77958">
        <ele>713.9</ele>
        <time>2015-09-18T11:35:02Z</time>
      </trkpt>
      <trkpt lat="42.46544" lon="2.77947">
        <ele>713.9</ele>
        <time>2015-09-18T11:35:03Z</time>
      </trkpt>
      <trkpt lat="42.46546" lon="2.77938">
        <ele>719.4</ele>
        <time>2015-09-18T11:35:04Z</time>
      </trkpt>
      <trkpt lat="42.46548" lon="2.77931">
        <ele>721.3</ele>
        <time>2015-09-18T11:35:05Z</time>
      </trkpt>
      <trkpt lat="42.46552" lon="2.77928">
        <ele>722.4</ele>
        <time>2015-09-18T11:35:06Z</time>
      </trkpt>
      <trkpt lat="42.46555" lon="2.77925">
        <ele>723.6</ele>
        <time>2015-09-18T11:35:07Z</time>
      </trkpt>
      <trkpt lat="42.46557" lon="2.77923">
        <ele>724.8</ele>
        <time>2015-09-18T11:35:08Z</time>
      </trkpt>
      <trkpt lat="42.46559" lon="2.77922">
        <ele>725.1</ele>
        <time>2015-09-18T11:35:09Z</time>
      </trkpt>
      <trkpt lat="42.46559" lon="2.77925">
        <ele>725.4</ele>
        <time>2015-09-18T11:35:10Z</time>
      </trkpt>
      <trkpt lat="42.46559" lon="2.7793">
        <ele>724.4</ele>
        <time>2015-09-18T11:35:11Z</time>
      </trkpt>
      <trkpt lat="42.46557" lon="2.77938">
        <ele>724.1</ele>
        <time>2015-09-18T11:35:12Z</time>
      </trkpt>
      <trkpt lat="42.46555" lon="2.77946">
        <ele>724.5</ele>
        <time>2015-09-18T11:35:13Z</time>
      </trkpt>
      <trkpt lat="42.46551" lon="2.77954">
        <ele>724.8</ele>
        <time>2015-09-18T11:35:14Z</time>
      </trkpt>
      <trkpt lat="42.46546" lon="2.77961">
        <ele>724.3</ele>
        <time>2015-09-18T11:35:15Z</time>
      </trkpt>
      <trkpt lat="42.46539" lon="2.77969">
        <ele>724.3</ele>
        <time>2015-09-18T11:35:16Z</time>
      </trkpt>
      <trkpt lat="42.46521" lon="2.77982">
        <ele>725</ele>
        <time>2015-09-18T11:35:18Z</time>
      </trkpt>
      <trkpt lat="42.46509" lon="2.77984">
        <ele>726</ele>
        <time>2015-09-18T11:35:19Z</time>
      </trkpt>
      <trkpt lat="42.46495" lon="2.77982">
        <ele>727.8</ele>
        <time>2015-09-18T11:35:20Z</time>
      </trkpt>
      <trkpt lat="42.46483" lon="2.77976">
        <ele>731.1</ele>
        <time>2015-09-18T11:35:21Z</time>
      </trkpt>
      <trkpt lat="42.46472" lon="2.77968">
        <ele>735</ele>
        <time>2015-09-18T11:35:22Z</time>
      </trkpt>
      <trkpt lat="42.46462" lon="2.7796">
        <ele>738.7</ele>
        <time>2015-09-18T11:35:23Z</time>
      </trkpt>
      <trkpt lat="42.46453" lon="2.77953">
        <ele>741.7</ele>
        <time>2015-09-18T11:35:24Z</time>
      </trkpt>
      <trkpt lat="42.46443" lon="2.77947">
        <ele>744.5</ele>
        <time>2015-09-18T11:35:25Z</time>
      </trkpt>
      <trkpt lat="42.46433" lon="2.7794">
        <ele>745.1</ele>
        <time>2015-09-18T11:35:26Z</time>
      </trkpt>
      <trkpt lat="42.46424" lon="2.77931">
        <ele>746.8</ele>
        <time>2015-09-18T11:35:27Z</time>
      </trkpt>
      <trkpt lat="42.46415" lon="2.7792">
        <ele>748.1</ele>
        <time>2015-09-18T11:35:28Z</time>
      </trkpt>
      <trkpt lat="42.46408" lon="2.77907">
        <ele>749.1</ele>
        <time>2015-09-18T11:35:29Z</time>
      </trkpt>
      <trkpt lat="42.46402" lon="2.77892">
        <ele>750.7</ele>
        <time>2015-09-18T11:35:30Z</time>
      </trkpt>
      <trkpt lat="42.46399" lon="2.77878">
        <ele>753.4</ele>
        <time>2015-09-18T11:35:31Z</time>
      </trkpt>
      <trkpt lat="42.46398" lon="2.77865">
        <ele>756.4</ele>
        <time>2015-09-18T11:35:32Z</time>
      </trkpt>
      <trkpt lat="42.46398" lon="2.77842">
        <ele>759.1</ele>
        <time>2015-09-18T11:35:34Z</time>
      </trkpt>
      <trkpt lat="42.46399" lon="2.77831">
        <ele>762.7</ele>
        <time>2015-09-18T11:35:35Z</time>
      </trkpt>
      <trkpt lat="42.46399" lon="2.77831">
        <ele>764.2</ele>
        <time>2015-09-18T11:35:35Z</time>
      </trkpt>
      <trkpt lat="42.46401" lon="2.77808">
        <ele>765.9</ele>
        <time>2015-09-18T11:35:37Z</time>
      </trkpt>
      <trkpt lat="42.46403" lon="2.77799">
        <ele>767.3</ele>
        <time>2015-09-18T11:35:38Z</time>
      </trkpt>
      <trkpt lat="42.46405" lon="2.77792">
        <ele>767.3</ele>
        <time>2015-09-18T11:35:39Z</time>
      </trkpt>
      <trkpt lat="42.46408" lon="2.77787">
        <ele>768.6</ele>
        <time>2015-09-18T11:35:40Z</time>
      </trkpt>
      <trkpt lat="42.46411" lon="2.77784">
        <ele>769</ele>
        <time>2015-09-18T11:35:41Z</time>
      </trkpt>
      <trkpt lat="42.46415" lon="2.77781">
        <ele>769.8</ele>
        <time>2015-09-18T11:35:42Z</time>
      </trkpt>
      <trkpt lat="42.46419" lon="2.77777">
        <ele>770.9</ele>
        <time>2015-09-18T11:35:43Z</time>
      </trkpt>
      <trkpt lat="42.46422" lon="2.77771">
        <ele>771.2</ele>
        <time>2015-09-18T11:35:44Z</time>
      </trkpt>
      <trkpt lat="42.46425" lon="2.77763">
        <ele>772.4</ele>
        <time>2015-09-18T11:35:45Z</time>
      </trkpt>
      <trkpt lat="42.46427" lon="2.77743">
        <ele>775.2</ele>
        <time>2015-09-18T11:35:47Z</time>
      </trkpt>
      <trkpt lat="42.46427" lon="2.77732">
        <ele>777</ele>
        <time>2015-09-18T11:35:48Z</time>
      </trkpt>
      <trkpt lat="42.46428" lon="2.77721">
        <ele>778.8</ele>
        <time>2015-09-18T11:35:49Z</time>
      </trkpt>
      <trkpt lat="42.46428" lon="2.77709">
        <ele>778.8</ele>
        <time>2015-09-18T11:35:50Z</time>
      </trkpt>
      <trkpt lat="42.46427" lon="2.77696">
        <ele>782.7</ele>
        <time>2015-09-18T11:35:51Z</time>
      </trkpt>
      <trkpt lat="42.46427" lon="2.77684">
        <ele>784.8</ele>
        <time>2015-09-18T11:35:52Z</time>
      </trkpt>
      <trkpt lat="42.46426" lon="2.77671">
        <ele>787</ele>
        <time>2015-09-18T11:35:53Z</time>
      </trkpt>
      <trkpt lat="42.46427" lon="2.7766">
        <ele>789</ele>
        <time>2015-09-18T11:35:54Z</time>
      </trkpt>
      <trkpt lat="42.46428" lon="2.77649">
        <ele>790.6</ele>
        <time>2015-09-18T11:35:55Z</time>
      </trkpt>
      <trkpt lat="42.4643" lon="2.77639">
        <ele>792.1</ele>
        <time>2015-09-18T11:35:56Z</time>
      </trkpt>
      <trkpt lat="42.46434" lon="2.77631">
        <ele>793.8</ele>
        <time>2015-09-18T11:35:57Z</time>
      </trkpt>
      <trkpt lat="42.46437" lon="2.77628">
        <ele>795.7</ele>
        <time>2015-09-18T11:35:58Z</time>
      </trkpt>
      <trkpt lat="42.4644" lon="2.77628">
        <ele>797.3</ele>
        <time>2015-09-18T11:35:59Z</time>
      </trkpt>
      <trkpt lat="42.46441" lon="2.77631">
        <ele>798.7</ele>
        <time>2015-09-18T11:36:00Z</time>
      </trkpt>
      <trkpt lat="42.46442" lon="2.77634">
        <ele>800</ele>
        <time>2015-09-18T11:36:01Z</time>
      </trkpt>
      <trkpt lat="42.46443" lon="2.77638">
        <ele>801.9</ele>
        <time>2015-09-18T11:36:02Z</time>
      </trkpt>
      <trkpt lat="42.46444" lon="2.77644">
        <ele>802.6</ele>
        <time>2015-09-18T11:36:03Z</time>
      </trkpt>
      <trkpt lat="42.4644" lon="2.77658">
        <ele>803.4</ele>
        <time>2015-09-18T11:36:05Z</time>
      </trkpt>
      <trkpt lat="42.4644" lon="2.77658">
        <ele>804.1</ele>
        <time>2015-09-18T11:36:05Z</time>
      </trkpt>
      <trkpt lat="42.46433" lon="2.77673">
        <ele>804.3</ele>
        <time>2015-09-18T11:36:07Z</time>
      </trkpt>
      <trkpt lat="42.46427" lon="2.77681">
        <ele>803.8</ele>
        <time>2015-09-18T11:36:08Z</time>
      </trkpt>
      <trkpt lat="42.46418" lon="2.77688">
        <ele>803</ele>
        <time>2015-09-18T11:36:09Z</time>
      </trkpt>
      <trkpt lat="42.46406" lon="2.77695">
        <ele>800.5</ele>
        <time>2015-09-18T11:36:10Z</time>
      </trkpt>
      <trkpt lat="42.46393" lon="2.77697">
        <ele>800.5</ele>
        <time>2015-09-18T11:36:11Z</time>
      </trkpt>
      <trkpt lat="42.4638" lon="2.77697">
        <ele>797.6</ele>
        <time>2015-09-18T11:36:12Z</time>
      </trkpt>
      <trkpt lat="42.46366" lon="2.77692">
        <ele>798</ele>
        <time>2015-09-18T11:36:13Z</time>
      </trkpt>
      <trkpt lat="42.46354" lon="2.77684">
        <ele>798</ele>
        <time>2015-09-18T11:36:14Z</time>
      </trkpt>
      <trkpt lat="42.46342" lon="2.77673">
        <ele>800.6</ele>
        <time>2015-09-18T11:36:15Z</time>
      </trkpt>
      <trkpt lat="42.46332" lon="2.77661">
        <ele>801.8</ele>
        <time>2015-09-18T11:36:16Z</time>
      </trkpt>
      <trkpt lat="42.46332" lon="2.77661">
        <ele>802.3</ele>
        <time>2015-09-18T11:36:16Z</time>
      </trkpt>
      <trkpt lat="42.46314" lon="2.77617">
        <ele>803.3</ele>
        <time>2015-09-18T11:36:19Z</time>
      </trkpt>
      <trkpt lat="42.46312" lon="2.77602">
        <ele>804.5</ele>
        <time>2015-09-18T11:36:20Z</time>
      </trkpt>
      <trkpt lat="42.46312" lon="2.77602">
        <ele>805.7</ele>
        <time>2015-09-18T11:36:20Z</time>
      </trkpt>
      <trkpt lat="42.46312" lon="2.77576">
        <ele>807</ele>
        <time>2015-09-18T11:36:22Z</time>
      </trkpt>
      <trkpt lat="42.46313" lon="2.77564">
        <ele>808.5</ele>
        <time>2015-09-18T11:36:23Z</time>
      </trkpt>
      <trkpt lat="42.46315" lon="2.77553">
        <ele>810.3</ele>
        <time>2015-09-18T11:36:24Z</time>
      </trkpt>
      <trkpt lat="42.46317" lon="2.77543">
        <ele>812.2</ele>
        <time>2015-09-18T11:36:25Z</time>
      </trkpt>
      <trkpt lat="42.46319" lon="2.77533">
        <ele>813.8</ele>
        <time>2015-09-18T11:36:26Z</time>
      </trkpt>
      <trkpt lat="42.46322" lon="2.77526">
        <ele>815.6</ele>
        <time>2015-09-18T11:36:27Z</time>
      </trkpt>
      <trkpt lat="42.46325" lon="2.7752">
        <ele>817.3</ele>
        <time>2015-09-18T11:36:28Z</time>
      </trkpt>
      <trkpt lat="42.46329" lon="2.77517">
        <ele>819</ele>
        <time>2015-09-18T11:36:29Z</time>
      </trkpt>
      <trkpt lat="42.46332" lon="2.77514">
        <ele>820.5</ele>
        <time>2015-09-18T11:36:30Z</time>
      </trkpt>
      <trkpt lat="42.46335" lon="2.77512">
        <ele>821.7</ele>
        <time>2015-09-18T11:36:31Z</time>
      </trkpt>
      <trkpt lat="42.46337" lon="2.77511">
        <ele>823.1</ele>
        <time>2015-09-18T11:36:32Z</time>
      </trkpt>
      <trkpt lat="42.46342" lon="2.77515">
        <ele>823.2</ele>
        <time>2015-09-18T11:36:34Z</time>
      </trkpt>
      <trkpt lat="42.46344" lon="2.77519">
        <ele>823.1</ele>
        <time>2015-09-18T11:36:35Z</time>
      </trkpt>
      <trkpt lat="42.46344" lon="2.77519">
        <ele>823.9</ele>
        <time>2015-09-18T11:36:35Z</time>
      </trkpt>
      <trkpt lat="42.46347" lon="2.77528">
        <ele>824.9</ele>
        <time>2015-09-18T11:36:37Z</time>
      </trkpt>
      <trkpt lat="42.46348" lon="2.77533">
        <ele>825.4</ele>
        <time>2015-09-18T11:36:38Z</time>
      </trkpt>
      <trkpt lat="42.46346" lon="2.77539">
        <ele>825.3</ele>
        <time>2015-09-18T11:36:39Z</time>
      </trkpt>
      <trkpt lat="42.46343" lon="2.77546">
        <ele>824.8</ele>
        <time>2015-09-18T11:36:40Z</time>
      </trkpt>
      <trkpt lat="42.46339" lon="2.77554">
        <ele>824.1</ele>
        <time>2015-09-18T11:36:41Z</time>
      </trkpt>
      <trkpt lat="42.46333" lon="2.77561">
        <ele>824</ele>
        <time>2015-09-18T11:36:42Z</time>
      </trkpt>
      <trkpt lat="42.46325" lon="2.77567">
        <ele>823.5</ele>
        <time>2015-09-18T11:36:43Z</time>
      </trkpt>
      <trkpt lat="42.46315" lon="2.77571">
        <ele>823</ele>
        <time>2015-09-18T11:36:44Z</time>
      </trkpt>
      <trkpt lat="42.46303" lon="2.77572">
        <ele>822.4</ele>
        <time>2015-09-18T11:36:45Z</time>
      </trkpt>
      <trkpt lat="42.46291" lon="2.77571">
        <ele>822</ele>
        <time>2015-09-18T11:36:46Z</time>
      </trkpt>
      <trkpt lat="42.46278" lon="2.77566">
        <ele>822</ele>
        <time>2015-09-18T11:36:47Z</time>
      </trkpt>
      <trkpt lat="42.46265" lon="2.77559">
        <ele>821.9</ele>
        <time>2015-09-18T11:36:48Z</time>
      </trkpt>
      <trkpt lat="42.46253" lon="2.77549">
        <ele>822.7</ele>
        <time>2015-09-18T11:36:49Z</time>
      </trkpt>
      <trkpt lat="42.46241" lon="2.77538">
        <ele>825.9</ele>
        <time>2015-09-18T11:36:50Z</time>
      </trkpt>
      <trkpt lat="42.46224" lon="2.77512">
        <ele>828</ele>
        <time>2015-09-18T11:36:52Z</time>
      </trkpt>
      <trkpt lat="42.46217" lon="2.77499">
        <ele>829.9</ele>
        <time>2015-09-18T11:36:53Z</time>
      </trkpt>
      <trkpt lat="42.4621" lon="2.77486">
        <ele>831.6</ele>
        <time>2015-09-18T11:36:54Z</time>
      </trkpt>
      <trkpt lat="42.46204" lon="2.77473">
        <ele>833.2</ele>
        <time>2015-09-18T11:36:55Z</time>
      </trkpt>
      <trkpt lat="42.462" lon="2.77459">
        <ele>834.8</ele>
        <time>2015-09-18T11:36:56Z</time>
      </trkpt>
      <trkpt lat="42.46197" lon="2.77444">
        <ele>836.6</ele>
        <time>2015-09-18T11:36:57Z</time>
      </trkpt>
      <trkpt lat="42.46196" lon="2.77431">
        <ele>836.6</ele>
        <time>2015-09-18T11:36:58Z</time>
      </trkpt>
      <trkpt lat="42.46196" lon="2.7742">
        <ele>839.8</ele>
        <time>2015-09-18T11:36:59Z</time>
      </trkpt>
      <trkpt lat="42.46196" lon="2.77409">
        <ele>841.2</ele>
        <time>2015-09-18T11:37:00Z</time>
      </trkpt>
      <trkpt lat="42.46197" lon="2.774">
        <ele>842.1</ele>
        <time>2015-09-18T11:37:01Z</time>
      </trkpt>
      <trkpt lat="42.46199" lon="2.77392">
        <ele>842.8</ele>
        <time>2015-09-18T11:37:02Z</time>
      </trkpt>
      <trkpt lat="42.46206" lon="2.77382">
        <ele>843</ele>
        <time>2015-09-18T11:37:04Z</time>
      </trkpt>
      <trkpt lat="42.4621" lon="2.7738">
        <ele>843.2</ele>
        <time>2015-09-18T11:37:05Z</time>
      </trkpt>
      <trkpt lat="42.4621" lon="2.7738">
        <ele>843.5</ele>
        <time>2015-09-18T11:37:05Z</time>
      </trkpt>
      <trkpt lat="42.46218" lon="2.77382">
        <ele>844.3</ele>
        <time>2015-09-18T11:37:07Z</time>
      </trkpt>
      <trkpt lat="42.4622" lon="2.77385">
        <ele>844.3</ele>
        <time>2015-09-18T11:37:08Z</time>
      </trkpt>
      <trkpt lat="42.46223" lon="2.77388">
        <ele>844.3</ele>
        <time>2015-09-18T11:37:09Z</time>
      </trkpt>
      <trkpt lat="42.46226" lon="2.77392">
        <ele>848</ele>
        <time>2015-09-18T11:37:10Z</time>
      </trkpt>
      <trkpt lat="42.46228" lon="2.77395">
        <ele>848.8</ele>
        <time>2015-09-18T11:37:11Z</time>
      </trkpt>
      <trkpt lat="42.4623" lon="2.77399">
        <ele>849.3</ele>
        <time>2015-09-18T11:37:12Z</time>
      </trkpt>
      <trkpt lat="42.46231" lon="2.77401">
        <ele>849.3</ele>
        <time>2015-09-18T11:37:13Z</time>
      </trkpt>
      <trkpt lat="42.46233" lon="2.77405">
        <ele>848.8</ele>
        <time>2015-09-18T11:37:14Z</time>
      </trkpt>
      <trkpt lat="42.46235" lon="2.7741">
        <ele>849.1</ele>
        <time>2015-09-18T11:37:15Z</time>
      </trkpt>
      <trkpt lat="42.46237" lon="2.77413">
        <ele>849.8</ele>
        <time>2015-09-18T11:37:16Z</time>
      </trkpt>
      <trkpt lat="42.46239" lon="2.77416">
        <ele>851</ele>
        <time>2015-09-18T11:37:17Z</time>
      </trkpt>
      <trkpt lat="42.4624" lon="2.77419">
        <ele>852.1</ele>
        <time>2015-09-18T11:37:18Z</time>
      </trkpt>
      <trkpt lat="42.46242" lon="2.77422">
        <ele>852.4</ele>
        <time>2015-09-18T11:37:19Z</time>
      </trkpt>
      <trkpt lat="42.46244" lon="2.77426">
        <ele>852.3</ele>
        <time>2015-09-18T11:37:20Z</time>
      </trkpt>
      <trkpt lat="42.46246" lon="2.77431">
        <ele>852.5</ele>
        <time>2015-09-18T11:37:21Z</time>
      </trkpt>
      <trkpt lat="42.4625" lon="2.7744">
        <ele>854.9</ele>
        <time>2015-09-18T11:37:23Z</time>
      </trkpt>
      <trkpt lat="42.46251" lon="2.77444">
        <ele>855.6</ele>
        <time>2015-09-18T11:37:24Z</time>
      </trkpt>
      <trkpt lat="42.46252" lon="2.77448">
        <ele>855.3</ele>
        <time>2015-09-18T11:37:25Z</time>
      </trkpt>
      <trkpt lat="42.46252" lon="2.77452">
        <ele>854.9</ele>
        <time>2015-09-18T11:37:26Z</time>
      </trkpt>
      <trkpt lat="42.46252" lon="2.77457">
        <ele>854.4</ele>
        <time>2015-09-18T11:37:27Z</time>
      </trkpt>
      <trkpt lat="42.46251" lon="2.77463">
        <ele>854.1</ele>
        <time>2015-09-18T11:37:28Z</time>
      </trkpt>
      <trkpt lat="42.46248" lon="2.77468">
        <ele>853.8</ele>
        <time>2015-09-18T11:37:29Z</time>
      </trkpt>
      <trkpt lat="42.46243" lon="2.77474">
        <ele>852.9</ele>
        <time>2015-09-18T11:37:30Z</time>
      </trkpt>
      <trkpt lat="42.46236" lon="2.7748">
        <ele>851.7</ele>
        <time>2015-09-18T11:37:31Z</time>
      </trkpt>
      <trkpt lat="42.46226" lon="2.77484">
        <ele>850.4</ele>
        <time>2015-09-18T11:37:32Z</time>
      </trkpt>
      <trkpt lat="42.46214" lon="2.77483">
        <ele>848</ele>
        <time>2015-09-18T11:37:33Z</time>
      </trkpt>
      <trkpt lat="42.46202" lon="2.77475">
        <ele>846.3</ele>
        <time>2015-09-18T11:37:34Z</time>
      </trkpt>
      <trkpt lat="42.46192" lon="2.77462">
        <ele>845.1</ele>
        <time>2015-09-18T11:37:35Z</time>
      </trkpt>
      <trkpt lat="42.46187" lon="2.77445">
        <ele>845.1</ele>
        <time>2015-09-18T11:37:36Z</time>
      </trkpt>
      <trkpt lat="42.46186" lon="2.77431">
        <ele>844.2</ele>
        <time>2015-09-18T11:37:37Z</time>
      </trkpt>
      <trkpt lat="42.46188" lon="2.7742">
        <ele>844.2</ele>
        <time>2015-09-18T11:37:38Z</time>
      </trkpt>
      <trkpt lat="42.46195" lon="2.77405">
        <ele>844.6</ele>
        <time>2015-09-18T11:37:40Z</time>
      </trkpt>
      <trkpt lat="42.46195" lon="2.77405">
        <ele>844.7</ele>
        <time>2015-09-18T11:37:40Z</time>
      </trkpt>
      <trkpt lat="42.46199" lon="2.77391">
        <ele>844.2</ele>
        <time>2015-09-18T11:37:42Z</time>
      </trkpt>
      <trkpt lat="42.46202" lon="2.77383">
        <ele>843.4</ele>
        <time>2015-09-18T11:37:43Z</time>
      </trkpt>
      <trkpt lat="42.46205" lon="2.77375">
        <ele>842.5</ele>
        <time>2015-09-18T11:37:44Z</time>
      </trkpt>
      <trkpt lat="42.46208" lon="2.7737">
        <ele>842.3</ele>
        <time>2015-09-18T11:37:45Z</time>
      </trkpt>
      <trkpt lat="42.46212" lon="2.77365">
        <ele>842.3</ele>
        <time>2015-09-18T11:37:46Z</time>
      </trkpt>
      <trkpt lat="42.46215" lon="2.77361">
        <ele>842.2</ele>
        <time>2015-09-18T11:37:47Z</time>
      </trkpt>
      <trkpt lat="42.46217" lon="2.77356">
        <ele>841.8</ele>
        <time>2015-09-18T11:37:48Z</time>
      </trkpt>
      <trkpt lat="42.4622" lon="2.77352">
        <ele>841.3</ele>
        <time>2015-09-18T11:37:49Z</time>
      </trkpt>
      <trkpt lat="42.46223" lon="2.77348">
        <ele>841</ele>
        <time>2015-09-18T11:37:50Z</time>
      </trkpt>
      <trkpt lat="42.46227" lon="2.77346">
        <ele>841</ele>
        <time>2015-09-18T11:37:51Z</time>
      </trkpt>
      <trkpt lat="42.46231" lon="2.77344">
        <ele>841.4</ele>
        <time>2015-09-18T11:37:52Z</time>
      </trkpt>
      <trkpt lat="42.46234" lon="2.77342">
        <ele>842.2</ele>
        <time>2015-09-18T11:37:53Z</time>
      </trkpt>
      <trkpt lat="42.46237" lon="2.7734">
        <ele>842.5</ele>
        <time>2015-09-18T11:37:54Z</time>
      </trkpt>
      <trkpt lat="42.4624" lon="2.77338">
        <ele>842.4</ele>
        <time>2015-09-18T11:37:55Z</time>
      </trkpt>
      <trkpt lat="42.46246" lon="2.77338">
        <ele>842.1</ele>
        <time>2015-09-18T11:37:57Z</time>
      </trkpt>
      <trkpt lat="42.46249" lon="2.77338">
        <ele>842</ele>
        <time>2015-09-18T11:37:58Z</time>
      </trkpt>
      <trkpt lat="42.46252" lon="2.77339">
        <ele>842</ele>
        <time>2015-09-18T11:37:59Z</time>
      </trkpt>
      <trkpt lat="42.46255" lon="2.77339">
        <ele>842.1</ele>
        <time>2015-09-18T11:38:00Z</time>
      </trkpt>
      <trkpt lat="42.46255" lon="2.77339">
        <ele>842</ele>
        <time>2015-09-18T11:38:00Z</time>
      </trkpt>
      <trkpt lat="42.46259" lon="2.77344">
        <ele>841.4</ele>
        <time>2015-09-18T11:38:02Z</time>
      </trkpt>
      <trkpt lat="42.46259" lon="2.77349">
        <ele>840.5</ele>
        <time>2015-09-18T11:38:03Z</time>
      </trkpt>
      <trkpt lat="42.46257" lon="2.77356">
        <ele>839.8</ele>
        <time>2015-09-18T11:38:04Z</time>
      </trkpt>
      <trkpt lat="42.46252" lon="2.77363">
        <ele>839.5</ele>
        <time>2015-09-18T11:38:05Z</time>
      </trkpt>
      <trkpt lat="42.46244" lon="2.7737">
        <ele>839.1</ele>
        <time>2015-09-18T11:38:06Z</time>
      </trkpt>
      <trkpt lat="42.46234" lon="2.77373">
        <ele>838.5</ele>
        <time>2015-09-18T11:38:07Z</time>
      </trkpt>
      <trkpt lat="42.46222" lon="2.77373">
        <ele>837.7</ele>
        <time>2015-09-18T11:38:08Z</time>
      </trkpt>
      <trkpt lat="42.4621" lon="2.77371">
        <ele>836.6</ele>
        <time>2015-09-18T11:38:09Z</time>
      </trkpt>
      <trkpt lat="42.46198" lon="2.77368">
        <ele>836.4</ele>
        <time>2015-09-18T11:38:10Z</time>
      </trkpt>
      <trkpt lat="42.46186" lon="2.77364">
        <ele>836.3</ele>
        <time>2015-09-18T11:38:11Z</time>
      </trkpt>
      <trkpt lat="42.46175" lon="2.7736">
        <ele>835.6</ele>
        <time>2015-09-18T11:38:12Z</time>
      </trkpt>
      <trkpt lat="42.46163" lon="2.77356">
        <ele>834.7</ele>
        <time>2015-09-18T11:38:13Z</time>
      </trkpt>
      <trkpt lat="42.46138" lon="2.77347">
        <ele>834.8</ele>
        <time>2015-09-18T11:38:15Z</time>
      </trkpt>
      <trkpt lat="42.46138" lon="2.77347">
        <ele>835.4</ele>
        <time>2015-09-18T11:38:15Z</time>
      </trkpt>
      <trkpt lat="42.46114" lon="2.77334">
        <ele>835.6</ele>
        <time>2015-09-18T11:38:17Z</time>
      </trkpt>
      <trkpt lat="42.46104" lon="2.77324">
        <ele>835.6</ele>
        <time>2015-09-18T11:38:18Z</time>
      </trkpt>
      <trkpt lat="42.46094" lon="2.77314">
        <ele>835.6</ele>
        <time>2015-09-18T11:38:19Z</time>
      </trkpt>
      <trkpt lat="42.46084" lon="2.77303">
        <ele>835.1</ele>
        <time>2015-09-18T11:38:20Z</time>
      </trkpt>
      <trkpt lat="42.46074" lon="2.77291">
        <ele>834.2</ele>
        <time>2015-09-18T11:38:21Z</time>
      </trkpt>
      <trkpt lat="42.46064" lon="2.77279">
        <ele>833.6</ele>
        <time>2015-09-18T11:38:22Z</time>
      </trkpt>
      <trkpt lat="42.46054" lon="2.77265">
        <ele>833.4</ele>
        <time>2015-09-18T11:38:23Z</time>
      </trkpt>
      <trkpt lat="42.46046" lon="2.77251">
        <ele>833.2</ele>
        <time>2015-09-18T11:38:24Z</time>
      </trkpt>
      <trkpt lat="42.46038" lon="2.77237">
        <ele>832.6</ele>
        <time>2015-09-18T11:38:25Z</time>
      </trkpt>
      <trkpt lat="42.4603" lon="2.77224">
        <ele>831.3</ele>
        <time>2015-09-18T11:38:26Z</time>
      </trkpt>
      <trkpt lat="42.46022" lon="2.7721">
        <ele>830.1</ele>
        <time>2015-09-18T11:38:27Z</time>
      </trkpt>
      <trkpt lat="42.46012" lon="2.77197">
        <ele>829.2</ele>
        <time>2015-09-18T11:38:28Z</time>
      </trkpt>
      <trkpt lat="42.46002" lon="2.77185">
        <ele>828.8</ele>
        <time>2015-09-18T11:38:29Z</time>
      </trkpt>
      <trkpt lat="42.45991" lon="2.77173">
        <ele>828.9</ele>
        <time>2015-09-18T11:38:30Z</time>
      </trkpt>
      <trkpt lat="42.45981" lon="2.77163">
        <ele>828.7</ele>
        <time>2015-09-18T11:38:31Z</time>
      </trkpt>
      <trkpt lat="42.45961" lon="2.77142">
        <ele>828.1</ele>
        <time>2015-09-18T11:38:33Z</time>
      </trkpt>
      <trkpt lat="42.45953" lon="2.77132">
        <ele>827.7</ele>
        <time>2015-09-18T11:38:34Z</time>
      </trkpt>
      <trkpt lat="42.45943" lon="2.77122">
        <ele>828.1</ele>
        <time>2015-09-18T11:38:35Z</time>
      </trkpt>
      <trkpt lat="42.45943" lon="2.77122">
        <ele>828.6</ele>
        <time>2015-09-18T11:38:35Z</time>
      </trkpt>
      <trkpt lat="42.45925" lon="2.77105">
        <ele>828.6</ele>
        <time>2015-09-18T11:38:37Z</time>
      </trkpt>
      <trkpt lat="42.45917" lon="2.77094">
        <ele>828.2</ele>
        <time>2015-09-18T11:38:38Z</time>
      </trkpt>
      <trkpt lat="42.45913" lon="2.77082">
        <ele>827.7</ele>
        <time>2015-09-18T11:38:39Z</time>
      </trkpt>
      <trkpt lat="42.45913" lon="2.77069">
        <ele>827.6</ele>
        <time>2015-09-18T11:38:40Z</time>
      </trkpt>
      <trkpt lat="42.45916" lon="2.77061">
        <ele>827.6</ele>
        <time>2015-09-18T11:38:41Z</time>
      </trkpt>
      <trkpt lat="42.4592" lon="2.77054">
        <ele>828.6</ele>
        <time>2015-09-18T11:38:42Z</time>
      </trkpt>
      <trkpt lat="42.45922" lon="2.77047">
        <ele>827.9</ele>
        <time>2015-09-18T11:38:43Z</time>
      </trkpt>
      <trkpt lat="42.45922" lon="2.77038">
        <ele>827.8</ele>
        <time>2015-09-18T11:38:44Z</time>
      </trkpt>
      <trkpt lat="42.45922" lon="2.77026">
        <ele>827.1</ele>
        <time>2015-09-18T11:38:45Z</time>
      </trkpt>
      <trkpt lat="42.45928" lon="2.77005">
        <ele>828.8</ele>
        <time>2015-09-18T11:38:47Z</time>
      </trkpt>
      <trkpt lat="42.45932" lon="2.76998">
        <ele>830.4</ele>
        <time>2015-09-18T11:38:48Z</time>
      </trkpt>
      <trkpt lat="42.45935" lon="2.76993">
        <ele>831</ele>
        <time>2015-09-18T11:38:49Z</time>
      </trkpt>
      <trkpt lat="42.45939" lon="2.76989">
        <ele>830.2</ele>
        <time>2015-09-18T11:38:50Z</time>
      </trkpt>
      <trkpt lat="42.45939" lon="2.76989">
        <ele>828.7</ele>
        <time>2015-09-18T11:38:50Z</time>
      </trkpt>
      <trkpt lat="42.45949" lon="2.76978">
        <ele>828.5</ele>
        <time>2015-09-18T11:38:52Z</time>
      </trkpt>
      <trkpt lat="42.45955" lon="2.76975">
        <ele>828.7</ele>
        <time>2015-09-18T11:38:53Z</time>
      </trkpt>
      <trkpt lat="42.45961" lon="2.76973">
        <ele>828.8</ele>
        <time>2015-09-18T11:38:54Z</time>
      </trkpt>
      <trkpt lat="42.45967" lon="2.76971">
        <ele>829.6</ele>
        <time>2015-09-18T11:38:55Z</time>
      </trkpt>
      <trkpt lat="42.45973" lon="2.76967">
        <ele>830.8</ele>
        <time>2015-09-18T11:38:56Z</time>
      </trkpt>
      <trkpt lat="42.4598" lon="2.76961">
        <ele>832.8</ele>
        <time>2015-09-18T11:38:57Z</time>
      </trkpt>
      <trkpt lat="42.45985" lon="2.76957">
        <ele>835.8</ele>
        <time>2015-09-18T11:38:58Z</time>
      </trkpt>
      <trkpt lat="42.4599" lon="2.76953">
        <ele>839.7</ele>
        <time>2015-09-18T11:38:59Z</time>
      </trkpt>
      <trkpt lat="42.45995" lon="2.76949">
        <ele>842.4</ele>
        <time>2015-09-18T11:39:00Z</time>
      </trkpt>
      <trkpt lat="42.45998" lon="2.76949">
        <ele>839.7</ele>
        <time>2015-09-18T11:39:01Z</time>
      </trkpt>
      <trkpt lat="42.46003" lon="2.7695">
        <ele>838.9</ele>
        <time>2015-09-18T11:39:02Z</time>
      </trkpt>
      <trkpt lat="42.46009" lon="2.76952">
        <ele>839.7</ele>
        <time>2015-09-18T11:39:03Z</time>
      </trkpt>
      <trkpt lat="42.46014" lon="2.76966">
        <ele>839.7</ele>
        <time>2015-09-18T11:39:05Z</time>
      </trkpt>
      <trkpt lat="42.46014" lon="2.76966">
        <ele>839.7</ele>
        <time>2015-09-18T11:39:05Z</time>
      </trkpt>
      <trkpt lat="42.46007" lon="2.76984">
        <ele>839.8</ele>
        <time>2015-09-18T11:39:07Z</time>
      </trkpt>
      <trkpt lat="42.45999" lon="2.76989">
        <ele>839.8</ele>
        <time>2015-09-18T11:39:08Z</time>
      </trkpt>
      <trkpt lat="42.4599" lon="2.76989">
        <ele>840.2</ele>
        <time>2015-09-18T11:39:09Z</time>
      </trkpt>
      <trkpt lat="42.4598" lon="2.76983">
        <ele>840</ele>
        <time>2015-09-18T11:39:10Z</time>
      </trkpt>
      <trkpt lat="42.45971" lon="2.76975">
        <ele>839.9</ele>
        <time>2015-09-18T11:39:11Z</time>
      </trkpt>
      <trkpt lat="42.45962" lon="2.76966">
        <ele>839.9</ele>
        <time>2015-09-18T11:39:12Z</time>
      </trkpt>
      <trkpt lat="42.45954" lon="2.76956">
        <ele>839</ele>
        <time>2015-09-18T11:39:13Z</time>
      </trkpt>
      <trkpt lat="42.45947" lon="2.76945">
        <ele>837.2</ele>
        <time>2015-09-18T11:39:14Z</time>
      </trkpt>
      <trkpt lat="42.45942" lon="2.76933">
        <ele>835.5</ele>
        <time>2015-09-18T11:39:15Z</time>
      </trkpt>
      <trkpt lat="42.4594" lon="2.76919">
        <ele>834.2</ele>
        <time>2015-09-18T11:39:16Z</time>
      </trkpt>
      <trkpt lat="42.45939" lon="2.76906">
        <ele>834.7</ele>
        <time>2015-09-18T11:39:17Z</time>
      </trkpt>
      <trkpt lat="42.4594" lon="2.76893">
        <ele>837.4</ele>
        <time>2015-09-18T11:39:18Z</time>
      </trkpt>
      <trkpt lat="42.45945" lon="2.76875">
        <ele>838.2</ele>
        <time>2015-09-18T11:39:20Z</time>
      </trkpt>
      <trkpt lat="42.45945" lon="2.76875">
        <ele>838.6</ele>
        <time>2015-09-18T11:39:20Z</time>
      </trkpt>
      <trkpt lat="42.45951" lon="2.76863">
        <ele>838.5</ele>
        <time>2015-09-18T11:39:22Z</time>
      </trkpt>
      <trkpt lat="42.45956" lon="2.76857">
        <ele>838.7</ele>
        <time>2015-09-18T11:39:23Z</time>
      </trkpt>
      <trkpt lat="42.45961" lon="2.76851">
        <ele>839.7</ele>
        <time>2015-09-18T11:39:24Z</time>
      </trkpt>
      <trkpt lat="42.45966" lon="2.76846">
        <ele>841</ele>
        <time>2015-09-18T11:39:25Z</time>
      </trkpt>
      <trkpt lat="42.45971" lon="2.76842">
        <ele>842.1</ele>
        <time>2015-09-18T11:39:26Z</time>
      </trkpt>
      <trkpt lat="42.45975" lon="2.76839">
        <ele>842.2</ele>
        <time>2015-09-18T11:39:27Z</time>
      </trkpt>
      <trkpt lat="42.45979" lon="2.76833">
        <ele>840.8</ele>
        <time>2015-09-18T11:39:28Z</time>
      </trkpt>
      <trkpt lat="42.45983" lon="2.76826">
        <ele>839.2</ele>
        <time>2015-09-18T11:39:29Z</time>
      </trkpt>
      <trkpt lat="42.45988" lon="2.76819">
        <ele>837.2</ele>
        <time>2015-09-18T11:39:30Z</time>
      </trkpt>
      <trkpt lat="42.45994" lon="2.76813">
        <ele>836</ele>
        <time>2015-09-18T11:39:31Z</time>
      </trkpt>
      <trkpt lat="42.46" lon="2.76808">
        <ele>836.2</ele>
        <time>2015-09-18T11:39:32Z</time>
      </trkpt>
      <trkpt lat="42.46005" lon="2.76805">
        <ele>835.5</ele>
        <time>2015-09-18T11:39:33Z</time>
      </trkpt>
      <trkpt lat="42.46013" lon="2.76798">
        <ele>833.5</ele>
        <time>2015-09-18T11:39:35Z</time>
      </trkpt>
      <trkpt lat="42.46013" lon="2.76798">
        <ele>831.3</ele>
        <time>2015-09-18T11:39:35Z</time>
      </trkpt>
      <trkpt lat="42.46026" lon="2.7679">
        <ele>829.7</ele>
        <time>2015-09-18T11:39:37Z</time>
      </trkpt>
      <trkpt lat="42.46033" lon="2.76786">
        <ele>829.8</ele>
        <time>2015-09-18T11:39:38Z</time>
      </trkpt>
      <trkpt lat="42.46039" lon="2.76783">
        <ele>830.2</ele>
        <time>2015-09-18T11:39:39Z</time>
      </trkpt>
      <trkpt lat="42.46045" lon="2.76779">
        <ele>830.3</ele>
        <time>2015-09-18T11:39:40Z</time>
      </trkpt>
      <trkpt lat="42.4605" lon="2.76775">
        <ele>829.7</ele>
        <time>2015-09-18T11:39:41Z</time>
      </trkpt>
      <trkpt lat="42.46055" lon="2.76771">
        <ele>828.7</ele>
        <time>2015-09-18T11:39:42Z</time>
      </trkpt>
      <trkpt lat="42.46061" lon="2.76766">
        <ele>828</ele>
        <time>2015-09-18T11:39:43Z</time>
      </trkpt>
      <trkpt lat="42.46068" lon="2.76762">
        <ele>827.8</ele>
        <time>2015-09-18T11:39:44Z</time>
      </trkpt>
      <trkpt lat="42.46074" lon="2.76758">
        <ele>828</ele>
        <time>2015-09-18T11:39:45Z</time>
      </trkpt>
      <trkpt lat="42.46081" lon="2.76754">
        <ele>829.2</ele>
        <time>2015-09-18T11:39:46Z</time>
      </trkpt>
      <trkpt lat="42.46087" lon="2.76749">
        <ele>829.2</ele>
        <time>2015-09-18T11:39:47Z</time>
      </trkpt>
      <trkpt lat="42.46093" lon="2.76744">
        <ele>829.2</ele>
        <time>2015-09-18T11:39:48Z</time>
      </trkpt>
      <trkpt lat="42.46098" lon="2.76738">
        <ele>829.1</ele>
        <time>2015-09-18T11:39:49Z</time>
      </trkpt>
      <trkpt lat="42.46103" lon="2.76734">
        <ele>829.1</ele>
        <time>2015-09-18T11:39:50Z</time>
      </trkpt>
      <trkpt lat="42.46108" lon="2.76734">
        <ele>829.6</ele>
        <time>2015-09-18T11:39:51Z</time>
      </trkpt>
      <trkpt lat="42.46117" lon="2.76742">
        <ele>830.7</ele>
        <time>2015-09-18T11:39:53Z</time>
      </trkpt>
      <trkpt lat="42.46121" lon="2.76746">
        <ele>830.7</ele>
        <time>2015-09-18T11:39:54Z</time>
      </trkpt>
      <trkpt lat="42.46124" lon="2.76749">
        <ele>833</ele>
        <time>2015-09-18T11:39:55Z</time>
      </trkpt>
      <trkpt lat="42.46128" lon="2.76752">
        <ele>834.4</ele>
        <time>2015-09-18T11:39:56Z</time>
      </trkpt>
      <trkpt lat="42.4613" lon="2.76757">
        <ele>835.7</ele>
        <time>2015-09-18T11:39:57Z</time>
      </trkpt>
      <trkpt lat="42.46131" lon="2.76763">
        <ele>836.3</ele>
        <time>2015-09-18T11:39:58Z</time>
      </trkpt>
      <trkpt lat="42.46129" lon="2.76771">
        <ele>836.6</ele>
        <time>2015-09-18T11:39:59Z</time>
      </trkpt>
      <trkpt lat="42.46126" lon="2.7678">
        <ele>837.4</ele>
        <time>2015-09-18T11:40:00Z</time>
      </trkpt>
      <trkpt lat="42.46122" lon="2.76789">
        <ele>838.8</ele>
        <time>2015-09-18T11:40:01Z</time>
      </trkpt>
      <trkpt lat="42.46117" lon="2.76797">
        <ele>840.2</ele>
        <time>2015-09-18T11:40:02Z</time>
      </trkpt>
      <trkpt lat="42.4611" lon="2.76803">
        <ele>841.3</ele>
        <time>2015-09-18T11:40:03Z</time>
      </trkpt>
      <trkpt lat="42.46103" lon="2.76807">
        <ele>841.9</ele>
        <time>2015-09-18T11:40:04Z</time>
      </trkpt>
      <trkpt lat="42.46094" lon="2.76809">
        <ele>840.5</ele>
        <time>2015-09-18T11:40:05Z</time>
      </trkpt>
      <trkpt lat="42.46083" lon="2.76808">
        <ele>840.9</ele>
        <time>2015-09-18T11:40:06Z</time>
      </trkpt>
      <trkpt lat="42.46063" lon="2.76793">
        <ele>841.2</ele>
        <time>2015-09-18T11:40:08Z</time>
      </trkpt>
      <trkpt lat="42.46057" lon="2.7678">
        <ele>841.3</ele>
        <time>2015-09-18T11:40:09Z</time>
      </trkpt>
      <trkpt lat="42.46054" lon="2.76766">
        <ele>842</ele>
        <time>2015-09-18T11:40:10Z</time>
      </trkpt>
      <trkpt lat="42.46054" lon="2.76766">
        <ele>843.1</ele>
        <time>2015-09-18T11:40:10Z</time>
      </trkpt>
      <trkpt lat="42.46058" lon="2.76743">
        <ele>844.3</ele>
        <time>2015-09-18T11:40:12Z</time>
      </trkpt>
      <trkpt lat="42.46063" lon="2.76736">
        <ele>846</ele>
        <time>2015-09-18T11:40:13Z</time>
      </trkpt>
      <trkpt lat="42.46068" lon="2.76731">
        <ele>847.6</ele>
        <time>2015-09-18T11:40:14Z</time>
      </trkpt>
      <trkpt lat="42.46072" lon="2.76726">
        <ele>849.3</ele>
        <time>2015-09-18T11:40:15Z</time>
      </trkpt>
      <trkpt lat="42.46076" lon="2.76722">
        <ele>851.3</ele>
        <time>2015-09-18T11:40:16Z</time>
      </trkpt>
      <trkpt lat="42.46081" lon="2.76719">
        <ele>852.4</ele>
        <time>2015-09-18T11:40:17Z</time>
      </trkpt>
      <trkpt lat="42.46085" lon="2.76719">
        <ele>852.4</ele>
        <time>2015-09-18T11:40:18Z</time>
      </trkpt>
      <trkpt lat="42.46088" lon="2.76722">
        <ele>851.5</ele>
        <time>2015-09-18T11:40:19Z</time>
      </trkpt>
      <trkpt lat="42.46089" lon="2.76729">
        <ele>850.2</ele>
        <time>2015-09-18T11:40:20Z</time>
      </trkpt>
      <trkpt lat="42.46088" lon="2.76738">
        <ele>850.4</ele>
        <time>2015-09-18T11:40:21Z</time>
      </trkpt>
      <trkpt lat="42.46086" lon="2.76747">
        <ele>850.1</ele>
        <time>2015-09-18T11:40:22Z</time>
      </trkpt>
      <trkpt lat="42.46078" lon="2.76762">
        <ele>851.7</ele>
        <time>2015-09-18T11:40:24Z</time>
      </trkpt>
      <trkpt lat="42.46073" lon="2.76768">
        <ele>852.5</ele>
        <time>2015-09-18T11:40:25Z</time>
      </trkpt>
      <trkpt lat="42.46073" lon="2.76768">
        <ele>853.2</ele>
        <time>2015-09-18T11:40:25Z</time>
      </trkpt>
      <trkpt lat="42.4606" lon="2.7678">
        <ele>853.6</ele>
        <time>2015-09-18T11:40:27Z</time>
      </trkpt>
      <trkpt lat="42.46053" lon="2.76785">
        <ele>854.8</ele>
        <time>2015-09-18T11:40:28Z</time>
      </trkpt>
      <trkpt lat="42.46045" lon="2.76788">
        <ele>855.7</ele>
        <time>2015-09-18T11:40:29Z</time>
      </trkpt>
      <trkpt lat="42.46037" lon="2.76788">
        <ele>855.3</ele>
        <time>2015-09-18T11:40:30Z</time>
      </trkpt>
      <trkpt lat="42.46028" lon="2.76785">
        <ele>853.8</ele>
        <time>2015-09-18T11:40:31Z</time>
      </trkpt>
      <trkpt lat="42.46018" lon="2.76781">
        <ele>852.6</ele>
        <time>2015-09-18T11:40:32Z</time>
      </trkpt>
      <trkpt lat="42.46007" lon="2.76772">
        <ele>850.8</ele>
        <time>2015-09-18T11:40:33Z</time>
      </trkpt>
      <trkpt lat="42.45997" lon="2.7676">
        <ele>850.8</ele>
        <time>2015-09-18T11:40:34Z</time>
      </trkpt>
      <trkpt lat="42.4599" lon="2.76746">
        <ele>852.3</ele>
        <time>2015-09-18T11:40:35Z</time>
      </trkpt>
      <trkpt lat="42.45987" lon="2.76732">
        <ele>854.7</ele>
        <time>2015-09-18T11:40:36Z</time>
      </trkpt>
      <trkpt lat="42.45985" lon="2.76718">
        <ele>857.7</ele>
        <time>2015-09-18T11:40:37Z</time>
      </trkpt>
      <trkpt lat="42.45985" lon="2.76706">
        <ele>859.9</ele>
        <time>2015-09-18T11:40:38Z</time>
      </trkpt>
      <trkpt lat="42.45985" lon="2.76695">
        <ele>862.7</ele>
        <time>2015-09-18T11:40:39Z</time>
      </trkpt>
      <trkpt lat="42.45985" lon="2.76695">
        <ele>863.2</ele>
        <time>2015-09-18T11:40:39Z</time>
      </trkpt>
      <trkpt lat="42.45986" lon="2.76673">
        <ele>863.2</ele>
        <time>2015-09-18T11:40:41Z</time>
      </trkpt>
      <trkpt lat="42.45992" lon="2.76656">
        <ele>864</ele>
        <time>2015-09-18T11:40:43Z</time>
      </trkpt>
      <trkpt lat="42.45996" lon="2.7665">
        <ele>866.1</ele>
        <time>2015-09-18T11:40:44Z</time>
      </trkpt>
      <trkpt lat="42.46001" lon="2.76645">
        <ele>867</ele>
        <time>2015-09-18T11:40:45Z</time>
      </trkpt>
      <trkpt lat="42.46005" lon="2.76641">
        <ele>867.9</ele>
        <time>2015-09-18T11:40:46Z</time>
      </trkpt>
      <trkpt lat="42.4601" lon="2.76637">
        <ele>868.7</ele>
        <time>2015-09-18T11:40:47Z</time>
      </trkpt>
      <trkpt lat="42.46014" lon="2.76635">
        <ele>869.6</ele>
        <time>2015-09-18T11:40:48Z</time>
      </trkpt>
      <trkpt lat="42.46018" lon="2.76634">
        <ele>870.3</ele>
        <time>2015-09-18T11:40:49Z</time>
      </trkpt>
      <trkpt lat="42.46018" lon="2.76634">
        <ele>870.9</ele>
        <time>2015-09-18T11:40:49Z</time>
      </trkpt>
      <trkpt lat="42.46026" lon="2.76638">
        <ele>871.6</ele>
        <time>2015-09-18T11:40:51Z</time>
      </trkpt>
      <trkpt lat="42.46029" lon="2.76641">
        <ele>872.3</ele>
        <time>2015-09-18T11:40:52Z</time>
      </trkpt>
      <trkpt lat="42.46031" lon="2.76644">
        <ele>873</ele>
        <time>2015-09-18T11:40:53Z</time>
      </trkpt>
      <trkpt lat="42.46033" lon="2.76649">
        <ele>873.4</ele>
        <time>2015-09-18T11:40:54Z</time>
      </trkpt>
      <trkpt lat="42.46033" lon="2.76649">
        <ele>874.3</ele>
        <time>2015-09-18T11:40:54Z</time>
      </trkpt>
      <trkpt lat="42.46036" lon="2.76665">
        <ele>874.7</ele>
        <time>2015-09-18T11:40:57Z</time>
      </trkpt>
      <trkpt lat="42.46037" lon="2.76671">
        <ele>875.2</ele>
        <time>2015-09-18T11:40:58Z</time>
      </trkpt>
      <trkpt lat="42.46038" lon="2.76676">
        <ele>875.7</ele>
        <time>2015-09-18T11:40:59Z</time>
      </trkpt>
      <trkpt lat="42.46038" lon="2.76681">
        <ele>875.7</ele>
        <time>2015-09-18T11:41:00Z</time>
      </trkpt>
      <trkpt lat="42.46038" lon="2.76681">
        <ele>875.7</ele>
        <time>2015-09-18T11:41:00Z</time>
      </trkpt>
      <trkpt lat="42.46035" lon="2.76693">
        <ele>875.7</ele>
        <time>2015-09-18T11:41:02Z</time>
      </trkpt>
      <trkpt lat="42.46032" lon="2.767">
        <ele>874.8</ele>
        <time>2015-09-18T11:41:03Z</time>
      </trkpt>
      <trkpt lat="42.46029" lon="2.76705">
        <ele>874.2</ele>
        <time>2015-09-18T11:41:04Z</time>
      </trkpt>
      <trkpt lat="42.46024" lon="2.76711">
        <ele>873.2</ele>
        <time>2015-09-18T11:41:05Z</time>
      </trkpt>
      <trkpt lat="42.46018" lon="2.76716">
        <ele>871.4</ele>
        <time>2015-09-18T11:41:06Z</time>
      </trkpt>
      <trkpt lat="42.46009" lon="2.76719">
        <ele>869.6</ele>
        <time>2015-09-18T11:41:07Z</time>
      </trkpt>
      <trkpt lat="42.45999" lon="2.76719">
        <ele>868.4</ele>
        <time>2015-09-18T11:41:08Z</time>
      </trkpt>
      <trkpt lat="42.45988" lon="2.76715">
        <ele>867.6</ele>
        <time>2015-09-18T11:41:09Z</time>
      </trkpt>
      <trkpt lat="42.45978" lon="2.76709">
        <ele>867</ele>
        <time>2015-09-18T11:41:10Z</time>
      </trkpt>
      <trkpt lat="42.45969" lon="2.76701">
        <ele>866.1</ele>
        <time>2015-09-18T11:41:11Z</time>
      </trkpt>
      <trkpt lat="42.4596" lon="2.76691">
        <ele>864.8</ele>
        <time>2015-09-18T11:41:12Z</time>
      </trkpt>
      <trkpt lat="42.45952" lon="2.76678">
        <ele>863.6</ele>
        <time>2015-09-18T11:41:13Z</time>
      </trkpt>
      <trkpt lat="42.45946" lon="2.76663">
        <ele>862.9</ele>
        <time>2015-09-18T11:41:14Z</time>
      </trkpt>
      <trkpt lat="42.45946" lon="2.76663">
        <ele>868.5</ele>
        <time>2015-09-18T11:41:14Z</time>
      </trkpt>
      <trkpt lat="42.45949" lon="2.76625">
        <ele>869.9</ele>
        <time>2015-09-18T11:41:17Z</time>
      </trkpt>
      <trkpt lat="42.45951" lon="2.76616">
        <ele>870.7</ele>
        <time>2015-09-18T11:41:18Z</time>
      </trkpt>
      <trkpt lat="42.45952" lon="2.76606">
        <ele>871.8</ele>
        <time>2015-09-18T11:41:19Z</time>
      </trkpt>
      <trkpt lat="42.45952" lon="2.76594">
        <ele>872.8</ele>
        <time>2015-09-18T11:41:20Z</time>
      </trkpt>
      <trkpt lat="42.45953" lon="2.76581">
        <ele>873.2</ele>
        <time>2015-09-18T11:41:21Z</time>
      </trkpt>
      <trkpt lat="42.45955" lon="2.76571">
        <ele>873.8</ele>
        <time>2015-09-18T11:41:22Z</time>
      </trkpt>
      <trkpt lat="42.45959" lon="2.76562">
        <ele>875.5</ele>
        <time>2015-09-18T11:41:23Z</time>
      </trkpt>
      <trkpt lat="42.45962" lon="2.76553">
        <ele>875.5</ele>
        <time>2015-09-18T11:41:24Z</time>
      </trkpt>
      <trkpt lat="42.45964" lon="2.76543">
        <ele>880.5</ele>
        <time>2015-09-18T11:41:25Z</time>
      </trkpt>
      <trkpt lat="42.45967" lon="2.76533">
        <ele>881.5</ele>
        <time>2015-09-18T11:41:26Z</time>
      </trkpt>
      <trkpt lat="42.45969" lon="2.76524">
        <ele>882.2</ele>
        <time>2015-09-18T11:41:27Z</time>
      </trkpt>
      <trkpt lat="42.45972" lon="2.76517">
        <ele>882.8</ele>
        <time>2015-09-18T11:41:28Z</time>
      </trkpt>
      <trkpt lat="42.45976" lon="2.76511">
        <ele>882.8</ele>
        <time>2015-09-18T11:41:29Z</time>
      </trkpt>
      <trkpt lat="42.4598" lon="2.76508">
        <ele>884.2</ele>
        <time>2015-09-18T11:41:30Z</time>
      </trkpt>
      <trkpt lat="42.45984" lon="2.76506">
        <ele>885</ele>
        <time>2015-09-18T11:41:31Z</time>
      </trkpt>
      <trkpt lat="42.45988" lon="2.76505">
        <ele>886.1</ele>
        <time>2015-09-18T11:41:32Z</time>
      </trkpt>
      <trkpt lat="42.45991" lon="2.76505">
        <ele>886.2</ele>
        <time>2015-09-18T11:41:33Z</time>
      </trkpt>
      <trkpt lat="42.45995" lon="2.76507">
        <ele>885.4</ele>
        <time>2015-09-18T11:41:35Z</time>
      </trkpt>
      <trkpt lat="42.45995" lon="2.76507">
        <ele>884.5</ele>
        <time>2015-09-18T11:41:35Z</time>
      </trkpt>
      <trkpt lat="42.45998" lon="2.76515">
        <ele>884</ele>
        <time>2015-09-18T11:41:37Z</time>
      </trkpt>
      <trkpt lat="42.45997" lon="2.76521">
        <ele>883.2</ele>
        <time>2015-09-18T11:41:38Z</time>
      </trkpt>
      <trkpt lat="42.45996" lon="2.76528">
        <ele>882.2</ele>
        <time>2015-09-18T11:41:39Z</time>
      </trkpt>
      <trkpt lat="42.45995" lon="2.76535">
        <ele>881.3</ele>
        <time>2015-09-18T11:41:40Z</time>
      </trkpt>
      <trkpt lat="42.45995" lon="2.76541">
        <ele>880</ele>
        <time>2015-09-18T11:41:41Z</time>
      </trkpt>
      <trkpt lat="42.45994" lon="2.76548">
        <ele>879.6</ele>
        <time>2015-09-18T11:41:42Z</time>
      </trkpt>
      <trkpt lat="42.45993" lon="2.76554">
        <ele>879.5</ele>
        <time>2015-09-18T11:41:43Z</time>
      </trkpt>
      <trkpt lat="42.4599" lon="2.76561">
        <ele>878.7</ele>
        <time>2015-09-18T11:41:44Z</time>
      </trkpt>
      <trkpt lat="42.45986" lon="2.76567">
        <ele>878.1</ele>
        <time>2015-09-18T11:41:45Z</time>
      </trkpt>
      <trkpt lat="42.45979" lon="2.76573">
        <ele>877.1</ele>
        <time>2015-09-18T11:41:46Z</time>
      </trkpt>
      <trkpt lat="42.45969" lon="2.76575">
        <ele>876</ele>
        <time>2015-09-18T11:41:47Z</time>
      </trkpt>
      <trkpt lat="42.45959" lon="2.76572">
        <ele>874.5</ele>
        <time>2015-09-18T11:41:48Z</time>
      </trkpt>
      <trkpt lat="42.45949" lon="2.76564">
        <ele>873.9</ele>
        <time>2015-09-18T11:41:49Z</time>
      </trkpt>
      <trkpt lat="42.4594" lon="2.7655">
        <ele>874.5</ele>
        <time>2015-09-18T11:41:50Z</time>
      </trkpt>
      <trkpt lat="42.45932" lon="2.7652">
        <ele>874.9</ele>
        <time>2015-09-18T11:41:52Z</time>
      </trkpt>
      <trkpt lat="42.4593" lon="2.76506">
        <ele>874.7</ele>
        <time>2015-09-18T11:41:53Z</time>
      </trkpt>
      <trkpt lat="42.45932" lon="2.76494">
        <ele>874.1</ele>
        <time>2015-09-18T11:41:54Z</time>
      </trkpt>
      <trkpt lat="42.45934" lon="2.76483">
        <ele>873.1</ele>
        <time>2015-09-18T11:41:55Z</time>
      </trkpt>
      <trkpt lat="42.45934" lon="2.76483">
        <ele>872.2</ele>
        <time>2015-09-18T11:41:55Z</time>
      </trkpt>
      <trkpt lat="42.45941" lon="2.76468">
        <ele>871.2</ele>
        <time>2015-09-18T11:41:57Z</time>
      </trkpt>
      <trkpt lat="42.45946" lon="2.76466">
        <ele>869.7</ele>
        <time>2015-09-18T11:41:58Z</time>
      </trkpt>
      <trkpt lat="42.4595" lon="2.76467">
        <ele>867.8</ele>
        <time>2015-09-18T11:41:59Z</time>
      </trkpt>
      <trkpt lat="42.45954" lon="2.7647">
        <ele>866.6</ele>
        <time>2015-09-18T11:42:00Z</time>
      </trkpt>
      <trkpt lat="42.45957" lon="2.76473">
        <ele>865.2</ele>
        <time>2015-09-18T11:42:01Z</time>
      </trkpt>
      <trkpt lat="42.45961" lon="2.76476">
        <ele>864.5</ele>
        <time>2015-09-18T11:42:02Z</time>
      </trkpt>
      <trkpt lat="42.45964" lon="2.7648">
        <ele>863.4</ele>
        <time>2015-09-18T11:42:03Z</time>
      </trkpt>
      <trkpt lat="42.45967" lon="2.76484">
        <ele>861.9</ele>
        <time>2015-09-18T11:42:04Z</time>
      </trkpt>
      <trkpt lat="42.4597" lon="2.76488">
        <ele>860.1</ele>
        <time>2015-09-18T11:42:05Z</time>
      </trkpt>
      <trkpt lat="42.45975" lon="2.76492">
        <ele>857.6</ele>
        <time>2015-09-18T11:42:06Z</time>
      </trkpt>
      <trkpt lat="42.45979" lon="2.76497">
        <ele>857.6</ele>
        <time>2015-09-18T11:42:07Z</time>
      </trkpt>
      <trkpt lat="42.45987" lon="2.76507">
        <ele>856.1</ele>
        <time>2015-09-18T11:42:09Z</time>
      </trkpt>
      <trkpt lat="42.45992" lon="2.76512">
        <ele>855</ele>
        <time>2015-09-18T11:42:10Z</time>
      </trkpt>
      <trkpt lat="42.45992" lon="2.76512">
        <ele>853.3</ele>
        <time>2015-09-18T11:42:10Z</time>
      </trkpt>
      <trkpt lat="42.46" lon="2.76523">
        <ele>851.2</ele>
        <time>2015-09-18T11:42:12Z</time>
      </trkpt>
      <trkpt lat="42.46005" lon="2.76529">
        <ele>848.8</ele>
        <time>2015-09-18T11:42:13Z</time>
      </trkpt>
      <trkpt lat="42.46011" lon="2.76535">
        <ele>846.9</ele>
        <time>2015-09-18T11:42:14Z</time>
      </trkpt>
      <trkpt lat="42.46018" lon="2.76542">
        <ele>846.7</ele>
        <time>2015-09-18T11:42:15Z</time>
      </trkpt>
      <trkpt lat="42.46024" lon="2.76547">
        <ele>846.7</ele>
        <time>2015-09-18T11:42:16Z</time>
      </trkpt>
      <trkpt lat="42.4603" lon="2.76551">
        <ele>846.2</ele>
        <time>2015-09-18T11:42:17Z</time>
      </trkpt>
      <trkpt lat="42.46036" lon="2.76554">
        <ele>845</ele>
        <time>2015-09-18T11:42:18Z</time>
      </trkpt>
      <trkpt lat="42.46042" lon="2.76558">
        <ele>843</ele>
        <time>2015-09-18T11:42:19Z</time>
      </trkpt>
      <trkpt lat="42.46049" lon="2.76562">
        <ele>840.8</ele>
        <time>2015-09-18T11:42:20Z</time>
      </trkpt>
      <trkpt lat="42.46056" lon="2.76565">
        <ele>839</ele>
        <time>2015-09-18T11:42:21Z</time>
      </trkpt>
      <trkpt lat="42.46063" lon="2.76567">
        <ele>837.4</ele>
        <time>2015-09-18T11:42:22Z</time>
      </trkpt>
      <trkpt lat="42.46071" lon="2.76569">
        <ele>836.2</ele>
        <time>2015-09-18T11:42:23Z</time>
      </trkpt>
      <trkpt lat="42.46078" lon="2.76571">
        <ele>834.4</ele>
        <time>2015-09-18T11:42:24Z</time>
      </trkpt>
      <trkpt lat="42.46085" lon="2.76572">
        <ele>833.1</ele>
        <time>2015-09-18T11:42:25Z</time>
      </trkpt>
      <trkpt lat="42.46093" lon="2.76574">
        <ele>833.1</ele>
        <time>2015-09-18T11:42:26Z</time>
      </trkpt>
      <trkpt lat="42.46108" lon="2.76577">
        <ele>830.6</ele>
        <time>2015-09-18T11:42:28Z</time>
      </trkpt>
      <trkpt lat="42.46116" lon="2.76578">
        <ele>829.4</ele>
        <time>2015-09-18T11:42:29Z</time>
      </trkpt>
      <trkpt lat="42.46124" lon="2.76579">
        <ele>829.4</ele>
        <time>2015-09-18T11:42:30Z</time>
      </trkpt>
      <trkpt lat="42.46124" lon="2.76579">
        <ele>826.6</ele>
        <time>2015-09-18T11:42:30Z</time>
      </trkpt>
      <trkpt lat="42.4614" lon="2.76581">
        <ele>825.1</ele>
        <time>2015-09-18T11:42:32Z</time>
      </trkpt>
      <trkpt lat="42.46149" lon="2.76581">
        <ele>824.4</ele>
        <time>2015-09-18T11:42:33Z</time>
      </trkpt>
      <trkpt lat="42.46157" lon="2.7658">
        <ele>823.8</ele>
        <time>2015-09-18T11:42:34Z</time>
      </trkpt>
      <trkpt lat="42.46165" lon="2.7658">
        <ele>823.2</ele>
        <time>2015-09-18T11:42:35Z</time>
      </trkpt>
      <trkpt lat="42.46172" lon="2.76579">
        <ele>823.2</ele>
        <time>2015-09-18T11:42:36Z</time>
      </trkpt>
      <trkpt lat="42.46179" lon="2.76579">
        <ele>820.5</ele>
        <time>2015-09-18T11:42:37Z</time>
      </trkpt>
      <trkpt lat="42.46186" lon="2.76579">
        <ele>818.5</ele>
        <time>2015-09-18T11:42:38Z</time>
      </trkpt>
      <trkpt lat="42.46194" lon="2.7658">
        <ele>817.3</ele>
        <time>2015-09-18T11:42:39Z</time>
      </trkpt>
      <trkpt lat="42.46203" lon="2.76582">
        <ele>816.1</ele>
        <time>2015-09-18T11:42:40Z</time>
      </trkpt>
      <trkpt lat="42.46215" lon="2.76594">
        <ele>814.5</ele>
        <time>2015-09-18T11:42:42Z</time>
      </trkpt>
      <trkpt lat="42.46219" lon="2.766">
        <ele>814</ele>
        <time>2015-09-18T11:42:43Z</time>
      </trkpt>
      <trkpt lat="42.46225" lon="2.76599">
        <ele>815.5</ele>
        <time>2015-09-18T11:42:44Z</time>
      </trkpt>
      <trkpt lat="42.46231" lon="2.766">
        <ele>816.3</ele>
        <time>2015-09-18T11:42:45Z</time>
      </trkpt>
      <trkpt lat="42.46231" lon="2.766">
        <ele>816.3</ele>
        <time>2015-09-18T11:42:45Z</time>
      </trkpt>
      <trkpt lat="42.46245" lon="2.76599">
        <ele>819</ele>
        <time>2015-09-18T11:42:47Z</time>
      </trkpt>
      <trkpt lat="42.46252" lon="2.766">
        <ele>820.8</ele>
        <time>2015-09-18T11:42:48Z</time>
      </trkpt>
      <trkpt lat="42.46259" lon="2.766">
        <ele>822.1</ele>
        <time>2015-09-18T11:42:49Z</time>
      </trkpt>
      <trkpt lat="42.46265" lon="2.766">
        <ele>823.2</ele>
        <time>2015-09-18T11:42:50Z</time>
      </trkpt>
      <trkpt lat="42.46272" lon="2.76599">
        <ele>824.1</ele>
        <time>2015-09-18T11:42:51Z</time>
      </trkpt>
      <trkpt lat="42.46278" lon="2.766">
        <ele>824.8</ele>
        <time>2015-09-18T11:42:52Z</time>
      </trkpt>
      <trkpt lat="42.46282" lon="2.76602">
        <ele>824.5</ele>
        <time>2015-09-18T11:42:53Z</time>
      </trkpt>
      <trkpt lat="42.46285" lon="2.76607">
        <ele>823.9</ele>
        <time>2015-09-18T11:42:54Z</time>
      </trkpt>
      <trkpt lat="42.46287" lon="2.76614">
        <ele>823.8</ele>
        <time>2015-09-18T11:42:55Z</time>
      </trkpt>
      <trkpt lat="42.46289" lon="2.76622">
        <ele>825.2</ele>
        <time>2015-09-18T11:42:56Z</time>
      </trkpt>
      <trkpt lat="42.46291" lon="2.76627">
        <ele>826.7</ele>
        <time>2015-09-18T11:42:57Z</time>
      </trkpt>
      <trkpt lat="42.46292" lon="2.76637">
        <ele>828.9</ele>
        <time>2015-09-18T11:42:59Z</time>
      </trkpt>
      <trkpt lat="42.46291" lon="2.76644">
        <ele>829.1</ele>
        <time>2015-09-18T11:43:00Z</time>
      </trkpt>
      <trkpt lat="42.46291" lon="2.76644">
        <ele>829.7</ele>
        <time>2015-09-18T11:43:00Z</time>
      </trkpt>
      <trkpt lat="42.46288" lon="2.76657">
        <ele>829.7</ele>
        <time>2015-09-18T11:43:02Z</time>
      </trkpt>
      <trkpt lat="42.46287" lon="2.76664">
        <ele>831.1</ele>
        <time>2015-09-18T11:43:03Z</time>
      </trkpt>
      <trkpt lat="42.46286" lon="2.76671">
        <ele>832.2</ele>
        <time>2015-09-18T11:43:04Z</time>
      </trkpt>
      <trkpt lat="42.46284" lon="2.76677">
        <ele>832.7</ele>
        <time>2015-09-18T11:43:05Z</time>
      </trkpt>
      <trkpt lat="42.46282" lon="2.76683">
        <ele>833.3</ele>
        <time>2015-09-18T11:43:06Z</time>
      </trkpt>
      <trkpt lat="42.4628" lon="2.7669">
        <ele>833.8</ele>
        <time>2015-09-18T11:43:07Z</time>
      </trkpt>
      <trkpt lat="42.46277" lon="2.76697">
        <ele>833.9</ele>
        <time>2015-09-18T11:43:08Z</time>
      </trkpt>
      <trkpt lat="42.46275" lon="2.76703">
        <ele>833.9</ele>
        <time>2015-09-18T11:43:09Z</time>
      </trkpt>
      <trkpt lat="42.46272" lon="2.7671">
        <ele>834.8</ele>
        <time>2015-09-18T11:43:10Z</time>
      </trkpt>
      <trkpt lat="42.46269" lon="2.76716">
        <ele>835.7</ele>
        <time>2015-09-18T11:43:11Z</time>
      </trkpt>
      <trkpt lat="42.46265" lon="2.76722">
        <ele>835.7</ele>
        <time>2015-09-18T11:43:12Z</time>
      </trkpt>
      <trkpt lat="42.46257" lon="2.76725">
        <ele>836.4</ele>
        <time>2015-09-18T11:43:13Z</time>
      </trkpt>
      <trkpt lat="42.46249" lon="2.76726">
        <ele>835.3</ele>
        <time>2015-09-18T11:43:14Z</time>
      </trkpt>
      <trkpt lat="42.46238" lon="2.76724">
        <ele>834.6</ele>
        <time>2015-09-18T11:43:15Z</time>
      </trkpt>
      <trkpt lat="42.46227" lon="2.7672">
        <ele>834.6</ele>
        <time>2015-09-18T11:43:16Z</time>
      </trkpt>
      <trkpt lat="42.46206" lon="2.76696">
        <ele>832.2</ele>
        <time>2015-09-18T11:43:18Z</time>
      </trkpt>
      <trkpt lat="42.46202" lon="2.76679">
        <ele>831.5</ele>
        <time>2015-09-18T11:43:19Z</time>
      </trkpt>
      <trkpt lat="42.46203" lon="2.76663">
        <ele>831.4</ele>
        <time>2015-09-18T11:43:20Z</time>
      </trkpt>
      <trkpt lat="42.46203" lon="2.76663">
        <ele>831.1</ele>
        <time>2015-09-18T11:43:20Z</time>
      </trkpt>
      <trkpt lat="42.46212" lon="2.76646">
        <ele>830.2</ele>
        <time>2015-09-18T11:43:22Z</time>
      </trkpt>
      <trkpt lat="42.46216" lon="2.7664">
        <ele>829</ele>
        <time>2015-09-18T11:43:23Z</time>
      </trkpt>
      <trkpt lat="42.4622" lon="2.76634">
        <ele>827.9</ele>
        <time>2015-09-18T11:43:24Z</time>
      </trkpt>
      <trkpt lat="42.46225" lon="2.76627">
        <ele>826.7</ele>
        <time>2015-09-18T11:43:25Z</time>
      </trkpt>
      <trkpt lat="42.4623" lon="2.76621">
        <ele>826.3</ele>
        <time>2015-09-18T11:43:26Z</time>
      </trkpt>
      <trkpt lat="42.46236" lon="2.76617">
        <ele>825.9</ele>
        <time>2015-09-18T11:43:27Z</time>
      </trkpt>
      <trkpt lat="42.46241" lon="2.76615">
        <ele>825.9</ele>
        <time>2015-09-18T11:43:28Z</time>
      </trkpt>
      <trkpt lat="42.46247" lon="2.76615">
        <ele>825.9</ele>
        <time>2015-09-18T11:43:29Z</time>
      </trkpt>
      <trkpt lat="42.46247" lon="2.76615">
        <ele>826.9</ele>
        <time>2015-09-18T11:43:29Z</time>
      </trkpt>
      <trkpt lat="42.46258" lon="2.76612">
        <ele>833.2</ele>
        <time>2015-09-18T11:43:31Z</time>
      </trkpt>
      <trkpt lat="42.46267" lon="2.76609">
        <ele>835.9</ele>
        <time>2015-09-18T11:43:33Z</time>
      </trkpt>
      <trkpt lat="42.46271" lon="2.76607">
        <ele>838</ele>
        <time>2015-09-18T11:43:34Z</time>
      </trkpt>
      <trkpt lat="42.46275" lon="2.76606">
        <ele>838.3</ele>
        <time>2015-09-18T11:43:35Z</time>
      </trkpt>
      <trkpt lat="42.46275" lon="2.76606">
        <ele>838.3</ele>
        <time>2015-09-18T11:43:35Z</time>
      </trkpt>
      <trkpt lat="42.46282" lon="2.76602">
        <ele>838.2</ele>
        <time>2015-09-18T11:43:37Z</time>
      </trkpt>
      <trkpt lat="42.46287" lon="2.76599">
        <ele>839.2</ele>
        <time>2015-09-18T11:43:38Z</time>
      </trkpt>
      <trkpt lat="42.46292" lon="2.76597">
        <ele>840.5</ele>
        <time>2015-09-18T11:43:39Z</time>
      </trkpt>
      <trkpt lat="42.46297" lon="2.76596">
        <ele>841.9</ele>
        <time>2015-09-18T11:43:40Z</time>
      </trkpt>
      <trkpt lat="42.46301" lon="2.76597">
        <ele>843.5</ele>
        <time>2015-09-18T11:43:41Z</time>
      </trkpt>
      <trkpt lat="42.46306" lon="2.76597">
        <ele>845.1</ele>
        <time>2015-09-18T11:43:42Z</time>
      </trkpt>
      <trkpt lat="42.4631" lon="2.76598">
        <ele>846.5</ele>
        <time>2015-09-18T11:43:43Z</time>
      </trkpt>
      <trkpt lat="42.46313" lon="2.766">
        <ele>847.6</ele>
        <time>2015-09-18T11:43:44Z</time>
      </trkpt>
      <trkpt lat="42.46316" lon="2.76603">
        <ele>848.4</ele>
        <time>2015-09-18T11:43:45Z</time>
      </trkpt>
      <trkpt lat="42.46319" lon="2.76605">
        <ele>848.5</ele>
        <time>2015-09-18T11:43:46Z</time>
      </trkpt>
      <trkpt lat="42.46324" lon="2.76608">
        <ele>848.3</ele>
        <time>2015-09-18T11:43:48Z</time>
      </trkpt>
      <trkpt lat="42.46326" lon="2.7661">
        <ele>848.4</ele>
        <time>2015-09-18T11:43:49Z</time>
      </trkpt>
      <trkpt lat="42.46326" lon="2.76612">
        <ele>848.2</ele>
        <time>2015-09-18T11:43:50Z</time>
      </trkpt>
      <trkpt lat="42.46326" lon="2.76612">
        <ele>847.4</ele>
        <time>2015-09-18T11:43:50Z</time>
      </trkpt>
      <trkpt lat="42.46323" lon="2.76622">
        <ele>846.1</ele>
        <time>2015-09-18T11:43:52Z</time>
      </trkpt>
      <trkpt lat="42.4632" lon="2.76628">
        <ele>844.5</ele>
        <time>2015-09-18T11:43:53Z</time>
      </trkpt>
      <trkpt lat="42.46316" lon="2.76635">
        <ele>842.7</ele>
        <time>2015-09-18T11:43:54Z</time>
      </trkpt>
      <trkpt lat="42.46311" lon="2.76644">
        <ele>840.7</ele>
        <time>2015-09-18T11:43:55Z</time>
      </trkpt>
      <trkpt lat="42.46305" lon="2.76652">
        <ele>839.4</ele>
        <time>2015-09-18T11:43:56Z</time>
      </trkpt>
      <trkpt lat="42.46296" lon="2.7666">
        <ele>839.1</ele>
        <time>2015-09-18T11:43:57Z</time>
      </trkpt>
      <trkpt lat="42.46286" lon="2.76663">
        <ele>837.6</ele>
        <time>2015-09-18T11:43:58Z</time>
      </trkpt>
      <trkpt lat="42.46275" lon="2.76661">
        <ele>836.5</ele>
        <time>2015-09-18T11:43:59Z</time>
      </trkpt>
      <trkpt lat="42.46264" lon="2.76652">
        <ele>834.7</ele>
        <time>2015-09-18T11:44:00Z</time>
      </trkpt>
      <trkpt lat="42.46256" lon="2.76639">
        <ele>833.2</ele>
        <time>2015-09-18T11:44:01Z</time>
      </trkpt>
      <trkpt lat="42.4625" lon="2.76623">
        <ele>832.2</ele>
        <time>2015-09-18T11:44:02Z</time>
      </trkpt>
      <trkpt lat="42.46249" lon="2.76606">
        <ele>831.4</ele>
        <time>2015-09-18T11:44:03Z</time>
      </trkpt>
      <trkpt lat="42.46249" lon="2.76606">
        <ele>832.3</ele>
        <time>2015-09-18T11:44:03Z</time>
      </trkpt>
      <trkpt lat="42.46257" lon="2.76582">
        <ele>832.3</ele>
        <time>2015-09-18T11:44:05Z</time>
      </trkpt>
      <trkpt lat="42.46263" lon="2.76576">
        <ele>833.6</ele>
        <time>2015-09-18T11:44:06Z</time>
      </trkpt>
      <trkpt lat="42.46272" lon="2.76565">
        <ele>832.8</ele>
        <time>2015-09-18T11:44:08Z</time>
      </trkpt>
      <trkpt lat="42.46275" lon="2.76558">
        <ele>830.3</ele>
        <time>2015-09-18T11:44:09Z</time>
      </trkpt>
      <trkpt lat="42.4628" lon="2.76552">
        <ele>827.4</ele>
        <time>2015-09-18T11:44:10Z</time>
      </trkpt>
      <trkpt lat="42.46286" lon="2.76548">
        <ele>824.9</ele>
        <time>2015-09-18T11:44:11Z</time>
      </trkpt>
      <trkpt lat="42.46293" lon="2.76547">
        <ele>824.2</ele>
        <time>2015-09-18T11:44:12Z</time>
      </trkpt>
      <trkpt lat="42.46299" lon="2.76547">
        <ele>823.7</ele>
        <time>2015-09-18T11:44:13Z</time>
      </trkpt>
      <trkpt lat="42.46303" lon="2.76547">
        <ele>824.6</ele>
        <time>2015-09-18T11:44:14Z</time>
      </trkpt>
      <trkpt lat="42.46306" lon="2.76547">
        <ele>823.5</ele>
        <time>2015-09-18T11:44:15Z</time>
      </trkpt>
      <trkpt lat="42.46309" lon="2.76548">
        <ele>822.4</ele>
        <time>2015-09-18T11:44:16Z</time>
      </trkpt>
      <trkpt lat="42.46312" lon="2.76549">
        <ele>819.1</ele>
        <time>2015-09-18T11:44:17Z</time>
      </trkpt>
      <trkpt lat="42.46317" lon="2.7655">
        <ele>818.1</ele>
        <time>2015-09-18T11:44:18Z</time>
      </trkpt>
      <trkpt lat="42.46329" lon="2.76553">
        <ele>816.9</ele>
        <time>2015-09-18T11:44:20Z</time>
      </trkpt>
      <trkpt lat="42.46329" lon="2.76553">
        <ele>816.1</ele>
        <time>2015-09-18T11:44:20Z</time>
      </trkpt>
      <trkpt lat="42.4634" lon="2.76557">
        <ele>814.8</ele>
        <time>2015-09-18T11:44:22Z</time>
      </trkpt>
      <trkpt lat="42.46346" lon="2.76556">
        <ele>811.8</ele>
        <time>2015-09-18T11:44:23Z</time>
      </trkpt>
      <trkpt lat="42.46352" lon="2.76556">
        <ele>809.8</ele>
        <time>2015-09-18T11:44:24Z</time>
      </trkpt>
      <trkpt lat="42.46359" lon="2.76556">
        <ele>808.7</ele>
        <time>2015-09-18T11:44:25Z</time>
      </trkpt>
      <trkpt lat="42.46366" lon="2.76556">
        <ele>807.8</ele>
        <time>2015-09-18T11:44:26Z</time>
      </trkpt>
      <trkpt lat="42.46372" lon="2.76555">
        <ele>807.1</ele>
        <time>2015-09-18T11:44:27Z</time>
      </trkpt>
      <trkpt lat="42.46378" lon="2.76553">
        <ele>806</ele>
        <time>2015-09-18T11:44:28Z</time>
      </trkpt>
      <trkpt lat="42.46384" lon="2.76549">
        <ele>804.8</ele>
        <time>2015-09-18T11:44:29Z</time>
      </trkpt>
      <trkpt lat="42.46391" lon="2.76545">
        <ele>803.7</ele>
        <time>2015-09-18T11:44:30Z</time>
      </trkpt>
      <trkpt lat="42.46398" lon="2.76541">
        <ele>802.9</ele>
        <time>2015-09-18T11:44:31Z</time>
      </trkpt>
      <trkpt lat="42.46405" lon="2.76537">
        <ele>802.6</ele>
        <time>2015-09-18T11:44:32Z</time>
      </trkpt>
      <trkpt lat="42.46412" lon="2.76531">
        <ele>802.3</ele>
        <time>2015-09-18T11:44:33Z</time>
      </trkpt>
      <trkpt lat="42.46418" lon="2.76525">
        <ele>801.2</ele>
        <time>2015-09-18T11:44:34Z</time>
      </trkpt>
      <trkpt lat="42.46425" lon="2.76519">
        <ele>799.3</ele>
        <time>2015-09-18T11:44:35Z</time>
      </trkpt>
      <trkpt lat="42.46432" lon="2.76512">
        <ele>797.4</ele>
        <time>2015-09-18T11:44:36Z</time>
      </trkpt>
      <trkpt lat="42.46446" lon="2.765">
        <ele>794.2</ele>
        <time>2015-09-18T11:44:38Z</time>
      </trkpt>
      <trkpt lat="42.46454" lon="2.76494">
        <ele>793.4</ele>
        <time>2015-09-18T11:44:39Z</time>
      </trkpt>
      <trkpt lat="42.46461" lon="2.76487">
        <ele>793.4</ele>
        <time>2015-09-18T11:44:40Z</time>
      </trkpt>
      <trkpt lat="42.46467" lon="2.76481">
        <ele>794</ele>
        <time>2015-09-18T11:44:41Z</time>
      </trkpt>
      <trkpt lat="42.46473" lon="2.76476">
        <ele>794.4</ele>
        <time>2015-09-18T11:44:42Z</time>
      </trkpt>
      <trkpt lat="42.46478" lon="2.76472">
        <ele>794.4</ele>
        <time>2015-09-18T11:44:43Z</time>
      </trkpt>
      <trkpt lat="42.46483" lon="2.76468">
        <ele>793.2</ele>
        <time>2015-09-18T11:44:44Z</time>
      </trkpt>
      <trkpt lat="42.46488" lon="2.76462">
        <ele>791.7</ele>
        <time>2015-09-18T11:44:45Z</time>
      </trkpt>
      <trkpt lat="42.46494" lon="2.76456">
        <ele>790</ele>
        <time>2015-09-18T11:44:46Z</time>
      </trkpt>
      <trkpt lat="42.46501" lon="2.76449">
        <ele>788.6</ele>
        <time>2015-09-18T11:44:47Z</time>
      </trkpt>
      <trkpt lat="42.46508" lon="2.76442">
        <ele>787.9</ele>
        <time>2015-09-18T11:44:48Z</time>
      </trkpt>
      <trkpt lat="42.46515" lon="2.76434">
        <ele>787.2</ele>
        <time>2015-09-18T11:44:49Z</time>
      </trkpt>
      <trkpt lat="42.46522" lon="2.76427">
        <ele>786.6</ele>
        <time>2015-09-18T11:44:50Z</time>
      </trkpt>
      <trkpt lat="42.46529" lon="2.76418">
        <ele>786.3</ele>
        <time>2015-09-18T11:44:51Z</time>
      </trkpt>
      <trkpt lat="42.46536" lon="2.76409">
        <ele>786.8</ele>
        <time>2015-09-18T11:44:52Z</time>
      </trkpt>
      <trkpt lat="42.46536" lon="2.76409">
        <ele>786.8</ele>
        <time>2015-09-18T11:44:52Z</time>
      </trkpt>
      <trkpt lat="42.46558" lon="2.76383">
        <ele>788.4</ele>
        <time>2015-09-18T11:44:55Z</time>
      </trkpt>
      <trkpt lat="42.46558" lon="2.76383">
        <ele>792.1</ele>
        <time>2015-09-18T11:44:55Z</time>
      </trkpt>
      <trkpt lat="42.46571" lon="2.76367">
        <ele>793.8</ele>
        <time>2015-09-18T11:44:57Z</time>
      </trkpt>
      <trkpt lat="42.46577" lon="2.76359">
        <ele>795.7</ele>
        <time>2015-09-18T11:44:58Z</time>
      </trkpt>
      <trkpt lat="42.46583" lon="2.76352">
        <ele>795.7</ele>
        <time>2015-09-18T11:44:59Z</time>
      </trkpt>
      <trkpt lat="42.46589" lon="2.76347">
        <ele>800.3</ele>
        <time>2015-09-18T11:45:00Z</time>
      </trkpt>
      <trkpt lat="42.46596" lon="2.76341">
        <ele>802.6</ele>
        <time>2015-09-18T11:45:01Z</time>
      </trkpt>
      <trkpt lat="42.46603" lon="2.76337">
        <ele>805</ele>
        <time>2015-09-18T11:45:02Z</time>
      </trkpt>
      <trkpt lat="42.4661" lon="2.76333">
        <ele>807.2</ele>
        <time>2015-09-18T11:45:03Z</time>
      </trkpt>
      <trkpt lat="42.46617" lon="2.76333">
        <ele>809.3</ele>
        <time>2015-09-18T11:45:04Z</time>
      </trkpt>
      <trkpt lat="42.46624" lon="2.76335">
        <ele>811.3</ele>
        <time>2015-09-18T11:45:05Z</time>
      </trkpt>
      <trkpt lat="42.46629" lon="2.76339">
        <ele>813.9</ele>
        <time>2015-09-18T11:45:06Z</time>
      </trkpt>
      <trkpt lat="42.46632" lon="2.76343">
        <ele>820</ele>
        <time>2015-09-18T11:45:07Z</time>
      </trkpt>
      <trkpt lat="42.46636" lon="2.7635">
        <ele>820</ele>
        <time>2015-09-18T11:45:09Z</time>
      </trkpt>
      <trkpt lat="42.46638" lon="2.76354">
        <ele>829</ele>
        <time>2015-09-18T11:45:10Z</time>
      </trkpt>
      <trkpt lat="42.46638" lon="2.76354">
        <ele>833.7</ele>
        <time>2015-09-18T11:45:10Z</time>
      </trkpt>
      <trkpt lat="42.46638" lon="2.76363">
        <ele>838.4</ele>
        <time>2015-09-18T11:45:12Z</time>
      </trkpt>
      <trkpt lat="42.46635" lon="2.76369">
        <ele>842.4</ele>
        <time>2015-09-18T11:45:13Z</time>
      </trkpt>
      <trkpt lat="42.4663" lon="2.76374">
        <ele>846.2</ele>
        <time>2015-09-18T11:45:14Z</time>
      </trkpt>
      <trkpt lat="42.46626" lon="2.76379">
        <ele>849.8</ele>
        <time>2015-09-18T11:45:15Z</time>
      </trkpt>
      <trkpt lat="42.46623" lon="2.76383">
        <ele>853.1</ele>
        <time>2015-09-18T11:45:16Z</time>
      </trkpt>
      <trkpt lat="42.4662" lon="2.76387">
        <ele>856.3</ele>
        <time>2015-09-18T11:45:17Z</time>
      </trkpt>
      <trkpt lat="42.46616" lon="2.76392">
        <ele>859.1</ele>
        <time>2015-09-18T11:45:18Z</time>
      </trkpt>
      <trkpt lat="42.46611" lon="2.76399">
        <ele>861.3</ele>
        <time>2015-09-18T11:45:19Z</time>
      </trkpt>
      <trkpt lat="42.46604" lon="2.76405">
        <ele>863.7</ele>
        <time>2015-09-18T11:45:20Z</time>
      </trkpt>
      <trkpt lat="42.46597" lon="2.76411">
        <ele>865.9</ele>
        <time>2015-09-18T11:45:21Z</time>
      </trkpt>
      <trkpt lat="42.4659" lon="2.76416">
        <ele>867.7</ele>
        <time>2015-09-18T11:45:22Z</time>
      </trkpt>
      <trkpt lat="42.4659" lon="2.76416">
        <ele>871.7</ele>
        <time>2015-09-18T11:45:22Z</time>
      </trkpt>
      <trkpt lat="42.46578" lon="2.7643">
        <ele>871.7</ele>
        <time>2015-09-18T11:45:24Z</time>
      </trkpt>
      <trkpt lat="42.46572" lon="2.76437">
        <ele>878.3</ele>
        <time>2015-09-18T11:45:25Z</time>
      </trkpt>
      <trkpt lat="42.46561" lon="2.76448">
        <ele>882.4</ele>
        <time>2015-09-18T11:45:27Z</time>
      </trkpt>
      <trkpt lat="42.46556" lon="2.76451">
        <ele>885.5</ele>
        <time>2015-09-18T11:45:28Z</time>
      </trkpt>
      <trkpt lat="42.46548" lon="2.76453">
        <ele>887.2</ele>
        <time>2015-09-18T11:45:29Z</time>
      </trkpt>
      <trkpt lat="42.46539" lon="2.76454">
        <ele>888.1</ele>
        <time>2015-09-18T11:45:30Z</time>
      </trkpt>
      <trkpt lat="42.46527" lon="2.76452">
        <ele>888.9</ele>
        <time>2015-09-18T11:45:31Z</time>
      </trkpt>
      <trkpt lat="42.46516" lon="2.76446">
        <ele>890.9</ele>
        <time>2015-09-18T11:45:32Z</time>
      </trkpt>
      <trkpt lat="42.46507" lon="2.76434">
        <ele>892.6</ele>
        <time>2015-09-18T11:45:33Z</time>
      </trkpt>
      <trkpt lat="42.46501" lon="2.76419">
        <ele>892.6</ele>
        <time>2015-09-18T11:45:34Z</time>
      </trkpt>
      <trkpt lat="42.46497" lon="2.76403">
        <ele>895.2</ele>
        <time>2015-09-18T11:45:35Z</time>
      </trkpt>
      <trkpt lat="42.46497" lon="2.76391">
        <ele>897.5</ele>
        <time>2015-09-18T11:45:36Z</time>
      </trkpt>
      <trkpt lat="42.465" lon="2.76382">
        <ele>900.3</ele>
        <time>2015-09-18T11:45:37Z</time>
      </trkpt>
      <trkpt lat="42.465" lon="2.76382">
        <ele>906.2</ele>
        <time>2015-09-18T11:45:37Z</time>
      </trkpt>
      <trkpt lat="42.465" lon="2.76382">
        <ele>909.3</ele>
        <time>2015-09-18T11:45:37Z</time>
      </trkpt>
      <trkpt lat="42.46513" lon="2.76377">
        <ele>912.5</ele>
        <time>2015-09-18T11:45:40Z</time>
      </trkpt>
      <trkpt lat="42.46516" lon="2.76387">
        <ele>916.3</ele>
        <time>2015-09-18T11:45:42Z</time>
      </trkpt>
      <trkpt lat="42.46516" lon="2.76392">
        <ele>920</ele>
        <time>2015-09-18T11:45:43Z</time>
      </trkpt>
      <trkpt lat="42.46515" lon="2.76396">
        <ele>923.8</ele>
        <time>2015-09-18T11:45:44Z</time>
      </trkpt>
      <trkpt lat="42.46513" lon="2.76399">
        <ele>926.6</ele>
        <time>2015-09-18T11:45:45Z</time>
      </trkpt>
      <trkpt lat="42.4651" lon="2.76402">
        <ele>928.1</ele>
        <time>2015-09-18T11:45:46Z</time>
      </trkpt>
      <trkpt lat="42.46505" lon="2.76405">
        <ele>928.9</ele>
        <time>2015-09-18T11:45:47Z</time>
      </trkpt>
      <trkpt lat="42.46498" lon="2.7641">
        <ele>929.9</ele>
        <time>2015-09-18T11:45:48Z</time>
      </trkpt>
      <trkpt lat="42.4649" lon="2.76416">
        <ele>931.5</ele>
        <time>2015-09-18T11:45:49Z</time>
      </trkpt>
      <trkpt lat="42.46482" lon="2.7642">
        <ele>933.4</ele>
        <time>2015-09-18T11:45:50Z</time>
      </trkpt>
      <trkpt lat="42.46474" lon="2.76423">
        <ele>934.8</ele>
        <time>2015-09-18T11:45:51Z</time>
      </trkpt>
      <trkpt lat="42.46465" lon="2.76426">
        <ele>936</ele>
        <time>2015-09-18T11:45:52Z</time>
      </trkpt>
      <trkpt lat="42.46456" lon="2.76428">
        <ele>937.3</ele>
        <time>2015-09-18T11:45:53Z</time>
      </trkpt>
      <trkpt lat="42.46447" lon="2.76428">
        <ele>938.6</ele>
        <time>2015-09-18T11:45:54Z</time>
      </trkpt>
      <trkpt lat="42.46436" lon="2.76425">
        <ele>937.4</ele>
        <time>2015-09-18T11:45:55Z</time>
      </trkpt>
      <trkpt lat="42.46415" lon="2.76407">
        <ele>939.8</ele>
        <time>2015-09-18T11:45:57Z</time>
      </trkpt>
      <trkpt lat="42.46406" lon="2.76394">
        <ele>942</ele>
        <time>2015-09-18T11:45:58Z</time>
      </trkpt>
      <trkpt lat="42.46399" lon="2.76379">
        <ele>944.2</ele>
        <time>2015-09-18T11:45:59Z</time>
      </trkpt>
      <trkpt lat="42.46394" lon="2.76364">
        <ele>945.8</ele>
        <time>2015-09-18T11:46:00Z</time>
      </trkpt>
      <trkpt lat="42.46393" lon="2.76348">
        <ele>947.2</ele>
        <time>2015-09-18T11:46:01Z</time>
      </trkpt>
      <trkpt lat="42.46394" lon="2.76334">
        <ele>949.3</ele>
        <time>2015-09-18T11:46:02Z</time>
      </trkpt>
      <trkpt lat="42.46397" lon="2.76321">
        <ele>952.2</ele>
        <time>2015-09-18T11:46:03Z</time>
      </trkpt>
      <trkpt lat="42.464" lon="2.7631">
        <ele>955.2</ele>
        <time>2015-09-18T11:46:04Z</time>
      </trkpt>
      <trkpt lat="42.46403" lon="2.76302">
        <ele>957.9</ele>
        <time>2015-09-18T11:46:05Z</time>
      </trkpt>
      <trkpt lat="42.46406" lon="2.76295">
        <ele>960.4</ele>
        <time>2015-09-18T11:46:06Z</time>
      </trkpt>
      <trkpt lat="42.46409" lon="2.76288">
        <ele>962.6</ele>
        <time>2015-09-18T11:46:07Z</time>
      </trkpt>
      <trkpt lat="42.46412" lon="2.76284">
        <ele>964.1</ele>
        <time>2015-09-18T11:46:08Z</time>
      </trkpt>
      <trkpt lat="42.46415" lon="2.76282">
        <ele>965.3</ele>
        <time>2015-09-18T11:46:09Z</time>
      </trkpt>
      <trkpt lat="42.46418" lon="2.76281">
        <ele>967.4</ele>
        <time>2015-09-18T11:46:10Z</time>
      </trkpt>
      <trkpt lat="42.46425" lon="2.76282">
        <ele>968.4</ele>
        <time>2015-09-18T11:46:12Z</time>
      </trkpt>
      <trkpt lat="42.46428" lon="2.76283">
        <ele>969.5</ele>
        <time>2015-09-18T11:46:13Z</time>
      </trkpt>
      <trkpt lat="42.46431" lon="2.76284">
        <ele>970.7</ele>
        <time>2015-09-18T11:46:14Z</time>
      </trkpt>
      <trkpt lat="42.46434" lon="2.76286">
        <ele>971.7</ele>
        <time>2015-09-18T11:46:15Z</time>
      </trkpt>
      <trkpt lat="42.46434" lon="2.76286">
        <ele>972.7</ele>
        <time>2015-09-18T11:46:15Z</time>
      </trkpt>
      <trkpt lat="42.46438" lon="2.76293">
        <ele>973.9</ele>
        <time>2015-09-18T11:46:17Z</time>
      </trkpt>
      <trkpt lat="42.4644" lon="2.76298">
        <ele>975.1</ele>
        <time>2015-09-18T11:46:18Z</time>
      </trkpt>
      <trkpt lat="42.46442" lon="2.76303">
        <ele>976.2</ele>
        <time>2015-09-18T11:46:19Z</time>
      </trkpt>
      <trkpt lat="42.46444" lon="2.76307">
        <ele>977.3</ele>
        <time>2015-09-18T11:46:20Z</time>
      </trkpt>
      <trkpt lat="42.46445" lon="2.76312">
        <ele>978.5</ele>
        <time>2015-09-18T11:46:21Z</time>
      </trkpt>
      <trkpt lat="42.46444" lon="2.76319">
        <ele>980</ele>
        <time>2015-09-18T11:46:22Z</time>
      </trkpt>
      <trkpt lat="42.46443" lon="2.76325">
        <ele>982.6</ele>
        <time>2015-09-18T11:46:23Z</time>
      </trkpt>
      <trkpt lat="42.46442" lon="2.76332">
        <ele>988.3</ele>
        <time>2015-09-18T11:46:24Z</time>
      </trkpt>
      <trkpt lat="42.46442" lon="2.76332">
        <ele>990.9</ele>
        <time>2015-09-18T11:46:24Z</time>
      </trkpt>
      <trkpt lat="42.46435" lon="2.76345">
        <ele>992.4</ele>
        <time>2015-09-18T11:46:27Z</time>
      </trkpt>
      <trkpt lat="42.4643" lon="2.76351">
        <ele>993.4</ele>
        <time>2015-09-18T11:46:28Z</time>
      </trkpt>
      <trkpt lat="42.46421" lon="2.76357">
        <ele>994.8</ele>
        <time>2015-09-18T11:46:29Z</time>
      </trkpt>
      <trkpt lat="42.46411" lon="2.76361">
        <ele>996.6</ele>
        <time>2015-09-18T11:46:30Z</time>
      </trkpt>
      <trkpt lat="42.464" lon="2.76361">
        <ele>997.8</ele>
        <time>2015-09-18T11:46:31Z</time>
      </trkpt>
      <trkpt lat="42.46389" lon="2.76356">
        <ele>998.9</ele>
        <time>2015-09-18T11:46:32Z</time>
      </trkpt>
      <trkpt lat="42.46378" lon="2.76346">
        <ele>999.5</ele>
        <time>2015-09-18T11:46:33Z</time>
      </trkpt>
      <trkpt lat="42.46371" lon="2.76332">
        <ele>999.9</ele>
        <time>2015-09-18T11:46:34Z</time>
      </trkpt>
      <trkpt lat="42.46366" lon="2.76317">
        <ele>1000.1</ele>
        <time>2015-09-18T11:46:35Z</time>
      </trkpt>
      <trkpt lat="42.46364" lon="2.76301">
        <ele>1000.6</ele>
        <time>2015-09-18T11:46:36Z</time>
      </trkpt>
      <trkpt lat="42.46365" lon="2.76288">
        <ele>1001.1</ele>
        <time>2015-09-18T11:46:37Z</time>
      </trkpt>
      <trkpt lat="42.46368" lon="2.76277">
        <ele>1001.8</ele>
        <time>2015-09-18T11:46:38Z</time>
      </trkpt>
      <trkpt lat="42.46372" lon="2.76267">
        <ele>1005.3</ele>
        <time>2015-09-18T11:46:39Z</time>
      </trkpt>
      <trkpt lat="42.46376" lon="2.76259">
        <ele>1005.3</ele>
        <time>2015-09-18T11:46:40Z</time>
      </trkpt>
      <trkpt lat="42.46383" lon="2.76245">
        <ele>1010.6</ele>
        <time>2015-09-18T11:46:42Z</time>
      </trkpt>
      <trkpt lat="42.46385" lon="2.76238">
        <ele>1013.8</ele>
        <time>2015-09-18T11:46:43Z</time>
      </trkpt>
      <trkpt lat="42.46388" lon="2.76232">
        <ele>1015.5</ele>
        <time>2015-09-18T11:46:44Z</time>
      </trkpt>
      <trkpt lat="42.46391" lon="2.76226">
        <ele>1017.4</ele>
        <time>2015-09-18T11:46:45Z</time>
      </trkpt>
      <trkpt lat="42.46395" lon="2.7622">
        <ele>1019.6</ele>
        <time>2015-09-18T11:46:46Z</time>
      </trkpt>
      <trkpt lat="42.46399" lon="2.76215">
        <ele>1022.1</ele>
        <time>2015-09-18T11:46:47Z</time>
      </trkpt>
      <trkpt lat="42.46402" lon="2.7621">
        <ele>1024.5</ele>
        <time>2015-09-18T11:46:48Z</time>
      </trkpt>
      <trkpt lat="42.46405" lon="2.76205">
        <ele>1027.2</ele>
        <time>2015-09-18T11:46:49Z</time>
      </trkpt>
      <trkpt lat="42.46407" lon="2.76201">
        <ele>1028.8</ele>
        <time>2015-09-18T11:46:50Z</time>
      </trkpt>
      <trkpt lat="42.46411" lon="2.76198">
        <ele>1030.2</ele>
        <time>2015-09-18T11:46:51Z</time>
      </trkpt>
      <trkpt lat="42.46415" lon="2.76198">
        <ele>1031.5</ele>
        <time>2015-09-18T11:46:52Z</time>
      </trkpt>
      <trkpt lat="42.46415" lon="2.76198">
        <ele>1033.6</ele>
        <time>2015-09-18T11:46:52Z</time>
      </trkpt>
      <trkpt lat="42.46423" lon="2.76206">
        <ele>1033.6</ele>
        <time>2015-09-18T11:46:55Z</time>
      </trkpt>
      <trkpt lat="42.46423" lon="2.76206">
        <ele>1036</ele>
        <time>2015-09-18T11:46:55Z</time>
      </trkpt>
      <trkpt lat="42.46424" lon="2.76219">
        <ele>1037.1</ele>
        <time>2015-09-18T11:46:57Z</time>
      </trkpt>
      <trkpt lat="42.46422" lon="2.76228">
        <ele>1038.3</ele>
        <time>2015-09-18T11:46:58Z</time>
      </trkpt>
      <trkpt lat="42.46419" lon="2.76238">
        <ele>1039.8</ele>
        <time>2015-09-18T11:46:59Z</time>
      </trkpt>
      <trkpt lat="42.46416" lon="2.76247">
        <ele>1041.6</ele>
        <time>2015-09-18T11:47:00Z</time>
      </trkpt>
      <trkpt lat="42.46411" lon="2.76255">
        <ele>1043.3</ele>
        <time>2015-09-18T11:47:01Z</time>
      </trkpt>
      <trkpt lat="42.46406" lon="2.76262">
        <ele>1044.3</ele>
        <time>2015-09-18T11:47:02Z</time>
      </trkpt>
      <trkpt lat="42.46399" lon="2.7627">
        <ele>1045.2</ele>
        <time>2015-09-18T11:47:03Z</time>
      </trkpt>
      <trkpt lat="42.46392" lon="2.76277">
        <ele>1046.3</ele>
        <time>2015-09-18T11:47:04Z</time>
      </trkpt>
      <trkpt lat="42.46384" lon="2.76284">
        <ele>1047.7</ele>
        <time>2015-09-18T11:47:05Z</time>
      </trkpt>
      <trkpt lat="42.46377" lon="2.7629">
        <ele>1047.7</ele>
        <time>2015-09-18T11:47:06Z</time>
      </trkpt>
      <trkpt lat="42.46369" lon="2.76296">
        <ele>1049.3</ele>
        <time>2015-09-18T11:47:07Z</time>
      </trkpt>
      <trkpt lat="42.46361" lon="2.76302">
        <ele>1049.7</ele>
        <time>2015-09-18T11:47:08Z</time>
      </trkpt>
      <trkpt lat="42.46353" lon="2.76307">
        <ele>1050.8</ele>
        <time>2015-09-18T11:47:09Z</time>
      </trkpt>
      <trkpt lat="42.46343" lon="2.7631">
        <ele>1051</ele>
        <time>2015-09-18T11:47:10Z</time>
      </trkpt>
      <trkpt lat="42.4632" lon="2.76311">
        <ele>1050.6</ele>
        <time>2015-09-18T11:47:12Z</time>
      </trkpt>
      <trkpt lat="42.46308" lon="2.76308">
        <ele>1050.5</ele>
        <time>2015-09-18T11:47:13Z</time>
      </trkpt>
      <trkpt lat="42.46295" lon="2.76303">
        <ele>1050.5</ele>
        <time>2015-09-18T11:47:14Z</time>
      </trkpt>
      <trkpt lat="42.46283" lon="2.76296">
        <ele>1052.2</ele>
        <time>2015-09-18T11:47:15Z</time>
      </trkpt>
      <trkpt lat="42.4627" lon="2.76288">
        <ele>1053.9</ele>
        <time>2015-09-18T11:47:16Z</time>
      </trkpt>
      <trkpt lat="42.46259" lon="2.7628">
        <ele>1055.4</ele>
        <time>2015-09-18T11:47:17Z</time>
      </trkpt>
      <trkpt lat="42.46248" lon="2.76272">
        <ele>1056.8</ele>
        <time>2015-09-18T11:47:18Z</time>
      </trkpt>
      <trkpt lat="42.46237" lon="2.76263">
        <ele>1058.1</ele>
        <time>2015-09-18T11:47:19Z</time>
      </trkpt>
      <trkpt lat="42.46226" lon="2.76254">
        <ele>1059.4</ele>
        <time>2015-09-18T11:47:20Z</time>
      </trkpt>
      <trkpt lat="42.46215" lon="2.76244">
        <ele>1061.2</ele>
        <time>2015-09-18T11:47:21Z</time>
      </trkpt>
      <trkpt lat="42.46206" lon="2.76232">
        <ele>1064.1</ele>
        <time>2015-09-18T11:47:22Z</time>
      </trkpt>
      <trkpt lat="42.46197" lon="2.7622">
        <ele>1064.1</ele>
        <time>2015-09-18T11:47:23Z</time>
      </trkpt>
      <trkpt lat="42.46186" lon="2.76191">
        <ele>1065.7</ele>
        <time>2015-09-18T11:47:25Z</time>
      </trkpt>
      <trkpt lat="42.46186" lon="2.76191">
        <ele>1066.4</ele>
        <time>2015-09-18T11:47:25Z</time>
      </trkpt>
      <trkpt lat="42.46183" lon="2.76162">
        <ele>1067.5</ele>
        <time>2015-09-18T11:47:27Z</time>
      </trkpt>
      <trkpt lat="42.46183" lon="2.76149">
        <ele>1068.7</ele>
        <time>2015-09-18T11:47:28Z</time>
      </trkpt>
      <trkpt lat="42.46185" lon="2.76138">
        <ele>1069.7</ele>
        <time>2015-09-18T11:47:29Z</time>
      </trkpt>
      <trkpt lat="42.46188" lon="2.76129">
        <ele>1070.7</ele>
        <time>2015-09-18T11:47:30Z</time>
      </trkpt>
      <trkpt lat="42.46193" lon="2.76121">
        <ele>1071.5</ele>
        <time>2015-09-18T11:47:31Z</time>
      </trkpt>
      <trkpt lat="42.46198" lon="2.76116">
        <ele>1071.5</ele>
        <time>2015-09-18T11:47:32Z</time>
      </trkpt>
      <trkpt lat="42.46202" lon="2.76114">
        <ele>1074</ele>
        <time>2015-09-18T11:47:33Z</time>
      </trkpt>
      <trkpt lat="42.46206" lon="2.76115">
        <ele>1075.4</ele>
        <time>2015-09-18T11:47:34Z</time>
      </trkpt>
      <trkpt lat="42.46209" lon="2.76117">
        <ele>1077.1</ele>
        <time>2015-09-18T11:47:35Z</time>
      </trkpt>
      <trkpt lat="42.46211" lon="2.76121">
        <ele>1078.7</ele>
        <time>2015-09-18T11:47:36Z</time>
      </trkpt>
      <trkpt lat="42.46212" lon="2.76126">
        <ele>1082</ele>
        <time>2015-09-18T11:47:37Z</time>
      </trkpt>
      <trkpt lat="42.46212" lon="2.76131">
        <ele>1083.9</ele>
        <time>2015-09-18T11:47:38Z</time>
      </trkpt>
      <trkpt lat="42.46209" lon="2.76144">
        <ele>1084.8</ele>
        <time>2015-09-18T11:47:40Z</time>
      </trkpt>
      <trkpt lat="42.46209" lon="2.76144">
        <ele>1086</ele>
        <time>2015-09-18T11:47:40Z</time>
      </trkpt>
      <trkpt lat="42.46204" lon="2.76158">
        <ele>1087.3</ele>
        <time>2015-09-18T11:47:42Z</time>
      </trkpt>
      <trkpt lat="42.46201" lon="2.76165">
        <ele>1088.3</ele>
        <time>2015-09-18T11:47:43Z</time>
      </trkpt>
      <trkpt lat="42.46198" lon="2.76172">
        <ele>1089</ele>
        <time>2015-09-18T11:47:44Z</time>
      </trkpt>
      <trkpt lat="42.46194" lon="2.76179">
        <ele>1089.5</ele>
        <time>2015-09-18T11:47:45Z</time>
      </trkpt>
      <trkpt lat="42.46189" lon="2.76186">
        <ele>1090.1</ele>
        <time>2015-09-18T11:47:46Z</time>
      </trkpt>
      <trkpt lat="42.46185" lon="2.76193">
        <ele>1090.6</ele>
        <time>2015-09-18T11:47:47Z</time>
      </trkpt>
      <trkpt lat="42.46179" lon="2.76199">
        <ele>1091.2</ele>
        <time>2015-09-18T11:47:48Z</time>
      </trkpt>
      <trkpt lat="42.46173" lon="2.76204">
        <ele>1091.1</ele>
        <time>2015-09-18T11:47:49Z</time>
      </trkpt>
      <trkpt lat="42.46165" lon="2.76209">
        <ele>1090.5</ele>
        <time>2015-09-18T11:47:50Z</time>
      </trkpt>
      <trkpt lat="42.46157" lon="2.76214">
        <ele>1089.6</ele>
        <time>2015-09-18T11:47:51Z</time>
      </trkpt>
      <trkpt lat="42.46148" lon="2.7622">
        <ele>1090.2</ele>
        <time>2015-09-18T11:47:52Z</time>
      </trkpt>
      <trkpt lat="42.46139" lon="2.76225">
        <ele>1090.2</ele>
        <time>2015-09-18T11:47:53Z</time>
      </trkpt>
      <trkpt lat="42.46139" lon="2.76225">
        <ele>1091.2</ele>
        <time>2015-09-18T11:47:53Z</time>
      </trkpt>
      <trkpt lat="42.46139" lon="2.76225">
        <ele>1092.1</ele>
        <time>2015-09-18T11:47:53Z</time>
      </trkpt>
      <trkpt lat="42.46101" lon="2.76231">
        <ele>1091.5</ele>
        <time>2015-09-18T11:47:57Z</time>
      </trkpt>
      <trkpt lat="42.46101" lon="2.76231">
        <ele>1090.5</ele>
        <time>2015-09-18T11:47:57Z</time>
      </trkpt>
      <trkpt lat="42.46079" lon="2.76226">
        <ele>1089.1</ele>
        <time>2015-09-18T11:47:59Z</time>
      </trkpt>
      <trkpt lat="42.46067" lon="2.76221">
        <ele>1089.1</ele>
        <time>2015-09-18T11:48:00Z</time>
      </trkpt>
      <trkpt lat="42.46055" lon="2.76215">
        <ele>1088.2</ele>
        <time>2015-09-18T11:48:01Z</time>
      </trkpt>
      <trkpt lat="42.46045" lon="2.76207">
        <ele>1088.2</ele>
        <time>2015-09-18T11:48:02Z</time>
      </trkpt>
      <trkpt lat="42.46035" lon="2.76197">
        <ele>1088</ele>
        <time>2015-09-18T11:48:03Z</time>
      </trkpt>
      <trkpt lat="42.46025" lon="2.76185">
        <ele>1087.8</ele>
        <time>2015-09-18T11:48:04Z</time>
      </trkpt>
      <trkpt lat="42.46016" lon="2.76172">
        <ele>1087.8</ele>
        <time>2015-09-18T11:48:05Z</time>
      </trkpt>
      <trkpt lat="42.46008" lon="2.76158">
        <ele>1088.1</ele>
        <time>2015-09-18T11:48:06Z</time>
      </trkpt>
      <trkpt lat="42.46002" lon="2.76142">
        <ele>1089</ele>
        <time>2015-09-18T11:48:07Z</time>
      </trkpt>
      <trkpt lat="42.45998" lon="2.76127">
        <ele>1089.9</ele>
        <time>2015-09-18T11:48:08Z</time>
      </trkpt>
      <trkpt lat="42.45993" lon="2.76097">
        <ele>1090.9</ele>
        <time>2015-09-18T11:48:10Z</time>
      </trkpt>
      <trkpt lat="42.45993" lon="2.76097">
        <ele>1091.6</ele>
        <time>2015-09-18T11:48:10Z</time>
      </trkpt>
      <trkpt lat="42.45994" lon="2.7607">
        <ele>1092.9</ele>
        <time>2015-09-18T11:48:12Z</time>
      </trkpt>
      <trkpt lat="42.45996" lon="2.76057">
        <ele>1094.6</ele>
        <time>2015-09-18T11:48:13Z</time>
      </trkpt>
      <trkpt lat="42.45998" lon="2.76045">
        <ele>1096.8</ele>
        <time>2015-09-18T11:48:14Z</time>
      </trkpt>
      <trkpt lat="42.46" lon="2.76034">
        <ele>1099.3</ele>
        <time>2015-09-18T11:48:15Z</time>
      </trkpt>
      <trkpt lat="42.46002" lon="2.76024">
        <ele>1101.5</ele>
        <time>2015-09-18T11:48:16Z</time>
      </trkpt>
      <trkpt lat="42.46005" lon="2.76015">
        <ele>1103.1</ele>
        <time>2015-09-18T11:48:17Z</time>
      </trkpt>
      <trkpt lat="42.46009" lon="2.76009">
        <ele>1104.5</ele>
        <time>2015-09-18T11:48:18Z</time>
      </trkpt>
      <trkpt lat="42.46014" lon="2.76005">
        <ele>1105.3</ele>
        <time>2015-09-18T11:48:19Z</time>
      </trkpt>
      <trkpt lat="42.46018" lon="2.76005">
        <ele>1105.8</ele>
        <time>2015-09-18T11:48:20Z</time>
      </trkpt>
      <trkpt lat="42.46022" lon="2.76009">
        <ele>1107.1</ele>
        <time>2015-09-18T11:48:21Z</time>
      </trkpt>
      <trkpt lat="42.46025" lon="2.76021">
        <ele>1107.1</ele>
        <time>2015-09-18T11:48:23Z</time>
      </trkpt>
      <trkpt lat="42.46022" lon="2.76027">
        <ele>1110.9</ele>
        <time>2015-09-18T11:48:24Z</time>
      </trkpt>
      <trkpt lat="42.46017" lon="2.76034">
        <ele>1112.4</ele>
        <time>2015-09-18T11:48:25Z</time>
      </trkpt>
      <trkpt lat="42.46017" lon="2.76034">
        <ele>1112.8</ele>
        <time>2015-09-18T11:48:25Z</time>
      </trkpt>
      <trkpt lat="42.46002" lon="2.76045">
        <ele>1113.2</ele>
        <time>2015-09-18T11:48:27Z</time>
      </trkpt>
      <trkpt lat="42.45991" lon="2.76049">
        <ele>1113.5</ele>
        <time>2015-09-18T11:48:28Z</time>
      </trkpt>
      <trkpt lat="42.4598" lon="2.76051">
        <ele>1113.9</ele>
        <time>2015-09-18T11:48:29Z</time>
      </trkpt>
      <trkpt lat="42.45967" lon="2.76048">
        <ele>1114.4</ele>
        <time>2015-09-18T11:48:30Z</time>
      </trkpt>
      <trkpt lat="42.45955" lon="2.76041">
        <ele>1114.8</ele>
        <time>2015-09-18T11:48:31Z</time>
      </trkpt>
      <trkpt lat="42.45945" lon="2.7603">
        <ele>1115.4</ele>
        <time>2015-09-18T11:48:32Z</time>
      </trkpt>
      <trkpt lat="42.45936" lon="2.76019">
        <ele>1116</ele>
        <time>2015-09-18T11:48:33Z</time>
      </trkpt>
      <trkpt lat="42.45928" lon="2.76006">
        <ele>1118.1</ele>
        <time>2015-09-18T11:48:34Z</time>
      </trkpt>
      <trkpt lat="42.45921" lon="2.75992">
        <ele>1119.6</ele>
        <time>2015-09-18T11:48:35Z</time>
      </trkpt>
      <trkpt lat="42.4591" lon="2.75963">
        <ele>1119.6</ele>
        <time>2015-09-18T11:48:37Z</time>
      </trkpt>
      <trkpt lat="42.45907" lon="2.75949">
        <ele>1122.8</ele>
        <time>2015-09-18T11:48:38Z</time>
      </trkpt>
      <trkpt lat="42.45903" lon="2.75936">
        <ele>1124.3</ele>
        <time>2015-09-18T11:48:39Z</time>
      </trkpt>
      <trkpt lat="42.459" lon="2.75923">
        <ele>1125.2</ele>
        <time>2015-09-18T11:48:40Z</time>
      </trkpt>
      <trkpt lat="42.45898" lon="2.75909">
        <ele>1126.2</ele>
        <time>2015-09-18T11:48:41Z</time>
      </trkpt>
      <trkpt lat="42.45896" lon="2.75895">
        <ele>1127</ele>
        <time>2015-09-18T11:48:42Z</time>
      </trkpt>
      <trkpt lat="42.45895" lon="2.75882">
        <ele>1127.5</ele>
        <time>2015-09-18T11:48:43Z</time>
      </trkpt>
      <trkpt lat="42.45894" lon="2.75869">
        <ele>1127.4</ele>
        <time>2015-09-18T11:48:44Z</time>
      </trkpt>
      <trkpt lat="42.45894" lon="2.75856">
        <ele>1127.6</ele>
        <time>2015-09-18T11:48:45Z</time>
      </trkpt>
      <trkpt lat="42.45896" lon="2.75842">
        <ele>1128.3</ele>
        <time>2015-09-18T11:48:46Z</time>
      </trkpt>
      <trkpt lat="42.459" lon="2.7583">
        <ele>1129.7</ele>
        <time>2015-09-18T11:48:47Z</time>
      </trkpt>
      <trkpt lat="42.45905" lon="2.75821">
        <ele>1131.7</ele>
        <time>2015-09-18T11:48:48Z</time>
      </trkpt>
      <trkpt lat="42.45911" lon="2.75816">
        <ele>1133.6</ele>
        <time>2015-09-18T11:48:49Z</time>
      </trkpt>
      <trkpt lat="42.45917" lon="2.75811">
        <ele>1134.7</ele>
        <time>2015-09-18T11:48:50Z</time>
      </trkpt>
      <trkpt lat="42.45926" lon="2.75799">
        <ele>1137.4</ele>
        <time>2015-09-18T11:48:52Z</time>
      </trkpt>
      <trkpt lat="42.45931" lon="2.75794">
        <ele>1138.8</ele>
        <time>2015-09-18T11:48:53Z</time>
      </trkpt>
      <trkpt lat="42.45936" lon="2.7579">
        <ele>1140.4</ele>
        <time>2015-09-18T11:48:54Z</time>
      </trkpt>
      <trkpt lat="42.45941" lon="2.75785">
        <ele>1142.7</ele>
        <time>2015-09-18T11:48:55Z</time>
      </trkpt>
      <trkpt lat="42.45941" lon="2.75785">
        <ele>1145.4</ele>
        <time>2015-09-18T11:48:55Z</time>
      </trkpt>
      <trkpt lat="42.4595" lon="2.75776">
        <ele>1148.5</ele>
        <time>2015-09-18T11:48:57Z</time>
      </trkpt>
      <trkpt lat="42.45952" lon="2.75773">
        <ele>1151.5</ele>
        <time>2015-09-18T11:48:58Z</time>
      </trkpt>
      <trkpt lat="42.45954" lon="2.75771">
        <ele>1153.7</ele>
        <time>2015-09-18T11:48:59Z</time>
      </trkpt>
      <trkpt lat="42.45955" lon="2.75771">
        <ele>1153.2</ele>
        <time>2015-09-18T11:49:00Z</time>
      </trkpt>
      <trkpt lat="42.45956" lon="2.75775">
        <ele>1154.8</ele>
        <time>2015-09-18T11:49:01Z</time>
      </trkpt>
      <trkpt lat="42.45957" lon="2.75779">
        <ele>1157.1</ele>
        <time>2015-09-18T11:49:02Z</time>
      </trkpt>
      <trkpt lat="42.45958" lon="2.75784">
        <ele>1159.8</ele>
        <time>2015-09-18T11:49:03Z</time>
      </trkpt>
      <trkpt lat="42.45958" lon="2.75789">
        <ele>1162.4</ele>
        <time>2015-09-18T11:49:04Z</time>
      </trkpt>
      <trkpt lat="42.45958" lon="2.75793">
        <ele>1165.2</ele>
        <time>2015-09-18T11:49:05Z</time>
      </trkpt>
      <trkpt lat="42.45956" lon="2.75804">
        <ele>1169.4</ele>
        <time>2015-09-18T11:49:07Z</time>
      </trkpt>
      <trkpt lat="42.45955" lon="2.7581">
        <ele>1171.6</ele>
        <time>2015-09-18T11:49:08Z</time>
      </trkpt>
      <trkpt lat="42.45954" lon="2.75816">
        <ele>1173.9</ele>
        <time>2015-09-18T11:49:09Z</time>
      </trkpt>
      <trkpt lat="42.45954" lon="2.75821">
        <ele>1173.9</ele>
        <time>2015-09-18T11:49:10Z</time>
      </trkpt>
      <trkpt lat="42.45953" lon="2.75827">
        <ele>1178</ele>
        <time>2015-09-18T11:49:11Z</time>
      </trkpt>
      <trkpt lat="42.45951" lon="2.75833">
        <ele>1179</ele>
        <time>2015-09-18T11:49:12Z</time>
      </trkpt>
      <trkpt lat="42.45947" lon="2.75839">
        <ele>1179.3</ele>
        <time>2015-09-18T11:49:13Z</time>
      </trkpt>
      <trkpt lat="42.45941" lon="2.75844">
        <ele>1179.2</ele>
        <time>2015-09-18T11:49:14Z</time>
      </trkpt>
      <trkpt lat="42.45933" lon="2.75848">
        <ele>1179</ele>
        <time>2015-09-18T11:49:15Z</time>
      </trkpt>
      <trkpt lat="42.45925" lon="2.75851">
        <ele>1178.7</ele>
        <time>2015-09-18T11:49:16Z</time>
      </trkpt>
      <trkpt lat="42.45915" lon="2.75854">
        <ele>1178.6</ele>
        <time>2015-09-18T11:49:17Z</time>
      </trkpt>
      <trkpt lat="42.45905" lon="2.75856">
        <ele>1178.5</ele>
        <time>2015-09-18T11:49:18Z</time>
      </trkpt>
      <trkpt lat="42.45895" lon="2.75856">
        <ele>1177.2</ele>
        <time>2015-09-18T11:49:19Z</time>
      </trkpt>
      <trkpt lat="42.45884" lon="2.75855">
        <ele>1175.8</ele>
        <time>2015-09-18T11:49:20Z</time>
      </trkpt>
      <trkpt lat="42.45873" lon="2.7585">
        <ele>1172.9</ele>
        <time>2015-09-18T11:49:21Z</time>
      </trkpt>
      <trkpt lat="42.45861" lon="2.75841">
        <ele>1172.9</ele>
        <time>2015-09-18T11:49:22Z</time>
      </trkpt>
      <trkpt lat="42.45845" lon="2.75813">
        <ele>1171.5</ele>
        <time>2015-09-18T11:49:24Z</time>
      </trkpt>
      <trkpt lat="42.45842" lon="2.75797">
        <ele>1171.4</ele>
        <time>2015-09-18T11:49:25Z</time>
      </trkpt>
      <trkpt lat="42.45842" lon="2.75797">
        <ele>1171.2</ele>
        <time>2015-09-18T11:49:25Z</time>
      </trkpt>
      <trkpt lat="42.4584" lon="2.75768">
        <ele>1170.7</ele>
        <time>2015-09-18T11:49:27Z</time>
      </trkpt>
      <trkpt lat="42.45842" lon="2.75755">
        <ele>1170</ele>
        <time>2015-09-18T11:49:28Z</time>
      </trkpt>
      <trkpt lat="42.45846" lon="2.75743">
        <ele>1169.4</ele>
        <time>2015-09-18T11:49:29Z</time>
      </trkpt>
      <trkpt lat="42.45851" lon="2.75733">
        <ele>1169.1</ele>
        <time>2015-09-18T11:49:30Z</time>
      </trkpt>
      <trkpt lat="42.45856" lon="2.75725">
        <ele>1169.4</ele>
        <time>2015-09-18T11:49:31Z</time>
      </trkpt>
      <trkpt lat="42.45861" lon="2.75719">
        <ele>1169.7</ele>
        <time>2015-09-18T11:49:32Z</time>
      </trkpt>
      <trkpt lat="42.45867" lon="2.75713">
        <ele>1170.2</ele>
        <time>2015-09-18T11:49:33Z</time>
      </trkpt>
      <trkpt lat="42.45872" lon="2.75706">
        <ele>1170.9</ele>
        <time>2015-09-18T11:49:34Z</time>
      </trkpt>
      <trkpt lat="42.45878" lon="2.757">
        <ele>1172.1</ele>
        <time>2015-09-18T11:49:35Z</time>
      </trkpt>
      <trkpt lat="42.45883" lon="2.75694">
        <ele>1173.3</ele>
        <time>2015-09-18T11:49:36Z</time>
      </trkpt>
      <trkpt lat="42.45889" lon="2.75689">
        <ele>1174.4</ele>
        <time>2015-09-18T11:49:37Z</time>
      </trkpt>
      <trkpt lat="42.45894" lon="2.75684">
        <ele>1175.3</ele>
        <time>2015-09-18T11:49:38Z</time>
      </trkpt>
      <trkpt lat="42.45899" lon="2.75679">
        <ele>1176.3</ele>
        <time>2015-09-18T11:49:39Z</time>
      </trkpt>
      <trkpt lat="42.45899" lon="2.75679">
        <ele>1177.5</ele>
        <time>2015-09-18T11:49:39Z</time>
      </trkpt>
      <trkpt lat="42.45915" lon="2.75672">
        <ele>1181.1</ele>
        <time>2015-09-18T11:49:42Z</time>
      </trkpt>
      <trkpt lat="42.4592" lon="2.7567">
        <ele>1182.7</ele>
        <time>2015-09-18T11:49:43Z</time>
      </trkpt>
      <trkpt lat="42.45925" lon="2.75667">
        <ele>1184.4</ele>
        <time>2015-09-18T11:49:44Z</time>
      </trkpt>
      <trkpt lat="42.45931" lon="2.75665">
        <ele>1186.7</ele>
        <time>2015-09-18T11:49:45Z</time>
      </trkpt>
      <trkpt lat="42.45936" lon="2.75664">
        <ele>1189.2</ele>
        <time>2015-09-18T11:49:46Z</time>
      </trkpt>
      <trkpt lat="42.45942" lon="2.75664">
        <ele>1191.8</ele>
        <time>2015-09-18T11:49:47Z</time>
      </trkpt>
      <trkpt lat="42.45947" lon="2.75666">
        <ele>1194.3</ele>
        <time>2015-09-18T11:49:48Z</time>
      </trkpt>
      <trkpt lat="42.45952" lon="2.75667">
        <ele>1196.4</ele>
        <time>2015-09-18T11:49:49Z</time>
      </trkpt>
      <trkpt lat="42.45958" lon="2.75667">
        <ele>1198.5</ele>
        <time>2015-09-18T11:49:50Z</time>
      </trkpt>
      <trkpt lat="42.45963" lon="2.75668">
        <ele>1200.8</ele>
        <time>2015-09-18T11:49:51Z</time>
      </trkpt>
      <trkpt lat="42.45969" lon="2.75671">
        <ele>1203.2</ele>
        <time>2015-09-18T11:49:52Z</time>
      </trkpt>
      <trkpt lat="42.45974" lon="2.75674">
        <ele>1205.5</ele>
        <time>2015-09-18T11:49:53Z</time>
      </trkpt>
      <trkpt lat="42.45985" lon="2.75679">
        <ele>1210.2</ele>
        <time>2015-09-18T11:49:55Z</time>
      </trkpt>
      <trkpt lat="42.45985" lon="2.75679">
        <ele>1212</ele>
        <time>2015-09-18T11:49:55Z</time>
      </trkpt>
      <trkpt lat="42.45993" lon="2.75687">
        <ele>1213.4</ele>
        <time>2015-09-18T11:49:57Z</time>
      </trkpt>
      <trkpt lat="42.45997" lon="2.75693">
        <ele>1214.6</ele>
        <time>2015-09-18T11:49:58Z</time>
      </trkpt>
      <trkpt lat="42.46001" lon="2.75701">
        <ele>1215.7</ele>
        <time>2015-09-18T11:49:59Z</time>
      </trkpt>
      <trkpt lat="42.46004" lon="2.75711">
        <ele>1217.1</ele>
        <time>2015-09-18T11:50:00Z</time>
      </trkpt>
      <trkpt lat="42.46007" lon="2.75721">
        <ele>1218.7</ele>
        <time>2015-09-18T11:50:01Z</time>
      </trkpt>
      <trkpt lat="42.46009" lon="2.75732">
        <ele>1220.2</ele>
        <time>2015-09-18T11:50:02Z</time>
      </trkpt>
      <trkpt lat="42.46011" lon="2.75743">
        <ele>1221.8</ele>
        <time>2015-09-18T11:50:03Z</time>
      </trkpt>
      <trkpt lat="42.46011" lon="2.75755">
        <ele>1223</ele>
        <time>2015-09-18T11:50:04Z</time>
      </trkpt>
      <trkpt lat="42.46008" lon="2.75768">
        <ele>1224</ele>
        <time>2015-09-18T11:50:05Z</time>
      </trkpt>
      <trkpt lat="42.46004" lon="2.75782">
        <ele>1224.8</ele>
        <time>2015-09-18T11:50:06Z</time>
      </trkpt>
      <trkpt lat="42.45999" lon="2.75795">
        <ele>1226.2</ele>
        <time>2015-09-18T11:50:07Z</time>
      </trkpt>
      <trkpt lat="42.45994" lon="2.75808">
        <ele>1226.2</ele>
        <time>2015-09-18T11:50:08Z</time>
      </trkpt>
      <trkpt lat="42.45989" lon="2.7582">
        <ele>1230.9</ele>
        <time>2015-09-18T11:50:09Z</time>
      </trkpt>
      <trkpt lat="42.45984" lon="2.7583">
        <ele>1233.3</ele>
        <time>2015-09-18T11:50:10Z</time>
      </trkpt>
      <trkpt lat="42.45971" lon="2.75846">
        <ele>1231.5</ele>
        <time>2015-09-18T11:50:12Z</time>
      </trkpt>
      <trkpt lat="42.45961" lon="2.75852">
        <ele>1230.5</ele>
        <time>2015-09-18T11:50:13Z</time>
      </trkpt>
      <trkpt lat="42.4595" lon="2.75857">
        <ele>1229.7</ele>
        <time>2015-09-18T11:50:14Z</time>
      </trkpt>
      <trkpt lat="42.45938" lon="2.75859">
        <ele>1229.8</ele>
        <time>2015-09-18T11:50:15Z</time>
      </trkpt>
      <trkpt lat="42.45927" lon="2.75861">
        <ele>1229.8</ele>
        <time>2015-09-18T11:50:16Z</time>
      </trkpt>
      <trkpt lat="42.45916" lon="2.7586">
        <ele>1230.6</ele>
        <time>2015-09-18T11:50:17Z</time>
      </trkpt>
      <trkpt lat="42.45906" lon="2.75857">
        <ele>1230.2</ele>
        <time>2015-09-18T11:50:18Z</time>
      </trkpt>
      <trkpt lat="42.45897" lon="2.75852">
        <ele>1229.5</ele>
        <time>2015-09-18T11:50:19Z</time>
      </trkpt>
      <trkpt lat="42.45887" lon="2.75846">
        <ele>1228.8</ele>
        <time>2015-09-18T11:50:20Z</time>
      </trkpt>
      <trkpt lat="42.45877" lon="2.75838">
        <ele>1228.5</ele>
        <time>2015-09-18T11:50:21Z</time>
      </trkpt>
      <trkpt lat="42.45869" lon="2.75828">
        <ele>1228.5</ele>
        <time>2015-09-18T11:50:22Z</time>
      </trkpt>
      <trkpt lat="42.45862" lon="2.75815">
        <ele>1228.5</ele>
        <time>2015-09-18T11:50:23Z</time>
      </trkpt>
      <trkpt lat="42.45856" lon="2.75801">
        <ele>1226.8</ele>
        <time>2015-09-18T11:50:24Z</time>
      </trkpt>
      <trkpt lat="42.45852" lon="2.75787">
        <ele>1226.6</ele>
        <time>2015-09-18T11:50:25Z</time>
      </trkpt>
      <trkpt lat="42.45847" lon="2.75756">
        <ele>1226.6</ele>
        <time>2015-09-18T11:50:27Z</time>
      </trkpt>
      <trkpt lat="42.45847" lon="2.75742">
        <ele>1226.8</ele>
        <time>2015-09-18T11:50:28Z</time>
      </trkpt>
      <trkpt lat="42.45847" lon="2.75728">
        <ele>1227</ele>
        <time>2015-09-18T11:50:29Z</time>
      </trkpt>
      <trkpt lat="42.45849" lon="2.75715">
        <ele>1227.4</ele>
        <time>2015-09-18T11:50:30Z</time>
      </trkpt>
      <trkpt lat="42.45849" lon="2.75715">
        <ele>1228.1</ele>
        <time>2015-09-18T11:50:30Z</time>
      </trkpt>
      <trkpt lat="42.45851" lon="2.75689">
        <ele>1229.2</ele>
        <time>2015-09-18T11:50:32Z</time>
      </trkpt>
      <trkpt lat="42.45852" lon="2.75676">
        <ele>1230.8</ele>
        <time>2015-09-18T11:50:33Z</time>
      </trkpt>
      <trkpt lat="42.45854" lon="2.75664">
        <ele>1232.5</ele>
        <time>2015-09-18T11:50:34Z</time>
      </trkpt>
      <trkpt lat="42.45856" lon="2.75653">
        <ele>1233.9</ele>
        <time>2015-09-18T11:50:35Z</time>
      </trkpt>
      <trkpt lat="42.45859" lon="2.75643">
        <ele>1235.5</ele>
        <time>2015-09-18T11:50:36Z</time>
      </trkpt>
      <trkpt lat="42.45864" lon="2.75633">
        <ele>1237.4</ele>
        <time>2015-09-18T11:50:37Z</time>
      </trkpt>
      <trkpt lat="42.45869" lon="2.75626">
        <ele>1239</ele>
        <time>2015-09-18T11:50:38Z</time>
      </trkpt>
      <trkpt lat="42.45873" lon="2.75618">
        <ele>1239</ele>
        <time>2015-09-18T11:50:39Z</time>
      </trkpt>
      <trkpt lat="42.45879" lon="2.75611">
        <ele>1241.7</ele>
        <time>2015-09-18T11:50:40Z</time>
      </trkpt>
      <trkpt lat="42.45892" lon="2.75603">
        <ele>1242.4</ele>
        <time>2015-09-18T11:50:42Z</time>
      </trkpt>
      <trkpt lat="42.459" lon="2.75604">
        <ele>1243.3</ele>
        <time>2015-09-18T11:50:43Z</time>
      </trkpt>
      <trkpt lat="42.45908" lon="2.75605">
        <ele>1244</ele>
        <time>2015-09-18T11:50:44Z</time>
      </trkpt>
      <trkpt lat="42.45915" lon="2.75607">
        <ele>1244.7</ele>
        <time>2015-09-18T11:50:45Z</time>
      </trkpt>
      <trkpt lat="42.45922" lon="2.75608">
        <ele>1244.8</ele>
        <time>2015-09-18T11:50:46Z</time>
      </trkpt>
      <trkpt lat="42.45929" lon="2.75609">
        <ele>1244.8</ele>
        <time>2015-09-18T11:50:47Z</time>
      </trkpt>
      <trkpt lat="42.45936" lon="2.75609">
        <ele>1244.7</ele>
        <time>2015-09-18T11:50:48Z</time>
      </trkpt>
      <trkpt lat="42.45944" lon="2.75611">
        <ele>1244.6</ele>
        <time>2015-09-18T11:50:49Z</time>
      </trkpt>
      <trkpt lat="42.45951" lon="2.75613">
        <ele>1244.6</ele>
        <time>2015-09-18T11:50:50Z</time>
      </trkpt>
      <trkpt lat="42.45958" lon="2.75617">
        <ele>1244.8</ele>
        <time>2015-09-18T11:50:51Z</time>
      </trkpt>
      <trkpt lat="42.45966" lon="2.75622">
        <ele>1244.8</ele>
        <time>2015-09-18T11:50:52Z</time>
      </trkpt>
      <trkpt lat="42.45972" lon="2.75626">
        <ele>1246.4</ele>
        <time>2015-09-18T11:50:53Z</time>
      </trkpt>
      <trkpt lat="42.45979" lon="2.75631">
        <ele>1247.6</ele>
        <time>2015-09-18T11:50:54Z</time>
      </trkpt>
      <trkpt lat="42.45984" lon="2.75634">
        <ele>1249</ele>
        <time>2015-09-18T11:50:55Z</time>
      </trkpt>
      <trkpt lat="42.4599" lon="2.75638">
        <ele>1249.3</ele>
        <time>2015-09-18T11:50:56Z</time>
      </trkpt>
      <trkpt lat="42.45995" lon="2.75642">
        <ele>1249.3</ele>
        <time>2015-09-18T11:50:57Z</time>
      </trkpt>
      <trkpt lat="42.46001" lon="2.75648">
        <ele>1249.6</ele>
        <time>2015-09-18T11:50:58Z</time>
      </trkpt>
      <trkpt lat="42.46011" lon="2.75659">
        <ele>1250.2</ele>
        <time>2015-09-18T11:51:00Z</time>
      </trkpt>
      <trkpt lat="42.46011" lon="2.75659">
        <ele>1250.6</ele>
        <time>2015-09-18T11:51:00Z</time>
      </trkpt>
      <trkpt lat="42.46021" lon="2.75668">
        <ele>1250</ele>
        <time>2015-09-18T11:51:02Z</time>
      </trkpt>
      <trkpt lat="42.46025" lon="2.75674">
        <ele>1249.4</ele>
        <time>2015-09-18T11:51:03Z</time>
      </trkpt>
      <trkpt lat="42.46029" lon="2.75684">
        <ele>1249.2</ele>
        <time>2015-09-18T11:51:04Z</time>
      </trkpt>
      <trkpt lat="42.46033" lon="2.75694">
        <ele>1249.8</ele>
        <time>2015-09-18T11:51:05Z</time>
      </trkpt>
      <trkpt lat="42.46036" lon="2.75704">
        <ele>1250.4</ele>
        <time>2015-09-18T11:51:06Z</time>
      </trkpt>
      <trkpt lat="42.46038" lon="2.75713">
        <ele>1250.9</ele>
        <time>2015-09-18T11:51:07Z</time>
      </trkpt>
      <trkpt lat="42.46041" lon="2.75722">
        <ele>1250.3</ele>
        <time>2015-09-18T11:51:08Z</time>
      </trkpt>
      <trkpt lat="42.46044" lon="2.75732">
        <ele>1249.5</ele>
        <time>2015-09-18T11:51:09Z</time>
      </trkpt>
      <trkpt lat="42.46047" lon="2.75743">
        <ele>1248.7</ele>
        <time>2015-09-18T11:51:10Z</time>
      </trkpt>
      <trkpt lat="42.4605" lon="2.75754">
        <ele>1248.1</ele>
        <time>2015-09-18T11:51:11Z</time>
      </trkpt>
      <trkpt lat="42.46054" lon="2.75763">
        <ele>1247.2</ele>
        <time>2015-09-18T11:51:12Z</time>
      </trkpt>
      <trkpt lat="42.46064" lon="2.75774">
        <ele>1245.9</ele>
        <time>2015-09-18T11:51:14Z</time>
      </trkpt>
      <trkpt lat="42.46068" lon="2.7578">
        <ele>1244</ele>
        <time>2015-09-18T11:51:15Z</time>
      </trkpt>
      <trkpt lat="42.46068" lon="2.7578">
        <ele>1241.5</ele>
        <time>2015-09-18T11:51:15Z</time>
      </trkpt>
      <trkpt lat="42.46074" lon="2.75796">
        <ele>1239.1</ele>
        <time>2015-09-18T11:51:17Z</time>
      </trkpt>
      <trkpt lat="42.46079" lon="2.75803">
        <ele>1237.3</ele>
        <time>2015-09-18T11:51:18Z</time>
      </trkpt>
      <trkpt lat="42.46083" lon="2.7581">
        <ele>1235.7</ele>
        <time>2015-09-18T11:51:19Z</time>
      </trkpt>
      <trkpt lat="42.46088" lon="2.75816">
        <ele>1234.5</ele>
        <time>2015-09-18T11:51:20Z</time>
      </trkpt>
      <trkpt lat="42.46092" lon="2.75822">
        <ele>1233.3</ele>
        <time>2015-09-18T11:51:21Z</time>
      </trkpt>
      <trkpt lat="42.46096" lon="2.7583">
        <ele>1231.8</ele>
        <time>2015-09-18T11:51:22Z</time>
      </trkpt>
      <trkpt lat="42.461" lon="2.75837">
        <ele>1229.9</ele>
        <time>2015-09-18T11:51:23Z</time>
      </trkpt>
      <trkpt lat="42.46104" lon="2.75843">
        <ele>1228</ele>
        <time>2015-09-18T11:51:24Z</time>
      </trkpt>
      <trkpt lat="42.46108" lon="2.7585">
        <ele>1226.4</ele>
        <time>2015-09-18T11:51:25Z</time>
      </trkpt>
      <trkpt lat="42.46113" lon="2.75858">
        <ele>1223.1</ele>
        <time>2015-09-18T11:51:26Z</time>
      </trkpt>
      <trkpt lat="42.46117" lon="2.75867">
        <ele>1222.3</ele>
        <time>2015-09-18T11:51:27Z</time>
      </trkpt>
      <trkpt lat="42.46123" lon="2.75884">
        <ele>1222.2</ele>
        <time>2015-09-18T11:51:29Z</time>
      </trkpt>
      <trkpt lat="42.46125" lon="2.75894">
        <ele>1221.5</ele>
        <time>2015-09-18T11:51:30Z</time>
      </trkpt>
      <trkpt lat="42.46125" lon="2.75894">
        <ele>1220.5</ele>
        <time>2015-09-18T11:51:30Z</time>
      </trkpt>
      <trkpt lat="42.46127" lon="2.75915">
        <ele>1220.5</ele>
        <time>2015-09-18T11:51:32Z</time>
      </trkpt>
      <trkpt lat="42.46127" lon="2.75927">
        <ele>1218.3</ele>
        <time>2015-09-18T11:51:33Z</time>
      </trkpt>
      <trkpt lat="42.46126" lon="2.75938">
        <ele>1216.5</ele>
        <time>2015-09-18T11:51:34Z</time>
      </trkpt>
      <trkpt lat="42.46126" lon="2.7595">
        <ele>1214.4</ele>
        <time>2015-09-18T11:51:35Z</time>
      </trkpt>
      <trkpt lat="42.46127" lon="2.75963">
        <ele>1212.7</ele>
        <time>2015-09-18T11:51:36Z</time>
      </trkpt>
      <trkpt lat="42.46128" lon="2.75975">
        <ele>1211.8</ele>
        <time>2015-09-18T11:51:37Z</time>
      </trkpt>
      <trkpt lat="42.46131" lon="2.75987">
        <ele>1211.5</ele>
        <time>2015-09-18T11:51:38Z</time>
      </trkpt>
      <trkpt lat="42.46134" lon="2.75997">
        <ele>1211.2</ele>
        <time>2015-09-18T11:51:39Z</time>
      </trkpt>
      <trkpt lat="42.46136" lon="2.76007">
        <ele>1210.6</ele>
        <time>2015-09-18T11:51:40Z</time>
      </trkpt>
      <trkpt lat="42.46138" lon="2.76016">
        <ele>1207.8</ele>
        <time>2015-09-18T11:51:41Z</time>
      </trkpt>
      <trkpt lat="42.46141" lon="2.76036">
        <ele>1205.6</ele>
        <time>2015-09-18T11:51:43Z</time>
      </trkpt>
      <trkpt lat="42.46143" lon="2.76046">
        <ele>1205.6</ele>
        <time>2015-09-18T11:51:44Z</time>
      </trkpt>
      <trkpt lat="42.46146" lon="2.76058">
        <ele>1201.2</ele>
        <time>2015-09-18T11:51:45Z</time>
      </trkpt>
      <trkpt lat="42.46146" lon="2.76058">
        <ele>1199.8</ele>
        <time>2015-09-18T11:51:45Z</time>
      </trkpt>
      <trkpt lat="42.4615" lon="2.76084">
        <ele>1198.7</ele>
        <time>2015-09-18T11:51:47Z</time>
      </trkpt>
      <trkpt lat="42.46151" lon="2.76097">
        <ele>1197.7</ele>
        <time>2015-09-18T11:51:48Z</time>
      </trkpt>
      <trkpt lat="42.4615" lon="2.76109">
        <ele>1196.4</ele>
        <time>2015-09-18T11:51:49Z</time>
      </trkpt>
      <trkpt lat="42.46149" lon="2.76122">
        <ele>1194.1</ele>
        <time>2015-09-18T11:51:50Z</time>
      </trkpt>
      <trkpt lat="42.4615" lon="2.76135">
        <ele>1191.4</ele>
        <time>2015-09-18T11:51:51Z</time>
      </trkpt>
      <trkpt lat="42.46151" lon="2.76149">
        <ele>1188.7</ele>
        <time>2015-09-18T11:51:52Z</time>
      </trkpt>
      <trkpt lat="42.46152" lon="2.76163">
        <ele>1186.1</ele>
        <time>2015-09-18T11:51:53Z</time>
      </trkpt>
      <trkpt lat="42.46153" lon="2.76177">
        <ele>1183.5</ele>
        <time>2015-09-18T11:51:54Z</time>
      </trkpt>
      <trkpt lat="42.46154" lon="2.7619">
        <ele>1180.7</ele>
        <time>2015-09-18T11:51:55Z</time>
      </trkpt>
      <trkpt lat="42.46154" lon="2.76203">
        <ele>1177.8</ele>
        <time>2015-09-18T11:51:56Z</time>
      </trkpt>
      <trkpt lat="42.46155" lon="2.76216">
        <ele>1172.2</ele>
        <time>2015-09-18T11:51:57Z</time>
      </trkpt>
      <trkpt lat="42.46156" lon="2.7623">
        <ele>1169.6</ele>
        <time>2015-09-18T11:51:58Z</time>
      </trkpt>
      <trkpt lat="42.46157" lon="2.76242">
        <ele>1167.3</ele>
        <time>2015-09-18T11:51:59Z</time>
      </trkpt>
      <trkpt lat="42.46158" lon="2.76255">
        <ele>1164.7</ele>
        <time>2015-09-18T11:52:00Z</time>
      </trkpt>
      <trkpt lat="42.46161" lon="2.76279">
        <ele>1161.9</ele>
        <time>2015-09-18T11:52:02Z</time>
      </trkpt>
      <trkpt lat="42.46163" lon="2.76292">
        <ele>1159.1</ele>
        <time>2015-09-18T11:52:03Z</time>
      </trkpt>
      <trkpt lat="42.46164" lon="2.76304">
        <ele>1156.3</ele>
        <time>2015-09-18T11:52:04Z</time>
      </trkpt>
      <trkpt lat="42.46166" lon="2.76317">
        <ele>1154.3</ele>
        <time>2015-09-18T11:52:05Z</time>
      </trkpt>
      <trkpt lat="42.46167" lon="2.7633">
        <ele>1152.8</ele>
        <time>2015-09-18T11:52:06Z</time>
      </trkpt>
      <trkpt lat="42.46168" lon="2.76341">
        <ele>1151.4</ele>
        <time>2015-09-18T11:52:07Z</time>
      </trkpt>
      <trkpt lat="42.4617" lon="2.76352">
        <ele>1149.4</ele>
        <time>2015-09-18T11:52:08Z</time>
      </trkpt>
      <trkpt lat="42.46171" lon="2.76362">
        <ele>1146.7</ele>
        <time>2015-09-18T11:52:09Z</time>
      </trkpt>
      <trkpt lat="42.46173" lon="2.76374">
        <ele>1143.4</ele>
        <time>2015-09-18T11:52:10Z</time>
      </trkpt>
      <trkpt lat="42.46174" lon="2.76387">
        <ele>1140.2</ele>
        <time>2015-09-18T11:52:11Z</time>
      </trkpt>
      <trkpt lat="42.46176" lon="2.76399">
        <ele>1138.1</ele>
        <time>2015-09-18T11:52:12Z</time>
      </trkpt>
      <trkpt lat="42.46178" lon="2.76411">
        <ele>1136.3</ele>
        <time>2015-09-18T11:52:13Z</time>
      </trkpt>
      <trkpt lat="42.4618" lon="2.76421">
        <ele>1134</ele>
        <time>2015-09-18T11:52:14Z</time>
      </trkpt>
      <trkpt lat="42.46182" lon="2.7643">
        <ele>1131.2</ele>
        <time>2015-09-18T11:52:15Z</time>
      </trkpt>
      <trkpt lat="42.46185" lon="2.7644">
        <ele>1127.9</ele>
        <time>2015-09-18T11:52:16Z</time>
      </trkpt>
      <trkpt lat="42.46188" lon="2.7645">
        <ele>1124.5</ele>
        <time>2015-09-18T11:52:17Z</time>
      </trkpt>
      <trkpt lat="42.46191" lon="2.76472">
        <ele>1119.4</ele>
        <time>2015-09-18T11:52:19Z</time>
      </trkpt>
      <trkpt lat="42.46193" lon="2.76482">
        <ele>1117</ele>
        <time>2015-09-18T11:52:20Z</time>
      </trkpt>
      <trkpt lat="42.46193" lon="2.76482">
        <ele>1117</ele>
        <time>2015-09-18T11:52:20Z</time>
      </trkpt>
      <trkpt lat="42.462" lon="2.76501">
        <ele>1111.5</ele>
        <time>2015-09-18T11:52:22Z</time>
      </trkpt>
      <trkpt lat="42.46203" lon="2.7651">
        <ele>1108.3</ele>
        <time>2015-09-18T11:52:23Z</time>
      </trkpt>
      <trkpt lat="42.46203" lon="2.7651">
        <ele>1104.6</ele>
        <time>2015-09-18T11:52:23Z</time>
      </trkpt>
      <trkpt lat="42.46208" lon="2.76528">
        <ele>1100.4</ele>
        <time>2015-09-18T11:52:25Z</time>
      </trkpt>
      <trkpt lat="42.4621" lon="2.76537">
        <ele>1096</ele>
        <time>2015-09-18T11:52:26Z</time>
      </trkpt>
      <trkpt lat="42.46212" lon="2.76546">
        <ele>1091.6</ele>
        <time>2015-09-18T11:52:27Z</time>
      </trkpt>
      <trkpt lat="42.46215" lon="2.76557">
        <ele>1087.4</ele>
        <time>2015-09-18T11:52:28Z</time>
      </trkpt>
      <trkpt lat="42.46217" lon="2.76567">
        <ele>1083.2</ele>
        <time>2015-09-18T11:52:29Z</time>
      </trkpt>
      <trkpt lat="42.46218" lon="2.76578">
        <ele>1075.2</ele>
        <time>2015-09-18T11:52:30Z</time>
      </trkpt>
      <trkpt lat="42.46221" lon="2.766">
        <ele>1071</ele>
        <time>2015-09-18T11:52:32Z</time>
      </trkpt>
      <trkpt lat="42.46222" lon="2.76611">
        <ele>1066.7</ele>
        <time>2015-09-18T11:52:33Z</time>
      </trkpt>
      <trkpt lat="42.46225" lon="2.76621">
        <ele>1062.6</ele>
        <time>2015-09-18T11:52:34Z</time>
      </trkpt>
      <trkpt lat="42.46228" lon="2.76632">
        <ele>1058.8</ele>
        <time>2015-09-18T11:52:35Z</time>
      </trkpt>
      <trkpt lat="42.4623" lon="2.76642">
        <ele>1055.5</ele>
        <time>2015-09-18T11:52:36Z</time>
      </trkpt>
      <trkpt lat="42.46233" lon="2.76653">
        <ele>1052.3</ele>
        <time>2015-09-18T11:52:37Z</time>
      </trkpt>
      <trkpt lat="42.46235" lon="2.76663">
        <ele>1049.1</ele>
        <time>2015-09-18T11:52:38Z</time>
      </trkpt>
      <trkpt lat="42.46237" lon="2.76672">
        <ele>1046.3</ele>
        <time>2015-09-18T11:52:39Z</time>
      </trkpt>
      <trkpt lat="42.46239" lon="2.76681">
        <ele>1043.8</ele>
        <time>2015-09-18T11:52:40Z</time>
      </trkpt>
      <trkpt lat="42.46242" lon="2.76689">
        <ele>1041.6</ele>
        <time>2015-09-18T11:52:41Z</time>
      </trkpt>
      <trkpt lat="42.46245" lon="2.76697">
        <ele>1039.8</ele>
        <time>2015-09-18T11:52:42Z</time>
      </trkpt>
      <trkpt lat="42.46247" lon="2.76705">
        <ele>1038.5</ele>
        <time>2015-09-18T11:52:43Z</time>
      </trkpt>
      <trkpt lat="42.46249" lon="2.76713">
        <ele>1037</ele>
        <time>2015-09-18T11:52:44Z</time>
      </trkpt>
      <trkpt lat="42.46251" lon="2.76721">
        <ele>1036.6</ele>
        <time>2015-09-18T11:52:45Z</time>
      </trkpt>
      <trkpt lat="42.46254" lon="2.76738">
        <ele>1037.5</ele>
        <time>2015-09-18T11:52:47Z</time>
      </trkpt>
      <trkpt lat="42.46255" lon="2.76746">
        <ele>1038.4</ele>
        <time>2015-09-18T11:52:48Z</time>
      </trkpt>
      <trkpt lat="42.46256" lon="2.76754">
        <ele>1038.8</ele>
        <time>2015-09-18T11:52:49Z</time>
      </trkpt>
      <trkpt lat="42.46256" lon="2.76763">
        <ele>1039</ele>
        <time>2015-09-18T11:52:50Z</time>
      </trkpt>
      <trkpt lat="42.46257" lon="2.76771">
        <ele>1039.1</ele>
        <time>2015-09-18T11:52:51Z</time>
      </trkpt>
      <trkpt lat="42.46258" lon="2.76781">
        <ele>1039.4</ele>
        <time>2015-09-18T11:52:52Z</time>
      </trkpt>
      <trkpt lat="42.46259" lon="2.76791">
        <ele>1040.1</ele>
        <time>2015-09-18T11:52:53Z</time>
      </trkpt>
      <trkpt lat="42.4626" lon="2.76802">
        <ele>1041.1</ele>
        <time>2015-09-18T11:52:54Z</time>
      </trkpt>
      <trkpt lat="42.4626" lon="2.76813">
        <ele>1042.3</ele>
        <time>2015-09-18T11:52:55Z</time>
      </trkpt>
      <trkpt lat="42.4626" lon="2.76824">
        <ele>1043.4</ele>
        <time>2015-09-18T11:52:56Z</time>
      </trkpt>
      <trkpt lat="42.4626" lon="2.76836">
        <ele>1044.6</ele>
        <time>2015-09-18T11:52:57Z</time>
      </trkpt>
      <trkpt lat="42.46261" lon="2.76847">
        <ele>1047.7</ele>
        <time>2015-09-18T11:52:58Z</time>
      </trkpt>
      <trkpt lat="42.46263" lon="2.76869">
        <ele>1049.3</ele>
        <time>2015-09-18T11:53:00Z</time>
      </trkpt>
      <trkpt lat="42.46263" lon="2.76869">
        <ele>1049.3</ele>
        <time>2015-09-18T11:53:00Z</time>
      </trkpt>
      <trkpt lat="42.46262" lon="2.76892">
        <ele>1052.1</ele>
        <time>2015-09-18T11:53:02Z</time>
      </trkpt>
      <trkpt lat="42.46259" lon="2.76904">
        <ele>1053</ele>
        <time>2015-09-18T11:53:03Z</time>
      </trkpt>
      <trkpt lat="42.46252" lon="2.76916">
        <ele>1053.9</ele>
        <time>2015-09-18T11:53:04Z</time>
      </trkpt>
      <trkpt lat="42.46243" lon="2.76927">
        <ele>1055.3</ele>
        <time>2015-09-18T11:53:05Z</time>
      </trkpt>
      <trkpt lat="42.46232" lon="2.76935">
        <ele>1057.8</ele>
        <time>2015-09-18T11:53:06Z</time>
      </trkpt>
      <trkpt lat="42.4622" lon="2.76941">
        <ele>1061</ele>
        <time>2015-09-18T11:53:07Z</time>
      </trkpt>
      <trkpt lat="42.46208" lon="2.76943">
        <ele>1064.4</ele>
        <time>2015-09-18T11:53:08Z</time>
      </trkpt>
      <trkpt lat="42.46196" lon="2.76942">
        <ele>1067.1</ele>
        <time>2015-09-18T11:53:09Z</time>
      </trkpt>
      <trkpt lat="42.46186" lon="2.76938">
        <ele>1069.4</ele>
        <time>2015-09-18T11:53:10Z</time>
      </trkpt>
      <trkpt lat="42.46178" lon="2.76932">
        <ele>1071</ele>
        <time>2015-09-18T11:53:11Z</time>
      </trkpt>
      <trkpt lat="42.46171" lon="2.76923">
        <ele>1070.7</ele>
        <time>2015-09-18T11:53:12Z</time>
      </trkpt>
      <trkpt lat="42.46167" lon="2.76912">
        <ele>1070.7</ele>
        <time>2015-09-18T11:53:13Z</time>
      </trkpt>
      <trkpt lat="42.46172" lon="2.76891">
        <ele>1070.9</ele>
        <time>2015-09-18T11:53:15Z</time>
      </trkpt>
      <trkpt lat="42.46172" lon="2.76891">
        <ele>1071.8</ele>
        <time>2015-09-18T11:53:15Z</time>
      </trkpt>
      <trkpt lat="42.46181" lon="2.76875">
        <ele>1073.7</ele>
        <time>2015-09-18T11:53:17Z</time>
      </trkpt>
      <trkpt lat="42.46188" lon="2.76871">
        <ele>1078.3</ele>
        <time>2015-09-18T11:53:18Z</time>
      </trkpt>
      <trkpt lat="42.46193" lon="2.76867">
        <ele>1081.1</ele>
        <time>2015-09-18T11:53:19Z</time>
      </trkpt>
      <trkpt lat="42.46198" lon="2.76863">
        <ele>1082.9</ele>
        <time>2015-09-18T11:53:20Z</time>
      </trkpt>
      <trkpt lat="42.46205" lon="2.76861">
        <ele>1084.3</ele>
        <time>2015-09-18T11:53:21Z</time>
      </trkpt>
      <trkpt lat="42.46212" lon="2.7686">
        <ele>1087.1</ele>
        <time>2015-09-18T11:53:22Z</time>
      </trkpt>
      <trkpt lat="42.46219" lon="2.76862">
        <ele>1088.6</ele>
        <time>2015-09-18T11:53:23Z</time>
      </trkpt>
      <trkpt lat="42.46225" lon="2.76866">
        <ele>1089.5</ele>
        <time>2015-09-18T11:53:24Z</time>
      </trkpt>
      <trkpt lat="42.4623" lon="2.76871">
        <ele>1090.6</ele>
        <time>2015-09-18T11:53:25Z</time>
      </trkpt>
      <trkpt lat="42.46241" lon="2.76882">
        <ele>1091.4</ele>
        <time>2015-09-18T11:53:27Z</time>
      </trkpt>
      <trkpt lat="42.46246" lon="2.76888">
        <ele>1092.3</ele>
        <time>2015-09-18T11:53:28Z</time>
      </trkpt>
      <trkpt lat="42.4625" lon="2.76895">
        <ele>1093.8</ele>
        <time>2015-09-18T11:53:29Z</time>
      </trkpt>
      <trkpt lat="42.46255" lon="2.76903">
        <ele>1095.1</ele>
        <time>2015-09-18T11:53:30Z</time>
      </trkpt>
      <trkpt lat="42.46255" lon="2.76903">
        <ele>1095.1</ele>
        <time>2015-09-18T11:53:30Z</time>
      </trkpt>
      <trkpt lat="42.46264" lon="2.76918">
        <ele>1098.2</ele>
        <time>2015-09-18T11:53:32Z</time>
      </trkpt>
      <trkpt lat="42.4627" lon="2.76926">
        <ele>1100.4</ele>
        <time>2015-09-18T11:53:33Z</time>
      </trkpt>
      <trkpt lat="42.46274" lon="2.76934">
        <ele>1102.6</ele>
        <time>2015-09-18T11:53:34Z</time>
      </trkpt>
      <trkpt lat="42.46277" lon="2.76943">
        <ele>1104.7</ele>
        <time>2015-09-18T11:53:35Z</time>
      </trkpt>
      <trkpt lat="42.46279" lon="2.76952">
        <ele>1106</ele>
        <time>2015-09-18T11:53:36Z</time>
      </trkpt>
      <trkpt lat="42.4628" lon="2.7696">
        <ele>1106.3</ele>
        <time>2015-09-18T11:53:37Z</time>
      </trkpt>
      <trkpt lat="42.46281" lon="2.76966">
        <ele>1106.4</ele>
        <time>2015-09-18T11:53:38Z</time>
      </trkpt>
      <trkpt lat="42.46283" lon="2.76971">
        <ele>1106.6</ele>
        <time>2015-09-18T11:53:39Z</time>
      </trkpt>
      <trkpt lat="42.46286" lon="2.76975">
        <ele>1105.6</ele>
        <time>2015-09-18T11:53:40Z</time>
      </trkpt>
      <trkpt lat="42.46288" lon="2.76988">
        <ele>1103.9</ele>
        <time>2015-09-18T11:53:42Z</time>
      </trkpt>
      <trkpt lat="42.46285" lon="2.77002">
        <ele>1100.5</ele>
        <time>2015-09-18T11:53:43Z</time>
      </trkpt>
      <trkpt lat="42.46281" lon="2.77018">
        <ele>1098</ele>
        <time>2015-09-18T11:53:44Z</time>
      </trkpt>
      <trkpt lat="42.46279" lon="2.77031">
        <ele>1095</ele>
        <time>2015-09-18T11:53:45Z</time>
      </trkpt>
      <trkpt lat="42.4628" lon="2.77044">
        <ele>1091.3</ele>
        <time>2015-09-18T11:53:46Z</time>
      </trkpt>
      <trkpt lat="42.46281" lon="2.77055">
        <ele>1089.4</ele>
        <time>2015-09-18T11:53:47Z</time>
      </trkpt>
      <trkpt lat="42.46281" lon="2.77067">
        <ele>1087.6</ele>
        <time>2015-09-18T11:53:48Z</time>
      </trkpt>
      <trkpt lat="42.4628" lon="2.7708">
        <ele>1084.9</ele>
        <time>2015-09-18T11:53:49Z</time>
      </trkpt>
      <trkpt lat="42.46278" lon="2.77093">
        <ele>1084.9</ele>
        <time>2015-09-18T11:53:50Z</time>
      </trkpt>
      <trkpt lat="42.46277" lon="2.77106">
        <ele>1077.6</ele>
        <time>2015-09-18T11:53:51Z</time>
      </trkpt>
      <trkpt lat="42.46278" lon="2.77119">
        <ele>1077.6</ele>
        <time>2015-09-18T11:53:52Z</time>
      </trkpt>
      <trkpt lat="42.46279" lon="2.77131">
        <ele>1077.6</ele>
        <time>2015-09-18T11:53:53Z</time>
      </trkpt>
      <trkpt lat="42.46279" lon="2.77143">
        <ele>1071.5</ele>
        <time>2015-09-18T11:53:54Z</time>
      </trkpt>
      <trkpt lat="42.46279" lon="2.77154">
        <ele>1069.3</ele>
        <time>2015-09-18T11:53:55Z</time>
      </trkpt>
      <trkpt lat="42.46279" lon="2.77166">
        <ele>1066.9</ele>
        <time>2015-09-18T11:53:56Z</time>
      </trkpt>
      <trkpt lat="42.4628" lon="2.77178">
        <ele>1061.2</ele>
        <time>2015-09-18T11:53:57Z</time>
      </trkpt>
      <trkpt lat="42.46281" lon="2.77189">
        <ele>1057.6</ele>
        <time>2015-09-18T11:53:58Z</time>
      </trkpt>
      <trkpt lat="42.46283" lon="2.77206">
        <ele>1053.1</ele>
        <time>2015-09-18T11:54:00Z</time>
      </trkpt>
      <trkpt lat="42.46283" lon="2.77206">
        <ele>1048.1</ele>
        <time>2015-09-18T11:54:00Z</time>
      </trkpt>
      <trkpt lat="42.46288" lon="2.77223">
        <ele>1048.1</ele>
        <time>2015-09-18T11:54:02Z</time>
      </trkpt>
      <trkpt lat="42.46292" lon="2.77233">
        <ele>1040.3</ele>
        <time>2015-09-18T11:54:03Z</time>
      </trkpt>
      <trkpt lat="42.46296" lon="2.77241">
        <ele>1037.9</ele>
        <time>2015-09-18T11:54:04Z</time>
      </trkpt>
      <trkpt lat="42.46299" lon="2.77248">
        <ele>1035.6</ele>
        <time>2015-09-18T11:54:05Z</time>
      </trkpt>
      <trkpt lat="42.46302" lon="2.77255">
        <ele>1032.2</ele>
        <time>2015-09-18T11:54:06Z</time>
      </trkpt>
      <trkpt lat="42.46305" lon="2.77263">
        <ele>1028.5</ele>
        <time>2015-09-18T11:54:07Z</time>
      </trkpt>
      <trkpt lat="42.46309" lon="2.77271">
        <ele>1024.9</ele>
        <time>2015-09-18T11:54:08Z</time>
      </trkpt>
      <trkpt lat="42.46309" lon="2.77271">
        <ele>1022.1</ele>
        <time>2015-09-18T11:54:08Z</time>
      </trkpt>
      <trkpt lat="42.46318" lon="2.77286">
        <ele>1020</ele>
        <time>2015-09-18T11:54:10Z</time>
      </trkpt>
      <trkpt lat="42.46326" lon="2.773">
        <ele>1016.6</ele>
        <time>2015-09-18T11:54:12Z</time>
      </trkpt>
      <trkpt lat="42.4633" lon="2.77308">
        <ele>1015</ele>
        <time>2015-09-18T11:54:13Z</time>
      </trkpt>
      <trkpt lat="42.46334" lon="2.77316">
        <ele>1014.2</ele>
        <time>2015-09-18T11:54:14Z</time>
      </trkpt>
      <trkpt lat="42.46338" lon="2.77322">
        <ele>1014</ele>
        <time>2015-09-18T11:54:15Z</time>
      </trkpt>
      <trkpt lat="42.46338" lon="2.77322">
        <ele>1014</ele>
        <time>2015-09-18T11:54:15Z</time>
      </trkpt>
      <trkpt lat="42.46344" lon="2.77334">
        <ele>1013.7</ele>
        <time>2015-09-18T11:54:17Z</time>
      </trkpt>
      <trkpt lat="42.46347" lon="2.77339">
        <ele>1013</ele>
        <time>2015-09-18T11:54:18Z</time>
      </trkpt>
      <trkpt lat="42.46349" lon="2.77344">
        <ele>1011.8</ele>
        <time>2015-09-18T11:54:19Z</time>
      </trkpt>
      <trkpt lat="42.46351" lon="2.77349">
        <ele>1009.9</ele>
        <time>2015-09-18T11:54:20Z</time>
      </trkpt>
      <trkpt lat="42.46354" lon="2.77355">
        <ele>1007.3</ele>
        <time>2015-09-18T11:54:21Z</time>
      </trkpt>
      <trkpt lat="42.46357" lon="2.7736">
        <ele>1004.7</ele>
        <time>2015-09-18T11:54:22Z</time>
      </trkpt>
      <trkpt lat="42.46361" lon="2.77366">
        <ele>1002.6</ele>
        <time>2015-09-18T11:54:23Z</time>
      </trkpt>
      <trkpt lat="42.46366" lon="2.77371">
        <ele>1000.7</ele>
        <time>2015-09-18T11:54:24Z</time>
      </trkpt>
      <trkpt lat="42.4637" lon="2.77375">
        <ele>998.7</ele>
        <time>2015-09-18T11:54:25Z</time>
      </trkpt>
      <trkpt lat="42.46374" lon="2.77379">
        <ele>996.4</ele>
        <time>2015-09-18T11:54:26Z</time>
      </trkpt>
      <trkpt lat="42.46378" lon="2.77383">
        <ele>994</ele>
        <time>2015-09-18T11:54:27Z</time>
      </trkpt>
      <trkpt lat="42.46378" lon="2.77383">
        <ele>989.6</ele>
        <time>2015-09-18T11:54:27Z</time>
      </trkpt>
      <trkpt lat="42.46392" lon="2.77397">
        <ele>989.6</ele>
        <time>2015-09-18T11:54:30Z</time>
      </trkpt>
      <trkpt lat="42.46392" lon="2.77397">
        <ele>985.5</ele>
        <time>2015-09-18T11:54:30Z</time>
      </trkpt>
      <trkpt lat="42.464" lon="2.77407">
        <ele>983.5</ele>
        <time>2015-09-18T11:54:32Z</time>
      </trkpt>
      <trkpt lat="42.46404" lon="2.7741">
        <ele>982</ele>
        <time>2015-09-18T11:54:33Z</time>
      </trkpt>
      <trkpt lat="42.46408" lon="2.77412">
        <ele>980.4</ele>
        <time>2015-09-18T11:54:34Z</time>
      </trkpt>
      <trkpt lat="42.46412" lon="2.77413">
        <ele>977.8</ele>
        <time>2015-09-18T11:54:35Z</time>
      </trkpt>
      <trkpt lat="42.46417" lon="2.77415">
        <ele>975.2</ele>
        <time>2015-09-18T11:54:36Z</time>
      </trkpt>
      <trkpt lat="42.46422" lon="2.77419">
        <ele>971.9</ele>
        <time>2015-09-18T11:54:37Z</time>
      </trkpt>
      <trkpt lat="42.46426" lon="2.77424">
        <ele>970.6</ele>
        <time>2015-09-18T11:54:38Z</time>
      </trkpt>
      <trkpt lat="42.46429" lon="2.77429">
        <ele>969.6</ele>
        <time>2015-09-18T11:54:39Z</time>
      </trkpt>
      <trkpt lat="42.46432" lon="2.77431">
        <ele>967.8</ele>
        <time>2015-09-18T11:54:40Z</time>
      </trkpt>
      <trkpt lat="42.46435" lon="2.77431">
        <ele>964.8</ele>
        <time>2015-09-18T11:54:41Z</time>
      </trkpt>
      <trkpt lat="42.46439" lon="2.77433">
        <ele>961.7</ele>
        <time>2015-09-18T11:54:42Z</time>
      </trkpt>
      <trkpt lat="42.46443" lon="2.77438">
        <ele>957.9</ele>
        <time>2015-09-18T11:54:43Z</time>
      </trkpt>
      <trkpt lat="42.46448" lon="2.77444">
        <ele>954.6</ele>
        <time>2015-09-18T11:54:44Z</time>
      </trkpt>
      <trkpt lat="42.46453" lon="2.7745">
        <ele>955.1</ele>
        <time>2015-09-18T11:54:45Z</time>
      </trkpt>
      <trkpt lat="42.46458" lon="2.77453">
        <ele>954.2</ele>
        <time>2015-09-18T11:54:46Z</time>
      </trkpt>
      <trkpt lat="42.46463" lon="2.77454">
        <ele>954.2</ele>
        <time>2015-09-18T11:54:47Z</time>
      </trkpt>
      <trkpt lat="42.46463" lon="2.77454">
        <ele>954.2</ele>
        <time>2015-09-18T11:54:47Z</time>
      </trkpt>
      <trkpt lat="42.46477" lon="2.77458">
        <ele>951.9</ele>
        <time>2015-09-18T11:54:50Z</time>
      </trkpt>
      <trkpt lat="42.46477" lon="2.77458">
        <ele>950.2</ele>
        <time>2015-09-18T11:54:50Z</time>
      </trkpt>
      <trkpt lat="42.46487" lon="2.77462">
        <ele>948.8</ele>
        <time>2015-09-18T11:54:52Z</time>
      </trkpt>
      <trkpt lat="42.46493" lon="2.77463">
        <ele>947.7</ele>
        <time>2015-09-18T11:54:53Z</time>
      </trkpt>
      <trkpt lat="42.46498" lon="2.77465">
        <ele>946.6</ele>
        <time>2015-09-18T11:54:54Z</time>
      </trkpt>
      <trkpt lat="42.46503" lon="2.77467">
        <ele>945.4</ele>
        <time>2015-09-18T11:54:55Z</time>
      </trkpt>
      <trkpt lat="42.46506" lon="2.77471">
        <ele>943.8</ele>
        <time>2015-09-18T11:54:56Z</time>
      </trkpt>
      <trkpt lat="42.4651" lon="2.77475">
        <ele>941.9</ele>
        <time>2015-09-18T11:54:57Z</time>
      </trkpt>
      <trkpt lat="42.46515" lon="2.77479">
        <ele>940</ele>
        <time>2015-09-18T11:54:58Z</time>
      </trkpt>
      <trkpt lat="42.46521" lon="2.77482">
        <ele>939</ele>
        <time>2015-09-18T11:54:59Z</time>
      </trkpt>
      <trkpt lat="42.46527" lon="2.77484">
        <ele>939.5</ele>
        <time>2015-09-18T11:55:00Z</time>
      </trkpt>
      <trkpt lat="42.46532" lon="2.77485">
        <ele>939.5</ele>
        <time>2015-09-18T11:55:01Z</time>
      </trkpt>
      <trkpt lat="42.46542" lon="2.77486">
        <ele>938.8</ele>
        <time>2015-09-18T11:55:03Z</time>
      </trkpt>
      <trkpt lat="42.46548" lon="2.77487">
        <ele>938.5</ele>
        <time>2015-09-18T11:55:04Z</time>
      </trkpt>
      <trkpt lat="42.46553" lon="2.77487">
        <ele>938.3</ele>
        <time>2015-09-18T11:55:05Z</time>
      </trkpt>
      <trkpt lat="42.46553" lon="2.77487">
        <ele>938.4</ele>
        <time>2015-09-18T11:55:05Z</time>
      </trkpt>
      <trkpt lat="42.46565" lon="2.77486">
        <ele>938.7</ele>
        <time>2015-09-18T11:55:07Z</time>
      </trkpt>
      <trkpt lat="42.46571" lon="2.77486">
        <ele>938.9</ele>
        <time>2015-09-18T11:55:08Z</time>
      </trkpt>
      <trkpt lat="42.46575" lon="2.77486">
        <ele>938.4</ele>
        <time>2015-09-18T11:55:09Z</time>
      </trkpt>
      <trkpt lat="42.4658" lon="2.77487">
        <ele>937.5</ele>
        <time>2015-09-18T11:55:10Z</time>
      </trkpt>
      <trkpt lat="42.46586" lon="2.77488">
        <ele>936.6</ele>
        <time>2015-09-18T11:55:11Z</time>
      </trkpt>
      <trkpt lat="42.46592" lon="2.77488">
        <ele>936.1</ele>
        <time>2015-09-18T11:55:12Z</time>
      </trkpt>
      <trkpt lat="42.46599" lon="2.77487">
        <ele>935.9</ele>
        <time>2015-09-18T11:55:13Z</time>
      </trkpt>
      <trkpt lat="42.46606" lon="2.77486">
        <ele>935.9</ele>
        <time>2015-09-18T11:55:14Z</time>
      </trkpt>
      <trkpt lat="42.46612" lon="2.77485">
        <ele>935.8</ele>
        <time>2015-09-18T11:55:15Z</time>
      </trkpt>
      <trkpt lat="42.46618" lon="2.77485">
        <ele>935.9</ele>
        <time>2015-09-18T11:55:16Z</time>
      </trkpt>
      <trkpt lat="42.46624" lon="2.77485">
        <ele>936.9</ele>
        <time>2015-09-18T11:55:17Z</time>
      </trkpt>
      <trkpt lat="42.46629" lon="2.77485">
        <ele>938.4</ele>
        <time>2015-09-18T11:55:18Z</time>
      </trkpt>
      <trkpt lat="42.46634" lon="2.77485">
        <ele>941</ele>
        <time>2015-09-18T11:55:19Z</time>
      </trkpt>
      <trkpt lat="42.46637" lon="2.77484">
        <ele>941</ele>
        <time>2015-09-18T11:55:20Z</time>
      </trkpt>
      <trkpt lat="42.46644" lon="2.77485">
        <ele>940.3</ele>
        <time>2015-09-18T11:55:22Z</time>
      </trkpt>
      <trkpt lat="42.46648" lon="2.77489">
        <ele>939.5</ele>
        <time>2015-09-18T11:55:23Z</time>
      </trkpt>
      <trkpt lat="42.46651" lon="2.77496">
        <ele>938.2</ele>
        <time>2015-09-18T11:55:24Z</time>
      </trkpt>
      <trkpt lat="42.46654" lon="2.77504">
        <ele>939</ele>
        <time>2015-09-18T11:55:25Z</time>
      </trkpt>
      <trkpt lat="42.46657" lon="2.77512">
        <ele>939.6</ele>
        <time>2015-09-18T11:55:26Z</time>
      </trkpt>
      <trkpt lat="42.46661" lon="2.77517">
        <ele>940</ele>
        <time>2015-09-18T11:55:27Z</time>
      </trkpt>
      <trkpt lat="42.46665" lon="2.7752">
        <ele>940.3</ele>
        <time>2015-09-18T11:55:28Z</time>
      </trkpt>
      <trkpt lat="42.46669" lon="2.77524">
        <ele>940.8</ele>
        <time>2015-09-18T11:55:29Z</time>
      </trkpt>
      <trkpt lat="42.46673" lon="2.7753">
        <ele>941</ele>
        <time>2015-09-18T11:55:30Z</time>
      </trkpt>
      <trkpt lat="42.46678" lon="2.77535">
        <ele>941.1</ele>
        <time>2015-09-18T11:55:31Z</time>
      </trkpt>
      <trkpt lat="42.46682" lon="2.7754">
        <ele>941.1</ele>
        <time>2015-09-18T11:55:32Z</time>
      </trkpt>
      <trkpt lat="42.46688" lon="2.77543">
        <ele>941.8</ele>
        <time>2015-09-18T11:55:33Z</time>
      </trkpt>
      <trkpt lat="42.46694" lon="2.77545">
        <ele>942.3</ele>
        <time>2015-09-18T11:55:34Z</time>
      </trkpt>
      <trkpt lat="42.46699" lon="2.77548">
        <ele>944.6</ele>
        <time>2015-09-18T11:55:35Z</time>
      </trkpt>
      <trkpt lat="42.46704" lon="2.77551">
        <ele>946.3</ele>
        <time>2015-09-18T11:55:36Z</time>
      </trkpt>
      <trkpt lat="42.46712" lon="2.77561">
        <ele>948</ele>
        <time>2015-09-18T11:55:38Z</time>
      </trkpt>
      <trkpt lat="42.46715" lon="2.77568">
        <ele>949.6</ele>
        <time>2015-09-18T11:55:39Z</time>
      </trkpt>
      <trkpt lat="42.46719" lon="2.77574">
        <ele>951.3</ele>
        <time>2015-09-18T11:55:40Z</time>
      </trkpt>
      <trkpt lat="42.46719" lon="2.77574">
        <ele>953.2</ele>
        <time>2015-09-18T11:55:40Z</time>
      </trkpt>
      <trkpt lat="42.4673" lon="2.77587">
        <ele>955.9</ele>
        <time>2015-09-18T11:55:42Z</time>
      </trkpt>
      <trkpt lat="42.46736" lon="2.77591">
        <ele>959.4</ele>
        <time>2015-09-18T11:55:43Z</time>
      </trkpt>
      <trkpt lat="42.46743" lon="2.77596">
        <ele>959.4</ele>
        <time>2015-09-18T11:55:44Z</time>
      </trkpt>
      <trkpt lat="42.46748" lon="2.77601">
        <ele>969.2</ele>
        <time>2015-09-18T11:55:45Z</time>
      </trkpt>
      <trkpt lat="42.46754" lon="2.77605">
        <ele>974.5</ele>
        <time>2015-09-18T11:55:46Z</time>
      </trkpt>
      <trkpt lat="42.46759" lon="2.77609">
        <ele>979.7</ele>
        <time>2015-09-18T11:55:47Z</time>
      </trkpt>
      <trkpt lat="42.46765" lon="2.77612">
        <ele>984</ele>
        <time>2015-09-18T11:55:48Z</time>
      </trkpt>
      <trkpt lat="42.4677" lon="2.77614">
        <ele>992.6</ele>
        <time>2015-09-18T11:55:49Z</time>
      </trkpt>
      <trkpt lat="42.46775" lon="2.77615">
        <ele>992.6</ele>
        <time>2015-09-18T11:55:50Z</time>
      </trkpt>
      <trkpt lat="42.46784" lon="2.77618">
        <ele>1000.8</ele>
        <time>2015-09-18T11:55:52Z</time>
      </trkpt>
      <trkpt lat="42.46788" lon="2.7762">
        <ele>1004</ele>
        <time>2015-09-18T11:55:53Z</time>
      </trkpt>
      <trkpt lat="42.4679" lon="2.77622">
        <ele>1006.3</ele>
        <time>2015-09-18T11:55:54Z</time>
      </trkpt>
      <trkpt lat="42.46791" lon="2.77625">
        <ele>1007.8</ele>
        <time>2015-09-18T11:55:55Z</time>
      </trkpt>
      <trkpt lat="42.46789" lon="2.77637">
        <ele>1005.9</ele>
        <time>2015-09-18T11:55:56Z</time>
      </trkpt>
      <trkpt lat="42.46788" lon="2.77647">
        <ele>1005.6</ele>
        <time>2015-09-18T11:55:57Z</time>
      </trkpt>
      <trkpt lat="42.46786" lon="2.77659">
        <ele>1007.3</ele>
        <time>2015-09-18T11:55:58Z</time>
      </trkpt>
      <trkpt lat="42.46784" lon="2.77671">
        <ele>1009.4</ele>
        <time>2015-09-18T11:55:59Z</time>
      </trkpt>
      <trkpt lat="42.46781" lon="2.77682">
        <ele>1011.7</ele>
        <time>2015-09-18T11:56:00Z</time>
      </trkpt>
      <trkpt lat="42.46778" lon="2.77693">
        <ele>1014.1</ele>
        <time>2015-09-18T11:56:01Z</time>
      </trkpt>
      <trkpt lat="42.46773" lon="2.77705">
        <ele>1016.7</ele>
        <time>2015-09-18T11:56:02Z</time>
      </trkpt>
      <trkpt lat="42.46768" lon="2.77717">
        <ele>1024</ele>
        <time>2015-09-18T11:56:03Z</time>
      </trkpt>
      <trkpt lat="42.46762" lon="2.77728">
        <ele>1024</ele>
        <time>2015-09-18T11:56:04Z</time>
      </trkpt>
      <trkpt lat="42.46756" lon="2.77737">
        <ele>1030.3</ele>
        <time>2015-09-18T11:56:05Z</time>
      </trkpt>
      <trkpt lat="42.46738" lon="2.77752">
        <ele>1032.7</ele>
        <time>2015-09-18T11:56:07Z</time>
      </trkpt>
      <trkpt lat="42.46727" lon="2.77757">
        <ele>1034.6</ele>
        <time>2015-09-18T11:56:08Z</time>
      </trkpt>
      <trkpt lat="42.46715" lon="2.7776">
        <ele>1036.4</ele>
        <time>2015-09-18T11:56:09Z</time>
      </trkpt>
      <trkpt lat="42.46702" lon="2.7776">
        <ele>1037.8</ele>
        <time>2015-09-18T11:56:10Z</time>
      </trkpt>
      <trkpt lat="42.46688" lon="2.77758">
        <ele>1039.7</ele>
        <time>2015-09-18T11:56:11Z</time>
      </trkpt>
      <trkpt lat="42.46676" lon="2.77754">
        <ele>1041.8</ele>
        <time>2015-09-18T11:56:12Z</time>
      </trkpt>
      <trkpt lat="42.46665" lon="2.77746">
        <ele>1043.8</ele>
        <time>2015-09-18T11:56:13Z</time>
      </trkpt>
      <trkpt lat="42.46656" lon="2.77734">
        <ele>1045.6</ele>
        <time>2015-09-18T11:56:14Z</time>
      </trkpt>
      <trkpt lat="42.4665" lon="2.77721">
        <ele>1047.9</ele>
        <time>2015-09-18T11:56:15Z</time>
      </trkpt>
      <trkpt lat="42.46645" lon="2.77708">
        <ele>1050.2</ele>
        <time>2015-09-18T11:56:16Z</time>
      </trkpt>
      <trkpt lat="42.46635" lon="2.77684">
        <ele>1054.8</ele>
        <time>2015-09-18T11:56:18Z</time>
      </trkpt>
      <trkpt lat="42.46632" lon="2.77672">
        <ele>1056.2</ele>
        <time>2015-09-18T11:56:19Z</time>
      </trkpt>
      <trkpt lat="42.46631" lon="2.77661">
        <ele>1058.5</ele>
        <time>2015-09-18T11:56:20Z</time>
      </trkpt>
      <trkpt lat="42.46631" lon="2.77661">
        <ele>1062.7</ele>
        <time>2015-09-18T11:56:20Z</time>
      </trkpt>
      <trkpt lat="42.46637" lon="2.77645">
        <ele>1066.7</ele>
        <time>2015-09-18T11:56:22Z</time>
      </trkpt>
      <trkpt lat="42.46641" lon="2.77642">
        <ele>1071.1</ele>
        <time>2015-09-18T11:56:23Z</time>
      </trkpt>
      <trkpt lat="42.46643" lon="2.7764">
        <ele>1074.7</ele>
        <time>2015-09-18T11:56:24Z</time>
      </trkpt>
      <trkpt lat="42.46645" lon="2.77637">
        <ele>1077.5</ele>
        <time>2015-09-18T11:56:25Z</time>
      </trkpt>
      <trkpt lat="42.46648" lon="2.77631">
        <ele>1080.1</ele>
        <time>2015-09-18T11:56:26Z</time>
      </trkpt>
      <trkpt lat="42.46652" lon="2.77627">
        <ele>1082.7</ele>
        <time>2015-09-18T11:56:27Z</time>
      </trkpt>
      <trkpt lat="42.46657" lon="2.77625">
        <ele>1085.6</ele>
        <time>2015-09-18T11:56:28Z</time>
      </trkpt>
      <trkpt lat="42.46662" lon="2.77625">
        <ele>1089.1</ele>
        <time>2015-09-18T11:56:29Z</time>
      </trkpt>
      <trkpt lat="42.46666" lon="2.77626">
        <ele>1092.8</ele>
        <time>2015-09-18T11:56:30Z</time>
      </trkpt>
      <trkpt lat="42.46673" lon="2.77621">
        <ele>1092.8</ele>
        <time>2015-09-18T11:56:32Z</time>
      </trkpt>
      <trkpt lat="42.46677" lon="2.77617">
        <ele>1096.6</ele>
        <time>2015-09-18T11:56:33Z</time>
      </trkpt>
      <trkpt lat="42.46681" lon="2.77616">
        <ele>1098.3</ele>
        <time>2015-09-18T11:56:34Z</time>
      </trkpt>
      <trkpt lat="42.46685" lon="2.77619">
        <ele>1099.3</ele>
        <time>2015-09-18T11:56:35Z</time>
      </trkpt>
      <trkpt lat="42.46685" lon="2.77619">
        <ele>1100.3</ele>
        <time>2015-09-18T11:56:35Z</time>
      </trkpt>
      <trkpt lat="42.4669" lon="2.77632">
        <ele>1101.1</ele>
        <time>2015-09-18T11:56:37Z</time>
      </trkpt>
      <trkpt lat="42.46693" lon="2.77639">
        <ele>1102</ele>
        <time>2015-09-18T11:56:38Z</time>
      </trkpt>
      <trkpt lat="42.46695" lon="2.77647">
        <ele>1103.2</ele>
        <time>2015-09-18T11:56:39Z</time>
      </trkpt>
      <trkpt lat="42.46697" lon="2.77656">
        <ele>1104.4</ele>
        <time>2015-09-18T11:56:40Z</time>
      </trkpt>
      <trkpt lat="42.46698" lon="2.77666">
        <ele>1105.4</ele>
        <time>2015-09-18T11:56:41Z</time>
      </trkpt>
      <trkpt lat="42.46698" lon="2.77676">
        <ele>1106.2</ele>
        <time>2015-09-18T11:56:42Z</time>
      </trkpt>
      <trkpt lat="42.46699" lon="2.77686">
        <ele>1106.6</ele>
        <time>2015-09-18T11:56:43Z</time>
      </trkpt>
      <trkpt lat="42.46701" lon="2.77696">
        <ele>1107.8</ele>
        <time>2015-09-18T11:56:44Z</time>
      </trkpt>
      <trkpt lat="42.46701" lon="2.77696">
        <ele>1112.1</ele>
        <time>2015-09-18T11:56:44Z</time>
      </trkpt>
      <trkpt lat="42.46707" lon="2.77727">
        <ele>1114.4</ele>
        <time>2015-09-18T11:56:47Z</time>
      </trkpt>
      <trkpt lat="42.46706" lon="2.77738">
        <ele>1117.1</ele>
        <time>2015-09-18T11:56:48Z</time>
      </trkpt>
      <trkpt lat="42.46702" lon="2.77749">
        <ele>1119.7</ele>
        <time>2015-09-18T11:56:49Z</time>
      </trkpt>
      <trkpt lat="42.46694" lon="2.77758">
        <ele>1121.7</ele>
        <time>2015-09-18T11:56:50Z</time>
      </trkpt>
      <trkpt lat="42.46683" lon="2.77763">
        <ele>1123.8</ele>
        <time>2015-09-18T11:56:51Z</time>
      </trkpt>
      <trkpt lat="42.46671" lon="2.77762">
        <ele>1126.1</ele>
        <time>2015-09-18T11:56:52Z</time>
      </trkpt>
      <trkpt lat="42.46661" lon="2.77755">
        <ele>1126.1</ele>
        <time>2015-09-18T11:56:53Z</time>
      </trkpt>
      <trkpt lat="42.46653" lon="2.77744">
        <ele>1131.9</ele>
        <time>2015-09-18T11:56:54Z</time>
      </trkpt>
      <trkpt lat="42.46649" lon="2.77733">
        <ele>1135.1</ele>
        <time>2015-09-18T11:56:55Z</time>
      </trkpt>
      <trkpt lat="42.46647" lon="2.77723">
        <ele>1138.3</ele>
        <time>2015-09-18T11:56:56Z</time>
      </trkpt>
      <trkpt lat="42.46646" lon="2.77714">
        <ele>1141.3</ele>
        <time>2015-09-18T11:56:57Z</time>
      </trkpt>
      <trkpt lat="42.46648" lon="2.77708">
        <ele>1143.3</ele>
        <time>2015-09-18T11:56:58Z</time>
      </trkpt>
      <trkpt lat="42.46651" lon="2.77703">
        <ele>1143.3</ele>
        <time>2015-09-18T11:56:59Z</time>
      </trkpt>
      <trkpt lat="42.46655" lon="2.77699">
        <ele>1148.8</ele>
        <time>2015-09-18T11:57:00Z</time>
      </trkpt>
      <trkpt lat="42.46664" lon="2.77697">
        <ele>1150.5</ele>
        <time>2015-09-18T11:57:02Z</time>
      </trkpt>
      <trkpt lat="42.46669" lon="2.777">
        <ele>1152.4</ele>
        <time>2015-09-18T11:57:03Z</time>
      </trkpt>
      <trkpt lat="42.46673" lon="2.77705">
        <ele>1154.6</ele>
        <time>2015-09-18T11:57:04Z</time>
      </trkpt>
      <trkpt lat="42.46677" lon="2.77712">
        <ele>1157.4</ele>
        <time>2015-09-18T11:57:05Z</time>
      </trkpt>
      <trkpt lat="42.4668" lon="2.77719">
        <ele>1157.4</ele>
        <time>2015-09-18T11:57:06Z</time>
      </trkpt>
      <trkpt lat="42.46682" lon="2.77726">
        <ele>1164.4</ele>
        <time>2015-09-18T11:57:07Z</time>
      </trkpt>
      <trkpt lat="42.46681" lon="2.77734">
        <ele>1167.7</ele>
        <time>2015-09-18T11:57:08Z</time>
      </trkpt>
      <trkpt lat="42.46678" lon="2.77742">
        <ele>1168.6</ele>
        <time>2015-09-18T11:57:09Z</time>
      </trkpt>
      <trkpt lat="42.46673" lon="2.77751">
        <ele>1170</ele>
        <time>2015-09-18T11:57:10Z</time>
      </trkpt>
      <trkpt lat="42.46667" lon="2.77761">
        <ele>1170</ele>
        <time>2015-09-18T11:57:11Z</time>
      </trkpt>
      <trkpt lat="42.46659" lon="2.7777">
        <ele>1173.6</ele>
        <time>2015-09-18T11:57:12Z</time>
      </trkpt>
      <trkpt lat="42.46651" lon="2.77777">
        <ele>1177.2</ele>
        <time>2015-09-18T11:57:13Z</time>
      </trkpt>
      <trkpt lat="42.46641" lon="2.77784">
        <ele>1177.2</ele>
        <time>2015-09-18T11:57:14Z</time>
      </trkpt>
      <trkpt lat="42.46631" lon="2.7779">
        <ele>1181.7</ele>
        <time>2015-09-18T11:57:15Z</time>
      </trkpt>
      <trkpt lat="42.46608" lon="2.77795">
        <ele>1184.5</ele>
        <time>2015-09-18T11:57:17Z</time>
      </trkpt>
      <trkpt lat="42.46596" lon="2.77793">
        <ele>1184.5</ele>
        <time>2015-09-18T11:57:18Z</time>
      </trkpt>
      <trkpt lat="42.46584" lon="2.77789">
        <ele>1190.4</ele>
        <time>2015-09-18T11:57:19Z</time>
      </trkpt>
      <trkpt lat="42.46572" lon="2.77784">
        <ele>1193.6</ele>
        <time>2015-09-18T11:57:20Z</time>
      </trkpt>
      <trkpt lat="42.46561" lon="2.77779">
        <ele>1196.5</ele>
        <time>2015-09-18T11:57:21Z</time>
      </trkpt>
      <trkpt lat="42.46552" lon="2.77772">
        <ele>1199.3</ele>
        <time>2015-09-18T11:57:22Z</time>
      </trkpt>
      <trkpt lat="42.46542" lon="2.77763">
        <ele>1201.8</ele>
        <time>2015-09-18T11:57:23Z</time>
      </trkpt>
      <trkpt lat="42.46535" lon="2.77753">
        <ele>1204</ele>
        <time>2015-09-18T11:57:24Z</time>
      </trkpt>
      <trkpt lat="42.46529" lon="2.77742">
        <ele>1205.8</ele>
        <time>2015-09-18T11:57:25Z</time>
      </trkpt>
      <trkpt lat="42.46525" lon="2.77731">
        <ele>1207.2</ele>
        <time>2015-09-18T11:57:26Z</time>
      </trkpt>
      <trkpt lat="42.46523" lon="2.77719">
        <ele>1208.8</ele>
        <time>2015-09-18T11:57:27Z</time>
      </trkpt>
      <trkpt lat="42.46524" lon="2.77697">
        <ele>1210.7</ele>
        <time>2015-09-18T11:57:29Z</time>
      </trkpt>
      <trkpt lat="42.46526" lon="2.77689">
        <ele>1216.3</ele>
        <time>2015-09-18T11:57:30Z</time>
      </trkpt>
      <trkpt lat="42.46526" lon="2.77689">
        <ele>1217.9</ele>
        <time>2015-09-18T11:57:30Z</time>
      </trkpt>
      <trkpt lat="42.46532" lon="2.77677">
        <ele>1218.5</ele>
        <time>2015-09-18T11:57:32Z</time>
      </trkpt>
      <trkpt lat="42.46536" lon="2.77674">
        <ele>1219.2</ele>
        <time>2015-09-18T11:57:33Z</time>
      </trkpt>
      <trkpt lat="42.46541" lon="2.77673">
        <ele>1219.2</ele>
        <time>2015-09-18T11:57:34Z</time>
      </trkpt>
      <trkpt lat="42.46546" lon="2.77673">
        <ele>1222.1</ele>
        <time>2015-09-18T11:57:35Z</time>
      </trkpt>
      <trkpt lat="42.46551" lon="2.77674">
        <ele>1223.4</ele>
        <time>2015-09-18T11:57:36Z</time>
      </trkpt>
      <trkpt lat="42.46555" lon="2.77676">
        <ele>1224.4</ele>
        <time>2015-09-18T11:57:37Z</time>
      </trkpt>
      <trkpt lat="42.4656" lon="2.77677">
        <ele>1225.5</ele>
        <time>2015-09-18T11:57:38Z</time>
      </trkpt>
      <trkpt lat="42.46566" lon="2.77679">
        <ele>1226.7</ele>
        <time>2015-09-18T11:57:39Z</time>
      </trkpt>
      <trkpt lat="42.46571" lon="2.77682">
        <ele>1228.3</ele>
        <time>2015-09-18T11:57:40Z</time>
      </trkpt>
      <trkpt lat="42.46576" lon="2.77685">
        <ele>1230.3</ele>
        <time>2015-09-18T11:57:41Z</time>
      </trkpt>
      <trkpt lat="42.4658" lon="2.77689">
        <ele>1232.2</ele>
        <time>2015-09-18T11:57:42Z</time>
      </trkpt>
      <trkpt lat="42.46584" lon="2.77693">
        <ele>1233.7</ele>
        <time>2015-09-18T11:57:43Z</time>
      </trkpt>
      <trkpt lat="42.4659" lon="2.77705">
        <ele>1236.3</ele>
        <time>2015-09-18T11:57:45Z</time>
      </trkpt>
      <trkpt lat="42.4659" lon="2.77705">
        <ele>1237.6</ele>
        <time>2015-09-18T11:57:45Z</time>
      </trkpt>
      <trkpt lat="42.46595" lon="2.77718">
        <ele>1238.8</ele>
        <time>2015-09-18T11:57:47Z</time>
      </trkpt>
      <trkpt lat="42.46597" lon="2.77725">
        <ele>1239.8</ele>
        <time>2015-09-18T11:57:48Z</time>
      </trkpt>
      <trkpt lat="42.46598" lon="2.77732">
        <ele>1239.8</ele>
        <time>2015-09-18T11:57:49Z</time>
      </trkpt>
      <trkpt lat="42.46598" lon="2.7774">
        <ele>1241</ele>
        <time>2015-09-18T11:57:50Z</time>
      </trkpt>
      <trkpt lat="42.46595" lon="2.7775">
        <ele>1241.4</ele>
        <time>2015-09-18T11:57:51Z</time>
      </trkpt>
      <trkpt lat="42.46591" lon="2.7776">
        <ele>1242.4</ele>
        <time>2015-09-18T11:57:52Z</time>
      </trkpt>
      <trkpt lat="42.46585" lon="2.7777">
        <ele>1243.9</ele>
        <time>2015-09-18T11:57:53Z</time>
      </trkpt>
      <trkpt lat="42.46578" lon="2.77778">
        <ele>1243.9</ele>
        <time>2015-09-18T11:57:54Z</time>
      </trkpt>
      <trkpt lat="42.46569" lon="2.77783">
        <ele>1246.3</ele>
        <time>2015-09-18T11:57:55Z</time>
      </trkpt>
      <trkpt lat="42.46559" lon="2.77785">
        <ele>1246.8</ele>
        <time>2015-09-18T11:57:56Z</time>
      </trkpt>
      <trkpt lat="42.46548" lon="2.77784">
        <ele>1247.7</ele>
        <time>2015-09-18T11:57:57Z</time>
      </trkpt>
      <trkpt lat="42.4653" lon="2.77767">
        <ele>1247.8</ele>
        <time>2015-09-18T11:57:59Z</time>
      </trkpt>
      <trkpt lat="42.46525" lon="2.77754">
        <ele>1248.1</ele>
        <time>2015-09-18T11:58:00Z</time>
      </trkpt>
      <trkpt lat="42.46525" lon="2.77754">
        <ele>1248.6</ele>
        <time>2015-09-18T11:58:00Z</time>
      </trkpt>
      <trkpt lat="42.46521" lon="2.77728">
        <ele>1249.8</ele>
        <time>2015-09-18T11:58:02Z</time>
      </trkpt>
      <trkpt lat="42.46522" lon="2.77718">
        <ele>1250.9</ele>
        <time>2015-09-18T11:58:03Z</time>
      </trkpt>
      <trkpt lat="42.46524" lon="2.77709">
        <ele>1251.5</ele>
        <time>2015-09-18T11:58:04Z</time>
      </trkpt>
      <trkpt lat="42.46526" lon="2.777">
        <ele>1251.5</ele>
        <time>2015-09-18T11:58:05Z</time>
      </trkpt>
      <trkpt lat="42.46529" lon="2.77692">
        <ele>1251.4</ele>
        <time>2015-09-18T11:58:06Z</time>
      </trkpt>
      <trkpt lat="42.46533" lon="2.77685">
        <ele>1252.1</ele>
        <time>2015-09-18T11:58:07Z</time>
      </trkpt>
      <trkpt lat="42.46537" lon="2.77679">
        <ele>1252.5</ele>
        <time>2015-09-18T11:58:08Z</time>
      </trkpt>
      <trkpt lat="42.46542" lon="2.77674">
        <ele>1252.9</ele>
        <time>2015-09-18T11:58:09Z</time>
      </trkpt>
      <trkpt lat="42.46546" lon="2.77671">
        <ele>1253.1</ele>
        <time>2015-09-18T11:58:10Z</time>
      </trkpt>
      <trkpt lat="42.46551" lon="2.7767">
        <ele>1252.6</ele>
        <time>2015-09-18T11:58:11Z</time>
      </trkpt>
      <trkpt lat="42.46557" lon="2.77671">
        <ele>1251.8</ele>
        <time>2015-09-18T11:58:12Z</time>
      </trkpt>
      <trkpt lat="42.46562" lon="2.77676">
        <ele>1252</ele>
        <time>2015-09-18T11:58:13Z</time>
      </trkpt>
      <trkpt lat="42.46567" lon="2.77683">
        <ele>1253.1</ele>
        <time>2015-09-18T11:58:14Z</time>
      </trkpt>
      <trkpt lat="42.46571" lon="2.77691">
        <ele>1257.6</ele>
        <time>2015-09-18T11:58:15Z</time>
      </trkpt>
      <trkpt lat="42.46578" lon="2.77704">
        <ele>1259.5</ele>
        <time>2015-09-18T11:58:17Z</time>
      </trkpt>
      <trkpt lat="42.46581" lon="2.77709">
        <ele>1261</ele>
        <time>2015-09-18T11:58:18Z</time>
      </trkpt>
      <trkpt lat="42.46585" lon="2.77714">
        <ele>1262.4</ele>
        <time>2015-09-18T11:58:19Z</time>
      </trkpt>
      <trkpt lat="42.46587" lon="2.7772">
        <ele>1264.5</ele>
        <time>2015-09-18T11:58:20Z</time>
      </trkpt>
      <trkpt lat="42.46588" lon="2.77727">
        <ele>1266.8</ele>
        <time>2015-09-18T11:58:21Z</time>
      </trkpt>
      <trkpt lat="42.46589" lon="2.77733">
        <ele>1268.6</ele>
        <time>2015-09-18T11:58:22Z</time>
      </trkpt>
      <trkpt lat="42.46589" lon="2.77738">
        <ele>1269.5</ele>
        <time>2015-09-18T11:58:23Z</time>
      </trkpt>
      <trkpt lat="42.46589" lon="2.77744">
        <ele>1270</ele>
        <time>2015-09-18T11:58:24Z</time>
      </trkpt>
      <trkpt lat="42.46589" lon="2.77748">
        <ele>1269</ele>
        <time>2015-09-18T11:58:25Z</time>
      </trkpt>
      <trkpt lat="42.46589" lon="2.77753">
        <ele>1267.7</ele>
        <time>2015-09-18T11:58:26Z</time>
      </trkpt>
      <trkpt lat="42.4659" lon="2.77759">
        <ele>1266.7</ele>
        <time>2015-09-18T11:58:27Z</time>
      </trkpt>
      <trkpt lat="42.46592" lon="2.77766">
        <ele>1265.8</ele>
        <time>2015-09-18T11:58:28Z</time>
      </trkpt>
      <trkpt lat="42.46594" lon="2.77773">
        <ele>1265.7</ele>
        <time>2015-09-18T11:58:29Z</time>
      </trkpt>
      <trkpt lat="42.46598" lon="2.77779">
        <ele>1266.5</ele>
        <time>2015-09-18T11:58:30Z</time>
      </trkpt>
      <trkpt lat="42.46605" lon="2.77794">
        <ele>1267.7</ele>
        <time>2015-09-18T11:58:32Z</time>
      </trkpt>
      <trkpt lat="42.46609" lon="2.77803">
        <ele>1269.3</ele>
        <time>2015-09-18T11:58:33Z</time>
      </trkpt>
      <trkpt lat="42.46613" lon="2.77811">
        <ele>1269.3</ele>
        <time>2015-09-18T11:58:34Z</time>
      </trkpt>
      <trkpt lat="42.46616" lon="2.77818">
        <ele>1274.1</ele>
        <time>2015-09-18T11:58:35Z</time>
      </trkpt>
      <trkpt lat="42.4662" lon="2.77825">
        <ele>1276.3</ele>
        <time>2015-09-18T11:58:36Z</time>
      </trkpt>
      <trkpt lat="42.46624" lon="2.77832">
        <ele>1278.1</ele>
        <time>2015-09-18T11:58:37Z</time>
      </trkpt>
      <trkpt lat="42.46629" lon="2.77838">
        <ele>1279.6</ele>
        <time>2015-09-18T11:58:38Z</time>
      </trkpt>
      <trkpt lat="42.46633" lon="2.77845">
        <ele>1281.3</ele>
        <time>2015-09-18T11:58:39Z</time>
      </trkpt>
      <trkpt lat="42.46638" lon="2.77852">
        <ele>1283.2</ele>
        <time>2015-09-18T11:58:40Z</time>
      </trkpt>
      <trkpt lat="42.46643" lon="2.77858">
        <ele>1284.7</ele>
        <time>2015-09-18T11:58:41Z</time>
      </trkpt>
      <trkpt lat="42.46646" lon="2.77862">
        <ele>1285.6</ele>
        <time>2015-09-18T11:58:42Z</time>
      </trkpt>
      <trkpt lat="42.46651" lon="2.77866">
        <ele>1284.7</ele>
        <time>2015-09-18T11:58:43Z</time>
      </trkpt>
      <trkpt lat="42.4666" lon="2.7788">
        <ele>1283</ele>
        <time>2015-09-18T11:58:45Z</time>
      </trkpt>
      <trkpt lat="42.4666" lon="2.7788">
        <ele>1281.4</ele>
        <time>2015-09-18T11:58:45Z</time>
      </trkpt>
      <trkpt lat="42.46664" lon="2.77902">
        <ele>1280.5</ele>
        <time>2015-09-18T11:58:47Z</time>
      </trkpt>
      <trkpt lat="42.46669" lon="2.77906">
        <ele>1283.1</ele>
        <time>2015-09-18T11:58:48Z</time>
      </trkpt>
      <trkpt lat="42.46672" lon="2.77909">
        <ele>1284.5</ele>
        <time>2015-09-18T11:58:49Z</time>
      </trkpt>
      <trkpt lat="42.46674" lon="2.77914">
        <ele>1285.2</ele>
        <time>2015-09-18T11:58:50Z</time>
      </trkpt>
      <trkpt lat="42.46677" lon="2.77919">
        <ele>1285.5</ele>
        <time>2015-09-18T11:58:51Z</time>
      </trkpt>
      <trkpt lat="42.4668" lon="2.77924">
        <ele>1285.8</ele>
        <time>2015-09-18T11:58:52Z</time>
      </trkpt>
      <trkpt lat="42.46683" lon="2.77927">
        <ele>1286.2</ele>
        <time>2015-09-18T11:58:53Z</time>
      </trkpt>
      <trkpt lat="42.46688" lon="2.77928">
        <ele>1286.8</ele>
        <time>2015-09-18T11:58:54Z</time>
      </trkpt>
      <trkpt lat="42.46688" lon="2.77928">
        <ele>1287.5</ele>
        <time>2015-09-18T11:58:54Z</time>
      </trkpt>
      <trkpt lat="42.46688" lon="2.77928">
        <ele>1288</ele>
        <time>2015-09-18T11:58:54Z</time>
      </trkpt>
      <trkpt lat="42.46702" lon="2.77934">
        <ele>1288.5</ele>
        <time>2015-09-18T11:58:57Z</time>
      </trkpt>
      <trkpt lat="42.46705" lon="2.77939">
        <ele>1288.5</ele>
        <time>2015-09-18T11:58:58Z</time>
      </trkpt>
      <trkpt lat="42.46708" lon="2.77954">
        <ele>1290.6</ele>
        <time>2015-09-18T11:59:00Z</time>
      </trkpt>
      <trkpt lat="42.46708" lon="2.77954">
        <ele>1292</ele>
        <time>2015-09-18T11:59:00Z</time>
      </trkpt>
      <trkpt lat="42.46702" lon="2.77972">
        <ele>1290.3</ele>
        <time>2015-09-18T11:59:02Z</time>
      </trkpt>
      <trkpt lat="42.46695" lon="2.77981">
        <ele>1288.9</ele>
        <time>2015-09-18T11:59:03Z</time>
      </trkpt>
      <trkpt lat="42.46687" lon="2.7799">
        <ele>1288.2</ele>
        <time>2015-09-18T11:59:04Z</time>
      </trkpt>
      <trkpt lat="42.46677" lon="2.77997">
        <ele>1288.2</ele>
        <time>2015-09-18T11:59:05Z</time>
      </trkpt>
      <trkpt lat="42.46667" lon="2.78002">
        <ele>1289.1</ele>
        <time>2015-09-18T11:59:06Z</time>
      </trkpt>
      <trkpt lat="42.46656" lon="2.78005">
        <ele>1289.4</ele>
        <time>2015-09-18T11:59:07Z</time>
      </trkpt>
      <trkpt lat="42.46645" lon="2.78007">
        <ele>1289.7</ele>
        <time>2015-09-18T11:59:08Z</time>
      </trkpt>
      <trkpt lat="42.46634" lon="2.78007">
        <ele>1289.9</ele>
        <time>2015-09-18T11:59:09Z</time>
      </trkpt>
      <trkpt lat="42.46621" lon="2.78007">
        <ele>1290.8</ele>
        <time>2015-09-18T11:59:10Z</time>
      </trkpt>
      <trkpt lat="42.46609" lon="2.78004">
        <ele>1292.3</ele>
        <time>2015-09-18T11:59:11Z</time>
      </trkpt>
      <trkpt lat="42.46597" lon="2.77999">
        <ele>1294.4</ele>
        <time>2015-09-18T11:59:12Z</time>
      </trkpt>
      <trkpt lat="42.46586" lon="2.77991">
        <ele>1299.6</ele>
        <time>2015-09-18T11:59:13Z</time>
      </trkpt>
      <trkpt lat="42.46576" lon="2.77984">
        <ele>1302.2</ele>
        <time>2015-09-18T11:59:14Z</time>
      </trkpt>
      <trkpt lat="42.46567" lon="2.77978">
        <ele>1305</ele>
        <time>2015-09-18T11:59:15Z</time>
      </trkpt>
      <trkpt lat="42.46554" lon="2.77961">
        <ele>1307</ele>
        <time>2015-09-18T11:59:17Z</time>
      </trkpt>
      <trkpt lat="42.46549" lon="2.77948">
        <ele>1308.4</ele>
        <time>2015-09-18T11:59:18Z</time>
      </trkpt>
      <trkpt lat="42.46545" lon="2.77933">
        <ele>1310.4</ele>
        <time>2015-09-18T11:59:19Z</time>
      </trkpt>
      <trkpt lat="42.46543" lon="2.77919">
        <ele>1312</ele>
        <time>2015-09-18T11:59:20Z</time>
      </trkpt>
      <trkpt lat="42.46543" lon="2.77908">
        <ele>1313.2</ele>
        <time>2015-09-18T11:59:21Z</time>
      </trkpt>
      <trkpt lat="42.46544" lon="2.779">
        <ele>1314.5</ele>
        <time>2015-09-18T11:59:22Z</time>
      </trkpt>
      <trkpt lat="42.46547" lon="2.77894">
        <ele>1313.4</ele>
        <time>2015-09-18T11:59:23Z</time>
      </trkpt>
      <trkpt lat="42.46552" lon="2.7789">
        <ele>1312.5</ele>
        <time>2015-09-18T11:59:24Z</time>
      </trkpt>
      <trkpt lat="42.46559" lon="2.77887">
        <ele>1312.1</ele>
        <time>2015-09-18T11:59:25Z</time>
      </trkpt>
      <trkpt lat="42.46566" lon="2.77884">
        <ele>1313.6</ele>
        <time>2015-09-18T11:59:26Z</time>
      </trkpt>
      <trkpt lat="42.46572" lon="2.77883">
        <ele>1315.3</ele>
        <time>2015-09-18T11:59:27Z</time>
      </trkpt>
      <trkpt lat="42.46577" lon="2.77882">
        <ele>1316.6</ele>
        <time>2015-09-18T11:59:28Z</time>
      </trkpt>
      <trkpt lat="42.46581" lon="2.77882">
        <ele>1317</ele>
        <time>2015-09-18T11:59:29Z</time>
      </trkpt>
      <trkpt lat="42.46585" lon="2.77884">
        <ele>1315.9</ele>
        <time>2015-09-18T11:59:30Z</time>
      </trkpt>
      <trkpt lat="42.4659" lon="2.77885">
        <ele>1314.2</ele>
        <time>2015-09-18T11:59:31Z</time>
      </trkpt>
      <trkpt lat="42.466" lon="2.77886">
        <ele>1314.1</ele>
        <time>2015-09-18T11:59:33Z</time>
      </trkpt>
      <trkpt lat="42.46605" lon="2.77888">
        <ele>1314.1</ele>
        <time>2015-09-18T11:59:34Z</time>
      </trkpt>
      <trkpt lat="42.46609" lon="2.77891">
        <ele>1314.2</ele>
        <time>2015-09-18T11:59:35Z</time>
      </trkpt>
      <trkpt lat="42.46609" lon="2.77891">
        <ele>1314.5</ele>
        <time>2015-09-18T11:59:35Z</time>
      </trkpt>
      <trkpt lat="42.46617" lon="2.77902">
        <ele>1315</ele>
        <time>2015-09-18T11:59:37Z</time>
      </trkpt>
      <trkpt lat="42.4662" lon="2.77908">
        <ele>1315.2</ele>
        <time>2015-09-18T11:59:38Z</time>
      </trkpt>
      <trkpt lat="42.46625" lon="2.77913">
        <ele>1315.8</ele>
        <time>2015-09-18T11:59:39Z</time>
      </trkpt>
      <trkpt lat="42.46629" lon="2.77919">
        <ele>1316.3</ele>
        <time>2015-09-18T11:59:40Z</time>
      </trkpt>
      <trkpt lat="42.46634" lon="2.77926">
        <ele>1317.1</ele>
        <time>2015-09-18T11:59:41Z</time>
      </trkpt>
      <trkpt lat="42.46639" lon="2.77934">
        <ele>1318.7</ele>
        <time>2015-09-18T11:59:42Z</time>
      </trkpt>
      <trkpt lat="42.46643" lon="2.77941">
        <ele>1322.8</ele>
        <time>2015-09-18T11:59:43Z</time>
      </trkpt>
      <trkpt lat="42.46647" lon="2.77947">
        <ele>1324.1</ele>
        <time>2015-09-18T11:59:44Z</time>
      </trkpt>
      <trkpt lat="42.46651" lon="2.77954">
        <ele>1324.7</ele>
        <time>2015-09-18T11:59:45Z</time>
      </trkpt>
      <trkpt lat="42.46659" lon="2.77969">
        <ele>1325</ele>
        <time>2015-09-18T11:59:47Z</time>
      </trkpt>
      <trkpt lat="42.46663" lon="2.77977">
        <ele>1325.4</ele>
        <time>2015-09-18T11:59:48Z</time>
      </trkpt>
      <trkpt lat="42.46667" lon="2.77985">
        <ele>1326</ele>
        <time>2015-09-18T11:59:49Z</time>
      </trkpt>
      <trkpt lat="42.46671" lon="2.77992">
        <ele>1326.6</ele>
        <time>2015-09-18T11:59:50Z</time>
      </trkpt>
      <trkpt lat="42.46676" lon="2.78">
        <ele>1327</ele>
        <time>2015-09-18T11:59:51Z</time>
      </trkpt>
      <trkpt lat="42.4668" lon="2.78008">
        <ele>1326.9</ele>
        <time>2015-09-18T11:59:52Z</time>
      </trkpt>
      <trkpt lat="42.46684" lon="2.78016">
        <ele>1326.9</ele>
        <time>2015-09-18T11:59:53Z</time>
      </trkpt>
      <trkpt lat="42.46686" lon="2.78024">
        <ele>1326.4</ele>
        <time>2015-09-18T11:59:54Z</time>
      </trkpt>
      <trkpt lat="42.46689" lon="2.78032">
        <ele>1325.2</ele>
        <time>2015-09-18T11:59:55Z</time>
      </trkpt>
      <trkpt lat="42.46691" lon="2.78039">
        <ele>1322.7</ele>
        <time>2015-09-18T11:59:56Z</time>
      </trkpt>
      <trkpt lat="42.46694" lon="2.78047">
        <ele>1319.9</ele>
        <time>2015-09-18T11:59:57Z</time>
      </trkpt>
      <trkpt lat="42.46698" lon="2.78055">
        <ele>1316.4</ele>
        <time>2015-09-18T11:59:58Z</time>
      </trkpt>
      <trkpt lat="42.46705" lon="2.78072">
        <ele>1315.2</ele>
        <time>2015-09-18T12:00:00Z</time>
      </trkpt>
      <trkpt lat="42.46705" lon="2.78072">
        <ele>1313.9</ele>
        <time>2015-09-18T12:00:00Z</time>
      </trkpt>
      <trkpt lat="42.46709" lon="2.78089">
        <ele>1312.3</ele>
        <time>2015-09-18T12:00:02Z</time>
      </trkpt>
      <trkpt lat="42.46711" lon="2.78096">
        <ele>1309.5</ele>
        <time>2015-09-18T12:00:03Z</time>
      </trkpt>
      <trkpt lat="42.46714" lon="2.78104">
        <ele>1306.2</ele>
        <time>2015-09-18T12:00:04Z</time>
      </trkpt>
      <trkpt lat="42.46717" lon="2.78112">
        <ele>1302.8</ele>
        <time>2015-09-18T12:00:05Z</time>
      </trkpt>
      <trkpt lat="42.46721" lon="2.78122">
        <ele>1300</ele>
        <time>2015-09-18T12:00:06Z</time>
      </trkpt>
      <trkpt lat="42.46726" lon="2.78132">
        <ele>1298.2</ele>
        <time>2015-09-18T12:00:07Z</time>
      </trkpt>
      <trkpt lat="42.4673" lon="2.78141">
        <ele>1297.1</ele>
        <time>2015-09-18T12:00:08Z</time>
      </trkpt>
      <trkpt lat="42.46734" lon="2.78149">
        <ele>1296</ele>
        <time>2015-09-18T12:00:09Z</time>
      </trkpt>
      <trkpt lat="42.46738" lon="2.78155">
        <ele>1294.2</ele>
        <time>2015-09-18T12:00:10Z</time>
      </trkpt>
      <trkpt lat="42.46742" lon="2.78162">
        <ele>1288.6</ele>
        <time>2015-09-18T12:00:11Z</time>
      </trkpt>
      <trkpt lat="42.46751" lon="2.78178">
        <ele>1286.2</ele>
        <time>2015-09-18T12:00:13Z</time>
      </trkpt>
      <trkpt lat="42.46756" lon="2.78186">
        <ele>1284.7</ele>
        <time>2015-09-18T12:00:14Z</time>
      </trkpt>
      <trkpt lat="42.4676" lon="2.78194">
        <ele>1283.4</ele>
        <time>2015-09-18T12:00:15Z</time>
      </trkpt>
      <trkpt lat="42.4676" lon="2.78194">
        <ele>1282.2</ele>
        <time>2015-09-18T12:00:15Z</time>
      </trkpt>
      <trkpt lat="42.46766" lon="2.78209">
        <ele>1282.2</ele>
        <time>2015-09-18T12:00:17Z</time>
      </trkpt>
      <trkpt lat="42.46769" lon="2.78216">
        <ele>1278.5</ele>
        <time>2015-09-18T12:00:18Z</time>
      </trkpt>
      <trkpt lat="42.46772" lon="2.78224">
        <ele>1276.4</ele>
        <time>2015-09-18T12:00:19Z</time>
      </trkpt>
      <trkpt lat="42.46776" lon="2.78232">
        <ele>1274.7</ele>
        <time>2015-09-18T12:00:20Z</time>
      </trkpt>
      <trkpt lat="42.4678" lon="2.78239">
        <ele>1273.4</ele>
        <time>2015-09-18T12:00:21Z</time>
      </trkpt>
      <trkpt lat="42.46783" lon="2.78247">
        <ele>1272.6</ele>
        <time>2015-09-18T12:00:22Z</time>
      </trkpt>
      <trkpt lat="42.46786" lon="2.78255">
        <ele>1271.7</ele>
        <time>2015-09-18T12:00:23Z</time>
      </trkpt>
      <trkpt lat="42.46789" lon="2.78263">
        <ele>1270.7</ele>
        <time>2015-09-18T12:00:24Z</time>
      </trkpt>
      <trkpt lat="42.46793" lon="2.7827">
        <ele>1269.9</ele>
        <time>2015-09-18T12:00:25Z</time>
      </trkpt>
      <trkpt lat="42.46797" lon="2.78277">
        <ele>1268.6</ele>
        <time>2015-09-18T12:00:26Z</time>
      </trkpt>
      <trkpt lat="42.46804" lon="2.78293">
        <ele>1268</ele>
        <time>2015-09-18T12:00:28Z</time>
      </trkpt>
      <trkpt lat="42.46807" lon="2.78302">
        <ele>1267.5</ele>
        <time>2015-09-18T12:00:29Z</time>
      </trkpt>
      <trkpt lat="42.4681" lon="2.78312">
        <ele>1267.3</ele>
        <time>2015-09-18T12:00:30Z</time>
      </trkpt>
      <trkpt lat="42.46814" lon="2.78321">
        <ele>1267.3</ele>
        <time>2015-09-18T12:00:31Z</time>
      </trkpt>
      <trkpt lat="42.46819" lon="2.78331">
        <ele>1267.7</ele>
        <time>2015-09-18T12:00:32Z</time>
      </trkpt>
      <trkpt lat="42.46823" lon="2.7834">
        <ele>1268</ele>
        <time>2015-09-18T12:00:33Z</time>
      </trkpt>
      <trkpt lat="42.46826" lon="2.7835">
        <ele>1268.2</ele>
        <time>2015-09-18T12:00:34Z</time>
      </trkpt>
      <trkpt lat="42.46828" lon="2.7836">
        <ele>1267.9</ele>
        <time>2015-09-18T12:00:35Z</time>
      </trkpt>
      <trkpt lat="42.46831" lon="2.78371">
        <ele>1267.6</ele>
        <time>2015-09-18T12:00:36Z</time>
      </trkpt>
      <trkpt lat="42.46834" lon="2.78382">
        <ele>1267.5</ele>
        <time>2015-09-18T12:00:37Z</time>
      </trkpt>
      <trkpt lat="42.46837" lon="2.78392">
        <ele>1267.4</ele>
        <time>2015-09-18T12:00:38Z</time>
      </trkpt>
      <trkpt lat="42.4684" lon="2.78401">
        <ele>1267.3</ele>
        <time>2015-09-18T12:00:39Z</time>
      </trkpt>
      <trkpt lat="42.46843" lon="2.7841">
        <ele>1265.9</ele>
        <time>2015-09-18T12:00:40Z</time>
      </trkpt>
      <trkpt lat="42.46846" lon="2.78419">
        <ele>1265.9</ele>
        <time>2015-09-18T12:00:41Z</time>
      </trkpt>
      <trkpt lat="42.46849" lon="2.78429">
        <ele>1265.8</ele>
        <time>2015-09-18T12:00:42Z</time>
      </trkpt>
      <trkpt lat="42.46854" lon="2.78447">
        <ele>1267.1</ele>
        <time>2015-09-18T12:00:44Z</time>
      </trkpt>
      <trkpt lat="42.46856" lon="2.78456">
        <ele>1267.3</ele>
        <time>2015-09-18T12:00:45Z</time>
      </trkpt>
      <trkpt lat="42.46856" lon="2.78456">
        <ele>1266.3</ele>
        <time>2015-09-18T12:00:45Z</time>
      </trkpt>
      <trkpt lat="42.4686" lon="2.78473">
        <ele>1264.9</ele>
        <time>2015-09-18T12:00:47Z</time>
      </trkpt>
      <trkpt lat="42.46863" lon="2.78481">
        <ele>1263.9</ele>
        <time>2015-09-18T12:00:48Z</time>
      </trkpt>
      <trkpt lat="42.46867" lon="2.7849">
        <ele>1263.3</ele>
        <time>2015-09-18T12:00:49Z</time>
      </trkpt>
      <trkpt lat="42.46871" lon="2.78498">
        <ele>1263</ele>
        <time>2015-09-18T12:00:50Z</time>
      </trkpt>
      <trkpt lat="42.46874" lon="2.78507">
        <ele>1262.6</ele>
        <time>2015-09-18T12:00:51Z</time>
      </trkpt>
      <trkpt lat="42.46878" lon="2.78517">
        <ele>1262.1</ele>
        <time>2015-09-18T12:00:52Z</time>
      </trkpt>
      <trkpt lat="42.46881" lon="2.78526">
        <ele>1261.6</ele>
        <time>2015-09-18T12:00:53Z</time>
      </trkpt>
      <trkpt lat="42.46885" lon="2.78536">
        <ele>1261.7</ele>
        <time>2015-09-18T12:00:54Z</time>
      </trkpt>
      <trkpt lat="42.46889" lon="2.78547">
        <ele>1262.5</ele>
        <time>2015-09-18T12:00:55Z</time>
      </trkpt>
      <trkpt lat="42.46897" lon="2.78568">
        <ele>1263.1</ele>
        <time>2015-09-18T12:00:57Z</time>
      </trkpt>
      <trkpt lat="42.46901" lon="2.78577">
        <ele>1263.3</ele>
        <time>2015-09-18T12:00:58Z</time>
      </trkpt>
      <trkpt lat="42.46906" lon="2.78587">
        <ele>1262.9</ele>
        <time>2015-09-18T12:00:59Z</time>
      </trkpt>
      <trkpt lat="42.4691" lon="2.78595">
        <ele>1262.4</ele>
        <time>2015-09-18T12:01:00Z</time>
      </trkpt>
      <trkpt lat="42.46914" lon="2.78604">
        <ele>1261.9</ele>
        <time>2015-09-18T12:01:01Z</time>
      </trkpt>
      <trkpt lat="42.46919" lon="2.78612">
        <ele>1261.3</ele>
        <time>2015-09-18T12:01:02Z</time>
      </trkpt>
      <trkpt lat="42.46923" lon="2.7862">
        <ele>1260.6</ele>
        <time>2015-09-18T12:01:03Z</time>
      </trkpt>
      <trkpt lat="42.46927" lon="2.78628">
        <ele>1259.6</ele>
        <time>2015-09-18T12:01:04Z</time>
      </trkpt>
      <trkpt lat="42.46931" lon="2.78636">
        <ele>1257.9</ele>
        <time>2015-09-18T12:01:05Z</time>
      </trkpt>
      <trkpt lat="42.46934" lon="2.78645">
        <ele>1255.5</ele>
        <time>2015-09-18T12:01:06Z</time>
      </trkpt>
      <trkpt lat="42.46939" lon="2.78654">
        <ele>1252.7</ele>
        <time>2015-09-18T12:01:07Z</time>
      </trkpt>
      <trkpt lat="42.46944" lon="2.78664">
        <ele>1250.7</ele>
        <time>2015-09-18T12:01:08Z</time>
      </trkpt>
      <trkpt lat="42.46948" lon="2.78673">
        <ele>1249.5</ele>
        <time>2015-09-18T12:01:09Z</time>
      </trkpt>
      <trkpt lat="42.46953" lon="2.78682">
        <ele>1248.2</ele>
        <time>2015-09-18T12:01:10Z</time>
      </trkpt>
      <trkpt lat="42.46957" lon="2.7869">
        <ele>1246.4</ele>
        <time>2015-09-18T12:01:11Z</time>
      </trkpt>
      <trkpt lat="42.46957" lon="2.7869">
        <ele>1243.7</ele>
        <time>2015-09-18T12:01:11Z</time>
      </trkpt>
      <trkpt lat="42.46969" lon="2.78719">
        <ele>1238.4</ele>
        <time>2015-09-18T12:01:14Z</time>
      </trkpt>
      <trkpt lat="42.46973" lon="2.78729">
        <ele>1236.2</ele>
        <time>2015-09-18T12:01:15Z</time>
      </trkpt>
      <trkpt lat="42.46977" lon="2.78739">
        <ele>1234</ele>
        <time>2015-09-18T12:01:16Z</time>
      </trkpt>
      <trkpt lat="42.46981" lon="2.78749">
        <ele>1231.8</ele>
        <time>2015-09-18T12:01:17Z</time>
      </trkpt>
      <trkpt lat="42.46986" lon="2.78758">
        <ele>1229.8</ele>
        <time>2015-09-18T12:01:18Z</time>
      </trkpt>
      <trkpt lat="42.4699" lon="2.78767">
        <ele>1228.8</ele>
        <time>2015-09-18T12:01:19Z</time>
      </trkpt>
      <trkpt lat="42.46993" lon="2.78776">
        <ele>1228.2</ele>
        <time>2015-09-18T12:01:20Z</time>
      </trkpt>
      <trkpt lat="42.46996" lon="2.78786">
        <ele>1227.1</ele>
        <time>2015-09-18T12:01:21Z</time>
      </trkpt>
      <trkpt lat="42.46998" lon="2.78795">
        <ele>1225.7</ele>
        <time>2015-09-18T12:01:22Z</time>
      </trkpt>
      <trkpt lat="42.47001" lon="2.78803">
        <ele>1222.3</ele>
        <time>2015-09-18T12:01:23Z</time>
      </trkpt>
      <trkpt lat="42.47004" lon="2.78812">
        <ele>1220.7</ele>
        <time>2015-09-18T12:01:24Z</time>
      </trkpt>
      <trkpt lat="42.47004" lon="2.78812">
        <ele>1219.8</ele>
        <time>2015-09-18T12:01:24Z</time>
      </trkpt>
      <trkpt lat="42.47014" lon="2.78839">
        <ele>1220</ele>
        <time>2015-09-18T12:01:27Z</time>
      </trkpt>
      <trkpt lat="42.47016" lon="2.78847">
        <ele>1219.4</ele>
        <time>2015-09-18T12:01:28Z</time>
      </trkpt>
      <trkpt lat="42.47016" lon="2.78847">
        <ele>1218.9</ele>
        <time>2015-09-18T12:01:28Z</time>
      </trkpt>
      <trkpt lat="42.47021" lon="2.78862">
        <ele>1217.9</ele>
        <time>2015-09-18T12:01:30Z</time>
      </trkpt>
      <trkpt lat="42.47023" lon="2.78871">
        <ele>1216.8</ele>
        <time>2015-09-18T12:01:31Z</time>
      </trkpt>
      <trkpt lat="42.47026" lon="2.7888">
        <ele>1215.9</ele>
        <time>2015-09-18T12:01:32Z</time>
      </trkpt>
      <trkpt lat="42.47028" lon="2.78889">
        <ele>1215.2</ele>
        <time>2015-09-18T12:01:33Z</time>
      </trkpt>
      <trkpt lat="42.4703" lon="2.78898">
        <ele>1214.3</ele>
        <time>2015-09-18T12:01:34Z</time>
      </trkpt>
      <trkpt lat="42.47033" lon="2.78906">
        <ele>1213</ele>
        <time>2015-09-18T12:01:35Z</time>
      </trkpt>
      <trkpt lat="42.47033" lon="2.78906">
        <ele>1211.4</ele>
        <time>2015-09-18T12:01:35Z</time>
      </trkpt>
      <trkpt lat="42.4704" lon="2.78924">
        <ele>1209.9</ele>
        <time>2015-09-18T12:01:37Z</time>
      </trkpt>
      <trkpt lat="42.47043" lon="2.78933">
        <ele>1208.9</ele>
        <time>2015-09-18T12:01:38Z</time>
      </trkpt>
      <trkpt lat="42.47043" lon="2.78933">
        <ele>1207.9</ele>
        <time>2015-09-18T12:01:38Z</time>
      </trkpt>
      <trkpt lat="42.47051" lon="2.78952">
        <ele>1205.7</ele>
        <time>2015-09-18T12:01:40Z</time>
      </trkpt>
      <trkpt lat="42.47058" lon="2.78971">
        <ele>1204</ele>
        <time>2015-09-18T12:01:42Z</time>
      </trkpt>
      <trkpt lat="42.47061" lon="2.7898">
        <ele>1202.4</ele>
        <time>2015-09-18T12:01:43Z</time>
      </trkpt>
      <trkpt lat="42.47065" lon="2.78989">
        <ele>1200.8</ele>
        <time>2015-09-18T12:01:44Z</time>
      </trkpt>
      <trkpt lat="42.47069" lon="2.78999">
        <ele>1199.2</ele>
        <time>2015-09-18T12:01:45Z</time>
      </trkpt>
      <trkpt lat="42.47072" lon="2.7901">
        <ele>1197.4</ele>
        <time>2015-09-18T12:01:46Z</time>
      </trkpt>
      <trkpt lat="42.47076" lon="2.7902">
        <ele>1195.6</ele>
        <time>2015-09-18T12:01:47Z</time>
      </trkpt>
      <trkpt lat="42.47079" lon="2.7903">
        <ele>1193.9</ele>
        <time>2015-09-18T12:01:48Z</time>
      </trkpt>
      <trkpt lat="42.47083" lon="2.79039">
        <ele>1192.1</ele>
        <time>2015-09-18T12:01:49Z</time>
      </trkpt>
      <trkpt lat="42.47086" lon="2.7905">
        <ele>1190.2</ele>
        <time>2015-09-18T12:01:50Z</time>
      </trkpt>
      <trkpt lat="42.4709" lon="2.7906">
        <ele>1188.3</ele>
        <time>2015-09-18T12:01:51Z</time>
      </trkpt>
      <trkpt lat="42.47093" lon="2.79071">
        <ele>1188.3</ele>
        <time>2015-09-18T12:01:52Z</time>
      </trkpt>
      <trkpt lat="42.47095" lon="2.79082">
        <ele>1181.1</ele>
        <time>2015-09-18T12:01:53Z</time>
      </trkpt>
      <trkpt lat="42.47095" lon="2.79082">
        <ele>1181.1</ele>
        <time>2015-09-18T12:01:53Z</time>
      </trkpt>
      <trkpt lat="42.47095" lon="2.79082">
        <ele>1176.6</ele>
        <time>2015-09-18T12:01:53Z</time>
      </trkpt>
      <trkpt lat="42.47106" lon="2.79127">
        <ele>1174.6</ele>
        <time>2015-09-18T12:01:57Z</time>
      </trkpt>
      <trkpt lat="42.47106" lon="2.79139">
        <ele>1174.6</ele>
        <time>2015-09-18T12:01:58Z</time>
      </trkpt>
      <trkpt lat="42.47106" lon="2.79151">
        <ele>1169.6</ele>
        <time>2015-09-18T12:01:59Z</time>
      </trkpt>
      <trkpt lat="42.47107" lon="2.79162">
        <ele>1166.7</ele>
        <time>2015-09-18T12:02:00Z</time>
      </trkpt>
      <trkpt lat="42.47109" lon="2.79172">
        <ele>1163.8</ele>
        <time>2015-09-18T12:02:01Z</time>
      </trkpt>
      <trkpt lat="42.47109" lon="2.79172">
        <ele>1160.9</ele>
        <time>2015-09-18T12:02:01Z</time>
      </trkpt>
      <trkpt lat="42.47109" lon="2.79172">
        <ele>1158.5</ele>
        <time>2015-09-18T12:02:01Z</time>
      </trkpt>
      <trkpt lat="42.47115" lon="2.79201">
        <ele>1156.5</ele>
        <time>2015-09-18T12:02:04Z</time>
      </trkpt>
      <trkpt lat="42.47116" lon="2.79209">
        <ele>1155.3</ele>
        <time>2015-09-18T12:02:05Z</time>
      </trkpt>
      <trkpt lat="42.47117" lon="2.79215">
        <ele>1155.3</ele>
        <time>2015-09-18T12:02:06Z</time>
      </trkpt>
      <trkpt lat="42.47118" lon="2.7922">
        <ele>1149.6</ele>
        <time>2015-09-18T12:02:07Z</time>
      </trkpt>
      <trkpt lat="42.4712" lon="2.79227">
        <ele>1146.3</ele>
        <time>2015-09-18T12:02:08Z</time>
      </trkpt>
      <trkpt lat="42.47122" lon="2.79235">
        <ele>1140.5</ele>
        <time>2015-09-18T12:02:09Z</time>
      </trkpt>
      <trkpt lat="42.47122" lon="2.79235">
        <ele>1137.9</ele>
        <time>2015-09-18T12:02:09Z</time>
      </trkpt>
      <trkpt lat="42.47127" lon="2.79251">
        <ele>1135.3</ele>
        <time>2015-09-18T12:02:11Z</time>
      </trkpt>
      <trkpt lat="42.47134" lon="2.79265">
        <ele>1132.8</ele>
        <time>2015-09-18T12:02:13Z</time>
      </trkpt>
      <trkpt lat="42.47138" lon="2.79272">
        <ele>1130.5</ele>
        <time>2015-09-18T12:02:14Z</time>
      </trkpt>
      <trkpt lat="42.47143" lon="2.79278">
        <ele>1128.7</ele>
        <time>2015-09-18T12:02:15Z</time>
      </trkpt>
      <trkpt lat="42.47147" lon="2.79284">
        <ele>1126.7</ele>
        <time>2015-09-18T12:02:16Z</time>
      </trkpt>
      <trkpt lat="42.47147" lon="2.79284">
        <ele>1126.2</ele>
        <time>2015-09-18T12:02:16Z</time>
      </trkpt>
      <trkpt lat="42.47154" lon="2.79295">
        <ele>1122.6</ele>
        <time>2015-09-18T12:02:18Z</time>
      </trkpt>
      <trkpt lat="42.47157" lon="2.793">
        <ele>1118.4</ele>
        <time>2015-09-18T12:02:19Z</time>
      </trkpt>
      <trkpt lat="42.47161" lon="2.79306">
        <ele>1114.1</ele>
        <time>2015-09-18T12:02:20Z</time>
      </trkpt>
      <trkpt lat="42.47165" lon="2.79311">
        <ele>1110.4</ele>
        <time>2015-09-18T12:02:21Z</time>
      </trkpt>
      <trkpt lat="42.47168" lon="2.79315">
        <ele>1106.8</ele>
        <time>2015-09-18T12:02:22Z</time>
      </trkpt>
      <trkpt lat="42.47172" lon="2.79318">
        <ele>1105.1</ele>
        <time>2015-09-18T12:02:23Z</time>
      </trkpt>
      <trkpt lat="42.47179" lon="2.79321">
        <ele>1103.4</ele>
        <time>2015-09-18T12:02:25Z</time>
      </trkpt>
      <trkpt lat="42.47179" lon="2.79321">
        <ele>1103.4</ele>
        <time>2015-09-18T12:02:25Z</time>
      </trkpt>
      <trkpt lat="42.47184" lon="2.79324">
        <ele>1102.4</ele>
        <time>2015-09-18T12:02:27Z</time>
      </trkpt>
      <trkpt lat="42.47186" lon="2.79324">
        <ele>1101.5</ele>
        <time>2015-09-18T12:02:28Z</time>
      </trkpt>
      <trkpt lat="42.47187" lon="2.79325">
        <ele>1101.5</ele>
        <time>2015-09-18T12:02:29Z</time>
      </trkpt>
      <trkpt lat="42.47188" lon="2.79325">
        <ele>1098.2</ele>
        <time>2015-09-18T12:02:30Z</time>
      </trkpt>
      <trkpt lat="42.4719" lon="2.79327">
        <ele>1097.5</ele>
        <time>2015-09-18T12:02:31Z</time>
      </trkpt>
      <trkpt lat="42.47191" lon="2.79329">
        <ele>1094.8</ele>
        <time>2015-09-18T12:02:32Z</time>
      </trkpt>
      <trkpt lat="42.47193" lon="2.79331">
        <ele>1092</ele>
        <time>2015-09-18T12:02:33Z</time>
      </trkpt>
      <trkpt lat="42.47195" lon="2.79332">
        <ele>1089.7</ele>
        <time>2015-09-18T12:02:34Z</time>
      </trkpt>
      <trkpt lat="42.47198" lon="2.79335">
        <ele>1087.7</ele>
        <time>2015-09-18T12:02:35Z</time>
      </trkpt>
      <trkpt lat="42.472" lon="2.79338">
        <ele>1085.7</ele>
        <time>2015-09-18T12:02:36Z</time>
      </trkpt>
      <trkpt lat="42.47202" lon="2.79341">
        <ele>1086</ele>
        <time>2015-09-18T12:02:37Z</time>
      </trkpt>
      <trkpt lat="42.47203" lon="2.79344">
        <ele>1086</ele>
        <time>2015-09-18T12:02:38Z</time>
      </trkpt>
      <trkpt lat="42.47203" lon="2.79346">
        <ele>1085.2</ele>
        <time>2015-09-18T12:02:39Z</time>
      </trkpt>
      <trkpt lat="42.47203" lon="2.79348">
        <ele>1085.3</ele>
        <time>2015-09-18T12:02:40Z</time>
      </trkpt>
      <trkpt lat="42.47204" lon="2.79352">
        <ele>1084</ele>
        <time>2015-09-18T12:02:42Z</time>
      </trkpt>
      <trkpt lat="42.47205" lon="2.79354">
        <ele>1081.5</ele>
        <time>2015-09-18T12:02:43Z</time>
      </trkpt>
      <trkpt lat="42.47207" lon="2.79357">
        <ele>1079.2</ele>
        <time>2015-09-18T12:02:44Z</time>
      </trkpt>
      <trkpt lat="42.47209" lon="2.79359">
        <ele>1077.2</ele>
        <time>2015-09-18T12:02:45Z</time>
      </trkpt>
      <trkpt lat="42.47209" lon="2.79359">
        <ele>1076</ele>
        <time>2015-09-18T12:02:45Z</time>
      </trkpt>
      <trkpt lat="42.47214" lon="2.79358">
        <ele>1075.3</ele>
        <time>2015-09-18T12:02:47Z</time>
      </trkpt>
      <trkpt lat="42.47216" lon="2.79359">
        <ele>1074.9</ele>
        <time>2015-09-18T12:02:48Z</time>
      </trkpt>
      <trkpt lat="42.47217" lon="2.79361">
        <ele>1074.6</ele>
        <time>2015-09-18T12:02:49Z</time>
      </trkpt>
      <trkpt lat="42.47217" lon="2.79364">
        <ele>1074.1</ele>
        <time>2015-09-18T12:02:50Z</time>
      </trkpt>
      <trkpt lat="42.47217" lon="2.79368">
        <ele>1072.9</ele>
        <time>2015-09-18T12:02:51Z</time>
      </trkpt>
      <trkpt lat="42.47218" lon="2.79371">
        <ele>1071.7</ele>
        <time>2015-09-18T12:02:52Z</time>
      </trkpt>
      <trkpt lat="42.47221" lon="2.79375">
        <ele>1071.9</ele>
        <time>2015-09-18T12:02:53Z</time>
      </trkpt>
      <trkpt lat="42.47223" lon="2.79377">
        <ele>1072.9</ele>
        <time>2015-09-18T12:02:54Z</time>
      </trkpt>
      <trkpt lat="42.47224" lon="2.7938">
        <ele>1073.8</ele>
        <time>2015-09-18T12:02:55Z</time>
      </trkpt>
      <trkpt lat="42.47224" lon="2.7938">
        <ele>1074.1</ele>
        <time>2015-09-18T12:02:55Z</time>
      </trkpt>
      <trkpt lat="42.47222" lon="2.79386">
        <ele>1074.2</ele>
        <time>2015-09-18T12:02:57Z</time>
      </trkpt>
      <trkpt lat="42.47219" lon="2.79389">
        <ele>1072.3</ele>
        <time>2015-09-18T12:02:58Z</time>
      </trkpt>
      <trkpt lat="42.47216" lon="2.79396">
        <ele>1070.4</ele>
        <time>2015-09-18T12:03:00Z</time>
      </trkpt>
      <trkpt lat="42.47216" lon="2.79396">
        <ele>1068.4</ele>
        <time>2015-09-18T12:03:00Z</time>
      </trkpt>
      <trkpt lat="42.47214" lon="2.79404">
        <ele>1066.3</ele>
        <time>2015-09-18T12:03:02Z</time>
      </trkpt>
      <trkpt lat="42.47216" lon="2.79405">
        <ele>1063.8</ele>
        <time>2015-09-18T12:03:03Z</time>
      </trkpt>
      <trkpt lat="42.47216" lon="2.79405">
        <ele>1062</ele>
        <time>2015-09-18T12:03:03Z</time>
      </trkpt>
      <trkpt lat="42.47222" lon="2.79399">
        <ele>1062</ele>
        <time>2015-09-18T12:03:05Z</time>
      </trkpt>
      <trkpt lat="42.47225" lon="2.79395">
        <ele>1061.4</ele>
        <time>2015-09-18T12:03:06Z</time>
      </trkpt>
      <trkpt lat="42.47227" lon="2.7939">
        <ele>1061.9</ele>
        <time>2015-09-18T12:03:07Z</time>
      </trkpt>
      <trkpt lat="42.47228" lon="2.79386">
        <ele>1061.8</ele>
        <time>2015-09-18T12:03:08Z</time>
      </trkpt>
      <trkpt lat="42.4723" lon="2.79382">
        <ele>1060.9</ele>
        <time>2015-09-18T12:03:09Z</time>
      </trkpt>
      <trkpt lat="42.47232" lon="2.79376">
        <ele>1059.8</ele>
        <time>2015-09-18T12:03:10Z</time>
      </trkpt>
      <trkpt lat="42.47235" lon="2.79371">
        <ele>1058.8</ele>
        <time>2015-09-18T12:03:11Z</time>
      </trkpt>
      <trkpt lat="42.47241" lon="2.79363">
        <ele>1057.8</ele>
        <time>2015-09-18T12:03:13Z</time>
      </trkpt>
      <trkpt lat="42.47244" lon="2.79359">
        <ele>1055.2</ele>
        <time>2015-09-18T12:03:14Z</time>
      </trkpt>
      <trkpt lat="42.47246" lon="2.79355">
        <ele>1053.1</ele>
        <time>2015-09-18T12:03:15Z</time>
      </trkpt>
      <trkpt lat="42.47246" lon="2.79355">
        <ele>1050.9</ele>
        <time>2015-09-18T12:03:15Z</time>
      </trkpt>
      <trkpt lat="42.47254" lon="2.79348">
        <ele>1049.7</ele>
        <time>2015-09-18T12:03:17Z</time>
      </trkpt>
      <trkpt lat="42.47258" lon="2.79346">
        <ele>1049.3</ele>
        <time>2015-09-18T12:03:18Z</time>
      </trkpt>
      <trkpt lat="42.47263" lon="2.79344">
        <ele>1049.3</ele>
        <time>2015-09-18T12:03:19Z</time>
      </trkpt>
      <trkpt lat="42.47267" lon="2.79341">
        <ele>1049.2</ele>
        <time>2015-09-18T12:03:20Z</time>
      </trkpt>
      <trkpt lat="42.4727" lon="2.7934">
        <ele>1049</ele>
        <time>2015-09-18T12:03:21Z</time>
      </trkpt>
      <trkpt lat="42.47274" lon="2.7934">
        <ele>1049.4</ele>
        <time>2015-09-18T12:03:22Z</time>
      </trkpt>
      <trkpt lat="42.47278" lon="2.79341">
        <ele>1050</ele>
        <time>2015-09-18T12:03:23Z</time>
      </trkpt>
      <trkpt lat="42.47278" lon="2.79341">
        <ele>1051.4</ele>
        <time>2015-09-18T12:03:23Z</time>
      </trkpt>
      <trkpt lat="42.47278" lon="2.79341">
        <ele>1052.6</ele>
        <time>2015-09-18T12:03:23Z</time>
      </trkpt>
      <trkpt lat="42.47287" lon="2.79341">
        <ele>1052.6</ele>
        <time>2015-09-18T12:03:26Z</time>
      </trkpt>
      <trkpt lat="42.47288" lon="2.79342">
        <ele>1053.2</ele>
        <time>2015-09-18T12:03:27Z</time>
      </trkpt>
      <trkpt lat="42.4729" lon="2.79345">
        <ele>1054.4</ele>
        <time>2015-09-18T12:03:28Z</time>
      </trkpt>
      <trkpt lat="42.47292" lon="2.79353">
        <ele>1056.1</ele>
        <time>2015-09-18T12:03:30Z</time>
      </trkpt>
      <trkpt lat="42.47292" lon="2.79353">
        <ele>1058.1</ele>
        <time>2015-09-18T12:03:30Z</time>
      </trkpt>
      <trkpt lat="42.4729" lon="2.79363">
        <ele>1059.8</ele>
        <time>2015-09-18T12:03:32Z</time>
      </trkpt>
      <trkpt lat="42.47287" lon="2.79368">
        <ele>1061.3</ele>
        <time>2015-09-18T12:03:33Z</time>
      </trkpt>
      <trkpt lat="42.47284" lon="2.79373">
        <ele>1062</ele>
        <time>2015-09-18T12:03:34Z</time>
      </trkpt>
      <trkpt lat="42.47278" lon="2.79378">
        <ele>1062.4</ele>
        <time>2015-09-18T12:03:35Z</time>
      </trkpt>
      <trkpt lat="42.47271" lon="2.79384">
        <ele>1062.8</ele>
        <time>2015-09-18T12:03:36Z</time>
      </trkpt>
      <trkpt lat="42.47261" lon="2.79388">
        <ele>1063.6</ele>
        <time>2015-09-18T12:03:37Z</time>
      </trkpt>
      <trkpt lat="42.47251" lon="2.79391">
        <ele>1064.7</ele>
        <time>2015-09-18T12:03:38Z</time>
      </trkpt>
      <trkpt lat="42.4724" lon="2.79391">
        <ele>1065.5</ele>
        <time>2015-09-18T12:03:39Z</time>
      </trkpt>
      <trkpt lat="42.47229" lon="2.79387">
        <ele>1065.4</ele>
        <time>2015-09-18T12:03:40Z</time>
      </trkpt>
      <trkpt lat="42.47219" lon="2.79381">
        <ele>1065.8</ele>
        <time>2015-09-18T12:03:41Z</time>
      </trkpt>
      <trkpt lat="42.47209" lon="2.79372">
        <ele>1066.1</ele>
        <time>2015-09-18T12:03:42Z</time>
      </trkpt>
      <trkpt lat="42.47209" lon="2.79372">
        <ele>1065</ele>
        <time>2015-09-18T12:03:42Z</time>
      </trkpt>
      <trkpt lat="42.47193" lon="2.79334">
        <ele>1064</ele>
        <time>2015-09-18T12:03:45Z</time>
      </trkpt>
      <trkpt lat="42.47193" lon="2.79334">
        <ele>1064.2</ele>
        <time>2015-09-18T12:03:45Z</time>
      </trkpt>
      <trkpt lat="42.47191" lon="2.79307">
        <ele>1064.2</ele>
        <time>2015-09-18T12:03:47Z</time>
      </trkpt>
      <trkpt lat="42.47193" lon="2.79295">
        <ele>1066</ele>
        <time>2015-09-18T12:03:48Z</time>
      </trkpt>
      <trkpt lat="42.47195" lon="2.79286">
        <ele>1067.2</ele>
        <time>2015-09-18T12:03:49Z</time>
      </trkpt>
      <trkpt lat="42.47198" lon="2.79278">
        <ele>1068.1</ele>
        <time>2015-09-18T12:03:50Z</time>
      </trkpt>
      <trkpt lat="42.47201" lon="2.79271">
        <ele>1068.8</ele>
        <time>2015-09-18T12:03:51Z</time>
      </trkpt>
      <trkpt lat="42.47204" lon="2.79264">
        <ele>1069.3</ele>
        <time>2015-09-18T12:03:52Z</time>
      </trkpt>
      <trkpt lat="42.47208" lon="2.79259">
        <ele>1069.9</ele>
        <time>2015-09-18T12:03:53Z</time>
      </trkpt>
      <trkpt lat="42.47212" lon="2.79255">
        <ele>1070.1</ele>
        <time>2015-09-18T12:03:54Z</time>
      </trkpt>
      <trkpt lat="42.47215" lon="2.79253">
        <ele>1068.3</ele>
        <time>2015-09-18T12:03:55Z</time>
      </trkpt>
      <trkpt lat="42.47218" lon="2.79253">
        <ele>1067</ele>
        <time>2015-09-18T12:03:56Z</time>
      </trkpt>
      <trkpt lat="42.47226" lon="2.79261">
        <ele>1066.5</ele>
        <time>2015-09-18T12:03:58Z</time>
      </trkpt>
      <trkpt lat="42.4723" lon="2.79269">
        <ele>1067.5</ele>
        <time>2015-09-18T12:03:59Z</time>
      </trkpt>
      <trkpt lat="42.4723" lon="2.79269">
        <ele>1069.2</ele>
        <time>2015-09-18T12:03:59Z</time>
      </trkpt>
      <trkpt lat="42.4723" lon="2.79269">
        <ele>1071.7</ele>
        <time>2015-09-18T12:03:59Z</time>
      </trkpt>
      <trkpt lat="42.47242" lon="2.79284">
        <ele>1073.9</ele>
        <time>2015-09-18T12:04:02Z</time>
      </trkpt>
      <trkpt lat="42.47246" lon="2.79285">
        <ele>1075.7</ele>
        <time>2015-09-18T12:04:03Z</time>
      </trkpt>
      <trkpt lat="42.47249" lon="2.79286">
        <ele>1076.5</ele>
        <time>2015-09-18T12:04:04Z</time>
      </trkpt>
      <trkpt lat="42.47252" lon="2.79289">
        <ele>1077</ele>
        <time>2015-09-18T12:04:05Z</time>
      </trkpt>
      <trkpt lat="42.47256" lon="2.79294">
        <ele>1077.7</ele>
        <time>2015-09-18T12:04:06Z</time>
      </trkpt>
      <trkpt lat="42.4726" lon="2.79298">
        <ele>1079.2</ele>
        <time>2015-09-18T12:04:07Z</time>
      </trkpt>
      <trkpt lat="42.47263" lon="2.79301">
        <ele>1081.5</ele>
        <time>2015-09-18T12:04:08Z</time>
      </trkpt>
      <trkpt lat="42.47265" lon="2.79303">
        <ele>1083.3</ele>
        <time>2015-09-18T12:04:09Z</time>
      </trkpt>
      <trkpt lat="42.47267" lon="2.79307">
        <ele>1084</ele>
        <time>2015-09-18T12:04:10Z</time>
      </trkpt>
      <trkpt lat="42.47269" lon="2.79311">
        <ele>1084.2</ele>
        <time>2015-09-18T12:04:11Z</time>
      </trkpt>
      <trkpt lat="42.47271" lon="2.79317">
        <ele>1086.2</ele>
        <time>2015-09-18T12:04:12Z</time>
      </trkpt>
      <trkpt lat="42.47271" lon="2.79317">
        <ele>1086.2</ele>
        <time>2015-09-18T12:04:12Z</time>
      </trkpt>
      <trkpt lat="42.47273" lon="2.79335">
        <ele>1089.5</ele>
        <time>2015-09-18T12:04:15Z</time>
      </trkpt>
      <trkpt lat="42.47273" lon="2.79335">
        <ele>1091.3</ele>
        <time>2015-09-18T12:04:15Z</time>
      </trkpt>
      <trkpt lat="42.47266" lon="2.79349">
        <ele>1093.3</ele>
        <time>2015-09-18T12:04:17Z</time>
      </trkpt>
      <trkpt lat="42.47259" lon="2.79354">
        <ele>1096.3</ele>
        <time>2015-09-18T12:04:18Z</time>
      </trkpt>
      <trkpt lat="42.47252" lon="2.79356">
        <ele>1097.9</ele>
        <time>2015-09-18T12:04:19Z</time>
      </trkpt>
      <trkpt lat="42.47242" lon="2.79356">
        <ele>1099.6</ele>
        <time>2015-09-18T12:04:20Z</time>
      </trkpt>
      <trkpt lat="42.47231" lon="2.79355">
        <ele>1101.6</ele>
        <time>2015-09-18T12:04:21Z</time>
      </trkpt>
      <trkpt lat="42.4722" lon="2.79352">
        <ele>1103.8</ele>
        <time>2015-09-18T12:04:22Z</time>
      </trkpt>
      <trkpt lat="42.47209" lon="2.79348">
        <ele>1106.5</ele>
        <time>2015-09-18T12:04:23Z</time>
      </trkpt>
      <trkpt lat="42.47198" lon="2.79341">
        <ele>1107.8</ele>
        <time>2015-09-18T12:04:24Z</time>
      </trkpt>
      <trkpt lat="42.4719" lon="2.7933">
        <ele>1109.7</ele>
        <time>2015-09-18T12:04:25Z</time>
      </trkpt>
      <trkpt lat="42.47183" lon="2.79299">
        <ele>1110.9</ele>
        <time>2015-09-18T12:04:27Z</time>
      </trkpt>
      <trkpt lat="42.47182" lon="2.79283">
        <ele>1112.6</ele>
        <time>2015-09-18T12:04:28Z</time>
      </trkpt>
      <trkpt lat="42.47183" lon="2.79269">
        <ele>1114.7</ele>
        <time>2015-09-18T12:04:29Z</time>
      </trkpt>
      <trkpt lat="42.47187" lon="2.79259">
        <ele>1116.1</ele>
        <time>2015-09-18T12:04:30Z</time>
      </trkpt>
      <trkpt lat="42.47191" lon="2.79252">
        <ele>1117.4</ele>
        <time>2015-09-18T12:04:31Z</time>
      </trkpt>
      <trkpt lat="42.47196" lon="2.79249">
        <ele>1117.4</ele>
        <time>2015-09-18T12:04:32Z</time>
      </trkpt>
      <trkpt lat="42.47201" lon="2.79249">
        <ele>1119.4</ele>
        <time>2015-09-18T12:04:33Z</time>
      </trkpt>
      <trkpt lat="42.47205" lon="2.79254">
        <ele>1120.1</ele>
        <time>2015-09-18T12:04:34Z</time>
      </trkpt>
      <trkpt lat="42.47205" lon="2.79261">
        <ele>1121.1</ele>
        <time>2015-09-18T12:04:35Z</time>
      </trkpt>
      <trkpt lat="42.47202" lon="2.79269">
        <ele>1121.5</ele>
        <time>2015-09-18T12:04:36Z</time>
      </trkpt>
      <trkpt lat="42.47195" lon="2.79277">
        <ele>1122.7</ele>
        <time>2015-09-18T12:04:37Z</time>
      </trkpt>
      <trkpt lat="42.47186" lon="2.79282">
        <ele>1125.3</ele>
        <time>2015-09-18T12:04:38Z</time>
      </trkpt>
      <trkpt lat="42.47175" lon="2.79281">
        <ele>1127.5</ele>
        <time>2015-09-18T12:04:39Z</time>
      </trkpt>
      <trkpt lat="42.47164" lon="2.79276">
        <ele>1128.7</ele>
        <time>2015-09-18T12:04:40Z</time>
      </trkpt>
      <trkpt lat="42.47154" lon="2.79266">
        <ele>1131.8</ele>
        <time>2015-09-18T12:04:41Z</time>
      </trkpt>
      <trkpt lat="42.47144" lon="2.79253">
        <ele>1133.9</ele>
        <time>2015-09-18T12:04:42Z</time>
      </trkpt>
      <trkpt lat="42.47129" lon="2.79223">
        <ele>1137.5</ele>
        <time>2015-09-18T12:04:44Z</time>
      </trkpt>
      <trkpt lat="42.47125" lon="2.79208">
        <ele>1140.8</ele>
        <time>2015-09-18T12:04:45Z</time>
      </trkpt>
      <trkpt lat="42.47125" lon="2.79208">
        <ele>1142.9</ele>
        <time>2015-09-18T12:04:45Z</time>
      </trkpt>
      <trkpt lat="42.47127" lon="2.79188">
        <ele>1143.8</ele>
        <time>2015-09-18T12:04:47Z</time>
      </trkpt>
      <trkpt lat="42.47132" lon="2.7918">
        <ele>1143.9</ele>
        <time>2015-09-18T12:04:48Z</time>
      </trkpt>
      <trkpt lat="42.47137" lon="2.79173">
        <ele>1144.2</ele>
        <time>2015-09-18T12:04:49Z</time>
      </trkpt>
      <trkpt lat="42.47143" lon="2.79167">
        <ele>1144.9</ele>
        <time>2015-09-18T12:04:50Z</time>
      </trkpt>
      <trkpt lat="42.47149" lon="2.79163">
        <ele>1144.6</ele>
        <time>2015-09-18T12:04:51Z</time>
      </trkpt>
      <trkpt lat="42.47155" lon="2.7916">
        <ele>1145.5</ele>
        <time>2015-09-18T12:04:52Z</time>
      </trkpt>
      <trkpt lat="42.4716" lon="2.79159">
        <ele>1146.4</ele>
        <time>2015-09-18T12:04:53Z</time>
      </trkpt>
      <trkpt lat="42.47166" lon="2.79158">
        <ele>1147.5</ele>
        <time>2015-09-18T12:04:54Z</time>
      </trkpt>
      <trkpt lat="42.47172" lon="2.79157">
        <ele>1148.4</ele>
        <time>2015-09-18T12:04:55Z</time>
      </trkpt>
      <trkpt lat="42.47178" lon="2.79155">
        <ele>1148.8</ele>
        <time>2015-09-18T12:04:56Z</time>
      </trkpt>
      <trkpt lat="42.47185" lon="2.79155">
        <ele>1149.3</ele>
        <time>2015-09-18T12:04:57Z</time>
      </trkpt>
      <trkpt lat="42.47191" lon="2.79154">
        <ele>1150.2</ele>
        <time>2015-09-18T12:04:58Z</time>
      </trkpt>
      <trkpt lat="42.47191" lon="2.79154">
        <ele>1150.2</ele>
        <time>2015-09-18T12:04:58Z</time>
      </trkpt>
      <trkpt lat="42.47191" lon="2.79154">
        <ele>1151</ele>
        <time>2015-09-18T12:04:58Z</time>
      </trkpt>
      <trkpt lat="42.47211" lon="2.79164">
        <ele>1151.5</ele>
        <time>2015-09-18T12:05:02Z</time>
      </trkpt>
      <trkpt lat="42.47214" lon="2.79173">
        <ele>1152</ele>
        <time>2015-09-18T12:05:03Z</time>
      </trkpt>
      <trkpt lat="42.47214" lon="2.79182">
        <ele>1153.1</ele>
        <time>2015-09-18T12:05:04Z</time>
      </trkpt>
      <trkpt lat="42.47212" lon="2.79191">
        <ele>1155.1</ele>
        <time>2015-09-18T12:05:05Z</time>
      </trkpt>
      <trkpt lat="42.47209" lon="2.79197">
        <ele>1157.1</ele>
        <time>2015-09-18T12:05:06Z</time>
      </trkpt>
      <trkpt lat="42.47203" lon="2.79201">
        <ele>1158.3</ele>
        <time>2015-09-18T12:05:07Z</time>
      </trkpt>
      <trkpt lat="42.47195" lon="2.79202">
        <ele>1158.2</ele>
        <time>2015-09-18T12:05:08Z</time>
      </trkpt>
      <trkpt lat="42.47185" lon="2.79199">
        <ele>1158.3</ele>
        <time>2015-09-18T12:05:09Z</time>
      </trkpt>
      <trkpt lat="42.47174" lon="2.79193">
        <ele>1159.4</ele>
        <time>2015-09-18T12:05:10Z</time>
      </trkpt>
      <trkpt lat="42.47165" lon="2.79182">
        <ele>1160.9</ele>
        <time>2015-09-18T12:05:11Z</time>
      </trkpt>
      <trkpt lat="42.4716" lon="2.79168">
        <ele>1163.6</ele>
        <time>2015-09-18T12:05:12Z</time>
      </trkpt>
      <trkpt lat="42.47157" lon="2.79153">
        <ele>1165.1</ele>
        <time>2015-09-18T12:05:13Z</time>
      </trkpt>
      <trkpt lat="42.47156" lon="2.79126">
        <ele>1166.8</ele>
        <time>2015-09-18T12:05:15Z</time>
      </trkpt>
      <trkpt lat="42.47156" lon="2.79126">
        <ele>1167.7</ele>
        <time>2015-09-18T12:05:15Z</time>
      </trkpt>
      <trkpt lat="42.4716" lon="2.79102">
        <ele>1168.8</ele>
        <time>2015-09-18T12:05:17Z</time>
      </trkpt>
      <trkpt lat="42.47163" lon="2.79091">
        <ele>1169.1</ele>
        <time>2015-09-18T12:05:18Z</time>
      </trkpt>
      <trkpt lat="42.47168" lon="2.79081">
        <ele>1169.8</ele>
        <time>2015-09-18T12:05:19Z</time>
      </trkpt>
      <trkpt lat="42.47174" lon="2.79072">
        <ele>1171.1</ele>
        <time>2015-09-18T12:05:20Z</time>
      </trkpt>
      <trkpt lat="42.47179" lon="2.79065">
        <ele>1172.4</ele>
        <time>2015-09-18T12:05:21Z</time>
      </trkpt>
      <trkpt lat="42.47184" lon="2.7906">
        <ele>1173.5</ele>
        <time>2015-09-18T12:05:22Z</time>
      </trkpt>
      <trkpt lat="42.47189" lon="2.79055">
        <ele>1174.4</ele>
        <time>2015-09-18T12:05:23Z</time>
      </trkpt>
      <trkpt lat="42.47196" lon="2.79051">
        <ele>1175.4</ele>
        <time>2015-09-18T12:05:24Z</time>
      </trkpt>
      <trkpt lat="42.47202" lon="2.79048">
        <ele>1176.8</ele>
        <time>2015-09-18T12:05:25Z</time>
      </trkpt>
      <trkpt lat="42.47208" lon="2.79046">
        <ele>1178</ele>
        <time>2015-09-18T12:05:26Z</time>
      </trkpt>
      <trkpt lat="42.47213" lon="2.79046">
        <ele>1178.5</ele>
        <time>2015-09-18T12:05:27Z</time>
      </trkpt>
      <trkpt lat="42.47217" lon="2.79049">
        <ele>1178.5</ele>
        <time>2015-09-18T12:05:28Z</time>
      </trkpt>
      <trkpt lat="42.47221" lon="2.79054">
        <ele>1179</ele>
        <time>2015-09-18T12:05:29Z</time>
      </trkpt>
      <trkpt lat="42.47221" lon="2.79054">
        <ele>1180</ele>
        <time>2015-09-18T12:05:29Z</time>
      </trkpt>
      <trkpt lat="42.47237" lon="2.79071">
        <ele>1182</ele>
        <time>2015-09-18T12:05:32Z</time>
      </trkpt>
      <trkpt lat="42.47237" lon="2.79071">
        <ele>1184</ele>
        <time>2015-09-18T12:05:32Z</time>
      </trkpt>
      <trkpt lat="42.47249" lon="2.79075">
        <ele>1186.1</ele>
        <time>2015-09-18T12:05:34Z</time>
      </trkpt>
      <trkpt lat="42.47254" lon="2.79079">
        <ele>1187.6</ele>
        <time>2015-09-18T12:05:35Z</time>
      </trkpt>
      <trkpt lat="42.47259" lon="2.79083">
        <ele>1189.1</ele>
        <time>2015-09-18T12:05:36Z</time>
      </trkpt>
      <trkpt lat="42.47262" lon="2.79089">
        <ele>1190.3</ele>
        <time>2015-09-18T12:05:37Z</time>
      </trkpt>
      <trkpt lat="42.47266" lon="2.79094">
        <ele>1191.3</ele>
        <time>2015-09-18T12:05:38Z</time>
      </trkpt>
      <trkpt lat="42.4727" lon="2.791">
        <ele>1191.8</ele>
        <time>2015-09-18T12:05:39Z</time>
      </trkpt>
      <trkpt lat="42.47275" lon="2.79107">
        <ele>1192.8</ele>
        <time>2015-09-18T12:05:40Z</time>
      </trkpt>
      <trkpt lat="42.47275" lon="2.79107">
        <ele>1196.5</ele>
        <time>2015-09-18T12:05:40Z</time>
      </trkpt>
      <trkpt lat="42.47275" lon="2.79107">
        <ele>1198.5</ele>
        <time>2015-09-18T12:05:40Z</time>
      </trkpt>
      <trkpt lat="42.47297" lon="2.79133">
        <ele>1200.2</ele>
        <time>2015-09-18T12:05:44Z</time>
      </trkpt>
      <trkpt lat="42.47302" lon="2.7914">
        <ele>1201.9</ele>
        <time>2015-09-18T12:05:45Z</time>
      </trkpt>
      <trkpt lat="42.47302" lon="2.7914">
        <ele>1203.3</ele>
        <time>2015-09-18T12:05:45Z</time>
      </trkpt>
      <trkpt lat="42.4731" lon="2.79156">
        <ele>1204.3</ele>
        <time>2015-09-18T12:05:47Z</time>
      </trkpt>
      <trkpt lat="42.47314" lon="2.79164">
        <ele>1205.1</ele>
        <time>2015-09-18T12:05:48Z</time>
      </trkpt>
      <trkpt lat="42.47319" lon="2.79171">
        <ele>1205.7</ele>
        <time>2015-09-18T12:05:49Z</time>
      </trkpt>
      <trkpt lat="42.47319" lon="2.79171">
        <ele>1206.3</ele>
        <time>2015-09-18T12:05:49Z</time>
      </trkpt>
      <trkpt lat="42.47328" lon="2.79184">
        <ele>1206.6</ele>
        <time>2015-09-18T12:05:51Z</time>
      </trkpt>
      <trkpt lat="42.47331" lon="2.79191">
        <ele>1206.7</ele>
        <time>2015-09-18T12:05:52Z</time>
      </trkpt>
      <trkpt lat="42.47334" lon="2.79199">
        <ele>1207</ele>
        <time>2015-09-18T12:05:53Z</time>
      </trkpt>
      <trkpt lat="42.47335" lon="2.79209">
        <ele>1207.8</ele>
        <time>2015-09-18T12:05:54Z</time>
      </trkpt>
      <trkpt lat="42.47334" lon="2.79221">
        <ele>1208.5</ele>
        <time>2015-09-18T12:05:55Z</time>
      </trkpt>
      <trkpt lat="42.4733" lon="2.79232">
        <ele>1210</ele>
        <time>2015-09-18T12:05:56Z</time>
      </trkpt>
      <trkpt lat="42.47324" lon="2.79241">
        <ele>1210</ele>
        <time>2015-09-18T12:05:57Z</time>
      </trkpt>
      <trkpt lat="42.47316" lon="2.79247">
        <ele>1213</ele>
        <time>2015-09-18T12:05:58Z</time>
      </trkpt>
      <trkpt lat="42.47295" lon="2.79254">
        <ele>1216.6</ele>
        <time>2015-09-18T12:06:00Z</time>
      </trkpt>
      <trkpt lat="42.47295" lon="2.79254">
        <ele>1218.2</ele>
        <time>2015-09-18T12:06:00Z</time>
      </trkpt>
      <trkpt lat="42.47274" lon="2.79251">
        <ele>1220</ele>
        <time>2015-09-18T12:06:02Z</time>
      </trkpt>
      <trkpt lat="42.47264" lon="2.79244">
        <ele>1220.1</ele>
        <time>2015-09-18T12:06:03Z</time>
      </trkpt>
      <trkpt lat="42.47255" lon="2.79233">
        <ele>1220.5</ele>
        <time>2015-09-18T12:06:04Z</time>
      </trkpt>
      <trkpt lat="42.47248" lon="2.7922">
        <ele>1221.2</ele>
        <time>2015-09-18T12:06:05Z</time>
      </trkpt>
      <trkpt lat="42.47244" lon="2.79206">
        <ele>1222.2</ele>
        <time>2015-09-18T12:06:06Z</time>
      </trkpt>
      <trkpt lat="42.47242" lon="2.79192">
        <ele>1223.4</ele>
        <time>2015-09-18T12:06:07Z</time>
      </trkpt>
      <trkpt lat="42.47242" lon="2.7918">
        <ele>1224.8</ele>
        <time>2015-09-18T12:06:08Z</time>
      </trkpt>
      <trkpt lat="42.47243" lon="2.79168">
        <ele>1226.4</ele>
        <time>2015-09-18T12:06:09Z</time>
      </trkpt>
      <trkpt lat="42.47244" lon="2.79157">
        <ele>1227.6</ele>
        <time>2015-09-18T12:06:10Z</time>
      </trkpt>
      <trkpt lat="42.47245" lon="2.79146">
        <ele>1228.4</ele>
        <time>2015-09-18T12:06:11Z</time>
      </trkpt>
      <trkpt lat="42.47249" lon="2.79135">
        <ele>1228.8</ele>
        <time>2015-09-18T12:06:12Z</time>
      </trkpt>
      <trkpt lat="42.47254" lon="2.79126">
        <ele>1229.8</ele>
        <time>2015-09-18T12:06:13Z</time>
      </trkpt>
      <trkpt lat="42.47267" lon="2.79115">
        <ele>1230.8</ele>
        <time>2015-09-18T12:06:15Z</time>
      </trkpt>
      <trkpt lat="42.47267" lon="2.79115">
        <ele>1232.1</ele>
        <time>2015-09-18T12:06:15Z</time>
      </trkpt>
      <trkpt lat="42.4728" lon="2.79114">
        <ele>1232.4</ele>
        <time>2015-09-18T12:06:17Z</time>
      </trkpt>
      <trkpt lat="42.47286" lon="2.79119">
        <ele>1232.1</ele>
        <time>2015-09-18T12:06:18Z</time>
      </trkpt>
      <trkpt lat="42.47291" lon="2.79127">
        <ele>1231.7</ele>
        <time>2015-09-18T12:06:19Z</time>
      </trkpt>
      <trkpt lat="42.47294" lon="2.79136">
        <ele>1232.1</ele>
        <time>2015-09-18T12:06:20Z</time>
      </trkpt>
      <trkpt lat="42.47296" lon="2.79147">
        <ele>1233.1</ele>
        <time>2015-09-18T12:06:21Z</time>
      </trkpt>
      <trkpt lat="42.47295" lon="2.79158">
        <ele>1234.6</ele>
        <time>2015-09-18T12:06:22Z</time>
      </trkpt>
      <trkpt lat="42.47293" lon="2.79167">
        <ele>1236.2</ele>
        <time>2015-09-18T12:06:23Z</time>
      </trkpt>
      <trkpt lat="42.47288" lon="2.79175">
        <ele>1237</ele>
        <time>2015-09-18T12:06:24Z</time>
      </trkpt>
      <trkpt lat="42.47283" lon="2.79181">
        <ele>1237.2</ele>
        <time>2015-09-18T12:06:25Z</time>
      </trkpt>
      <trkpt lat="42.47276" lon="2.79186">
        <ele>1236.8</ele>
        <time>2015-09-18T12:06:26Z</time>
      </trkpt>
      <trkpt lat="42.47268" lon="2.79191">
        <ele>1236.8</ele>
        <time>2015-09-18T12:06:27Z</time>
      </trkpt>
      <trkpt lat="42.47247" lon="2.79198">
        <ele>1238.6</ele>
        <time>2015-09-18T12:06:29Z</time>
      </trkpt>
      <trkpt lat="42.47237" lon="2.79198">
        <ele>1240.4</ele>
        <time>2015-09-18T12:06:30Z</time>
      </trkpt>
      <trkpt lat="42.47237" lon="2.79198">
        <ele>1241</ele>
        <time>2015-09-18T12:06:30Z</time>
      </trkpt>
      <trkpt lat="42.47219" lon="2.79188">
        <ele>1241.2</ele>
        <time>2015-09-18T12:06:32Z</time>
      </trkpt>
      <trkpt lat="42.47212" lon="2.79176">
        <ele>1241.1</ele>
        <time>2015-09-18T12:06:33Z</time>
      </trkpt>
      <trkpt lat="42.47206" lon="2.79162">
        <ele>1241</ele>
        <time>2015-09-18T12:06:34Z</time>
      </trkpt>
      <trkpt lat="42.47204" lon="2.79147">
        <ele>1241.1</ele>
        <time>2015-09-18T12:06:35Z</time>
      </trkpt>
      <trkpt lat="42.47207" lon="2.79135">
        <ele>1241.1</ele>
        <time>2015-09-18T12:06:36Z</time>
      </trkpt>
      <trkpt lat="42.47211" lon="2.79126">
        <ele>1239.9</ele>
        <time>2015-09-18T12:06:37Z</time>
      </trkpt>
      <trkpt lat="42.47216" lon="2.79121">
        <ele>1239.1</ele>
        <time>2015-09-18T12:06:38Z</time>
      </trkpt>
      <trkpt lat="42.4722" lon="2.79117">
        <ele>1238.7</ele>
        <time>2015-09-18T12:06:39Z</time>
      </trkpt>
      <trkpt lat="42.47225" lon="2.79115">
        <ele>1238</ele>
        <time>2015-09-18T12:06:40Z</time>
      </trkpt>
      <trkpt lat="42.4723" lon="2.79113">
        <ele>1237.5</ele>
        <time>2015-09-18T12:06:41Z</time>
      </trkpt>
      <trkpt lat="42.47236" lon="2.79111">
        <ele>1236.6</ele>
        <time>2015-09-18T12:06:42Z</time>
      </trkpt>
      <trkpt lat="42.47241" lon="2.79109">
        <ele>1235</ele>
        <time>2015-09-18T12:06:43Z</time>
      </trkpt>
      <trkpt lat="42.47247" lon="2.79108">
        <ele>1234.2</ele>
        <time>2015-09-18T12:06:44Z</time>
      </trkpt>
      <trkpt lat="42.47253" lon="2.79109">
        <ele>1233.5</ele>
        <time>2015-09-18T12:06:45Z</time>
      </trkpt>
      <trkpt lat="42.47266" lon="2.79115">
        <ele>1232.8</ele>
        <time>2015-09-18T12:06:47Z</time>
      </trkpt>
      <trkpt lat="42.47271" lon="2.7912">
        <ele>1231.6</ele>
        <time>2015-09-18T12:06:48Z</time>
      </trkpt>
      <trkpt lat="42.47277" lon="2.79124">
        <ele>1230.5</ele>
        <time>2015-09-18T12:06:49Z</time>
      </trkpt>
      <trkpt lat="42.47283" lon="2.79129">
        <ele>1229.3</ele>
        <time>2015-09-18T12:06:50Z</time>
      </trkpt>
      <trkpt lat="42.47289" lon="2.79135">
        <ele>1227.9</ele>
        <time>2015-09-18T12:06:51Z</time>
      </trkpt>
      <trkpt lat="42.47294" lon="2.79143">
        <ele>1226.4</ele>
        <time>2015-09-18T12:06:52Z</time>
      </trkpt>
      <trkpt lat="42.47294" lon="2.79143">
        <ele>1225.3</ele>
        <time>2015-09-18T12:06:52Z</time>
      </trkpt>
      <trkpt lat="42.47304" lon="2.79158">
        <ele>1224.6</ele>
        <time>2015-09-18T12:06:54Z</time>
      </trkpt>
      <trkpt lat="42.47309" lon="2.79165">
        <ele>1224</ele>
        <time>2015-09-18T12:06:55Z</time>
      </trkpt>
      <trkpt lat="42.47312" lon="2.79173">
        <ele>1222</ele>
        <time>2015-09-18T12:06:56Z</time>
      </trkpt>
      <trkpt lat="42.47317" lon="2.79189">
        <ele>1220.2</ele>
        <time>2015-09-18T12:06:58Z</time>
      </trkpt>
      <trkpt lat="42.4732" lon="2.79198">
        <ele>1218.2</ele>
        <time>2015-09-18T12:06:59Z</time>
      </trkpt>
      <trkpt lat="42.47323" lon="2.79208">
        <ele>1216.2</ele>
        <time>2015-09-18T12:07:00Z</time>
      </trkpt>
      <trkpt lat="42.47326" lon="2.79218">
        <ele>1214.7</ele>
        <time>2015-09-18T12:07:01Z</time>
      </trkpt>
      <trkpt lat="42.47329" lon="2.79228">
        <ele>1213.5</ele>
        <time>2015-09-18T12:07:02Z</time>
      </trkpt>
      <trkpt lat="42.47332" lon="2.79238">
        <ele>1212.6</ele>
        <time>2015-09-18T12:07:03Z</time>
      </trkpt>
      <trkpt lat="42.47332" lon="2.79238">
        <ele>1211.8</ele>
        <time>2015-09-18T12:07:03Z</time>
      </trkpt>
      <trkpt lat="42.47337" lon="2.79255">
        <ele>1210.7</ele>
        <time>2015-09-18T12:07:05Z</time>
      </trkpt>
      <trkpt lat="42.47339" lon="2.79263">
        <ele>1209.2</ele>
        <time>2015-09-18T12:07:06Z</time>
      </trkpt>
      <trkpt lat="42.47342" lon="2.79271">
        <ele>1207.5</ele>
        <time>2015-09-18T12:07:07Z</time>
      </trkpt>
      <trkpt lat="42.47346" lon="2.79279">
        <ele>1206.2</ele>
        <time>2015-09-18T12:07:08Z</time>
      </trkpt>
      <trkpt lat="42.4735" lon="2.79287">
        <ele>1205.6</ele>
        <time>2015-09-18T12:07:09Z</time>
      </trkpt>
      <trkpt lat="42.47353" lon="2.79294">
        <ele>1205.4</ele>
        <time>2015-09-18T12:07:10Z</time>
      </trkpt>
      <trkpt lat="42.47357" lon="2.793">
        <ele>1205.4</ele>
        <time>2015-09-18T12:07:11Z</time>
      </trkpt>
      <trkpt lat="42.47357" lon="2.793">
        <ele>1203.5</ele>
        <time>2015-09-18T12:07:11Z</time>
      </trkpt>
      <trkpt lat="42.47363" lon="2.79314">
        <ele>1202</ele>
        <time>2015-09-18T12:07:13Z</time>
      </trkpt>
      <trkpt lat="42.47363" lon="2.79314">
        <ele>1197.6</ele>
        <time>2015-09-18T12:07:13Z</time>
      </trkpt>
      <trkpt lat="42.47363" lon="2.79314">
        <ele>1195.9</ele>
        <time>2015-09-18T12:07:13Z</time>
      </trkpt>
      <trkpt lat="42.47374" lon="2.79339">
        <ele>1194.3</ele>
        <time>2015-09-18T12:07:16Z</time>
      </trkpt>
      <trkpt lat="42.47382" lon="2.79352">
        <ele>1192.9</ele>
        <time>2015-09-18T12:07:18Z</time>
      </trkpt>
      <trkpt lat="42.47386" lon="2.79357">
        <ele>1191.4</ele>
        <time>2015-09-18T12:07:19Z</time>
      </trkpt>
      <trkpt lat="42.47388" lon="2.79363">
        <ele>1189.6</ele>
        <time>2015-09-18T12:07:20Z</time>
      </trkpt>
      <trkpt lat="42.47387" lon="2.79371">
        <ele>1186.3</ele>
        <time>2015-09-18T12:07:21Z</time>
      </trkpt>
      <trkpt lat="42.47387" lon="2.79371">
        <ele>1182.8</ele>
        <time>2015-09-18T12:07:21Z</time>
      </trkpt>
      <trkpt lat="42.47387" lon="2.79388">
        <ele>1179.7</ele>
        <time>2015-09-18T12:07:23Z</time>
      </trkpt>
      <trkpt lat="42.4739" lon="2.79395">
        <ele>1177.8</ele>
        <time>2015-09-18T12:07:24Z</time>
      </trkpt>
      <trkpt lat="42.47392" lon="2.79401">
        <ele>1176.7</ele>
        <time>2015-09-18T12:07:25Z</time>
      </trkpt>
      <trkpt lat="42.47394" lon="2.79409">
        <ele>1175.8</ele>
        <time>2015-09-18T12:07:26Z</time>
      </trkpt>
      <trkpt lat="42.47394" lon="2.79416">
        <ele>1173.3</ele>
        <time>2015-09-18T12:07:27Z</time>
      </trkpt>
      <trkpt lat="42.47394" lon="2.79431">
        <ele>1171.6</ele>
        <time>2015-09-18T12:07:29Z</time>
      </trkpt>
      <trkpt lat="42.47395" lon="2.79437">
        <ele>1170</ele>
        <time>2015-09-18T12:07:30Z</time>
      </trkpt>
      <trkpt lat="42.47395" lon="2.79437">
        <ele>1168.8</ele>
        <time>2015-09-18T12:07:30Z</time>
      </trkpt>
      <trkpt lat="42.47399" lon="2.79447">
        <ele>1168.8</ele>
        <time>2015-09-18T12:07:32Z</time>
      </trkpt>
      <trkpt lat="42.47401" lon="2.79453">
        <ele>1166.6</ele>
        <time>2015-09-18T12:07:33Z</time>
      </trkpt>
      <trkpt lat="42.47403" lon="2.79459">
        <ele>1165.3</ele>
        <time>2015-09-18T12:07:34Z</time>
      </trkpt>
      <trkpt lat="42.47406" lon="2.79465">
        <ele>1164.4</ele>
        <time>2015-09-18T12:07:35Z</time>
      </trkpt>
      <trkpt lat="42.47409" lon="2.7947">
        <ele>1163.9</ele>
        <time>2015-09-18T12:07:36Z</time>
      </trkpt>
      <trkpt lat="42.47409" lon="2.7947">
        <ele>1164.2</ele>
        <time>2015-09-18T12:07:36Z</time>
      </trkpt>
      <trkpt lat="42.47416" lon="2.79479">
        <ele>1165</ele>
        <time>2015-09-18T12:07:38Z</time>
      </trkpt>
      <trkpt lat="42.47419" lon="2.79484">
        <ele>1165.6</ele>
        <time>2015-09-18T12:07:39Z</time>
      </trkpt>
      <trkpt lat="42.4742" lon="2.79489">
        <ele>1166</ele>
        <time>2015-09-18T12:07:40Z</time>
      </trkpt>
      <trkpt lat="42.47422" lon="2.79494">
        <ele>1166</ele>
        <time>2015-09-18T12:07:41Z</time>
      </trkpt>
      <trkpt lat="42.47424" lon="2.79497">
        <ele>1166</ele>
        <time>2015-09-18T12:07:42Z</time>
      </trkpt>
      <trkpt lat="42.47432" lon="2.79505">
        <ele>1165.7</ele>
        <time>2015-09-18T12:07:44Z</time>
      </trkpt>
      <trkpt lat="42.47436" lon="2.7951">
        <ele>1166.5</ele>
        <time>2015-09-18T12:07:45Z</time>
      </trkpt>
      <trkpt lat="42.47436" lon="2.7951">
        <ele>1167.2</ele>
        <time>2015-09-18T12:07:45Z</time>
      </trkpt>
      <trkpt lat="42.47443" lon="2.79521">
        <ele>1167.3</ele>
        <time>2015-09-18T12:07:47Z</time>
      </trkpt>
      <trkpt lat="42.47447" lon="2.79524">
        <ele>1167.2</ele>
        <time>2015-09-18T12:07:48Z</time>
      </trkpt>
      <trkpt lat="42.47447" lon="2.79524">
        <ele>1166.9</ele>
        <time>2015-09-18T12:07:48Z</time>
      </trkpt>
      <trkpt lat="42.47457" lon="2.79533">
        <ele>1166.6</ele>
        <time>2015-09-18T12:07:50Z</time>
      </trkpt>
      <trkpt lat="42.47461" lon="2.7954">
        <ele>1165.7</ele>
        <time>2015-09-18T12:07:51Z</time>
      </trkpt>
      <trkpt lat="42.47465" lon="2.79549">
        <ele>1165.6</ele>
        <time>2015-09-18T12:07:52Z</time>
      </trkpt>
      <trkpt lat="42.47468" lon="2.79557">
        <ele>1166.5</ele>
        <time>2015-09-18T12:07:53Z</time>
      </trkpt>
      <trkpt lat="42.47472" lon="2.79564">
        <ele>1167.7</ele>
        <time>2015-09-18T12:07:54Z</time>
      </trkpt>
      <trkpt lat="42.47474" lon="2.79571">
        <ele>1169.2</ele>
        <time>2015-09-18T12:07:55Z</time>
      </trkpt>
      <trkpt lat="42.47477" lon="2.79578">
        <ele>1169.4</ele>
        <time>2015-09-18T12:07:56Z</time>
      </trkpt>
      <trkpt lat="42.47482" lon="2.79592">
        <ele>1169.4</ele>
        <time>2015-09-18T12:07:58Z</time>
      </trkpt>
      <trkpt lat="42.47486" lon="2.796">
        <ele>1169.6</ele>
        <time>2015-09-18T12:07:59Z</time>
      </trkpt>
      <trkpt lat="42.47489" lon="2.79607">
        <ele>1169.8</ele>
        <time>2015-09-18T12:08:00Z</time>
      </trkpt>
      <trkpt lat="42.47489" lon="2.79607">
        <ele>1169.7</ele>
        <time>2015-09-18T12:08:00Z</time>
      </trkpt>
      <trkpt lat="42.47497" lon="2.79621">
        <ele>1169.9</ele>
        <time>2015-09-18T12:08:02Z</time>
      </trkpt>
      <trkpt lat="42.475" lon="2.79629">
        <ele>1170.5</ele>
        <time>2015-09-18T12:08:03Z</time>
      </trkpt>
      <trkpt lat="42.47504" lon="2.79636">
        <ele>1171.1</ele>
        <time>2015-09-18T12:08:04Z</time>
      </trkpt>
      <trkpt lat="42.47507" lon="2.79644">
        <ele>1171.1</ele>
        <time>2015-09-18T12:08:05Z</time>
      </trkpt>
      <trkpt lat="42.47509" lon="2.79653">
        <ele>1171.5</ele>
        <time>2015-09-18T12:08:06Z</time>
      </trkpt>
      <trkpt lat="42.47511" lon="2.79661">
        <ele>1171.1</ele>
        <time>2015-09-18T12:08:07Z</time>
      </trkpt>
      <trkpt lat="42.47513" lon="2.7967">
        <ele>1170.5</ele>
        <time>2015-09-18T12:08:08Z</time>
      </trkpt>
      <trkpt lat="42.47515" lon="2.79677">
        <ele>1170</ele>
        <time>2015-09-18T12:08:09Z</time>
      </trkpt>
      <trkpt lat="42.47517" lon="2.79684">
        <ele>1167.2</ele>
        <time>2015-09-18T12:08:10Z</time>
      </trkpt>
      <trkpt lat="42.47519" lon="2.79691">
        <ele>1164.9</ele>
        <time>2015-09-18T12:08:11Z</time>
      </trkpt>
      <trkpt lat="42.47523" lon="2.79707">
        <ele>1162.5</ele>
        <time>2015-09-18T12:08:13Z</time>
      </trkpt>
      <trkpt lat="42.47526" lon="2.79715">
        <ele>1160.2</ele>
        <time>2015-09-18T12:08:14Z</time>
      </trkpt>
      <trkpt lat="42.47529" lon="2.79723">
        <ele>1158.2</ele>
        <time>2015-09-18T12:08:15Z</time>
      </trkpt>
      <trkpt lat="42.47532" lon="2.79731">
        <ele>1156.5</ele>
        <time>2015-09-18T12:08:16Z</time>
      </trkpt>
      <trkpt lat="42.47535" lon="2.79739">
        <ele>1155.1</ele>
        <time>2015-09-18T12:08:17Z</time>
      </trkpt>
      <trkpt lat="42.47538" lon="2.79746">
        <ele>1153.5</ele>
        <time>2015-09-18T12:08:18Z</time>
      </trkpt>
      <trkpt lat="42.47541" lon="2.79753">
        <ele>1151.8</ele>
        <time>2015-09-18T12:08:19Z</time>
      </trkpt>
      <trkpt lat="42.47543" lon="2.7976">
        <ele>1149.6</ele>
        <time>2015-09-18T12:08:20Z</time>
      </trkpt>
      <trkpt lat="42.47543" lon="2.7976">
        <ele>1147.2</ele>
        <time>2015-09-18T12:08:20Z</time>
      </trkpt>
      <trkpt lat="42.4755" lon="2.79774">
        <ele>1145</ele>
        <time>2015-09-18T12:08:22Z</time>
      </trkpt>
      <trkpt lat="42.47554" lon="2.79782">
        <ele>1143.4</ele>
        <time>2015-09-18T12:08:23Z</time>
      </trkpt>
      <trkpt lat="42.47558" lon="2.79789">
        <ele>1141.9</ele>
        <time>2015-09-18T12:08:24Z</time>
      </trkpt>
      <trkpt lat="42.47561" lon="2.79796">
        <ele>1138.1</ele>
        <time>2015-09-18T12:08:25Z</time>
      </trkpt>
      <trkpt lat="42.47568" lon="2.79809">
        <ele>1138.1</ele>
        <time>2015-09-18T12:08:27Z</time>
      </trkpt>
      <trkpt lat="42.47572" lon="2.79816">
        <ele>1134.2</ele>
        <time>2015-09-18T12:08:28Z</time>
      </trkpt>
      <trkpt lat="42.47575" lon="2.79822">
        <ele>1134.2</ele>
        <time>2015-09-18T12:08:29Z</time>
      </trkpt>
      <trkpt lat="42.47578" lon="2.79829">
        <ele>1130.1</ele>
        <time>2015-09-18T12:08:30Z</time>
      </trkpt>
      <trkpt lat="42.47578" lon="2.79829">
        <ele>1127.8</ele>
        <time>2015-09-18T12:08:30Z</time>
      </trkpt>
      <trkpt lat="42.47583" lon="2.79842">
        <ele>1125.6</ele>
        <time>2015-09-18T12:08:32Z</time>
      </trkpt>
      <trkpt lat="42.47586" lon="2.79848">
        <ele>1123.1</ele>
        <time>2015-09-18T12:08:33Z</time>
      </trkpt>
      <trkpt lat="42.47589" lon="2.79854">
        <ele>1120.4</ele>
        <time>2015-09-18T12:08:34Z</time>
      </trkpt>
      <trkpt lat="42.47593" lon="2.7986">
        <ele>1118</ele>
        <time>2015-09-18T12:08:35Z</time>
      </trkpt>
      <trkpt lat="42.47593" lon="2.7986">
        <ele>1116.1</ele>
        <time>2015-09-18T12:08:35Z</time>
      </trkpt>
      <trkpt lat="42.47601" lon="2.7987">
        <ele>1114.6</ele>
        <time>2015-09-18T12:08:37Z</time>
      </trkpt>
      <trkpt lat="42.47604" lon="2.79876">
        <ele>1113.2</ele>
        <time>2015-09-18T12:08:38Z</time>
      </trkpt>
      <trkpt lat="42.47608" lon="2.79882">
        <ele>1111.6</ele>
        <time>2015-09-18T12:08:39Z</time>
      </trkpt>
      <trkpt lat="42.47611" lon="2.79886">
        <ele>1109.9</ele>
        <time>2015-09-18T12:08:40Z</time>
      </trkpt>
      <trkpt lat="42.47621" lon="2.79888">
        <ele>1108.2</ele>
        <time>2015-09-18T12:08:42Z</time>
      </trkpt>
      <trkpt lat="42.47625" lon="2.79889">
        <ele>1107.6</ele>
        <time>2015-09-18T12:08:43Z</time>
      </trkpt>
      <trkpt lat="42.47628" lon="2.79891">
        <ele>1106.1</ele>
        <time>2015-09-18T12:08:44Z</time>
      </trkpt>
      <trkpt lat="42.47631" lon="2.79895">
        <ele>1103.9</ele>
        <time>2015-09-18T12:08:45Z</time>
      </trkpt>
      <trkpt lat="42.47635" lon="2.79898">
        <ele>1101.3</ele>
        <time>2015-09-18T12:08:46Z</time>
      </trkpt>
      <trkpt lat="42.4764" lon="2.79901">
        <ele>1098.6</ele>
        <time>2015-09-18T12:08:47Z</time>
      </trkpt>
      <trkpt lat="42.47644" lon="2.79904">
        <ele>1096.1</ele>
        <time>2015-09-18T12:08:48Z</time>
      </trkpt>
      <trkpt lat="42.47649" lon="2.79908">
        <ele>1093.7</ele>
        <time>2015-09-18T12:08:49Z</time>
      </trkpt>
      <trkpt lat="42.47654" lon="2.79913">
        <ele>1091.7</ele>
        <time>2015-09-18T12:08:50Z</time>
      </trkpt>
      <trkpt lat="42.47658" lon="2.7992">
        <ele>1090.6</ele>
        <time>2015-09-18T12:08:51Z</time>
      </trkpt>
      <trkpt lat="42.47662" lon="2.79927">
        <ele>1090.1</ele>
        <time>2015-09-18T12:08:52Z</time>
      </trkpt>
      <trkpt lat="42.47666" lon="2.79933">
        <ele>1089.4</ele>
        <time>2015-09-18T12:08:53Z</time>
      </trkpt>
      <trkpt lat="42.47669" lon="2.79938">
        <ele>1088.2</ele>
        <time>2015-09-18T12:08:54Z</time>
      </trkpt>
      <trkpt lat="42.47672" lon="2.79944">
        <ele>1084.5</ele>
        <time>2015-09-18T12:08:55Z</time>
      </trkpt>
      <trkpt lat="42.47675" lon="2.79951">
        <ele>1084.5</ele>
        <time>2015-09-18T12:08:56Z</time>
      </trkpt>
      <trkpt lat="42.47682" lon="2.79966">
        <ele>1080.6</ele>
        <time>2015-09-18T12:08:58Z</time>
      </trkpt>
      <trkpt lat="42.47685" lon="2.79974">
        <ele>1079.3</ele>
        <time>2015-09-18T12:08:59Z</time>
      </trkpt>
      <trkpt lat="42.47689" lon="2.79982">
        <ele>1078.3</ele>
        <time>2015-09-18T12:09:00Z</time>
      </trkpt>
      <trkpt lat="42.47691" lon="2.7999">
        <ele>1077.5</ele>
        <time>2015-09-18T12:09:01Z</time>
      </trkpt>
      <trkpt lat="42.47694" lon="2.79999">
        <ele>1076.9</ele>
        <time>2015-09-18T12:09:02Z</time>
      </trkpt>
      <trkpt lat="42.47696" lon="2.80006">
        <ele>1076.5</ele>
        <time>2015-09-18T12:09:03Z</time>
      </trkpt>
      <trkpt lat="42.47698" lon="2.80013">
        <ele>1076</ele>
        <time>2015-09-18T12:09:04Z</time>
      </trkpt>
      <trkpt lat="42.477" lon="2.8002">
        <ele>1075</ele>
        <time>2015-09-18T12:09:05Z</time>
      </trkpt>
      <trkpt lat="42.47702" lon="2.80026">
        <ele>1073</ele>
        <time>2015-09-18T12:09:06Z</time>
      </trkpt>
      <trkpt lat="42.47705" lon="2.80031">
        <ele>1070.9</ele>
        <time>2015-09-18T12:09:07Z</time>
      </trkpt>
      <trkpt lat="42.47708" lon="2.80036">
        <ele>1068.6</ele>
        <time>2015-09-18T12:09:08Z</time>
      </trkpt>
      <trkpt lat="42.47712" lon="2.8004">
        <ele>1066.3</ele>
        <time>2015-09-18T12:09:09Z</time>
      </trkpt>
      <trkpt lat="42.47716" lon="2.80045">
        <ele>1063.9</ele>
        <time>2015-09-18T12:09:10Z</time>
      </trkpt>
      <trkpt lat="42.4772" lon="2.80051">
        <ele>1061</ele>
        <time>2015-09-18T12:09:11Z</time>
      </trkpt>
      <trkpt lat="42.4772" lon="2.80051">
        <ele>1054</ele>
        <time>2015-09-18T12:09:11Z</time>
      </trkpt>
      <trkpt lat="42.47732" lon="2.8007">
        <ele>1051.2</ele>
        <time>2015-09-18T12:09:14Z</time>
      </trkpt>
      <trkpt lat="42.47736" lon="2.80077">
        <ele>1048.5</ele>
        <time>2015-09-18T12:09:15Z</time>
      </trkpt>
      <trkpt lat="42.47736" lon="2.80077">
        <ele>1045.5</ele>
        <time>2015-09-18T12:09:15Z</time>
      </trkpt>
      <trkpt lat="42.47742" lon="2.80091">
        <ele>1041.8</ele>
        <time>2015-09-18T12:09:17Z</time>
      </trkpt>
      <trkpt lat="42.47746" lon="2.80099">
        <ele>1037.9</ele>
        <time>2015-09-18T12:09:18Z</time>
      </trkpt>
      <trkpt lat="42.47749" lon="2.80106">
        <ele>1033.9</ele>
        <time>2015-09-18T12:09:19Z</time>
      </trkpt>
      <trkpt lat="42.47752" lon="2.80114">
        <ele>1030.2</ele>
        <time>2015-09-18T12:09:20Z</time>
      </trkpt>
      <trkpt lat="42.47755" lon="2.80121">
        <ele>1026.7</ele>
        <time>2015-09-18T12:09:21Z</time>
      </trkpt>
      <trkpt lat="42.47758" lon="2.80127">
        <ele>1023.4</ele>
        <time>2015-09-18T12:09:22Z</time>
      </trkpt>
      <trkpt lat="42.4776" lon="2.80133">
        <ele>1017.6</ele>
        <time>2015-09-18T12:09:23Z</time>
      </trkpt>
      <trkpt lat="42.4776" lon="2.80133">
        <ele>1017.6</ele>
        <time>2015-09-18T12:09:23Z</time>
      </trkpt>
      <trkpt lat="42.4776" lon="2.80133">
        <ele>1011.3</ele>
        <time>2015-09-18T12:09:23Z</time>
      </trkpt>
      <trkpt lat="42.47774" lon="2.80155">
        <ele>1008.6</ele>
        <time>2015-09-18T12:09:27Z</time>
      </trkpt>
      <trkpt lat="42.47777" lon="2.8016">
        <ele>1006.3</ele>
        <time>2015-09-18T12:09:28Z</time>
      </trkpt>
      <trkpt lat="42.47781" lon="2.80165">
        <ele>1004</ele>
        <time>2015-09-18T12:09:29Z</time>
      </trkpt>
      <trkpt lat="42.47784" lon="2.80169">
        <ele>1001.3</ele>
        <time>2015-09-18T12:09:30Z</time>
      </trkpt>
      <trkpt lat="42.47787" lon="2.80172">
        <ele>998.3</ele>
        <time>2015-09-18T12:09:31Z</time>
      </trkpt>
      <trkpt lat="42.47791" lon="2.80175">
        <ele>994.9</ele>
        <time>2015-09-18T12:09:32Z</time>
      </trkpt>
      <trkpt lat="42.47796" lon="2.80179">
        <ele>992</ele>
        <time>2015-09-18T12:09:33Z</time>
      </trkpt>
      <trkpt lat="42.478" lon="2.80182">
        <ele>989.7</ele>
        <time>2015-09-18T12:09:34Z</time>
      </trkpt>
      <trkpt lat="42.47805" lon="2.80186">
        <ele>987.9</ele>
        <time>2015-09-18T12:09:35Z</time>
      </trkpt>
      <trkpt lat="42.47808" lon="2.80189">
        <ele>986.1</ele>
        <time>2015-09-18T12:09:36Z</time>
      </trkpt>
      <trkpt lat="42.47812" lon="2.80193">
        <ele>983.9</ele>
        <time>2015-09-18T12:09:37Z</time>
      </trkpt>
      <trkpt lat="42.47815" lon="2.80197">
        <ele>981.2</ele>
        <time>2015-09-18T12:09:38Z</time>
      </trkpt>
      <trkpt lat="42.47819" lon="2.80201">
        <ele>978.3</ele>
        <time>2015-09-18T12:09:39Z</time>
      </trkpt>
      <trkpt lat="42.47823" lon="2.80205">
        <ele>975.2</ele>
        <time>2015-09-18T12:09:40Z</time>
      </trkpt>
      <trkpt lat="42.47827" lon="2.8021">
        <ele>972.2</ele>
        <time>2015-09-18T12:09:41Z</time>
      </trkpt>
      <trkpt lat="42.47831" lon="2.80216">
        <ele>969.3</ele>
        <time>2015-09-18T12:09:42Z</time>
      </trkpt>
      <trkpt lat="42.47835" lon="2.80221">
        <ele>966.6</ele>
        <time>2015-09-18T12:09:43Z</time>
      </trkpt>
      <trkpt lat="42.47839" lon="2.80225">
        <ele>961.5</ele>
        <time>2015-09-18T12:09:44Z</time>
      </trkpt>
      <trkpt lat="42.47843" lon="2.8023">
        <ele>958.5</ele>
        <time>2015-09-18T12:09:45Z</time>
      </trkpt>
      <trkpt lat="42.4785" lon="2.80241">
        <ele>955.2</ele>
        <time>2015-09-18T12:09:47Z</time>
      </trkpt>
      <trkpt lat="42.47854" lon="2.80247">
        <ele>951.9</ele>
        <time>2015-09-18T12:09:48Z</time>
      </trkpt>
      <trkpt lat="42.47858" lon="2.80252">
        <ele>948.9</ele>
        <time>2015-09-18T12:09:49Z</time>
      </trkpt>
      <trkpt lat="42.47863" lon="2.80258">
        <ele>946.4</ele>
        <time>2015-09-18T12:09:50Z</time>
      </trkpt>
      <trkpt lat="42.47867" lon="2.80264">
        <ele>944</ele>
        <time>2015-09-18T12:09:51Z</time>
      </trkpt>
      <trkpt lat="42.47867" lon="2.80264">
        <ele>941</ele>
        <time>2015-09-18T12:09:51Z</time>
      </trkpt>
      <trkpt lat="42.47874" lon="2.80273">
        <ele>937.5</ele>
        <time>2015-09-18T12:09:53Z</time>
      </trkpt>
      <trkpt lat="42.47879" lon="2.80278">
        <ele>934</ele>
        <time>2015-09-18T12:09:54Z</time>
      </trkpt>
      <trkpt lat="42.47885" lon="2.80283">
        <ele>934</ele>
        <time>2015-09-18T12:09:55Z</time>
      </trkpt>
      <trkpt lat="42.47895" lon="2.80295">
        <ele>927.7</ele>
        <time>2015-09-18T12:09:57Z</time>
      </trkpt>
      <trkpt lat="42.479" lon="2.803">
        <ele>926.2</ele>
        <time>2015-09-18T12:09:58Z</time>
      </trkpt>
      <trkpt lat="42.47904" lon="2.80305">
        <ele>924.1</ele>
        <time>2015-09-18T12:09:59Z</time>
      </trkpt>
      <trkpt lat="42.47909" lon="2.8031">
        <ele>921.3</ele>
        <time>2015-09-18T12:10:00Z</time>
      </trkpt>
      <trkpt lat="42.47909" lon="2.8031">
        <ele>921.3</ele>
        <time>2015-09-18T12:10:00Z</time>
      </trkpt>
      <trkpt lat="42.47918" lon="2.80322">
        <ele>915.8</ele>
        <time>2015-09-18T12:10:02Z</time>
      </trkpt>
      <trkpt lat="42.47923" lon="2.80328">
        <ele>913.5</ele>
        <time>2015-09-18T12:10:03Z</time>
      </trkpt>
      <trkpt lat="42.47928" lon="2.80334">
        <ele>911.5</ele>
        <time>2015-09-18T12:10:04Z</time>
      </trkpt>
      <trkpt lat="42.47932" lon="2.80339">
        <ele>909.6</ele>
        <time>2015-09-18T12:10:05Z</time>
      </trkpt>
      <trkpt lat="42.47937" lon="2.80344">
        <ele>907.1</ele>
        <time>2015-09-18T12:10:06Z</time>
      </trkpt>
      <trkpt lat="42.47943" lon="2.80347">
        <ele>904.5</ele>
        <time>2015-09-18T12:10:07Z</time>
      </trkpt>
      <trkpt lat="42.47949" lon="2.80349">
        <ele>901.8</ele>
        <time>2015-09-18T12:10:08Z</time>
      </trkpt>
      <trkpt lat="42.47955" lon="2.8035">
        <ele>899.7</ele>
        <time>2015-09-18T12:10:09Z</time>
      </trkpt>
      <trkpt lat="42.47961" lon="2.80351">
        <ele>898.2</ele>
        <time>2015-09-18T12:10:10Z</time>
      </trkpt>
      <trkpt lat="42.47966" lon="2.80352">
        <ele>896.3</ele>
        <time>2015-09-18T12:10:11Z</time>
      </trkpt>
      <trkpt lat="42.4797" lon="2.80354">
        <ele>893.6</ele>
        <time>2015-09-18T12:10:12Z</time>
      </trkpt>
      <trkpt lat="42.47975" lon="2.80355">
        <ele>890.3</ele>
        <time>2015-09-18T12:10:13Z</time>
      </trkpt>
      <trkpt lat="42.4798" lon="2.80356">
        <ele>887.3</ele>
        <time>2015-09-18T12:10:14Z</time>
      </trkpt>
      <trkpt lat="42.4798" lon="2.80356">
        <ele>884.1</ele>
        <time>2015-09-18T12:10:14Z</time>
      </trkpt>
      <trkpt lat="42.47996" lon="2.80357">
        <ele>883</ele>
        <time>2015-09-18T12:10:17Z</time>
      </trkpt>
      <trkpt lat="42.48" lon="2.80358">
        <ele>881.6</ele>
        <time>2015-09-18T12:10:18Z</time>
      </trkpt>
      <trkpt lat="42.48004" lon="2.8036">
        <ele>881.6</ele>
        <time>2015-09-18T12:10:19Z</time>
      </trkpt>
      <trkpt lat="42.48009" lon="2.80362">
        <ele>877.3</ele>
        <time>2015-09-18T12:10:20Z</time>
      </trkpt>
      <trkpt lat="42.48015" lon="2.80364">
        <ele>875.5</ele>
        <time>2015-09-18T12:10:21Z</time>
      </trkpt>
      <trkpt lat="42.4802" lon="2.80366">
        <ele>874.5</ele>
        <time>2015-09-18T12:10:22Z</time>
      </trkpt>
      <trkpt lat="42.48025" lon="2.80368">
        <ele>873.7</ele>
        <time>2015-09-18T12:10:23Z</time>
      </trkpt>
      <trkpt lat="42.48029" lon="2.8037">
        <ele>872.5</ele>
        <time>2015-09-18T12:10:24Z</time>
      </trkpt>
      <trkpt lat="42.48033" lon="2.80372">
        <ele>870.7</ele>
        <time>2015-09-18T12:10:25Z</time>
      </trkpt>
      <trkpt lat="42.48037" lon="2.80374">
        <ele>868.6</ele>
        <time>2015-09-18T12:10:26Z</time>
      </trkpt>
      <trkpt lat="42.48041" lon="2.80377">
        <ele>866.3</ele>
        <time>2015-09-18T12:10:27Z</time>
      </trkpt>
      <trkpt lat="42.48046" lon="2.80382">
        <ele>864.4</ele>
        <time>2015-09-18T12:10:28Z</time>
      </trkpt>
      <trkpt lat="42.4805" lon="2.80387">
        <ele>862.8</ele>
        <time>2015-09-18T12:10:29Z</time>
      </trkpt>
      <trkpt lat="42.48053" lon="2.80392">
        <ele>859.7</ele>
        <time>2015-09-18T12:10:30Z</time>
      </trkpt>
      <trkpt lat="42.4806" lon="2.80398">
        <ele>857.3</ele>
        <time>2015-09-18T12:10:32Z</time>
      </trkpt>
      <trkpt lat="42.48064" lon="2.80401">
        <ele>854.9</ele>
        <time>2015-09-18T12:10:33Z</time>
      </trkpt>
      <trkpt lat="42.48067" lon="2.80405">
        <ele>852.1</ele>
        <time>2015-09-18T12:10:34Z</time>
      </trkpt>
      <trkpt lat="42.48072" lon="2.80409">
        <ele>852.1</ele>
        <time>2015-09-18T12:10:35Z</time>
      </trkpt>
      <trkpt lat="42.48072" lon="2.80409">
        <ele>847.8</ele>
        <time>2015-09-18T12:10:35Z</time>
      </trkpt>
      <trkpt lat="42.4808" lon="2.80415">
        <ele>846.2</ele>
        <time>2015-09-18T12:10:37Z</time>
      </trkpt>
      <trkpt lat="42.48083" lon="2.80417">
        <ele>844.3</ele>
        <time>2015-09-18T12:10:38Z</time>
      </trkpt>
      <trkpt lat="42.48086" lon="2.80419">
        <ele>841.8</ele>
        <time>2015-09-18T12:10:39Z</time>
      </trkpt>
      <trkpt lat="42.48089" lon="2.80421">
        <ele>838.5</ele>
        <time>2015-09-18T12:10:40Z</time>
      </trkpt>
      <trkpt lat="42.48093" lon="2.80423">
        <ele>835.2</ele>
        <time>2015-09-18T12:10:41Z</time>
      </trkpt>
      <trkpt lat="42.48097" lon="2.80425">
        <ele>831.9</ele>
        <time>2015-09-18T12:10:42Z</time>
      </trkpt>
      <trkpt lat="42.48097" lon="2.80425">
        <ele>828.8</ele>
        <time>2015-09-18T12:10:42Z</time>
      </trkpt>
      <trkpt lat="42.48105" lon="2.80429">
        <ele>822.9</ele>
        <time>2015-09-18T12:10:44Z</time>
      </trkpt>
      <trkpt lat="42.48108" lon="2.80431">
        <ele>819.6</ele>
        <time>2015-09-18T12:10:45Z</time>
      </trkpt>
      <trkpt lat="42.48115" lon="2.80434">
        <ele>815.8</ele>
        <time>2015-09-18T12:10:47Z</time>
      </trkpt>
      <trkpt lat="42.48119" lon="2.80436">
        <ele>812.1</ele>
        <time>2015-09-18T12:10:48Z</time>
      </trkpt>
      <trkpt lat="42.48123" lon="2.80438">
        <ele>808.8</ele>
        <time>2015-09-18T12:10:49Z</time>
      </trkpt>
      <trkpt lat="42.48127" lon="2.80442">
        <ele>805.9</ele>
        <time>2015-09-18T12:10:50Z</time>
      </trkpt>
      <trkpt lat="42.4813" lon="2.80446">
        <ele>803</ele>
        <time>2015-09-18T12:10:51Z</time>
      </trkpt>
      <trkpt lat="42.48133" lon="2.8045">
        <ele>800</ele>
        <time>2015-09-18T12:10:52Z</time>
      </trkpt>
      <trkpt lat="42.48136" lon="2.80454">
        <ele>797</ele>
        <time>2015-09-18T12:10:53Z</time>
      </trkpt>
      <trkpt lat="42.48139" lon="2.80457">
        <ele>794</ele>
        <time>2015-09-18T12:10:54Z</time>
      </trkpt>
      <trkpt lat="42.48142" lon="2.80461">
        <ele>794</ele>
        <time>2015-09-18T12:10:55Z</time>
      </trkpt>
      <trkpt lat="42.48146" lon="2.80465">
        <ele>788.2</ele>
        <time>2015-09-18T12:10:56Z</time>
      </trkpt>
      <trkpt lat="42.48149" lon="2.80468">
        <ele>785.3</ele>
        <time>2015-09-18T12:10:57Z</time>
      </trkpt>
      <trkpt lat="42.48153" lon="2.8047">
        <ele>782.4</ele>
        <time>2015-09-18T12:10:58Z</time>
      </trkpt>
      <trkpt lat="42.48157" lon="2.80472">
        <ele>779.5</ele>
        <time>2015-09-18T12:10:59Z</time>
      </trkpt>
      <trkpt lat="42.48161" lon="2.80474">
        <ele>776.5</ele>
        <time>2015-09-18T12:11:00Z</time>
      </trkpt>
      <trkpt lat="42.48165" lon="2.80474">
        <ele>773.2</ele>
        <time>2015-09-18T12:11:01Z</time>
      </trkpt>
      <trkpt lat="42.4817" lon="2.80474">
        <ele>773.2</ele>
        <time>2015-09-18T12:11:02Z</time>
      </trkpt>
      <trkpt lat="42.48176" lon="2.80474">
        <ele>767.1</ele>
        <time>2015-09-18T12:11:03Z</time>
      </trkpt>
      <trkpt lat="42.48182" lon="2.80473">
        <ele>763.5</ele>
        <time>2015-09-18T12:11:04Z</time>
      </trkpt>
      <trkpt lat="42.48188" lon="2.80472">
        <ele>761.7</ele>
        <time>2015-09-18T12:11:05Z</time>
      </trkpt>
      <trkpt lat="42.48198" lon="2.80468">
        <ele>758.9</ele>
        <time>2015-09-18T12:11:07Z</time>
      </trkpt>
      <trkpt lat="42.48202" lon="2.80465">
        <ele>754.9</ele>
        <time>2015-09-18T12:11:08Z</time>
      </trkpt>
      <trkpt lat="42.48208" lon="2.80462">
        <ele>750.7</ele>
        <time>2015-09-18T12:11:09Z</time>
      </trkpt>
      <trkpt lat="42.48214" lon="2.80459">
        <ele>746.8</ele>
        <time>2015-09-18T12:11:10Z</time>
      </trkpt>
      <trkpt lat="42.48219" lon="2.80456">
        <ele>743.2</ele>
        <time>2015-09-18T12:11:11Z</time>
      </trkpt>
      <trkpt lat="42.48225" lon="2.80453">
        <ele>739.9</ele>
        <time>2015-09-18T12:11:12Z</time>
      </trkpt>
      <trkpt lat="42.48229" lon="2.80447">
        <ele>736.5</ele>
        <time>2015-09-18T12:11:13Z</time>
      </trkpt>
      <trkpt lat="42.48234" lon="2.80441">
        <ele>733.1</ele>
        <time>2015-09-18T12:11:14Z</time>
      </trkpt>
      <trkpt lat="42.48239" lon="2.80433">
        <ele>729.8</ele>
        <time>2015-09-18T12:11:15Z</time>
      </trkpt>
      <trkpt lat="42.48244" lon="2.80426">
        <ele>726.9</ele>
        <time>2015-09-18T12:11:16Z</time>
      </trkpt>
      <trkpt lat="42.4825" lon="2.80418">
        <ele>724.4</ele>
        <time>2015-09-18T12:11:17Z</time>
      </trkpt>
      <trkpt lat="42.48255" lon="2.80411">
        <ele>721.8</ele>
        <time>2015-09-18T12:11:18Z</time>
      </trkpt>
      <trkpt lat="42.48261" lon="2.80404">
        <ele>717.3</ele>
        <time>2015-09-18T12:11:19Z</time>
      </trkpt>
      <trkpt lat="42.48266" lon="2.80396">
        <ele>717.3</ele>
        <time>2015-09-18T12:11:20Z</time>
      </trkpt>
      <trkpt lat="42.48277" lon="2.80381">
        <ele>715.6</ele>
        <time>2015-09-18T12:11:22Z</time>
      </trkpt>
      <trkpt lat="42.48282" lon="2.80376">
        <ele>714.6</ele>
        <time>2015-09-18T12:11:23Z</time>
      </trkpt>
      <trkpt lat="42.48286" lon="2.80371">
        <ele>713</ele>
        <time>2015-09-18T12:11:24Z</time>
      </trkpt>
      <trkpt lat="42.48291" lon="2.80364">
        <ele>710.9</ele>
        <time>2015-09-18T12:11:25Z</time>
      </trkpt>
      <trkpt lat="42.48291" lon="2.80364">
        <ele>708.9</ele>
        <time>2015-09-18T12:11:25Z</time>
      </trkpt>
      <trkpt lat="42.483" lon="2.80349">
        <ele>707.2</ele>
        <time>2015-09-18T12:11:27Z</time>
      </trkpt>
      <trkpt lat="42.48305" lon="2.80342">
        <ele>705.6</ele>
        <time>2015-09-18T12:11:28Z</time>
      </trkpt>
      <trkpt lat="42.48309" lon="2.80335">
        <ele>703.8</ele>
        <time>2015-09-18T12:11:29Z</time>
      </trkpt>
      <trkpt lat="42.48314" lon="2.80327">
        <ele>701.4</ele>
        <time>2015-09-18T12:11:30Z</time>
      </trkpt>
      <trkpt lat="42.48317" lon="2.80317">
        <ele>698.9</ele>
        <time>2015-09-18T12:11:31Z</time>
      </trkpt>
      <trkpt lat="42.48319" lon="2.80307">
        <ele>696.6</ele>
        <time>2015-09-18T12:11:32Z</time>
      </trkpt>
      <trkpt lat="42.48321" lon="2.80297">
        <ele>694.6</ele>
        <time>2015-09-18T12:11:33Z</time>
      </trkpt>
      <trkpt lat="42.48323" lon="2.80288">
        <ele>692.8</ele>
        <time>2015-09-18T12:11:34Z</time>
      </trkpt>
      <trkpt lat="42.48325" lon="2.80278">
        <ele>690.9</ele>
        <time>2015-09-18T12:11:35Z</time>
      </trkpt>
      <trkpt lat="42.48327" lon="2.80269">
        <ele>688.9</ele>
        <time>2015-09-18T12:11:36Z</time>
      </trkpt>
      <trkpt lat="42.4833" lon="2.80249">
        <ele>684.4</ele>
        <time>2015-09-18T12:11:38Z</time>
      </trkpt>
      <trkpt lat="42.48332" lon="2.8024">
        <ele>681.3</ele>
        <time>2015-09-18T12:11:39Z</time>
      </trkpt>
      <trkpt lat="42.48335" lon="2.80231">
        <ele>678.2</ele>
        <time>2015-09-18T12:11:40Z</time>
      </trkpt>
      <trkpt lat="42.48338" lon="2.80222">
        <ele>675.1</ele>
        <time>2015-09-18T12:11:41Z</time>
      </trkpt>
      <trkpt lat="42.4834" lon="2.80213">
        <ele>671.7</ele>
        <time>2015-09-18T12:11:42Z</time>
      </trkpt>
      <trkpt lat="42.48343" lon="2.80203">
        <ele>668.4</ele>
        <time>2015-09-18T12:11:43Z</time>
      </trkpt>
      <trkpt lat="42.48345" lon="2.80193">
        <ele>665.3</ele>
        <time>2015-09-18T12:11:44Z</time>
      </trkpt>
      <trkpt lat="42.48348" lon="2.80182">
        <ele>662.1</ele>
        <time>2015-09-18T12:11:45Z</time>
      </trkpt>
      <trkpt lat="42.48351" lon="2.80172">
        <ele>660.1</ele>
        <time>2015-09-18T12:11:46Z</time>
      </trkpt>
      <trkpt lat="42.48353" lon="2.80161">
        <ele>658.2</ele>
        <time>2015-09-18T12:11:47Z</time>
      </trkpt>
      <trkpt lat="42.48355" lon="2.8015">
        <ele>656.6</ele>
        <time>2015-09-18T12:11:48Z</time>
      </trkpt>
      <trkpt lat="42.48357" lon="2.80139">
        <ele>654.5</ele>
        <time>2015-09-18T12:11:49Z</time>
      </trkpt>
      <trkpt lat="42.48358" lon="2.80128">
        <ele>652.8</ele>
        <time>2015-09-18T12:11:50Z</time>
      </trkpt>
      <trkpt lat="42.4836" lon="2.80116">
        <ele>650.9</ele>
        <time>2015-09-18T12:11:51Z</time>
      </trkpt>
      <trkpt lat="42.48361" lon="2.80104">
        <ele>647.5</ele>
        <time>2015-09-18T12:11:52Z</time>
      </trkpt>
      <trkpt lat="42.48363" lon="2.80092">
        <ele>645.7</ele>
        <time>2015-09-18T12:11:53Z</time>
      </trkpt>
      <trkpt lat="42.48365" lon="2.80067">
        <ele>644</ele>
        <time>2015-09-18T12:11:55Z</time>
      </trkpt>
      <trkpt lat="42.48365" lon="2.80067">
        <ele>642.5</ele>
        <time>2015-09-18T12:11:55Z</time>
      </trkpt>
      <trkpt lat="42.48368" lon="2.80041">
        <ele>641.3</ele>
        <time>2015-09-18T12:11:57Z</time>
      </trkpt>
      <trkpt lat="42.48368" lon="2.80028">
        <ele>640.5</ele>
        <time>2015-09-18T12:11:58Z</time>
      </trkpt>
      <trkpt lat="42.48369" lon="2.80015">
        <ele>640.2</ele>
        <time>2015-09-18T12:11:59Z</time>
      </trkpt>
      <trkpt lat="42.4837" lon="2.80003">
        <ele>640</ele>
        <time>2015-09-18T12:12:00Z</time>
      </trkpt>
      <trkpt lat="42.48372" lon="2.79991">
        <ele>639.8</ele>
        <time>2015-09-18T12:12:01Z</time>
      </trkpt>
      <trkpt lat="42.48372" lon="2.79979">
        <ele>639.9</ele>
        <time>2015-09-18T12:12:02Z</time>
      </trkpt>
      <trkpt lat="42.48374" lon="2.79966">
        <ele>639.3</ele>
        <time>2015-09-18T12:12:03Z</time>
      </trkpt>
      <trkpt lat="42.48375" lon="2.79954">
        <ele>639.1</ele>
        <time>2015-09-18T12:12:04Z</time>
      </trkpt>
      <trkpt lat="42.48376" lon="2.79942">
        <ele>639</ele>
        <time>2015-09-18T12:12:05Z</time>
      </trkpt>
      <trkpt lat="42.48376" lon="2.7993">
        <ele>637.8</ele>
        <time>2015-09-18T12:12:06Z</time>
      </trkpt>
      <trkpt lat="42.48376" lon="2.79917">
        <ele>637.8</ele>
        <time>2015-09-18T12:12:07Z</time>
      </trkpt>
      <trkpt lat="42.48376" lon="2.79904">
        <ele>636.8</ele>
        <time>2015-09-18T12:12:08Z</time>
      </trkpt>
      <trkpt lat="42.48376" lon="2.79877">
        <ele>634.8</ele>
        <time>2015-09-18T12:12:10Z</time>
      </trkpt>
      <trkpt lat="42.48376" lon="2.79877">
        <ele>633.8</ele>
        <time>2015-09-18T12:12:10Z</time>
      </trkpt>
      <trkpt lat="42.48377" lon="2.79853">
        <ele>632.7</ele>
        <time>2015-09-18T12:12:12Z</time>
      </trkpt>
      <trkpt lat="42.48378" lon="2.79841">
        <ele>631.2</ele>
        <time>2015-09-18T12:12:13Z</time>
      </trkpt>
      <trkpt lat="42.48378" lon="2.79829">
        <ele>629.6</ele>
        <time>2015-09-18T12:12:14Z</time>
      </trkpt>
      <trkpt lat="42.48379" lon="2.79816">
        <ele>627.7</ele>
        <time>2015-09-18T12:12:15Z</time>
      </trkpt>
      <trkpt lat="42.48379" lon="2.79816">
        <ele>625.7</ele>
        <time>2015-09-18T12:12:15Z</time>
      </trkpt>
      <trkpt lat="42.48379" lon="2.79791">
        <ele>623.4</ele>
        <time>2015-09-18T12:12:17Z</time>
      </trkpt>
      <trkpt lat="42.48379" lon="2.79777">
        <ele>621.4</ele>
        <time>2015-09-18T12:12:18Z</time>
      </trkpt>
      <trkpt lat="42.48378" lon="2.79764">
        <ele>619.5</ele>
        <time>2015-09-18T12:12:19Z</time>
      </trkpt>
      <trkpt lat="42.48378" lon="2.7975">
        <ele>617.5</ele>
        <time>2015-09-18T12:12:20Z</time>
      </trkpt>
      <trkpt lat="42.48377" lon="2.79735">
        <ele>615.6</ele>
        <time>2015-09-18T12:12:21Z</time>
      </trkpt>
      <trkpt lat="42.48376" lon="2.79721">
        <ele>614.1</ele>
        <time>2015-09-18T12:12:22Z</time>
      </trkpt>
      <trkpt lat="42.48376" lon="2.79707">
        <ele>612.8</ele>
        <time>2015-09-18T12:12:23Z</time>
      </trkpt>
      <trkpt lat="42.48376" lon="2.79694">
        <ele>611.7</ele>
        <time>2015-09-18T12:12:24Z</time>
      </trkpt>
      <trkpt lat="42.48376" lon="2.79681">
        <ele>608.4</ele>
        <time>2015-09-18T12:12:25Z</time>
      </trkpt>
      <trkpt lat="42.48375" lon="2.79669">
        <ele>608.4</ele>
        <time>2015-09-18T12:12:26Z</time>
      </trkpt>
      <trkpt lat="42.48375" lon="2.79643">
        <ele>603.8</ele>
        <time>2015-09-18T12:12:28Z</time>
      </trkpt>
      <trkpt lat="42.48375" lon="2.7963">
        <ele>601.8</ele>
        <time>2015-09-18T12:12:29Z</time>
      </trkpt>
      <trkpt lat="42.48375" lon="2.79616">
        <ele>599.8</ele>
        <time>2015-09-18T12:12:30Z</time>
      </trkpt>
      <trkpt lat="42.48375" lon="2.79616">
        <ele>597.9</ele>
        <time>2015-09-18T12:12:30Z</time>
      </trkpt>
      <trkpt lat="42.48376" lon="2.79591">
        <ele>595.9</ele>
        <time>2015-09-18T12:12:32Z</time>
      </trkpt>
      <trkpt lat="42.48376" lon="2.7958">
        <ele>593.8</ele>
        <time>2015-09-18T12:12:33Z</time>
      </trkpt>
      <trkpt lat="42.48377" lon="2.79569">
        <ele>591.8</ele>
        <time>2015-09-18T12:12:34Z</time>
      </trkpt>
      <trkpt lat="42.48378" lon="2.79558">
        <ele>590</ele>
        <time>2015-09-18T12:12:35Z</time>
      </trkpt>
      <trkpt lat="42.48378" lon="2.79549">
        <ele>587.6</ele>
        <time>2015-09-18T12:12:36Z</time>
      </trkpt>
      <trkpt lat="42.48379" lon="2.79538">
        <ele>584.4</ele>
        <time>2015-09-18T12:12:37Z</time>
      </trkpt>
      <trkpt lat="42.48379" lon="2.79527">
        <ele>580.4</ele>
        <time>2015-09-18T12:12:38Z</time>
      </trkpt>
      <trkpt lat="42.4838" lon="2.79514">
        <ele>576.3</ele>
        <time>2015-09-18T12:12:39Z</time>
      </trkpt>
      <trkpt lat="42.48381" lon="2.795">
        <ele>572.8</ele>
        <time>2015-09-18T12:12:40Z</time>
      </trkpt>
      <trkpt lat="42.48382" lon="2.79486">
        <ele>570</ele>
        <time>2015-09-18T12:12:41Z</time>
      </trkpt>
      <trkpt lat="42.48382" lon="2.79472">
        <ele>567.3</ele>
        <time>2015-09-18T12:12:42Z</time>
      </trkpt>
      <trkpt lat="42.48382" lon="2.79459">
        <ele>564.3</ele>
        <time>2015-09-18T12:12:43Z</time>
      </trkpt>
      <trkpt lat="42.48382" lon="2.79447">
        <ele>560.7</ele>
        <time>2015-09-18T12:12:44Z</time>
      </trkpt>
      <trkpt lat="42.48382" lon="2.79447">
        <ele>552.8</ele>
        <time>2015-09-18T12:12:44Z</time>
      </trkpt>
      <trkpt lat="42.48382" lon="2.79403">
        <ele>549.6</ele>
        <time>2015-09-18T12:12:47Z</time>
      </trkpt>
      <trkpt lat="42.4838" lon="2.79387">
        <ele>547.1</ele>
        <time>2015-09-18T12:12:48Z</time>
      </trkpt>
      <trkpt lat="42.48379" lon="2.79372">
        <ele>545</ele>
        <time>2015-09-18T12:12:49Z</time>
      </trkpt>
      <trkpt lat="42.48378" lon="2.79358">
        <ele>542.9</ele>
        <time>2015-09-18T12:12:50Z</time>
      </trkpt>
      <trkpt lat="42.48378" lon="2.79344">
        <ele>540.3</ele>
        <time>2015-09-18T12:12:51Z</time>
      </trkpt>
      <trkpt lat="42.48378" lon="2.79329">
        <ele>537.7</ele>
        <time>2015-09-18T12:12:52Z</time>
      </trkpt>
      <trkpt lat="42.48378" lon="2.79314">
        <ele>535.2</ele>
        <time>2015-09-18T12:12:53Z</time>
      </trkpt>
      <trkpt lat="42.48378" lon="2.79298">
        <ele>532.7</ele>
        <time>2015-09-18T12:12:54Z</time>
      </trkpt>
      <trkpt lat="42.48379" lon="2.79282">
        <ele>530.5</ele>
        <time>2015-09-18T12:12:55Z</time>
      </trkpt>
      <trkpt lat="42.4838" lon="2.79266">
        <ele>528.3</ele>
        <time>2015-09-18T12:12:56Z</time>
      </trkpt>
      <trkpt lat="42.4838" lon="2.79251">
        <ele>526.1</ele>
        <time>2015-09-18T12:12:57Z</time>
      </trkpt>
      <trkpt lat="42.48379" lon="2.79236">
        <ele>523.3</ele>
        <time>2015-09-18T12:12:58Z</time>
      </trkpt>
      <trkpt lat="42.48378" lon="2.79221">
        <ele>520.4</ele>
        <time>2015-09-18T12:12:59Z</time>
      </trkpt>
      <trkpt lat="42.48376" lon="2.79206">
        <ele>514.4</ele>
        <time>2015-09-18T12:13:00Z</time>
      </trkpt>
      <trkpt lat="42.48374" lon="2.79175">
        <ele>511.1</ele>
        <time>2015-09-18T12:13:02Z</time>
      </trkpt>
      <trkpt lat="42.48374" lon="2.79158">
        <ele>508.3</ele>
        <time>2015-09-18T12:13:03Z</time>
      </trkpt>
      <trkpt lat="42.48374" lon="2.79143">
        <ele>506</ele>
        <time>2015-09-18T12:13:04Z</time>
      </trkpt>
      <trkpt lat="42.48373" lon="2.79127">
        <ele>506</ele>
        <time>2015-09-18T12:13:05Z</time>
      </trkpt>
      <trkpt lat="42.48373" lon="2.79127">
        <ele>500.6</ele>
        <time>2015-09-18T12:13:05Z</time>
      </trkpt>
      <trkpt lat="42.48371" lon="2.79096">
        <ele>497.9</ele>
        <time>2015-09-18T12:13:07Z</time>
      </trkpt>
      <trkpt lat="42.48371" lon="2.79081">
        <ele>495.1</ele>
        <time>2015-09-18T12:13:08Z</time>
      </trkpt>
      <trkpt lat="42.48372" lon="2.79066">
        <ele>492.4</ele>
        <time>2015-09-18T12:13:09Z</time>
      </trkpt>
      <trkpt lat="42.48372" lon="2.79052">
        <ele>490</ele>
        <time>2015-09-18T12:13:10Z</time>
      </trkpt>
      <trkpt lat="42.48371" lon="2.79038">
        <ele>487</ele>
        <time>2015-09-18T12:13:11Z</time>
      </trkpt>
      <trkpt lat="42.48371" lon="2.79024">
        <ele>483.6</ele>
        <time>2015-09-18T12:13:12Z</time>
      </trkpt>
      <trkpt lat="42.48371" lon="2.79009">
        <ele>480</ele>
        <time>2015-09-18T12:13:13Z</time>
      </trkpt>
      <trkpt lat="42.48371" lon="2.78993">
        <ele>476.8</ele>
        <time>2015-09-18T12:13:14Z</time>
      </trkpt>
      <trkpt lat="42.48372" lon="2.78978">
        <ele>474</ele>
        <time>2015-09-18T12:13:15Z</time>
      </trkpt>
      <trkpt lat="42.48372" lon="2.78962">
        <ele>471.8</ele>
        <time>2015-09-18T12:13:16Z</time>
      </trkpt>
      <trkpt lat="42.48372" lon="2.78948">
        <ele>466.5</ele>
        <time>2015-09-18T12:13:17Z</time>
      </trkpt>
      <trkpt lat="42.48371" lon="2.78918">
        <ele>466.5</ele>
        <time>2015-09-18T12:13:19Z</time>
      </trkpt>
      <trkpt lat="42.4837" lon="2.78903">
        <ele>461</ele>
        <time>2015-09-18T12:13:20Z</time>
      </trkpt>
      <trkpt lat="42.4837" lon="2.78903">
        <ele>459</ele>
        <time>2015-09-18T12:13:20Z</time>
      </trkpt>
      <trkpt lat="42.4837" lon="2.78873">
        <ele>457.9</ele>
        <time>2015-09-18T12:13:22Z</time>
      </trkpt>
      <trkpt lat="42.48369" lon="2.78858">
        <ele>456.5</ele>
        <time>2015-09-18T12:13:23Z</time>
      </trkpt>
      <trkpt lat="42.48369" lon="2.78844">
        <ele>454.6</ele>
        <time>2015-09-18T12:13:24Z</time>
      </trkpt>
      <trkpt lat="42.48367" lon="2.7883">
        <ele>451.7</ele>
        <time>2015-09-18T12:13:25Z</time>
      </trkpt>
      <trkpt lat="42.48366" lon="2.78814">
        <ele>448.3</ele>
        <time>2015-09-18T12:13:26Z</time>
      </trkpt>
      <trkpt lat="42.48365" lon="2.78799">
        <ele>445.4</ele>
        <time>2015-09-18T12:13:27Z</time>
      </trkpt>
      <trkpt lat="42.48365" lon="2.78783">
        <ele>442.8</ele>
        <time>2015-09-18T12:13:28Z</time>
      </trkpt>
      <trkpt lat="42.48364" lon="2.78767">
        <ele>440.7</ele>
        <time>2015-09-18T12:13:29Z</time>
      </trkpt>
      <trkpt lat="42.48363" lon="2.78752">
        <ele>439</ele>
        <time>2015-09-18T12:13:30Z</time>
      </trkpt>
      <trkpt lat="42.48361" lon="2.78738">
        <ele>436.6</ele>
        <time>2015-09-18T12:13:31Z</time>
      </trkpt>
      <trkpt lat="42.48359" lon="2.78723">
        <ele>433.4</ele>
        <time>2015-09-18T12:13:32Z</time>
      </trkpt>
      <trkpt lat="42.48357" lon="2.78707">
        <ele>430.6</ele>
        <time>2015-09-18T12:13:33Z</time>
      </trkpt>
      <trkpt lat="42.48355" lon="2.7869">
        <ele>427.1</ele>
        <time>2015-09-18T12:13:34Z</time>
      </trkpt>
      <trkpt lat="42.48353" lon="2.78673">
        <ele>427.1</ele>
        <time>2015-09-18T12:13:35Z</time>
      </trkpt>
      <trkpt lat="42.48351" lon="2.78658">
        <ele>425</ele>
        <time>2015-09-18T12:13:36Z</time>
      </trkpt>
      <trkpt lat="42.48345" lon="2.78628">
        <ele>422.9</ele>
        <time>2015-09-18T12:13:38Z</time>
      </trkpt>
      <trkpt lat="42.48343" lon="2.78613">
        <ele>420.2</ele>
        <time>2015-09-18T12:13:39Z</time>
      </trkpt>
      <trkpt lat="42.4834" lon="2.78596">
        <ele>417.8</ele>
        <time>2015-09-18T12:13:40Z</time>
      </trkpt>
      <trkpt lat="42.48339" lon="2.78579">
        <ele>415.8</ele>
        <time>2015-09-18T12:13:41Z</time>
      </trkpt>
      <trkpt lat="42.48337" lon="2.78563">
        <ele>414.5</ele>
        <time>2015-09-18T12:13:42Z</time>
      </trkpt>
      <trkpt lat="42.48335" lon="2.78547">
        <ele>413.6</ele>
        <time>2015-09-18T12:13:43Z</time>
      </trkpt>
      <trkpt lat="42.48333" lon="2.78531">
        <ele>412.5</ele>
        <time>2015-09-18T12:13:44Z</time>
      </trkpt>
      <trkpt lat="42.48331" lon="2.78515">
        <ele>411.5</ele>
        <time>2015-09-18T12:13:45Z</time>
      </trkpt>
      <trkpt lat="42.4833" lon="2.785">
        <ele>410.2</ele>
        <time>2015-09-18T12:13:46Z</time>
      </trkpt>
      <trkpt lat="42.48329" lon="2.78486">
        <ele>408.6</ele>
        <time>2015-09-18T12:13:47Z</time>
      </trkpt>
      <trkpt lat="42.48328" lon="2.78471">
        <ele>403.8</ele>
        <time>2015-09-18T12:13:48Z</time>
      </trkpt>
      <trkpt lat="42.48327" lon="2.78456">
        <ele>403.8</ele>
        <time>2015-09-18T12:13:49Z</time>
      </trkpt>
      <trkpt lat="42.48325" lon="2.78439">
        <ele>399.7</ele>
        <time>2015-09-18T12:13:50Z</time>
      </trkpt>
      <trkpt lat="42.48324" lon="2.78406">
        <ele>398.3</ele>
        <time>2015-09-18T12:13:52Z</time>
      </trkpt>
      <trkpt lat="42.48323" lon="2.7839">
        <ele>396.8</ele>
        <time>2015-09-18T12:13:53Z</time>
      </trkpt>
      <trkpt lat="42.48322" lon="2.78374">
        <ele>394.9</ele>
        <time>2015-09-18T12:13:54Z</time>
      </trkpt>
      <trkpt lat="42.4832" lon="2.78358">
        <ele>392.7</ele>
        <time>2015-09-18T12:13:55Z</time>
      </trkpt>
      <trkpt lat="42.4832" lon="2.78358">
        <ele>390.7</ele>
        <time>2015-09-18T12:13:55Z</time>
      </trkpt>
      <trkpt lat="42.48314" lon="2.78324">
        <ele>389.5</ele>
        <time>2015-09-18T12:13:57Z</time>
      </trkpt>
      <trkpt lat="42.48311" lon="2.78307">
        <ele>388.8</ele>
        <time>2015-09-18T12:13:58Z</time>
      </trkpt>
      <trkpt lat="42.48308" lon="2.78291">
        <ele>388.1</ele>
        <time>2015-09-18T12:13:59Z</time>
      </trkpt>
      <trkpt lat="42.48306" lon="2.78276">
        <ele>387.2</ele>
        <time>2015-09-18T12:14:00Z</time>
      </trkpt>
      <trkpt lat="42.48304" lon="2.7826">
        <ele>386.4</ele>
        <time>2015-09-18T12:14:01Z</time>
      </trkpt>
      <trkpt lat="42.48303" lon="2.78244">
        <ele>385.7</ele>
        <time>2015-09-18T12:14:02Z</time>
      </trkpt>
      <trkpt lat="42.48302" lon="2.78228">
        <ele>384.7</ele>
        <time>2015-09-18T12:14:03Z</time>
      </trkpt>
      <trkpt lat="42.483" lon="2.78213">
        <ele>383.5</ele>
        <time>2015-09-18T12:14:04Z</time>
      </trkpt>
      <trkpt lat="42.48298" lon="2.78196">
        <ele>382.5</ele>
        <time>2015-09-18T12:14:05Z</time>
      </trkpt>
      <trkpt lat="42.48295" lon="2.7818">
        <ele>381.3</ele>
        <time>2015-09-18T12:14:06Z</time>
      </trkpt>
      <trkpt lat="42.48292" lon="2.78165">
        <ele>380.6</ele>
        <time>2015-09-18T12:14:07Z</time>
      </trkpt>
      <trkpt lat="42.48286" lon="2.78134">
        <ele>379.5</ele>
        <time>2015-09-18T12:14:09Z</time>
      </trkpt>
      <trkpt lat="42.48283" lon="2.78119">
        <ele>378.3</ele>
        <time>2015-09-18T12:14:10Z</time>
      </trkpt>
      <trkpt lat="42.48283" lon="2.78119">
        <ele>377.3</ele>
        <time>2015-09-18T12:14:10Z</time>
      </trkpt>
      <trkpt lat="42.48275" lon="2.78088">
        <ele>376.9</ele>
        <time>2015-09-18T12:14:12Z</time>
      </trkpt>
      <trkpt lat="42.48271" lon="2.78074">
        <ele>376.5</ele>
        <time>2015-09-18T12:14:13Z</time>
      </trkpt>
      <trkpt lat="42.48266" lon="2.7806">
        <ele>375.5</ele>
        <time>2015-09-18T12:14:14Z</time>
      </trkpt>
      <trkpt lat="42.48262" lon="2.78047">
        <ele>373.9</ele>
        <time>2015-09-18T12:14:15Z</time>
      </trkpt>
      <trkpt lat="42.48258" lon="2.78033">
        <ele>371.8</ele>
        <time>2015-09-18T12:14:16Z</time>
      </trkpt>
      <trkpt lat="42.48254" lon="2.78017">
        <ele>369.7</ele>
        <time>2015-09-18T12:14:17Z</time>
      </trkpt>
      <trkpt lat="42.4825" lon="2.78001">
        <ele>368.2</ele>
        <time>2015-09-18T12:14:18Z</time>
      </trkpt>
      <trkpt lat="42.48246" lon="2.77984">
        <ele>367.9</ele>
        <time>2015-09-18T12:14:19Z</time>
      </trkpt>
      <trkpt lat="42.48243" lon="2.77969">
        <ele>368</ele>
        <time>2015-09-18T12:14:20Z</time>
      </trkpt>
      <trkpt lat="42.4824" lon="2.77954">
        <ele>367.8</ele>
        <time>2015-09-18T12:14:21Z</time>
      </trkpt>
      <trkpt lat="42.48237" lon="2.7794">
        <ele>367.1</ele>
        <time>2015-09-18T12:14:22Z</time>
      </trkpt>
      <trkpt lat="42.48235" lon="2.77925">
        <ele>366.4</ele>
        <time>2015-09-18T12:14:23Z</time>
      </trkpt>
      <trkpt lat="42.48232" lon="2.7791">
        <ele>365.9</ele>
        <time>2015-09-18T12:14:24Z</time>
      </trkpt>
      <trkpt lat="42.48232" lon="2.7791">
        <ele>366.2</ele>
        <time>2015-09-18T12:14:24Z</time>
      </trkpt>
      <trkpt lat="42.48225" lon="2.77866">
        <ele>365.9</ele>
        <time>2015-09-18T12:14:27Z</time>
      </trkpt>
      <trkpt lat="42.48223" lon="2.77852">
        <ele>364.4</ele>
        <time>2015-09-18T12:14:28Z</time>
      </trkpt>
      <trkpt lat="42.48221" lon="2.77838">
        <ele>362.5</ele>
        <time>2015-09-18T12:14:29Z</time>
      </trkpt>
      <trkpt lat="42.48219" lon="2.77823">
        <ele>361.1</ele>
        <time>2015-09-18T12:14:30Z</time>
      </trkpt>
      <trkpt lat="42.48216" lon="2.77808">
        <ele>360.7</ele>
        <time>2015-09-18T12:14:31Z</time>
      </trkpt>
      <trkpt lat="42.48213" lon="2.77795">
        <ele>360.7</ele>
        <time>2015-09-18T12:14:32Z</time>
      </trkpt>
      <trkpt lat="42.4821" lon="2.77781">
        <ele>360.7</ele>
        <time>2015-09-18T12:14:33Z</time>
      </trkpt>
      <trkpt lat="42.48208" lon="2.77767">
        <ele>361.4</ele>
        <time>2015-09-18T12:14:34Z</time>
      </trkpt>
      <trkpt lat="42.48205" lon="2.77754">
        <ele>361.8</ele>
        <time>2015-09-18T12:14:35Z</time>
      </trkpt>
      <trkpt lat="42.48201" lon="2.77741">
        <ele>362.1</ele>
        <time>2015-09-18T12:14:36Z</time>
      </trkpt>
      <trkpt lat="42.48197" lon="2.77728">
        <ele>362.7</ele>
        <time>2015-09-18T12:14:37Z</time>
      </trkpt>
      <trkpt lat="42.48191" lon="2.77699">
        <ele>363.1</ele>
        <time>2015-09-18T12:14:39Z</time>
      </trkpt>
      <trkpt lat="42.48191" lon="2.77685">
        <ele>363.1</ele>
        <time>2015-09-18T12:14:40Z</time>
      </trkpt>
      <trkpt lat="42.48191" lon="2.77685">
        <ele>363.5</ele>
        <time>2015-09-18T12:14:40Z</time>
      </trkpt>
      <trkpt lat="42.48199" lon="2.77662">
        <ele>363.4</ele>
        <time>2015-09-18T12:14:42Z</time>
      </trkpt>
      <trkpt lat="42.48206" lon="2.77659">
        <ele>364.6</ele>
        <time>2015-09-18T12:14:43Z</time>
      </trkpt>
      <trkpt lat="42.48213" lon="2.77659">
        <ele>366.4</ele>
        <time>2015-09-18T12:14:44Z</time>
      </trkpt>
      <trkpt lat="42.48218" lon="2.77663">
        <ele>368.2</ele>
        <time>2015-09-18T12:14:45Z</time>
      </trkpt>
      <trkpt lat="42.48221" lon="2.77668">
        <ele>369.6</ele>
        <time>2015-09-18T12:14:46Z</time>
      </trkpt>
      <trkpt lat="42.48225" lon="2.77672">
        <ele>371</ele>
        <time>2015-09-18T12:14:47Z</time>
      </trkpt>
      <trkpt lat="42.4823" lon="2.77678">
        <ele>372.5</ele>
        <time>2015-09-18T12:14:48Z</time>
      </trkpt>
      <trkpt lat="42.48236" lon="2.77682">
        <ele>374.3</ele>
        <time>2015-09-18T12:14:49Z</time>
      </trkpt>
      <trkpt lat="42.48242" lon="2.77686">
        <ele>374.3</ele>
        <time>2015-09-18T12:14:50Z</time>
      </trkpt>
      <trkpt lat="42.48247" lon="2.77689">
        <ele>379.4</ele>
        <time>2015-09-18T12:14:51Z</time>
      </trkpt>
      <trkpt lat="42.4825" lon="2.77693">
        <ele>380.9</ele>
        <time>2015-09-18T12:14:52Z</time>
      </trkpt>
      <trkpt lat="42.48251" lon="2.77699">
        <ele>380</ele>
        <time>2015-09-18T12:14:53Z</time>
      </trkpt>
      <trkpt lat="42.48251" lon="2.77705">
        <ele>380</ele>
        <time>2015-09-18T12:14:54Z</time>
      </trkpt>
      <trkpt lat="42.4825" lon="2.77712">
        <ele>380</ele>
        <time>2015-09-18T12:14:55Z</time>
      </trkpt>
      <trkpt lat="42.48244" lon="2.77721">
        <ele>379.6</ele>
        <time>2015-09-18T12:14:57Z</time>
      </trkpt>
      <trkpt lat="42.48239" lon="2.77724">
        <ele>378.6</ele>
        <time>2015-09-18T12:14:58Z</time>
      </trkpt>
      <trkpt lat="42.48232" lon="2.77726">
        <ele>377.7</ele>
        <time>2015-09-18T12:14:59Z</time>
      </trkpt>
      <trkpt lat="42.48224" lon="2.77728">
        <ele>377.1</ele>
        <time>2015-09-18T12:15:00Z</time>
      </trkpt>
      <trkpt lat="42.48217" lon="2.77729">
        <ele>376.6</ele>
        <time>2015-09-18T12:15:01Z</time>
      </trkpt>
      <trkpt lat="42.48209" lon="2.77729">
        <ele>376.4</ele>
        <time>2015-09-18T12:15:02Z</time>
      </trkpt>
      <trkpt lat="42.48201" lon="2.77729">
        <ele>376.2</ele>
        <time>2015-09-18T12:15:03Z</time>
      </trkpt>
      <trkpt lat="42.48193" lon="2.77728">
        <ele>375.4</ele>
        <time>2015-09-18T12:15:04Z</time>
      </trkpt>
      <trkpt lat="42.48183" lon="2.77726">
        <ele>374.7</ele>
        <time>2015-09-18T12:15:05Z</time>
      </trkpt>
      <trkpt lat="42.48174" lon="2.77723">
        <ele>374.5</ele>
        <time>2015-09-18T12:15:06Z</time>
      </trkpt>
      <trkpt lat="42.48165" lon="2.77719">
        <ele>374.5</ele>
        <time>2015-09-18T12:15:07Z</time>
      </trkpt>
      <trkpt lat="42.48157" lon="2.77715">
        <ele>374.1</ele>
        <time>2015-09-18T12:15:08Z</time>
      </trkpt>
      <trkpt lat="42.48149" lon="2.77711">
        <ele>373</ele>
        <time>2015-09-18T12:15:09Z</time>
      </trkpt>
      <trkpt lat="42.48141" lon="2.77708">
        <ele>368.5</ele>
        <time>2015-09-18T12:15:10Z</time>
      </trkpt>
      <trkpt lat="42.48122" lon="2.777">
        <ele>366.5</ele>
        <time>2015-09-18T12:15:12Z</time>
      </trkpt>
      <trkpt lat="42.48113" lon="2.77694">
        <ele>366</ele>
        <time>2015-09-18T12:15:13Z</time>
      </trkpt>
      <trkpt lat="42.48104" lon="2.77688">
        <ele>365.6</ele>
        <time>2015-09-18T12:15:14Z</time>
      </trkpt>
      <trkpt lat="42.48095" lon="2.77682">
        <ele>365.2</ele>
        <time>2015-09-18T12:15:15Z</time>
      </trkpt>
      <trkpt lat="42.48087" lon="2.77677">
        <ele>364.2</ele>
        <time>2015-09-18T12:15:16Z</time>
      </trkpt>
      <trkpt lat="42.48079" lon="2.77671">
        <ele>363</ele>
        <time>2015-09-18T12:15:17Z</time>
      </trkpt>
      <trkpt lat="42.48071" lon="2.77664">
        <ele>361.6</ele>
        <time>2015-09-18T12:15:18Z</time>
      </trkpt>
      <trkpt lat="42.48064" lon="2.77656">
        <ele>360.8</ele>
        <time>2015-09-18T12:15:19Z</time>
      </trkpt>
      <trkpt lat="42.48055" lon="2.77647">
        <ele>360.8</ele>
        <time>2015-09-18T12:15:20Z</time>
      </trkpt>
      <trkpt lat="42.48046" lon="2.77639">
        <ele>360.7</ele>
        <time>2015-09-18T12:15:21Z</time>
      </trkpt>
      <trkpt lat="42.48039" lon="2.7763">
        <ele>362.1</ele>
        <time>2015-09-18T12:15:22Z</time>
      </trkpt>
      <trkpt lat="42.48032" lon="2.77621">
        <ele>362.7</ele>
        <time>2015-09-18T12:15:23Z</time>
      </trkpt>
      <trkpt lat="42.48026" lon="2.77613">
        <ele>362.4</ele>
        <time>2015-09-18T12:15:24Z</time>
      </trkpt>
      <trkpt lat="42.48017" lon="2.77605">
        <ele>361.5</ele>
        <time>2015-09-18T12:15:25Z</time>
      </trkpt>
      <trkpt lat="42.48009" lon="2.77595">
        <ele>362</ele>
        <time>2015-09-18T12:15:26Z</time>
      </trkpt>
      <trkpt lat="42.47993" lon="2.7757">
        <ele>363.8</ele>
        <time>2015-09-18T12:15:28Z</time>
      </trkpt>
      <trkpt lat="42.47987" lon="2.77557">
        <ele>365.2</ele>
        <time>2015-09-18T12:15:29Z</time>
      </trkpt>
      <trkpt lat="42.47981" lon="2.77544">
        <ele>366.2</ele>
        <time>2015-09-18T12:15:30Z</time>
      </trkpt>
      <trkpt lat="42.47974" lon="2.77532">
        <ele>366.9</ele>
        <time>2015-09-18T12:15:31Z</time>
      </trkpt>
      <trkpt lat="42.47967" lon="2.7752">
        <ele>367.3</ele>
        <time>2015-09-18T12:15:32Z</time>
      </trkpt>
      <trkpt lat="42.4796" lon="2.77507">
        <ele>367.3</ele>
        <time>2015-09-18T12:15:33Z</time>
      </trkpt>
      <trkpt lat="42.47953" lon="2.77493">
        <ele>369.2</ele>
        <time>2015-09-18T12:15:34Z</time>
      </trkpt>
      <trkpt lat="42.47949" lon="2.77477">
        <ele>370.5</ele>
        <time>2015-09-18T12:15:35Z</time>
      </trkpt>
      <trkpt lat="42.47945" lon="2.77462">
        <ele>371.8</ele>
        <time>2015-09-18T12:15:36Z</time>
      </trkpt>
      <trkpt lat="42.47943" lon="2.77447">
        <ele>372.8</ele>
        <time>2015-09-18T12:15:37Z</time>
      </trkpt>
      <trkpt lat="42.47944" lon="2.77433">
        <ele>372.8</ele>
        <time>2015-09-18T12:15:38Z</time>
      </trkpt>
      <trkpt lat="42.47947" lon="2.7742">
        <ele>372.2</ele>
        <time>2015-09-18T12:15:39Z</time>
      </trkpt>
      <trkpt lat="42.47952" lon="2.77408">
        <ele>372.2</ele>
        <time>2015-09-18T12:15:40Z</time>
      </trkpt>
      <trkpt lat="42.47958" lon="2.77397">
        <ele>373.2</ele>
        <time>2015-09-18T12:15:41Z</time>
      </trkpt>
      <trkpt lat="42.47964" lon="2.7739">
        <ele>374.1</ele>
        <time>2015-09-18T12:15:42Z</time>
      </trkpt>
      <trkpt lat="42.47971" lon="2.77386">
        <ele>375.1</ele>
        <time>2015-09-18T12:15:43Z</time>
      </trkpt>
      <trkpt lat="42.47977" lon="2.77386">
        <ele>375.3</ele>
        <time>2015-09-18T12:15:44Z</time>
      </trkpt>
      <trkpt lat="42.47977" lon="2.77386">
        <ele>375</ele>
        <time>2015-09-18T12:15:44Z</time>
      </trkpt>
      <trkpt lat="42.47989" lon="2.77397">
        <ele>374.7</ele>
        <time>2015-09-18T12:15:47Z</time>
      </trkpt>
      <trkpt lat="42.47993" lon="2.77401">
        <ele>374.4</ele>
        <time>2015-09-18T12:15:48Z</time>
      </trkpt>
      <trkpt lat="42.47996" lon="2.77404">
        <ele>374.2</ele>
        <time>2015-09-18T12:15:49Z</time>
      </trkpt>
      <trkpt lat="42.47998" lon="2.77408">
        <ele>374.3</ele>
        <time>2015-09-18T12:15:50Z</time>
      </trkpt>
      <trkpt lat="42.48" lon="2.77413">
        <ele>374.3</ele>
        <time>2015-09-18T12:15:51Z</time>
      </trkpt>
      <trkpt lat="42.48001" lon="2.77418">
        <ele>374.1</ele>
        <time>2015-09-18T12:15:52Z</time>
      </trkpt>
      <trkpt lat="42.48002" lon="2.77424">
        <ele>374.3</ele>
        <time>2015-09-18T12:15:53Z</time>
      </trkpt>
      <trkpt lat="42.48004" lon="2.77429">
        <ele>374.9</ele>
        <time>2015-09-18T12:15:54Z</time>
      </trkpt>
      <trkpt lat="42.48005" lon="2.77434">
        <ele>375.6</ele>
        <time>2015-09-18T12:15:55Z</time>
      </trkpt>
      <trkpt lat="42.48006" lon="2.77439">
        <ele>376.1</ele>
        <time>2015-09-18T12:15:56Z</time>
      </trkpt>
      <trkpt lat="42.48006" lon="2.77445">
        <ele>376.1</ele>
        <time>2015-09-18T12:15:57Z</time>
      </trkpt>
      <trkpt lat="42.48002" lon="2.7746">
        <ele>377.1</ele>
        <time>2015-09-18T12:15:59Z</time>
      </trkpt>
      <trkpt lat="42.47999" lon="2.77468">
        <ele>378.6</ele>
        <time>2015-09-18T12:16:00Z</time>
      </trkpt>
      <trkpt lat="42.47999" lon="2.77468">
        <ele>379.9</ele>
        <time>2015-09-18T12:16:00Z</time>
      </trkpt>
      <trkpt lat="42.47995" lon="2.77481">
        <ele>380.9</ele>
        <time>2015-09-18T12:16:02Z</time>
      </trkpt>
      <trkpt lat="42.47994" lon="2.77488">
        <ele>381.8</ele>
        <time>2015-09-18T12:16:03Z</time>
      </trkpt>
      <trkpt lat="42.47993" lon="2.77495">
        <ele>382.6</ele>
        <time>2015-09-18T12:16:04Z</time>
      </trkpt>
      <trkpt lat="42.4799" lon="2.77501">
        <ele>382.9</ele>
        <time>2015-09-18T12:16:05Z</time>
      </trkpt>
      <trkpt lat="42.47985" lon="2.77508">
        <ele>382.9</ele>
        <time>2015-09-18T12:16:06Z</time>
      </trkpt>
      <trkpt lat="42.47979" lon="2.77515">
        <ele>383.3</ele>
        <time>2015-09-18T12:16:07Z</time>
      </trkpt>
      <trkpt lat="42.47972" lon="2.77519">
        <ele>383.3</ele>
        <time>2015-09-18T12:16:08Z</time>
      </trkpt>
      <trkpt lat="42.47965" lon="2.7752">
        <ele>382.4</ele>
        <time>2015-09-18T12:16:09Z</time>
      </trkpt>
      <trkpt lat="42.47957" lon="2.77517">
        <ele>382.4</ele>
        <time>2015-09-18T12:16:10Z</time>
      </trkpt>
      <trkpt lat="42.47947" lon="2.77513">
        <ele>379.4</ele>
        <time>2015-09-18T12:16:11Z</time>
      </trkpt>
      <trkpt lat="42.47938" lon="2.77507">
        <ele>379.3</ele>
        <time>2015-09-18T12:16:12Z</time>
      </trkpt>
      <trkpt lat="42.47929" lon="2.77498">
        <ele>378.2</ele>
        <time>2015-09-18T12:16:13Z</time>
      </trkpt>
      <trkpt lat="42.47918" lon="2.77474">
        <ele>377.8</ele>
        <time>2015-09-18T12:16:15Z</time>
      </trkpt>
      <trkpt lat="42.47918" lon="2.77474">
        <ele>377.5</ele>
        <time>2015-09-18T12:16:15Z</time>
      </trkpt>
      <trkpt lat="42.47911" lon="2.77446">
        <ele>376.9</ele>
        <time>2015-09-18T12:16:17Z</time>
      </trkpt>
      <trkpt lat="42.47911" lon="2.77432">
        <ele>375.6</ele>
        <time>2015-09-18T12:16:18Z</time>
      </trkpt>
      <trkpt lat="42.47913" lon="2.77418">
        <ele>374</ele>
        <time>2015-09-18T12:16:19Z</time>
      </trkpt>
      <trkpt lat="42.47917" lon="2.77404">
        <ele>372.7</ele>
        <time>2015-09-18T12:16:20Z</time>
      </trkpt>
      <trkpt lat="42.47923" lon="2.77392">
        <ele>372.1</ele>
        <time>2015-09-18T12:16:21Z</time>
      </trkpt>
      <trkpt lat="42.4793" lon="2.77381">
        <ele>372</ele>
        <time>2015-09-18T12:16:22Z</time>
      </trkpt>
      <trkpt lat="42.47936" lon="2.7737">
        <ele>372.1</ele>
        <time>2015-09-18T12:16:23Z</time>
      </trkpt>
      <trkpt lat="42.47942" lon="2.77358">
        <ele>373</ele>
        <time>2015-09-18T12:16:24Z</time>
      </trkpt>
      <trkpt lat="42.47947" lon="2.77346">
        <ele>374.4</ele>
        <time>2015-09-18T12:16:25Z</time>
      </trkpt>
      <trkpt lat="42.4795" lon="2.77334">
        <ele>375.8</ele>
        <time>2015-09-18T12:16:26Z</time>
      </trkpt>
      <trkpt lat="42.47954" lon="2.77324">
        <ele>376.9</ele>
        <time>2015-09-18T12:16:27Z</time>
      </trkpt>
      <trkpt lat="42.47959" lon="2.77315">
        <ele>377.9</ele>
        <time>2015-09-18T12:16:28Z</time>
      </trkpt>
      <trkpt lat="42.47964" lon="2.7731">
        <ele>379</ele>
        <time>2015-09-18T12:16:29Z</time>
      </trkpt>
      <trkpt lat="42.47969" lon="2.77309">
        <ele>379.9</ele>
        <time>2015-09-18T12:16:30Z</time>
      </trkpt>
      <trkpt lat="42.47973" lon="2.77312">
        <ele>380.5</ele>
        <time>2015-09-18T12:16:31Z</time>
      </trkpt>
      <trkpt lat="42.47974" lon="2.77327">
        <ele>381.9</ele>
        <time>2015-09-18T12:16:33Z</time>
      </trkpt>
      <trkpt lat="42.47971" lon="2.77335">
        <ele>384</ele>
        <time>2015-09-18T12:16:34Z</time>
      </trkpt>
      <trkpt lat="42.47967" lon="2.77342">
        <ele>386.4</ele>
        <time>2015-09-18T12:16:35Z</time>
      </trkpt>
      <trkpt lat="42.47962" lon="2.77347">
        <ele>387.9</ele>
        <time>2015-09-18T12:16:36Z</time>
      </trkpt>
      <trkpt lat="42.47956" lon="2.77347">
        <ele>389.2</ele>
        <time>2015-09-18T12:16:37Z</time>
      </trkpt>
      <trkpt lat="42.47949" lon="2.77345">
        <ele>389.3</ele>
        <time>2015-09-18T12:16:38Z</time>
      </trkpt>
      <trkpt lat="42.47941" lon="2.77337">
        <ele>389</ele>
        <time>2015-09-18T12:16:39Z</time>
      </trkpt>
      <trkpt lat="42.47935" lon="2.77326">
        <ele>388.9</ele>
        <time>2015-09-18T12:16:40Z</time>
      </trkpt>
      <trkpt lat="42.47931" lon="2.77312">
        <ele>388.9</ele>
        <time>2015-09-18T12:16:41Z</time>
      </trkpt>
      <trkpt lat="42.47927" lon="2.77298">
        <ele>389.5</ele>
        <time>2015-09-18T12:16:42Z</time>
      </trkpt>
      <trkpt lat="42.47926" lon="2.77283">
        <ele>389.5</ele>
        <time>2015-09-18T12:16:43Z</time>
      </trkpt>
      <trkpt lat="42.47927" lon="2.77269">
        <ele>389.3</ele>
        <time>2015-09-18T12:16:44Z</time>
      </trkpt>
      <trkpt lat="42.4793" lon="2.77255">
        <ele>391.8</ele>
        <time>2015-09-18T12:16:45Z</time>
      </trkpt>
      <trkpt lat="42.47937" lon="2.77233">
        <ele>393.9</ele>
        <time>2015-09-18T12:16:47Z</time>
      </trkpt>
      <trkpt lat="42.47938" lon="2.77225">
        <ele>395.5</ele>
        <time>2015-09-18T12:16:48Z</time>
      </trkpt>
      <trkpt lat="42.4794" lon="2.77217">
        <ele>396.2</ele>
        <time>2015-09-18T12:16:49Z</time>
      </trkpt>
      <trkpt lat="42.47944" lon="2.77211">
        <ele>396.5</ele>
        <time>2015-09-18T12:16:50Z</time>
      </trkpt>
      <trkpt lat="42.4795" lon="2.77207">
        <ele>396.3</ele>
        <time>2015-09-18T12:16:51Z</time>
      </trkpt>
      <trkpt lat="42.47955" lon="2.77205">
        <ele>399</ele>
        <time>2015-09-18T12:16:52Z</time>
      </trkpt>
      <trkpt lat="42.47959" lon="2.77205">
        <ele>401.8</ele>
        <time>2015-09-18T12:16:53Z</time>
      </trkpt>
      <trkpt lat="42.47961" lon="2.77208">
        <ele>403.5</ele>
        <time>2015-09-18T12:16:54Z</time>
      </trkpt>
      <trkpt lat="42.47963" lon="2.77212">
        <ele>404.9</ele>
        <time>2015-09-18T12:16:55Z</time>
      </trkpt>
      <trkpt lat="42.47966" lon="2.77217">
        <ele>406.2</ele>
        <time>2015-09-18T12:16:56Z</time>
      </trkpt>
      <trkpt lat="42.47968" lon="2.77223">
        <ele>407.3</ele>
        <time>2015-09-18T12:16:57Z</time>
      </trkpt>
      <trkpt lat="42.47969" lon="2.77231">
        <ele>409.2</ele>
        <time>2015-09-18T12:16:58Z</time>
      </trkpt>
      <trkpt lat="42.47969" lon="2.77241">
        <ele>412.6</ele>
        <time>2015-09-18T12:16:59Z</time>
      </trkpt>
      <trkpt lat="42.47968" lon="2.7725">
        <ele>415.7</ele>
        <time>2015-09-18T12:17:00Z</time>
      </trkpt>
      <trkpt lat="42.47966" lon="2.77265">
        <ele>418.6</ele>
        <time>2015-09-18T12:17:02Z</time>
      </trkpt>
      <trkpt lat="42.47964" lon="2.7727">
        <ele>420.2</ele>
        <time>2015-09-18T12:17:03Z</time>
      </trkpt>
      <trkpt lat="42.47961" lon="2.77276">
        <ele>420.5</ele>
        <time>2015-09-18T12:17:04Z</time>
      </trkpt>
      <trkpt lat="42.47955" lon="2.77282">
        <ele>421.3</ele>
        <time>2015-09-18T12:17:05Z</time>
      </trkpt>
      <trkpt lat="42.47947" lon="2.77288">
        <ele>423.3</ele>
        <time>2015-09-18T12:17:06Z</time>
      </trkpt>
      <trkpt lat="42.47938" lon="2.77293">
        <ele>425.3</ele>
        <time>2015-09-18T12:17:07Z</time>
      </trkpt>
      <trkpt lat="42.4793" lon="2.77294">
        <ele>427.4</ele>
        <time>2015-09-18T12:17:08Z</time>
      </trkpt>
      <trkpt lat="42.47923" lon="2.77293">
        <ele>427.8</ele>
        <time>2015-09-18T12:17:09Z</time>
      </trkpt>
      <trkpt lat="42.47916" lon="2.77289">
        <ele>427.3</ele>
        <time>2015-09-18T12:17:10Z</time>
      </trkpt>
      <trkpt lat="42.47907" lon="2.77284">
        <ele>426.7</ele>
        <time>2015-09-18T12:17:11Z</time>
      </trkpt>
      <trkpt lat="42.47898" lon="2.77278">
        <ele>427.2</ele>
        <time>2015-09-18T12:17:12Z</time>
      </trkpt>
      <trkpt lat="42.47889" lon="2.77272">
        <ele>428.1</ele>
        <time>2015-09-18T12:17:13Z</time>
      </trkpt>
      <trkpt lat="42.47882" lon="2.77265">
        <ele>428.3</ele>
        <time>2015-09-18T12:17:14Z</time>
      </trkpt>
      <trkpt lat="42.47875" lon="2.77255">
        <ele>425.5</ele>
        <time>2015-09-18T12:17:15Z</time>
      </trkpt>
      <trkpt lat="42.47863" lon="2.7723">
        <ele>426</ele>
        <time>2015-09-18T12:17:17Z</time>
      </trkpt>
      <trkpt lat="42.47858" lon="2.77215">
        <ele>427.3</ele>
        <time>2015-09-18T12:17:18Z</time>
      </trkpt>
      <trkpt lat="42.47855" lon="2.77202">
        <ele>428.7</ele>
        <time>2015-09-18T12:17:19Z</time>
      </trkpt>
      <trkpt lat="42.47854" lon="2.77189">
        <ele>428.7</ele>
        <time>2015-09-18T12:17:20Z</time>
      </trkpt>
      <trkpt lat="42.47854" lon="2.77189">
        <ele>430.5</ele>
        <time>2015-09-18T12:17:20Z</time>
      </trkpt>
      <trkpt lat="42.47857" lon="2.77166">
        <ele>431.7</ele>
        <time>2015-09-18T12:17:22Z</time>
      </trkpt>
      <trkpt lat="42.4786" lon="2.77155">
        <ele>433.1</ele>
        <time>2015-09-18T12:17:23Z</time>
      </trkpt>
      <trkpt lat="42.47863" lon="2.77146">
        <ele>434.5</ele>
        <time>2015-09-18T12:17:24Z</time>
      </trkpt>
      <trkpt lat="42.47867" lon="2.7714">
        <ele>435.9</ele>
        <time>2015-09-18T12:17:25Z</time>
      </trkpt>
      <trkpt lat="42.47872" lon="2.77138">
        <ele>437.1</ele>
        <time>2015-09-18T12:17:26Z</time>
      </trkpt>
      <trkpt lat="42.47876" lon="2.77141">
        <ele>438.1</ele>
        <time>2015-09-18T12:17:27Z</time>
      </trkpt>
      <trkpt lat="42.47877" lon="2.77147">
        <ele>438.8</ele>
        <time>2015-09-18T12:17:28Z</time>
      </trkpt>
      <trkpt lat="42.47877" lon="2.77156">
        <ele>440.1</ele>
        <time>2015-09-18T12:17:29Z</time>
      </trkpt>
      <trkpt lat="42.47873" lon="2.77166">
        <ele>441.3</ele>
        <time>2015-09-18T12:17:30Z</time>
      </trkpt>
      <trkpt lat="42.47868" lon="2.77174">
        <ele>443.2</ele>
        <time>2015-09-18T12:17:31Z</time>
      </trkpt>
      <trkpt lat="42.4786" lon="2.77179">
        <ele>443.9</ele>
        <time>2015-09-18T12:17:32Z</time>
      </trkpt>
      <trkpt lat="42.47838" lon="2.77179">
        <ele>445.8</ele>
        <time>2015-09-18T12:17:34Z</time>
      </trkpt>
      <trkpt lat="42.47829" lon="2.77171">
        <ele>447</ele>
        <time>2015-09-18T12:17:35Z</time>
      </trkpt>
      <trkpt lat="42.47829" lon="2.77171">
        <ele>448.1</ele>
        <time>2015-09-18T12:17:35Z</time>
      </trkpt>
      <trkpt lat="42.47816" lon="2.77146">
        <ele>449.8</ele>
        <time>2015-09-18T12:17:37Z</time>
      </trkpt>
      <trkpt lat="42.47813" lon="2.77133">
        <ele>451.7</ele>
        <time>2015-09-18T12:17:38Z</time>
      </trkpt>
      <trkpt lat="42.47811" lon="2.7712">
        <ele>453.1</ele>
        <time>2015-09-18T12:17:39Z</time>
      </trkpt>
      <trkpt lat="42.47815" lon="2.7711">
        <ele>451.8</ele>
        <time>2015-09-18T12:17:40Z</time>
      </trkpt>
      <trkpt lat="42.47818" lon="2.77102">
        <ele>451.8</ele>
        <time>2015-09-18T12:17:41Z</time>
      </trkpt>
      <trkpt lat="42.47822" lon="2.77096">
        <ele>451.4</ele>
        <time>2015-09-18T12:17:42Z</time>
      </trkpt>
      <trkpt lat="42.47827" lon="2.77093">
        <ele>452.2</ele>
        <time>2015-09-18T12:17:43Z</time>
      </trkpt>
      <trkpt lat="42.47831" lon="2.7709">
        <ele>453</ele>
        <time>2015-09-18T12:17:44Z</time>
      </trkpt>
      <trkpt lat="42.47834" lon="2.77089">
        <ele>453.3</ele>
        <time>2015-09-18T12:17:45Z</time>
      </trkpt>
      <trkpt lat="42.47838" lon="2.77088">
        <ele>453.3</ele>
        <time>2015-09-18T12:17:46Z</time>
      </trkpt>
      <trkpt lat="42.47842" lon="2.77088">
        <ele>453.6</ele>
        <time>2015-09-18T12:17:47Z</time>
      </trkpt>
      <trkpt lat="42.47846" lon="2.7709">
        <ele>454</ele>
        <time>2015-09-18T12:17:48Z</time>
      </trkpt>
      <trkpt lat="42.4785" lon="2.77094">
        <ele>454.9</ele>
        <time>2015-09-18T12:17:49Z</time>
      </trkpt>
      <trkpt lat="42.47853" lon="2.77099">
        <ele>455.2</ele>
        <time>2015-09-18T12:17:50Z</time>
      </trkpt>
      <trkpt lat="42.47858" lon="2.77113">
        <ele>455.6</ele>
        <time>2015-09-18T12:17:52Z</time>
      </trkpt>
      <trkpt lat="42.47859" lon="2.7712">
        <ele>456.1</ele>
        <time>2015-09-18T12:17:53Z</time>
      </trkpt>
      <trkpt lat="42.4786" lon="2.77129">
        <ele>456.1</ele>
        <time>2015-09-18T12:17:54Z</time>
      </trkpt>
      <trkpt lat="42.4786" lon="2.77139">
        <ele>458.7</ele>
        <time>2015-09-18T12:17:55Z</time>
      </trkpt>
      <trkpt lat="42.47859" lon="2.77149">
        <ele>461.1</ele>
        <time>2015-09-18T12:17:56Z</time>
      </trkpt>
      <trkpt lat="42.47858" lon="2.77159">
        <ele>464</ele>
        <time>2015-09-18T12:17:57Z</time>
      </trkpt>
      <trkpt lat="42.47856" lon="2.77167">
        <ele>466.7</ele>
        <time>2015-09-18T12:17:58Z</time>
      </trkpt>
      <trkpt lat="42.47854" lon="2.77174">
        <ele>468.6</ele>
        <time>2015-09-18T12:17:59Z</time>
      </trkpt>
      <trkpt lat="42.4785" lon="2.77181">
        <ele>469.7</ele>
        <time>2015-09-18T12:18:00Z</time>
      </trkpt>
      <trkpt lat="42.47846" lon="2.77188">
        <ele>471.2</ele>
        <time>2015-09-18T12:18:01Z</time>
      </trkpt>
      <trkpt lat="42.47834" lon="2.772">
        <ele>472.5</ele>
        <time>2015-09-18T12:18:03Z</time>
      </trkpt>
      <trkpt lat="42.47827" lon="2.77205">
        <ele>473.9</ele>
        <time>2015-09-18T12:18:04Z</time>
      </trkpt>
      <trkpt lat="42.47819" lon="2.77208">
        <ele>475.3</ele>
        <time>2015-09-18T12:18:05Z</time>
      </trkpt>
      <trkpt lat="42.47819" lon="2.77208">
        <ele>476.3</ele>
        <time>2015-09-18T12:18:05Z</time>
      </trkpt>
      <trkpt lat="42.47804" lon="2.77209">
        <ele>476.7</ele>
        <time>2015-09-18T12:18:07Z</time>
      </trkpt>
      <trkpt lat="42.47795" lon="2.77208">
        <ele>476.3</ele>
        <time>2015-09-18T12:18:08Z</time>
      </trkpt>
      <trkpt lat="42.47785" lon="2.77205">
        <ele>476.3</ele>
        <time>2015-09-18T12:18:09Z</time>
      </trkpt>
      <trkpt lat="42.47776" lon="2.77201">
        <ele>476.7</ele>
        <time>2015-09-18T12:18:10Z</time>
      </trkpt>
      <trkpt lat="42.47767" lon="2.77193">
        <ele>476.9</ele>
        <time>2015-09-18T12:18:11Z</time>
      </trkpt>
      <trkpt lat="42.47759" lon="2.77184">
        <ele>477.4</ele>
        <time>2015-09-18T12:18:12Z</time>
      </trkpt>
      <trkpt lat="42.47753" lon="2.77172">
        <ele>478.1</ele>
        <time>2015-09-18T12:18:13Z</time>
      </trkpt>
      <trkpt lat="42.47747" lon="2.77161">
        <ele>479</ele>
        <time>2015-09-18T12:18:14Z</time>
      </trkpt>
      <trkpt lat="42.47742" lon="2.7715">
        <ele>479.9</ele>
        <time>2015-09-18T12:18:15Z</time>
      </trkpt>
      <trkpt lat="42.47736" lon="2.77141">
        <ele>480.5</ele>
        <time>2015-09-18T12:18:16Z</time>
      </trkpt>
      <trkpt lat="42.47731" lon="2.7713">
        <ele>480.6</ele>
        <time>2015-09-18T12:18:17Z</time>
      </trkpt>
      <trkpt lat="42.47728" lon="2.77119">
        <ele>480.6</ele>
        <time>2015-09-18T12:18:18Z</time>
      </trkpt>
      <trkpt lat="42.47727" lon="2.77107">
        <ele>479.6</ele>
        <time>2015-09-18T12:18:19Z</time>
      </trkpt>
      <trkpt lat="42.47728" lon="2.77095">
        <ele>479.5</ele>
        <time>2015-09-18T12:18:20Z</time>
      </trkpt>
      <trkpt lat="42.47733" lon="2.77075">
        <ele>480.5</ele>
        <time>2015-09-18T12:18:22Z</time>
      </trkpt>
      <trkpt lat="42.47737" lon="2.77066">
        <ele>481.4</ele>
        <time>2015-09-18T12:18:23Z</time>
      </trkpt>
      <trkpt lat="42.47741" lon="2.7706">
        <ele>482.3</ele>
        <time>2015-09-18T12:18:24Z</time>
      </trkpt>
      <trkpt lat="42.47745" lon="2.77055">
        <ele>483.1</ele>
        <time>2015-09-18T12:18:25Z</time>
      </trkpt>
      <trkpt lat="42.4775" lon="2.77052">
        <ele>483.6</ele>
        <time>2015-09-18T12:18:26Z</time>
      </trkpt>
      <trkpt lat="42.47754" lon="2.77052">
        <ele>483.9</ele>
        <time>2015-09-18T12:18:27Z</time>
      </trkpt>
      <trkpt lat="42.47759" lon="2.77054">
        <ele>483.6</ele>
        <time>2015-09-18T12:18:28Z</time>
      </trkpt>
      <trkpt lat="42.47763" lon="2.77058">
        <ele>483.6</ele>
        <time>2015-09-18T12:18:29Z</time>
      </trkpt>
      <trkpt lat="42.47766" lon="2.77063">
        <ele>483.7</ele>
        <time>2015-09-18T12:18:30Z</time>
      </trkpt>
      <trkpt lat="42.4777" lon="2.7707">
        <ele>484.1</ele>
        <time>2015-09-18T12:18:31Z</time>
      </trkpt>
      <trkpt lat="42.47773" lon="2.77076">
        <ele>484.8</ele>
        <time>2015-09-18T12:18:32Z</time>
      </trkpt>
      <trkpt lat="42.47776" lon="2.77083">
        <ele>487.5</ele>
        <time>2015-09-18T12:18:33Z</time>
      </trkpt>
      <trkpt lat="42.47778" lon="2.77089">
        <ele>488.8</ele>
        <time>2015-09-18T12:18:34Z</time>
      </trkpt>
      <trkpt lat="42.47779" lon="2.77095">
        <ele>489.5</ele>
        <time>2015-09-18T12:18:35Z</time>
      </trkpt>
      <trkpt lat="42.47779" lon="2.77112">
        <ele>489.9</ele>
        <time>2015-09-18T12:18:37Z</time>
      </trkpt>
      <trkpt lat="42.47778" lon="2.7712">
        <ele>490.6</ele>
        <time>2015-09-18T12:18:38Z</time>
      </trkpt>
      <trkpt lat="42.47777" lon="2.77129">
        <ele>491.3</ele>
        <time>2015-09-18T12:18:39Z</time>
      </trkpt>
      <trkpt lat="42.47775" lon="2.77138">
        <ele>491.9</ele>
        <time>2015-09-18T12:18:40Z</time>
      </trkpt>
      <trkpt lat="42.47775" lon="2.77138">
        <ele>492.3</ele>
        <time>2015-09-18T12:18:40Z</time>
      </trkpt>
      <trkpt lat="42.47766" lon="2.77155">
        <ele>493.3</ele>
        <time>2015-09-18T12:18:42Z</time>
      </trkpt>
      <trkpt lat="42.47761" lon="2.77163">
        <ele>494.5</ele>
        <time>2015-09-18T12:18:43Z</time>
      </trkpt>
      <trkpt lat="42.47755" lon="2.7717">
        <ele>496.1</ele>
        <time>2015-09-18T12:18:44Z</time>
      </trkpt>
      <trkpt lat="42.47748" lon="2.77177">
        <ele>497.9</ele>
        <time>2015-09-18T12:18:45Z</time>
      </trkpt>
      <trkpt lat="42.47742" lon="2.77183">
        <ele>499.6</ele>
        <time>2015-09-18T12:18:46Z</time>
      </trkpt>
      <trkpt lat="42.47736" lon="2.77188">
        <ele>500.5</ele>
        <time>2015-09-18T12:18:47Z</time>
      </trkpt>
      <trkpt lat="42.47731" lon="2.77194">
        <ele>500.6</ele>
        <time>2015-09-18T12:18:48Z</time>
      </trkpt>
      <trkpt lat="42.47726" lon="2.77197">
        <ele>500.4</ele>
        <time>2015-09-18T12:18:49Z</time>
      </trkpt>
      <trkpt lat="42.47717" lon="2.77195">
        <ele>495.7</ele>
        <time>2015-09-18T12:18:50Z</time>
      </trkpt>
      <trkpt lat="42.47697" lon="2.77187">
        <ele>495.3</ele>
        <time>2015-09-18T12:18:52Z</time>
      </trkpt>
      <trkpt lat="42.47688" lon="2.77179">
        <ele>494.2</ele>
        <time>2015-09-18T12:18:53Z</time>
      </trkpt>
      <trkpt lat="42.47681" lon="2.7717">
        <ele>493</ele>
        <time>2015-09-18T12:18:54Z</time>
      </trkpt>
      <trkpt lat="42.47676" lon="2.77159">
        <ele>491.9</ele>
        <time>2015-09-18T12:18:55Z</time>
      </trkpt>
      <trkpt lat="42.47673" lon="2.77147">
        <ele>490.5</ele>
        <time>2015-09-18T12:18:56Z</time>
      </trkpt>
      <trkpt lat="42.4767" lon="2.77136">
        <ele>490.5</ele>
        <time>2015-09-18T12:18:57Z</time>
      </trkpt>
      <trkpt lat="42.47668" lon="2.77124">
        <ele>488.2</ele>
        <time>2015-09-18T12:18:58Z</time>
      </trkpt>
      <trkpt lat="42.47667" lon="2.77112">
        <ele>487.3</ele>
        <time>2015-09-18T12:18:59Z</time>
      </trkpt>
      <trkpt lat="42.47667" lon="2.77099">
        <ele>486.6</ele>
        <time>2015-09-18T12:19:00Z</time>
      </trkpt>
      <trkpt lat="42.47668" lon="2.77087">
        <ele>486</ele>
        <time>2015-09-18T12:19:01Z</time>
      </trkpt>
      <trkpt lat="42.4767" lon="2.77074">
        <ele>485.4</ele>
        <time>2015-09-18T12:19:02Z</time>
      </trkpt>
      <trkpt lat="42.47672" lon="2.77061">
        <ele>485.4</ele>
        <time>2015-09-18T12:19:03Z</time>
      </trkpt>
      <trkpt lat="42.47675" lon="2.77049">
        <ele>485.8</ele>
        <time>2015-09-18T12:19:04Z</time>
      </trkpt>
      <trkpt lat="42.47678" lon="2.77037">
        <ele>486.5</ele>
        <time>2015-09-18T12:19:05Z</time>
      </trkpt>
      <trkpt lat="42.4768" lon="2.77026">
        <ele>487.5</ele>
        <time>2015-09-18T12:19:06Z</time>
      </trkpt>
      <trkpt lat="42.47683" lon="2.77015">
        <ele>488.9</ele>
        <time>2015-09-18T12:19:07Z</time>
      </trkpt>
      <trkpt lat="42.47687" lon="2.77004">
        <ele>489.6</ele>
        <time>2015-09-18T12:19:08Z</time>
      </trkpt>
      <trkpt lat="42.47695" lon="2.76985">
        <ele>491.6</ele>
        <time>2015-09-18T12:19:10Z</time>
      </trkpt>
      <trkpt lat="42.47695" lon="2.76985">
        <ele>492.6</ele>
        <time>2015-09-18T12:19:10Z</time>
      </trkpt>
      <trkpt lat="42.47705" lon="2.76974">
        <ele>493.2</ele>
        <time>2015-09-18T12:19:12Z</time>
      </trkpt>
      <trkpt lat="42.4771" lon="2.76973">
        <ele>493.8</ele>
        <time>2015-09-18T12:19:13Z</time>
      </trkpt>
      <trkpt lat="42.47714" lon="2.76975">
        <ele>494.6</ele>
        <time>2015-09-18T12:19:14Z</time>
      </trkpt>
      <trkpt lat="42.47716" lon="2.76979">
        <ele>495.2</ele>
        <time>2015-09-18T12:19:15Z</time>
      </trkpt>
      <trkpt lat="42.47717" lon="2.76986">
        <ele>494.8</ele>
        <time>2015-09-18T12:19:16Z</time>
      </trkpt>
      <trkpt lat="42.47717" lon="2.76994">
        <ele>493.9</ele>
        <time>2015-09-18T12:19:17Z</time>
      </trkpt>
      <trkpt lat="42.47715" lon="2.77003">
        <ele>492.9</ele>
        <time>2015-09-18T12:19:18Z</time>
      </trkpt>
      <trkpt lat="42.47712" lon="2.77013">
        <ele>492.4</ele>
        <time>2015-09-18T12:19:19Z</time>
      </trkpt>
      <trkpt lat="42.47707" lon="2.77021">
        <ele>492.2</ele>
        <time>2015-09-18T12:19:20Z</time>
      </trkpt>
      <trkpt lat="42.47691" lon="2.77029">
        <ele>491.4</ele>
        <time>2015-09-18T12:19:22Z</time>
      </trkpt>
      <trkpt lat="42.47679" lon="2.7703">
        <ele>490.4</ele>
        <time>2015-09-18T12:19:23Z</time>
      </trkpt>
      <trkpt lat="42.47667" lon="2.7703">
        <ele>490</ele>
        <time>2015-09-18T12:19:24Z</time>
      </trkpt>
      <trkpt lat="42.47655" lon="2.77028">
        <ele>490.5</ele>
        <time>2015-09-18T12:19:25Z</time>
      </trkpt>
      <trkpt lat="42.47655" lon="2.77028">
        <ele>492</ele>
        <time>2015-09-18T12:19:25Z</time>
      </trkpt>
      <trkpt lat="42.47631" lon="2.77023">
        <ele>494.2</ele>
        <time>2015-09-18T12:19:27Z</time>
      </trkpt>
      <trkpt lat="42.47621" lon="2.77017">
        <ele>496.2</ele>
        <time>2015-09-18T12:19:28Z</time>
      </trkpt>
      <trkpt lat="42.47612" lon="2.7701">
        <ele>497.5</ele>
        <time>2015-09-18T12:19:29Z</time>
      </trkpt>
      <trkpt lat="42.47605" lon="2.76999">
        <ele>498.2</ele>
        <time>2015-09-18T12:19:30Z</time>
      </trkpt>
      <trkpt lat="42.47601" lon="2.76984">
        <ele>497.9</ele>
        <time>2015-09-18T12:19:31Z</time>
      </trkpt>
      <trkpt lat="42.476" lon="2.76968">
        <ele>499.3</ele>
        <time>2015-09-18T12:19:32Z</time>
      </trkpt>
      <trkpt lat="42.47601" lon="2.76953">
        <ele>501.1</ele>
        <time>2015-09-18T12:19:33Z</time>
      </trkpt>
      <trkpt lat="42.47603" lon="2.76941">
        <ele>502.5</ele>
        <time>2015-09-18T12:19:34Z</time>
      </trkpt>
      <trkpt lat="42.47606" lon="2.76932">
        <ele>503.9</ele>
        <time>2015-09-18T12:19:35Z</time>
      </trkpt>
      <trkpt lat="42.47609" lon="2.76924">
        <ele>504.3</ele>
        <time>2015-09-18T12:19:36Z</time>
      </trkpt>
      <trkpt lat="42.47613" lon="2.76917">
        <ele>503.9</ele>
        <time>2015-09-18T12:19:37Z</time>
      </trkpt>
      <trkpt lat="42.47618" lon="2.76912">
        <ele>502.9</ele>
        <time>2015-09-18T12:19:38Z</time>
      </trkpt>
      <trkpt lat="42.47628" lon="2.7691">
        <ele>500.8</ele>
        <time>2015-09-18T12:19:40Z</time>
      </trkpt>
      <trkpt lat="42.47628" lon="2.7691">
        <ele>500.3</ele>
        <time>2015-09-18T12:19:40Z</time>
      </trkpt>
      <trkpt lat="42.47637" lon="2.7692">
        <ele>500.4</ele>
        <time>2015-09-18T12:19:42Z</time>
      </trkpt>
      <trkpt lat="42.4764" lon="2.76926">
        <ele>501.1</ele>
        <time>2015-09-18T12:19:43Z</time>
      </trkpt>
      <trkpt lat="42.47643" lon="2.76932">
        <ele>500.9</ele>
        <time>2015-09-18T12:19:44Z</time>
      </trkpt>
      <trkpt lat="42.47644" lon="2.76939">
        <ele>500.6</ele>
        <time>2015-09-18T12:19:45Z</time>
      </trkpt>
      <trkpt lat="42.47645" lon="2.76947">
        <ele>499.7</ele>
        <time>2015-09-18T12:19:46Z</time>
      </trkpt>
      <trkpt lat="42.47645" lon="2.76955">
        <ele>499.1</ele>
        <time>2015-09-18T12:19:47Z</time>
      </trkpt>
      <trkpt lat="42.47645" lon="2.76964">
        <ele>498.7</ele>
        <time>2015-09-18T12:19:48Z</time>
      </trkpt>
      <trkpt lat="42.47645" lon="2.76971">
        <ele>498.3</ele>
        <time>2015-09-18T12:19:49Z</time>
      </trkpt>
      <trkpt lat="42.47645" lon="2.76977">
        <ele>498.3</ele>
        <time>2015-09-18T12:19:50Z</time>
      </trkpt>
      <trkpt lat="42.47646" lon="2.76985">
        <ele>496.9</ele>
        <time>2015-09-18T12:19:51Z</time>
      </trkpt>
      <trkpt lat="42.47647" lon="2.76993">
        <ele>496.6</ele>
        <time>2015-09-18T12:19:52Z</time>
      </trkpt>
      <trkpt lat="42.47647" lon="2.77001">
        <ele>497.3</ele>
        <time>2015-09-18T12:19:53Z</time>
      </trkpt>
      <trkpt lat="42.47647" lon="2.77009">
        <ele>497.3</ele>
        <time>2015-09-18T12:19:54Z</time>
      </trkpt>
      <trkpt lat="42.47648" lon="2.77017">
        <ele>498.2</ele>
        <time>2015-09-18T12:19:55Z</time>
      </trkpt>
      <trkpt lat="42.4765" lon="2.77032">
        <ele>499.1</ele>
        <time>2015-09-18T12:19:57Z</time>
      </trkpt>
      <trkpt lat="42.47651" lon="2.7704">
        <ele>500.3</ele>
        <time>2015-09-18T12:19:58Z</time>
      </trkpt>
      <trkpt lat="42.47653" lon="2.77048">
        <ele>502.1</ele>
        <time>2015-09-18T12:19:59Z</time>
      </trkpt>
      <trkpt lat="42.47654" lon="2.77055">
        <ele>504</ele>
        <time>2015-09-18T12:20:00Z</time>
      </trkpt>
      <trkpt lat="42.47655" lon="2.77061">
        <ele>505.6</ele>
        <time>2015-09-18T12:20:01Z</time>
      </trkpt>
      <trkpt lat="42.47653" lon="2.77069">
        <ele>506.8</ele>
        <time>2015-09-18T12:20:02Z</time>
      </trkpt>
      <trkpt lat="42.47651" lon="2.77077">
        <ele>507.5</ele>
        <time>2015-09-18T12:20:03Z</time>
      </trkpt>
      <trkpt lat="42.47646" lon="2.77086">
        <ele>509</ele>
        <time>2015-09-18T12:20:04Z</time>
      </trkpt>
      <trkpt lat="42.47639" lon="2.77093">
        <ele>510.7</ele>
        <time>2015-09-18T12:20:05Z</time>
      </trkpt>
      <trkpt lat="42.47631" lon="2.77098">
        <ele>512.6</ele>
        <time>2015-09-18T12:20:06Z</time>
      </trkpt>
      <trkpt lat="42.47621" lon="2.77098">
        <ele>515.9</ele>
        <time>2015-09-18T12:20:07Z</time>
      </trkpt>
      <trkpt lat="42.47611" lon="2.77093">
        <ele>517.4</ele>
        <time>2015-09-18T12:20:08Z</time>
      </trkpt>
      <trkpt lat="42.47596" lon="2.77074">
        <ele>518.6</ele>
        <time>2015-09-18T12:20:10Z</time>
      </trkpt>
      <trkpt lat="42.47596" lon="2.77074">
        <ele>518</ele>
        <time>2015-09-18T12:20:10Z</time>
      </trkpt>
      <trkpt lat="42.4759" lon="2.77049">
        <ele>518.1</ele>
        <time>2015-09-18T12:20:12Z</time>
      </trkpt>
      <trkpt lat="42.4759" lon="2.77037">
        <ele>518.2</ele>
        <time>2015-09-18T12:20:13Z</time>
      </trkpt>
      <trkpt lat="42.47592" lon="2.77025">
        <ele>518.4</ele>
        <time>2015-09-18T12:20:14Z</time>
      </trkpt>
      <trkpt lat="42.47597" lon="2.77016">
        <ele>519.5</ele>
        <time>2015-09-18T12:20:15Z</time>
      </trkpt>
      <trkpt lat="42.47603" lon="2.7701">
        <ele>520.1</ele>
        <time>2015-09-18T12:20:16Z</time>
      </trkpt>
      <trkpt lat="42.47609" lon="2.77009">
        <ele>520.1</ele>
        <time>2015-09-18T12:20:17Z</time>
      </trkpt>
      <trkpt lat="42.47613" lon="2.7701">
        <ele>523.7</ele>
        <time>2015-09-18T12:20:18Z</time>
      </trkpt>
      <trkpt lat="42.47615" lon="2.77014">
        <ele>524</ele>
        <time>2015-09-18T12:20:19Z</time>
      </trkpt>
      <trkpt lat="42.47617" lon="2.77018">
        <ele>523.9</ele>
        <time>2015-09-18T12:20:20Z</time>
      </trkpt>
      <trkpt lat="42.47619" lon="2.77024">
        <ele>524.2</ele>
        <time>2015-09-18T12:20:21Z</time>
      </trkpt>
      <trkpt lat="42.47622" lon="2.7703">
        <ele>525.4</ele>
        <time>2015-09-18T12:20:22Z</time>
      </trkpt>
      <trkpt lat="42.47625" lon="2.77037">
        <ele>527.3</ele>
        <time>2015-09-18T12:20:23Z</time>
      </trkpt>
      <trkpt lat="42.47629" lon="2.77045">
        <ele>529.6</ele>
        <time>2015-09-18T12:20:24Z</time>
      </trkpt>
      <trkpt lat="42.47632" lon="2.77052">
        <ele>535.7</ele>
        <time>2015-09-18T12:20:25Z</time>
      </trkpt>
      <trkpt lat="42.47637" lon="2.77065">
        <ele>538.1</ele>
        <time>2015-09-18T12:20:27Z</time>
      </trkpt>
      <trkpt lat="42.4764" lon="2.77072">
        <ele>540.1</ele>
        <time>2015-09-18T12:20:28Z</time>
      </trkpt>
      <trkpt lat="42.47643" lon="2.7708">
        <ele>541.8</ele>
        <time>2015-09-18T12:20:29Z</time>
      </trkpt>
      <trkpt lat="42.47644" lon="2.77087">
        <ele>543</ele>
        <time>2015-09-18T12:20:30Z</time>
      </trkpt>
      <trkpt lat="42.47644" lon="2.77095">
        <ele>543.1</ele>
        <time>2015-09-18T12:20:31Z</time>
      </trkpt>
      <trkpt lat="42.47641" lon="2.77104">
        <ele>542.8</ele>
        <time>2015-09-18T12:20:32Z</time>
      </trkpt>
      <trkpt lat="42.47636" lon="2.77111">
        <ele>543.1</ele>
        <time>2015-09-18T12:20:33Z</time>
      </trkpt>
      <trkpt lat="42.47629" lon="2.77118">
        <ele>543.9</ele>
        <time>2015-09-18T12:20:34Z</time>
      </trkpt>
      <trkpt lat="42.47622" lon="2.77121">
        <ele>544.8</ele>
        <time>2015-09-18T12:20:35Z</time>
      </trkpt>
      <trkpt lat="42.47613" lon="2.77122">
        <ele>544.7</ele>
        <time>2015-09-18T12:20:36Z</time>
      </trkpt>
      <trkpt lat="42.47603" lon="2.7712">
        <ele>544.2</ele>
        <time>2015-09-18T12:20:37Z</time>
      </trkpt>
      <trkpt lat="42.47592" lon="2.77118">
        <ele>544.8</ele>
        <time>2015-09-18T12:20:38Z</time>
      </trkpt>
      <trkpt lat="42.47573" lon="2.77108">
        <ele>546.7</ele>
        <time>2015-09-18T12:20:40Z</time>
      </trkpt>
      <trkpt lat="42.47573" lon="2.77108">
        <ele>546.2</ele>
        <time>2015-09-18T12:20:40Z</time>
      </trkpt>
      <trkpt lat="42.47558" lon="2.77089">
        <ele>545.1</ele>
        <time>2015-09-18T12:20:42Z</time>
      </trkpt>
      <trkpt lat="42.47551" lon="2.77076">
        <ele>544.8</ele>
        <time>2015-09-18T12:20:43Z</time>
      </trkpt>
      <trkpt lat="42.47546" lon="2.77061">
        <ele>545.2</ele>
        <time>2015-09-18T12:20:44Z</time>
      </trkpt>
      <trkpt lat="42.47542" lon="2.77046">
        <ele>546.1</ele>
        <time>2015-09-18T12:20:45Z</time>
      </trkpt>
      <trkpt lat="42.47541" lon="2.7703">
        <ele>547</ele>
        <time>2015-09-18T12:20:46Z</time>
      </trkpt>
      <trkpt lat="42.47541" lon="2.77016">
        <ele>548.2</ele>
        <time>2015-09-18T12:20:47Z</time>
      </trkpt>
      <trkpt lat="42.47542" lon="2.77002">
        <ele>550.4</ele>
        <time>2015-09-18T12:20:48Z</time>
      </trkpt>
      <trkpt lat="42.47544" lon="2.7699">
        <ele>553.2</ele>
        <time>2015-09-18T12:20:49Z</time>
      </trkpt>
      <trkpt lat="42.47546" lon="2.7698">
        <ele>556</ele>
        <time>2015-09-18T12:20:50Z</time>
      </trkpt>
      <trkpt lat="42.47549" lon="2.76972">
        <ele>558.6</ele>
        <time>2015-09-18T12:20:51Z</time>
      </trkpt>
      <trkpt lat="42.47553" lon="2.76967">
        <ele>560.2</ele>
        <time>2015-09-18T12:20:52Z</time>
      </trkpt>
      <trkpt lat="42.47558" lon="2.76966">
        <ele>561.6</ele>
        <time>2015-09-18T12:20:53Z</time>
      </trkpt>
      <trkpt lat="42.47563" lon="2.76967">
        <ele>565.3</ele>
        <time>2015-09-18T12:20:54Z</time>
      </trkpt>
      <trkpt lat="42.47568" lon="2.76972">
        <ele>567.5</ele>
        <time>2015-09-18T12:20:55Z</time>
      </trkpt>
      <trkpt lat="42.47571" lon="2.76983">
        <ele>569.1</ele>
        <time>2015-09-18T12:20:57Z</time>
      </trkpt>
      <trkpt lat="42.47568" lon="2.76989">
        <ele>570.9</ele>
        <time>2015-09-18T12:20:58Z</time>
      </trkpt>
      <trkpt lat="42.47562" lon="2.76994">
        <ele>571.9</ele>
        <time>2015-09-18T12:20:59Z</time>
      </trkpt>
      <trkpt lat="42.47554" lon="2.76998">
        <ele>572.9</ele>
        <time>2015-09-18T12:21:00Z</time>
      </trkpt>
      <trkpt lat="42.47545" lon="2.76999">
        <ele>574.2</ele>
        <time>2015-09-18T12:21:01Z</time>
      </trkpt>
      <trkpt lat="42.47535" lon="2.76998">
        <ele>575.3</ele>
        <time>2015-09-18T12:21:02Z</time>
      </trkpt>
      <trkpt lat="42.47526" lon="2.76995">
        <ele>576.1</ele>
        <time>2015-09-18T12:21:03Z</time>
      </trkpt>
      <trkpt lat="42.47517" lon="2.76991">
        <ele>576.5</ele>
        <time>2015-09-18T12:21:04Z</time>
      </trkpt>
      <trkpt lat="42.47508" lon="2.76984">
        <ele>576.6</ele>
        <time>2015-09-18T12:21:05Z</time>
      </trkpt>
      <trkpt lat="42.475" lon="2.76973">
        <ele>576.5</ele>
        <time>2015-09-18T12:21:06Z</time>
      </trkpt>
      <trkpt lat="42.47493" lon="2.7696">
        <ele>576.5</ele>
        <time>2015-09-18T12:21:07Z</time>
      </trkpt>
      <trkpt lat="42.47488" lon="2.76945">
        <ele>577.5</ele>
        <time>2015-09-18T12:21:08Z</time>
      </trkpt>
      <trkpt lat="42.47484" lon="2.7693">
        <ele>583</ele>
        <time>2015-09-18T12:21:09Z</time>
      </trkpt>
      <trkpt lat="42.47482" lon="2.76916">
        <ele>585.9</ele>
        <time>2015-09-18T12:21:10Z</time>
      </trkpt>
      <trkpt lat="42.47479" lon="2.76892">
        <ele>588.4</ele>
        <time>2015-09-18T12:21:12Z</time>
      </trkpt>
      <trkpt lat="42.47479" lon="2.7688">
        <ele>590.1</ele>
        <time>2015-09-18T12:21:13Z</time>
      </trkpt>
      <trkpt lat="42.47479" lon="2.76869">
        <ele>590.1</ele>
        <time>2015-09-18T12:21:14Z</time>
      </trkpt>
      <trkpt lat="42.47481" lon="2.76859">
        <ele>591.5</ele>
        <time>2015-09-18T12:21:15Z</time>
      </trkpt>
      <trkpt lat="42.47481" lon="2.76859">
        <ele>591.1</ele>
        <time>2015-09-18T12:21:15Z</time>
      </trkpt>
      <trkpt lat="42.47488" lon="2.76845">
        <ele>590.9</ele>
        <time>2015-09-18T12:21:17Z</time>
      </trkpt>
      <trkpt lat="42.47493" lon="2.7684">
        <ele>591.2</ele>
        <time>2015-09-18T12:21:18Z</time>
      </trkpt>
      <trkpt lat="42.47498" lon="2.76835">
        <ele>592</ele>
        <time>2015-09-18T12:21:19Z</time>
      </trkpt>
      <trkpt lat="42.47502" lon="2.7683">
        <ele>592.6</ele>
        <time>2015-09-18T12:21:20Z</time>
      </trkpt>
      <trkpt lat="42.47506" lon="2.76827">
        <ele>592.6</ele>
        <time>2015-09-18T12:21:21Z</time>
      </trkpt>
      <trkpt lat="42.47511" lon="2.76824">
        <ele>592.2</ele>
        <time>2015-09-18T12:21:22Z</time>
      </trkpt>
      <trkpt lat="42.47516" lon="2.76822">
        <ele>591.7</ele>
        <time>2015-09-18T12:21:23Z</time>
      </trkpt>
      <trkpt lat="42.47521" lon="2.7682">
        <ele>591.4</ele>
        <time>2015-09-18T12:21:24Z</time>
      </trkpt>
      <trkpt lat="42.47527" lon="2.76819">
        <ele>592.3</ele>
        <time>2015-09-18T12:21:25Z</time>
      </trkpt>
      <trkpt lat="42.47539" lon="2.76821">
        <ele>593.1</ele>
        <time>2015-09-18T12:21:27Z</time>
      </trkpt>
      <trkpt lat="42.47544" lon="2.76824">
        <ele>594.5</ele>
        <time>2015-09-18T12:21:28Z</time>
      </trkpt>
      <trkpt lat="42.47549" lon="2.76827">
        <ele>596</ele>
        <time>2015-09-18T12:21:29Z</time>
      </trkpt>
      <trkpt lat="42.47553" lon="2.7683">
        <ele>598.1</ele>
        <time>2015-09-18T12:21:30Z</time>
      </trkpt>
      <trkpt lat="42.47557" lon="2.76831">
        <ele>600.3</ele>
        <time>2015-09-18T12:21:31Z</time>
      </trkpt>
      <trkpt lat="42.47561" lon="2.76831">
        <ele>602.6</ele>
        <time>2015-09-18T12:21:32Z</time>
      </trkpt>
      <trkpt lat="42.47566" lon="2.76832">
        <ele>604.9</ele>
        <time>2015-09-18T12:21:33Z</time>
      </trkpt>
      <trkpt lat="42.47571" lon="2.76833">
        <ele>607</ele>
        <time>2015-09-18T12:21:34Z</time>
      </trkpt>
      <trkpt lat="42.47576" lon="2.76835">
        <ele>608.9</ele>
        <time>2015-09-18T12:21:35Z</time>
      </trkpt>
      <trkpt lat="42.47581" lon="2.76837">
        <ele>611</ele>
        <time>2015-09-18T12:21:36Z</time>
      </trkpt>
      <trkpt lat="42.47586" lon="2.7684">
        <ele>612.8</ele>
        <time>2015-09-18T12:21:37Z</time>
      </trkpt>
      <trkpt lat="42.4759" lon="2.76843">
        <ele>614.1</ele>
        <time>2015-09-18T12:21:38Z</time>
      </trkpt>
      <trkpt lat="42.47593" lon="2.76848">
        <ele>615.2</ele>
        <time>2015-09-18T12:21:39Z</time>
      </trkpt>
      <trkpt lat="42.47594" lon="2.76856">
        <ele>615</ele>
        <time>2015-09-18T12:21:40Z</time>
      </trkpt>
      <trkpt lat="42.47594" lon="2.76875">
        <ele>616.4</ele>
        <time>2015-09-18T12:21:42Z</time>
      </trkpt>
      <trkpt lat="42.47591" lon="2.76886">
        <ele>618.8</ele>
        <time>2015-09-18T12:21:43Z</time>
      </trkpt>
      <trkpt lat="42.47587" lon="2.76895">
        <ele>621.3</ele>
        <time>2015-09-18T12:21:44Z</time>
      </trkpt>
      <trkpt lat="42.47582" lon="2.76903">
        <ele>623.2</ele>
        <time>2015-09-18T12:21:45Z</time>
      </trkpt>
      <trkpt lat="42.47577" lon="2.76911">
        <ele>624.9</ele>
        <time>2015-09-18T12:21:46Z</time>
      </trkpt>
      <trkpt lat="42.47572" lon="2.76917">
        <ele>626.8</ele>
        <time>2015-09-18T12:21:47Z</time>
      </trkpt>
      <trkpt lat="42.47565" lon="2.76923">
        <ele>628.7</ele>
        <time>2015-09-18T12:21:48Z</time>
      </trkpt>
      <trkpt lat="42.47557" lon="2.76928">
        <ele>629.8</ele>
        <time>2015-09-18T12:21:49Z</time>
      </trkpt>
      <trkpt lat="42.47547" lon="2.76931">
        <ele>631.5</ele>
        <time>2015-09-18T12:21:50Z</time>
      </trkpt>
      <trkpt lat="42.47536" lon="2.76932">
        <ele>634</ele>
        <time>2015-09-18T12:21:51Z</time>
      </trkpt>
      <trkpt lat="42.47527" lon="2.76931">
        <ele>639.6</ele>
        <time>2015-09-18T12:21:52Z</time>
      </trkpt>
      <trkpt lat="42.47511" lon="2.76918">
        <ele>640.2</ele>
        <time>2015-09-18T12:21:54Z</time>
      </trkpt>
      <trkpt lat="42.47504" lon="2.76906">
        <ele>641.2</ele>
        <time>2015-09-18T12:21:55Z</time>
      </trkpt>
      <trkpt lat="42.47504" lon="2.76906">
        <ele>643.1</ele>
        <time>2015-09-18T12:21:55Z</time>
      </trkpt>
      <trkpt lat="42.47493" lon="2.76877">
        <ele>646.3</ele>
        <time>2015-09-18T12:21:57Z</time>
      </trkpt>
      <trkpt lat="42.4749" lon="2.76863">
        <ele>649.8</ele>
        <time>2015-09-18T12:21:58Z</time>
      </trkpt>
      <trkpt lat="42.47492" lon="2.7685">
        <ele>652.8</ele>
        <time>2015-09-18T12:21:59Z</time>
      </trkpt>
      <trkpt lat="42.47496" lon="2.76841">
        <ele>655.2</ele>
        <time>2015-09-18T12:22:00Z</time>
      </trkpt>
      <trkpt lat="42.47501" lon="2.76835">
        <ele>657.3</ele>
        <time>2015-09-18T12:22:01Z</time>
      </trkpt>
      <trkpt lat="42.47506" lon="2.76831">
        <ele>659.2</ele>
        <time>2015-09-18T12:22:02Z</time>
      </trkpt>
      <trkpt lat="42.47511" lon="2.76832">
        <ele>659.7</ele>
        <time>2015-09-18T12:22:03Z</time>
      </trkpt>
      <trkpt lat="42.47515" lon="2.76838">
        <ele>660.8</ele>
        <time>2015-09-18T12:22:04Z</time>
      </trkpt>
      <trkpt lat="42.47516" lon="2.76846">
        <ele>663.3</ele>
        <time>2015-09-18T12:22:05Z</time>
      </trkpt>
      <trkpt lat="42.47516" lon="2.76856">
        <ele>666.6</ele>
        <time>2015-09-18T12:22:06Z</time>
      </trkpt>
      <trkpt lat="42.47514" lon="2.76864">
        <ele>670.1</ele>
        <time>2015-09-18T12:22:07Z</time>
      </trkpt>
      <trkpt lat="42.47512" lon="2.76871">
        <ele>673</ele>
        <time>2015-09-18T12:22:08Z</time>
      </trkpt>
      <trkpt lat="42.47509" lon="2.76878">
        <ele>678.2</ele>
        <time>2015-09-18T12:22:09Z</time>
      </trkpt>
      <trkpt lat="42.47505" lon="2.76885">
        <ele>680.7</ele>
        <time>2015-09-18T12:22:10Z</time>
      </trkpt>
      <trkpt lat="42.47493" lon="2.76896">
        <ele>682</ele>
        <time>2015-09-18T12:22:12Z</time>
      </trkpt>
      <trkpt lat="42.47484" lon="2.76897">
        <ele>682.3</ele>
        <time>2015-09-18T12:22:13Z</time>
      </trkpt>
      <trkpt lat="42.47474" lon="2.76893">
        <ele>682.2</ele>
        <time>2015-09-18T12:22:14Z</time>
      </trkpt>
      <trkpt lat="42.47465" lon="2.76883">
        <ele>682.5</ele>
        <time>2015-09-18T12:22:15Z</time>
      </trkpt>
      <trkpt lat="42.47459" lon="2.76868">
        <ele>683</ele>
        <time>2015-09-18T12:22:16Z</time>
      </trkpt>
      <trkpt lat="42.47457" lon="2.76852">
        <ele>684.4</ele>
        <time>2015-09-18T12:22:17Z</time>
      </trkpt>
      <trkpt lat="42.47458" lon="2.76837">
        <ele>686.3</ele>
        <time>2015-09-18T12:22:18Z</time>
      </trkpt>
      <trkpt lat="42.47459" lon="2.76823">
        <ele>688.2</ele>
        <time>2015-09-18T12:22:19Z</time>
      </trkpt>
      <trkpt lat="42.47459" lon="2.7681">
        <ele>689.9</ele>
        <time>2015-09-18T12:22:20Z</time>
      </trkpt>
      <trkpt lat="42.47459" lon="2.76796">
        <ele>694.3</ele>
        <time>2015-09-18T12:22:21Z</time>
      </trkpt>
      <trkpt lat="42.4746" lon="2.76771">
        <ele>695.9</ele>
        <time>2015-09-18T12:22:23Z</time>
      </trkpt>
      <trkpt lat="42.47462" lon="2.76759">
        <ele>695.9</ele>
        <time>2015-09-18T12:22:24Z</time>
      </trkpt>
      <trkpt lat="42.47465" lon="2.76748">
        <ele>698.5</ele>
        <time>2015-09-18T12:22:25Z</time>
      </trkpt>
      <trkpt lat="42.47465" lon="2.76748">
        <ele>698.5</ele>
        <time>2015-09-18T12:22:25Z</time>
      </trkpt>
      <trkpt lat="42.47472" lon="2.76729">
        <ele>701.4</ele>
        <time>2015-09-18T12:22:27Z</time>
      </trkpt>
      <trkpt lat="42.47477" lon="2.76722">
        <ele>702.9</ele>
        <time>2015-09-18T12:22:28Z</time>
      </trkpt>
      <trkpt lat="42.47481" lon="2.76716">
        <ele>704.4</ele>
        <time>2015-09-18T12:22:29Z</time>
      </trkpt>
      <trkpt lat="42.47486" lon="2.76714">
        <ele>705.5</ele>
        <time>2015-09-18T12:22:30Z</time>
      </trkpt>
      <trkpt lat="42.4749" lon="2.76715">
        <ele>706.2</ele>
        <time>2015-09-18T12:22:31Z</time>
      </trkpt>
      <trkpt lat="42.47494" lon="2.7672">
        <ele>706.8</ele>
        <time>2015-09-18T12:22:32Z</time>
      </trkpt>
      <trkpt lat="42.47497" lon="2.76727">
        <ele>707.8</ele>
        <time>2015-09-18T12:22:33Z</time>
      </trkpt>
      <trkpt lat="42.47499" lon="2.76735">
        <ele>708.8</ele>
        <time>2015-09-18T12:22:34Z</time>
      </trkpt>
      <trkpt lat="42.47499" lon="2.76744">
        <ele>710</ele>
        <time>2015-09-18T12:22:35Z</time>
      </trkpt>
      <trkpt lat="42.47496" lon="2.76753">
        <ele>710.6</ele>
        <time>2015-09-18T12:22:36Z</time>
      </trkpt>
      <trkpt lat="42.47492" lon="2.76762">
        <ele>711.8</ele>
        <time>2015-09-18T12:22:37Z</time>
      </trkpt>
      <trkpt lat="42.47485" lon="2.76771">
        <ele>716.1</ele>
        <time>2015-09-18T12:22:38Z</time>
      </trkpt>
      <trkpt lat="42.47476" lon="2.7678">
        <ele>718.5</ele>
        <time>2015-09-18T12:22:39Z</time>
      </trkpt>
      <trkpt lat="42.47467" lon="2.76784">
        <ele>720.3</ele>
        <time>2015-09-18T12:22:40Z</time>
      </trkpt>
      <trkpt lat="42.47449" lon="2.76779">
        <ele>721.2</ele>
        <time>2015-09-18T12:22:42Z</time>
      </trkpt>
      <trkpt lat="42.4744" lon="2.76773">
        <ele>722.3</ele>
        <time>2015-09-18T12:22:43Z</time>
      </trkpt>
      <trkpt lat="42.47431" lon="2.76766">
        <ele>723.3</ele>
        <time>2015-09-18T12:22:44Z</time>
      </trkpt>
      <trkpt lat="42.47423" lon="2.76758">
        <ele>723.3</ele>
        <time>2015-09-18T12:22:45Z</time>
      </trkpt>
      <trkpt lat="42.47416" lon="2.76748">
        <ele>725.7</ele>
        <time>2015-09-18T12:22:46Z</time>
      </trkpt>
      <trkpt lat="42.4741" lon="2.76737">
        <ele>727</ele>
        <time>2015-09-18T12:22:47Z</time>
      </trkpt>
      <trkpt lat="42.47405" lon="2.76726">
        <ele>729</ele>
        <time>2015-09-18T12:22:48Z</time>
      </trkpt>
      <trkpt lat="42.47403" lon="2.76714">
        <ele>731.9</ele>
        <time>2015-09-18T12:22:49Z</time>
      </trkpt>
      <trkpt lat="42.47404" lon="2.76705">
        <ele>734.2</ele>
        <time>2015-09-18T12:22:50Z</time>
      </trkpt>
      <trkpt lat="42.47407" lon="2.76698">
        <ele>736.1</ele>
        <time>2015-09-18T12:22:51Z</time>
      </trkpt>
      <trkpt lat="42.47413" lon="2.76695">
        <ele>737.4</ele>
        <time>2015-09-18T12:22:52Z</time>
      </trkpt>
      <trkpt lat="42.47418" lon="2.76695">
        <ele>738.8</ele>
        <time>2015-09-18T12:22:53Z</time>
      </trkpt>
      <trkpt lat="42.47424" lon="2.76699">
        <ele>738.8</ele>
        <time>2015-09-18T12:22:54Z</time>
      </trkpt>
      <trkpt lat="42.47427" lon="2.76706">
        <ele>742</ele>
        <time>2015-09-18T12:22:55Z</time>
      </trkpt>
      <trkpt lat="42.4743" lon="2.76714">
        <ele>744.1</ele>
        <time>2015-09-18T12:22:56Z</time>
      </trkpt>
      <trkpt lat="42.47432" lon="2.76731">
        <ele>749.3</ele>
        <time>2015-09-18T12:22:58Z</time>
      </trkpt>
      <trkpt lat="42.47432" lon="2.7674">
        <ele>751.8</ele>
        <time>2015-09-18T12:22:59Z</time>
      </trkpt>
      <trkpt lat="42.4743" lon="2.76749">
        <ele>753.6</ele>
        <time>2015-09-18T12:23:00Z</time>
      </trkpt>
      <trkpt lat="42.4743" lon="2.76749">
        <ele>755</ele>
        <time>2015-09-18T12:23:00Z</time>
      </trkpt>
      <trkpt lat="42.47427" lon="2.76758">
        <ele>756.3</ele>
        <time>2015-09-18T12:23:01Z</time>
      </trkpt>
      <trkpt lat="42.47416" lon="2.76774">
        <ele>757.5</ele>
        <time>2015-09-18T12:23:03Z</time>
      </trkpt>
      <trkpt lat="42.47407" lon="2.76779">
        <ele>758.6</ele>
        <time>2015-09-18T12:23:04Z</time>
      </trkpt>
      <trkpt lat="42.47396" lon="2.76781">
        <ele>760.2</ele>
        <time>2015-09-18T12:23:05Z</time>
      </trkpt>
      <trkpt lat="42.47385" lon="2.7678">
        <ele>762.4</ele>
        <time>2015-09-18T12:23:06Z</time>
      </trkpt>
      <trkpt lat="42.47374" lon="2.76774">
        <ele>764.6</ele>
        <time>2015-09-18T12:23:07Z</time>
      </trkpt>
      <trkpt lat="42.47365" lon="2.76767">
        <ele>766.7</ele>
        <time>2015-09-18T12:23:08Z</time>
      </trkpt>
      <trkpt lat="42.47356" lon="2.76759">
        <ele>770.2</ele>
        <time>2015-09-18T12:23:09Z</time>
      </trkpt>
      <trkpt lat="42.47348" lon="2.76749">
        <ele>771.5</ele>
        <time>2015-09-18T12:23:10Z</time>
      </trkpt>
      <trkpt lat="42.47335" lon="2.76726">
        <ele>773.2</ele>
        <time>2015-09-18T12:23:12Z</time>
      </trkpt>
      <trkpt lat="42.4733" lon="2.76713">
        <ele>775.3</ele>
        <time>2015-09-18T12:23:13Z</time>
      </trkpt>
      <trkpt lat="42.47327" lon="2.767">
        <ele>777.9</ele>
        <time>2015-09-18T12:23:14Z</time>
      </trkpt>
      <trkpt lat="42.47324" lon="2.76687">
        <ele>777.9</ele>
        <time>2015-09-18T12:23:15Z</time>
      </trkpt>
      <trkpt lat="42.47323" lon="2.76676">
        <ele>781.7</ele>
        <time>2015-09-18T12:23:16Z</time>
      </trkpt>
      <trkpt lat="42.47324" lon="2.76664">
        <ele>782.1</ele>
        <time>2015-09-18T12:23:17Z</time>
      </trkpt>
      <trkpt lat="42.47328" lon="2.76653">
        <ele>782.1</ele>
        <time>2015-09-18T12:23:18Z</time>
      </trkpt>
      <trkpt lat="42.47334" lon="2.76643">
        <ele>784.7</ele>
        <time>2015-09-18T12:23:19Z</time>
      </trkpt>
      <trkpt lat="42.4734" lon="2.76636">
        <ele>787.8</ele>
        <time>2015-09-18T12:23:20Z</time>
      </trkpt>
      <trkpt lat="42.47345" lon="2.76631">
        <ele>790.7</ele>
        <time>2015-09-18T12:23:21Z</time>
      </trkpt>
      <trkpt lat="42.4735" lon="2.76629">
        <ele>792.6</ele>
        <time>2015-09-18T12:23:22Z</time>
      </trkpt>
      <trkpt lat="42.47354" lon="2.76629">
        <ele>794.3</ele>
        <time>2015-09-18T12:23:23Z</time>
      </trkpt>
      <trkpt lat="42.47359" lon="2.7663">
        <ele>795.4</ele>
        <time>2015-09-18T12:23:24Z</time>
      </trkpt>
      <trkpt lat="42.47364" lon="2.76633">
        <ele>796.6</ele>
        <time>2015-09-18T12:23:25Z</time>
      </trkpt>
      <trkpt lat="42.47368" lon="2.76639">
        <ele>798.6</ele>
        <time>2015-09-18T12:23:26Z</time>
      </trkpt>
      <trkpt lat="42.47366" lon="2.76657">
        <ele>800.6</ele>
        <time>2015-09-18T12:23:28Z</time>
      </trkpt>
      <trkpt lat="42.47359" lon="2.76665">
        <ele>803.5</ele>
        <time>2015-09-18T12:23:29Z</time>
      </trkpt>
      <trkpt lat="42.47349" lon="2.76669">
        <ele>805.7</ele>
        <time>2015-09-18T12:23:30Z</time>
      </trkpt>
      <trkpt lat="42.47349" lon="2.76669">
        <ele>807.5</ele>
        <time>2015-09-18T12:23:30Z</time>
      </trkpt>
      <trkpt lat="42.47329" lon="2.7667">
        <ele>809.6</ele>
        <time>2015-09-18T12:23:32Z</time>
      </trkpt>
      <trkpt lat="42.4732" lon="2.76669">
        <ele>811.5</ele>
        <time>2015-09-18T12:23:33Z</time>
      </trkpt>
      <trkpt lat="42.47311" lon="2.76665">
        <ele>814</ele>
        <time>2015-09-18T12:23:34Z</time>
      </trkpt>
      <trkpt lat="42.47303" lon="2.76658">
        <ele>814.9</ele>
        <time>2015-09-18T12:23:35Z</time>
      </trkpt>
      <trkpt lat="42.47295" lon="2.76647">
        <ele>816.3</ele>
        <time>2015-09-18T12:23:36Z</time>
      </trkpt>
      <trkpt lat="42.47289" lon="2.76633">
        <ele>818.7</ele>
        <time>2015-09-18T12:23:37Z</time>
      </trkpt>
      <trkpt lat="42.47285" lon="2.76618">
        <ele>822.2</ele>
        <time>2015-09-18T12:23:38Z</time>
      </trkpt>
      <trkpt lat="42.47285" lon="2.76605">
        <ele>828.3</ele>
        <time>2015-09-18T12:23:39Z</time>
      </trkpt>
      <trkpt lat="42.47288" lon="2.76594">
        <ele>831.1</ele>
        <time>2015-09-18T12:23:40Z</time>
      </trkpt>
      <trkpt lat="42.47296" lon="2.76573">
        <ele>834</ele>
        <time>2015-09-18T12:23:42Z</time>
      </trkpt>
      <trkpt lat="42.473" lon="2.76564">
        <ele>836.8</ele>
        <time>2015-09-18T12:23:43Z</time>
      </trkpt>
      <trkpt lat="42.47304" lon="2.76555">
        <ele>839.1</ele>
        <time>2015-09-18T12:23:44Z</time>
      </trkpt>
      <trkpt lat="42.47304" lon="2.76555">
        <ele>841</ele>
        <time>2015-09-18T12:23:44Z</time>
      </trkpt>
      <trkpt lat="42.47313" lon="2.76539">
        <ele>842.5</ele>
        <time>2015-09-18T12:23:46Z</time>
      </trkpt>
      <trkpt lat="42.47318" lon="2.7653">
        <ele>844.2</ele>
        <time>2015-09-18T12:23:47Z</time>
      </trkpt>
      <trkpt lat="42.47324" lon="2.76522">
        <ele>846.3</ele>
        <time>2015-09-18T12:23:48Z</time>
      </trkpt>
      <trkpt lat="42.4733" lon="2.76515">
        <ele>848.6</ele>
        <time>2015-09-18T12:23:49Z</time>
      </trkpt>
      <trkpt lat="42.47335" lon="2.76508">
        <ele>851.1</ele>
        <time>2015-09-18T12:23:50Z</time>
      </trkpt>
      <trkpt lat="42.4734" lon="2.76501">
        <ele>853</ele>
        <time>2015-09-18T12:23:51Z</time>
      </trkpt>
      <trkpt lat="42.47346" lon="2.76495">
        <ele>853</ele>
        <time>2015-09-18T12:23:52Z</time>
      </trkpt>
      <trkpt lat="42.47351" lon="2.76491">
        <ele>856.4</ele>
        <time>2015-09-18T12:23:53Z</time>
      </trkpt>
      <trkpt lat="42.47356" lon="2.76489">
        <ele>857.7</ele>
        <time>2015-09-18T12:23:54Z</time>
      </trkpt>
      <trkpt lat="42.47362" lon="2.76491">
        <ele>859.2</ele>
        <time>2015-09-18T12:23:55Z</time>
      </trkpt>
      <trkpt lat="42.47366" lon="2.76496">
        <ele>860.4</ele>
        <time>2015-09-18T12:23:56Z</time>
      </trkpt>
      <trkpt lat="42.47369" lon="2.76512">
        <ele>863.9</ele>
        <time>2015-09-18T12:23:58Z</time>
      </trkpt>
      <trkpt lat="42.47368" lon="2.76521">
        <ele>866.5</ele>
        <time>2015-09-18T12:23:59Z</time>
      </trkpt>
      <trkpt lat="42.47365" lon="2.76528">
        <ele>870</ele>
        <time>2015-09-18T12:24:00Z</time>
      </trkpt>
      <trkpt lat="42.47363" lon="2.76535">
        <ele>873.8</ele>
        <time>2015-09-18T12:24:01Z</time>
      </trkpt>
      <trkpt lat="42.47359" lon="2.76542">
        <ele>877.5</ele>
        <time>2015-09-18T12:24:02Z</time>
      </trkpt>
      <trkpt lat="42.47355" lon="2.76548">
        <ele>880.7</ele>
        <time>2015-09-18T12:24:03Z</time>
      </trkpt>
      <trkpt lat="42.4735" lon="2.76554">
        <ele>883.3</ele>
        <time>2015-09-18T12:24:04Z</time>
      </trkpt>
      <trkpt lat="42.47343" lon="2.76559">
        <ele>886</ele>
        <time>2015-09-18T12:24:05Z</time>
      </trkpt>
      <trkpt lat="42.47335" lon="2.76562">
        <ele>888.9</ele>
        <time>2015-09-18T12:24:06Z</time>
      </trkpt>
      <trkpt lat="42.47326" lon="2.76564">
        <ele>891.8</ele>
        <time>2015-09-18T12:24:07Z</time>
      </trkpt>
      <trkpt lat="42.47317" lon="2.76562">
        <ele>894.9</ele>
        <time>2015-09-18T12:24:08Z</time>
      </trkpt>
      <trkpt lat="42.47307" lon="2.76557">
        <ele>897.2</ele>
        <time>2015-09-18T12:24:09Z</time>
      </trkpt>
      <trkpt lat="42.47298" lon="2.76549">
        <ele>899.2</ele>
        <time>2015-09-18T12:24:10Z</time>
      </trkpt>
      <trkpt lat="42.47287" lon="2.76525">
        <ele>902.8</ele>
        <time>2015-09-18T12:24:12Z</time>
      </trkpt>
      <trkpt lat="42.47285" lon="2.76511">
        <ele>904.9</ele>
        <time>2015-09-18T12:24:13Z</time>
      </trkpt>
      <trkpt lat="42.47285" lon="2.76498">
        <ele>907.3</ele>
        <time>2015-09-18T12:24:14Z</time>
      </trkpt>
      <trkpt lat="42.47286" lon="2.76485">
        <ele>907.3</ele>
        <time>2015-09-18T12:24:15Z</time>
      </trkpt>
      <trkpt lat="42.47288" lon="2.76472">
        <ele>907.3</ele>
        <time>2015-09-18T12:24:16Z</time>
      </trkpt>
      <trkpt lat="42.47291" lon="2.76461">
        <ele>915</ele>
        <time>2015-09-18T12:24:17Z</time>
      </trkpt>
      <trkpt lat="42.47295" lon="2.7645">
        <ele>917.6</ele>
        <time>2015-09-18T12:24:18Z</time>
      </trkpt>
      <trkpt lat="42.473" lon="2.76441">
        <ele>920</ele>
        <time>2015-09-18T12:24:19Z</time>
      </trkpt>
      <trkpt lat="42.47305" lon="2.76434">
        <ele>922.5</ele>
        <time>2015-09-18T12:24:20Z</time>
      </trkpt>
      <trkpt lat="42.47311" lon="2.76431">
        <ele>924</ele>
        <time>2015-09-18T12:24:21Z</time>
      </trkpt>
      <trkpt lat="42.47316" lon="2.76431">
        <ele>925.4</ele>
        <time>2015-09-18T12:24:22Z</time>
      </trkpt>
      <trkpt lat="42.47327" lon="2.7644">
        <ele>930.2</ele>
        <time>2015-09-18T12:24:24Z</time>
      </trkpt>
      <trkpt lat="42.47329" lon="2.76447">
        <ele>933.4</ele>
        <time>2015-09-18T12:24:25Z</time>
      </trkpt>
      <trkpt lat="42.47329" lon="2.76447">
        <ele>936.6</ele>
        <time>2015-09-18T12:24:25Z</time>
      </trkpt>
      <trkpt lat="42.47324" lon="2.76462">
        <ele>939.8</ele>
        <time>2015-09-18T12:24:27Z</time>
      </trkpt>
      <trkpt lat="42.47317" lon="2.76466">
        <ele>943.1</ele>
        <time>2015-09-18T12:24:28Z</time>
      </trkpt>
      <trkpt lat="42.47309" lon="2.76469">
        <ele>946</ele>
        <time>2015-09-18T12:24:29Z</time>
      </trkpt>
      <trkpt lat="42.473" lon="2.76468">
        <ele>948.9</ele>
        <time>2015-09-18T12:24:30Z</time>
      </trkpt>
      <trkpt lat="42.4729" lon="2.76465">
        <ele>951.6</ele>
        <time>2015-09-18T12:24:31Z</time>
      </trkpt>
      <trkpt lat="42.47281" lon="2.76458">
        <ele>954.4</ele>
        <time>2015-09-18T12:24:32Z</time>
      </trkpt>
      <trkpt lat="42.47273" lon="2.76448">
        <ele>956.9</ele>
        <time>2015-09-18T12:24:33Z</time>
      </trkpt>
      <trkpt lat="42.47266" lon="2.76435">
        <ele>960.3</ele>
        <time>2015-09-18T12:24:34Z</time>
      </trkpt>
      <trkpt lat="42.47261" lon="2.76423">
        <ele>963.8</ele>
        <time>2015-09-18T12:24:35Z</time>
      </trkpt>
      <trkpt lat="42.47259" lon="2.7641">
        <ele>966.8</ele>
        <time>2015-09-18T12:24:36Z</time>
      </trkpt>
      <trkpt lat="42.4726" lon="2.76399">
        <ele>968.8</ele>
        <time>2015-09-18T12:24:37Z</time>
      </trkpt>
      <trkpt lat="42.47263" lon="2.76387">
        <ele>971</ele>
        <time>2015-09-18T12:24:38Z</time>
      </trkpt>
      <trkpt lat="42.47267" lon="2.76377">
        <ele>973.3</ele>
        <time>2015-09-18T12:24:39Z</time>
      </trkpt>
      <trkpt lat="42.47272" lon="2.76368">
        <ele>978.2</ele>
        <time>2015-09-18T12:24:40Z</time>
      </trkpt>
      <trkpt lat="42.47278" lon="2.76361">
        <ele>978.2</ele>
        <time>2015-09-18T12:24:41Z</time>
      </trkpt>
      <trkpt lat="42.47289" lon="2.76355">
        <ele>979.9</ele>
        <time>2015-09-18T12:24:43Z</time>
      </trkpt>
      <trkpt lat="42.47296" lon="2.76356">
        <ele>980.9</ele>
        <time>2015-09-18T12:24:44Z</time>
      </trkpt>
      <trkpt lat="42.47301" lon="2.7636">
        <ele>982.2</ele>
        <time>2015-09-18T12:24:45Z</time>
      </trkpt>
      <trkpt lat="42.47301" lon="2.7636">
        <ele>984.1</ele>
        <time>2015-09-18T12:24:45Z</time>
      </trkpt>
      <trkpt lat="42.47307" lon="2.76375">
        <ele>986.8</ele>
        <time>2015-09-18T12:24:47Z</time>
      </trkpt>
      <trkpt lat="42.47307" lon="2.76383">
        <ele>990.3</ele>
        <time>2015-09-18T12:24:48Z</time>
      </trkpt>
      <trkpt lat="42.47304" lon="2.7639">
        <ele>993.8</ele>
        <time>2015-09-18T12:24:49Z</time>
      </trkpt>
      <trkpt lat="42.47299" lon="2.76395">
        <ele>996.7</ele>
        <time>2015-09-18T12:24:50Z</time>
      </trkpt>
      <trkpt lat="42.47292" lon="2.76399">
        <ele>999.6</ele>
        <time>2015-09-18T12:24:51Z</time>
      </trkpt>
      <trkpt lat="42.47284" lon="2.764">
        <ele>1002.7</ele>
        <time>2015-09-18T12:24:52Z</time>
      </trkpt>
      <trkpt lat="42.47275" lon="2.76399">
        <ele>1005.8</ele>
        <time>2015-09-18T12:24:53Z</time>
      </trkpt>
      <trkpt lat="42.47266" lon="2.76396">
        <ele>1012.5</ele>
        <time>2015-09-18T12:24:54Z</time>
      </trkpt>
      <trkpt lat="42.47266" lon="2.76396">
        <ele>1015.9</ele>
        <time>2015-09-18T12:24:54Z</time>
      </trkpt>
      <trkpt lat="42.47238" lon="2.76377">
        <ele>1019.3</ele>
        <time>2015-09-18T12:24:57Z</time>
      </trkpt>
      <trkpt lat="42.4723" lon="2.76367">
        <ele>1022.6</ele>
        <time>2015-09-18T12:24:58Z</time>
      </trkpt>
      <trkpt lat="42.47223" lon="2.76356">
        <ele>1022.6</ele>
        <time>2015-09-18T12:24:59Z</time>
      </trkpt>
      <trkpt lat="42.47217" lon="2.76344">
        <ele>1028.3</ele>
        <time>2015-09-18T12:25:00Z</time>
      </trkpt>
      <trkpt lat="42.47213" lon="2.7633">
        <ele>1031.1</ele>
        <time>2015-09-18T12:25:01Z</time>
      </trkpt>
      <trkpt lat="42.47211" lon="2.76317">
        <ele>1031.1</ele>
        <time>2015-09-18T12:25:02Z</time>
      </trkpt>
      <trkpt lat="42.47212" lon="2.76305">
        <ele>1037.5</ele>
        <time>2015-09-18T12:25:03Z</time>
      </trkpt>
      <trkpt lat="42.47214" lon="2.76294">
        <ele>1040.4</ele>
        <time>2015-09-18T12:25:04Z</time>
      </trkpt>
      <trkpt lat="42.47217" lon="2.76284">
        <ele>1043.5</ele>
        <time>2015-09-18T12:25:05Z</time>
      </trkpt>
      <trkpt lat="42.47221" lon="2.76274">
        <ele>1046.7</ele>
        <time>2015-09-18T12:25:06Z</time>
      </trkpt>
      <trkpt lat="42.47225" lon="2.76265">
        <ele>1052.8</ele>
        <time>2015-09-18T12:25:07Z</time>
      </trkpt>
      <trkpt lat="42.47235" lon="2.7625">
        <ele>1054.7</ele>
        <time>2015-09-18T12:25:09Z</time>
      </trkpt>
      <trkpt lat="42.47241" lon="2.76245">
        <ele>1055.7</ele>
        <time>2015-09-18T12:25:10Z</time>
      </trkpt>
      <trkpt lat="42.47241" lon="2.76245">
        <ele>1056.5</ele>
        <time>2015-09-18T12:25:10Z</time>
      </trkpt>
      <trkpt lat="42.47255" lon="2.76242">
        <ele>1057.8</ele>
        <time>2015-09-18T12:25:12Z</time>
      </trkpt>
      <trkpt lat="42.47262" lon="2.76244">
        <ele>1059.6</ele>
        <time>2015-09-18T12:25:13Z</time>
      </trkpt>
      <trkpt lat="42.47268" lon="2.76248">
        <ele>1061.6</ele>
        <time>2015-09-18T12:25:14Z</time>
      </trkpt>
      <trkpt lat="42.47272" lon="2.76253">
        <ele>1061.6</ele>
        <time>2015-09-18T12:25:15Z</time>
      </trkpt>
      <trkpt lat="42.47276" lon="2.76259">
        <ele>1066.3</ele>
        <time>2015-09-18T12:25:16Z</time>
      </trkpt>
      <trkpt lat="42.47278" lon="2.76265">
        <ele>1068.8</ele>
        <time>2015-09-18T12:25:17Z</time>
      </trkpt>
      <trkpt lat="42.47278" lon="2.76272">
        <ele>1071.1</ele>
        <time>2015-09-18T12:25:18Z</time>
      </trkpt>
      <trkpt lat="42.47278" lon="2.76279">
        <ele>1073.8</ele>
        <time>2015-09-18T12:25:19Z</time>
      </trkpt>
      <trkpt lat="42.47277" lon="2.76286">
        <ele>1073.8</ele>
        <time>2015-09-18T12:25:20Z</time>
      </trkpt>
      <trkpt lat="42.47276" lon="2.76292">
        <ele>1082.7</ele>
        <time>2015-09-18T12:25:21Z</time>
      </trkpt>
      <trkpt lat="42.47271" lon="2.76303">
        <ele>1085.3</ele>
        <time>2015-09-18T12:25:23Z</time>
      </trkpt>
      <trkpt lat="42.47266" lon="2.76308">
        <ele>1087.2</ele>
        <time>2015-09-18T12:25:24Z</time>
      </trkpt>
      <trkpt lat="42.4726" lon="2.76312">
        <ele>1089.4</ele>
        <time>2015-09-18T12:25:25Z</time>
      </trkpt>
      <trkpt lat="42.4726" lon="2.76312">
        <ele>1092.1</ele>
        <time>2015-09-18T12:25:25Z</time>
      </trkpt>
      <trkpt lat="42.47245" lon="2.76315">
        <ele>1092.1</ele>
        <time>2015-09-18T12:25:27Z</time>
      </trkpt>
      <trkpt lat="42.47237" lon="2.76313">
        <ele>1097.9</ele>
        <time>2015-09-18T12:25:28Z</time>
      </trkpt>
      <trkpt lat="42.47228" lon="2.76308">
        <ele>1100</ele>
        <time>2015-09-18T12:25:29Z</time>
      </trkpt>
      <trkpt lat="42.47219" lon="2.76301">
        <ele>1102</ele>
        <time>2015-09-18T12:25:30Z</time>
      </trkpt>
      <trkpt lat="42.47211" lon="2.76291">
        <ele>1104.9</ele>
        <time>2015-09-18T12:25:31Z</time>
      </trkpt>
      <trkpt lat="42.47205" lon="2.76277">
        <ele>1108.4</ele>
        <time>2015-09-18T12:25:32Z</time>
      </trkpt>
      <trkpt lat="42.47203" lon="2.76261">
        <ele>1112.1</ele>
        <time>2015-09-18T12:25:33Z</time>
      </trkpt>
      <trkpt lat="42.47203" lon="2.76245">
        <ele>1112.1</ele>
        <time>2015-09-18T12:25:34Z</time>
      </trkpt>
      <trkpt lat="42.47205" lon="2.7623">
        <ele>1120.7</ele>
        <time>2015-09-18T12:25:35Z</time>
      </trkpt>
      <trkpt lat="42.47208" lon="2.76218">
        <ele>1125.4</ele>
        <time>2015-09-18T12:25:36Z</time>
      </trkpt>
      <trkpt lat="42.47217" lon="2.76197">
        <ele>1131.8</ele>
        <time>2015-09-18T12:25:38Z</time>
      </trkpt>
      <trkpt lat="42.47223" lon="2.76189">
        <ele>1133.8</ele>
        <time>2015-09-18T12:25:39Z</time>
      </trkpt>
      <trkpt lat="42.4723" lon="2.76181">
        <ele>1135.3</ele>
        <time>2015-09-18T12:25:40Z</time>
      </trkpt>
      <trkpt lat="42.4723" lon="2.76181">
        <ele>1137</ele>
        <time>2015-09-18T12:25:40Z</time>
      </trkpt>
      <trkpt lat="42.47246" lon="2.76171">
        <ele>1139.7</ele>
        <time>2015-09-18T12:25:42Z</time>
      </trkpt>
      <trkpt lat="42.47254" lon="2.76167">
        <ele>1142.7</ele>
        <time>2015-09-18T12:25:43Z</time>
      </trkpt>
      <trkpt lat="42.47261" lon="2.76162">
        <ele>1144.9</ele>
        <time>2015-09-18T12:25:44Z</time>
      </trkpt>
      <trkpt lat="42.47268" lon="2.76158">
        <ele>1144.9</ele>
        <time>2015-09-18T12:25:45Z</time>
      </trkpt>
      <trkpt lat="42.47276" lon="2.76155">
        <ele>1147</ele>
        <time>2015-09-18T12:25:46Z</time>
      </trkpt>
      <trkpt lat="42.47286" lon="2.76153">
        <ele>1147</ele>
        <time>2015-09-18T12:25:47Z</time>
      </trkpt>
      <trkpt lat="42.47295" lon="2.76154">
        <ele>1150.6</ele>
        <time>2015-09-18T12:25:48Z</time>
      </trkpt>
      <trkpt lat="42.47304" lon="2.76155">
        <ele>1151.4</ele>
        <time>2015-09-18T12:25:49Z</time>
      </trkpt>
      <trkpt lat="42.47312" lon="2.76156">
        <ele>1151.6</ele>
        <time>2015-09-18T12:25:50Z</time>
      </trkpt>
      <trkpt lat="42.47327" lon="2.76158">
        <ele>1151.2</ele>
        <time>2015-09-18T12:25:52Z</time>
      </trkpt>
      <trkpt lat="42.47335" lon="2.7616">
        <ele>1150.9</ele>
        <time>2015-09-18T12:25:53Z</time>
      </trkpt>
      <trkpt lat="42.47343" lon="2.76163">
        <ele>1150.8</ele>
        <time>2015-09-18T12:25:54Z</time>
      </trkpt>
      <trkpt lat="42.4735" lon="2.76166">
        <ele>1151.1</ele>
        <time>2015-09-18T12:25:55Z</time>
      </trkpt>
      <trkpt lat="42.4735" lon="2.76166">
        <ele>1151.5</ele>
        <time>2015-09-18T12:25:55Z</time>
      </trkpt>
      <trkpt lat="42.47364" lon="2.76173">
        <ele>1151.2</ele>
        <time>2015-09-18T12:25:57Z</time>
      </trkpt>
      <trkpt lat="42.47371" lon="2.76176">
        <ele>1151.1</ele>
        <time>2015-09-18T12:25:58Z</time>
      </trkpt>
      <trkpt lat="42.47378" lon="2.76179">
        <ele>1151.4</ele>
        <time>2015-09-18T12:25:59Z</time>
      </trkpt>
      <trkpt lat="42.47385" lon="2.76183">
        <ele>1152.8</ele>
        <time>2015-09-18T12:26:00Z</time>
      </trkpt>
      <trkpt lat="42.47392" lon="2.76186">
        <ele>1154.4</ele>
        <time>2015-09-18T12:26:01Z</time>
      </trkpt>
      <trkpt lat="42.47398" lon="2.76189">
        <ele>1155.7</ele>
        <time>2015-09-18T12:26:02Z</time>
      </trkpt>
      <trkpt lat="42.47403" lon="2.7619">
        <ele>1156.2</ele>
        <time>2015-09-18T12:26:03Z</time>
      </trkpt>
      <trkpt lat="42.47408" lon="2.76192">
        <ele>1156</ele>
        <time>2015-09-18T12:26:04Z</time>
      </trkpt>
      <trkpt lat="42.47414" lon="2.76194">
        <ele>1155.3</ele>
        <time>2015-09-18T12:26:05Z</time>
      </trkpt>
      <trkpt lat="42.4742" lon="2.76198">
        <ele>1154.7</ele>
        <time>2015-09-18T12:26:06Z</time>
      </trkpt>
      <trkpt lat="42.47426" lon="2.76202">
        <ele>1154.1</ele>
        <time>2015-09-18T12:26:07Z</time>
      </trkpt>
      <trkpt lat="42.47437" lon="2.7621">
        <ele>1153.8</ele>
        <time>2015-09-18T12:26:09Z</time>
      </trkpt>
      <trkpt lat="42.47443" lon="2.76214">
        <ele>1152.9</ele>
        <time>2015-09-18T12:26:10Z</time>
      </trkpt>
      <trkpt lat="42.47443" lon="2.76214">
        <ele>1151.7</ele>
        <time>2015-09-18T12:26:10Z</time>
      </trkpt>
      <trkpt lat="42.47453" lon="2.76223">
        <ele>1150.4</ele>
        <time>2015-09-18T12:26:12Z</time>
      </trkpt>
      <trkpt lat="42.47458" lon="2.76228">
        <ele>1149.4</ele>
        <time>2015-09-18T12:26:13Z</time>
      </trkpt>
      <trkpt lat="42.47463" lon="2.76231">
        <ele>1148.3</ele>
        <time>2015-09-18T12:26:14Z</time>
      </trkpt>
      <trkpt lat="42.47468" lon="2.76234">
        <ele>1146.9</ele>
        <time>2015-09-18T12:26:15Z</time>
      </trkpt>
      <trkpt lat="42.47473" lon="2.76237">
        <ele>1145.4</ele>
        <time>2015-09-18T12:26:16Z</time>
      </trkpt>
      <trkpt lat="42.47478" lon="2.76241">
        <ele>1144</ele>
        <time>2015-09-18T12:26:17Z</time>
      </trkpt>
      <trkpt lat="42.47482" lon="2.76245">
        <ele>1142.7</ele>
        <time>2015-09-18T12:26:18Z</time>
      </trkpt>
      <trkpt lat="42.47486" lon="2.76248">
        <ele>1140.9</ele>
        <time>2015-09-18T12:26:19Z</time>
      </trkpt>
      <trkpt lat="42.4749" lon="2.76251">
        <ele>1138.7</ele>
        <time>2015-09-18T12:26:20Z</time>
      </trkpt>
      <trkpt lat="42.47495" lon="2.76253">
        <ele>1136.6</ele>
        <time>2015-09-18T12:26:21Z</time>
      </trkpt>
      <trkpt lat="42.47499" lon="2.76255">
        <ele>1134.7</ele>
        <time>2015-09-18T12:26:22Z</time>
      </trkpt>
      <trkpt lat="42.47504" lon="2.76257">
        <ele>1133.2</ele>
        <time>2015-09-18T12:26:23Z</time>
      </trkpt>
      <trkpt lat="42.47508" lon="2.76258">
        <ele>1133.2</ele>
        <time>2015-09-18T12:26:24Z</time>
      </trkpt>
      <trkpt lat="42.47512" lon="2.76259">
        <ele>1133.2</ele>
        <time>2015-09-18T12:26:25Z</time>
      </trkpt>
      <trkpt lat="42.47522" lon="2.76258">
        <ele>1124.1</ele>
        <time>2015-09-18T12:26:27Z</time>
      </trkpt>
      <trkpt lat="42.47527" lon="2.76258">
        <ele>1121.3</ele>
        <time>2015-09-18T12:26:28Z</time>
      </trkpt>
      <trkpt lat="42.47533" lon="2.76258">
        <ele>1119.2</ele>
        <time>2015-09-18T12:26:29Z</time>
      </trkpt>
      <trkpt lat="42.47538" lon="2.76258">
        <ele>1117.5</ele>
        <time>2015-09-18T12:26:30Z</time>
      </trkpt>
      <trkpt lat="42.47544" lon="2.76259">
        <ele>1116.1</ele>
        <time>2015-09-18T12:26:31Z</time>
      </trkpt>
      <trkpt lat="42.47549" lon="2.76259">
        <ele>1116.1</ele>
        <time>2015-09-18T12:26:32Z</time>
      </trkpt>
      <trkpt lat="42.47554" lon="2.76259">
        <ele>1113.4</ele>
        <time>2015-09-18T12:26:33Z</time>
      </trkpt>
      <trkpt lat="42.47559" lon="2.76259">
        <ele>1111.5</ele>
        <time>2015-09-18T12:26:34Z</time>
      </trkpt>
      <trkpt lat="42.47563" lon="2.76259">
        <ele>1109.3</ele>
        <time>2015-09-18T12:26:35Z</time>
      </trkpt>
      <trkpt lat="42.47568" lon="2.7626">
        <ele>1106.9</ele>
        <time>2015-09-18T12:26:36Z</time>
      </trkpt>
      <trkpt lat="42.47572" lon="2.76262">
        <ele>1104.4</ele>
        <time>2015-09-18T12:26:37Z</time>
      </trkpt>
      <trkpt lat="42.47577" lon="2.76265">
        <ele>1102.3</ele>
        <time>2015-09-18T12:26:38Z</time>
      </trkpt>
      <trkpt lat="42.47582" lon="2.76269">
        <ele>1100.2</ele>
        <time>2015-09-18T12:26:39Z</time>
      </trkpt>
      <trkpt lat="42.47586" lon="2.76272">
        <ele>1099.1</ele>
        <time>2015-09-18T12:26:40Z</time>
      </trkpt>
      <trkpt lat="42.47594" lon="2.76275">
        <ele>1097.6</ele>
        <time>2015-09-18T12:26:42Z</time>
      </trkpt>
      <trkpt lat="42.47599" lon="2.76275">
        <ele>1095.5</ele>
        <time>2015-09-18T12:26:43Z</time>
      </trkpt>
      <trkpt lat="42.47604" lon="2.76274">
        <ele>1093.2</ele>
        <time>2015-09-18T12:26:44Z</time>
      </trkpt>
      <trkpt lat="42.47609" lon="2.76273">
        <ele>1091.2</ele>
        <time>2015-09-18T12:26:45Z</time>
      </trkpt>
      <trkpt lat="42.47615" lon="2.76273">
        <ele>1089.7</ele>
        <time>2015-09-18T12:26:46Z</time>
      </trkpt>
      <trkpt lat="42.4762" lon="2.76274">
        <ele>1088.1</ele>
        <time>2015-09-18T12:26:47Z</time>
      </trkpt>
      <trkpt lat="42.47624" lon="2.76274">
        <ele>1085.6</ele>
        <time>2015-09-18T12:26:48Z</time>
      </trkpt>
      <trkpt lat="42.47628" lon="2.76272">
        <ele>1082.2</ele>
        <time>2015-09-18T12:26:49Z</time>
      </trkpt>
      <trkpt lat="42.47634" lon="2.76269">
        <ele>1078.8</ele>
        <time>2015-09-18T12:26:50Z</time>
      </trkpt>
      <trkpt lat="42.4764" lon="2.76266">
        <ele>1075.9</ele>
        <time>2015-09-18T12:26:51Z</time>
      </trkpt>
      <trkpt lat="42.47647" lon="2.76263">
        <ele>1073.6</ele>
        <time>2015-09-18T12:26:52Z</time>
      </trkpt>
      <trkpt lat="42.47653" lon="2.76261">
        <ele>1071.6</ele>
        <time>2015-09-18T12:26:53Z</time>
      </trkpt>
      <trkpt lat="42.47658" lon="2.76258">
        <ele>1066.7</ele>
        <time>2015-09-18T12:26:54Z</time>
      </trkpt>
      <trkpt lat="42.47663" lon="2.76254">
        <ele>1063.7</ele>
        <time>2015-09-18T12:26:55Z</time>
      </trkpt>
      <trkpt lat="42.47674" lon="2.76247">
        <ele>1060.7</ele>
        <time>2015-09-18T12:26:57Z</time>
      </trkpt>
      <trkpt lat="42.4768" lon="2.76244">
        <ele>1058.3</ele>
        <time>2015-09-18T12:26:58Z</time>
      </trkpt>
      <trkpt lat="42.47686" lon="2.76241">
        <ele>1056.6</ele>
        <time>2015-09-18T12:26:59Z</time>
      </trkpt>
      <trkpt lat="42.47691" lon="2.76238">
        <ele>1054.6</ele>
        <time>2015-09-18T12:27:00Z</time>
      </trkpt>
      <trkpt lat="42.47696" lon="2.76235">
        <ele>1052.3</ele>
        <time>2015-09-18T12:27:01Z</time>
      </trkpt>
      <trkpt lat="42.47701" lon="2.76231">
        <ele>1050.1</ele>
        <time>2015-09-18T12:27:02Z</time>
      </trkpt>
      <trkpt lat="42.47706" lon="2.76227">
        <ele>1048</ele>
        <time>2015-09-18T12:27:03Z</time>
      </trkpt>
      <trkpt lat="42.47711" lon="2.76223">
        <ele>1046.1</ele>
        <time>2015-09-18T12:27:04Z</time>
      </trkpt>
      <trkpt lat="42.47716" lon="2.76219">
        <ele>1044.1</ele>
        <time>2015-09-18T12:27:05Z</time>
      </trkpt>
      <trkpt lat="42.47721" lon="2.76216">
        <ele>1041.6</ele>
        <time>2015-09-18T12:27:06Z</time>
      </trkpt>
      <trkpt lat="42.47725" lon="2.76212">
        <ele>1038.6</ele>
        <time>2015-09-18T12:27:07Z</time>
      </trkpt>
      <trkpt lat="42.47731" lon="2.7621">
        <ele>1035.4</ele>
        <time>2015-09-18T12:27:08Z</time>
      </trkpt>
      <trkpt lat="42.47742" lon="2.76205">
        <ele>1029.4</ele>
        <time>2015-09-18T12:27:10Z</time>
      </trkpt>
      <trkpt lat="42.47742" lon="2.76205">
        <ele>1027.2</ele>
        <time>2015-09-18T12:27:10Z</time>
      </trkpt>
      <trkpt lat="42.47754" lon="2.76203">
        <ele>1025.1</ele>
        <time>2015-09-18T12:27:12Z</time>
      </trkpt>
      <trkpt lat="42.47759" lon="2.76203">
        <ele>1022.9</ele>
        <time>2015-09-18T12:27:13Z</time>
      </trkpt>
      <trkpt lat="42.47764" lon="2.76202">
        <ele>1020.3</ele>
        <time>2015-09-18T12:27:14Z</time>
      </trkpt>
      <trkpt lat="42.4777" lon="2.76202">
        <ele>1016.9</ele>
        <time>2015-09-18T12:27:15Z</time>
      </trkpt>
      <trkpt lat="42.4777" lon="2.76202">
        <ele>1013.4</ele>
        <time>2015-09-18T12:27:15Z</time>
      </trkpt>
      <trkpt lat="42.47781" lon="2.76201">
        <ele>1010.1</ele>
        <time>2015-09-18T12:27:17Z</time>
      </trkpt>
      <trkpt lat="42.47788" lon="2.76201">
        <ele>1007.3</ele>
        <time>2015-09-18T12:27:18Z</time>
      </trkpt>
      <trkpt lat="42.47794" lon="2.76202">
        <ele>1005</ele>
        <time>2015-09-18T12:27:19Z</time>
      </trkpt>
      <trkpt lat="42.47799" lon="2.76202">
        <ele>1002.8</ele>
        <time>2015-09-18T12:27:20Z</time>
      </trkpt>
      <trkpt lat="42.47805" lon="2.76203">
        <ele>1000.6</ele>
        <time>2015-09-18T12:27:21Z</time>
      </trkpt>
      <trkpt lat="42.47811" lon="2.76203">
        <ele>998.4</ele>
        <time>2015-09-18T12:27:22Z</time>
      </trkpt>
      <trkpt lat="42.47817" lon="2.76203">
        <ele>993.5</ele>
        <time>2015-09-18T12:27:23Z</time>
      </trkpt>
      <trkpt lat="42.47829" lon="2.76203">
        <ele>990.8</ele>
        <time>2015-09-18T12:27:25Z</time>
      </trkpt>
      <trkpt lat="42.47829" lon="2.76203">
        <ele>987.8</ele>
        <time>2015-09-18T12:27:25Z</time>
      </trkpt>
      <trkpt lat="42.47842" lon="2.76205">
        <ele>984.9</ele>
        <time>2015-09-18T12:27:27Z</time>
      </trkpt>
      <trkpt lat="42.47849" lon="2.76206">
        <ele>982</ele>
        <time>2015-09-18T12:27:28Z</time>
      </trkpt>
      <trkpt lat="42.47856" lon="2.76208">
        <ele>979.4</ele>
        <time>2015-09-18T12:27:29Z</time>
      </trkpt>
      <trkpt lat="42.47863" lon="2.76209">
        <ele>976.8</ele>
        <time>2015-09-18T12:27:30Z</time>
      </trkpt>
      <trkpt lat="42.4787" lon="2.76211">
        <ele>974.1</ele>
        <time>2015-09-18T12:27:31Z</time>
      </trkpt>
      <trkpt lat="42.47876" lon="2.76212">
        <ele>971.2</ele>
        <time>2015-09-18T12:27:32Z</time>
      </trkpt>
      <trkpt lat="42.47882" lon="2.76213">
        <ele>968.3</ele>
        <time>2015-09-18T12:27:33Z</time>
      </trkpt>
      <trkpt lat="42.47889" lon="2.76214">
        <ele>965.3</ele>
        <time>2015-09-18T12:27:34Z</time>
      </trkpt>
      <trkpt lat="42.47895" lon="2.76215">
        <ele>962.3</ele>
        <time>2015-09-18T12:27:35Z</time>
      </trkpt>
      <trkpt lat="42.47901" lon="2.76216">
        <ele>959.3</ele>
        <time>2015-09-18T12:27:36Z</time>
      </trkpt>
      <trkpt lat="42.47908" lon="2.76217">
        <ele>956.2</ele>
        <time>2015-09-18T12:27:37Z</time>
      </trkpt>
      <trkpt lat="42.47914" lon="2.76218">
        <ele>952.9</ele>
        <time>2015-09-18T12:27:38Z</time>
      </trkpt>
      <trkpt lat="42.4792" lon="2.76218">
        <ele>949.6</ele>
        <time>2015-09-18T12:27:39Z</time>
      </trkpt>
      <trkpt lat="42.47927" lon="2.76218">
        <ele>946.2</ele>
        <time>2015-09-18T12:27:40Z</time>
      </trkpt>
      <trkpt lat="42.47934" lon="2.76219">
        <ele>943</ele>
        <time>2015-09-18T12:27:41Z</time>
      </trkpt>
      <trkpt lat="42.47934" lon="2.76219">
        <ele>943</ele>
        <time>2015-09-18T12:27:41Z</time>
      </trkpt>
      <trkpt lat="42.47947" lon="2.76222">
        <ele>936.4</ele>
        <time>2015-09-18T12:27:43Z</time>
      </trkpt>
      <trkpt lat="42.47953" lon="2.76223">
        <ele>932.9</ele>
        <time>2015-09-18T12:27:44Z</time>
      </trkpt>
      <trkpt lat="42.47953" lon="2.76223">
        <ele>926</ele>
        <time>2015-09-18T12:27:44Z</time>
      </trkpt>
      <trkpt lat="42.47974" lon="2.7622">
        <ele>922.9</ele>
        <time>2015-09-18T12:27:47Z</time>
      </trkpt>
      <trkpt lat="42.4798" lon="2.76219">
        <ele>920.1</ele>
        <time>2015-09-18T12:27:48Z</time>
      </trkpt>
      <trkpt lat="42.47986" lon="2.76219">
        <ele>917.9</ele>
        <time>2015-09-18T12:27:49Z</time>
      </trkpt>
      <trkpt lat="42.47992" lon="2.7622">
        <ele>916.2</ele>
        <time>2015-09-18T12:27:50Z</time>
      </trkpt>
      <trkpt lat="42.47997" lon="2.76219">
        <ele>915</ele>
        <time>2015-09-18T12:27:51Z</time>
      </trkpt>
      <trkpt lat="42.48004" lon="2.76218">
        <ele>914</ele>
        <time>2015-09-18T12:27:52Z</time>
      </trkpt>
      <trkpt lat="42.4801" lon="2.76217">
        <ele>913</ele>
        <time>2015-09-18T12:27:53Z</time>
      </trkpt>
      <trkpt lat="42.48016" lon="2.76216">
        <ele>911.9</ele>
        <time>2015-09-18T12:27:54Z</time>
      </trkpt>
      <trkpt lat="42.48022" lon="2.76215">
        <ele>910.9</ele>
        <time>2015-09-18T12:27:55Z</time>
      </trkpt>
      <trkpt lat="42.48027" lon="2.76216">
        <ele>909.7</ele>
        <time>2015-09-18T12:27:56Z</time>
      </trkpt>
      <trkpt lat="42.48032" lon="2.76216">
        <ele>908.3</ele>
        <time>2015-09-18T12:27:57Z</time>
      </trkpt>
      <trkpt lat="42.48037" lon="2.76215">
        <ele>906.6</ele>
        <time>2015-09-18T12:27:58Z</time>
      </trkpt>
      <trkpt lat="42.48042" lon="2.76214">
        <ele>902.2</ele>
        <time>2015-09-18T12:27:59Z</time>
      </trkpt>
      <trkpt lat="42.48048" lon="2.76213">
        <ele>902.2</ele>
        <time>2015-09-18T12:28:00Z</time>
      </trkpt>
      <trkpt lat="42.48054" lon="2.76214">
        <ele>899.1</ele>
        <time>2015-09-18T12:28:01Z</time>
      </trkpt>
      <trkpt lat="42.4806" lon="2.76216">
        <ele>899.1</ele>
        <time>2015-09-18T12:28:02Z</time>
      </trkpt>
      <trkpt lat="42.48071" lon="2.76218">
        <ele>896.5</ele>
        <time>2015-09-18T12:28:04Z</time>
      </trkpt>
      <trkpt lat="42.48077" lon="2.76219">
        <ele>895</ele>
        <time>2015-09-18T12:28:05Z</time>
      </trkpt>
      <trkpt lat="42.48077" lon="2.76219">
        <ele>893.5</ele>
        <time>2015-09-18T12:28:05Z</time>
      </trkpt>
      <trkpt lat="42.48089" lon="2.76219">
        <ele>891.9</ele>
        <time>2015-09-18T12:28:07Z</time>
      </trkpt>
      <trkpt lat="42.48095" lon="2.7622">
        <ele>890</ele>
        <time>2015-09-18T12:28:08Z</time>
      </trkpt>
      <trkpt lat="42.48101" lon="2.76221">
        <ele>888</ele>
        <time>2015-09-18T12:28:09Z</time>
      </trkpt>
      <trkpt lat="42.48107" lon="2.76221">
        <ele>885.6</ele>
        <time>2015-09-18T12:28:10Z</time>
      </trkpt>
      <trkpt lat="42.48113" lon="2.76219">
        <ele>883</ele>
        <time>2015-09-18T12:28:11Z</time>
      </trkpt>
      <trkpt lat="42.48119" lon="2.76216">
        <ele>880.7</ele>
        <time>2015-09-18T12:28:12Z</time>
      </trkpt>
      <trkpt lat="42.48125" lon="2.76213">
        <ele>878.5</ele>
        <time>2015-09-18T12:28:13Z</time>
      </trkpt>
      <trkpt lat="42.48131" lon="2.76211">
        <ele>876.4</ele>
        <time>2015-09-18T12:28:14Z</time>
      </trkpt>
      <trkpt lat="42.48137" lon="2.7621">
        <ele>871.7</ele>
        <time>2015-09-18T12:28:15Z</time>
      </trkpt>
      <trkpt lat="42.48144" lon="2.76208">
        <ele>869.1</ele>
        <time>2015-09-18T12:28:16Z</time>
      </trkpt>
      <trkpt lat="42.48157" lon="2.76201">
        <ele>866.9</ele>
        <time>2015-09-18T12:28:18Z</time>
      </trkpt>
      <trkpt lat="42.48164" lon="2.76198">
        <ele>864.9</ele>
        <time>2015-09-18T12:28:19Z</time>
      </trkpt>
      <trkpt lat="42.48171" lon="2.76195">
        <ele>862.9</ele>
        <time>2015-09-18T12:28:20Z</time>
      </trkpt>
      <trkpt lat="42.48178" lon="2.76192">
        <ele>861.1</ele>
        <time>2015-09-18T12:28:21Z</time>
      </trkpt>
      <trkpt lat="42.48185" lon="2.76189">
        <ele>859.4</ele>
        <time>2015-09-18T12:28:22Z</time>
      </trkpt>
      <trkpt lat="42.48191" lon="2.76184">
        <ele>859.4</ele>
        <time>2015-09-18T12:28:23Z</time>
      </trkpt>
      <trkpt lat="42.48197" lon="2.76179">
        <ele>854.4</ele>
        <time>2015-09-18T12:28:24Z</time>
      </trkpt>
      <trkpt lat="42.48203" lon="2.76173">
        <ele>851.5</ele>
        <time>2015-09-18T12:28:25Z</time>
      </trkpt>
      <trkpt lat="42.4821" lon="2.76168">
        <ele>851.5</ele>
        <time>2015-09-18T12:28:26Z</time>
      </trkpt>
      <trkpt lat="42.48216" lon="2.76163">
        <ele>846.1</ele>
        <time>2015-09-18T12:28:27Z</time>
      </trkpt>
      <trkpt lat="42.48223" lon="2.76157">
        <ele>843.8</ele>
        <time>2015-09-18T12:28:28Z</time>
      </trkpt>
      <trkpt lat="42.48229" lon="2.76152">
        <ele>841.4</ele>
        <time>2015-09-18T12:28:29Z</time>
      </trkpt>
      <trkpt lat="42.48235" lon="2.76146">
        <ele>838.6</ele>
        <time>2015-09-18T12:28:30Z</time>
      </trkpt>
      <trkpt lat="42.48241" lon="2.76142">
        <ele>832.1</ele>
        <time>2015-09-18T12:28:31Z</time>
      </trkpt>
      <trkpt lat="42.48247" lon="2.76137">
        <ele>829</ele>
        <time>2015-09-18T12:28:32Z</time>
      </trkpt>
      <trkpt lat="42.48254" lon="2.76131">
        <ele>825.8</ele>
        <time>2015-09-18T12:28:33Z</time>
      </trkpt>
      <trkpt lat="42.48266" lon="2.76118">
        <ele>822.5</ele>
        <time>2015-09-18T12:28:35Z</time>
      </trkpt>
      <trkpt lat="42.48266" lon="2.76118">
        <ele>819</ele>
        <time>2015-09-18T12:28:35Z</time>
      </trkpt>
      <trkpt lat="42.48279" lon="2.76107">
        <ele>815.8</ele>
        <time>2015-09-18T12:28:37Z</time>
      </trkpt>
      <trkpt lat="42.48286" lon="2.76102">
        <ele>813</ele>
        <time>2015-09-18T12:28:38Z</time>
      </trkpt>
      <trkpt lat="42.48292" lon="2.76097">
        <ele>810.8</ele>
        <time>2015-09-18T12:28:39Z</time>
      </trkpt>
      <trkpt lat="42.48297" lon="2.76091">
        <ele>808.4</ele>
        <time>2015-09-18T12:28:40Z</time>
      </trkpt>
      <trkpt lat="42.48302" lon="2.76087">
        <ele>805.5</ele>
        <time>2015-09-18T12:28:41Z</time>
      </trkpt>
      <trkpt lat="42.48307" lon="2.76082">
        <ele>802.1</ele>
        <time>2015-09-18T12:28:42Z</time>
      </trkpt>
      <trkpt lat="42.48313" lon="2.76078">
        <ele>798.3</ele>
        <time>2015-09-18T12:28:43Z</time>
      </trkpt>
      <trkpt lat="42.48318" lon="2.76074">
        <ele>795.1</ele>
        <time>2015-09-18T12:28:44Z</time>
      </trkpt>
      <trkpt lat="42.48324" lon="2.76069">
        <ele>789.9</ele>
        <time>2015-09-18T12:28:45Z</time>
      </trkpt>
      <trkpt lat="42.48333" lon="2.7606">
        <ele>789.9</ele>
        <time>2015-09-18T12:28:47Z</time>
      </trkpt>
      <trkpt lat="42.48338" lon="2.76056">
        <ele>789.9</ele>
        <time>2015-09-18T12:28:48Z</time>
      </trkpt>
      <trkpt lat="42.48343" lon="2.76053">
        <ele>781.2</ele>
        <time>2015-09-18T12:28:49Z</time>
      </trkpt>
      <trkpt lat="42.48348" lon="2.7605">
        <ele>778</ele>
        <time>2015-09-18T12:28:50Z</time>
      </trkpt>
      <trkpt lat="42.48348" lon="2.7605">
        <ele>774.7</ele>
        <time>2015-09-18T12:28:50Z</time>
      </trkpt>
      <trkpt lat="42.48359" lon="2.76042">
        <ele>772</ele>
        <time>2015-09-18T12:28:52Z</time>
      </trkpt>
      <trkpt lat="42.48365" lon="2.76037">
        <ele>770.1</ele>
        <time>2015-09-18T12:28:53Z</time>
      </trkpt>
      <trkpt lat="42.48371" lon="2.76033">
        <ele>768.9</ele>
        <time>2015-09-18T12:28:54Z</time>
      </trkpt>
      <trkpt lat="42.48376" lon="2.7603">
        <ele>767.6</ele>
        <time>2015-09-18T12:28:55Z</time>
      </trkpt>
      <trkpt lat="42.48381" lon="2.76027">
        <ele>766</ele>
        <time>2015-09-18T12:28:56Z</time>
      </trkpt>
      <trkpt lat="42.48385" lon="2.76023">
        <ele>763.7</ele>
        <time>2015-09-18T12:28:57Z</time>
      </trkpt>
      <trkpt lat="42.4839" lon="2.7602">
        <ele>760.7</ele>
        <time>2015-09-18T12:28:58Z</time>
      </trkpt>
      <trkpt lat="42.48395" lon="2.76018">
        <ele>757.2</ele>
        <time>2015-09-18T12:28:59Z</time>
      </trkpt>
      <trkpt lat="42.48402" lon="2.76016">
        <ele>754.7</ele>
        <time>2015-09-18T12:29:00Z</time>
      </trkpt>
      <trkpt lat="42.4841" lon="2.76015">
        <ele>753.6</ele>
        <time>2015-09-18T12:29:01Z</time>
      </trkpt>
      <trkpt lat="42.48418" lon="2.76013">
        <ele>753.2</ele>
        <time>2015-09-18T12:29:02Z</time>
      </trkpt>
      <trkpt lat="42.48432" lon="2.76007">
        <ele>753.3</ele>
        <time>2015-09-18T12:29:04Z</time>
      </trkpt>
      <trkpt lat="42.48437" lon="2.76004">
        <ele>752.9</ele>
        <time>2015-09-18T12:29:05Z</time>
      </trkpt>
      <trkpt lat="42.48437" lon="2.76004">
        <ele>751.8</ele>
        <time>2015-09-18T12:29:05Z</time>
      </trkpt>
      <trkpt lat="42.48448" lon="2.75998">
        <ele>751.8</ele>
        <time>2015-09-18T12:29:07Z</time>
      </trkpt>
      <trkpt lat="42.48454" lon="2.75995">
        <ele>748.4</ele>
        <time>2015-09-18T12:29:08Z</time>
      </trkpt>
      <trkpt lat="42.4846" lon="2.75992">
        <ele>746.9</ele>
        <time>2015-09-18T12:29:09Z</time>
      </trkpt>
      <trkpt lat="42.48467" lon="2.7599">
        <ele>745.3</ele>
        <time>2015-09-18T12:29:10Z</time>
      </trkpt>
      <trkpt lat="42.48475" lon="2.75988">
        <ele>744.1</ele>
        <time>2015-09-18T12:29:11Z</time>
      </trkpt>
      <trkpt lat="42.48483" lon="2.75985">
        <ele>743.3</ele>
        <time>2015-09-18T12:29:12Z</time>
      </trkpt>
      <trkpt lat="42.4849" lon="2.75983">
        <ele>742.9</ele>
        <time>2015-09-18T12:29:13Z</time>
      </trkpt>
      <trkpt lat="42.48497" lon="2.7598">
        <ele>742.6</ele>
        <time>2015-09-18T12:29:14Z</time>
      </trkpt>
      <trkpt lat="42.48503" lon="2.75977">
        <ele>741.8</ele>
        <time>2015-09-18T12:29:15Z</time>
      </trkpt>
      <trkpt lat="42.48509" lon="2.75974">
        <ele>740.5</ele>
        <time>2015-09-18T12:29:16Z</time>
      </trkpt>
      <trkpt lat="42.48516" lon="2.75972">
        <ele>738.9</ele>
        <time>2015-09-18T12:29:17Z</time>
      </trkpt>
      <trkpt lat="42.48523" lon="2.75971">
        <ele>737.3</ele>
        <time>2015-09-18T12:29:18Z</time>
      </trkpt>
      <trkpt lat="42.4853" lon="2.75969">
        <ele>735.7</ele>
        <time>2015-09-18T12:29:19Z</time>
      </trkpt>
      <trkpt lat="42.48537" lon="2.75968">
        <ele>735.7</ele>
        <time>2015-09-18T12:29:20Z</time>
      </trkpt>
      <trkpt lat="42.48551" lon="2.7596">
        <ele>736.3</ele>
        <time>2015-09-18T12:29:22Z</time>
      </trkpt>
      <trkpt lat="42.48556" lon="2.75955">
        <ele>737.1</ele>
        <time>2015-09-18T12:29:23Z</time>
      </trkpt>
      <trkpt lat="42.48562" lon="2.75949">
        <ele>737.6</ele>
        <time>2015-09-18T12:29:24Z</time>
      </trkpt>
      <trkpt lat="42.48568" lon="2.75945">
        <ele>737.7</ele>
        <time>2015-09-18T12:29:25Z</time>
      </trkpt>
      <trkpt lat="42.48568" lon="2.75945">
        <ele>737.9</ele>
        <time>2015-09-18T12:29:25Z</time>
      </trkpt>
      <trkpt lat="42.48579" lon="2.75945">
        <ele>738.5</ele>
        <time>2015-09-18T12:29:27Z</time>
      </trkpt>
      <trkpt lat="42.48584" lon="2.75947">
        <ele>739.3</ele>
        <time>2015-09-18T12:29:28Z</time>
      </trkpt>
      <trkpt lat="42.48587" lon="2.75951">
        <ele>739.4</ele>
        <time>2015-09-18T12:29:29Z</time>
      </trkpt>
      <trkpt lat="42.48589" lon="2.75956">
        <ele>738.9</ele>
        <time>2015-09-18T12:29:30Z</time>
      </trkpt>
      <trkpt lat="42.4859" lon="2.75962">
        <ele>738.2</ele>
        <time>2015-09-18T12:29:31Z</time>
      </trkpt>
      <trkpt lat="42.48592" lon="2.75969">
        <ele>737.7</ele>
        <time>2015-09-18T12:29:32Z</time>
      </trkpt>
      <trkpt lat="42.48593" lon="2.75977">
        <ele>737.5</ele>
        <time>2015-09-18T12:29:33Z</time>
      </trkpt>
      <trkpt lat="42.48593" lon="2.75985">
        <ele>737.8</ele>
        <time>2015-09-18T12:29:34Z</time>
      </trkpt>
      <trkpt lat="42.48593" lon="2.75992">
        <ele>737.4</ele>
        <time>2015-09-18T12:29:35Z</time>
      </trkpt>
      <trkpt lat="42.48592" lon="2.76007">
        <ele>736.1</ele>
        <time>2015-09-18T12:29:37Z</time>
      </trkpt>
      <trkpt lat="42.48591" lon="2.76015">
        <ele>734.7</ele>
        <time>2015-09-18T12:29:38Z</time>
      </trkpt>
      <trkpt lat="42.48588" lon="2.76023">
        <ele>733.1</ele>
        <time>2015-09-18T12:29:39Z</time>
      </trkpt>
      <trkpt lat="42.48585" lon="2.76033">
        <ele>731.6</ele>
        <time>2015-09-18T12:29:40Z</time>
      </trkpt>
      <trkpt lat="42.48585" lon="2.76033">
        <ele>730.8</ele>
        <time>2015-09-18T12:29:40Z</time>
      </trkpt>
      <trkpt lat="42.48575" lon="2.76051">
        <ele>730.7</ele>
        <time>2015-09-18T12:29:42Z</time>
      </trkpt>
      <trkpt lat="42.48569" lon="2.76059">
        <ele>730.6</ele>
        <time>2015-09-18T12:29:43Z</time>
      </trkpt>
      <trkpt lat="42.48563" lon="2.76067">
        <ele>730.3</ele>
        <time>2015-09-18T12:29:44Z</time>
      </trkpt>
      <trkpt lat="42.48557" lon="2.76073">
        <ele>729.5</ele>
        <time>2015-09-18T12:29:45Z</time>
      </trkpt>
      <trkpt lat="42.48549" lon="2.7608">
        <ele>728.5</ele>
        <time>2015-09-18T12:29:46Z</time>
      </trkpt>
      <trkpt lat="42.48541" lon="2.76086">
        <ele>727.7</ele>
        <time>2015-09-18T12:29:47Z</time>
      </trkpt>
      <trkpt lat="42.48532" lon="2.76092">
        <ele>726.8</ele>
        <time>2015-09-18T12:29:48Z</time>
      </trkpt>
      <trkpt lat="42.48523" lon="2.76096">
        <ele>726</ele>
        <time>2015-09-18T12:29:49Z</time>
      </trkpt>
      <trkpt lat="42.48514" lon="2.76099">
        <ele>724.8</ele>
        <time>2015-09-18T12:29:50Z</time>
      </trkpt>
      <trkpt lat="42.48504" lon="2.76101">
        <ele>723.5</ele>
        <time>2015-09-18T12:29:51Z</time>
      </trkpt>
      <trkpt lat="42.48495" lon="2.76102">
        <ele>720</ele>
        <time>2015-09-18T12:29:52Z</time>
      </trkpt>
      <trkpt lat="42.48485" lon="2.76101">
        <ele>720</ele>
        <time>2015-09-18T12:29:53Z</time>
      </trkpt>
      <trkpt lat="42.48466" lon="2.76094">
        <ele>715.5</ele>
        <time>2015-09-18T12:29:55Z</time>
      </trkpt>
      <trkpt lat="42.48466" lon="2.76094">
        <ele>713.9</ele>
        <time>2015-09-18T12:29:55Z</time>
      </trkpt>
      <trkpt lat="42.48446" lon="2.76083">
        <ele>712.8</ele>
        <time>2015-09-18T12:29:57Z</time>
      </trkpt>
      <trkpt lat="42.48437" lon="2.76076">
        <ele>712.6</ele>
        <time>2015-09-18T12:29:58Z</time>
      </trkpt>
      <trkpt lat="42.48429" lon="2.76068">
        <ele>712.8</ele>
        <time>2015-09-18T12:29:59Z</time>
      </trkpt>
      <trkpt lat="42.48422" lon="2.76061">
        <ele>712.5</ele>
        <time>2015-09-18T12:30:00Z</time>
      </trkpt>
      <trkpt lat="42.48416" lon="2.76054">
        <ele>711.5</ele>
        <time>2015-09-18T12:30:01Z</time>
      </trkpt>
      <trkpt lat="42.4841" lon="2.76046">
        <ele>709.6</ele>
        <time>2015-09-18T12:30:02Z</time>
      </trkpt>
      <trkpt lat="42.48405" lon="2.76037">
        <ele>707.2</ele>
        <time>2015-09-18T12:30:03Z</time>
      </trkpt>
      <trkpt lat="42.48399" lon="2.76027">
        <ele>704.9</ele>
        <time>2015-09-18T12:30:04Z</time>
      </trkpt>
      <trkpt lat="42.48395" lon="2.76016">
        <ele>703.6</ele>
        <time>2015-09-18T12:30:05Z</time>
      </trkpt>
      <trkpt lat="42.48391" lon="2.76005">
        <ele>702.4</ele>
        <time>2015-09-18T12:30:06Z</time>
      </trkpt>
      <trkpt lat="42.48388" lon="2.75995">
        <ele>699.3</ele>
        <time>2015-09-18T12:30:07Z</time>
      </trkpt>
      <trkpt lat="42.48387" lon="2.75984">
        <ele>696.9</ele>
        <time>2015-09-18T12:30:08Z</time>
      </trkpt>
      <trkpt lat="42.48389" lon="2.75961">
        <ele>696.9</ele>
        <time>2015-09-18T12:30:10Z</time>
      </trkpt>
      <trkpt lat="42.48389" lon="2.75961">
        <ele>693.4</ele>
        <time>2015-09-18T12:30:10Z</time>
      </trkpt>
      <trkpt lat="42.48395" lon="2.75939">
        <ele>693</ele>
        <time>2015-09-18T12:30:12Z</time>
      </trkpt>
      <trkpt lat="42.48397" lon="2.75929">
        <ele>692.7</ele>
        <time>2015-09-18T12:30:13Z</time>
      </trkpt>
      <trkpt lat="42.48398" lon="2.75919">
        <ele>691.9</ele>
        <time>2015-09-18T12:30:14Z</time>
      </trkpt>
      <trkpt lat="42.48398" lon="2.75909">
        <ele>690.1</ele>
        <time>2015-09-18T12:30:15Z</time>
      </trkpt>
      <trkpt lat="42.484" lon="2.75899">
        <ele>688</ele>
        <time>2015-09-18T12:30:16Z</time>
      </trkpt>
      <trkpt lat="42.48402" lon="2.75889">
        <ele>686.2</ele>
        <time>2015-09-18T12:30:17Z</time>
      </trkpt>
      <trkpt lat="42.48406" lon="2.75879">
        <ele>685.1</ele>
        <time>2015-09-18T12:30:18Z</time>
      </trkpt>
      <trkpt lat="42.48409" lon="2.7587">
        <ele>684.3</ele>
        <time>2015-09-18T12:30:19Z</time>
      </trkpt>
      <trkpt lat="42.48412" lon="2.75861">
        <ele>683.1</ele>
        <time>2015-09-18T12:30:20Z</time>
      </trkpt>
      <trkpt lat="42.48415" lon="2.75853">
        <ele>681.1</ele>
        <time>2015-09-18T12:30:21Z</time>
      </trkpt>
      <trkpt lat="42.48418" lon="2.75844">
        <ele>678.7</ele>
        <time>2015-09-18T12:30:22Z</time>
      </trkpt>
      <trkpt lat="42.48421" lon="2.75834">
        <ele>675.6</ele>
        <time>2015-09-18T12:30:23Z</time>
      </trkpt>
      <trkpt lat="42.4843" lon="2.75815">
        <ele>675.5</ele>
        <time>2015-09-18T12:30:25Z</time>
      </trkpt>
      <trkpt lat="42.4843" lon="2.75815">
        <ele>675.7</ele>
        <time>2015-09-18T12:30:25Z</time>
      </trkpt>
      <trkpt lat="42.48441" lon="2.75798">
        <ele>676</ele>
        <time>2015-09-18T12:30:27Z</time>
      </trkpt>
      <trkpt lat="42.48446" lon="2.7579">
        <ele>676.6</ele>
        <time>2015-09-18T12:30:28Z</time>
      </trkpt>
      <trkpt lat="42.48451" lon="2.75782">
        <ele>677.4</ele>
        <time>2015-09-18T12:30:29Z</time>
      </trkpt>
      <trkpt lat="42.48457" lon="2.75774">
        <ele>678.6</ele>
        <time>2015-09-18T12:30:30Z</time>
      </trkpt>
      <trkpt lat="42.48462" lon="2.75767">
        <ele>679.6</ele>
        <time>2015-09-18T12:30:31Z</time>
      </trkpt>
      <trkpt lat="42.48468" lon="2.75759">
        <ele>680.6</ele>
        <time>2015-09-18T12:30:32Z</time>
      </trkpt>
      <trkpt lat="42.48473" lon="2.75751">
        <ele>681.4</ele>
        <time>2015-09-18T12:30:33Z</time>
      </trkpt>
      <trkpt lat="42.48478" lon="2.75746">
        <ele>681.9</ele>
        <time>2015-09-18T12:30:34Z</time>
      </trkpt>
      <trkpt lat="42.48485" lon="2.75744">
        <ele>682</ele>
        <time>2015-09-18T12:30:35Z</time>
      </trkpt>
      <trkpt lat="42.48492" lon="2.75747">
        <ele>682.1</ele>
        <time>2015-09-18T12:30:36Z</time>
      </trkpt>
      <trkpt lat="42.48498" lon="2.75752">
        <ele>682.4</ele>
        <time>2015-09-18T12:30:37Z</time>
      </trkpt>
      <trkpt lat="42.48501" lon="2.75759">
        <ele>682.3</ele>
        <time>2015-09-18T12:30:38Z</time>
      </trkpt>
      <trkpt lat="42.48501" lon="2.75767">
        <ele>682</ele>
        <time>2015-09-18T12:30:39Z</time>
      </trkpt>
      <trkpt lat="42.48501" lon="2.75775">
        <ele>680.6</ele>
        <time>2015-09-18T12:30:40Z</time>
      </trkpt>
      <trkpt lat="42.48499" lon="2.75785">
        <ele>680.3</ele>
        <time>2015-09-18T12:30:41Z</time>
      </trkpt>
      <trkpt lat="42.48496" lon="2.75804">
        <ele>680.3</ele>
        <time>2015-09-18T12:30:43Z</time>
      </trkpt>
      <trkpt lat="42.48493" lon="2.75813">
        <ele>679.7</ele>
        <time>2015-09-18T12:30:44Z</time>
      </trkpt>
      <trkpt lat="42.48488" lon="2.75822">
        <ele>679.1</ele>
        <time>2015-09-18T12:30:45Z</time>
      </trkpt>
      <trkpt lat="42.48488" lon="2.75822">
        <ele>678.6</ele>
        <time>2015-09-18T12:30:45Z</time>
      </trkpt>
      <trkpt lat="42.48475" lon="2.75836">
        <ele>677.8</ele>
        <time>2015-09-18T12:30:47Z</time>
      </trkpt>
      <trkpt lat="42.48466" lon="2.7584">
        <ele>677</ele>
        <time>2015-09-18T12:30:48Z</time>
      </trkpt>
      <trkpt lat="42.48457" lon="2.75841">
        <ele>675.7</ele>
        <time>2015-09-18T12:30:49Z</time>
      </trkpt>
      <trkpt lat="42.48448" lon="2.75839">
        <ele>674.9</ele>
        <time>2015-09-18T12:30:50Z</time>
      </trkpt>
      <trkpt lat="42.48439" lon="2.75834">
        <ele>675.2</ele>
        <time>2015-09-18T12:30:51Z</time>
      </trkpt>
      <trkpt lat="42.48432" lon="2.75827">
        <ele>675.4</ele>
        <time>2015-09-18T12:30:52Z</time>
      </trkpt>
      <trkpt lat="42.48426" lon="2.75818">
        <ele>676.6</ele>
        <time>2015-09-18T12:30:53Z</time>
      </trkpt>
      <trkpt lat="42.4842" lon="2.75809">
        <ele>679.4</ele>
        <time>2015-09-18T12:30:54Z</time>
      </trkpt>
      <trkpt lat="42.48415" lon="2.75801">
        <ele>679.4</ele>
        <time>2015-09-18T12:30:55Z</time>
      </trkpt>
      <trkpt lat="42.48405" lon="2.75784">
        <ele>681.3</ele>
        <time>2015-09-18T12:30:57Z</time>
      </trkpt>
      <trkpt lat="42.48402" lon="2.75776">
        <ele>681.5</ele>
        <time>2015-09-18T12:30:58Z</time>
      </trkpt>
      <trkpt lat="42.48399" lon="2.75767">
        <ele>681.4</ele>
        <time>2015-09-18T12:30:59Z</time>
      </trkpt>
      <trkpt lat="42.48397" lon="2.75758">
        <ele>680.9</ele>
        <time>2015-09-18T12:31:00Z</time>
      </trkpt>
      <trkpt lat="42.48397" lon="2.75748">
        <ele>680.2</ele>
        <time>2015-09-18T12:31:01Z</time>
      </trkpt>
      <trkpt lat="42.48399" lon="2.75737">
        <ele>678.9</ele>
        <time>2015-09-18T12:31:02Z</time>
      </trkpt>
      <trkpt lat="42.48403" lon="2.75727">
        <ele>678</ele>
        <time>2015-09-18T12:31:03Z</time>
      </trkpt>
      <trkpt lat="42.48408" lon="2.7572">
        <ele>677.7</ele>
        <time>2015-09-18T12:31:04Z</time>
      </trkpt>
      <trkpt lat="42.48414" lon="2.75714">
        <ele>677.6</ele>
        <time>2015-09-18T12:31:05Z</time>
      </trkpt>
      <trkpt lat="42.4842" lon="2.7571">
        <ele>677.4</ele>
        <time>2015-09-18T12:31:06Z</time>
      </trkpt>
      <trkpt lat="42.48428" lon="2.75708">
        <ele>677.4</ele>
        <time>2015-09-18T12:31:07Z</time>
      </trkpt>
      <trkpt lat="42.48435" lon="2.75708">
        <ele>677.2</ele>
        <time>2015-09-18T12:31:08Z</time>
      </trkpt>
      <trkpt lat="42.48442" lon="2.75707">
        <ele>677.2</ele>
        <time>2015-09-18T12:31:09Z</time>
      </trkpt>
      <trkpt lat="42.48449" lon="2.75705">
        <ele>677.4</ele>
        <time>2015-09-18T12:31:10Z</time>
      </trkpt>
      <trkpt lat="42.48456" lon="2.75703">
        <ele>678.9</ele>
        <time>2015-09-18T12:31:11Z</time>
      </trkpt>
      <trkpt lat="42.48469" lon="2.75706">
        <ele>679.9</ele>
        <time>2015-09-18T12:31:13Z</time>
      </trkpt>
      <trkpt lat="42.48476" lon="2.7571">
        <ele>681.1</ele>
        <time>2015-09-18T12:31:14Z</time>
      </trkpt>
      <trkpt lat="42.48482" lon="2.75715">
        <ele>682.7</ele>
        <time>2015-09-18T12:31:15Z</time>
      </trkpt>
      <trkpt lat="42.48486" lon="2.75721">
        <ele>684.1</ele>
        <time>2015-09-18T12:31:16Z</time>
      </trkpt>
      <trkpt lat="42.48489" lon="2.75728">
        <ele>684.8</ele>
        <time>2015-09-18T12:31:17Z</time>
      </trkpt>
      <trkpt lat="42.48491" lon="2.75736">
        <ele>684.4</ele>
        <time>2015-09-18T12:31:18Z</time>
      </trkpt>
      <trkpt lat="42.48491" lon="2.75745">
        <ele>683.6</ele>
        <time>2015-09-18T12:31:19Z</time>
      </trkpt>
      <trkpt lat="42.48489" lon="2.75754">
        <ele>682.8</ele>
        <time>2015-09-18T12:31:20Z</time>
      </trkpt>
      <trkpt lat="42.48486" lon="2.75763">
        <ele>682.6</ele>
        <time>2015-09-18T12:31:21Z</time>
      </trkpt>
      <trkpt lat="42.48482" lon="2.75772">
        <ele>682.5</ele>
        <time>2015-09-18T12:31:22Z</time>
      </trkpt>
      <trkpt lat="42.48478" lon="2.75781">
        <ele>682.9</ele>
        <time>2015-09-18T12:31:23Z</time>
      </trkpt>
      <trkpt lat="42.48472" lon="2.75788">
        <ele>683.9</ele>
        <time>2015-09-18T12:31:24Z</time>
      </trkpt>
      <trkpt lat="42.48466" lon="2.75795">
        <ele>684.7</ele>
        <time>2015-09-18T12:31:25Z</time>
      </trkpt>
      <trkpt lat="42.4846" lon="2.75799">
        <ele>685.4</ele>
        <time>2015-09-18T12:31:26Z</time>
      </trkpt>
      <trkpt lat="42.4846" lon="2.75799">
        <ele>684.8</ele>
        <time>2015-09-18T12:31:26Z</time>
      </trkpt>
      <trkpt lat="42.48445" lon="2.75802">
        <ele>684.1</ele>
        <time>2015-09-18T12:31:28Z</time>
      </trkpt>
      <trkpt lat="42.48429" lon="2.75794">
        <ele>683.9</ele>
        <time>2015-09-18T12:31:30Z</time>
      </trkpt>
      <trkpt lat="42.48429" lon="2.75794">
        <ele>684</ele>
        <time>2015-09-18T12:31:30Z</time>
      </trkpt>
      <trkpt lat="42.48419" lon="2.75774">
        <ele>684.6</ele>
        <time>2015-09-18T12:31:32Z</time>
      </trkpt>
      <trkpt lat="42.48418" lon="2.75763">
        <ele>685.1</ele>
        <time>2015-09-18T12:31:33Z</time>
      </trkpt>
      <trkpt lat="42.48417" lon="2.75752">
        <ele>685.6</ele>
        <time>2015-09-18T12:31:34Z</time>
      </trkpt>
      <trkpt lat="42.48417" lon="2.75742">
        <ele>685.7</ele>
        <time>2015-09-18T12:31:35Z</time>
      </trkpt>
      <trkpt lat="42.48416" lon="2.7573">
        <ele>685.6</ele>
        <time>2015-09-18T12:31:36Z</time>
      </trkpt>
      <trkpt lat="42.48417" lon="2.75719">
        <ele>685.8</ele>
        <time>2015-09-18T12:31:37Z</time>
      </trkpt>
      <trkpt lat="42.48418" lon="2.75707">
        <ele>686.3</ele>
        <time>2015-09-18T12:31:38Z</time>
      </trkpt>
      <trkpt lat="42.48419" lon="2.75696">
        <ele>686.3</ele>
        <time>2015-09-18T12:31:39Z</time>
      </trkpt>
      <trkpt lat="42.4842" lon="2.75685">
        <ele>687.5</ele>
        <time>2015-09-18T12:31:40Z</time>
      </trkpt>
      <trkpt lat="42.48422" lon="2.75674">
        <ele>689.3</ele>
        <time>2015-09-18T12:31:41Z</time>
      </trkpt>
      <trkpt lat="42.48428" lon="2.75655">
        <ele>690</ele>
        <time>2015-09-18T12:31:43Z</time>
      </trkpt>
      <trkpt lat="42.48433" lon="2.75647">
        <ele>690.7</ele>
        <time>2015-09-18T12:31:44Z</time>
      </trkpt>
      <trkpt lat="42.48438" lon="2.75643">
        <ele>691.3</ele>
        <time>2015-09-18T12:31:45Z</time>
      </trkpt>
      <trkpt lat="42.48438" lon="2.75643">
        <ele>692.3</ele>
        <time>2015-09-18T12:31:45Z</time>
      </trkpt>
      <trkpt lat="42.48451" lon="2.75641">
        <ele>693.4</ele>
        <time>2015-09-18T12:31:47Z</time>
      </trkpt>
      <trkpt lat="42.48457" lon="2.75642">
        <ele>694.3</ele>
        <time>2015-09-18T12:31:48Z</time>
      </trkpt>
      <trkpt lat="42.48462" lon="2.75642">
        <ele>694.5</ele>
        <time>2015-09-18T12:31:49Z</time>
      </trkpt>
      <trkpt lat="42.48467" lon="2.75643">
        <ele>694</ele>
        <time>2015-09-18T12:31:50Z</time>
      </trkpt>
      <trkpt lat="42.48472" lon="2.75646">
        <ele>692.5</ele>
        <time>2015-09-18T12:31:51Z</time>
      </trkpt>
      <trkpt lat="42.48478" lon="2.75651">
        <ele>691.5</ele>
        <time>2015-09-18T12:31:52Z</time>
      </trkpt>
      <trkpt lat="42.48483" lon="2.75658">
        <ele>691.2</ele>
        <time>2015-09-18T12:31:53Z</time>
      </trkpt>
      <trkpt lat="42.48488" lon="2.75665">
        <ele>691.4</ele>
        <time>2015-09-18T12:31:54Z</time>
      </trkpt>
      <trkpt lat="42.48491" lon="2.75672">
        <ele>691.4</ele>
        <time>2015-09-18T12:31:55Z</time>
      </trkpt>
      <trkpt lat="42.48492" lon="2.7568">
        <ele>691</ele>
        <time>2015-09-18T12:31:56Z</time>
      </trkpt>
      <trkpt lat="42.48493" lon="2.75688">
        <ele>690.2</ele>
        <time>2015-09-18T12:31:57Z</time>
      </trkpt>
      <trkpt lat="42.48495" lon="2.75696">
        <ele>688.7</ele>
        <time>2015-09-18T12:31:58Z</time>
      </trkpt>
      <trkpt lat="42.48497" lon="2.75705">
        <ele>687.7</ele>
        <time>2015-09-18T12:31:59Z</time>
      </trkpt>
      <trkpt lat="42.48498" lon="2.75714">
        <ele>686.6</ele>
        <time>2015-09-18T12:32:00Z</time>
      </trkpt>
      <trkpt lat="42.48499" lon="2.75735">
        <ele>686.9</ele>
        <time>2015-09-18T12:32:02Z</time>
      </trkpt>
      <trkpt lat="42.48497" lon="2.75744">
        <ele>687</ele>
        <time>2015-09-18T12:32:03Z</time>
      </trkpt>
      <trkpt lat="42.48494" lon="2.75754">
        <ele>686.6</ele>
        <time>2015-09-18T12:32:04Z</time>
      </trkpt>
      <trkpt lat="42.48491" lon="2.75764">
        <ele>686.2</ele>
        <time>2015-09-18T12:32:05Z</time>
      </trkpt>
      <trkpt lat="42.48491" lon="2.75764">
        <ele>686.3</ele>
        <time>2015-09-18T12:32:05Z</time>
      </trkpt>
      <trkpt lat="42.48488" lon="2.75785">
        <ele>687.1</ele>
        <time>2015-09-18T12:32:07Z</time>
      </trkpt>
      <trkpt lat="42.48486" lon="2.75796">
        <ele>688.6</ele>
        <time>2015-09-18T12:32:08Z</time>
      </trkpt>
      <trkpt lat="42.48485" lon="2.75806">
        <ele>690.6</ele>
        <time>2015-09-18T12:32:09Z</time>
      </trkpt>
      <trkpt lat="42.48483" lon="2.75815">
        <ele>692</ele>
        <time>2015-09-18T12:32:10Z</time>
      </trkpt>
      <trkpt lat="42.48481" lon="2.75823">
        <ele>693.2</ele>
        <time>2015-09-18T12:32:11Z</time>
      </trkpt>
      <trkpt lat="42.48478" lon="2.75832">
        <ele>694.4</ele>
        <time>2015-09-18T12:32:12Z</time>
      </trkpt>
      <trkpt lat="42.48473" lon="2.75839">
        <ele>695.1</ele>
        <time>2015-09-18T12:32:13Z</time>
      </trkpt>
      <trkpt lat="42.48465" lon="2.75845">
        <ele>695.8</ele>
        <time>2015-09-18T12:32:14Z</time>
      </trkpt>
      <trkpt lat="42.48456" lon="2.75847">
        <ele>699.4</ele>
        <time>2015-09-18T12:32:15Z</time>
      </trkpt>
      <trkpt lat="42.48447" lon="2.75847">
        <ele>699.4</ele>
        <time>2015-09-18T12:32:16Z</time>
      </trkpt>
      <trkpt lat="42.48433" lon="2.75837">
        <ele>702.2</ele>
        <time>2015-09-18T12:32:18Z</time>
      </trkpt>
      <trkpt lat="42.48428" lon="2.75828">
        <ele>703.7</ele>
        <time>2015-09-18T12:32:19Z</time>
      </trkpt>
      <trkpt lat="42.48425" lon="2.75817">
        <ele>703.7</ele>
        <time>2015-09-18T12:32:20Z</time>
      </trkpt>
      <trkpt lat="42.48425" lon="2.75817">
        <ele>704.2</ele>
        <time>2015-09-18T12:32:20Z</time>
      </trkpt>
      <trkpt lat="42.48426" lon="2.75795">
        <ele>704.9</ele>
        <time>2015-09-18T12:32:22Z</time>
      </trkpt>
      <trkpt lat="42.48429" lon="2.75786">
        <ele>705.7</ele>
        <time>2015-09-18T12:32:23Z</time>
      </trkpt>
      <trkpt lat="42.48434" lon="2.75778">
        <ele>707</ele>
        <time>2015-09-18T12:32:24Z</time>
      </trkpt>
      <trkpt lat="42.48439" lon="2.75771">
        <ele>708.1</ele>
        <time>2015-09-18T12:32:25Z</time>
      </trkpt>
      <trkpt lat="42.48444" lon="2.75765">
        <ele>709.1</ele>
        <time>2015-09-18T12:32:26Z</time>
      </trkpt>
      <trkpt lat="42.48449" lon="2.7576">
        <ele>710</ele>
        <time>2015-09-18T12:32:27Z</time>
      </trkpt>
      <trkpt lat="42.48455" lon="2.75756">
        <ele>710.4</ele>
        <time>2015-09-18T12:32:28Z</time>
      </trkpt>
      <trkpt lat="42.48461" lon="2.75755">
        <ele>710.7</ele>
        <time>2015-09-18T12:32:29Z</time>
      </trkpt>
      <trkpt lat="42.48467" lon="2.75756">
        <ele>711.4</ele>
        <time>2015-09-18T12:32:30Z</time>
      </trkpt>
      <trkpt lat="42.48472" lon="2.75759">
        <ele>713.3</ele>
        <time>2015-09-18T12:32:31Z</time>
      </trkpt>
      <trkpt lat="42.4848" lon="2.75768">
        <ele>714.1</ele>
        <time>2015-09-18T12:32:33Z</time>
      </trkpt>
      <trkpt lat="42.48483" lon="2.75775">
        <ele>714.4</ele>
        <time>2015-09-18T12:32:34Z</time>
      </trkpt>
      <trkpt lat="42.48485" lon="2.75783">
        <ele>715</ele>
        <time>2015-09-18T12:32:35Z</time>
      </trkpt>
      <trkpt lat="42.48487" lon="2.75791">
        <ele>716</ele>
        <time>2015-09-18T12:32:36Z</time>
      </trkpt>
      <trkpt lat="42.4849" lon="2.758">
        <ele>717.3</ele>
        <time>2015-09-18T12:32:37Z</time>
      </trkpt>
      <trkpt lat="42.48492" lon="2.75809">
        <ele>718.5</ele>
        <time>2015-09-18T12:32:38Z</time>
      </trkpt>
      <trkpt lat="42.48491" lon="2.75819">
        <ele>719.8</ele>
        <time>2015-09-18T12:32:39Z</time>
      </trkpt>
      <trkpt lat="42.48488" lon="2.75827">
        <ele>720.6</ele>
        <time>2015-09-18T12:32:40Z</time>
      </trkpt>
      <trkpt lat="42.48482" lon="2.75836">
        <ele>721.6</ele>
        <time>2015-09-18T12:32:41Z</time>
      </trkpt>
      <trkpt lat="42.48477" lon="2.75843">
        <ele>722.7</ele>
        <time>2015-09-18T12:32:42Z</time>
      </trkpt>
      <trkpt lat="42.48471" lon="2.7585">
        <ele>724.1</ele>
        <time>2015-09-18T12:32:43Z</time>
      </trkpt>
      <trkpt lat="42.48464" lon="2.75854">
        <ele>725.2</ele>
        <time>2015-09-18T12:32:44Z</time>
      </trkpt>
      <trkpt lat="42.48455" lon="2.75856">
        <ele>725.7</ele>
        <time>2015-09-18T12:32:45Z</time>
      </trkpt>
      <trkpt lat="42.48445" lon="2.75855">
        <ele>726.4</ele>
        <time>2015-09-18T12:32:46Z</time>
      </trkpt>
      <trkpt lat="42.48435" lon="2.7585">
        <ele>727.4</ele>
        <time>2015-09-18T12:32:47Z</time>
      </trkpt>
      <trkpt lat="42.48426" lon="2.75843">
        <ele>730</ele>
        <time>2015-09-18T12:32:48Z</time>
      </trkpt>
      <trkpt lat="42.48412" lon="2.75824">
        <ele>730</ele>
        <time>2015-09-18T12:32:50Z</time>
      </trkpt>
      <trkpt lat="42.48412" lon="2.75824">
        <ele>733.4</ele>
        <time>2015-09-18T12:32:50Z</time>
      </trkpt>
      <trkpt lat="42.48402" lon="2.75803">
        <ele>734.6</ele>
        <time>2015-09-18T12:32:52Z</time>
      </trkpt>
      <trkpt lat="42.48399" lon="2.75792">
        <ele>735.6</ele>
        <time>2015-09-18T12:32:53Z</time>
      </trkpt>
      <trkpt lat="42.48397" lon="2.7578">
        <ele>736.9</ele>
        <time>2015-09-18T12:32:54Z</time>
      </trkpt>
      <trkpt lat="42.48396" lon="2.75769">
        <ele>736.9</ele>
        <time>2015-09-18T12:32:55Z</time>
      </trkpt>
      <trkpt lat="42.48397" lon="2.75758">
        <ele>738.4</ele>
        <time>2015-09-18T12:32:56Z</time>
      </trkpt>
      <trkpt lat="42.484" lon="2.75749">
        <ele>738.5</ele>
        <time>2015-09-18T12:32:57Z</time>
      </trkpt>
      <trkpt lat="42.48404" lon="2.75741">
        <ele>738.3</ele>
        <time>2015-09-18T12:32:58Z</time>
      </trkpt>
      <trkpt lat="42.48409" lon="2.75734">
        <ele>738.5</ele>
        <time>2015-09-18T12:32:59Z</time>
      </trkpt>
      <trkpt lat="42.48414" lon="2.7573">
        <ele>739.2</ele>
        <time>2015-09-18T12:33:00Z</time>
      </trkpt>
      <trkpt lat="42.48419" lon="2.75727">
        <ele>739.2</ele>
        <time>2015-09-18T12:33:01Z</time>
      </trkpt>
      <trkpt lat="42.48424" lon="2.75727">
        <ele>738.8</ele>
        <time>2015-09-18T12:33:02Z</time>
      </trkpt>
      <trkpt lat="42.48436" lon="2.75729">
        <ele>738.4</ele>
        <time>2015-09-18T12:33:04Z</time>
      </trkpt>
      <trkpt lat="42.48442" lon="2.75732">
        <ele>738.9</ele>
        <time>2015-09-18T12:33:05Z</time>
      </trkpt>
      <trkpt lat="42.48442" lon="2.75732">
        <ele>739.9</ele>
        <time>2015-09-18T12:33:05Z</time>
      </trkpt>
      <trkpt lat="42.48453" lon="2.7574">
        <ele>740.9</ele>
        <time>2015-09-18T12:33:07Z</time>
      </trkpt>
      <trkpt lat="42.48458" lon="2.75744">
        <ele>741.6</ele>
        <time>2015-09-18T12:33:08Z</time>
      </trkpt>
      <trkpt lat="42.48463" lon="2.75748">
        <ele>742.1</ele>
        <time>2015-09-18T12:33:09Z</time>
      </trkpt>
      <trkpt lat="42.48469" lon="2.75753">
        <ele>742.7</ele>
        <time>2015-09-18T12:33:10Z</time>
      </trkpt>
      <trkpt lat="42.48474" lon="2.75759">
        <ele>743.5</ele>
        <time>2015-09-18T12:33:11Z</time>
      </trkpt>
      <trkpt lat="42.48478" lon="2.75766">
        <ele>744.3</ele>
        <time>2015-09-18T12:33:12Z</time>
      </trkpt>
      <trkpt lat="42.48481" lon="2.75774">
        <ele>744.8</ele>
        <time>2015-09-18T12:33:13Z</time>
      </trkpt>
      <trkpt lat="42.48482" lon="2.75784">
        <ele>744.9</ele>
        <time>2015-09-18T12:33:14Z</time>
      </trkpt>
      <trkpt lat="42.48481" lon="2.75794">
        <ele>745.4</ele>
        <time>2015-09-18T12:33:15Z</time>
      </trkpt>
      <trkpt lat="42.48478" lon="2.75804">
        <ele>746.5</ele>
        <time>2015-09-18T12:33:16Z</time>
      </trkpt>
      <trkpt lat="42.48475" lon="2.75814">
        <ele>748.1</ele>
        <time>2015-09-18T12:33:17Z</time>
      </trkpt>
      <trkpt lat="42.48471" lon="2.75824">
        <ele>752.3</ele>
        <time>2015-09-18T12:33:18Z</time>
      </trkpt>
      <trkpt lat="42.48468" lon="2.75832">
        <ele>753.9</ele>
        <time>2015-09-18T12:33:19Z</time>
      </trkpt>
      <trkpt lat="42.48463" lon="2.75841">
        <ele>755.5</ele>
        <time>2015-09-18T12:33:20Z</time>
      </trkpt>
      <trkpt lat="42.4845" lon="2.75855">
        <ele>757.3</ele>
        <time>2015-09-18T12:33:22Z</time>
      </trkpt>
      <trkpt lat="42.48442" lon="2.75859">
        <ele>758.7</ele>
        <time>2015-09-18T12:33:23Z</time>
      </trkpt>
      <trkpt lat="42.48435" lon="2.75861">
        <ele>759.5</ele>
        <time>2015-09-18T12:33:24Z</time>
      </trkpt>
      <trkpt lat="42.48427" lon="2.75859">
        <ele>760.5</ele>
        <time>2015-09-18T12:33:25Z</time>
      </trkpt>
      <trkpt lat="42.48418" lon="2.75854">
        <ele>761.4</ele>
        <time>2015-09-18T12:33:26Z</time>
      </trkpt>
      <trkpt lat="42.48411" lon="2.75847">
        <ele>762.5</ele>
        <time>2015-09-18T12:33:27Z</time>
      </trkpt>
      <trkpt lat="42.48405" lon="2.75838">
        <ele>763.6</ele>
        <time>2015-09-18T12:33:28Z</time>
      </trkpt>
      <trkpt lat="42.48401" lon="2.75826">
        <ele>764.6</ele>
        <time>2015-09-18T12:33:29Z</time>
      </trkpt>
      <trkpt lat="42.48401" lon="2.75815">
        <ele>765.5</ele>
        <time>2015-09-18T12:33:30Z</time>
      </trkpt>
      <trkpt lat="42.48402" lon="2.75804">
        <ele>766.6</ele>
        <time>2015-09-18T12:33:31Z</time>
      </trkpt>
      <trkpt lat="42.48405" lon="2.75795">
        <ele>767.7</ele>
        <time>2015-09-18T12:33:32Z</time>
      </trkpt>
      <trkpt lat="42.48411" lon="2.75788">
        <ele>768.2</ele>
        <time>2015-09-18T12:33:33Z</time>
      </trkpt>
      <trkpt lat="42.48417" lon="2.75784">
        <ele>768.5</ele>
        <time>2015-09-18T12:33:34Z</time>
      </trkpt>
      <trkpt lat="42.48425" lon="2.75784">
        <ele>768.7</ele>
        <time>2015-09-18T12:33:35Z</time>
      </trkpt>
      <trkpt lat="42.48433" lon="2.75787">
        <ele>770.8</ele>
        <time>2015-09-18T12:33:36Z</time>
      </trkpt>
      <trkpt lat="42.48442" lon="2.75802">
        <ele>772</ele>
        <time>2015-09-18T12:33:38Z</time>
      </trkpt>
      <trkpt lat="42.48443" lon="2.75812">
        <ele>773.3</ele>
        <time>2015-09-18T12:33:39Z</time>
      </trkpt>
      <trkpt lat="42.48442" lon="2.75822">
        <ele>774.6</ele>
        <time>2015-09-18T12:33:40Z</time>
      </trkpt>
      <trkpt lat="42.48442" lon="2.75822">
        <ele>775.8</ele>
        <time>2015-09-18T12:33:40Z</time>
      </trkpt>
      <trkpt lat="42.48432" lon="2.75838">
        <ele>776.9</ele>
        <time>2015-09-18T12:33:42Z</time>
      </trkpt>
      <trkpt lat="42.48425" lon="2.75843">
        <ele>776.9</ele>
        <time>2015-09-18T12:33:43Z</time>
      </trkpt>
      <trkpt lat="42.48416" lon="2.75846">
        <ele>779.2</ele>
        <time>2015-09-18T12:33:44Z</time>
      </trkpt>
      <trkpt lat="42.48407" lon="2.75845">
        <ele>778.6</ele>
        <time>2015-09-18T12:33:45Z</time>
      </trkpt>
      <trkpt lat="42.48399" lon="2.7584">
        <ele>779.9</ele>
        <time>2015-09-18T12:33:46Z</time>
      </trkpt>
      <trkpt lat="42.48392" lon="2.75832">
        <ele>781.1</ele>
        <time>2015-09-18T12:33:47Z</time>
      </trkpt>
      <trkpt lat="42.48387" lon="2.75822">
        <ele>782.4</ele>
        <time>2015-09-18T12:33:48Z</time>
      </trkpt>
      <trkpt lat="42.48384" lon="2.75812">
        <ele>782.4</ele>
        <time>2015-09-18T12:33:49Z</time>
      </trkpt>
      <trkpt lat="42.48382" lon="2.75802">
        <ele>784.5</ele>
        <time>2015-09-18T12:33:50Z</time>
      </trkpt>
      <trkpt lat="42.48381" lon="2.7578">
        <ele>785</ele>
        <time>2015-09-18T12:33:52Z</time>
      </trkpt>
      <trkpt lat="42.48383" lon="2.75769">
        <ele>785</ele>
        <time>2015-09-18T12:33:53Z</time>
      </trkpt>
      <trkpt lat="42.48385" lon="2.75759">
        <ele>787.1</ele>
        <time>2015-09-18T12:33:54Z</time>
      </trkpt>
      <trkpt lat="42.48388" lon="2.75749">
        <ele>788.7</ele>
        <time>2015-09-18T12:33:55Z</time>
      </trkpt>
      <trkpt lat="42.48393" lon="2.7574">
        <ele>790.4</ele>
        <time>2015-09-18T12:33:56Z</time>
      </trkpt>
      <trkpt lat="42.48398" lon="2.75731">
        <ele>792.4</ele>
        <time>2015-09-18T12:33:57Z</time>
      </trkpt>
      <trkpt lat="42.48405" lon="2.75723">
        <ele>794.6</ele>
        <time>2015-09-18T12:33:58Z</time>
      </trkpt>
      <trkpt lat="42.48411" lon="2.75717">
        <ele>796.6</ele>
        <time>2015-09-18T12:33:59Z</time>
      </trkpt>
      <trkpt lat="42.48418" lon="2.75713">
        <ele>798.1</ele>
        <time>2015-09-18T12:34:00Z</time>
      </trkpt>
      <trkpt lat="42.48425" lon="2.75711">
        <ele>798.7</ele>
        <time>2015-09-18T12:34:01Z</time>
      </trkpt>
      <trkpt lat="42.48432" lon="2.75713">
        <ele>797.9</ele>
        <time>2015-09-18T12:34:02Z</time>
      </trkpt>
      <trkpt lat="42.48439" lon="2.75716">
        <ele>797.5</ele>
        <time>2015-09-18T12:34:03Z</time>
      </trkpt>
      <trkpt lat="42.48447" lon="2.7572">
        <ele>797.5</ele>
        <time>2015-09-18T12:34:04Z</time>
      </trkpt>
      <trkpt lat="42.48454" lon="2.75724">
        <ele>799.1</ele>
        <time>2015-09-18T12:34:05Z</time>
      </trkpt>
      <trkpt lat="42.48469" lon="2.75734">
        <ele>800.3</ele>
        <time>2015-09-18T12:34:07Z</time>
      </trkpt>
      <trkpt lat="42.48476" lon="2.7574">
        <ele>801.1</ele>
        <time>2015-09-18T12:34:08Z</time>
      </trkpt>
      <trkpt lat="42.48483" lon="2.75746">
        <ele>802.3</ele>
        <time>2015-09-18T12:34:09Z</time>
      </trkpt>
      <trkpt lat="42.48488" lon="2.75754">
        <ele>803.3</ele>
        <time>2015-09-18T12:34:10Z</time>
      </trkpt>
      <trkpt lat="42.48493" lon="2.75764">
        <ele>803.9</ele>
        <time>2015-09-18T12:34:11Z</time>
      </trkpt>
      <trkpt lat="42.48495" lon="2.75775">
        <ele>804.3</ele>
        <time>2015-09-18T12:34:12Z</time>
      </trkpt>
      <trkpt lat="42.48497" lon="2.75786">
        <ele>804.7</ele>
        <time>2015-09-18T12:34:13Z</time>
      </trkpt>
      <trkpt lat="42.48498" lon="2.75796">
        <ele>805</ele>
        <time>2015-09-18T12:34:14Z</time>
      </trkpt>
      <trkpt lat="42.48497" lon="2.75805">
        <ele>804.7</ele>
        <time>2015-09-18T12:34:15Z</time>
      </trkpt>
      <trkpt lat="42.48495" lon="2.75814">
        <ele>803.6</ele>
        <time>2015-09-18T12:34:16Z</time>
      </trkpt>
      <trkpt lat="42.4849" lon="2.75824">
        <ele>802.2</ele>
        <time>2015-09-18T12:34:17Z</time>
      </trkpt>
      <trkpt lat="42.48483" lon="2.75832">
        <ele>801.6</ele>
        <time>2015-09-18T12:34:18Z</time>
      </trkpt>
      <trkpt lat="42.48469" lon="2.75843">
        <ele>801</ele>
        <time>2015-09-18T12:34:20Z</time>
      </trkpt>
      <trkpt lat="42.48469" lon="2.75843">
        <ele>800.4</ele>
        <time>2015-09-18T12:34:20Z</time>
      </trkpt>
      <trkpt lat="42.48453" lon="2.75845">
        <ele>799.4</ele>
        <time>2015-09-18T12:34:22Z</time>
      </trkpt>
      <trkpt lat="42.48445" lon="2.75844">
        <ele>798.5</ele>
        <time>2015-09-18T12:34:23Z</time>
      </trkpt>
      <trkpt lat="42.48436" lon="2.75842">
        <ele>798.5</ele>
        <time>2015-09-18T12:34:24Z</time>
      </trkpt>
      <trkpt lat="42.48427" lon="2.75838">
        <ele>798.5</ele>
        <time>2015-09-18T12:34:25Z</time>
      </trkpt>
      <trkpt lat="42.48427" lon="2.75838">
        <ele>799.3</ele>
        <time>2015-09-18T12:34:25Z</time>
      </trkpt>
      <trkpt lat="42.48411" lon="2.75829">
        <ele>799.9</ele>
        <time>2015-09-18T12:34:27Z</time>
      </trkpt>
      <trkpt lat="42.48404" lon="2.75823">
        <ele>800.1</ele>
        <time>2015-09-18T12:34:28Z</time>
      </trkpt>
      <trkpt lat="42.48398" lon="2.75816">
        <ele>799.9</ele>
        <time>2015-09-18T12:34:29Z</time>
      </trkpt>
      <trkpt lat="42.48392" lon="2.75809">
        <ele>799.7</ele>
        <time>2015-09-18T12:34:30Z</time>
      </trkpt>
      <trkpt lat="42.48386" lon="2.758">
        <ele>799.7</ele>
        <time>2015-09-18T12:34:31Z</time>
      </trkpt>
      <trkpt lat="42.4838" lon="2.75791">
        <ele>800.1</ele>
        <time>2015-09-18T12:34:32Z</time>
      </trkpt>
      <trkpt lat="42.48374" lon="2.75782">
        <ele>801.2</ele>
        <time>2015-09-18T12:34:33Z</time>
      </trkpt>
      <trkpt lat="42.48369" lon="2.75772">
        <ele>802.8</ele>
        <time>2015-09-18T12:34:34Z</time>
      </trkpt>
      <trkpt lat="42.48365" lon="2.75761">
        <ele>805</ele>
        <time>2015-09-18T12:34:35Z</time>
      </trkpt>
      <trkpt lat="42.48361" lon="2.75751">
        <ele>807.5</ele>
        <time>2015-09-18T12:34:36Z</time>
      </trkpt>
      <trkpt lat="42.48358" lon="2.75741">
        <ele>809.8</ele>
        <time>2015-09-18T12:34:37Z</time>
      </trkpt>
      <trkpt lat="42.48357" lon="2.7573">
        <ele>813</ele>
        <time>2015-09-18T12:34:38Z</time>
      </trkpt>
      <trkpt lat="42.4836" lon="2.75707">
        <ele>814.6</ele>
        <time>2015-09-18T12:34:40Z</time>
      </trkpt>
      <trkpt lat="42.4836" lon="2.75707">
        <ele>816.7</ele>
        <time>2015-09-18T12:34:40Z</time>
      </trkpt>
      <trkpt lat="42.48367" lon="2.75687">
        <ele>818.9</ele>
        <time>2015-09-18T12:34:42Z</time>
      </trkpt>
      <trkpt lat="42.48373" lon="2.75681">
        <ele>818.9</ele>
        <time>2015-09-18T12:34:43Z</time>
      </trkpt>
      <trkpt lat="42.4838" lon="2.75678">
        <ele>822.2</ele>
        <time>2015-09-18T12:34:44Z</time>
      </trkpt>
      <trkpt lat="42.48388" lon="2.7568">
        <ele>823.8</ele>
        <time>2015-09-18T12:34:45Z</time>
      </trkpt>
      <trkpt lat="42.48394" lon="2.75687">
        <ele>825.5</ele>
        <time>2015-09-18T12:34:46Z</time>
      </trkpt>
      <trkpt lat="42.48397" lon="2.75696">
        <ele>826.9</ele>
        <time>2015-09-18T12:34:47Z</time>
      </trkpt>
      <trkpt lat="42.48398" lon="2.75705">
        <ele>828.1</ele>
        <time>2015-09-18T12:34:48Z</time>
      </trkpt>
      <trkpt lat="42.48395" lon="2.75715">
        <ele>829.4</ele>
        <time>2015-09-18T12:34:49Z</time>
      </trkpt>
      <trkpt lat="42.4839" lon="2.75723">
        <ele>829.4</ele>
        <time>2015-09-18T12:34:50Z</time>
      </trkpt>
      <trkpt lat="42.48382" lon="2.75729">
        <ele>830.4</ele>
        <time>2015-09-18T12:34:51Z</time>
      </trkpt>
      <trkpt lat="42.48373" lon="2.75732">
        <ele>831.5</ele>
        <time>2015-09-18T12:34:52Z</time>
      </trkpt>
      <trkpt lat="42.48364" lon="2.75732">
        <ele>833.7</ele>
        <time>2015-09-18T12:34:53Z</time>
      </trkpt>
      <trkpt lat="42.48355" lon="2.75729">
        <ele>836.3</ele>
        <time>2015-09-18T12:34:54Z</time>
      </trkpt>
      <trkpt lat="42.48347" lon="2.75723">
        <ele>840.2</ele>
        <time>2015-09-18T12:34:55Z</time>
      </trkpt>
      <trkpt lat="42.48341" lon="2.75716">
        <ele>846.1</ele>
        <time>2015-09-18T12:34:56Z</time>
      </trkpt>
      <trkpt lat="42.48333" lon="2.75699">
        <ele>847.5</ele>
        <time>2015-09-18T12:34:58Z</time>
      </trkpt>
      <trkpt lat="42.48331" lon="2.75688">
        <ele>848.9</ele>
        <time>2015-09-18T12:34:59Z</time>
      </trkpt>
      <trkpt lat="42.48332" lon="2.75677">
        <ele>850</ele>
        <time>2015-09-18T12:35:00Z</time>
      </trkpt>
      <trkpt lat="42.48334" lon="2.75665">
        <ele>851.6</ele>
        <time>2015-09-18T12:35:01Z</time>
      </trkpt>
      <trkpt lat="42.48338" lon="2.75654">
        <ele>853.5</ele>
        <time>2015-09-18T12:35:02Z</time>
      </trkpt>
      <trkpt lat="42.48345" lon="2.75647">
        <ele>855.1</ele>
        <time>2015-09-18T12:35:03Z</time>
      </trkpt>
      <trkpt lat="42.48352" lon="2.75642">
        <ele>856.4</ele>
        <time>2015-09-18T12:35:04Z</time>
      </trkpt>
      <trkpt lat="42.4836" lon="2.75642">
        <ele>856.4</ele>
        <time>2015-09-18T12:35:05Z</time>
      </trkpt>
      <trkpt lat="42.48367" lon="2.75644">
        <ele>860.3</ele>
        <time>2015-09-18T12:35:06Z</time>
      </trkpt>
      <trkpt lat="42.48373" lon="2.75649">
        <ele>863.7</ele>
        <time>2015-09-18T12:35:07Z</time>
      </trkpt>
      <trkpt lat="42.48377" lon="2.75667">
        <ele>864.8</ele>
        <time>2015-09-18T12:35:09Z</time>
      </trkpt>
      <trkpt lat="42.48376" lon="2.75676">
        <ele>865.7</ele>
        <time>2015-09-18T12:35:10Z</time>
      </trkpt>
      <trkpt lat="42.48376" lon="2.75676">
        <ele>866.6</ele>
        <time>2015-09-18T12:35:10Z</time>
      </trkpt>
      <trkpt lat="42.48365" lon="2.75691">
        <ele>867.3</ele>
        <time>2015-09-18T12:35:12Z</time>
      </trkpt>
      <trkpt lat="42.48357" lon="2.75694">
        <ele>868.1</ele>
        <time>2015-09-18T12:35:13Z</time>
      </trkpt>
      <trkpt lat="42.48348" lon="2.75694">
        <ele>869.3</ele>
        <time>2015-09-18T12:35:14Z</time>
      </trkpt>
      <trkpt lat="42.48339" lon="2.75692">
        <ele>871.6</ele>
        <time>2015-09-18T12:35:15Z</time>
      </trkpt>
      <trkpt lat="42.48331" lon="2.75687">
        <ele>874.2</ele>
        <time>2015-09-18T12:35:16Z</time>
      </trkpt>
      <trkpt lat="42.48324" lon="2.75679">
        <ele>877</ele>
        <time>2015-09-18T12:35:17Z</time>
      </trkpt>
      <trkpt lat="42.4832" lon="2.7567">
        <ele>879</ele>
        <time>2015-09-18T12:35:18Z</time>
      </trkpt>
      <trkpt lat="42.48318" lon="2.7566">
        <ele>880.6</ele>
        <time>2015-09-18T12:35:19Z</time>
      </trkpt>
      <trkpt lat="42.48318" lon="2.75648">
        <ele>881.8</ele>
        <time>2015-09-18T12:35:20Z</time>
      </trkpt>
      <trkpt lat="42.48319" lon="2.75637">
        <ele>882.8</ele>
        <time>2015-09-18T12:35:21Z</time>
      </trkpt>
      <trkpt lat="42.48322" lon="2.75626">
        <ele>883.6</ele>
        <time>2015-09-18T12:35:22Z</time>
      </trkpt>
      <trkpt lat="42.48326" lon="2.75615">
        <ele>884.7</ele>
        <time>2015-09-18T12:35:23Z</time>
      </trkpt>
      <trkpt lat="42.48332" lon="2.75605">
        <ele>886.6</ele>
        <time>2015-09-18T12:35:24Z</time>
      </trkpt>
      <trkpt lat="42.48339" lon="2.75597">
        <ele>889</ele>
        <time>2015-09-18T12:35:25Z</time>
      </trkpt>
      <trkpt lat="42.48346" lon="2.75593">
        <ele>889</ele>
        <time>2015-09-18T12:35:26Z</time>
      </trkpt>
      <trkpt lat="42.48353" lon="2.75594">
        <ele>894.8</ele>
        <time>2015-09-18T12:35:27Z</time>
      </trkpt>
      <trkpt lat="42.48364" lon="2.75606">
        <ele>896.5</ele>
        <time>2015-09-18T12:35:29Z</time>
      </trkpt>
      <trkpt lat="42.48367" lon="2.75615">
        <ele>898</ele>
        <time>2015-09-18T12:35:30Z</time>
      </trkpt>
      <trkpt lat="42.48367" lon="2.75615">
        <ele>899.4</ele>
        <time>2015-09-18T12:35:30Z</time>
      </trkpt>
      <trkpt lat="42.48364" lon="2.75634">
        <ele>899.9</ele>
        <time>2015-09-18T12:35:32Z</time>
      </trkpt>
      <trkpt lat="42.48357" lon="2.75642">
        <ele>900.4</ele>
        <time>2015-09-18T12:35:33Z</time>
      </trkpt>
      <trkpt lat="42.48347" lon="2.75645">
        <ele>901.7</ele>
        <time>2015-09-18T12:35:34Z</time>
      </trkpt>
      <trkpt lat="42.48338" lon="2.75643">
        <ele>904.1</ele>
        <time>2015-09-18T12:35:35Z</time>
      </trkpt>
      <trkpt lat="42.4833" lon="2.75636">
        <ele>905.4</ele>
        <time>2015-09-18T12:35:36Z</time>
      </trkpt>
      <trkpt lat="42.48325" lon="2.75626">
        <ele>906.2</ele>
        <time>2015-09-18T12:35:37Z</time>
      </trkpt>
      <trkpt lat="42.48321" lon="2.75614">
        <ele>907.6</ele>
        <time>2015-09-18T12:35:38Z</time>
      </trkpt>
      <trkpt lat="42.4832" lon="2.75602">
        <ele>909.4</ele>
        <time>2015-09-18T12:35:39Z</time>
      </trkpt>
      <trkpt lat="42.48319" lon="2.7559">
        <ele>909.4</ele>
        <time>2015-09-18T12:35:40Z</time>
      </trkpt>
      <trkpt lat="42.48319" lon="2.75578">
        <ele>913</ele>
        <time>2015-09-18T12:35:41Z</time>
      </trkpt>
      <trkpt lat="42.48319" lon="2.75566">
        <ele>915.3</ele>
        <time>2015-09-18T12:35:42Z</time>
      </trkpt>
      <trkpt lat="42.48321" lon="2.75554">
        <ele>915.3</ele>
        <time>2015-09-18T12:35:43Z</time>
      </trkpt>
      <trkpt lat="42.48321" lon="2.75554">
        <ele>916.4</ele>
        <time>2015-09-18T12:35:43Z</time>
      </trkpt>
      <trkpt lat="42.48326" lon="2.75532">
        <ele>919</ele>
        <time>2015-09-18T12:35:45Z</time>
      </trkpt>
      <trkpt lat="42.48335" lon="2.75517">
        <ele>919</ele>
        <time>2015-09-18T12:35:47Z</time>
      </trkpt>
      <trkpt lat="42.48341" lon="2.75513">
        <ele>920</ele>
        <time>2015-09-18T12:35:48Z</time>
      </trkpt>
      <trkpt lat="42.48348" lon="2.75511">
        <ele>920.6</ele>
        <time>2015-09-18T12:35:49Z</time>
      </trkpt>
      <trkpt lat="42.48356" lon="2.75512">
        <ele>921.6</ele>
        <time>2015-09-18T12:35:50Z</time>
      </trkpt>
      <trkpt lat="42.48362" lon="2.75516">
        <ele>922.9</ele>
        <time>2015-09-18T12:35:51Z</time>
      </trkpt>
      <trkpt lat="42.48368" lon="2.75521">
        <ele>924.5</ele>
        <time>2015-09-18T12:35:52Z</time>
      </trkpt>
      <trkpt lat="42.48372" lon="2.75527">
        <ele>925.2</ele>
        <time>2015-09-18T12:35:53Z</time>
      </trkpt>
      <trkpt lat="42.48374" lon="2.75534">
        <ele>924.4</ele>
        <time>2015-09-18T12:35:54Z</time>
      </trkpt>
      <trkpt lat="42.48375" lon="2.75543">
        <ele>923.2</ele>
        <time>2015-09-18T12:35:55Z</time>
      </trkpt>
      <trkpt lat="42.48375" lon="2.75554">
        <ele>922.3</ele>
        <time>2015-09-18T12:35:56Z</time>
      </trkpt>
      <trkpt lat="42.48373" lon="2.75566">
        <ele>922.1</ele>
        <time>2015-09-18T12:35:57Z</time>
      </trkpt>
      <trkpt lat="42.48367" lon="2.75586">
        <ele>922.1</ele>
        <time>2015-09-18T12:35:59Z</time>
      </trkpt>
      <trkpt lat="42.48362" lon="2.75594">
        <ele>921.8</ele>
        <time>2015-09-18T12:36:00Z</time>
      </trkpt>
      <trkpt lat="42.48362" lon="2.75594">
        <ele>921.2</ele>
        <time>2015-09-18T12:36:00Z</time>
      </trkpt>
      <trkpt lat="42.48348" lon="2.7561">
        <ele>920.9</ele>
        <time>2015-09-18T12:36:02Z</time>
      </trkpt>
      <trkpt lat="42.4834" lon="2.75617">
        <ele>921</ele>
        <time>2015-09-18T12:36:03Z</time>
      </trkpt>
      <trkpt lat="42.48331" lon="2.75622">
        <ele>922</ele>
        <time>2015-09-18T12:36:04Z</time>
      </trkpt>
      <trkpt lat="42.48323" lon="2.75625">
        <ele>922.6</ele>
        <time>2015-09-18T12:36:05Z</time>
      </trkpt>
      <trkpt lat="42.48314" lon="2.75628">
        <ele>923.1</ele>
        <time>2015-09-18T12:36:06Z</time>
      </trkpt>
      <trkpt lat="42.48305" lon="2.7563">
        <ele>923.8</ele>
        <time>2015-09-18T12:36:07Z</time>
      </trkpt>
      <trkpt lat="42.48296" lon="2.75632">
        <ele>925</ele>
        <time>2015-09-18T12:36:08Z</time>
      </trkpt>
      <trkpt lat="42.48287" lon="2.75634">
        <ele>927</ele>
        <time>2015-09-18T12:36:09Z</time>
      </trkpt>
      <trkpt lat="42.48278" lon="2.75635">
        <ele>928.9</ele>
        <time>2015-09-18T12:36:10Z</time>
      </trkpt>
      <trkpt lat="42.48269" lon="2.75634">
        <ele>930.7</ele>
        <time>2015-09-18T12:36:11Z</time>
      </trkpt>
      <trkpt lat="42.48261" lon="2.75632">
        <ele>932.5</ele>
        <time>2015-09-18T12:36:12Z</time>
      </trkpt>
      <trkpt lat="42.48254" lon="2.75628">
        <ele>934.5</ele>
        <time>2015-09-18T12:36:13Z</time>
      </trkpt>
      <trkpt lat="42.48247" lon="2.75621">
        <ele>936.3</ele>
        <time>2015-09-18T12:36:14Z</time>
      </trkpt>
      <trkpt lat="42.48241" lon="2.7561">
        <ele>937.9</ele>
        <time>2015-09-18T12:36:15Z</time>
      </trkpt>
      <trkpt lat="42.48237" lon="2.75597">
        <ele>942.1</ele>
        <time>2015-09-18T12:36:16Z</time>
      </trkpt>
      <trkpt lat="42.48236" lon="2.75572">
        <ele>944.3</ele>
        <time>2015-09-18T12:36:18Z</time>
      </trkpt>
      <trkpt lat="42.48238" lon="2.75561">
        <ele>946.1</ele>
        <time>2015-09-18T12:36:19Z</time>
      </trkpt>
      <trkpt lat="42.48239" lon="2.75551">
        <ele>946.1</ele>
        <time>2015-09-18T12:36:20Z</time>
      </trkpt>
      <trkpt lat="42.48239" lon="2.75551">
        <ele>946.4</ele>
        <time>2015-09-18T12:36:20Z</time>
      </trkpt>
      <trkpt lat="42.48243" lon="2.75526">
        <ele>946.4</ele>
        <time>2015-09-18T12:36:22Z</time>
      </trkpt>
      <trkpt lat="42.48246" lon="2.75513">
        <ele>947.4</ele>
        <time>2015-09-18T12:36:23Z</time>
      </trkpt>
      <trkpt lat="42.48252" lon="2.75502">
        <ele>948.3</ele>
        <time>2015-09-18T12:36:24Z</time>
      </trkpt>
      <trkpt lat="42.4826" lon="2.75496">
        <ele>949.6</ele>
        <time>2015-09-18T12:36:25Z</time>
      </trkpt>
      <trkpt lat="42.48267" lon="2.75491">
        <ele>951.1</ele>
        <time>2015-09-18T12:36:26Z</time>
      </trkpt>
      <trkpt lat="42.48274" lon="2.75489">
        <ele>952.8</ele>
        <time>2015-09-18T12:36:27Z</time>
      </trkpt>
      <trkpt lat="42.4828" lon="2.75489">
        <ele>953.1</ele>
        <time>2015-09-18T12:36:28Z</time>
      </trkpt>
      <trkpt lat="42.48287" lon="2.75492">
        <ele>953.7</ele>
        <time>2015-09-18T12:36:29Z</time>
      </trkpt>
      <trkpt lat="42.48293" lon="2.75497">
        <ele>954.6</ele>
        <time>2015-09-18T12:36:30Z</time>
      </trkpt>
      <trkpt lat="42.48304" lon="2.75511">
        <ele>955.9</ele>
        <time>2015-09-18T12:36:32Z</time>
      </trkpt>
      <trkpt lat="42.48308" lon="2.75519">
        <ele>957</ele>
        <time>2015-09-18T12:36:33Z</time>
      </trkpt>
      <trkpt lat="42.4831" lon="2.75527">
        <ele>957.3</ele>
        <time>2015-09-18T12:36:34Z</time>
      </trkpt>
      <trkpt lat="42.48311" lon="2.75537">
        <ele>956.9</ele>
        <time>2015-09-18T12:36:35Z</time>
      </trkpt>
      <trkpt lat="42.48311" lon="2.75537">
        <ele>956.5</ele>
        <time>2015-09-18T12:36:35Z</time>
      </trkpt>
      <trkpt lat="42.48308" lon="2.75559">
        <ele>956.4</ele>
        <time>2015-09-18T12:36:37Z</time>
      </trkpt>
      <trkpt lat="42.48306" lon="2.75569">
        <ele>956.3</ele>
        <time>2015-09-18T12:36:38Z</time>
      </trkpt>
      <trkpt lat="42.48303" lon="2.7558">
        <ele>955.8</ele>
        <time>2015-09-18T12:36:39Z</time>
      </trkpt>
      <trkpt lat="42.48299" lon="2.7559">
        <ele>954.8</ele>
        <time>2015-09-18T12:36:40Z</time>
      </trkpt>
      <trkpt lat="42.48294" lon="2.75601">
        <ele>954.1</ele>
        <time>2015-09-18T12:36:41Z</time>
      </trkpt>
      <trkpt lat="42.48289" lon="2.75611">
        <ele>953.8</ele>
        <time>2015-09-18T12:36:42Z</time>
      </trkpt>
      <trkpt lat="42.48283" lon="2.75621">
        <ele>954.1</ele>
        <time>2015-09-18T12:36:43Z</time>
      </trkpt>
      <trkpt lat="42.48276" lon="2.75629">
        <ele>954.6</ele>
        <time>2015-09-18T12:36:44Z</time>
      </trkpt>
      <trkpt lat="42.48269" lon="2.75637">
        <ele>955.1</ele>
        <time>2015-09-18T12:36:45Z</time>
      </trkpt>
      <trkpt lat="42.48254" lon="2.75651">
        <ele>955.6</ele>
        <time>2015-09-18T12:36:47Z</time>
      </trkpt>
      <trkpt lat="42.48245" lon="2.75657">
        <ele>956.5</ele>
        <time>2015-09-18T12:36:48Z</time>
      </trkpt>
      <trkpt lat="42.48236" lon="2.75662">
        <ele>958.1</ele>
        <time>2015-09-18T12:36:49Z</time>
      </trkpt>
      <trkpt lat="42.48227" lon="2.75665">
        <ele>959.3</ele>
        <time>2015-09-18T12:36:50Z</time>
      </trkpt>
      <trkpt lat="42.48217" lon="2.75666">
        <ele>960.2</ele>
        <time>2015-09-18T12:36:51Z</time>
      </trkpt>
      <trkpt lat="42.48207" lon="2.75665">
        <ele>961.5</ele>
        <time>2015-09-18T12:36:52Z</time>
      </trkpt>
      <trkpt lat="42.48197" lon="2.75663">
        <ele>963</ele>
        <time>2015-09-18T12:36:53Z</time>
      </trkpt>
      <trkpt lat="42.48187" lon="2.7566">
        <ele>964.9</ele>
        <time>2015-09-18T12:36:54Z</time>
      </trkpt>
      <trkpt lat="42.48179" lon="2.75654">
        <ele>966.7</ele>
        <time>2015-09-18T12:36:55Z</time>
      </trkpt>
      <trkpt lat="42.48172" lon="2.75645">
        <ele>967.6</ele>
        <time>2015-09-18T12:36:56Z</time>
      </trkpt>
      <trkpt lat="42.48169" lon="2.75632">
        <ele>968</ele>
        <time>2015-09-18T12:36:57Z</time>
      </trkpt>
      <trkpt lat="42.4817" lon="2.75617">
        <ele>969</ele>
        <time>2015-09-18T12:36:58Z</time>
      </trkpt>
      <trkpt lat="42.48172" lon="2.75604">
        <ele>970.3</ele>
        <time>2015-09-18T12:36:59Z</time>
      </trkpt>
      <trkpt lat="42.48177" lon="2.75594">
        <ele>970.3</ele>
        <time>2015-09-18T12:37:00Z</time>
      </trkpt>
      <trkpt lat="42.48184" lon="2.75588">
        <ele>974</ele>
        <time>2015-09-18T12:37:01Z</time>
      </trkpt>
      <trkpt lat="42.48191" lon="2.75586">
        <ele>975.7</ele>
        <time>2015-09-18T12:37:02Z</time>
      </trkpt>
      <trkpt lat="42.48203" lon="2.75589">
        <ele>976.5</ele>
        <time>2015-09-18T12:37:04Z</time>
      </trkpt>
      <trkpt lat="42.48207" lon="2.75594">
        <ele>977.1</ele>
        <time>2015-09-18T12:37:05Z</time>
      </trkpt>
      <trkpt lat="42.48207" lon="2.75594">
        <ele>977.2</ele>
        <time>2015-09-18T12:37:05Z</time>
      </trkpt>
      <trkpt lat="42.48213" lon="2.7561">
        <ele>978</ele>
        <time>2015-09-18T12:37:07Z</time>
      </trkpt>
      <trkpt lat="42.48214" lon="2.7562">
        <ele>978.8</ele>
        <time>2015-09-18T12:37:08Z</time>
      </trkpt>
      <trkpt lat="42.48213" lon="2.7563">
        <ele>979.8</ele>
        <time>2015-09-18T12:37:09Z</time>
      </trkpt>
      <trkpt lat="42.48211" lon="2.7564">
        <ele>980.4</ele>
        <time>2015-09-18T12:37:10Z</time>
      </trkpt>
      <trkpt lat="42.48208" lon="2.7565">
        <ele>981.2</ele>
        <time>2015-09-18T12:37:11Z</time>
      </trkpt>
      <trkpt lat="42.48206" lon="2.7566">
        <ele>981.6</ele>
        <time>2015-09-18T12:37:12Z</time>
      </trkpt>
      <trkpt lat="42.48203" lon="2.7567">
        <ele>981.8</ele>
        <time>2015-09-18T12:37:13Z</time>
      </trkpt>
      <trkpt lat="42.48199" lon="2.7568">
        <ele>981.9</ele>
        <time>2015-09-18T12:37:14Z</time>
      </trkpt>
      <trkpt lat="42.48193" lon="2.75689">
        <ele>982.4</ele>
        <time>2015-09-18T12:37:15Z</time>
      </trkpt>
      <trkpt lat="42.48186" lon="2.75698">
        <ele>984.7</ele>
        <time>2015-09-18T12:37:16Z</time>
      </trkpt>
      <trkpt lat="42.48171" lon="2.75708">
        <ele>984.7</ele>
        <time>2015-09-18T12:37:18Z</time>
      </trkpt>
      <trkpt lat="42.48162" lon="2.75711">
        <ele>986</ele>
        <time>2015-09-18T12:37:19Z</time>
      </trkpt>
      <trkpt lat="42.48153" lon="2.75714">
        <ele>986.2</ele>
        <time>2015-09-18T12:37:20Z</time>
      </trkpt>
      <trkpt lat="42.48153" lon="2.75714">
        <ele>986.2</ele>
        <time>2015-09-18T12:37:20Z</time>
      </trkpt>
      <trkpt lat="42.48134" lon="2.75713">
        <ele>988.5</ele>
        <time>2015-09-18T12:37:22Z</time>
      </trkpt>
      <trkpt lat="42.48124" lon="2.7571">
        <ele>990</ele>
        <time>2015-09-18T12:37:23Z</time>
      </trkpt>
      <trkpt lat="42.48115" lon="2.75704">
        <ele>992</ele>
        <time>2015-09-18T12:37:24Z</time>
      </trkpt>
      <trkpt lat="42.48107" lon="2.75698">
        <ele>994.3</ele>
        <time>2015-09-18T12:37:25Z</time>
      </trkpt>
      <trkpt lat="42.481" lon="2.7569">
        <ele>996.1</ele>
        <time>2015-09-18T12:37:26Z</time>
      </trkpt>
      <trkpt lat="42.48094" lon="2.75681">
        <ele>997.5</ele>
        <time>2015-09-18T12:37:27Z</time>
      </trkpt>
      <trkpt lat="42.48089" lon="2.7567">
        <ele>998.8</ele>
        <time>2015-09-18T12:37:28Z</time>
      </trkpt>
      <trkpt lat="42.48085" lon="2.7566">
        <ele>1000.5</ele>
        <time>2015-09-18T12:37:29Z</time>
      </trkpt>
      <trkpt lat="42.48083" lon="2.75649">
        <ele>1002.4</ele>
        <time>2015-09-18T12:37:30Z</time>
      </trkpt>
      <trkpt lat="42.48082" lon="2.75639">
        <ele>1003.5</ele>
        <time>2015-09-18T12:37:31Z</time>
      </trkpt>
      <trkpt lat="42.48084" lon="2.75628">
        <ele>1003.5</ele>
        <time>2015-09-18T12:37:32Z</time>
      </trkpt>
      <trkpt lat="42.48091" lon="2.75606">
        <ele>1005.5</ele>
        <time>2015-09-18T12:37:34Z</time>
      </trkpt>
      <trkpt lat="42.48095" lon="2.75596">
        <ele>1007.4</ele>
        <time>2015-09-18T12:37:35Z</time>
      </trkpt>
      <trkpt lat="42.48095" lon="2.75596">
        <ele>1008.9</ele>
        <time>2015-09-18T12:37:35Z</time>
      </trkpt>
      <trkpt lat="42.48105" lon="2.75583">
        <ele>1009.7</ele>
        <time>2015-09-18T12:37:37Z</time>
      </trkpt>
      <trkpt lat="42.48111" lon="2.75579">
        <ele>1010.2</ele>
        <time>2015-09-18T12:37:38Z</time>
      </trkpt>
      <trkpt lat="42.48118" lon="2.75574">
        <ele>1011</ele>
        <time>2015-09-18T12:37:39Z</time>
      </trkpt>
      <trkpt lat="42.48125" lon="2.75569">
        <ele>1012.6</ele>
        <time>2015-09-18T12:37:40Z</time>
      </trkpt>
      <trkpt lat="42.48132" lon="2.75566">
        <ele>1012.6</ele>
        <time>2015-09-18T12:37:41Z</time>
      </trkpt>
      <trkpt lat="42.48138" lon="2.75565">
        <ele>1016.5</ele>
        <time>2015-09-18T12:37:42Z</time>
      </trkpt>
      <trkpt lat="42.48145" lon="2.75564">
        <ele>1018</ele>
        <time>2015-09-18T12:37:43Z</time>
      </trkpt>
      <trkpt lat="42.48151" lon="2.75564">
        <ele>1019.9</ele>
        <time>2015-09-18T12:37:44Z</time>
      </trkpt>
      <trkpt lat="42.48158" lon="2.75564">
        <ele>1022.1</ele>
        <time>2015-09-18T12:37:45Z</time>
      </trkpt>
      <trkpt lat="42.48164" lon="2.75564">
        <ele>1023.9</ele>
        <time>2015-09-18T12:37:46Z</time>
      </trkpt>
      <trkpt lat="42.48173" lon="2.75571">
        <ele>1025.3</ele>
        <time>2015-09-18T12:37:48Z</time>
      </trkpt>
      <trkpt lat="42.48176" lon="2.75578">
        <ele>1025.6</ele>
        <time>2015-09-18T12:37:49Z</time>
      </trkpt>
      <trkpt lat="42.48178" lon="2.75588">
        <ele>1025.8</ele>
        <time>2015-09-18T12:37:50Z</time>
      </trkpt>
      <trkpt lat="42.48178" lon="2.75588">
        <ele>1026.7</ele>
        <time>2015-09-18T12:37:50Z</time>
      </trkpt>
      <trkpt lat="42.48177" lon="2.75609">
        <ele>1027.4</ele>
        <time>2015-09-18T12:37:52Z</time>
      </trkpt>
      <trkpt lat="42.48173" lon="2.75618">
        <ele>1027.5</ele>
        <time>2015-09-18T12:37:53Z</time>
      </trkpt>
      <trkpt lat="42.48166" lon="2.75627">
        <ele>1027.6</ele>
        <time>2015-09-18T12:37:54Z</time>
      </trkpt>
      <trkpt lat="42.48157" lon="2.75633">
        <ele>1027.9</ele>
        <time>2015-09-18T12:37:55Z</time>
      </trkpt>
      <trkpt lat="42.48148" lon="2.75637">
        <ele>1028.7</ele>
        <time>2015-09-18T12:37:56Z</time>
      </trkpt>
      <trkpt lat="42.48138" lon="2.75637">
        <ele>1029.9</ele>
        <time>2015-09-18T12:37:57Z</time>
      </trkpt>
      <trkpt lat="42.48128" lon="2.75634">
        <ele>1031.3</ele>
        <time>2015-09-18T12:37:58Z</time>
      </trkpt>
      <trkpt lat="42.48119" lon="2.75628">
        <ele>1033.3</ele>
        <time>2015-09-18T12:37:59Z</time>
      </trkpt>
      <trkpt lat="42.48111" lon="2.75621">
        <ele>1034.6</ele>
        <time>2015-09-18T12:38:00Z</time>
      </trkpt>
      <trkpt lat="42.48104" lon="2.75612">
        <ele>1035.5</ele>
        <time>2015-09-18T12:38:01Z</time>
      </trkpt>
      <trkpt lat="42.48098" lon="2.75603">
        <ele>1036</ele>
        <time>2015-09-18T12:38:02Z</time>
      </trkpt>
      <trkpt lat="42.48091" lon="2.75578">
        <ele>1036.2</ele>
        <time>2015-09-18T12:38:04Z</time>
      </trkpt>
      <trkpt lat="42.4809" lon="2.75565">
        <ele>1036.7</ele>
        <time>2015-09-18T12:38:05Z</time>
      </trkpt>
      <trkpt lat="42.4809" lon="2.75565">
        <ele>1037.6</ele>
        <time>2015-09-18T12:38:05Z</time>
      </trkpt>
      <trkpt lat="42.48093" lon="2.7554">
        <ele>1038.9</ele>
        <time>2015-09-18T12:38:07Z</time>
      </trkpt>
      <trkpt lat="42.48096" lon="2.75529">
        <ele>1039.7</ele>
        <time>2015-09-18T12:38:08Z</time>
      </trkpt>
      <trkpt lat="42.48101" lon="2.7552">
        <ele>1040.1</ele>
        <time>2015-09-18T12:38:09Z</time>
      </trkpt>
      <trkpt lat="42.48107" lon="2.75514">
        <ele>1040.9</ele>
        <time>2015-09-18T12:38:10Z</time>
      </trkpt>
      <trkpt lat="42.48114" lon="2.75511">
        <ele>1041.9</ele>
        <time>2015-09-18T12:38:11Z</time>
      </trkpt>
      <trkpt lat="42.4812" lon="2.75512">
        <ele>1042.8</ele>
        <time>2015-09-18T12:38:12Z</time>
      </trkpt>
      <trkpt lat="42.48124" lon="2.75517">
        <ele>1043.1</ele>
        <time>2015-09-18T12:38:13Z</time>
      </trkpt>
      <trkpt lat="42.48127" lon="2.75525">
        <ele>1043.3</ele>
        <time>2015-09-18T12:38:14Z</time>
      </trkpt>
      <trkpt lat="42.48128" lon="2.75535">
        <ele>1043.6</ele>
        <time>2015-09-18T12:38:15Z</time>
      </trkpt>
      <trkpt lat="42.48127" lon="2.75545">
        <ele>1042.8</ele>
        <time>2015-09-18T12:38:16Z</time>
      </trkpt>
      <trkpt lat="42.48127" lon="2.75545">
        <ele>1042.8</ele>
        <time>2015-09-18T12:38:16Z</time>
      </trkpt>
      <trkpt lat="42.48109" lon="2.75571">
        <ele>1040.4</ele>
        <time>2015-09-18T12:38:19Z</time>
      </trkpt>
      <trkpt lat="42.48098" lon="2.75572">
        <ele>1039.9</ele>
        <time>2015-09-18T12:38:20Z</time>
      </trkpt>
      <trkpt lat="42.48098" lon="2.75572">
        <ele>1040</ele>
        <time>2015-09-18T12:38:20Z</time>
      </trkpt>
      <trkpt lat="42.48079" lon="2.7556">
        <ele>1040.7</ele>
        <time>2015-09-18T12:38:22Z</time>
      </trkpt>
      <trkpt lat="42.48072" lon="2.75549">
        <ele>1041.3</ele>
        <time>2015-09-18T12:38:23Z</time>
      </trkpt>
      <trkpt lat="42.48067" lon="2.75538">
        <ele>1041.9</ele>
        <time>2015-09-18T12:38:24Z</time>
      </trkpt>
      <trkpt lat="42.48063" lon="2.75527">
        <ele>1042.5</ele>
        <time>2015-09-18T12:38:25Z</time>
      </trkpt>
      <trkpt lat="42.4806" lon="2.75514">
        <ele>1042.3</ele>
        <time>2015-09-18T12:38:26Z</time>
      </trkpt>
      <trkpt lat="42.48058" lon="2.75501">
        <ele>1042.5</ele>
        <time>2015-09-18T12:38:27Z</time>
      </trkpt>
      <trkpt lat="42.48057" lon="2.75488">
        <ele>1043</ele>
        <time>2015-09-18T12:38:28Z</time>
      </trkpt>
      <trkpt lat="42.48057" lon="2.75474">
        <ele>1043.6</ele>
        <time>2015-09-18T12:38:29Z</time>
      </trkpt>
      <trkpt lat="42.48058" lon="2.75461">
        <ele>1045.8</ele>
        <time>2015-09-18T12:38:30Z</time>
      </trkpt>
      <trkpt lat="42.48064" lon="2.75441">
        <ele>1046.7</ele>
        <time>2015-09-18T12:38:32Z</time>
      </trkpt>
      <trkpt lat="42.48069" lon="2.75436">
        <ele>1047.2</ele>
        <time>2015-09-18T12:38:33Z</time>
      </trkpt>
      <trkpt lat="42.48075" lon="2.75437">
        <ele>1047.1</ele>
        <time>2015-09-18T12:38:34Z</time>
      </trkpt>
      <trkpt lat="42.4808" lon="2.75441">
        <ele>1047.2</ele>
        <time>2015-09-18T12:38:35Z</time>
      </trkpt>
      <trkpt lat="42.48084" lon="2.75448">
        <ele>1047.4</ele>
        <time>2015-09-18T12:38:36Z</time>
      </trkpt>
      <trkpt lat="42.48087" lon="2.75456">
        <ele>1047.4</ele>
        <time>2015-09-18T12:38:37Z</time>
      </trkpt>
      <trkpt lat="42.4809" lon="2.75465">
        <ele>1047.2</ele>
        <time>2015-09-18T12:38:38Z</time>
      </trkpt>
      <trkpt lat="42.48091" lon="2.75475">
        <ele>1047.1</ele>
        <time>2015-09-18T12:38:39Z</time>
      </trkpt>
      <trkpt lat="42.4809" lon="2.75486">
        <ele>1047.2</ele>
        <time>2015-09-18T12:38:40Z</time>
      </trkpt>
      <trkpt lat="42.48088" lon="2.75496">
        <ele>1047.4</ele>
        <time>2015-09-18T12:38:41Z</time>
      </trkpt>
      <trkpt lat="42.48085" lon="2.75506">
        <ele>1047.5</ele>
        <time>2015-09-18T12:38:42Z</time>
      </trkpt>
      <trkpt lat="42.48079" lon="2.75516">
        <ele>1047.7</ele>
        <time>2015-09-18T12:38:43Z</time>
      </trkpt>
      <trkpt lat="42.48074" lon="2.75526">
        <ele>1048.4</ele>
        <time>2015-09-18T12:38:44Z</time>
      </trkpt>
      <trkpt lat="42.48067" lon="2.75534">
        <ele>1049.3</ele>
        <time>2015-09-18T12:38:45Z</time>
      </trkpt>
      <trkpt lat="42.48061" lon="2.75541">
        <ele>1050.3</ele>
        <time>2015-09-18T12:38:46Z</time>
      </trkpt>
      <trkpt lat="42.48054" lon="2.75545">
        <ele>1050.3</ele>
        <time>2015-09-18T12:38:47Z</time>
      </trkpt>
      <trkpt lat="42.48045" lon="2.75545">
        <ele>1049.9</ele>
        <time>2015-09-18T12:38:48Z</time>
      </trkpt>
      <trkpt lat="42.48027" lon="2.75537">
        <ele>1050.2</ele>
        <time>2015-09-18T12:38:50Z</time>
      </trkpt>
      <trkpt lat="42.48027" lon="2.75537">
        <ele>1051.1</ele>
        <time>2015-09-18T12:38:50Z</time>
      </trkpt>
      <trkpt lat="42.48012" lon="2.75519">
        <ele>1051.9</ele>
        <time>2015-09-18T12:38:52Z</time>
      </trkpt>
      <trkpt lat="42.48008" lon="2.75508">
        <ele>1052.5</ele>
        <time>2015-09-18T12:38:53Z</time>
      </trkpt>
      <trkpt lat="42.48006" lon="2.75496">
        <ele>1052.6</ele>
        <time>2015-09-18T12:38:54Z</time>
      </trkpt>
      <trkpt lat="42.48005" lon="2.75484">
        <ele>1052.2</ele>
        <time>2015-09-18T12:38:55Z</time>
      </trkpt>
      <trkpt lat="42.48005" lon="2.75472">
        <ele>1052</ele>
        <time>2015-09-18T12:38:56Z</time>
      </trkpt>
      <trkpt lat="42.48007" lon="2.75459">
        <ele>1052.3</ele>
        <time>2015-09-18T12:38:57Z</time>
      </trkpt>
      <trkpt lat="42.48009" lon="2.75447">
        <ele>1053.1</ele>
        <time>2015-09-18T12:38:58Z</time>
      </trkpt>
      <trkpt lat="42.48011" lon="2.75436">
        <ele>1053.7</ele>
        <time>2015-09-18T12:38:59Z</time>
      </trkpt>
      <trkpt lat="42.48015" lon="2.75427">
        <ele>1054</ele>
        <time>2015-09-18T12:39:00Z</time>
      </trkpt>
      <trkpt lat="42.48023" lon="2.7541">
        <ele>1053.9</ele>
        <time>2015-09-18T12:39:02Z</time>
      </trkpt>
      <trkpt lat="42.48027" lon="2.75402">
        <ele>1053.7</ele>
        <time>2015-09-18T12:39:03Z</time>
      </trkpt>
      <trkpt lat="42.48031" lon="2.75395">
        <ele>1053.7</ele>
        <time>2015-09-18T12:39:04Z</time>
      </trkpt>
      <trkpt lat="42.48035" lon="2.75388">
        <ele>1053.1</ele>
        <time>2015-09-18T12:39:05Z</time>
      </trkpt>
      <trkpt lat="42.48035" lon="2.75388">
        <ele>1051.8</ele>
        <time>2015-09-18T12:39:05Z</time>
      </trkpt>
      <trkpt lat="42.48044" lon="2.75374">
        <ele>1050.3</ele>
        <time>2015-09-18T12:39:07Z</time>
      </trkpt>
      <trkpt lat="42.48048" lon="2.75366">
        <ele>1048.8</ele>
        <time>2015-09-18T12:39:08Z</time>
      </trkpt>
      <trkpt lat="42.48052" lon="2.75357">
        <ele>1047.8</ele>
        <time>2015-09-18T12:39:09Z</time>
      </trkpt>
      <trkpt lat="42.48056" lon="2.7535">
        <ele>1046.8</ele>
        <time>2015-09-18T12:39:10Z</time>
      </trkpt>
      <trkpt lat="42.48061" lon="2.75343">
        <ele>1045.7</ele>
        <time>2015-09-18T12:39:11Z</time>
      </trkpt>
      <trkpt lat="42.48067" lon="2.75337">
        <ele>1044.6</ele>
        <time>2015-09-18T12:39:12Z</time>
      </trkpt>
      <trkpt lat="42.48073" lon="2.75331">
        <ele>1043.2</ele>
        <time>2015-09-18T12:39:13Z</time>
      </trkpt>
      <trkpt lat="42.48078" lon="2.75324">
        <ele>1042</ele>
        <time>2015-09-18T12:39:14Z</time>
      </trkpt>
      <trkpt lat="42.48083" lon="2.75319">
        <ele>1040.8</ele>
        <time>2015-09-18T12:39:15Z</time>
      </trkpt>
      <trkpt lat="42.48088" lon="2.75314">
        <ele>1038.1</ele>
        <time>2015-09-18T12:39:16Z</time>
      </trkpt>
      <trkpt lat="42.48097" lon="2.75306">
        <ele>1036.2</ele>
        <time>2015-09-18T12:39:18Z</time>
      </trkpt>
      <trkpt lat="42.48101" lon="2.75304">
        <ele>1033.9</ele>
        <time>2015-09-18T12:39:19Z</time>
      </trkpt>
      <trkpt lat="42.48106" lon="2.75304">
        <ele>1031.2</ele>
        <time>2015-09-18T12:39:20Z</time>
      </trkpt>
      <trkpt lat="42.48106" lon="2.75304">
        <ele>1028.9</ele>
        <time>2015-09-18T12:39:20Z</time>
      </trkpt>
      <trkpt lat="42.48116" lon="2.75305">
        <ele>1027</ele>
        <time>2015-09-18T12:39:22Z</time>
      </trkpt>
      <trkpt lat="42.48121" lon="2.75304">
        <ele>1025.2</ele>
        <time>2015-09-18T12:39:23Z</time>
      </trkpt>
      <trkpt lat="42.48126" lon="2.75302">
        <ele>1023.3</ele>
        <time>2015-09-18T12:39:24Z</time>
      </trkpt>
      <trkpt lat="42.48132" lon="2.75299">
        <ele>1021.6</ele>
        <time>2015-09-18T12:39:25Z</time>
      </trkpt>
      <trkpt lat="42.48138" lon="2.75296">
        <ele>1020.5</ele>
        <time>2015-09-18T12:39:26Z</time>
      </trkpt>
      <trkpt lat="42.48145" lon="2.75294">
        <ele>1019.9</ele>
        <time>2015-09-18T12:39:27Z</time>
      </trkpt>
      <trkpt lat="42.48151" lon="2.75291">
        <ele>1019.2</ele>
        <time>2015-09-18T12:39:28Z</time>
      </trkpt>
      <trkpt lat="42.48157" lon="2.75289">
        <ele>1017.9</ele>
        <time>2015-09-18T12:39:29Z</time>
      </trkpt>
      <trkpt lat="42.48162" lon="2.75286">
        <ele>1016.3</ele>
        <time>2015-09-18T12:39:30Z</time>
      </trkpt>
      <trkpt lat="42.48168" lon="2.75282">
        <ele>1014.8</ele>
        <time>2015-09-18T12:39:31Z</time>
      </trkpt>
      <trkpt lat="42.48173" lon="2.75278">
        <ele>1013.4</ele>
        <time>2015-09-18T12:39:32Z</time>
      </trkpt>
      <trkpt lat="42.48185" lon="2.75269">
        <ele>1011</ele>
        <time>2015-09-18T12:39:34Z</time>
      </trkpt>
      <trkpt lat="42.48191" lon="2.75263">
        <ele>1009.9</ele>
        <time>2015-09-18T12:39:35Z</time>
      </trkpt>
      <trkpt lat="42.48191" lon="2.75263">
        <ele>1008.4</ele>
        <time>2015-09-18T12:39:35Z</time>
      </trkpt>
      <trkpt lat="42.48201" lon="2.75252">
        <ele>1006.6</ele>
        <time>2015-09-18T12:39:37Z</time>
      </trkpt>
      <trkpt lat="42.48207" lon="2.75247">
        <ele>1004.8</ele>
        <time>2015-09-18T12:39:38Z</time>
      </trkpt>
      <trkpt lat="42.48213" lon="2.75243">
        <ele>1003</ele>
        <time>2015-09-18T12:39:39Z</time>
      </trkpt>
      <trkpt lat="42.48219" lon="2.75237">
        <ele>1001.1</ele>
        <time>2015-09-18T12:39:40Z</time>
      </trkpt>
      <trkpt lat="42.48224" lon="2.75231">
        <ele>998.9</ele>
        <time>2015-09-18T12:39:41Z</time>
      </trkpt>
      <trkpt lat="42.48229" lon="2.75224">
        <ele>996.5</ele>
        <time>2015-09-18T12:39:42Z</time>
      </trkpt>
      <trkpt lat="42.48235" lon="2.75219">
        <ele>994.3</ele>
        <time>2015-09-18T12:39:43Z</time>
      </trkpt>
      <trkpt lat="42.48241" lon="2.75215">
        <ele>993.3</ele>
        <time>2015-09-18T12:39:44Z</time>
      </trkpt>
      <trkpt lat="42.48247" lon="2.75212">
        <ele>992.6</ele>
        <time>2015-09-18T12:39:45Z</time>
      </trkpt>
      <trkpt lat="42.48252" lon="2.75209">
        <ele>990</ele>
        <time>2015-09-18T12:39:46Z</time>
      </trkpt>
      <trkpt lat="42.4826" lon="2.75198">
        <ele>988</ele>
        <time>2015-09-18T12:39:48Z</time>
      </trkpt>
      <trkpt lat="42.48265" lon="2.75192">
        <ele>986.4</ele>
        <time>2015-09-18T12:39:49Z</time>
      </trkpt>
      <trkpt lat="42.4827" lon="2.75187">
        <ele>985.4</ele>
        <time>2015-09-18T12:39:50Z</time>
      </trkpt>
      <trkpt lat="42.4827" lon="2.75187">
        <ele>984.8</ele>
        <time>2015-09-18T12:39:50Z</time>
      </trkpt>
      <trkpt lat="42.4828" lon="2.75176">
        <ele>984</ele>
        <time>2015-09-18T12:39:52Z</time>
      </trkpt>
      <trkpt lat="42.48283" lon="2.75169">
        <ele>982.9</ele>
        <time>2015-09-18T12:39:53Z</time>
      </trkpt>
      <trkpt lat="42.48288" lon="2.75163">
        <ele>981.3</ele>
        <time>2015-09-18T12:39:54Z</time>
      </trkpt>
      <trkpt lat="42.48292" lon="2.75156">
        <ele>979.7</ele>
        <time>2015-09-18T12:39:55Z</time>
      </trkpt>
      <trkpt lat="42.48298" lon="2.75149">
        <ele>979</ele>
        <time>2015-09-18T12:39:56Z</time>
      </trkpt>
      <trkpt lat="42.48303" lon="2.75142">
        <ele>979</ele>
        <time>2015-09-18T12:39:57Z</time>
      </trkpt>
      <trkpt lat="42.48307" lon="2.75134">
        <ele>978.9</ele>
        <time>2015-09-18T12:39:58Z</time>
      </trkpt>
      <trkpt lat="42.48312" lon="2.75127">
        <ele>978.4</ele>
        <time>2015-09-18T12:39:59Z</time>
      </trkpt>
      <trkpt lat="42.48316" lon="2.75121">
        <ele>977.4</ele>
        <time>2015-09-18T12:40:00Z</time>
      </trkpt>
      <trkpt lat="42.48321" lon="2.75114">
        <ele>976.7</ele>
        <time>2015-09-18T12:40:01Z</time>
      </trkpt>
      <trkpt lat="42.48326" lon="2.75108">
        <ele>976.7</ele>
        <time>2015-09-18T12:40:02Z</time>
      </trkpt>
      <trkpt lat="42.48331" lon="2.75101">
        <ele>976.8</ele>
        <time>2015-09-18T12:40:03Z</time>
      </trkpt>
      <trkpt lat="42.48334" lon="2.75095">
        <ele>976.3</ele>
        <time>2015-09-18T12:40:04Z</time>
      </trkpt>
      <trkpt lat="42.48337" lon="2.75088">
        <ele>975.2</ele>
        <time>2015-09-18T12:40:05Z</time>
      </trkpt>
      <trkpt lat="42.48344" lon="2.75074">
        <ele>972</ele>
        <time>2015-09-18T12:40:07Z</time>
      </trkpt>
      <trkpt lat="42.48348" lon="2.75067">
        <ele>970.6</ele>
        <time>2015-09-18T12:40:08Z</time>
      </trkpt>
      <trkpt lat="42.48352" lon="2.7506">
        <ele>969.5</ele>
        <time>2015-09-18T12:40:09Z</time>
      </trkpt>
      <trkpt lat="42.48356" lon="2.75054">
        <ele>968.5</ele>
        <time>2015-09-18T12:40:10Z</time>
      </trkpt>
      <trkpt lat="42.48361" lon="2.75047">
        <ele>967.3</ele>
        <time>2015-09-18T12:40:11Z</time>
      </trkpt>
      <trkpt lat="42.48365" lon="2.7504">
        <ele>966.1</ele>
        <time>2015-09-18T12:40:12Z</time>
      </trkpt>
      <trkpt lat="42.4837" lon="2.75034">
        <ele>965.2</ele>
        <time>2015-09-18T12:40:13Z</time>
      </trkpt>
      <trkpt lat="42.48375" lon="2.75028">
        <ele>964.5</ele>
        <time>2015-09-18T12:40:14Z</time>
      </trkpt>
      <trkpt lat="42.48379" lon="2.75023">
        <ele>964</ele>
        <time>2015-09-18T12:40:15Z</time>
      </trkpt>
      <trkpt lat="42.48384" lon="2.75018">
        <ele>963.6</ele>
        <time>2015-09-18T12:40:16Z</time>
      </trkpt>
      <trkpt lat="42.48389" lon="2.75011">
        <ele>963.1</ele>
        <time>2015-09-18T12:40:17Z</time>
      </trkpt>
      <trkpt lat="42.48393" lon="2.75004">
        <ele>962.7</ele>
        <time>2015-09-18T12:40:18Z</time>
      </trkpt>
      <trkpt lat="42.48397" lon="2.74997">
        <ele>961.8</ele>
        <time>2015-09-18T12:40:19Z</time>
      </trkpt>
      <trkpt lat="42.48401" lon="2.7499">
        <ele>960.5</ele>
        <time>2015-09-18T12:40:20Z</time>
      </trkpt>
      <trkpt lat="42.48406" lon="2.74984">
        <ele>958.9</ele>
        <time>2015-09-18T12:40:21Z</time>
      </trkpt>
      <trkpt lat="42.48412" lon="2.74979">
        <ele>955.7</ele>
        <time>2015-09-18T12:40:22Z</time>
      </trkpt>
      <trkpt lat="42.48422" lon="2.74969">
        <ele>953.7</ele>
        <time>2015-09-18T12:40:24Z</time>
      </trkpt>
      <trkpt lat="42.48426" lon="2.74963">
        <ele>951</ele>
        <time>2015-09-18T12:40:25Z</time>
      </trkpt>
      <trkpt lat="42.48426" lon="2.74963">
        <ele>947.6</ele>
        <time>2015-09-18T12:40:25Z</time>
      </trkpt>
      <trkpt lat="42.48436" lon="2.7495">
        <ele>944.2</ele>
        <time>2015-09-18T12:40:27Z</time>
      </trkpt>
      <trkpt lat="42.48442" lon="2.74943">
        <ele>941.3</ele>
        <time>2015-09-18T12:40:28Z</time>
      </trkpt>
      <trkpt lat="42.48448" lon="2.74937">
        <ele>939</ele>
        <time>2015-09-18T12:40:29Z</time>
      </trkpt>
      <trkpt lat="42.48453" lon="2.74931">
        <ele>936.7</ele>
        <time>2015-09-18T12:40:30Z</time>
      </trkpt>
      <trkpt lat="42.48458" lon="2.74926">
        <ele>933.9</ele>
        <time>2015-09-18T12:40:31Z</time>
      </trkpt>
      <trkpt lat="42.48465" lon="2.74921">
        <ele>931.2</ele>
        <time>2015-09-18T12:40:32Z</time>
      </trkpt>
      <trkpt lat="42.48471" lon="2.74916">
        <ele>929</ele>
        <time>2015-09-18T12:40:33Z</time>
      </trkpt>
      <trkpt lat="42.48479" lon="2.74912">
        <ele>927.7</ele>
        <time>2015-09-18T12:40:34Z</time>
      </trkpt>
      <trkpt lat="42.48485" lon="2.74909">
        <ele>927.1</ele>
        <time>2015-09-18T12:40:35Z</time>
      </trkpt>
      <trkpt lat="42.4849" lon="2.74905">
        <ele>926.4</ele>
        <time>2015-09-18T12:40:36Z</time>
      </trkpt>
      <trkpt lat="42.48495" lon="2.74901">
        <ele>923.4</ele>
        <time>2015-09-18T12:40:37Z</time>
      </trkpt>
      <trkpt lat="42.485" lon="2.74897">
        <ele>921.4</ele>
        <time>2015-09-18T12:40:38Z</time>
      </trkpt>
      <trkpt lat="42.48511" lon="2.7489">
        <ele>919.7</ele>
        <time>2015-09-18T12:40:40Z</time>
      </trkpt>
      <trkpt lat="42.48511" lon="2.7489">
        <ele>918.2</ele>
        <time>2015-09-18T12:40:40Z</time>
      </trkpt>
      <trkpt lat="42.48521" lon="2.74881">
        <ele>916.5</ele>
        <time>2015-09-18T12:40:42Z</time>
      </trkpt>
      <trkpt lat="42.48525" lon="2.74875">
        <ele>914.6</ele>
        <time>2015-09-18T12:40:43Z</time>
      </trkpt>
      <trkpt lat="42.4853" lon="2.74868">
        <ele>912.6</ele>
        <time>2015-09-18T12:40:44Z</time>
      </trkpt>
      <trkpt lat="42.48535" lon="2.74863">
        <ele>910.8</ele>
        <time>2015-09-18T12:40:45Z</time>
      </trkpt>
      <trkpt lat="42.4854" lon="2.74858">
        <ele>909.2</ele>
        <time>2015-09-18T12:40:46Z</time>
      </trkpt>
      <trkpt lat="42.48546" lon="2.74853">
        <ele>908.1</ele>
        <time>2015-09-18T12:40:47Z</time>
      </trkpt>
      <trkpt lat="42.48551" lon="2.74849">
        <ele>907</ele>
        <time>2015-09-18T12:40:48Z</time>
      </trkpt>
      <trkpt lat="42.48555" lon="2.74844">
        <ele>905.9</ele>
        <time>2015-09-18T12:40:49Z</time>
      </trkpt>
      <trkpt lat="42.4856" lon="2.74839">
        <ele>904.4</ele>
        <time>2015-09-18T12:40:50Z</time>
      </trkpt>
      <trkpt lat="42.48565" lon="2.74835">
        <ele>902.9</ele>
        <time>2015-09-18T12:40:51Z</time>
      </trkpt>
      <trkpt lat="42.4857" lon="2.74831">
        <ele>901.7</ele>
        <time>2015-09-18T12:40:52Z</time>
      </trkpt>
      <trkpt lat="42.48576" lon="2.74826">
        <ele>900.8</ele>
        <time>2015-09-18T12:40:53Z</time>
      </trkpt>
      <trkpt lat="42.48581" lon="2.74821">
        <ele>900.2</ele>
        <time>2015-09-18T12:40:54Z</time>
      </trkpt>
      <trkpt lat="42.48585" lon="2.74815">
        <ele>898.3</ele>
        <time>2015-09-18T12:40:55Z</time>
      </trkpt>
      <trkpt lat="42.48593" lon="2.74804">
        <ele>896.8</ele>
        <time>2015-09-18T12:40:57Z</time>
      </trkpt>
      <trkpt lat="42.48598" lon="2.748">
        <ele>895.1</ele>
        <time>2015-09-18T12:40:58Z</time>
      </trkpt>
      <trkpt lat="42.48603" lon="2.74795">
        <ele>893.7</ele>
        <time>2015-09-18T12:40:59Z</time>
      </trkpt>
      <trkpt lat="42.48607" lon="2.74791">
        <ele>892.3</ele>
        <time>2015-09-18T12:41:00Z</time>
      </trkpt>
      <trkpt lat="42.48607" lon="2.74791">
        <ele>890.6</ele>
        <time>2015-09-18T12:41:00Z</time>
      </trkpt>
      <trkpt lat="42.48616" lon="2.74781">
        <ele>888.9</ele>
        <time>2015-09-18T12:41:02Z</time>
      </trkpt>
      <trkpt lat="42.48621" lon="2.74775">
        <ele>887.9</ele>
        <time>2015-09-18T12:41:03Z</time>
      </trkpt>
      <trkpt lat="42.48627" lon="2.7477">
        <ele>887.4</ele>
        <time>2015-09-18T12:41:04Z</time>
      </trkpt>
      <trkpt lat="42.48632" lon="2.74766">
        <ele>887.1</ele>
        <time>2015-09-18T12:41:05Z</time>
      </trkpt>
      <trkpt lat="42.48637" lon="2.74762">
        <ele>886.9</ele>
        <time>2015-09-18T12:41:06Z</time>
      </trkpt>
      <trkpt lat="42.48642" lon="2.74757">
        <ele>886.3</ele>
        <time>2015-09-18T12:41:07Z</time>
      </trkpt>
      <trkpt lat="42.48647" lon="2.74753">
        <ele>885.7</ele>
        <time>2015-09-18T12:41:08Z</time>
      </trkpt>
      <trkpt lat="42.48652" lon="2.74747">
        <ele>884.8</ele>
        <time>2015-09-18T12:41:09Z</time>
      </trkpt>
      <trkpt lat="42.48657" lon="2.74742">
        <ele>884.3</ele>
        <time>2015-09-18T12:41:10Z</time>
      </trkpt>
      <trkpt lat="42.48662" lon="2.74736">
        <ele>884.7</ele>
        <time>2015-09-18T12:41:11Z</time>
      </trkpt>
      <trkpt lat="42.48674" lon="2.74728">
        <ele>884.7</ele>
        <time>2015-09-18T12:41:13Z</time>
      </trkpt>
      <trkpt lat="42.48679" lon="2.74724">
        <ele>886.1</ele>
        <time>2015-09-18T12:41:14Z</time>
      </trkpt>
      <trkpt lat="42.48683" lon="2.7472">
        <ele>886.5</ele>
        <time>2015-09-18T12:41:15Z</time>
      </trkpt>
      <trkpt lat="42.48687" lon="2.74716">
        <ele>886.6</ele>
        <time>2015-09-18T12:41:16Z</time>
      </trkpt>
      <trkpt lat="42.48692" lon="2.74712">
        <ele>887</ele>
        <time>2015-09-18T12:41:17Z</time>
      </trkpt>
      <trkpt lat="42.48697" lon="2.7471">
        <ele>887.2</ele>
        <time>2015-09-18T12:41:18Z</time>
      </trkpt>
      <trkpt lat="42.48703" lon="2.74709">
        <ele>887.2</ele>
        <time>2015-09-18T12:41:19Z</time>
      </trkpt>
      <trkpt lat="42.48703" lon="2.74709">
        <ele>887.5</ele>
        <time>2015-09-18T12:41:19Z</time>
      </trkpt>
      <trkpt lat="42.48715" lon="2.74715">
        <ele>888.3</ele>
        <time>2015-09-18T12:41:21Z</time>
      </trkpt>
      <trkpt lat="42.4872" lon="2.74721">
        <ele>889.5</ele>
        <time>2015-09-18T12:41:22Z</time>
      </trkpt>
      <trkpt lat="42.48724" lon="2.74729">
        <ele>889.5</ele>
        <time>2015-09-18T12:41:23Z</time>
      </trkpt>
      <trkpt lat="42.48728" lon="2.74739">
        <ele>890.5</ele>
        <time>2015-09-18T12:41:24Z</time>
      </trkpt>
      <trkpt lat="42.4873" lon="2.7475">
        <ele>891.1</ele>
        <time>2015-09-18T12:41:25Z</time>
      </trkpt>
      <trkpt lat="42.48732" lon="2.74763">
        <ele>892</ele>
        <time>2015-09-18T12:41:26Z</time>
      </trkpt>
      <trkpt lat="42.48733" lon="2.74776">
        <ele>892.5</ele>
        <time>2015-09-18T12:41:27Z</time>
      </trkpt>
      <trkpt lat="42.48733" lon="2.74788">
        <ele>891.3</ele>
        <time>2015-09-18T12:41:28Z</time>
      </trkpt>
      <trkpt lat="42.48732" lon="2.74812">
        <ele>889.6</ele>
        <time>2015-09-18T12:41:30Z</time>
      </trkpt>
      <trkpt lat="42.48732" lon="2.74812">
        <ele>886.8</ele>
        <time>2015-09-18T12:41:30Z</time>
      </trkpt>
      <trkpt lat="42.48726" lon="2.74832">
        <ele>883.4</ele>
        <time>2015-09-18T12:41:32Z</time>
      </trkpt>
      <trkpt lat="42.4872" lon="2.74841">
        <ele>879.6</ele>
        <time>2015-09-18T12:41:33Z</time>
      </trkpt>
      <trkpt lat="42.48712" lon="2.7485">
        <ele>876.2</ele>
        <time>2015-09-18T12:41:34Z</time>
      </trkpt>
      <trkpt lat="42.48703" lon="2.74857">
        <ele>873.7</ele>
        <time>2015-09-18T12:41:35Z</time>
      </trkpt>
      <trkpt lat="42.48695" lon="2.74864">
        <ele>871.3</ele>
        <time>2015-09-18T12:41:36Z</time>
      </trkpt>
      <trkpt lat="42.48687" lon="2.74869">
        <ele>868.5</ele>
        <time>2015-09-18T12:41:37Z</time>
      </trkpt>
      <trkpt lat="42.48679" lon="2.74874">
        <ele>865.3</ele>
        <time>2015-09-18T12:41:38Z</time>
      </trkpt>
      <trkpt lat="42.4867" lon="2.74878">
        <ele>862</ele>
        <time>2015-09-18T12:41:39Z</time>
      </trkpt>
      <trkpt lat="42.4866" lon="2.7488">
        <ele>858.6</ele>
        <time>2015-09-18T12:41:40Z</time>
      </trkpt>
      <trkpt lat="42.4865" lon="2.7488">
        <ele>855.3</ele>
        <time>2015-09-18T12:41:41Z</time>
      </trkpt>
      <trkpt lat="42.48641" lon="2.74878">
        <ele>852.3</ele>
        <time>2015-09-18T12:41:42Z</time>
      </trkpt>
      <trkpt lat="42.48632" lon="2.74873">
        <ele>852.3</ele>
        <time>2015-09-18T12:41:43Z</time>
      </trkpt>
      <trkpt lat="42.48625" lon="2.74867">
        <ele>843.8</ele>
        <time>2015-09-18T12:41:44Z</time>
      </trkpt>
      <trkpt lat="42.48619" lon="2.74858">
        <ele>841.2</ele>
        <time>2015-09-18T12:41:45Z</time>
      </trkpt>
      <trkpt lat="42.48609" lon="2.74837">
        <ele>838.9</ele>
        <time>2015-09-18T12:41:47Z</time>
      </trkpt>
      <trkpt lat="42.48605" lon="2.74826">
        <ele>837.4</ele>
        <time>2015-09-18T12:41:48Z</time>
      </trkpt>
      <trkpt lat="42.48601" lon="2.74815">
        <ele>836.6</ele>
        <time>2015-09-18T12:41:49Z</time>
      </trkpt>
      <trkpt lat="42.48597" lon="2.74804">
        <ele>835.8</ele>
        <time>2015-09-18T12:41:50Z</time>
      </trkpt>
      <trkpt lat="42.48597" lon="2.74804">
        <ele>834.9</ele>
        <time>2015-09-18T12:41:50Z</time>
      </trkpt>
      <trkpt lat="42.48587" lon="2.74783">
        <ele>834.6</ele>
        <time>2015-09-18T12:41:52Z</time>
      </trkpt>
      <trkpt lat="42.48582" lon="2.74772">
        <ele>834.6</ele>
        <time>2015-09-18T12:41:53Z</time>
      </trkpt>
      <trkpt lat="42.48577" lon="2.7476">
        <ele>834.9</ele>
        <time>2015-09-18T12:41:54Z</time>
      </trkpt>
      <trkpt lat="42.48573" lon="2.74749">
        <ele>834.8</ele>
        <time>2015-09-18T12:41:55Z</time>
      </trkpt>
      <trkpt lat="42.48569" lon="2.74738">
        <ele>834.1</ele>
        <time>2015-09-18T12:41:56Z</time>
      </trkpt>
      <trkpt lat="42.48565" lon="2.74725">
        <ele>833.7</ele>
        <time>2015-09-18T12:41:57Z</time>
      </trkpt>
      <trkpt lat="42.48561" lon="2.7471">
        <ele>834</ele>
        <time>2015-09-18T12:41:58Z</time>
      </trkpt>
      <trkpt lat="42.48559" lon="2.74696">
        <ele>834.8</ele>
        <time>2015-09-18T12:41:59Z</time>
      </trkpt>
      <trkpt lat="42.48557" lon="2.74684">
        <ele>836.1</ele>
        <time>2015-09-18T12:42:00Z</time>
      </trkpt>
      <trkpt lat="42.48555" lon="2.74674">
        <ele>837.2</ele>
        <time>2015-09-18T12:42:01Z</time>
      </trkpt>
      <trkpt lat="42.48555" lon="2.74674">
        <ele>837.1</ele>
        <time>2015-09-18T12:42:01Z</time>
      </trkpt>
      <trkpt lat="42.48554" lon="2.74644">
        <ele>837.2</ele>
        <time>2015-09-18T12:42:04Z</time>
      </trkpt>
      <trkpt lat="42.48555" lon="2.74635">
        <ele>837.1</ele>
        <time>2015-09-18T12:42:05Z</time>
      </trkpt>
      <trkpt lat="42.48555" lon="2.74635">
        <ele>836.9</ele>
        <time>2015-09-18T12:42:05Z</time>
      </trkpt>
      <trkpt lat="42.48557" lon="2.74619">
        <ele>836.2</ele>
        <time>2015-09-18T12:42:07Z</time>
      </trkpt>
      <trkpt lat="42.4856" lon="2.7461">
        <ele>835</ele>
        <time>2015-09-18T12:42:08Z</time>
      </trkpt>
      <trkpt lat="42.48564" lon="2.74602">
        <ele>833.8</ele>
        <time>2015-09-18T12:42:09Z</time>
      </trkpt>
      <trkpt lat="42.48569" lon="2.74594">
        <ele>833.7</ele>
        <time>2015-09-18T12:42:10Z</time>
      </trkpt>
      <trkpt lat="42.48575" lon="2.74588">
        <ele>834.6</ele>
        <time>2015-09-18T12:42:11Z</time>
      </trkpt>
      <trkpt lat="42.4858" lon="2.74583">
        <ele>835</ele>
        <time>2015-09-18T12:42:12Z</time>
      </trkpt>
      <trkpt lat="42.48584" lon="2.74579">
        <ele>834.3</ele>
        <time>2015-09-18T12:42:13Z</time>
      </trkpt>
      <trkpt lat="42.48588" lon="2.74573">
        <ele>832.6</ele>
        <time>2015-09-18T12:42:14Z</time>
      </trkpt>
      <trkpt lat="42.48593" lon="2.74566">
        <ele>830.9</ele>
        <time>2015-09-18T12:42:15Z</time>
      </trkpt>
      <trkpt lat="42.486" lon="2.74559">
        <ele>830</ele>
        <time>2015-09-18T12:42:16Z</time>
      </trkpt>
      <trkpt lat="42.48606" lon="2.74552">
        <ele>830</ele>
        <time>2015-09-18T12:42:17Z</time>
      </trkpt>
      <trkpt lat="42.48612" lon="2.74547">
        <ele>829.4</ele>
        <time>2015-09-18T12:42:18Z</time>
      </trkpt>
      <trkpt lat="42.48618" lon="2.74544">
        <ele>827.4</ele>
        <time>2015-09-18T12:42:19Z</time>
      </trkpt>
      <trkpt lat="42.48624" lon="2.74541">
        <ele>821.2</ele>
        <time>2015-09-18T12:42:20Z</time>
      </trkpt>
      <trkpt lat="42.48639" lon="2.74537">
        <ele>818.3</ele>
        <time>2015-09-18T12:42:22Z</time>
      </trkpt>
      <trkpt lat="42.48647" lon="2.74535">
        <ele>816.1</ele>
        <time>2015-09-18T12:42:23Z</time>
      </trkpt>
      <trkpt lat="42.48655" lon="2.74534">
        <ele>814</ele>
        <time>2015-09-18T12:42:24Z</time>
      </trkpt>
      <trkpt lat="42.48663" lon="2.74534">
        <ele>812.1</ele>
        <time>2015-09-18T12:42:25Z</time>
      </trkpt>
      <trkpt lat="42.4867" lon="2.74534">
        <ele>810.1</ele>
        <time>2015-09-18T12:42:26Z</time>
      </trkpt>
      <trkpt lat="42.48678" lon="2.74534">
        <ele>808</ele>
        <time>2015-09-18T12:42:27Z</time>
      </trkpt>
      <trkpt lat="42.48686" lon="2.74535">
        <ele>806.3</ele>
        <time>2015-09-18T12:42:28Z</time>
      </trkpt>
      <trkpt lat="42.48694" lon="2.74537">
        <ele>805.1</ele>
        <time>2015-09-18T12:42:29Z</time>
      </trkpt>
      <trkpt lat="42.48701" lon="2.74539">
        <ele>804</ele>
        <time>2015-09-18T12:42:30Z</time>
      </trkpt>
      <trkpt lat="42.48708" lon="2.7454">
        <ele>803.4</ele>
        <time>2015-09-18T12:42:31Z</time>
      </trkpt>
      <trkpt lat="42.48716" lon="2.7454">
        <ele>803.1</ele>
        <time>2015-09-18T12:42:32Z</time>
      </trkpt>
      <trkpt lat="42.48722" lon="2.74539">
        <ele>803</ele>
        <time>2015-09-18T12:42:33Z</time>
      </trkpt>
      <trkpt lat="42.48729" lon="2.74536">
        <ele>803</ele>
        <time>2015-09-18T12:42:34Z</time>
      </trkpt>
      <trkpt lat="42.48735" lon="2.74533">
        <ele>803.2</ele>
        <time>2015-09-18T12:42:35Z</time>
      </trkpt>
      <trkpt lat="42.48741" lon="2.7453">
        <ele>803.5</ele>
        <time>2015-09-18T12:42:36Z</time>
      </trkpt>
      <trkpt lat="42.48748" lon="2.74527">
        <ele>803.8</ele>
        <time>2015-09-18T12:42:37Z</time>
      </trkpt>
      <trkpt lat="42.48755" lon="2.74527">
        <ele>804.7</ele>
        <time>2015-09-18T12:42:38Z</time>
      </trkpt>
      <trkpt lat="42.48762" lon="2.74529">
        <ele>804.5</ele>
        <time>2015-09-18T12:42:39Z</time>
      </trkpt>
      <trkpt lat="42.48762" lon="2.74529">
        <ele>804</ele>
        <time>2015-09-18T12:42:39Z</time>
      </trkpt>
      <trkpt lat="42.48773" lon="2.74551">
        <ele>803.4</ele>
        <time>2015-09-18T12:42:42Z</time>
      </trkpt>
      <trkpt lat="42.48772" lon="2.74562">
        <ele>802.9</ele>
        <time>2015-09-18T12:42:43Z</time>
      </trkpt>
      <trkpt lat="42.48767" lon="2.74572">
        <ele>804</ele>
        <time>2015-09-18T12:42:44Z</time>
      </trkpt>
      <trkpt lat="42.48762" lon="2.74582">
        <ele>804.3</ele>
        <time>2015-09-18T12:42:45Z</time>
      </trkpt>
      <trkpt lat="42.48756" lon="2.7459">
        <ele>804.6</ele>
        <time>2015-09-18T12:42:46Z</time>
      </trkpt>
      <trkpt lat="42.48749" lon="2.74596">
        <ele>804.3</ele>
        <time>2015-09-18T12:42:47Z</time>
      </trkpt>
      <trkpt lat="42.48742" lon="2.746">
        <ele>803.2</ele>
        <time>2015-09-18T12:42:48Z</time>
      </trkpt>
      <trkpt lat="42.48733" lon="2.74603">
        <ele>801.9</ele>
        <time>2015-09-18T12:42:49Z</time>
      </trkpt>
      <trkpt lat="42.48723" lon="2.74606">
        <ele>800.4</ele>
        <time>2015-09-18T12:42:50Z</time>
      </trkpt>
      <trkpt lat="42.48713" lon="2.74606">
        <ele>799.4</ele>
        <time>2015-09-18T12:42:51Z</time>
      </trkpt>
      <trkpt lat="42.48703" lon="2.74603">
        <ele>799.9</ele>
        <time>2015-09-18T12:42:52Z</time>
      </trkpt>
      <trkpt lat="42.48694" lon="2.74599">
        <ele>800.7</ele>
        <time>2015-09-18T12:42:53Z</time>
      </trkpt>
      <trkpt lat="42.48686" lon="2.74593">
        <ele>801</ele>
        <time>2015-09-18T12:42:54Z</time>
      </trkpt>
      <trkpt lat="42.48679" lon="2.74586">
        <ele>801.4</ele>
        <time>2015-09-18T12:42:55Z</time>
      </trkpt>
      <trkpt lat="42.48673" lon="2.74579">
        <ele>800.7</ele>
        <time>2015-09-18T12:42:56Z</time>
      </trkpt>
      <trkpt lat="42.48661" lon="2.74568">
        <ele>799.5</ele>
        <time>2015-09-18T12:42:58Z</time>
      </trkpt>
      <trkpt lat="42.48656" lon="2.74561">
        <ele>797.2</ele>
        <time>2015-09-18T12:42:59Z</time>
      </trkpt>
      <trkpt lat="42.48651" lon="2.74553">
        <ele>794.7</ele>
        <time>2015-09-18T12:43:00Z</time>
      </trkpt>
      <trkpt lat="42.48651" lon="2.74553">
        <ele>792.2</ele>
        <time>2015-09-18T12:43:00Z</time>
      </trkpt>
      <trkpt lat="42.48644" lon="2.74534">
        <ele>789.9</ele>
        <time>2015-09-18T12:43:02Z</time>
      </trkpt>
      <trkpt lat="42.48642" lon="2.74524">
        <ele>789.9</ele>
        <time>2015-09-18T12:43:03Z</time>
      </trkpt>
      <trkpt lat="42.48642" lon="2.74514">
        <ele>785.8</ele>
        <time>2015-09-18T12:43:04Z</time>
      </trkpt>
      <trkpt lat="42.48645" lon="2.74505">
        <ele>783.8</ele>
        <time>2015-09-18T12:43:05Z</time>
      </trkpt>
      <trkpt lat="42.4865" lon="2.74496">
        <ele>781.8</ele>
        <time>2015-09-18T12:43:06Z</time>
      </trkpt>
      <trkpt lat="42.48656" lon="2.7449">
        <ele>780.5</ele>
        <time>2015-09-18T12:43:07Z</time>
      </trkpt>
      <trkpt lat="42.48662" lon="2.74484">
        <ele>778.9</ele>
        <time>2015-09-18T12:43:08Z</time>
      </trkpt>
      <trkpt lat="42.48668" lon="2.74479">
        <ele>779.9</ele>
        <time>2015-09-18T12:43:09Z</time>
      </trkpt>
      <trkpt lat="42.48673" lon="2.74474">
        <ele>780.7</ele>
        <time>2015-09-18T12:43:10Z</time>
      </trkpt>
      <trkpt lat="42.48676" lon="2.74469">
        <ele>779.8</ele>
        <time>2015-09-18T12:43:11Z</time>
      </trkpt>
      <trkpt lat="42.48686" lon="2.7446">
        <ele>778.7</ele>
        <time>2015-09-18T12:43:13Z</time>
      </trkpt>
      <trkpt lat="42.48692" lon="2.74455">
        <ele>777.7</ele>
        <time>2015-09-18T12:43:14Z</time>
      </trkpt>
      <trkpt lat="42.48698" lon="2.74451">
        <ele>776.9</ele>
        <time>2015-09-18T12:43:15Z</time>
      </trkpt>
      <trkpt lat="42.48704" lon="2.74447">
        <ele>776.6</ele>
        <time>2015-09-18T12:43:16Z</time>
      </trkpt>
      <trkpt lat="42.4871" lon="2.74442">
        <ele>776.3</ele>
        <time>2015-09-18T12:43:17Z</time>
      </trkpt>
      <trkpt lat="42.48715" lon="2.74437">
        <ele>776.1</ele>
        <time>2015-09-18T12:43:18Z</time>
      </trkpt>
      <trkpt lat="42.48721" lon="2.74433">
        <ele>775.9</ele>
        <time>2015-09-18T12:43:19Z</time>
      </trkpt>
      <trkpt lat="42.48726" lon="2.7443">
        <ele>775.1</ele>
        <time>2015-09-18T12:43:20Z</time>
      </trkpt>
      <trkpt lat="42.48733" lon="2.74431">
        <ele>774.3</ele>
        <time>2015-09-18T12:43:21Z</time>
      </trkpt>
      <trkpt lat="42.4874" lon="2.74435">
        <ele>773.2</ele>
        <time>2015-09-18T12:43:22Z</time>
      </trkpt>
      <trkpt lat="42.48746" lon="2.74441">
        <ele>772.2</ele>
        <time>2015-09-18T12:43:23Z</time>
      </trkpt>
      <trkpt lat="42.48749" lon="2.7445">
        <ele>771.5</ele>
        <time>2015-09-18T12:43:24Z</time>
      </trkpt>
      <trkpt lat="42.48751" lon="2.7446">
        <ele>771</ele>
        <time>2015-09-18T12:43:25Z</time>
      </trkpt>
      <trkpt lat="42.48751" lon="2.7447">
        <ele>770.7</ele>
        <time>2015-09-18T12:43:26Z</time>
      </trkpt>
      <trkpt lat="42.4875" lon="2.7448">
        <ele>770.6</ele>
        <time>2015-09-18T12:43:27Z</time>
      </trkpt>
      <trkpt lat="42.4875" lon="2.74489">
        <ele>769.7</ele>
        <time>2015-09-18T12:43:28Z</time>
      </trkpt>
      <trkpt lat="42.4875" lon="2.745">
        <ele>768.2</ele>
        <time>2015-09-18T12:43:29Z</time>
      </trkpt>
      <trkpt lat="42.48749" lon="2.74512">
        <ele>766.7</ele>
        <time>2015-09-18T12:43:30Z</time>
      </trkpt>
      <trkpt lat="42.48744" lon="2.74538">
        <ele>765.7</ele>
        <time>2015-09-18T12:43:32Z</time>
      </trkpt>
      <trkpt lat="42.48741" lon="2.7455">
        <ele>765.6</ele>
        <time>2015-09-18T12:43:33Z</time>
      </trkpt>
      <trkpt lat="42.48738" lon="2.74562">
        <ele>765.1</ele>
        <time>2015-09-18T12:43:34Z</time>
      </trkpt>
      <trkpt lat="42.48735" lon="2.74574">
        <ele>764.4</ele>
        <time>2015-09-18T12:43:35Z</time>
      </trkpt>
      <trkpt lat="42.48732" lon="2.74586">
        <ele>763.3</ele>
        <time>2015-09-18T12:43:36Z</time>
      </trkpt>
      <trkpt lat="42.48728" lon="2.74598">
        <ele>762.2</ele>
        <time>2015-09-18T12:43:37Z</time>
      </trkpt>
      <trkpt lat="42.48724" lon="2.74611">
        <ele>761.4</ele>
        <time>2015-09-18T12:43:38Z</time>
      </trkpt>
      <trkpt lat="42.4872" lon="2.74623">
        <ele>760.4</ele>
        <time>2015-09-18T12:43:39Z</time>
      </trkpt>
      <trkpt lat="42.48717" lon="2.74636">
        <ele>758.6</ele>
        <time>2015-09-18T12:43:40Z</time>
      </trkpt>
      <trkpt lat="42.48714" lon="2.74648">
        <ele>756.3</ele>
        <time>2015-09-18T12:43:41Z</time>
      </trkpt>
      <trkpt lat="42.4871" lon="2.74661">
        <ele>754</ele>
        <time>2015-09-18T12:43:42Z</time>
      </trkpt>
      <trkpt lat="42.4871" lon="2.74661">
        <ele>751.9</ele>
        <time>2015-09-18T12:43:42Z</time>
      </trkpt>
      <trkpt lat="42.48703" lon="2.74687">
        <ele>749.7</ele>
        <time>2015-09-18T12:43:44Z</time>
      </trkpt>
      <trkpt lat="42.487" lon="2.74701">
        <ele>747.4</ele>
        <time>2015-09-18T12:43:45Z</time>
      </trkpt>
      <trkpt lat="42.48693" lon="2.7473">
        <ele>744.4</ele>
        <time>2015-09-18T12:43:47Z</time>
      </trkpt>
      <trkpt lat="42.48689" lon="2.74745">
        <ele>744.2</ele>
        <time>2015-09-18T12:43:48Z</time>
      </trkpt>
      <trkpt lat="42.48685" lon="2.74759">
        <ele>744.4</ele>
        <time>2015-09-18T12:43:49Z</time>
      </trkpt>
      <trkpt lat="42.48681" lon="2.74771">
        <ele>744.2</ele>
        <time>2015-09-18T12:43:50Z</time>
      </trkpt>
      <trkpt lat="42.48681" lon="2.74771">
        <ele>743.3</ele>
        <time>2015-09-18T12:43:50Z</time>
      </trkpt>
      <trkpt lat="42.48676" lon="2.74796">
        <ele>741.6</ele>
        <time>2015-09-18T12:43:52Z</time>
      </trkpt>
      <trkpt lat="42.48674" lon="2.74809">
        <ele>739.5</ele>
        <time>2015-09-18T12:43:53Z</time>
      </trkpt>
      <trkpt lat="42.48671" lon="2.74823">
        <ele>739.5</ele>
        <time>2015-09-18T12:43:54Z</time>
      </trkpt>
      <trkpt lat="42.48669" lon="2.74837">
        <ele>735.9</ele>
        <time>2015-09-18T12:43:55Z</time>
      </trkpt>
      <trkpt lat="42.48666" lon="2.74852">
        <ele>734.5</ele>
        <time>2015-09-18T12:43:56Z</time>
      </trkpt>
      <trkpt lat="42.48663" lon="2.74866">
        <ele>734.1</ele>
        <time>2015-09-18T12:43:57Z</time>
      </trkpt>
      <trkpt lat="42.48661" lon="2.7488">
        <ele>734.4</ele>
        <time>2015-09-18T12:43:58Z</time>
      </trkpt>
      <trkpt lat="42.48658" lon="2.74894">
        <ele>734.1</ele>
        <time>2015-09-18T12:43:59Z</time>
      </trkpt>
      <trkpt lat="42.48655" lon="2.74907">
        <ele>732.7</ele>
        <time>2015-09-18T12:44:00Z</time>
      </trkpt>
      <trkpt lat="42.48651" lon="2.74919">
        <ele>731</ele>
        <time>2015-09-18T12:44:01Z</time>
      </trkpt>
      <trkpt lat="42.48644" lon="2.74946">
        <ele>728.9</ele>
        <time>2015-09-18T12:44:03Z</time>
      </trkpt>
      <trkpt lat="42.48641" lon="2.7496">
        <ele>727.1</ele>
        <time>2015-09-18T12:44:04Z</time>
      </trkpt>
      <trkpt lat="42.48638" lon="2.74974">
        <ele>725.7</ele>
        <time>2015-09-18T12:44:05Z</time>
      </trkpt>
      <trkpt lat="42.48635" lon="2.74987">
        <ele>724.2</ele>
        <time>2015-09-18T12:44:06Z</time>
      </trkpt>
      <trkpt lat="42.48631" lon="2.75">
        <ele>722.7</ele>
        <time>2015-09-18T12:44:07Z</time>
      </trkpt>
      <trkpt lat="42.48627" lon="2.75013">
        <ele>720.9</ele>
        <time>2015-09-18T12:44:08Z</time>
      </trkpt>
      <trkpt lat="42.48623" lon="2.75026">
        <ele>718.7</ele>
        <time>2015-09-18T12:44:09Z</time>
      </trkpt>
      <trkpt lat="42.4862" lon="2.75039">
        <ele>715.8</ele>
        <time>2015-09-18T12:44:10Z</time>
      </trkpt>
      <trkpt lat="42.48616" lon="2.75052">
        <ele>712.9</ele>
        <time>2015-09-18T12:44:11Z</time>
      </trkpt>
      <trkpt lat="42.48612" lon="2.75067">
        <ele>710.6</ele>
        <time>2015-09-18T12:44:12Z</time>
      </trkpt>
      <trkpt lat="42.48608" lon="2.75081">
        <ele>709.2</ele>
        <time>2015-09-18T12:44:13Z</time>
      </trkpt>
      <trkpt lat="42.48604" lon="2.75095">
        <ele>708.3</ele>
        <time>2015-09-18T12:44:14Z</time>
      </trkpt>
      <trkpt lat="42.48602" lon="2.75109">
        <ele>707.4</ele>
        <time>2015-09-18T12:44:15Z</time>
      </trkpt>
      <trkpt lat="42.48599" lon="2.75122">
        <ele>704.9</ele>
        <time>2015-09-18T12:44:16Z</time>
      </trkpt>
      <trkpt lat="42.48597" lon="2.75135">
        <ele>703.2</ele>
        <time>2015-09-18T12:44:17Z</time>
      </trkpt>
      <trkpt lat="42.48592" lon="2.75161">
        <ele>700.8</ele>
        <time>2015-09-18T12:44:19Z</time>
      </trkpt>
      <trkpt lat="42.48589" lon="2.75175">
        <ele>698.7</ele>
        <time>2015-09-18T12:44:20Z</time>
      </trkpt>
      <trkpt lat="42.48589" lon="2.75175">
        <ele>697.1</ele>
        <time>2015-09-18T12:44:20Z</time>
      </trkpt>
      <trkpt lat="42.48584" lon="2.75202">
        <ele>695.8</ele>
        <time>2015-09-18T12:44:22Z</time>
      </trkpt>
      <trkpt lat="42.48582" lon="2.75214">
        <ele>694.1</ele>
        <time>2015-09-18T12:44:23Z</time>
      </trkpt>
      <trkpt lat="42.48579" lon="2.75226">
        <ele>691.4</ele>
        <time>2015-09-18T12:44:24Z</time>
      </trkpt>
      <trkpt lat="42.48577" lon="2.75238">
        <ele>688.1</ele>
        <time>2015-09-18T12:44:25Z</time>
      </trkpt>
      <trkpt lat="42.48574" lon="2.75251">
        <ele>684.6</ele>
        <time>2015-09-18T12:44:26Z</time>
      </trkpt>
      <trkpt lat="42.48571" lon="2.75265">
        <ele>681.7</ele>
        <time>2015-09-18T12:44:27Z</time>
      </trkpt>
      <trkpt lat="42.48568" lon="2.75277">
        <ele>679.7</ele>
        <time>2015-09-18T12:44:28Z</time>
      </trkpt>
      <trkpt lat="42.48565" lon="2.75289">
        <ele>675.1</ele>
        <time>2015-09-18T12:44:29Z</time>
      </trkpt>
      <trkpt lat="42.48563" lon="2.753">
        <ele>675.1</ele>
        <time>2015-09-18T12:44:30Z</time>
      </trkpt>
      <trkpt lat="42.48558" lon="2.75322">
        <ele>668.2</ele>
        <time>2015-09-18T12:44:32Z</time>
      </trkpt>
      <trkpt lat="42.48554" lon="2.75334">
        <ele>664.6</ele>
        <time>2015-09-18T12:44:33Z</time>
      </trkpt>
      <trkpt lat="42.48551" lon="2.75347">
        <ele>661.6</ele>
        <time>2015-09-18T12:44:34Z</time>
      </trkpt>
      <trkpt lat="42.48549" lon="2.7536">
        <ele>659.6</ele>
        <time>2015-09-18T12:44:35Z</time>
      </trkpt>
      <trkpt lat="42.48546" lon="2.75373">
        <ele>657.9</ele>
        <time>2015-09-18T12:44:36Z</time>
      </trkpt>
      <trkpt lat="42.48545" lon="2.75385">
        <ele>655.9</ele>
        <time>2015-09-18T12:44:37Z</time>
      </trkpt>
      <trkpt lat="42.48543" lon="2.75396">
        <ele>653.4</ele>
        <time>2015-09-18T12:44:38Z</time>
      </trkpt>
      <trkpt lat="42.48541" lon="2.75408">
        <ele>650.3</ele>
        <time>2015-09-18T12:44:39Z</time>
      </trkpt>
      <trkpt lat="42.48539" lon="2.7542">
        <ele>646.8</ele>
        <time>2015-09-18T12:44:40Z</time>
      </trkpt>
      <trkpt lat="42.48537" lon="2.75433">
        <ele>643.4</ele>
        <time>2015-09-18T12:44:41Z</time>
      </trkpt>
      <trkpt lat="42.48535" lon="2.75446">
        <ele>640.7</ele>
        <time>2015-09-18T12:44:42Z</time>
      </trkpt>
      <trkpt lat="42.48534" lon="2.7546">
        <ele>638.3</ele>
        <time>2015-09-18T12:44:43Z</time>
      </trkpt>
      <trkpt lat="42.48532" lon="2.75473">
        <ele>636.3</ele>
        <time>2015-09-18T12:44:44Z</time>
      </trkpt>
      <trkpt lat="42.4853" lon="2.75485">
        <ele>634.3</ele>
        <time>2015-09-18T12:44:45Z</time>
      </trkpt>
      <trkpt lat="42.48529" lon="2.75498">
        <ele>632.3</ele>
        <time>2015-09-18T12:44:46Z</time>
      </trkpt>
      <trkpt lat="42.48527" lon="2.75509">
        <ele>626.7</ele>
        <time>2015-09-18T12:44:47Z</time>
      </trkpt>
      <trkpt lat="42.48525" lon="2.75531">
        <ele>623.1</ele>
        <time>2015-09-18T12:44:49Z</time>
      </trkpt>
      <trkpt lat="42.48524" lon="2.75544">
        <ele>619.6</ele>
        <time>2015-09-18T12:44:50Z</time>
      </trkpt>
      <trkpt lat="42.48524" lon="2.75544">
        <ele>616.2</ele>
        <time>2015-09-18T12:44:50Z</time>
      </trkpt>
      <trkpt lat="42.48524" lon="2.75569">
        <ele>613.4</ele>
        <time>2015-09-18T12:44:52Z</time>
      </trkpt>
      <trkpt lat="42.48523" lon="2.75581">
        <ele>611</ele>
        <time>2015-09-18T12:44:53Z</time>
      </trkpt>
      <trkpt lat="42.48522" lon="2.75593">
        <ele>608.4</ele>
        <time>2015-09-18T12:44:54Z</time>
      </trkpt>
      <trkpt lat="42.48521" lon="2.75605">
        <ele>605.5</ele>
        <time>2015-09-18T12:44:55Z</time>
      </trkpt>
      <trkpt lat="42.48518" lon="2.75617">
        <ele>602.6</ele>
        <time>2015-09-18T12:44:56Z</time>
      </trkpt>
      <trkpt lat="42.48516" lon="2.75629">
        <ele>600.1</ele>
        <time>2015-09-18T12:44:57Z</time>
      </trkpt>
      <trkpt lat="42.48514" lon="2.75642">
        <ele>598.1</ele>
        <time>2015-09-18T12:44:58Z</time>
      </trkpt>
      <trkpt lat="42.48513" lon="2.75654">
        <ele>594.9</ele>
        <time>2015-09-18T12:44:59Z</time>
      </trkpt>
      <trkpt lat="42.48511" lon="2.75667">
        <ele>593</ele>
        <time>2015-09-18T12:45:00Z</time>
      </trkpt>
      <trkpt lat="42.48509" lon="2.75679">
        <ele>590.9</ele>
        <time>2015-09-18T12:45:01Z</time>
      </trkpt>
      <trkpt lat="42.48504" lon="2.75704">
        <ele>588.5</ele>
        <time>2015-09-18T12:45:03Z</time>
      </trkpt>
      <trkpt lat="42.48501" lon="2.75717">
        <ele>586.1</ele>
        <time>2015-09-18T12:45:04Z</time>
      </trkpt>
      <trkpt lat="42.48499" lon="2.7573">
        <ele>583.9</ele>
        <time>2015-09-18T12:45:05Z</time>
      </trkpt>
      <trkpt lat="42.48499" lon="2.7573">
        <ele>581.9</ele>
        <time>2015-09-18T12:45:05Z</time>
      </trkpt>
      <trkpt lat="42.48494" lon="2.75757">
        <ele>580.1</ele>
        <time>2015-09-18T12:45:07Z</time>
      </trkpt>
      <trkpt lat="42.48491" lon="2.7577">
        <ele>578.1</ele>
        <time>2015-09-18T12:45:08Z</time>
      </trkpt>
      <trkpt lat="42.48488" lon="2.75782">
        <ele>576</ele>
        <time>2015-09-18T12:45:09Z</time>
      </trkpt>
      <trkpt lat="42.48484" lon="2.75795">
        <ele>573.5</ele>
        <time>2015-09-18T12:45:10Z</time>
      </trkpt>
      <trkpt lat="42.48481" lon="2.75808">
        <ele>570.8</ele>
        <time>2015-09-18T12:45:11Z</time>
      </trkpt>
      <trkpt lat="42.48479" lon="2.75821">
        <ele>568.2</ele>
        <time>2015-09-18T12:45:12Z</time>
      </trkpt>
      <trkpt lat="42.48477" lon="2.75835">
        <ele>565.7</ele>
        <time>2015-09-18T12:45:13Z</time>
      </trkpt>
      <trkpt lat="42.48475" lon="2.75848">
        <ele>563.4</ele>
        <time>2015-09-18T12:45:14Z</time>
      </trkpt>
      <trkpt lat="42.48473" lon="2.75862">
        <ele>561.2</ele>
        <time>2015-09-18T12:45:15Z</time>
      </trkpt>
      <trkpt lat="42.4847" lon="2.75876">
        <ele>557.7</ele>
        <time>2015-09-18T12:45:16Z</time>
      </trkpt>
      <trkpt lat="42.48466" lon="2.75903">
        <ele>556.1</ele>
        <time>2015-09-18T12:45:18Z</time>
      </trkpt>
      <trkpt lat="42.48465" lon="2.75915">
        <ele>554.3</ele>
        <time>2015-09-18T12:45:19Z</time>
      </trkpt>
      <trkpt lat="42.48464" lon="2.75928">
        <ele>552.2</ele>
        <time>2015-09-18T12:45:20Z</time>
      </trkpt>
      <trkpt lat="42.48463" lon="2.75942">
        <ele>550.1</ele>
        <time>2015-09-18T12:45:21Z</time>
      </trkpt>
      <trkpt lat="42.48462" lon="2.75955">
        <ele>548</ele>
        <time>2015-09-18T12:45:22Z</time>
      </trkpt>
      <trkpt lat="42.48461" lon="2.75968">
        <ele>546</ele>
        <time>2015-09-18T12:45:23Z</time>
      </trkpt>
      <trkpt lat="42.48461" lon="2.75982">
        <ele>543.6</ele>
        <time>2015-09-18T12:45:24Z</time>
      </trkpt>
      <trkpt lat="42.48462" lon="2.75995">
        <ele>540.9</ele>
        <time>2015-09-18T12:45:25Z</time>
      </trkpt>
      <trkpt lat="42.48463" lon="2.76009">
        <ele>538.3</ele>
        <time>2015-09-18T12:45:26Z</time>
      </trkpt>
      <trkpt lat="42.48463" lon="2.76023">
        <ele>535.9</ele>
        <time>2015-09-18T12:45:27Z</time>
      </trkpt>
      <trkpt lat="42.48462" lon="2.76037">
        <ele>533.9</ele>
        <time>2015-09-18T12:45:28Z</time>
      </trkpt>
      <trkpt lat="42.48462" lon="2.76052">
        <ele>532.4</ele>
        <time>2015-09-18T12:45:29Z</time>
      </trkpt>
      <trkpt lat="42.48462" lon="2.76065">
        <ele>531.1</ele>
        <time>2015-09-18T12:45:30Z</time>
      </trkpt>
      <trkpt lat="42.48463" lon="2.76078">
        <ele>529.7</ele>
        <time>2015-09-18T12:45:31Z</time>
      </trkpt>
      <trkpt lat="42.48463" lon="2.76091">
        <ele>527.9</ele>
        <time>2015-09-18T12:45:32Z</time>
      </trkpt>
      <trkpt lat="42.48462" lon="2.76104">
        <ele>525.5</ele>
        <time>2015-09-18T12:45:33Z</time>
      </trkpt>
      <trkpt lat="42.4846" lon="2.76119">
        <ele>523.3</ele>
        <time>2015-09-18T12:45:34Z</time>
      </trkpt>
      <trkpt lat="42.48458" lon="2.76133">
        <ele>521.8</ele>
        <time>2015-09-18T12:45:35Z</time>
      </trkpt>
      <trkpt lat="42.48455" lon="2.7616">
        <ele>519.7</ele>
        <time>2015-09-18T12:45:37Z</time>
      </trkpt>
      <trkpt lat="42.48453" lon="2.76173">
        <ele>518</ele>
        <time>2015-09-18T12:45:38Z</time>
      </trkpt>
      <trkpt lat="42.48451" lon="2.76186">
        <ele>515.9</ele>
        <time>2015-09-18T12:45:39Z</time>
      </trkpt>
      <trkpt lat="42.48449" lon="2.762">
        <ele>514.1</ele>
        <time>2015-09-18T12:45:40Z</time>
      </trkpt>
      <trkpt lat="42.48447" lon="2.76214">
        <ele>512.8</ele>
        <time>2015-09-18T12:45:41Z</time>
      </trkpt>
      <trkpt lat="42.48446" lon="2.76227">
        <ele>511.7</ele>
        <time>2015-09-18T12:45:42Z</time>
      </trkpt>
      <trkpt lat="42.48445" lon="2.7624">
        <ele>510.3</ele>
        <time>2015-09-18T12:45:43Z</time>
      </trkpt>
      <trkpt lat="42.48445" lon="2.7624">
        <ele>508.2</ele>
        <time>2015-09-18T12:45:43Z</time>
      </trkpt>
      <trkpt lat="42.48441" lon="2.76265">
        <ele>505.5</ele>
        <time>2015-09-18T12:45:45Z</time>
      </trkpt>
      <trkpt lat="42.48438" lon="2.76279">
        <ele>502.7</ele>
        <time>2015-09-18T12:45:46Z</time>
      </trkpt>
      <trkpt lat="42.48436" lon="2.76293">
        <ele>499.8</ele>
        <time>2015-09-18T12:45:47Z</time>
      </trkpt>
      <trkpt lat="42.4843" lon="2.7632">
        <ele>494.9</ele>
        <time>2015-09-18T12:45:49Z</time>
      </trkpt>
      <trkpt lat="42.48428" lon="2.76332">
        <ele>492.3</ele>
        <time>2015-09-18T12:45:50Z</time>
      </trkpt>
      <trkpt lat="42.48428" lon="2.76332">
        <ele>489.6</ele>
        <time>2015-09-18T12:45:50Z</time>
      </trkpt>
      <trkpt lat="42.48421" lon="2.76358">
        <ele>487.1</ele>
        <time>2015-09-18T12:45:52Z</time>
      </trkpt>
      <trkpt lat="42.48418" lon="2.76371">
        <ele>485</ele>
        <time>2015-09-18T12:45:53Z</time>
      </trkpt>
      <trkpt lat="42.48416" lon="2.76383">
        <ele>482.9</ele>
        <time>2015-09-18T12:45:54Z</time>
      </trkpt>
      <trkpt lat="42.48413" lon="2.76395">
        <ele>480.7</ele>
        <time>2015-09-18T12:45:55Z</time>
      </trkpt>
      <trkpt lat="42.4841" lon="2.76407">
        <ele>478.3</ele>
        <time>2015-09-18T12:45:56Z</time>
      </trkpt>
      <trkpt lat="42.48407" lon="2.7642">
        <ele>475.7</ele>
        <time>2015-09-18T12:45:57Z</time>
      </trkpt>
      <trkpt lat="42.48404" lon="2.76433">
        <ele>473.1</ele>
        <time>2015-09-18T12:45:58Z</time>
      </trkpt>
      <trkpt lat="42.48401" lon="2.76447">
        <ele>470.9</ele>
        <time>2015-09-18T12:45:59Z</time>
      </trkpt>
      <trkpt lat="42.48398" lon="2.76461">
        <ele>469.1</ele>
        <time>2015-09-18T12:46:00Z</time>
      </trkpt>
      <trkpt lat="42.48395" lon="2.76474">
        <ele>467.7</ele>
        <time>2015-09-18T12:46:01Z</time>
      </trkpt>
      <trkpt lat="42.48392" lon="2.76487">
        <ele>466.4</ele>
        <time>2015-09-18T12:46:02Z</time>
      </trkpt>
      <trkpt lat="42.48389" lon="2.765">
        <ele>464.8</ele>
        <time>2015-09-18T12:46:03Z</time>
      </trkpt>
      <trkpt lat="42.48386" lon="2.76512">
        <ele>462.8</ele>
        <time>2015-09-18T12:46:04Z</time>
      </trkpt>
      <trkpt lat="42.48383" lon="2.76525">
        <ele>460.2</ele>
        <time>2015-09-18T12:46:05Z</time>
      </trkpt>
      <trkpt lat="42.4838" lon="2.76538">
        <ele>454.6</ele>
        <time>2015-09-18T12:46:06Z</time>
      </trkpt>
      <trkpt lat="42.48374" lon="2.76567">
        <ele>452.9</ele>
        <time>2015-09-18T12:46:08Z</time>
      </trkpt>
      <trkpt lat="42.48372" lon="2.7658">
        <ele>452.3</ele>
        <time>2015-09-18T12:46:09Z</time>
      </trkpt>
      <trkpt lat="42.48368" lon="2.76591">
        <ele>451.7</ele>
        <time>2015-09-18T12:46:10Z</time>
      </trkpt>
      <trkpt lat="42.48365" lon="2.76601">
        <ele>450.6</ele>
        <time>2015-09-18T12:46:11Z</time>
      </trkpt>
      <trkpt lat="42.48362" lon="2.76611">
        <ele>448.6</ele>
        <time>2015-09-18T12:46:12Z</time>
      </trkpt>
      <trkpt lat="42.48359" lon="2.76623">
        <ele>446.6</ele>
        <time>2015-09-18T12:46:13Z</time>
      </trkpt>
      <trkpt lat="42.48357" lon="2.76635">
        <ele>446.6</ele>
        <time>2015-09-18T12:46:14Z</time>
      </trkpt>
      <trkpt lat="42.48353" lon="2.76647">
        <ele>444.5</ele>
        <time>2015-09-18T12:46:15Z</time>
      </trkpt>
      <trkpt lat="42.48348" lon="2.76657">
        <ele>443.3</ele>
        <time>2015-09-18T12:46:16Z</time>
      </trkpt>
      <trkpt lat="42.48343" lon="2.76666">
        <ele>441.5</ele>
        <time>2015-09-18T12:46:17Z</time>
      </trkpt>
      <trkpt lat="42.48336" lon="2.76674">
        <ele>439</ele>
        <time>2015-09-18T12:46:18Z</time>
      </trkpt>
      <trkpt lat="42.4833" lon="2.76684">
        <ele>436</ele>
        <time>2015-09-18T12:46:19Z</time>
      </trkpt>
      <trkpt lat="42.48323" lon="2.76694">
        <ele>431.4</ele>
        <time>2015-09-18T12:46:20Z</time>
      </trkpt>
      <trkpt lat="42.48317" lon="2.76703">
        <ele>431.4</ele>
        <time>2015-09-18T12:46:21Z</time>
      </trkpt>
      <trkpt lat="42.48306" lon="2.7672">
        <ele>426</ele>
        <time>2015-09-18T12:46:23Z</time>
      </trkpt>
      <trkpt lat="42.48299" lon="2.76729">
        <ele>422.4</ele>
        <time>2015-09-18T12:46:24Z</time>
      </trkpt>
      <trkpt lat="42.48292" lon="2.76739">
        <ele>422.4</ele>
        <time>2015-09-18T12:46:25Z</time>
      </trkpt>
      <trkpt lat="42.48292" lon="2.76739">
        <ele>416.8</ele>
        <time>2015-09-18T12:46:25Z</time>
      </trkpt>
      <trkpt lat="42.48279" lon="2.76761">
        <ele>415.2</ele>
        <time>2015-09-18T12:46:27Z</time>
      </trkpt>
      <trkpt lat="42.48273" lon="2.76772">
        <ele>415.2</ele>
        <time>2015-09-18T12:46:28Z</time>
      </trkpt>
      <trkpt lat="42.48267" lon="2.76783">
        <ele>413.1</ele>
        <time>2015-09-18T12:46:29Z</time>
      </trkpt>
      <trkpt lat="42.4826" lon="2.76794">
        <ele>411.8</ele>
        <time>2015-09-18T12:46:30Z</time>
      </trkpt>
      <trkpt lat="42.48254" lon="2.76804">
        <ele>410.5</ele>
        <time>2015-09-18T12:46:31Z</time>
      </trkpt>
      <trkpt lat="42.48247" lon="2.76815">
        <ele>409.1</ele>
        <time>2015-09-18T12:46:32Z</time>
      </trkpt>
      <trkpt lat="42.4824" lon="2.76825">
        <ele>407.9</ele>
        <time>2015-09-18T12:46:33Z</time>
      </trkpt>
      <trkpt lat="42.48232" lon="2.76836">
        <ele>407.3</ele>
        <time>2015-09-18T12:46:34Z</time>
      </trkpt>
      <trkpt lat="42.48225" lon="2.76847">
        <ele>406.8</ele>
        <time>2015-09-18T12:46:35Z</time>
      </trkpt>
      <trkpt lat="42.48217" lon="2.76858">
        <ele>406.3</ele>
        <time>2015-09-18T12:46:36Z</time>
      </trkpt>
      <trkpt lat="42.48203" lon="2.76879">
        <ele>406.2</ele>
        <time>2015-09-18T12:46:38Z</time>
      </trkpt>
      <trkpt lat="42.48196" lon="2.7689">
        <ele>405.6</ele>
        <time>2015-09-18T12:46:39Z</time>
      </trkpt>
      <trkpt lat="42.4819" lon="2.769">
        <ele>404.6</ele>
        <time>2015-09-18T12:46:40Z</time>
      </trkpt>
      <trkpt lat="42.48183" lon="2.76911">
        <ele>403.2</ele>
        <time>2015-09-18T12:46:41Z</time>
      </trkpt>
      <trkpt lat="42.48176" lon="2.76923">
        <ele>401.9</ele>
        <time>2015-09-18T12:46:42Z</time>
      </trkpt>
      <trkpt lat="42.4817" lon="2.76935">
        <ele>401.2</ele>
        <time>2015-09-18T12:46:43Z</time>
      </trkpt>
      <trkpt lat="42.48163" lon="2.76947">
        <ele>400.7</ele>
        <time>2015-09-18T12:46:44Z</time>
      </trkpt>
      <trkpt lat="42.48157" lon="2.76957">
        <ele>400.3</ele>
        <time>2015-09-18T12:46:45Z</time>
      </trkpt>
      <trkpt lat="42.4815" lon="2.76968">
        <ele>399.7</ele>
        <time>2015-09-18T12:46:46Z</time>
      </trkpt>
      <trkpt lat="42.48143" lon="2.76978">
        <ele>398.3</ele>
        <time>2015-09-18T12:46:47Z</time>
      </trkpt>
      <trkpt lat="42.48136" lon="2.76989">
        <ele>396.9</ele>
        <time>2015-09-18T12:46:48Z</time>
      </trkpt>
      <trkpt lat="42.48128" lon="2.76999">
        <ele>396</ele>
        <time>2015-09-18T12:46:49Z</time>
      </trkpt>
      <trkpt lat="42.4812" lon="2.7701">
        <ele>395.2</ele>
        <time>2015-09-18T12:46:50Z</time>
      </trkpt>
      <trkpt lat="42.48112" lon="2.77019">
        <ele>394.2</ele>
        <time>2015-09-18T12:46:51Z</time>
      </trkpt>
      <trkpt lat="42.48103" lon="2.77029">
        <ele>394.2</ele>
        <time>2015-09-18T12:46:52Z</time>
      </trkpt>
      <trkpt lat="42.48094" lon="2.77039">
        <ele>392.7</ele>
        <time>2015-09-18T12:46:53Z</time>
      </trkpt>
      <trkpt lat="42.48086" lon="2.77049">
        <ele>391.3</ele>
        <time>2015-09-18T12:46:54Z</time>
      </trkpt>
      <trkpt lat="42.48078" lon="2.7706">
        <ele>390.7</ele>
        <time>2015-09-18T12:46:55Z</time>
      </trkpt>
      <trkpt lat="42.48062" lon="2.7708">
        <ele>390</ele>
        <time>2015-09-18T12:46:57Z</time>
      </trkpt>
      <trkpt lat="42.48054" lon="2.7709">
        <ele>389.4</ele>
        <time>2015-09-18T12:46:58Z</time>
      </trkpt>
      <trkpt lat="42.48046" lon="2.771">
        <ele>389.2</ele>
        <time>2015-09-18T12:46:59Z</time>
      </trkpt>
      <trkpt lat="42.48037" lon="2.7711">
        <ele>389.2</ele>
        <time>2015-09-18T12:47:00Z</time>
      </trkpt>
      <trkpt lat="42.48029" lon="2.77118">
        <ele>389.1</ele>
        <time>2015-09-18T12:47:01Z</time>
      </trkpt>
      <trkpt lat="42.4802" lon="2.77127">
        <ele>389.1</ele>
        <time>2015-09-18T12:47:02Z</time>
      </trkpt>
      <trkpt lat="42.48012" lon="2.77136">
        <ele>387.7</ele>
        <time>2015-09-18T12:47:03Z</time>
      </trkpt>
      <trkpt lat="42.48003" lon="2.77145">
        <ele>386.6</ele>
        <time>2015-09-18T12:47:04Z</time>
      </trkpt>
      <trkpt lat="42.47994" lon="2.77154">
        <ele>386.6</ele>
        <time>2015-09-18T12:47:05Z</time>
      </trkpt>
      <trkpt lat="42.47985" lon="2.77163">
        <ele>387.2</ele>
        <time>2015-09-18T12:47:06Z</time>
      </trkpt>
      <trkpt lat="42.47977" lon="2.77172">
        <ele>386.9</ele>
        <time>2015-09-18T12:47:07Z</time>
      </trkpt>
      <trkpt lat="42.47969" lon="2.77182">
        <ele>386.2</ele>
        <time>2015-09-18T12:47:08Z</time>
      </trkpt>
      <trkpt lat="42.47961" lon="2.77192">
        <ele>386.2</ele>
        <time>2015-09-18T12:47:09Z</time>
      </trkpt>
      <trkpt lat="42.47961" lon="2.77192">
        <ele>385.5</ele>
        <time>2015-09-18T12:47:09Z</time>
      </trkpt>
      <trkpt lat="42.47939" lon="2.77225">
        <ele>385.4</ele>
        <time>2015-09-18T12:47:12Z</time>
      </trkpt>
      <trkpt lat="42.47933" lon="2.77236">
        <ele>385.6</ele>
        <time>2015-09-18T12:47:13Z</time>
      </trkpt>
      <trkpt lat="42.47927" lon="2.77246">
        <ele>385.8</ele>
        <time>2015-09-18T12:47:14Z</time>
      </trkpt>
      <trkpt lat="42.4792" lon="2.77256">
        <ele>384.9</ele>
        <time>2015-09-18T12:47:15Z</time>
      </trkpt>
      <trkpt lat="42.4792" lon="2.77256">
        <ele>383.8</ele>
        <time>2015-09-18T12:47:15Z</time>
      </trkpt>
      <trkpt lat="42.47908" lon="2.77277">
        <ele>383.1</ele>
        <time>2015-09-18T12:47:17Z</time>
      </trkpt>
      <trkpt lat="42.47902" lon="2.77289">
        <ele>383.6</ele>
        <time>2015-09-18T12:47:18Z</time>
      </trkpt>
      <trkpt lat="42.47898" lon="2.77301">
        <ele>385.3</ele>
        <time>2015-09-18T12:47:19Z</time>
      </trkpt>
      <trkpt lat="42.47895" lon="2.77312">
        <ele>385.3</ele>
        <time>2015-09-18T12:47:20Z</time>
      </trkpt>
      <trkpt lat="42.47892" lon="2.77321">
        <ele>387.9</ele>
        <time>2015-09-18T12:47:21Z</time>
      </trkpt>
      <trkpt lat="42.47891" lon="2.7733">
        <ele>388.1</ele>
        <time>2015-09-18T12:47:22Z</time>
      </trkpt>
      <trkpt lat="42.47891" lon="2.77339">
        <ele>388</ele>
        <time>2015-09-18T12:47:23Z</time>
      </trkpt>
      <trkpt lat="42.47892" lon="2.77348">
        <ele>388</ele>
        <time>2015-09-18T12:47:24Z</time>
      </trkpt>
      <trkpt lat="42.47893" lon="2.77357">
        <ele>388.4</ele>
        <time>2015-09-18T12:47:25Z</time>
      </trkpt>
      <trkpt lat="42.47893" lon="2.77367">
        <ele>389.8</ele>
        <time>2015-09-18T12:47:26Z</time>
      </trkpt>
      <trkpt lat="42.47892" lon="2.77377">
        <ele>390.4</ele>
        <time>2015-09-18T12:47:27Z</time>
      </trkpt>
      <trkpt lat="42.47881" lon="2.77393">
        <ele>390.9</ele>
        <time>2015-09-18T12:47:29Z</time>
      </trkpt>
      <trkpt lat="42.47873" lon="2.77397">
        <ele>391.3</ele>
        <time>2015-09-18T12:47:30Z</time>
      </trkpt>
      <trkpt lat="42.47873" lon="2.77397">
        <ele>391.8</ele>
        <time>2015-09-18T12:47:30Z</time>
      </trkpt>
      <trkpt lat="42.47855" lon="2.77398">
        <ele>392.4</ele>
        <time>2015-09-18T12:47:32Z</time>
      </trkpt>
      <trkpt lat="42.47846" lon="2.77394">
        <ele>392.9</ele>
        <time>2015-09-18T12:47:33Z</time>
      </trkpt>
      <trkpt lat="42.47838" lon="2.77389">
        <ele>392.9</ele>
        <time>2015-09-18T12:47:34Z</time>
      </trkpt>
      <trkpt lat="42.47831" lon="2.77381">
        <ele>392.8</ele>
        <time>2015-09-18T12:47:35Z</time>
      </trkpt>
      <trkpt lat="42.47826" lon="2.77371">
        <ele>392.2</ele>
        <time>2015-09-18T12:47:36Z</time>
      </trkpt>
      <trkpt lat="42.47824" lon="2.7736">
        <ele>391.5</ele>
        <time>2015-09-18T12:47:37Z</time>
      </trkpt>
      <trkpt lat="42.47823" lon="2.77349">
        <ele>391.1</ele>
        <time>2015-09-18T12:47:38Z</time>
      </trkpt>
      <trkpt lat="42.47824" lon="2.77338">
        <ele>391</ele>
        <time>2015-09-18T12:47:39Z</time>
      </trkpt>
      <trkpt lat="42.47827" lon="2.77329">
        <ele>391</ele>
        <time>2015-09-18T12:47:40Z</time>
      </trkpt>
      <trkpt lat="42.47831" lon="2.77322">
        <ele>391.3</ele>
        <time>2015-09-18T12:47:41Z</time>
      </trkpt>
      <trkpt lat="42.47835" lon="2.77316">
        <ele>391.6</ele>
        <time>2015-09-18T12:47:42Z</time>
      </trkpt>
      <trkpt lat="42.4784" lon="2.77309">
        <ele>391.9</ele>
        <time>2015-09-18T12:47:43Z</time>
      </trkpt>
      <trkpt lat="42.47844" lon="2.77304">
        <ele>393.2</ele>
        <time>2015-09-18T12:47:44Z</time>
      </trkpt>
      <trkpt lat="42.47844" lon="2.77304">
        <ele>393.9</ele>
        <time>2015-09-18T12:47:44Z</time>
      </trkpt>
      <trkpt lat="42.47857" lon="2.7729">
        <ele>394.3</ele>
        <time>2015-09-18T12:47:47Z</time>
      </trkpt>
      <trkpt lat="42.47861" lon="2.77288">
        <ele>394</ele>
        <time>2015-09-18T12:47:48Z</time>
      </trkpt>
      <trkpt lat="42.47865" lon="2.7729">
        <ele>393.2</ele>
        <time>2015-09-18T12:47:49Z</time>
      </trkpt>
      <trkpt lat="42.47871" lon="2.77294">
        <ele>392.2</ele>
        <time>2015-09-18T12:47:50Z</time>
      </trkpt>
      <trkpt lat="42.47876" lon="2.773">
        <ele>391.9</ele>
        <time>2015-09-18T12:47:51Z</time>
      </trkpt>
      <trkpt lat="42.4788" lon="2.77308">
        <ele>391.9</ele>
        <time>2015-09-18T12:47:52Z</time>
      </trkpt>
      <trkpt lat="42.47883" lon="2.77318">
        <ele>392.1</ele>
        <time>2015-09-18T12:47:53Z</time>
      </trkpt>
      <trkpt lat="42.47885" lon="2.77329">
        <ele>392.2</ele>
        <time>2015-09-18T12:47:54Z</time>
      </trkpt>
      <trkpt lat="42.47886" lon="2.77339">
        <ele>392.3</ele>
        <time>2015-09-18T12:47:55Z</time>
      </trkpt>
      <trkpt lat="42.47886" lon="2.77349">
        <ele>392.3</ele>
        <time>2015-09-18T12:47:56Z</time>
      </trkpt>
      <trkpt lat="42.47886" lon="2.77359">
        <ele>392.3</ele>
        <time>2015-09-18T12:47:57Z</time>
      </trkpt>
      <trkpt lat="42.47881" lon="2.77382">
        <ele>392.5</ele>
        <time>2015-09-18T12:47:59Z</time>
      </trkpt>
      <trkpt lat="42.47876" lon="2.77392">
        <ele>393.7</ele>
        <time>2015-09-18T12:48:00Z</time>
      </trkpt>
      <trkpt lat="42.47876" lon="2.77392">
        <ele>395.2</ele>
        <time>2015-09-18T12:48:00Z</time>
      </trkpt>
      <trkpt lat="42.47864" lon="2.7741">
        <ele>396.4</ele>
        <time>2015-09-18T12:48:02Z</time>
      </trkpt>
      <trkpt lat="42.4786" lon="2.77418">
        <ele>397.1</ele>
        <time>2015-09-18T12:48:03Z</time>
      </trkpt>
      <trkpt lat="42.47856" lon="2.77426">
        <ele>397.4</ele>
        <time>2015-09-18T12:48:04Z</time>
      </trkpt>
      <trkpt lat="42.4785" lon="2.77434">
        <ele>397.1</ele>
        <time>2015-09-18T12:48:05Z</time>
      </trkpt>
      <trkpt lat="42.47842" lon="2.77439">
        <ele>396.2</ele>
        <time>2015-09-18T12:48:06Z</time>
      </trkpt>
      <trkpt lat="42.47833" lon="2.77442">
        <ele>396</ele>
        <time>2015-09-18T12:48:07Z</time>
      </trkpt>
      <trkpt lat="42.47823" lon="2.77442">
        <ele>395.9</ele>
        <time>2015-09-18T12:48:08Z</time>
      </trkpt>
      <trkpt lat="42.47814" lon="2.77437">
        <ele>395.3</ele>
        <time>2015-09-18T12:48:09Z</time>
      </trkpt>
      <trkpt lat="42.47806" lon="2.77429">
        <ele>394.3</ele>
        <time>2015-09-18T12:48:10Z</time>
      </trkpt>
      <trkpt lat="42.47799" lon="2.77418">
        <ele>393.5</ele>
        <time>2015-09-18T12:48:11Z</time>
      </trkpt>
      <trkpt lat="42.47795" lon="2.77406">
        <ele>393.6</ele>
        <time>2015-09-18T12:48:12Z</time>
      </trkpt>
      <trkpt lat="42.47791" lon="2.77394">
        <ele>394</ele>
        <time>2015-09-18T12:48:13Z</time>
      </trkpt>
      <trkpt lat="42.47789" lon="2.77383">
        <ele>394</ele>
        <time>2015-09-18T12:48:14Z</time>
      </trkpt>
      <trkpt lat="42.47787" lon="2.77372">
        <ele>394</ele>
        <time>2015-09-18T12:48:15Z</time>
      </trkpt>
      <trkpt lat="42.47785" lon="2.77361">
        <ele>394.9</ele>
        <time>2015-09-18T12:48:16Z</time>
      </trkpt>
      <trkpt lat="42.47785" lon="2.77338">
        <ele>396</ele>
        <time>2015-09-18T12:48:18Z</time>
      </trkpt>
      <trkpt lat="42.47785" lon="2.77329">
        <ele>396.9</ele>
        <time>2015-09-18T12:48:19Z</time>
      </trkpt>
      <trkpt lat="42.47787" lon="2.77321">
        <ele>397.5</ele>
        <time>2015-09-18T12:48:20Z</time>
      </trkpt>
      <trkpt lat="42.47787" lon="2.77321">
        <ele>397.5</ele>
        <time>2015-09-18T12:48:20Z</time>
      </trkpt>
      <trkpt lat="42.47793" lon="2.77311">
        <ele>397.1</ele>
        <time>2015-09-18T12:48:22Z</time>
      </trkpt>
      <trkpt lat="42.47797" lon="2.77307">
        <ele>396.1</ele>
        <time>2015-09-18T12:48:23Z</time>
      </trkpt>
      <trkpt lat="42.47802" lon="2.77306">
        <ele>395.2</ele>
        <time>2015-09-18T12:48:24Z</time>
      </trkpt>
      <trkpt lat="42.47807" lon="2.77307">
        <ele>394.6</ele>
        <time>2015-09-18T12:48:25Z</time>
      </trkpt>
      <trkpt lat="42.47811" lon="2.77311">
        <ele>394.1</ele>
        <time>2015-09-18T12:48:26Z</time>
      </trkpt>
      <trkpt lat="42.47814" lon="2.77317">
        <ele>393.5</ele>
        <time>2015-09-18T12:48:27Z</time>
      </trkpt>
      <trkpt lat="42.47816" lon="2.77325">
        <ele>392.3</ele>
        <time>2015-09-18T12:48:28Z</time>
      </trkpt>
      <trkpt lat="42.47817" lon="2.77335">
        <ele>392.3</ele>
        <time>2015-09-18T12:48:29Z</time>
      </trkpt>
      <trkpt lat="42.47817" lon="2.77346">
        <ele>390.9</ele>
        <time>2015-09-18T12:48:30Z</time>
      </trkpt>
      <trkpt lat="42.47814" lon="2.77357">
        <ele>390.6</ele>
        <time>2015-09-18T12:48:31Z</time>
      </trkpt>
      <trkpt lat="42.4781" lon="2.77368">
        <ele>390.6</ele>
        <time>2015-09-18T12:48:32Z</time>
      </trkpt>
      <trkpt lat="42.47803" lon="2.77378">
        <ele>390.1</ele>
        <time>2015-09-18T12:48:33Z</time>
      </trkpt>
      <trkpt lat="42.47796" lon="2.77385">
        <ele>390.2</ele>
        <time>2015-09-18T12:48:34Z</time>
      </trkpt>
      <trkpt lat="42.47796" lon="2.77385">
        <ele>390.4</ele>
        <time>2015-09-18T12:48:34Z</time>
      </trkpt>
      <trkpt lat="42.4777" lon="2.77396">
        <ele>390.4</ele>
        <time>2015-09-18T12:48:37Z</time>
      </trkpt>
      <trkpt lat="42.4776" lon="2.77397">
        <ele>390.2</ele>
        <time>2015-09-18T12:48:38Z</time>
      </trkpt>
      <trkpt lat="42.47752" lon="2.77398">
        <ele>389.9</ele>
        <time>2015-09-18T12:48:39Z</time>
      </trkpt>
      <trkpt lat="42.47743" lon="2.77397">
        <ele>389.1</ele>
        <time>2015-09-18T12:48:40Z</time>
      </trkpt>
      <trkpt lat="42.47734" lon="2.77393">
        <ele>387.7</ele>
        <time>2015-09-18T12:48:41Z</time>
      </trkpt>
      <trkpt lat="42.47726" lon="2.77386">
        <ele>386.3</ele>
        <time>2015-09-18T12:48:42Z</time>
      </trkpt>
      <trkpt lat="42.47721" lon="2.77374">
        <ele>385.4</ele>
        <time>2015-09-18T12:48:43Z</time>
      </trkpt>
      <trkpt lat="42.47718" lon="2.77362">
        <ele>385.1</ele>
        <time>2015-09-18T12:48:44Z</time>
      </trkpt>
      <trkpt lat="42.47717" lon="2.77351">
        <ele>386.3</ele>
        <time>2015-09-18T12:48:45Z</time>
      </trkpt>
      <trkpt lat="42.47716" lon="2.77342">
        <ele>387</ele>
        <time>2015-09-18T12:48:46Z</time>
      </trkpt>
      <trkpt lat="42.47716" lon="2.77334">
        <ele>387</ele>
        <time>2015-09-18T12:48:47Z</time>
      </trkpt>
      <trkpt lat="42.47714" lon="2.77325">
        <ele>384.6</ele>
        <time>2015-09-18T12:48:48Z</time>
      </trkpt>
      <trkpt lat="42.47713" lon="2.77307">
        <ele>383.9</ele>
        <time>2015-09-18T12:48:50Z</time>
      </trkpt>
      <trkpt lat="42.47713" lon="2.77307">
        <ele>383.7</ele>
        <time>2015-09-18T12:48:50Z</time>
      </trkpt>
      <trkpt lat="42.47714" lon="2.7729">
        <ele>383.4</ele>
        <time>2015-09-18T12:48:52Z</time>
      </trkpt>
      <trkpt lat="42.47715" lon="2.77284">
        <ele>382.7</ele>
        <time>2015-09-18T12:48:53Z</time>
      </trkpt>
      <trkpt lat="42.47718" lon="2.77279">
        <ele>381.7</ele>
        <time>2015-09-18T12:48:54Z</time>
      </trkpt>
      <trkpt lat="42.47722" lon="2.77276">
        <ele>380.8</ele>
        <time>2015-09-18T12:48:55Z</time>
      </trkpt>
      <trkpt lat="42.47722" lon="2.77276">
        <ele>380.1</ele>
        <time>2015-09-18T12:48:55Z</time>
      </trkpt>
      <trkpt lat="42.47732" lon="2.77276">
        <ele>380</ele>
        <time>2015-09-18T12:48:57Z</time>
      </trkpt>
      <trkpt lat="42.47737" lon="2.77279">
        <ele>380.1</ele>
        <time>2015-09-18T12:48:58Z</time>
      </trkpt>
      <trkpt lat="42.47742" lon="2.77282">
        <ele>379.6</ele>
        <time>2015-09-18T12:48:59Z</time>
      </trkpt>
      <trkpt lat="42.47746" lon="2.77285">
        <ele>378.4</ele>
        <time>2015-09-18T12:49:00Z</time>
      </trkpt>
      <trkpt lat="42.47751" lon="2.77289">
        <ele>377</ele>
        <time>2015-09-18T12:49:01Z</time>
      </trkpt>
      <trkpt lat="42.47757" lon="2.77293">
        <ele>376</ele>
        <time>2015-09-18T12:49:02Z</time>
      </trkpt>
      <trkpt lat="42.47764" lon="2.77296">
        <ele>375.9</ele>
        <time>2015-09-18T12:49:03Z</time>
      </trkpt>
      <trkpt lat="42.4777" lon="2.773">
        <ele>376.4</ele>
        <time>2015-09-18T12:49:04Z</time>
      </trkpt>
      <trkpt lat="42.47775" lon="2.77303">
        <ele>376.9</ele>
        <time>2015-09-18T12:49:05Z</time>
      </trkpt>
      <trkpt lat="42.4778" lon="2.77308">
        <ele>376.5</ele>
        <time>2015-09-18T12:49:06Z</time>
      </trkpt>
      <trkpt lat="42.47788" lon="2.77316">
        <ele>376.3</ele>
        <time>2015-09-18T12:49:08Z</time>
      </trkpt>
      <trkpt lat="42.47793" lon="2.7732">
        <ele>376.3</ele>
        <time>2015-09-18T12:49:09Z</time>
      </trkpt>
      <trkpt lat="42.47797" lon="2.77324">
        <ele>376.9</ele>
        <time>2015-09-18T12:49:10Z</time>
      </trkpt>
      <trkpt lat="42.47797" lon="2.77324">
        <ele>377.4</ele>
        <time>2015-09-18T12:49:10Z</time>
      </trkpt>
      <trkpt lat="42.47805" lon="2.77333">
        <ele>377.4</ele>
        <time>2015-09-18T12:49:12Z</time>
      </trkpt>
      <trkpt lat="42.47809" lon="2.77337">
        <ele>377.3</ele>
        <time>2015-09-18T12:49:13Z</time>
      </trkpt>
      <trkpt lat="42.47813" lon="2.77342">
        <ele>377.4</ele>
        <time>2015-09-18T12:49:14Z</time>
      </trkpt>
      <trkpt lat="42.47817" lon="2.77345">
        <ele>377.8</ele>
        <time>2015-09-18T12:49:15Z</time>
      </trkpt>
      <trkpt lat="42.47822" lon="2.77347">
        <ele>378.4</ele>
        <time>2015-09-18T12:49:16Z</time>
      </trkpt>
      <trkpt lat="42.47828" lon="2.77347">
        <ele>379</ele>
        <time>2015-09-18T12:49:17Z</time>
      </trkpt>
      <trkpt lat="42.47833" lon="2.77347">
        <ele>379.8</ele>
        <time>2015-09-18T12:49:18Z</time>
      </trkpt>
      <trkpt lat="42.47839" lon="2.77347">
        <ele>381</ele>
        <time>2015-09-18T12:49:19Z</time>
      </trkpt>
      <trkpt lat="42.47844" lon="2.77349">
        <ele>381.9</ele>
        <time>2015-09-18T12:49:20Z</time>
      </trkpt>
      <trkpt lat="42.47848" lon="2.77351">
        <ele>382.4</ele>
        <time>2015-09-18T12:49:21Z</time>
      </trkpt>
      <trkpt lat="42.47853" lon="2.77354">
        <ele>382.4</ele>
        <time>2015-09-18T12:49:22Z</time>
      </trkpt>
      <trkpt lat="42.47857" lon="2.77358">
        <ele>383.5</ele>
        <time>2015-09-18T12:49:23Z</time>
      </trkpt>
      <trkpt lat="42.47865" lon="2.7737">
        <ele>384.7</ele>
        <time>2015-09-18T12:49:25Z</time>
      </trkpt>
      <trkpt lat="42.47865" lon="2.7737">
        <ele>385.6</ele>
        <time>2015-09-18T12:49:25Z</time>
      </trkpt>
      <trkpt lat="42.47871" lon="2.77387">
        <ele>386.8</ele>
        <time>2015-09-18T12:49:27Z</time>
      </trkpt>
      <trkpt lat="42.47874" lon="2.77396">
        <ele>387.8</ele>
        <time>2015-09-18T12:49:28Z</time>
      </trkpt>
      <trkpt lat="42.47877" lon="2.77405">
        <ele>388.8</ele>
        <time>2015-09-18T12:49:29Z</time>
      </trkpt>
      <trkpt lat="42.47879" lon="2.77414">
        <ele>389.6</ele>
        <time>2015-09-18T12:49:30Z</time>
      </trkpt>
      <trkpt lat="42.4788" lon="2.77424">
        <ele>390</ele>
        <time>2015-09-18T12:49:31Z</time>
      </trkpt>
      <trkpt lat="42.47879" lon="2.77436">
        <ele>390.1</ele>
        <time>2015-09-18T12:49:32Z</time>
      </trkpt>
      <trkpt lat="42.47876" lon="2.77449">
        <ele>390.6</ele>
        <time>2015-09-18T12:49:33Z</time>
      </trkpt>
      <trkpt lat="42.47872" lon="2.7746">
        <ele>391.2</ele>
        <time>2015-09-18T12:49:34Z</time>
      </trkpt>
      <trkpt lat="42.47866" lon="2.77471">
        <ele>391.5</ele>
        <time>2015-09-18T12:49:35Z</time>
      </trkpt>
      <trkpt lat="42.47858" lon="2.77481">
        <ele>391.4</ele>
        <time>2015-09-18T12:49:36Z</time>
      </trkpt>
      <trkpt lat="42.47849" lon="2.77489">
        <ele>390.9</ele>
        <time>2015-09-18T12:49:37Z</time>
      </trkpt>
      <trkpt lat="42.47828" lon="2.77501">
        <ele>391.2</ele>
        <time>2015-09-18T12:49:39Z</time>
      </trkpt>
      <trkpt lat="42.47817" lon="2.77506">
        <ele>391.6</ele>
        <time>2015-09-18T12:49:40Z</time>
      </trkpt>
      <trkpt lat="42.47817" lon="2.77506">
        <ele>391.7</ele>
        <time>2015-09-18T12:49:40Z</time>
      </trkpt>
      <trkpt lat="42.47796" lon="2.77511">
        <ele>392.1</ele>
        <time>2015-09-18T12:49:42Z</time>
      </trkpt>
      <trkpt lat="42.47785" lon="2.77511">
        <ele>392.9</ele>
        <time>2015-09-18T12:49:43Z</time>
      </trkpt>
      <trkpt lat="42.47774" lon="2.77511">
        <ele>394.4</ele>
        <time>2015-09-18T12:49:44Z</time>
      </trkpt>
      <trkpt lat="42.47766" lon="2.7751">
        <ele>395.7</ele>
        <time>2015-09-18T12:49:45Z</time>
      </trkpt>
      <trkpt lat="42.47758" lon="2.77509">
        <ele>395.6</ele>
        <time>2015-09-18T12:49:46Z</time>
      </trkpt>
      <trkpt lat="42.47751" lon="2.77506">
        <ele>395.6</ele>
        <time>2015-09-18T12:49:47Z</time>
      </trkpt>
      <trkpt lat="42.47744" lon="2.77501">
        <ele>394.1</ele>
        <time>2015-09-18T12:49:48Z</time>
      </trkpt>
      <trkpt lat="42.47737" lon="2.77494">
        <ele>394</ele>
        <time>2015-09-18T12:49:49Z</time>
      </trkpt>
      <trkpt lat="42.47731" lon="2.77485">
        <ele>394.4</ele>
        <time>2015-09-18T12:49:50Z</time>
      </trkpt>
      <trkpt lat="42.47725" lon="2.77477">
        <ele>395</ele>
        <time>2015-09-18T12:49:51Z</time>
      </trkpt>
      <trkpt lat="42.4772" lon="2.77469">
        <ele>395</ele>
        <time>2015-09-18T12:49:52Z</time>
      </trkpt>
      <trkpt lat="42.47714" lon="2.77461">
        <ele>394.2</ele>
        <time>2015-09-18T12:49:53Z</time>
      </trkpt>
      <trkpt lat="42.47709" lon="2.77452">
        <ele>393.1</ele>
        <time>2015-09-18T12:49:54Z</time>
      </trkpt>
      <trkpt lat="42.47704" lon="2.77442">
        <ele>392.9</ele>
        <time>2015-09-18T12:49:55Z</time>
      </trkpt>
      <trkpt lat="42.477" lon="2.77431">
        <ele>392.9</ele>
        <time>2015-09-18T12:49:56Z</time>
      </trkpt>
      <trkpt lat="42.47693" lon="2.77412">
        <ele>394.3</ele>
        <time>2015-09-18T12:49:58Z</time>
      </trkpt>
      <trkpt lat="42.47689" lon="2.77402">
        <ele>394.4</ele>
        <time>2015-09-18T12:49:59Z</time>
      </trkpt>
      <trkpt lat="42.47686" lon="2.77393">
        <ele>394.3</ele>
        <time>2015-09-18T12:50:00Z</time>
      </trkpt>
      <trkpt lat="42.47681" lon="2.77382">
        <ele>393.9</ele>
        <time>2015-09-18T12:50:01Z</time>
      </trkpt>
      <trkpt lat="42.47677" lon="2.77371">
        <ele>393.6</ele>
        <time>2015-09-18T12:50:02Z</time>
      </trkpt>
      <trkpt lat="42.47674" lon="2.77359">
        <ele>393.4</ele>
        <time>2015-09-18T12:50:03Z</time>
      </trkpt>
      <trkpt lat="42.47673" lon="2.77348">
        <ele>393.2</ele>
        <time>2015-09-18T12:50:04Z</time>
      </trkpt>
      <trkpt lat="42.47673" lon="2.77337">
        <ele>393.3</ele>
        <time>2015-09-18T12:50:05Z</time>
      </trkpt>
      <trkpt lat="42.47674" lon="2.77327">
        <ele>393.6</ele>
        <time>2015-09-18T12:50:06Z</time>
      </trkpt>
      <trkpt lat="42.47675" lon="2.77319">
        <ele>393.6</ele>
        <time>2015-09-18T12:50:07Z</time>
      </trkpt>
      <trkpt lat="42.47677" lon="2.77312">
        <ele>393.6</ele>
        <time>2015-09-18T12:50:08Z</time>
      </trkpt>
      <trkpt lat="42.47678" lon="2.77305">
        <ele>393.9</ele>
        <time>2015-09-18T12:50:09Z</time>
      </trkpt>
      <trkpt lat="42.4768" lon="2.77297">
        <ele>394.1</ele>
        <time>2015-09-18T12:50:10Z</time>
      </trkpt>
      <trkpt lat="42.47681" lon="2.7728">
        <ele>394.2</ele>
        <time>2015-09-18T12:50:12Z</time>
      </trkpt>
      <trkpt lat="42.47681" lon="2.77272">
        <ele>394</ele>
        <time>2015-09-18T12:50:13Z</time>
      </trkpt>
      <trkpt lat="42.47681" lon="2.77263">
        <ele>393.4</ele>
        <time>2015-09-18T12:50:14Z</time>
      </trkpt>
      <trkpt lat="42.4768" lon="2.77255">
        <ele>392.7</ele>
        <time>2015-09-18T12:50:15Z</time>
      </trkpt>
      <trkpt lat="42.4768" lon="2.77255">
        <ele>391.9</ele>
        <time>2015-09-18T12:50:15Z</time>
      </trkpt>
      <trkpt lat="42.47679" lon="2.7724">
        <ele>390.8</ele>
        <time>2015-09-18T12:50:17Z</time>
      </trkpt>
      <trkpt lat="42.47679" lon="2.77232">
        <ele>389.5</ele>
        <time>2015-09-18T12:50:18Z</time>
      </trkpt>
      <trkpt lat="42.47681" lon="2.77226">
        <ele>388.6</ele>
        <time>2015-09-18T12:50:19Z</time>
      </trkpt>
      <trkpt lat="42.47684" lon="2.7722">
        <ele>388.3</ele>
        <time>2015-09-18T12:50:20Z</time>
      </trkpt>
      <trkpt lat="42.47687" lon="2.77215">
        <ele>388.2</ele>
        <time>2015-09-18T12:50:21Z</time>
      </trkpt>
      <trkpt lat="42.4769" lon="2.77211">
        <ele>387.8</ele>
        <time>2015-09-18T12:50:22Z</time>
      </trkpt>
      <trkpt lat="42.47694" lon="2.77206">
        <ele>387.1</ele>
        <time>2015-09-18T12:50:23Z</time>
      </trkpt>
      <trkpt lat="42.47698" lon="2.77202">
        <ele>386.1</ele>
        <time>2015-09-18T12:50:24Z</time>
      </trkpt>
      <trkpt lat="42.47702" lon="2.77198">
        <ele>386.1</ele>
        <time>2015-09-18T12:50:25Z</time>
      </trkpt>
      <trkpt lat="42.47711" lon="2.77193">
        <ele>384.2</ele>
        <time>2015-09-18T12:50:27Z</time>
      </trkpt>
      <trkpt lat="42.47717" lon="2.77193">
        <ele>383.6</ele>
        <time>2015-09-18T12:50:28Z</time>
      </trkpt>
      <trkpt lat="42.47722" lon="2.77196">
        <ele>382.7</ele>
        <time>2015-09-18T12:50:29Z</time>
      </trkpt>
      <trkpt lat="42.47727" lon="2.77201">
        <ele>381.7</ele>
        <time>2015-09-18T12:50:30Z</time>
      </trkpt>
      <trkpt lat="42.47733" lon="2.77206">
        <ele>380.7</ele>
        <time>2015-09-18T12:50:31Z</time>
      </trkpt>
      <trkpt lat="42.47737" lon="2.77211">
        <ele>379.8</ele>
        <time>2015-09-18T12:50:32Z</time>
      </trkpt>
      <trkpt lat="42.47742" lon="2.77217">
        <ele>378.4</ele>
        <time>2015-09-18T12:50:33Z</time>
      </trkpt>
      <trkpt lat="42.47746" lon="2.77224">
        <ele>376.6</ele>
        <time>2015-09-18T12:50:34Z</time>
      </trkpt>
      <trkpt lat="42.4775" lon="2.77234">
        <ele>375.2</ele>
        <time>2015-09-18T12:50:35Z</time>
      </trkpt>
      <trkpt lat="42.47753" lon="2.77243">
        <ele>374.1</ele>
        <time>2015-09-18T12:50:36Z</time>
      </trkpt>
      <trkpt lat="42.47757" lon="2.77254">
        <ele>373.5</ele>
        <time>2015-09-18T12:50:37Z</time>
      </trkpt>
      <trkpt lat="42.47759" lon="2.77265">
        <ele>372.9</ele>
        <time>2015-09-18T12:50:38Z</time>
      </trkpt>
      <trkpt lat="42.47761" lon="2.77277">
        <ele>372.5</ele>
        <time>2015-09-18T12:50:39Z</time>
      </trkpt>
      <trkpt lat="42.47764" lon="2.7729">
        <ele>372.6</ele>
        <time>2015-09-18T12:50:40Z</time>
      </trkpt>
      <trkpt lat="42.47765" lon="2.77304">
        <ele>373.2</ele>
        <time>2015-09-18T12:50:41Z</time>
      </trkpt>
      <trkpt lat="42.47767" lon="2.77317">
        <ele>374.3</ele>
        <time>2015-09-18T12:50:42Z</time>
      </trkpt>
      <trkpt lat="42.47768" lon="2.77329">
        <ele>375.2</ele>
        <time>2015-09-18T12:50:43Z</time>
      </trkpt>
      <trkpt lat="42.47768" lon="2.77329">
        <ele>375.8</ele>
        <time>2015-09-18T12:50:43Z</time>
      </trkpt>
      <trkpt lat="42.47771" lon="2.77352">
        <ele>376</ele>
        <time>2015-09-18T12:50:45Z</time>
      </trkpt>
      <trkpt lat="42.47775" lon="2.77374">
        <ele>376.3</ele>
        <time>2015-09-18T12:50:47Z</time>
      </trkpt>
      <trkpt lat="42.47778" lon="2.77385">
        <ele>376.6</ele>
        <time>2015-09-18T12:50:48Z</time>
      </trkpt>
      <trkpt lat="42.4778" lon="2.77396">
        <ele>376.5</ele>
        <time>2015-09-18T12:50:49Z</time>
      </trkpt>
      <trkpt lat="42.47782" lon="2.77406">
        <ele>376.1</ele>
        <time>2015-09-18T12:50:50Z</time>
      </trkpt>
      <trkpt lat="42.47783" lon="2.77417">
        <ele>375.5</ele>
        <time>2015-09-18T12:50:51Z</time>
      </trkpt>
      <trkpt lat="42.47785" lon="2.77428">
        <ele>374.7</ele>
        <time>2015-09-18T12:50:52Z</time>
      </trkpt>
      <trkpt lat="42.47787" lon="2.7744">
        <ele>373.8</ele>
        <time>2015-09-18T12:50:53Z</time>
      </trkpt>
      <trkpt lat="42.47789" lon="2.77451">
        <ele>372.8</ele>
        <time>2015-09-18T12:50:54Z</time>
      </trkpt>
      <trkpt lat="42.47791" lon="2.77464">
        <ele>371.7</ele>
        <time>2015-09-18T12:50:55Z</time>
      </trkpt>
      <trkpt lat="42.47792" lon="2.77477">
        <ele>370.7</ele>
        <time>2015-09-18T12:50:56Z</time>
      </trkpt>
      <trkpt lat="42.47792" lon="2.7749">
        <ele>369.5</ele>
        <time>2015-09-18T12:50:57Z</time>
      </trkpt>
      <trkpt lat="42.47788" lon="2.77518">
        <ele>369.2</ele>
        <time>2015-09-18T12:50:59Z</time>
      </trkpt>
      <trkpt lat="42.47784" lon="2.77532">
        <ele>368.9</ele>
        <time>2015-09-18T12:51:00Z</time>
      </trkpt>
      <trkpt lat="42.47784" lon="2.77532">
        <ele>368.3</ele>
        <time>2015-09-18T12:51:00Z</time>
      </trkpt>
      <trkpt lat="42.47778" lon="2.77557">
        <ele>367.5</ele>
        <time>2015-09-18T12:51:02Z</time>
      </trkpt>
      <trkpt lat="42.47773" lon="2.7757">
        <ele>366.8</ele>
        <time>2015-09-18T12:51:03Z</time>
      </trkpt>
      <trkpt lat="42.47768" lon="2.77582">
        <ele>366</ele>
        <time>2015-09-18T12:51:04Z</time>
      </trkpt>
      <trkpt lat="42.47762" lon="2.77593">
        <ele>365.2</ele>
        <time>2015-09-18T12:51:05Z</time>
      </trkpt>
      <trkpt lat="42.47755" lon="2.77604">
        <ele>364.3</ele>
        <time>2015-09-18T12:51:06Z</time>
      </trkpt>
      <trkpt lat="42.47747" lon="2.77614">
        <ele>363</ele>
        <time>2015-09-18T12:51:07Z</time>
      </trkpt>
      <trkpt lat="42.47738" lon="2.77624">
        <ele>361.7</ele>
        <time>2015-09-18T12:51:08Z</time>
      </trkpt>
      <trkpt lat="42.47727" lon="2.77634">
        <ele>360.5</ele>
        <time>2015-09-18T12:51:09Z</time>
      </trkpt>
      <trkpt lat="42.47717" lon="2.77641">
        <ele>359.9</ele>
        <time>2015-09-18T12:51:10Z</time>
      </trkpt>
      <trkpt lat="42.47706" lon="2.77646">
        <ele>359.6</ele>
        <time>2015-09-18T12:51:11Z</time>
      </trkpt>
      <trkpt lat="42.47695" lon="2.77648">
        <ele>359.1</ele>
        <time>2015-09-18T12:51:12Z</time>
      </trkpt>
      <trkpt lat="42.47684" lon="2.77647">
        <ele>357.7</ele>
        <time>2015-09-18T12:51:13Z</time>
      </trkpt>
      <trkpt lat="42.47673" lon="2.77643">
        <ele>357.7</ele>
        <time>2015-09-18T12:51:14Z</time>
      </trkpt>
      <trkpt lat="42.47664" lon="2.77638">
        <ele>357.3</ele>
        <time>2015-09-18T12:51:15Z</time>
      </trkpt>
      <trkpt lat="42.47649" lon="2.77622">
        <ele>357.5</ele>
        <time>2015-09-18T12:51:17Z</time>
      </trkpt>
      <trkpt lat="42.47645" lon="2.77613">
        <ele>357.6</ele>
        <time>2015-09-18T12:51:18Z</time>
      </trkpt>
      <trkpt lat="42.47643" lon="2.77603">
        <ele>357.9</ele>
        <time>2015-09-18T12:51:19Z</time>
      </trkpt>
      <trkpt lat="42.4764" lon="2.77592">
        <ele>358.1</ele>
        <time>2015-09-18T12:51:20Z</time>
      </trkpt>
      <trkpt lat="42.47638" lon="2.77582">
        <ele>358</ele>
        <time>2015-09-18T12:51:21Z</time>
      </trkpt>
      <trkpt lat="42.47635" lon="2.77571">
        <ele>357.7</ele>
        <time>2015-09-18T12:51:22Z</time>
      </trkpt>
      <trkpt lat="42.47631" lon="2.7756">
        <ele>357.7</ele>
        <time>2015-09-18T12:51:23Z</time>
      </trkpt>
      <trkpt lat="42.47628" lon="2.77549">
        <ele>358</ele>
        <time>2015-09-18T12:51:24Z</time>
      </trkpt>
      <trkpt lat="42.47627" lon="2.77539">
        <ele>358.3</ele>
        <time>2015-09-18T12:51:25Z</time>
      </trkpt>
      <trkpt lat="42.47626" lon="2.7753">
        <ele>358.3</ele>
        <time>2015-09-18T12:51:26Z</time>
      </trkpt>
      <trkpt lat="42.47625" lon="2.77521">
        <ele>358.4</ele>
        <time>2015-09-18T12:51:27Z</time>
      </trkpt>
      <trkpt lat="42.47624" lon="2.77512">
        <ele>357.9</ele>
        <time>2015-09-18T12:51:28Z</time>
      </trkpt>
      <trkpt lat="42.47622" lon="2.77503">
        <ele>357.2</ele>
        <time>2015-09-18T12:51:29Z</time>
      </trkpt>
      <trkpt lat="42.47622" lon="2.77495">
        <ele>356.5</ele>
        <time>2015-09-18T12:51:30Z</time>
      </trkpt>
      <trkpt lat="42.47625" lon="2.7748">
        <ele>356</ele>
        <time>2015-09-18T12:51:32Z</time>
      </trkpt>
      <trkpt lat="42.47627" lon="2.77473">
        <ele>355.5</ele>
        <time>2015-09-18T12:51:33Z</time>
      </trkpt>
      <trkpt lat="42.47629" lon="2.77467">
        <ele>355.1</ele>
        <time>2015-09-18T12:51:34Z</time>
      </trkpt>
      <trkpt lat="42.47632" lon="2.77462">
        <ele>354.9</ele>
        <time>2015-09-18T12:51:35Z</time>
      </trkpt>
      <trkpt lat="42.47632" lon="2.77462">
        <ele>354.9</ele>
        <time>2015-09-18T12:51:35Z</time>
      </trkpt>
      <trkpt lat="42.47638" lon="2.77452">
        <ele>355.8</ele>
        <time>2015-09-18T12:51:37Z</time>
      </trkpt>
      <trkpt lat="42.4764" lon="2.77447">
        <ele>356.2</ele>
        <time>2015-09-18T12:51:38Z</time>
      </trkpt>
      <trkpt lat="42.47641" lon="2.77441">
        <ele>356.3</ele>
        <time>2015-09-18T12:51:39Z</time>
      </trkpt>
      <trkpt lat="42.47641" lon="2.77435">
        <ele>355.6</ele>
        <time>2015-09-18T12:51:40Z</time>
      </trkpt>
      <trkpt lat="42.4764" lon="2.77429">
        <ele>354.6</ele>
        <time>2015-09-18T12:51:41Z</time>
      </trkpt>
      <trkpt lat="42.4764" lon="2.77421">
        <ele>353.8</ele>
        <time>2015-09-18T12:51:42Z</time>
      </trkpt>
      <trkpt lat="42.47639" lon="2.77413">
        <ele>353.4</ele>
        <time>2015-09-18T12:51:43Z</time>
      </trkpt>
      <trkpt lat="42.47638" lon="2.77406">
        <ele>352.4</ele>
        <time>2015-09-18T12:51:44Z</time>
      </trkpt>
      <trkpt lat="42.47637" lon="2.77398">
        <ele>351.4</ele>
        <time>2015-09-18T12:51:45Z</time>
      </trkpt>
      <trkpt lat="42.4764" lon="2.77386">
        <ele>350.3</ele>
        <time>2015-09-18T12:51:47Z</time>
      </trkpt>
      <trkpt lat="42.47644" lon="2.77381">
        <ele>349.2</ele>
        <time>2015-09-18T12:51:48Z</time>
      </trkpt>
      <trkpt lat="42.47648" lon="2.77379">
        <ele>348.9</ele>
        <time>2015-09-18T12:51:49Z</time>
      </trkpt>
      <trkpt lat="42.47654" lon="2.77377">
        <ele>349.3</ele>
        <time>2015-09-18T12:51:50Z</time>
      </trkpt>
      <trkpt lat="42.47659" lon="2.77374">
        <ele>349.8</ele>
        <time>2015-09-18T12:51:51Z</time>
      </trkpt>
      <trkpt lat="42.47663" lon="2.7737">
        <ele>349.9</ele>
        <time>2015-09-18T12:51:52Z</time>
      </trkpt>
      <trkpt lat="42.47665" lon="2.77364">
        <ele>349.7</ele>
        <time>2015-09-18T12:51:53Z</time>
      </trkpt>
      <trkpt lat="42.47666" lon="2.77358">
        <ele>349.5</ele>
        <time>2015-09-18T12:51:54Z</time>
      </trkpt>
      <trkpt lat="42.47668" lon="2.77351">
        <ele>349.8</ele>
        <time>2015-09-18T12:51:55Z</time>
      </trkpt>
      <trkpt lat="42.47669" lon="2.77344">
        <ele>350.6</ele>
        <time>2015-09-18T12:51:56Z</time>
      </trkpt>
      <trkpt lat="42.4767" lon="2.77337">
        <ele>351.3</ele>
        <time>2015-09-18T12:51:57Z</time>
      </trkpt>
      <trkpt lat="42.47669" lon="2.7733">
        <ele>350.9</ele>
        <time>2015-09-18T12:51:58Z</time>
      </trkpt>
      <trkpt lat="42.47667" lon="2.77323">
        <ele>350.2</ele>
        <time>2015-09-18T12:51:59Z</time>
      </trkpt>
      <trkpt lat="42.47666" lon="2.77315">
        <ele>350.2</ele>
        <time>2015-09-18T12:52:00Z</time>
      </trkpt>
      <trkpt lat="42.47665" lon="2.77307">
        <ele>350.2</ele>
        <time>2015-09-18T12:52:01Z</time>
      </trkpt>
      <trkpt lat="42.47666" lon="2.77292">
        <ele>349</ele>
        <time>2015-09-18T12:52:03Z</time>
      </trkpt>
      <trkpt lat="42.47668" lon="2.77287">
        <ele>348</ele>
        <time>2015-09-18T12:52:04Z</time>
      </trkpt>
      <trkpt lat="42.47671" lon="2.77283">
        <ele>346.2</ele>
        <time>2015-09-18T12:52:05Z</time>
      </trkpt>
      <trkpt lat="42.47671" lon="2.77283">
        <ele>344.6</ele>
        <time>2015-09-18T12:52:05Z</time>
      </trkpt>
      <trkpt lat="42.47681" lon="2.77276">
        <ele>343.7</ele>
        <time>2015-09-18T12:52:07Z</time>
      </trkpt>
      <trkpt lat="42.47687" lon="2.77273">
        <ele>343.7</ele>
        <time>2015-09-18T12:52:08Z</time>
      </trkpt>
      <trkpt lat="42.47692" lon="2.77269">
        <ele>344.1</ele>
        <time>2015-09-18T12:52:09Z</time>
      </trkpt>
      <trkpt lat="42.47695" lon="2.77266">
        <ele>344</ele>
        <time>2015-09-18T12:52:10Z</time>
      </trkpt>
      <trkpt lat="42.47699" lon="2.77264">
        <ele>343.1</ele>
        <time>2015-09-18T12:52:11Z</time>
      </trkpt>
      <trkpt lat="42.47702" lon="2.77261">
        <ele>341.5</ele>
        <time>2015-09-18T12:52:12Z</time>
      </trkpt>
      <trkpt lat="42.47706" lon="2.77259">
        <ele>339.6</ele>
        <time>2015-09-18T12:52:13Z</time>
      </trkpt>
      <trkpt lat="42.47711" lon="2.77256">
        <ele>339.6</ele>
        <time>2015-09-18T12:52:14Z</time>
      </trkpt>
      <trkpt lat="42.47716" lon="2.77254">
        <ele>337.5</ele>
        <time>2015-09-18T12:52:15Z</time>
      </trkpt>
      <trkpt lat="42.4772" lon="2.77252">
        <ele>336.8</ele>
        <time>2015-09-18T12:52:16Z</time>
      </trkpt>
      <trkpt lat="42.47725" lon="2.7725">
        <ele>336</ele>
        <time>2015-09-18T12:52:17Z</time>
      </trkpt>
      <trkpt lat="42.47729" lon="2.77249">
        <ele>334.8</ele>
        <time>2015-09-18T12:52:18Z</time>
      </trkpt>
      <trkpt lat="42.47738" lon="2.77248">
        <ele>333.6</ele>
        <time>2015-09-18T12:52:20Z</time>
      </trkpt>
      <trkpt lat="42.47738" lon="2.77248">
        <ele>332.7</ele>
        <time>2015-09-18T12:52:20Z</time>
      </trkpt>
      <trkpt lat="42.47749" lon="2.77248">
        <ele>331.9</ele>
        <time>2015-09-18T12:52:22Z</time>
      </trkpt>
      <trkpt lat="42.47755" lon="2.77249">
        <ele>331.5</ele>
        <time>2015-09-18T12:52:23Z</time>
      </trkpt>
      <trkpt lat="42.47761" lon="2.7725">
        <ele>331.3</ele>
        <time>2015-09-18T12:52:24Z</time>
      </trkpt>
      <trkpt lat="42.47767" lon="2.77253">
        <ele>331</ele>
        <time>2015-09-18T12:52:25Z</time>
      </trkpt>
      <trkpt lat="42.47772" lon="2.77255">
        <ele>330.9</ele>
        <time>2015-09-18T12:52:26Z</time>
      </trkpt>
      <trkpt lat="42.47777" lon="2.77257">
        <ele>330.4</ele>
        <time>2015-09-18T12:52:27Z</time>
      </trkpt>
      <trkpt lat="42.47782" lon="2.77259">
        <ele>329.4</ele>
        <time>2015-09-18T12:52:28Z</time>
      </trkpt>
      <trkpt lat="42.47788" lon="2.77261">
        <ele>328.1</ele>
        <time>2015-09-18T12:52:29Z</time>
      </trkpt>
      <trkpt lat="42.47794" lon="2.77263">
        <ele>327</ele>
        <time>2015-09-18T12:52:30Z</time>
      </trkpt>
      <trkpt lat="42.478" lon="2.77266">
        <ele>326.1</ele>
        <time>2015-09-18T12:52:31Z</time>
      </trkpt>
      <trkpt lat="42.47806" lon="2.77268">
        <ele>326.1</ele>
        <time>2015-09-18T12:52:32Z</time>
      </trkpt>
      <trkpt lat="42.47811" lon="2.77271">
        <ele>324.7</ele>
        <time>2015-09-18T12:52:33Z</time>
      </trkpt>
      <trkpt lat="42.47822" lon="2.77279">
        <ele>323.3</ele>
        <time>2015-09-18T12:52:35Z</time>
      </trkpt>
      <trkpt lat="42.47822" lon="2.77279">
        <ele>322.2</ele>
        <time>2015-09-18T12:52:35Z</time>
      </trkpt>
      <trkpt lat="42.47833" lon="2.77286">
        <ele>321.3</ele>
        <time>2015-09-18T12:52:37Z</time>
      </trkpt>
      <trkpt lat="42.47839" lon="2.77291">
        <ele>320.5</ele>
        <time>2015-09-18T12:52:38Z</time>
      </trkpt>
      <trkpt lat="42.47845" lon="2.77296">
        <ele>319.7</ele>
        <time>2015-09-18T12:52:39Z</time>
      </trkpt>
      <trkpt lat="42.4785" lon="2.77302">
        <ele>319.1</ele>
        <time>2015-09-18T12:52:40Z</time>
      </trkpt>
      <trkpt lat="42.47855" lon="2.77307">
        <ele>318.2</ele>
        <time>2015-09-18T12:52:41Z</time>
      </trkpt>
      <trkpt lat="42.47861" lon="2.77312">
        <ele>317.3</ele>
        <time>2015-09-18T12:52:42Z</time>
      </trkpt>
      <trkpt lat="42.47867" lon="2.77316">
        <ele>316.6</ele>
        <time>2015-09-18T12:52:43Z</time>
      </trkpt>
      <trkpt lat="42.47872" lon="2.7732">
        <ele>316</ele>
        <time>2015-09-18T12:52:44Z</time>
      </trkpt>
      <trkpt lat="42.47877" lon="2.77326">
        <ele>315.7</ele>
        <time>2015-09-18T12:52:45Z</time>
      </trkpt>
      <trkpt lat="42.47881" lon="2.7733">
        <ele>315</ele>
        <time>2015-09-18T12:52:46Z</time>
      </trkpt>
      <trkpt lat="42.47885" lon="2.77335">
        <ele>313.6</ele>
        <time>2015-09-18T12:52:47Z</time>
      </trkpt>
      <trkpt lat="42.4789" lon="2.77339">
        <ele>311.6</ele>
        <time>2015-09-18T12:52:48Z</time>
      </trkpt>
      <trkpt lat="42.47895" lon="2.77343">
        <ele>308.8</ele>
        <time>2015-09-18T12:52:49Z</time>
      </trkpt>
      <trkpt lat="42.47901" lon="2.77347">
        <ele>307.9</ele>
        <time>2015-09-18T12:52:50Z</time>
      </trkpt>
      <trkpt lat="42.47911" lon="2.77354">
        <ele>306.9</ele>
        <time>2015-09-18T12:52:52Z</time>
      </trkpt>
      <trkpt lat="42.47915" lon="2.77358">
        <ele>305.4</ele>
        <time>2015-09-18T12:52:53Z</time>
      </trkpt>
      <trkpt lat="42.4792" lon="2.77362">
        <ele>303.8</ele>
        <time>2015-09-18T12:52:54Z</time>
      </trkpt>
      <trkpt lat="42.47925" lon="2.77367">
        <ele>302.5</ele>
        <time>2015-09-18T12:52:55Z</time>
      </trkpt>
      <trkpt lat="42.4793" lon="2.7737">
        <ele>301.4</ele>
        <time>2015-09-18T12:52:56Z</time>
      </trkpt>
      <trkpt lat="42.47935" lon="2.77374">
        <ele>300</ele>
        <time>2015-09-18T12:52:57Z</time>
      </trkpt>
      <trkpt lat="42.4794" lon="2.77377">
        <ele>298.1</ele>
        <time>2015-09-18T12:52:58Z</time>
      </trkpt>
      <trkpt lat="42.47945" lon="2.77381">
        <ele>295.8</ele>
        <time>2015-09-18T12:52:59Z</time>
      </trkpt>
      <trkpt lat="42.4795" lon="2.77386">
        <ele>294</ele>
        <time>2015-09-18T12:53:00Z</time>
      </trkpt>
      <trkpt lat="42.47955" lon="2.77392">
        <ele>292.9</ele>
        <time>2015-09-18T12:53:01Z</time>
      </trkpt>
      <trkpt lat="42.47957" lon="2.77401">
        <ele>290.6</ele>
        <time>2015-09-18T12:53:02Z</time>
      </trkpt>
      <trkpt lat="42.47955" lon="2.77413">
        <ele>290.6</ele>
        <time>2015-09-18T12:53:03Z</time>
      </trkpt>
      <trkpt lat="42.4795" lon="2.77426">
        <ele>285.2</ele>
        <time>2015-09-18T12:53:04Z</time>
      </trkpt>
      <trkpt lat="42.47945" lon="2.77439">
        <ele>283.1</ele>
        <time>2015-09-18T12:53:05Z</time>
      </trkpt>
      <trkpt lat="42.47946" lon="2.77463">
        <ele>278.6</ele>
        <time>2015-09-18T12:53:07Z</time>
      </trkpt>
      <trkpt lat="42.47954" lon="2.77467">
        <ele>275.3</ele>
        <time>2015-09-18T12:53:08Z</time>
      </trkpt>
      <trkpt lat="42.47961" lon="2.77468">
        <ele>272.2</ele>
        <time>2015-09-18T12:53:09Z</time>
      </trkpt>
      <trkpt lat="42.47965" lon="2.7747">
        <ele>270.3</ele>
        <time>2015-09-18T12:53:10Z</time>
      </trkpt>
      <trkpt lat="42.47968" lon="2.77478">
        <ele>266.5</ele>
        <time>2015-09-18T12:53:11Z</time>
      </trkpt>
      <trkpt lat="42.47968" lon="2.77491">
        <ele>262.5</ele>
        <time>2015-09-18T12:53:12Z</time>
      </trkpt>
      <trkpt lat="42.47966" lon="2.77505">
        <ele>263.3</ele>
        <time>2015-09-18T12:53:13Z</time>
      </trkpt>
      <trkpt lat="42.47967" lon="2.77516">
        <ele>262.4</ele>
        <time>2015-09-18T12:53:14Z</time>
      </trkpt>
      <trkpt lat="42.47971" lon="2.77522">
        <ele>261.6</ele>
        <time>2015-09-18T12:53:15Z</time>
      </trkpt>
      <trkpt lat="42.47979" lon="2.77519">
        <ele>256.2</ele>
        <time>2015-09-18T12:53:16Z</time>
      </trkpt>
      <trkpt lat="42.47985" lon="2.77514">
        <ele>252.6</ele>
        <time>2015-09-18T12:53:17Z</time>
      </trkpt>
      <trkpt lat="42.47991" lon="2.77514">
        <ele>250.5</ele>
        <time>2015-09-18T12:53:18Z</time>
      </trkpt>
      <trkpt lat="42.47995" lon="2.7752">
        <ele>247.1</ele>
        <time>2015-09-18T12:53:19Z</time>
      </trkpt>
      <trkpt lat="42.47995" lon="2.77532">
        <ele>241.2</ele>
        <time>2015-09-18T12:53:20Z</time>
      </trkpt>
      <trkpt lat="42.47991" lon="2.77548">
        <ele>239.8</ele>
        <time>2015-09-18T12:53:21Z</time>
      </trkpt>
      <trkpt lat="42.47986" lon="2.77563">
        <ele>240</ele>
        <time>2015-09-18T12:53:22Z</time>
      </trkpt>
      <trkpt lat="42.47983" lon="2.77574">
        <ele>238.4</ele>
        <time>2015-09-18T12:53:23Z</time>
      </trkpt>
      <trkpt lat="42.47982" lon="2.77592">
        <ele>237.4</ele>
        <time>2015-09-18T12:53:25Z</time>
      </trkpt>
      <trkpt lat="42.47982" lon="2.77592">
        <ele>235.5</ele>
        <time>2015-09-18T12:53:25Z</time>
      </trkpt>
      <trkpt lat="42.4798" lon="2.77612">
        <ele>231</ele>
        <time>2015-09-18T12:53:27Z</time>
      </trkpt>
      <trkpt lat="42.4798" lon="2.77623">
        <ele>228.4</ele>
        <time>2015-09-18T12:53:28Z</time>
      </trkpt>
      <trkpt lat="42.47983" lon="2.77633">
        <ele>226.3</ele>
        <time>2015-09-18T12:53:29Z</time>
      </trkpt>
      <trkpt lat="42.47987" lon="2.77641">
        <ele>224.9</ele>
        <time>2015-09-18T12:53:30Z</time>
      </trkpt>
      <trkpt lat="42.47991" lon="2.7765">
        <ele>223.7</ele>
        <time>2015-09-18T12:53:31Z</time>
      </trkpt>
      <trkpt lat="42.47995" lon="2.77658">
        <ele>222.5</ele>
        <time>2015-09-18T12:53:32Z</time>
      </trkpt>
      <trkpt lat="42.47998" lon="2.77667">
        <ele>221.3</ele>
        <time>2015-09-18T12:53:33Z</time>
      </trkpt>
      <trkpt lat="42.48002" lon="2.77677">
        <ele>220.2</ele>
        <time>2015-09-18T12:53:34Z</time>
      </trkpt>
      <trkpt lat="42.48006" lon="2.77686">
        <ele>218.7</ele>
        <time>2015-09-18T12:53:35Z</time>
      </trkpt>
      <trkpt lat="42.48009" lon="2.77694">
        <ele>217.2</ele>
        <time>2015-09-18T12:53:36Z</time>
      </trkpt>
      <trkpt lat="42.48013" lon="2.77703">
        <ele>215.4</ele>
        <time>2015-09-18T12:53:37Z</time>
      </trkpt>
      <trkpt lat="42.48017" lon="2.77713">
        <ele>211.8</ele>
        <time>2015-09-18T12:53:38Z</time>
      </trkpt>
      <trkpt lat="42.4802" lon="2.77722">
        <ele>209.6</ele>
        <time>2015-09-18T12:53:39Z</time>
      </trkpt>
      <trkpt lat="42.48025" lon="2.7773">
        <ele>207.6</ele>
        <time>2015-09-18T12:53:40Z</time>
      </trkpt>
      <trkpt lat="42.48037" lon="2.77742">
        <ele>206.7</ele>
        <time>2015-09-18T12:53:42Z</time>
      </trkpt>
      <trkpt lat="42.48043" lon="2.77747">
        <ele>206.5</ele>
        <time>2015-09-18T12:53:43Z</time>
      </trkpt>
      <trkpt lat="42.48049" lon="2.7775">
        <ele>206.2</ele>
        <time>2015-09-18T12:53:44Z</time>
      </trkpt>
      <trkpt lat="42.48054" lon="2.77752">
        <ele>205.1</ele>
        <time>2015-09-18T12:53:45Z</time>
      </trkpt>
      <trkpt lat="42.48058" lon="2.77749">
        <ele>203.2</ele>
        <time>2015-09-18T12:53:46Z</time>
      </trkpt>
      <trkpt lat="42.4806" lon="2.77742">
        <ele>201.4</ele>
        <time>2015-09-18T12:53:47Z</time>
      </trkpt>
      <trkpt lat="42.4806" lon="2.77733">
        <ele>199.6</ele>
        <time>2015-09-18T12:53:48Z</time>
      </trkpt>
      <trkpt lat="42.48058" lon="2.77723">
        <ele>198.2</ele>
        <time>2015-09-18T12:53:49Z</time>
      </trkpt>
      <trkpt lat="42.48057" lon="2.77714">
        <ele>197.4</ele>
        <time>2015-09-18T12:53:50Z</time>
      </trkpt>
      <trkpt lat="42.48055" lon="2.77705">
        <ele>197.2</ele>
        <time>2015-09-18T12:53:51Z</time>
      </trkpt>
      <trkpt lat="42.48054" lon="2.77698">
        <ele>196.6</ele>
        <time>2015-09-18T12:53:52Z</time>
      </trkpt>
      <trkpt lat="42.48051" lon="2.77691">
        <ele>192.8</ele>
        <time>2015-09-18T12:53:53Z</time>
      </trkpt>
      <trkpt lat="42.48048" lon="2.77675">
        <ele>190.7</ele>
        <time>2015-09-18T12:53:55Z</time>
      </trkpt>
      <trkpt lat="42.48048" lon="2.77675">
        <ele>188</ele>
        <time>2015-09-18T12:53:55Z</time>
      </trkpt>
      <trkpt lat="42.48053" lon="2.77659">
        <ele>186.1</ele>
        <time>2015-09-18T12:53:57Z</time>
      </trkpt>
      <trkpt lat="42.48058" lon="2.77653">
        <ele>185.1</ele>
        <time>2015-09-18T12:53:58Z</time>
      </trkpt>
      <trkpt lat="42.48063" lon="2.7765">
        <ele>184</ele>
        <time>2015-09-18T12:53:59Z</time>
      </trkpt>
      <trkpt lat="42.48068" lon="2.77648">
        <ele>182.7</ele>
        <time>2015-09-18T12:54:00Z</time>
      </trkpt>
      <trkpt lat="42.48073" lon="2.77647">
        <ele>181.9</ele>
        <time>2015-09-18T12:54:01Z</time>
      </trkpt>
      <trkpt lat="42.48077" lon="2.77645">
        <ele>181</ele>
        <time>2015-09-18T12:54:02Z</time>
      </trkpt>
      <trkpt lat="42.4808" lon="2.77644">
        <ele>180.3</ele>
        <time>2015-09-18T12:54:03Z</time>
      </trkpt>
      <trkpt lat="42.48083" lon="2.77643">
        <ele>180.2</ele>
        <time>2015-09-18T12:54:04Z</time>
      </trkpt>
      <trkpt lat="42.48086" lon="2.77641">
        <ele>180.1</ele>
        <time>2015-09-18T12:54:05Z</time>
      </trkpt>
      <trkpt lat="42.48089" lon="2.77639">
        <ele>179.9</ele>
        <time>2015-09-18T12:54:06Z</time>
      </trkpt>
      <trkpt lat="42.48093" lon="2.77637">
        <ele>179.8</ele>
        <time>2015-09-18T12:54:07Z</time>
      </trkpt>
      <trkpt lat="42.48096" lon="2.77636">
        <ele>179.3</ele>
        <time>2015-09-18T12:54:08Z</time>
      </trkpt>
      <trkpt lat="42.481" lon="2.77634">
        <ele>179.3</ele>
        <time>2015-09-18T12:54:09Z</time>
      </trkpt>
      <trkpt lat="42.48103" lon="2.77633">
        <ele>179.2</ele>
        <time>2015-09-18T12:54:10Z</time>
      </trkpt>
      <trkpt lat="42.48107" lon="2.77632">
        <ele>179.3</ele>
        <time>2015-09-18T12:54:11Z</time>
      </trkpt>
      <trkpt lat="42.48107" lon="2.77632">
        <ele>179</ele>
        <time>2015-09-18T12:54:11Z</time>
      </trkpt>
      <trkpt lat="42.48116" lon="2.77624">
        <ele>178.8</ele>
        <time>2015-09-18T12:54:14Z</time>
      </trkpt>
      <trkpt lat="42.48119" lon="2.77621">
        <ele>178.7</ele>
        <time>2015-09-18T12:54:15Z</time>
      </trkpt>
      <trkpt lat="42.48119" lon="2.77621">
        <ele>178.8</ele>
        <time>2015-09-18T12:54:15Z</time>
      </trkpt>
      <trkpt lat="42.48124" lon="2.77618">
        <ele>178.2</ele>
        <time>2015-09-18T12:54:17Z</time>
      </trkpt>
      <trkpt lat="42.48128" lon="2.77617">
        <ele>178.6</ele>
        <time>2015-09-18T12:54:18Z</time>
      </trkpt>
      <trkpt lat="42.48131" lon="2.77615">
        <ele>179.3</ele>
        <time>2015-09-18T12:54:19Z</time>
      </trkpt>
      <trkpt lat="42.48132" lon="2.77615">
        <ele>179.3</ele>
        <time>2015-09-18T12:54:20Z</time>
      </trkpt>
      <trkpt lat="42.48133" lon="2.77615">
        <ele>179.2</ele>
        <time>2015-09-18T12:54:21Z</time>
      </trkpt>
      <trkpt lat="42.48133" lon="2.77617">
        <ele>179.5</ele>
        <time>2015-09-18T12:54:22Z</time>
      </trkpt>
      <trkpt lat="42.48133" lon="2.77619">
        <ele>179.6</ele>
        <time>2015-09-18T12:54:23Z</time>
      </trkpt>
      <trkpt lat="42.48133" lon="2.77621">
        <ele>179.6</ele>
        <time>2015-09-18T12:54:24Z</time>
      </trkpt>
      <trkpt lat="42.48134" lon="2.77624">
        <ele>179.6</ele>
        <time>2015-09-18T12:54:25Z</time>
      </trkpt>
      <trkpt lat="42.48134" lon="2.77625">
        <ele>179.6</ele>
        <time>2015-09-18T12:54:26Z</time>
      </trkpt>
      <trkpt lat="42.48135" lon="2.77627">
        <ele>179.6</ele>
        <time>2015-09-18T12:54:27Z</time>
      </trkpt>
      <trkpt lat="42.48136" lon="2.77628">
        <ele>179.7</ele>
        <time>2015-09-18T12:54:29Z</time>
      </trkpt>
      <trkpt lat="42.48137" lon="2.77628">
        <ele>179.8</ele>
        <time>2015-09-18T12:54:30Z</time>
      </trkpt>
      <trkpt lat="42.48137" lon="2.77628">
        <ele>179.9</ele>
        <time>2015-09-18T12:54:30Z</time>
      </trkpt>
      <trkpt lat="42.48137" lon="2.77628">
        <ele>180</ele>
        <time>2015-09-18T12:54:32Z</time>
      </trkpt>
      <trkpt lat="42.48137" lon="2.77628">
        <ele>180.1</ele>
        <time>2015-09-18T12:54:33Z</time>
      </trkpt>
      <trkpt lat="42.48137" lon="2.77628">
        <ele>180.1</ele>
        <time>2015-09-18T12:54:33Z</time>
      </trkpt>
      <trkpt lat="42.48137" lon="2.77628">
        <ele>180.1</ele>
        <time>2015-09-18T12:54:35Z</time>
      </trkpt>
      <trkpt lat="42.48137" lon="2.77628">
        <ele>180.1</ele>
        <time>2015-09-18T12:54:36Z</time>
      </trkpt>
      <trkpt lat="42.48137" lon="2.77628">
        <ele>180.1</ele>
        <time>2015-09-18T12:54:37Z</time>
      </trkpt>
      <trkpt lat="42.48137" lon="2.77628">
        <ele>180.1</ele>
        <time>2015-09-18T12:54:38Z</time>
      </trkpt>
      <trkpt lat="42.48137" lon="2.77628">
        <ele>180.1</ele>
        <time>2015-09-18T12:54:39Z</time>
      </trkpt>
      <trkpt lat="42.48137" lon="2.77628">
        <ele>180.1</ele>
        <time>2015-09-18T12:54:40Z</time>
      </trkpt>
      <trkpt lat="42.48137" lon="2.77628">
        <ele>180.1</ele>
        <time>2015-09-18T12:54:41Z</time>
      </trkpt>
      <trkpt lat="42.48137" lon="2.77628">
        <ele>180.1</ele>
        <time>2015-09-18T12:54:42Z</time>
      </trkpt>
      <trkpt lat="42.48137" lon="2.77629">
        <ele>180.1</ele>
        <time>2015-09-18T12:54:43Z</time>
      </trkpt>
      <trkpt lat="42.48137" lon="2.77629">
        <ele>180.1</ele>
        <time>2015-09-18T12:54:45Z</time>
      </trkpt>
      <trkpt lat="42.48137" lon="2.77629">
        <ele>180.1</ele>
        <time>2015-09-18T12:54:45Z</time>
      </trkpt>
      <trkpt lat="42.48137" lon="2.77629">
        <ele>180.1</ele>
        <time>2015-09-18T12:54:47Z</time>
      </trkpt>
      <trkpt lat="42.48137" lon="2.77629">
        <ele>180.1</ele>
        <time>2015-09-18T12:54:48Z</time>
      </trkpt>
      <trkpt lat="42.48137" lon="2.77629">
        <ele>180.1</ele>
        <time>2015-09-18T12:54:49Z</time>
      </trkpt>
      <trkpt lat="42.48137" lon="2.77629">
        <ele>180.1</ele>
        <time>2015-09-18T12:54:50Z</time>
      </trkpt>
      <trkpt lat="42.48137" lon="2.77629">
        <ele>180.1</ele>
        <time>2015-09-18T12:54:51Z</time>
      </trkpt>
      <trkpt lat="42.48137" lon="2.77629">
        <ele>180.1</ele>
        <time>2015-09-18T12:54:52Z</time>
      </trkpt>
      <trkpt lat="42.48137" lon="2.77629">
        <ele>180.1</ele>
        <time>2015-09-18T12:54:53Z</time>
      </trkpt>
      <trkpt lat="42.48137" lon="2.77629">
        <ele>180.1</ele>
        <time>2015-09-18T12:54:54Z</time>
      </trkpt>
      <trkpt lat="42.48137" lon="2.77629">
        <ele>180.1</ele>
        <time>2015-09-18T12:54:55Z</time>
      </trkpt>
      <trkpt lat="42.48137" lon="2.77629">
        <ele>180.1</ele>
        <time>2015-09-18T12:54:56Z</time>
      </trkpt>
    </trkseg>
  </trk>
</gpx>